<?xml version='1.0' encoding='UTF-8'?><gpx version="1.1" creator="JPX - https://github.com/jenetics/jpx" xmlns="http://www.topografix.com/GPX/1/1"><trk><trkseg><trkpt lat="45.68884043645206" lon="9.345389289292799"><ele>286.0</ele><time>2026-03-16T15:03:46Z</time></trkpt><trkpt lat="45.688925681084946" lon="9.34529923934547"><ele>286.0</ele><time>2026-03-16T15:03:48Z</time></trkpt><trkpt lat="45.688958920893654" lon="9.345213784428369"><ele>286.0</ele><time>2026-03-16T15:03:48.999Z</time></trkpt><trkpt lat="45.689007814625555" lon="9.345068252849254"><ele>286.0</ele><time>2026-03-16T15:03:50.999Z</time></trkpt><trkpt lat="45.689052589024946" lon="9.344999810601585"><ele>286.0</ele><time>2026-03-16T15:03:51.999Z</time></trkpt><trkpt lat="45.689101414095575" lon="9.344836200506114"><ele>286.5</ele><time>2026-03-16T15:03:52.999Z</time></trkpt><trkpt lat="45.68918324586677" lon="9.344683781640494"><ele>287.0</ele><time>2026-03-16T15:03:53.999Z</time></trkpt><trkpt lat="45.68924310433264" lon="9.344503482956794"><ele>287.5</ele><time>2026-03-16T15:03:54.999Z</time></trkpt><trkpt lat="45.68933407264025" lon="9.34431955416086"><ele>288.0</ele><time>2026-03-16T15:03:55.999Z</time></trkpt><trkpt lat="45.68940841642204" lon="9.34414009799997"><ele>288.0</ele><time>2026-03-16T15:03:56.999Z</time></trkpt><trkpt lat="45.68947079365362" lon="9.343988372399911"><ele>288.0</ele><time>2026-03-16T15:03:57.999Z</time></trkpt><trkpt lat="45.68953283292233" lon="9.343837087077189"><ele>288.0</ele><time>2026-03-16T15:03:58.999Z</time></trkpt><trkpt lat="45.68959684415035" lon="9.343680933466858"><ele>288.0</ele><time>2026-03-16T15:03:59.999Z</time></trkpt><trkpt lat="45.689667796289285" lon="9.343507874952492"><ele>288.25</ele><time>2026-03-16T15:04:00.999Z</time></trkpt><trkpt lat="45.68972720355615" lon="9.34336304764658"><ele>288.5</ele><time>2026-03-16T15:04:01.999Z</time></trkpt><trkpt lat="45.6897919270343" lon="9.343205260102678"><ele>288.75</ele><time>2026-03-16T15:04:02.999Z</time></trkpt><trkpt lat="45.689856499429986" lon="9.34304784087836"><ele>289.0</ele><time>2026-03-16T15:04:03.999Z</time></trkpt><trkpt lat="45.68991987147224" lon="9.342893347961876"><ele>289.5</ele><time>2026-03-16T15:04:04.999Z</time></trkpt><trkpt lat="45.689972015693066" lon="9.342752613556856"><ele>290.0</ele><time>2026-03-16T15:04:05.999Z</time></trkpt><trkpt lat="45.690035033085806" lon="9.342600995471118"><ele>290.5</ele><time>2026-03-16T15:04:06.999Z</time></trkpt><trkpt lat="45.690104383769565" lon="9.3424309501111"><ele>291.0</ele><time>2026-03-16T15:04:07.999Z</time></trkpt><trkpt lat="45.690168914530894" lon="9.342271333148515"><ele>291.25</ele><time>2026-03-16T15:04:08.999Z</time></trkpt><trkpt lat="45.69023493869923" lon="9.342104486084557"><ele>291.5</ele><time>2026-03-16T15:04:09.999Z</time></trkpt><trkpt lat="45.69030324608686" lon="9.341933253369124"><ele>291.75</ele><time>2026-03-16T15:04:10.999Z</time></trkpt><trkpt lat="45.69036188693827" lon="9.341763613919003"><ele>292.0</ele><time>2026-03-16T15:04:11.999Z</time></trkpt><trkpt lat="45.69041602928666" lon="9.341605356160251"><ele>292.75</ele><time>2026-03-16T15:04:12.999Z</time></trkpt><trkpt lat="45.69046112920387" lon="9.341449744167"><ele>293.5</ele><time>2026-03-16T15:04:13.999Z</time></trkpt><trkpt lat="45.69048038405196" lon="9.341280245210983"><ele>294.25</ele><time>2026-03-16T15:04:14.999Z</time></trkpt><trkpt lat="45.69047368130411" lon="9.34109908442491"><ele>295.0</ele><time>2026-03-16T15:04:15.999Z</time></trkpt><trkpt lat="45.690418783863244" lon="9.340919549717306"><ele>295.75</ele><time>2026-03-16T15:04:16.999Z</time></trkpt><trkpt lat="45.690382671126876" lon="9.340713521360314"><ele>296.5</ele><time>2026-03-16T15:04:17.999Z</time></trkpt><trkpt lat="45.69035764987971" lon="9.340513390070747"><ele>297.25</ele><time>2026-03-16T15:04:18.999Z</time></trkpt><trkpt lat="45.69032794420605" lon="9.340369043992457"><ele>298.0</ele><time>2026-03-16T15:04:19.999Z</time></trkpt><trkpt lat="45.69032172690684" lon="9.340221294311844"><ele>298.0</ele><time>2026-03-16T15:04:20.999Z</time></trkpt><trkpt lat="45.69038718868128" lon="9.34009548485324"><ele>298.0</ele><time>2026-03-16T15:04:21.999Z</time></trkpt><trkpt lat="45.69045704320449" lon="9.339934475073521"><ele>298.0</ele><time>2026-03-16T15:04:22.999Z</time></trkpt><trkpt lat="45.690537818213855" lon="9.33975670107605"><ele>298.0</ele><time>2026-03-16T15:04:23.999Z</time></trkpt><trkpt lat="45.6906369609109" lon="9.339549973003185"><ele>297.0</ele><time>2026-03-16T15:04:24.999Z</time></trkpt><trkpt lat="45.69073466652009" lon="9.339315832658075"><ele>296.0</ele><time>2026-03-16T15:04:25.999Z</time></trkpt><trkpt lat="45.69082240782843" lon="9.33917524172432"><ele>295.0</ele><time>2026-03-16T15:04:26.999Z</time></trkpt><trkpt lat="45.690905394173825" lon="9.339010131255616"><ele>294.5</ele><time>2026-03-16T15:04:27.999Z</time></trkpt><trkpt lat="45.69099615885763" lon="9.338877390285012"><ele>294.0</ele><time>2026-03-16T15:04:28.999Z</time></trkpt><trkpt lat="45.69110983029838" lon="9.338747613535112"><ele>293.5</ele><time>2026-03-16T15:04:29.999Z</time></trkpt><trkpt lat="45.69124877613386" lon="9.338618883061892"><ele>293.0</ele><time>2026-03-16T15:04:30.999Z</time></trkpt><trkpt lat="45.69135567583024" lon="9.338477430425812"><ele>293.75</ele><time>2026-03-16T15:04:31.999Z</time></trkpt><trkpt lat="45.69146254302582" lon="9.338351581033285"><ele>294.5</ele><time>2026-03-16T15:04:32.999Z</time></trkpt><trkpt lat="45.69158532653994" lon="9.338232657148813"><ele>295.25</ele><time>2026-03-16T15:04:33.999Z</time></trkpt><trkpt lat="45.691695391269434" lon="9.338101269948924"><ele>296.0</ele><time>2026-03-16T15:04:34.999Z</time></trkpt><trkpt lat="45.69179852862079" lon="9.337971201453657"><ele>296.0</ele><time>2026-03-16T15:04:35.999Z</time></trkpt><trkpt lat="45.69189308887561" lon="9.337831347266341"><ele>296.0</ele><time>2026-03-16T15:04:36.999Z</time></trkpt><trkpt lat="45.69198223499016" lon="9.337658879670247"><ele>296.0</ele><time>2026-03-16T15:04:37.999Z</time></trkpt><trkpt lat="45.69207148090927" lon="9.337487318741093"><ele>296.0</ele><time>2026-03-16T15:04:38.999Z</time></trkpt><trkpt lat="45.69216616130631" lon="9.337317946356825"><ele>296.5</ele><time>2026-03-16T15:04:39.999Z</time></trkpt><trkpt lat="45.69225451209885" lon="9.337151218958287"><ele>297.0</ele><time>2026-03-16T15:04:40.999Z</time></trkpt><trkpt lat="45.69233826864092" lon="9.337009887569792"><ele>297.5</ele><time>2026-03-16T15:04:41.999Z</time></trkpt><trkpt lat="45.692394142320026" lon="9.336867116825065"><ele>298.0</ele><time>2026-03-16T15:04:42.999Z</time></trkpt><trkpt lat="45.69243327126169" lon="9.336694869157041"><ele>298.0</ele><time>2026-03-16T15:04:43.999Z</time></trkpt><trkpt lat="45.692420034811015" lon="9.336478266961885"><ele>298.0</ele><time>2026-03-16T15:04:44.999Z</time></trkpt><trkpt lat="45.69238914690595" lon="9.336258647139138"><ele>298.0</ele><time>2026-03-16T15:04:45.999Z</time></trkpt><trkpt lat="45.69237208079173" lon="9.336054466969818"><ele>298.25</ele><time>2026-03-16T15:04:46.999Z</time></trkpt><trkpt lat="45.692364867448546" lon="9.335881376828855"><ele>298.5</ele><time>2026-03-16T15:04:47.999Z</time></trkpt><trkpt lat="45.692350045230796" lon="9.335667469895133"><ele>298.75</ele><time>2026-03-16T15:04:48.999Z</time></trkpt><trkpt lat="45.69233144802819" lon="9.33547895331384"><ele>299.0</ele><time>2026-03-16T15:04:50Z</time></trkpt><trkpt lat="45.69231079516775" lon="9.335288333538891"><ele>299.0</ele><time>2026-03-16T15:04:51Z</time></trkpt><trkpt lat="45.6923099383396" lon="9.335084188329146"><ele>299.0</ele><time>2026-03-16T15:04:52Z</time></trkpt><trkpt lat="45.69224110134309" lon="9.334944013579916"><ele>299.0</ele><time>2026-03-16T15:04:53Z</time></trkpt><trkpt lat="45.69214357504993" lon="9.334783602041883"><ele>299.0</ele><time>2026-03-16T15:04:54Z</time></trkpt><trkpt lat="45.69204809839531" lon="9.334627429792898"><ele>299.0</ele><time>2026-03-16T15:04:55Z</time></trkpt><trkpt lat="45.69196478278948" lon="9.334462942282665"><ele>299.0</ele><time>2026-03-16T15:04:56Z</time></trkpt><trkpt lat="45.69189707676939" lon="9.334320315968329"><ele>299.0</ele><time>2026-03-16T15:04:57Z</time></trkpt><trkpt lat="45.69187051690056" lon="9.334238316300306"><ele>299.0</ele><time>2026-03-16T15:04:58Z</time></trkpt><trkpt lat="45.69184511568596" lon="9.33412690666765"><ele>299.0</ele><time>2026-03-16T15:05:00Z</time></trkpt><trkpt lat="45.69171526668528" lon="9.334220471240986"><ele>299.0</ele><time>2026-03-16T15:05:02Z</time></trkpt><trkpt lat="45.69166161735624" lon="9.3343170244022"><ele>299.0</ele><time>2026-03-16T15:05:03Z</time></trkpt><trkpt lat="45.69159864109213" lon="9.334428825151138"><ele>299.0</ele><time>2026-03-16T15:05:04Z</time></trkpt><trkpt lat="45.691517038527934" lon="9.334556883921826"><ele>299.0</ele><time>2026-03-16T15:05:05Z</time></trkpt><trkpt lat="45.69141824545787" lon="9.334707341024474"><ele>299.0</ele><time>2026-03-16T15:05:06Z</time></trkpt><trkpt lat="45.691316250202206" lon="9.334854145875575"><ele>299.0</ele><time>2026-03-16T15:05:07Z</time></trkpt><trkpt lat="45.69121654435558" lon="9.33501360461584"><ele>299.0</ele><time>2026-03-16T15:05:08Z</time></trkpt><trkpt lat="45.691120838761975" lon="9.335164818159054"><ele>299.0</ele><time>2026-03-16T15:05:09Z</time></trkpt><trkpt lat="45.69101946955057" lon="9.335314391337269"><ele>299.0</ele><time>2026-03-16T15:05:10Z</time></trkpt><trkpt lat="45.690926557717454" lon="9.335455723567238"><ele>299.0</ele><time>2026-03-16T15:05:11Z</time></trkpt><trkpt lat="45.69082820914841" lon="9.335606318377534"><ele>299.0</ele><time>2026-03-16T15:05:12Z</time></trkpt><trkpt lat="45.69072440031223" lon="9.335766946733724"><ele>299.0</ele><time>2026-03-16T15:05:13Z</time></trkpt><trkpt lat="45.69063796017506" lon="9.33591204297779"><ele>298.75</ele><time>2026-03-16T15:05:14Z</time></trkpt><trkpt lat="45.69055142884445" lon="9.33605338022799"><ele>298.5</ele><time>2026-03-16T15:05:15Z</time></trkpt><trkpt lat="45.6904663079814" lon="9.336186745454208"><ele>298.25</ele><time>2026-03-16T15:05:16Z</time></trkpt><trkpt lat="45.69038984862737" lon="9.336315903914564"><ele>298.0</ele><time>2026-03-16T15:05:17Z</time></trkpt><trkpt lat="45.69031615776188" lon="9.336443292969063"><ele>297.25</ele><time>2026-03-16T15:05:18Z</time></trkpt><trkpt lat="45.690224698608596" lon="9.33657402489397"><ele>296.5</ele><time>2026-03-16T15:05:19Z</time></trkpt><trkpt lat="45.69014283836565" lon="9.336690960318071"><ele>295.75</ele><time>2026-03-16T15:05:20Z</time></trkpt><trkpt lat="45.69005973123261" lon="9.336818838255065"><ele>295.0</ele><time>2026-03-16T15:05:21Z</time></trkpt><trkpt lat="45.68997716142403" lon="9.336949674619483"><ele>295.0</ele><time>2026-03-16T15:05:22Z</time></trkpt><trkpt lat="45.68989170036181" lon="9.337082217194947"><ele>295.0</ele><time>2026-03-16T15:05:23Z</time></trkpt><trkpt lat="45.689800846604136" lon="9.337218334182957"><ele>295.0</ele><time>2026-03-16T15:05:24Z</time></trkpt><trkpt lat="45.689719394045945" lon="9.33734405789817"><ele>295.0</ele><time>2026-03-16T15:05:25Z</time></trkpt><trkpt lat="45.68964399509767" lon="9.337461277437155"><ele>294.8</ele><time>2026-03-16T15:05:26Z</time></trkpt><trkpt lat="45.68956084051697" lon="9.337571989889227"><ele>294.6</ele><time>2026-03-16T15:05:27Z</time></trkpt><trkpt lat="45.68948360410893" lon="9.337683800480892"><ele>294.4</ele><time>2026-03-16T15:05:28Z</time></trkpt><trkpt lat="45.689418958363966" lon="9.33778611924551"><ele>294.2</ele><time>2026-03-16T15:05:29Z</time></trkpt><trkpt lat="45.689360760073086" lon="9.337877318876448"><ele>294.0</ele><time>2026-03-16T15:05:30Z</time></trkpt><trkpt lat="45.68929709660195" lon="9.337975556087612"><ele>293.8</ele><time>2026-03-16T15:05:31Z</time></trkpt><trkpt lat="45.689243980529056" lon="9.338063756444802"><ele>293.59999999999997</ele><time>2026-03-16T15:05:32Z</time></trkpt><trkpt lat="45.68917355656017" lon="9.338163899884005"><ele>293.4</ele><time>2026-03-16T15:05:33Z</time></trkpt><trkpt lat="45.6891198843267" lon="9.338246839050772"><ele>293.2</ele><time>2026-03-16T15:05:34Z</time></trkpt><trkpt lat="45.68904946662152" lon="9.338359896136234"><ele>293.0</ele><time>2026-03-16T15:05:36Z</time></trkpt><trkpt lat="45.688986105330876" lon="9.338457018281735"><ele>293.0</ele><time>2026-03-16T15:05:38Z</time></trkpt><trkpt lat="45.68893901143149" lon="9.338528630230284"><ele>293.0</ele><time>2026-03-16T15:05:40Z</time></trkpt><trkpt lat="45.688872954201216" lon="9.338636874010408"><ele>293.0</ele><time>2026-03-16T15:05:41.999Z</time></trkpt><trkpt lat="45.688828679271005" lon="9.338712391501279"><ele>293.0</ele><time>2026-03-16T15:05:42.999Z</time></trkpt><trkpt lat="45.688779608074576" lon="9.338786715243485"><ele>293.0</ele><time>2026-03-16T15:05:43.999Z</time></trkpt><trkpt lat="45.688727848275036" lon="9.338869566289619"><ele>293.0</ele><time>2026-03-16T15:05:44.999Z</time></trkpt><trkpt lat="45.6886748119714" lon="9.338958952954773"><ele>292.8</ele><time>2026-03-16T15:05:45.999Z</time></trkpt><trkpt lat="45.68858714473095" lon="9.339064779786893"><ele>292.6</ele><time>2026-03-16T15:05:47.999Z</time></trkpt><trkpt lat="45.68850007885951" lon="9.339191824618055"><ele>292.4</ele><time>2026-03-16T15:05:49.999Z</time></trkpt><trkpt lat="45.688443017916555" lon="9.339282740361531"><ele>292.2</ele><time>2026-03-16T15:05:50.999Z</time></trkpt><trkpt lat="45.68837956148577" lon="9.339378642596564"><ele>292.0</ele><time>2026-03-16T15:05:51.999Z</time></trkpt><trkpt lat="45.68832037975843" lon="9.339462243209567"><ele>292.0</ele><time>2026-03-16T15:05:52.999Z</time></trkpt><trkpt lat="45.68826937913072" lon="9.339530508156809"><ele>292.0</ele><time>2026-03-16T15:05:53.999Z</time></trkpt><trkpt lat="45.68819331553195" lon="9.339635504941878"><ele>292.0</ele><time>2026-03-16T15:05:55.999Z</time></trkpt><trkpt lat="45.688101829950966" lon="9.339776302577988"><ele>292.0</ele><time>2026-03-16T15:05:57.999Z</time></trkpt><trkpt lat="45.68803945514412" lon="9.339877619168053"><ele>292.0</ele><time>2026-03-16T15:05:59.999Z</time></trkpt><trkpt lat="45.68798934231376" lon="9.339948907200938"><ele>292.0</ele><time>2026-03-16T15:06:02.999Z</time></trkpt><trkpt lat="45.687912642394494" lon="9.339996736324105"><ele>292.0</ele><time>2026-03-16T15:06:06.999Z</time></trkpt><trkpt lat="45.68784350964507" lon="9.339955830943671"><ele>292.0</ele><time>2026-03-16T15:06:08.999Z</time></trkpt><trkpt lat="45.687770446695396" lon="9.339827754164004"><ele>292.0</ele><time>2026-03-16T15:06:10.999Z</time></trkpt><trkpt lat="45.6877212612943" lon="9.339748351159068"><ele>292.0</ele><time>2026-03-16T15:06:11.999Z</time></trkpt><trkpt lat="45.687662305135774" lon="9.33963668468832"><ele>292.0</ele><time>2026-03-16T15:06:13.999Z</time></trkpt><trkpt lat="45.68762924185229" lon="9.33955395881251"><ele>291.85714285714283</ele><time>2026-03-16T15:06:14.999Z</time></trkpt><trkpt lat="45.68756575516598" lon="9.33947836951917"><ele>291.7142857142857</ele><time>2026-03-16T15:06:16.999Z</time></trkpt><trkpt lat="45.687503047352465" lon="9.339517259785147"><ele>291.57142857142856</ele><time>2026-03-16T15:06:18.999Z</time></trkpt><trkpt lat="45.687460928655696" lon="9.339585353677414"><ele>291.42857142857144</ele><time>2026-03-16T15:06:19.999Z</time></trkpt><trkpt lat="45.6875173785105" lon="9.339630217208244"><ele>291.2857142857143</ele><time>2026-03-16T15:06:21.999Z</time></trkpt><trkpt lat="45.687587060720666" lon="9.339732779921118"><ele>291.1428571428571</ele><time>2026-03-16T15:06:23.999Z</time></trkpt><trkpt lat="45.68763384000957" lon="9.33979485676036"><ele>291.0</ele><time>2026-03-16T15:06:24.999Z</time></trkpt><trkpt lat="45.68770670288049" lon="9.33985958521323"><ele>291.2</ele><time>2026-03-16T15:06:25.999Z</time></trkpt><trkpt lat="45.68777270008853" lon="9.339913149543172"><ele>291.40000000000003</ele><time>2026-03-16T15:06:26.999Z</time></trkpt><trkpt lat="45.68783618918973" lon="9.339947037670381"><ele>291.6</ele><time>2026-03-16T15:06:27.999Z</time></trkpt><trkpt lat="45.68791090040366" lon="9.340035682048299"><ele>291.8</ele><time>2026-03-16T15:06:30.999Z</time></trkpt><trkpt lat="45.687999357224015" lon="9.340004839981665"><ele>292.0</ele><time>2026-03-16T15:06:33.999Z</time></trkpt><trkpt lat="45.688079046179226" lon="9.339861276216016"><ele>292.0</ele><time>2026-03-16T15:06:35.999Z</time></trkpt><trkpt lat="45.68812758013242" lon="9.339762521513903"><ele>292.0</ele><time>2026-03-16T15:06:36.999Z</time></trkpt><trkpt lat="45.68820156670242" lon="9.339648253251688"><ele>292.0</ele><time>2026-03-16T15:06:37.999Z</time></trkpt><trkpt lat="45.688289194553256" lon="9.33953336298189"><ele>292.0</ele><time>2026-03-16T15:06:38.999Z</time></trkpt><trkpt lat="45.688380611484035" lon="9.339400861496598"><ele>292.0</ele><time>2026-03-16T15:06:39.999Z</time></trkpt><trkpt lat="45.68846081275896" lon="9.339294462261575"><ele>292.0</ele><time>2026-03-16T15:06:40.999Z</time></trkpt><trkpt lat="45.688542749175795" lon="9.339176182806831"><ele>292.0</ele><time>2026-03-16T15:06:41.999Z</time></trkpt><trkpt lat="45.688617017223514" lon="9.339062257079455"><ele>292.0</ele><time>2026-03-16T15:06:42.999Z</time></trkpt><trkpt lat="45.68869336975032" lon="9.338928150450185"><ele>292.0</ele><time>2026-03-16T15:06:43.999Z</time></trkpt><trkpt lat="45.68878672790488" lon="9.338783096493119"><ele>292.2</ele><time>2026-03-16T15:06:44.999Z</time></trkpt><trkpt lat="45.688874302407946" lon="9.338638655762683"><ele>292.4</ele><time>2026-03-16T15:06:45.999Z</time></trkpt><trkpt lat="45.68893893173378" lon="9.338543534830139"><ele>292.6</ele><time>2026-03-16T15:06:46.999Z</time></trkpt><trkpt lat="45.68899287735461" lon="9.338454186078456"><ele>292.8</ele><time>2026-03-16T15:06:47.999Z</time></trkpt><trkpt lat="45.68905205249873" lon="9.338368157254232"><ele>293.0</ele><time>2026-03-16T15:06:48.999Z</time></trkpt><trkpt lat="45.689112586683585" lon="9.338273351113997"><ele>293.0</ele><time>2026-03-16T15:06:49.999Z</time></trkpt><trkpt lat="45.689181081188075" lon="9.338171321109629"><ele>293.0</ele><time>2026-03-16T15:06:50.999Z</time></trkpt><trkpt lat="45.689245737544184" lon="9.338066459952742"><ele>293.0</ele><time>2026-03-16T15:06:51.999Z</time></trkpt><trkpt lat="45.689308938402" lon="9.337957327600094"><ele>293.0</ele><time>2026-03-16T15:06:52.999Z</time></trkpt><trkpt lat="45.68936816206957" lon="9.337883871845717"><ele>293.0</ele><time>2026-03-16T15:06:53.999Z</time></trkpt><trkpt lat="45.6894384701182" lon="9.33776941578705"><ele>293.25</ele><time>2026-03-16T15:06:54.999Z</time></trkpt><trkpt lat="45.689518356603706" lon="9.337665549181269"><ele>293.5</ele><time>2026-03-16T15:06:55.999Z</time></trkpt><trkpt lat="45.68960831061184" lon="9.337540880408886"><ele>293.75</ele><time>2026-03-16T15:06:56.999Z</time></trkpt><trkpt lat="45.689682592550696" lon="9.337417021113344"><ele>294.0</ele><time>2026-03-16T15:06:57.999Z</time></trkpt><trkpt lat="45.6897723745275" lon="9.337281280093013"><ele>294.2</ele><time>2026-03-16T15:06:58.999Z</time></trkpt><trkpt lat="45.68984951179773" lon="9.337174568670594"><ele>294.4</ele><time>2026-03-16T15:06:59.999Z</time></trkpt><trkpt lat="45.68990695706562" lon="9.337076128651198"><ele>294.6</ele><time>2026-03-16T15:07:00.999Z</time></trkpt><trkpt lat="45.68996928297787" lon="9.336976369900688"><ele>294.8</ele><time>2026-03-16T15:07:01.999Z</time></trkpt><trkpt lat="45.690036929824245" lon="9.336865970225285"><ele>295.0</ele><time>2026-03-16T15:07:02.999Z</time></trkpt><trkpt lat="45.69010874940663" lon="9.336756383562296"><ele>295.0</ele><time>2026-03-16T15:07:03.999Z</time></trkpt><trkpt lat="45.690162801547274" lon="9.336686046236382"><ele>295.0</ele><time>2026-03-16T15:07:04.999Z</time></trkpt><trkpt lat="45.690220259869896" lon="9.336593375348704"><ele>295.0</ele><time>2026-03-16T15:07:05.999Z</time></trkpt><trkpt lat="45.690304209095935" lon="9.336471191835182"><ele>295.0</ele><time>2026-03-16T15:07:07.999Z</time></trkpt><trkpt lat="45.69036665305455" lon="9.336384652168206"><ele>295.0</ele><time>2026-03-16T15:07:10Z</time></trkpt><trkpt lat="45.69036447749803" lon="9.336255043061218"><ele>295.2</ele><time>2026-03-16T15:07:13Z</time></trkpt><trkpt lat="45.690282908693554" lon="9.336146696461032"><ele>295.4</ele><time>2026-03-16T15:07:15Z</time></trkpt><trkpt lat="45.69021567908357" lon="9.336059258261475"><ele>295.6</ele><time>2026-03-16T15:07:16Z</time></trkpt><trkpt lat="45.690126655339995" lon="9.335918346523927"><ele>295.8</ele><time>2026-03-16T15:07:17Z</time></trkpt><trkpt lat="45.69006178376695" lon="9.335818683416022"><ele>296.0</ele><time>2026-03-16T15:07:18Z</time></trkpt><trkpt lat="45.68998179861128" lon="9.335699758960049"><ele>296.0</ele><time>2026-03-16T15:07:19Z</time></trkpt><trkpt lat="45.68992389556171" lon="9.335616230797811"><ele>296.0</ele><time>2026-03-16T15:07:20Z</time></trkpt><trkpt lat="45.68986834085369" lon="9.335528306253405"><ele>296.0</ele><time>2026-03-16T15:07:21Z</time></trkpt><trkpt lat="45.68980855407543" lon="9.335441610259373"><ele>296.0</ele><time>2026-03-16T15:07:22Z</time></trkpt><trkpt lat="45.689760657271606" lon="9.33535050107271"><ele>296.0</ele><time>2026-03-16T15:07:23Z</time></trkpt><trkpt lat="45.6897087461879" lon="9.335264631893867"><ele>296.0</ele><time>2026-03-16T15:07:24Z</time></trkpt><trkpt lat="45.68963003059302" lon="9.335145258953133"><ele>295.8</ele><time>2026-03-16T15:07:26Z</time></trkpt><trkpt lat="45.68956122298655" lon="9.335033465662935"><ele>295.6</ele><time>2026-03-16T15:07:28Z</time></trkpt><trkpt lat="45.68949391482167" lon="9.33492272547621"><ele>295.4</ele><time>2026-03-16T15:07:30Z</time></trkpt><trkpt lat="45.689422755945" lon="9.33482084812161"><ele>295.2</ele><time>2026-03-16T15:07:32Z</time></trkpt><trkpt lat="45.689348298274076" lon="9.33475908287301"><ele>295.0</ele><time>2026-03-16T15:07:34Z</time></trkpt><trkpt lat="45.68924690149286" lon="9.334749816781423"><ele>295.0</ele><time>2026-03-16T15:07:42Z</time></trkpt><trkpt lat="45.68916338208647" lon="9.334740136337544"><ele>295.0</ele><time>2026-03-16T15:07:44Z</time></trkpt><trkpt lat="45.689065213491006" lon="9.334737851108272"><ele>295.0</ele><time>2026-03-16T15:07:47Z</time></trkpt><trkpt lat="45.688973753075125" lon="9.334763820879967"><ele>295.0</ele><time>2026-03-16T15:07:50Z</time></trkpt><trkpt lat="45.688894023877225" lon="9.334786728148874"><ele>295.0</ele><time>2026-03-16T15:07:52Z</time></trkpt><trkpt lat="45.68882411681243" lon="9.33481169350991"><ele>295.0</ele><time>2026-03-16T15:07:53.999Z</time></trkpt><trkpt lat="45.68873679178541" lon="9.334839545798067"><ele>295.0</ele><time>2026-03-16T15:07:56.999Z</time></trkpt><trkpt lat="45.68866308825881" lon="9.334857704998658"><ele>295.0</ele><time>2026-03-16T15:07:58.999Z</time></trkpt><trkpt lat="45.68858259796389" lon="9.334877341505086"><ele>295.0</ele><time>2026-03-16T15:08:00.999Z</time></trkpt><trkpt lat="45.688480897299435" lon="9.334881013679452"><ele>295.0</ele><time>2026-03-16T15:08:02.999Z</time></trkpt><trkpt lat="45.68840369471022" lon="9.334858047247069"><ele>295.0</ele><time>2026-03-16T15:08:04.999Z</time></trkpt><trkpt lat="45.688326384608324" lon="9.33485787818137"><ele>295.0</ele><time>2026-03-16T15:08:06.999Z</time></trkpt><trkpt lat="45.68822720756629" lon="9.334792746901115"><ele>293.4</ele><time>2026-03-16T15:08:08.999Z</time></trkpt><trkpt lat="45.68813786562895" lon="9.33484885812092"><ele>291.8</ele><time>2026-03-16T15:08:10.999Z</time></trkpt><trkpt lat="45.68802092303909" lon="9.334949076641841"><ele>290.2</ele><time>2026-03-16T15:08:12.999Z</time></trkpt><trkpt lat="45.687969660972634" lon="9.335023447636608"><ele>288.6</ele><time>2026-03-16T15:08:13.999Z</time></trkpt><trkpt lat="45.687920345238254" lon="9.335081496401521"><ele>287.0</ele><time>2026-03-16T15:08:14.999Z</time></trkpt><trkpt lat="45.68782931699128" lon="9.33513442419388"><ele>285.4</ele><time>2026-03-16T15:08:16.999Z</time></trkpt><trkpt lat="45.68773653153949" lon="9.335184285407987"><ele>283.79999999999995</ele><time>2026-03-16T15:08:18.999Z</time></trkpt><trkpt lat="45.68764646207051" lon="9.33514450152191"><ele>282.2</ele><time>2026-03-16T15:08:20.999Z</time></trkpt><trkpt lat="45.68753707016501" lon="9.335046433632042"><ele>280.59999999999997</ele><time>2026-03-16T15:08:22.999Z</time></trkpt><trkpt lat="45.68747080033297" lon="9.334974490850346"><ele>279.0</ele><time>2026-03-16T15:08:23.999Z</time></trkpt><trkpt lat="45.68739914749306" lon="9.334917900534405"><ele>279.0</ele><time>2026-03-16T15:08:24.999Z</time></trkpt><trkpt lat="45.68734768385201" lon="9.33486032383321"><ele>279.0</ele><time>2026-03-16T15:08:25.999Z</time></trkpt><trkpt lat="45.68730174242283" lon="9.33479540916056"><ele>279.0</ele><time>2026-03-16T15:08:26.999Z</time></trkpt><trkpt lat="45.68724885315973" lon="9.334721860192555"><ele>279.0</ele><time>2026-03-16T15:08:27.999Z</time></trkpt><trkpt lat="45.68716463773446" lon="9.334651161244842"><ele>279.0</ele><time>2026-03-16T15:08:29.999Z</time></trkpt><trkpt lat="45.68710743059797" lon="9.334571959765187"><ele>279.0</ele><time>2026-03-16T15:08:31.999Z</time></trkpt><trkpt lat="45.687034752339436" lon="9.334600901855689"><ele>278.5</ele><time>2026-03-16T15:08:33.999Z</time></trkpt><trkpt lat="45.68695423360764" lon="9.334646824263855"><ele>278.0</ele><time>2026-03-16T15:08:35.999Z</time></trkpt><trkpt lat="45.686882950043895" lon="9.334730545839458"><ele>277.5</ele><time>2026-03-16T15:08:37.999Z</time></trkpt><trkpt lat="45.68684356700015" lon="9.334809528455487"><ele>277.0</ele><time>2026-03-16T15:08:38.999Z</time></trkpt><trkpt lat="45.686783814427145" lon="9.334860238656413"><ele>276.5</ele><time>2026-03-16T15:08:39.999Z</time></trkpt><trkpt lat="45.6867495835041" lon="9.334944825761845"><ele>276.0</ele><time>2026-03-16T15:08:40.999Z</time></trkpt><trkpt lat="45.68672206596001" lon="9.335057505425862"><ele>276.0</ele><time>2026-03-16T15:08:41.999Z</time></trkpt><trkpt lat="45.68667523296323" lon="9.335181439348132"><ele>276.0</ele><time>2026-03-16T15:08:43.999Z</time></trkpt><trkpt lat="45.68661727081222" lon="9.335262964835607"><ele>276.0</ele><time>2026-03-16T15:08:44.999Z</time></trkpt><trkpt lat="45.68655904515901" lon="9.335402612236754"><ele>276.0</ele><time>2026-03-16T15:08:45.999Z</time></trkpt><trkpt lat="45.68645507789869" lon="9.335516819248157"><ele>276.0</ele><time>2026-03-16T15:08:46.999Z</time></trkpt><trkpt lat="45.68637995114237" lon="9.33562611209676"><ele>276.0</ele><time>2026-03-16T15:08:47.999Z</time></trkpt><trkpt lat="45.68631542018503" lon="9.335722975882664"><ele>276.0</ele><time>2026-03-16T15:08:48.999Z</time></trkpt><trkpt lat="45.686234297193636" lon="9.335794100299161"><ele>276.0</ele><time>2026-03-16T15:08:49.999Z</time></trkpt><trkpt lat="45.68615821113016" lon="9.335901000547473"><ele>276.0</ele><time>2026-03-16T15:08:50.999Z</time></trkpt><trkpt lat="45.686101317542295" lon="9.33596629852951"><ele>276.0</ele><time>2026-03-16T15:08:51.999Z</time></trkpt><trkpt lat="45.68605393488865" lon="9.3360295264126"><ele>276.0</ele><time>2026-03-16T15:08:52.999Z</time></trkpt><trkpt lat="45.68599868932119" lon="9.33607570662908"><ele>275.0</ele><time>2026-03-16T15:08:53.999Z</time></trkpt><trkpt lat="45.68593816315527" lon="9.336112163117335"><ele>274.0</ele><time>2026-03-16T15:08:54.999Z</time></trkpt><trkpt lat="45.685821187489864" lon="9.336217951283825"><ele>273.0</ele><time>2026-03-16T15:08:56.999Z</time></trkpt><trkpt lat="45.68572485350743" lon="9.336322789869104"><ele>272.0</ele><time>2026-03-16T15:08:57.999Z</time></trkpt><trkpt lat="45.68567805780182" lon="9.336413698763527"><ele>271.0</ele><time>2026-03-16T15:08:58.999Z</time></trkpt><trkpt lat="45.68562381697015" lon="9.33646905584051"><ele>271.0</ele><time>2026-03-16T15:08:59.999Z</time></trkpt><trkpt lat="45.6855516035078" lon="9.336550804491043"><ele>271.0</ele><time>2026-03-16T15:09:02Z</time></trkpt><trkpt lat="45.685484976922204" lon="9.336653254287443"><ele>271.0</ele><time>2026-03-16T15:09:05Z</time></trkpt><trkpt lat="45.68542152257369" lon="9.336709456834473"><ele>271.0</ele><time>2026-03-16T15:09:07Z</time></trkpt><trkpt lat="45.68539819238609" lon="9.33682504689747"><ele>271.0</ele><time>2026-03-16T15:09:08Z</time></trkpt><trkpt lat="45.68539904649115" lon="9.336970462711317"><ele>271.0</ele><time>2026-03-16T15:09:09Z</time></trkpt><trkpt lat="45.685360644742126" lon="9.337069525327411"><ele>271.0</ele><time>2026-03-16T15:09:10Z</time></trkpt><trkpt lat="45.685287630494294" lon="9.33712778358284"><ele>271.0</ele><time>2026-03-16T15:09:11Z</time></trkpt><trkpt lat="45.6852324173215" lon="9.337188390713164"><ele>271.0</ele><time>2026-03-16T15:09:12Z</time></trkpt><trkpt lat="45.68518248795961" lon="9.337268616377903"><ele>271.0</ele><time>2026-03-16T15:09:13Z</time></trkpt><trkpt lat="45.68513256264288" lon="9.337342133744539"><ele>271.0</ele><time>2026-03-16T15:09:14Z</time></trkpt><trkpt lat="45.685025230131835" lon="9.337414759523877"><ele>271.6</ele><time>2026-03-16T15:09:16Z</time></trkpt><trkpt lat="45.68496363499322" lon="9.337506901556583"><ele>272.20000000000005</ele><time>2026-03-16T15:09:17Z</time></trkpt><trkpt lat="45.68491839448166" lon="9.337608971623325"><ele>272.79999999999995</ele><time>2026-03-16T15:09:18Z</time></trkpt><trkpt lat="45.684877134224905" lon="9.337745578687711"><ele>273.4</ele><time>2026-03-16T15:09:19Z</time></trkpt><trkpt lat="45.68483885541788" lon="9.337883312204843"><ele>274.0</ele><time>2026-03-16T15:09:20Z</time></trkpt><trkpt lat="45.68481525305756" lon="9.337981122974858"><ele>272.59999999999997</ele><time>2026-03-16T15:09:21Z</time></trkpt><trkpt lat="45.68477702427429" lon="9.338127803145323"><ele>271.2</ele><time>2026-03-16T15:09:22Z</time></trkpt><trkpt lat="45.684732012122794" lon="9.33826040650372"><ele>269.79999999999995</ele><time>2026-03-16T15:09:23Z</time></trkpt><trkpt lat="45.684667373109185" lon="9.338404302258667"><ele>268.4</ele><time>2026-03-16T15:09:24Z</time></trkpt><trkpt lat="45.68461905994906" lon="9.338521502739363"><ele>267.0</ele><time>2026-03-16T15:09:25Z</time></trkpt><trkpt lat="45.684597299070475" lon="9.338677225672123"><ele>267.0</ele><time>2026-03-16T15:09:26Z</time></trkpt><trkpt lat="45.68455034606128" lon="9.338815281025932"><ele>267.0</ele><time>2026-03-16T15:09:27Z</time></trkpt><trkpt lat="45.68450339939653" lon="9.338964651832796"><ele>267.0</ele><time>2026-03-16T15:09:28Z</time></trkpt><trkpt lat="45.68445819532979" lon="9.339103544726314"><ele>267.0</ele><time>2026-03-16T15:09:29Z</time></trkpt><trkpt lat="45.68440423181064" lon="9.339210228660365"><ele>267.0</ele><time>2026-03-16T15:09:30Z</time></trkpt><trkpt lat="45.684361776365975" lon="9.339346695998875"><ele>268.4</ele><time>2026-03-16T15:09:31Z</time></trkpt><trkpt lat="45.68435135594957" lon="9.339487562476409"><ele>269.79999999999995</ele><time>2026-03-16T15:09:32Z</time></trkpt><trkpt lat="45.68433775329252" lon="9.339608524647302"><ele>271.2</ele><time>2026-03-16T15:09:33Z</time></trkpt><trkpt lat="45.68432336400172" lon="9.339761114999517"><ele>272.59999999999997</ele><time>2026-03-16T15:09:34Z</time></trkpt><trkpt lat="45.684295888729245" lon="9.339918027891391"><ele>274.0</ele><time>2026-03-16T15:09:36Z</time></trkpt><trkpt lat="45.68427445813296" lon="9.340050710075314"><ele>274.0</ele><time>2026-03-16T15:09:38Z</time></trkpt><trkpt lat="45.68427233750439" lon="9.340146619698142"><ele>274.0</ele><time>2026-03-16T15:09:40Z</time></trkpt><trkpt lat="45.68424364125073" lon="9.340293191648383"><ele>274.0</ele><time>2026-03-16T15:09:43Z</time></trkpt><trkpt lat="45.684232096839345" lon="9.340432654307927"><ele>274.0</ele><time>2026-03-16T15:09:45Z</time></trkpt><trkpt lat="45.68418156513449" lon="9.340502545580724"><ele>274.0</ele><time>2026-03-16T15:09:47Z</time></trkpt><trkpt lat="45.68410237219273" lon="9.340513575787314"><ele>274.0</ele><time>2026-03-16T15:09:49Z</time></trkpt><trkpt lat="45.68403022315986" lon="9.340576523542815"><ele>274.0</ele><time>2026-03-16T15:09:53Z</time></trkpt><trkpt lat="45.68401188912406" lon="9.340703220575922"><ele>274.0</ele><time>2026-03-16T15:09:56Z</time></trkpt><trkpt lat="45.683992850222694" lon="9.34082468165345"><ele>274.0</ele><time>2026-03-16T15:09:58Z</time></trkpt><trkpt lat="45.683958685065285" lon="9.34091949850505"><ele>274.0</ele><time>2026-03-16T15:10:00Z</time></trkpt><trkpt lat="45.68389656872552" lon="9.340992143169714"><ele>274.0</ele><time>2026-03-16T15:10:04Z</time></trkpt><trkpt lat="45.683842316499145" lon="9.341088690890297"><ele>274.0</ele><time>2026-03-16T15:10:07Z</time></trkpt><trkpt lat="45.68376301924947" lon="9.34110605699978"><ele>274.00000000000006</ele><time>2026-03-16T15:10:09.999Z</time></trkpt><trkpt lat="45.68372949050597" lon="9.341211726054784"><ele>274.0</ele><time>2026-03-16T15:10:13.999Z</time></trkpt><trkpt lat="45.68367788310099" lon="9.341301945926832"><ele>274.0</ele><time>2026-03-16T15:10:15.999Z</time></trkpt><trkpt lat="45.683622479005464" lon="9.341351024113392"><ele>274.0</ele><time>2026-03-16T15:10:17.999Z</time></trkpt><trkpt lat="45.683554368283005" lon="9.341406165059537"><ele>274.0</ele><time>2026-03-16T15:10:20.999Z</time></trkpt><trkpt lat="45.6834850567278" lon="9.341398432377588"><ele>274.00000000000006</ele><time>2026-03-16T15:10:25.999Z</time></trkpt><trkpt lat="45.68342360487674" lon="9.34142890689859"><ele>274.0</ele><time>2026-03-16T15:10:28.999Z</time></trkpt><trkpt lat="45.68336076502283" lon="9.341418695873843"><ele>275.5714285714286</ele><time>2026-03-16T15:10:31.999Z</time></trkpt><trkpt lat="45.68329125056797" lon="9.341423240698372"><ele>277.14285714285717</ele><time>2026-03-16T15:10:35.999Z</time></trkpt><trkpt lat="45.68321623110609" lon="9.341436535570177"><ele>278.7142857142857</ele><time>2026-03-16T15:10:37.999Z</time></trkpt><trkpt lat="45.683148330827144" lon="9.341464025416709"><ele>280.28571428571433</ele><time>2026-03-16T15:10:40.999Z</time></trkpt><trkpt lat="45.68309752818399" lon="9.341519342248729"><ele>281.8571428571429</ele><time>2026-03-16T15:10:42.999Z</time></trkpt><trkpt lat="45.68302725964422" lon="9.341578619975952"><ele>283.42857142857144</ele><time>2026-03-16T15:10:44.999Z</time></trkpt><trkpt lat="45.68296234352684" lon="9.341565930378163"><ele>285.0</ele><time>2026-03-16T15:10:50.999Z</time></trkpt><trkpt lat="45.682891994266875" lon="9.341568854864587"><ele>285.0</ele><time>2026-03-16T15:10:54.999Z</time></trkpt><trkpt lat="45.68282687818874" lon="9.341663541409318"><ele>285.0</ele><time>2026-03-16T15:10:56.999Z</time></trkpt><trkpt lat="45.682763271502544" lon="9.341779107503632"><ele>285.0</ele><time>2026-03-16T15:10:58.999Z</time></trkpt><trkpt lat="45.68267343275803" lon="9.34187782968911"><ele>285.0</ele><time>2026-03-16T15:11:00.999Z</time></trkpt><trkpt lat="45.682614165632216" lon="9.341935842241408"><ele>285.0</ele><time>2026-03-16T15:11:01.999Z</time></trkpt><trkpt lat="45.682546330944064" lon="9.341976465873328"><ele>285.0</ele><time>2026-03-16T15:11:02.999Z</time></trkpt><trkpt lat="45.682473759626056" lon="9.342053435458222"><ele>285.0</ele><time>2026-03-16T15:11:03.999Z</time></trkpt><trkpt lat="45.682408024844" lon="9.3421285020933"><ele>285.0</ele><time>2026-03-16T15:11:04.999Z</time></trkpt><trkpt lat="45.68235538350641" lon="9.342225455590654"><ele>285.0</ele><time>2026-03-16T15:11:05.999Z</time></trkpt><trkpt lat="45.68229377022571" lon="9.342299370254063"><ele>285.0</ele><time>2026-03-16T15:11:06.999Z</time></trkpt><trkpt lat="45.68224213102203" lon="9.342368752274137"><ele>285.0</ele><time>2026-03-16T15:11:08Z</time></trkpt><trkpt lat="45.68218298990499" lon="9.342420676020879"><ele>285.0</ele><time>2026-03-16T15:11:09Z</time></trkpt><trkpt lat="45.68213123117943" lon="9.34247759815992"><ele>285.0</ele><time>2026-03-16T15:11:10Z</time></trkpt><trkpt lat="45.682072829271526" lon="9.342543106944367"><ele>285.0</ele><time>2026-03-16T15:11:11Z</time></trkpt><trkpt lat="45.68198460852947" lon="9.342646346763937"><ele>285.0</ele><time>2026-03-16T15:11:13Z</time></trkpt><trkpt lat="45.6819149905547" lon="9.342730068709665"><ele>285.0</ele><time>2026-03-16T15:11:16Z</time></trkpt><trkpt lat="45.68183274861562" lon="9.342758507281507"><ele>285.0</ele><time>2026-03-16T15:11:18Z</time></trkpt><trkpt lat="45.68177661404828" lon="9.342829394616249"><ele>285.0</ele><time>2026-03-16T15:11:20Z</time></trkpt><trkpt lat="45.6817368985052" lon="9.342914310105709"><ele>285.0</ele><time>2026-03-16T15:11:22Z</time></trkpt><trkpt lat="45.68168104531905" lon="9.342992716384368"><ele>285.0</ele><time>2026-03-16T15:11:25Z</time></trkpt><trkpt lat="45.681558021867495" lon="9.342929793682803"><ele>285.0</ele><time>2026-03-16T15:11:28Z</time></trkpt><trkpt lat="45.68146704984757" lon="9.34291715244587"><ele>285.0</ele><time>2026-03-16T15:11:31Z</time></trkpt><trkpt lat="45.68139585215566" lon="9.3429096959153"><ele>285.0</ele><time>2026-03-16T15:11:33Z</time></trkpt><trkpt lat="45.6813082073062" lon="9.342901337098974"><ele>285.0</ele><time>2026-03-16T15:11:36Z</time></trkpt><trkpt lat="45.68120292261556" lon="9.342873926959658"><ele>285.0</ele><time>2026-03-16T15:11:39Z</time></trkpt><trkpt lat="45.68111492893264" lon="9.342871958301235"><ele>285.0</ele><time>2026-03-16T15:11:41Z</time></trkpt><trkpt lat="45.68099673931365" lon="9.342843381399287"><ele>285.0</ele><time>2026-03-16T15:11:43Z</time></trkpt><trkpt lat="45.6809327220263" lon="9.342827425163046"><ele>285.0</ele><time>2026-03-16T15:11:44Z</time></trkpt><trkpt lat="45.68086734189682" lon="9.342824304324706"><ele>285.0</ele><time>2026-03-16T15:11:45Z</time></trkpt><trkpt lat="45.680773797613824" lon="9.342817680858664"><ele>284.6</ele><time>2026-03-16T15:11:47Z</time></trkpt><trkpt lat="45.680706923583706" lon="9.342835611443247"><ele>284.2</ele><time>2026-03-16T15:11:54Z</time></trkpt><trkpt lat="45.680680430896984" lon="9.342970284426242"><ele>283.8</ele><time>2026-03-16T15:11:55Z</time></trkpt><trkpt lat="45.68066065859711" lon="9.343083590427682"><ele>283.4</ele><time>2026-03-16T15:11:56Z</time></trkpt><trkpt lat="45.680618919807316" lon="9.343182929994372"><ele>283.0</ele><time>2026-03-16T15:11:57Z</time></trkpt><trkpt lat="45.680488628320646" lon="9.343444848256844"><ele>283.0</ele><time>2026-03-16T15:12:00Z</time></trkpt><trkpt lat="45.68069458879374" lon="9.343098198473292"><ele>283.0</ele><time>2026-03-16T15:12:01Z</time></trkpt><trkpt lat="45.68034854977194" lon="9.34372433450109"><ele>283.0</ele><time>2026-03-16T15:12:02Z</time></trkpt><trkpt lat="45.68029577681012" lon="9.343818333944112"><ele>283.0</ele><time>2026-03-16T15:12:03Z</time></trkpt><trkpt lat="45.680249953052495" lon="9.34394489662396"><ele>283.0</ele><time>2026-03-16T15:12:04Z</time></trkpt><trkpt lat="45.68020191261964" lon="9.344076440518009"><ele>283.0</ele><time>2026-03-16T15:12:05Z</time></trkpt><trkpt lat="45.680145709388974" lon="9.34420937531484"><ele>283.0</ele><time>2026-03-16T15:12:06Z</time></trkpt><trkpt lat="45.68009437559072" lon="9.344349905522812"><ele>283.4</ele><time>2026-03-16T15:12:07Z</time></trkpt><trkpt lat="45.680032787723135" lon="9.344482871386646"><ele>283.8</ele><time>2026-03-16T15:12:08Z</time></trkpt><trkpt lat="45.67996298804387" lon="9.34461269878354"><ele>284.2</ele><time>2026-03-16T15:12:09Z</time></trkpt><trkpt lat="45.67991568280918" lon="9.344738978986603"><ele>284.6</ele><time>2026-03-16T15:12:10Z</time></trkpt><trkpt lat="45.6798647841354" lon="9.344863196060016"><ele>285.0</ele><time>2026-03-16T15:12:11Z</time></trkpt><trkpt lat="45.67982618690989" lon="9.344963636264662"><ele>285.4</ele><time>2026-03-16T15:12:12Z</time></trkpt><trkpt lat="45.67979375020172" lon="9.345048807095415"><ele>285.8</ele><time>2026-03-16T15:12:13Z</time></trkpt><trkpt lat="45.679738177042" lon="9.345111765571486"><ele>286.2</ele><time>2026-03-16T15:12:15Z</time></trkpt><trkpt lat="45.67965654422185" lon="9.34495019525431"><ele>286.6</ele><time>2026-03-16T15:12:16Z</time></trkpt><trkpt lat="45.679565120748414" lon="9.3448891058202"><ele>287.0</ele><time>2026-03-16T15:12:17Z</time></trkpt><trkpt lat="45.67947918641958" lon="9.344831685462463"><ele>287.4</ele><time>2026-03-16T15:12:18Z</time></trkpt><trkpt lat="45.679395371818195" lon="9.344768719551842"><ele>287.79999999999995</ele><time>2026-03-16T15:12:19Z</time></trkpt><trkpt lat="45.67930183854255" lon="9.34469878071906"><ele>288.2</ele><time>2026-03-16T15:12:20Z</time></trkpt><trkpt lat="45.67919971473003" lon="9.344617343673132"><ele>288.59999999999997</ele><time>2026-03-16T15:12:21Z</time></trkpt><trkpt lat="45.679119727009365" lon="9.344556448055913"><ele>289.0</ele><time>2026-03-16T15:12:22Z</time></trkpt><trkpt lat="45.67905089158317" lon="9.344501174068"><ele>288.2</ele><time>2026-03-16T15:12:23Z</time></trkpt><trkpt lat="45.67898359868895" lon="9.344450039030795"><ele>287.4</ele><time>2026-03-16T15:12:24Z</time></trkpt><trkpt lat="45.67888944030524" lon="9.344377081927927"><ele>286.6</ele><time>2026-03-16T15:12:26Z</time></trkpt><trkpt lat="45.67880788072719" lon="9.344302847537625"><ele>285.8</ele><time>2026-03-16T15:12:28Z</time></trkpt><trkpt lat="45.678660037416634" lon="9.344230922643142"><ele>285.0</ele><time>2026-03-16T15:12:30Z</time></trkpt><trkpt lat="45.67854426709552" lon="9.344136281787224"><ele>284.0</ele><time>2026-03-16T15:12:31Z</time></trkpt><trkpt lat="45.67844093265251" lon="9.344022077370711"><ele>283.0</ele><time>2026-03-16T15:12:32Z</time></trkpt><trkpt lat="45.678346685039465" lon="9.343907516631235"><ele>282.0</ele><time>2026-03-16T15:12:33Z</time></trkpt><trkpt lat="45.67826438728982" lon="9.343822086056287"><ele>281.0</ele><time>2026-03-16T15:12:34Z</time></trkpt><trkpt lat="45.678129876803496" lon="9.343742493465728"><ele>280.0</ele><time>2026-03-16T15:12:35Z</time></trkpt><trkpt lat="45.67800110393576" lon="9.343663524275359"><ele>279.0</ele><time>2026-03-16T15:12:36Z</time></trkpt><trkpt lat="45.67787274921344" lon="9.343589056701596"><ele>278.0</ele><time>2026-03-16T15:12:37Z</time></trkpt><trkpt lat="45.67775296074084" lon="9.343520415312636"><ele>277.0</ele><time>2026-03-16T15:12:38Z</time></trkpt><trkpt lat="45.67764145701805" lon="9.3434430428489"><ele>275.75</ele><time>2026-03-16T15:12:39Z</time></trkpt><trkpt lat="45.677528672325344" lon="9.343342375599558"><ele>274.5</ele><time>2026-03-16T15:12:40Z</time></trkpt><trkpt lat="45.677420196871196" lon="9.343229353115422"><ele>273.25</ele><time>2026-03-16T15:12:41Z</time></trkpt><trkpt lat="45.67729068297846" lon="9.343128623117593"><ele>272.0</ele><time>2026-03-16T15:12:42Z</time></trkpt><trkpt lat="45.677139417047805" lon="9.343021368798816"><ele>272.0</ele><time>2026-03-16T15:12:43Z</time></trkpt><trkpt lat="45.6770034457567" lon="9.342928603202271"><ele>272.0</ele><time>2026-03-16T15:12:44Z</time></trkpt><trkpt lat="45.676893361890336" lon="9.342847718819268"><ele>272.0</ele><time>2026-03-16T15:12:45Z</time></trkpt><trkpt lat="45.67678791492521" lon="9.3427754789477"><ele>272.0</ele><time>2026-03-16T15:12:46Z</time></trkpt><trkpt lat="45.67669078975506" lon="9.34271543933547"><ele>271.5</ele><time>2026-03-16T15:12:47Z</time></trkpt><trkpt lat="45.67658317800086" lon="9.34262599765984"><ele>271.0</ele><time>2026-03-16T15:12:48Z</time></trkpt><trkpt lat="45.676478014701736" lon="9.342550187665811"><ele>270.5</ele><time>2026-03-16T15:12:49Z</time></trkpt><trkpt lat="45.676363528146894" lon="9.342473811014967"><ele>270.0</ele><time>2026-03-16T15:12:50Z</time></trkpt><trkpt lat="45.67624503818916" lon="9.342404176076046"><ele>270.0</ele><time>2026-03-16T15:12:51Z</time></trkpt><trkpt lat="45.676110475471376" lon="9.342328344800773"><ele>270.0</ele><time>2026-03-16T15:12:52Z</time></trkpt><trkpt lat="45.67595718109189" lon="9.342251901435018"><ele>270.0</ele><time>2026-03-16T15:12:52.999Z</time></trkpt><trkpt lat="45.67578623821663" lon="9.342173997538929"><ele>269.6666666666667</ele><time>2026-03-16T15:12:53.999Z</time></trkpt><trkpt lat="45.67560211291559" lon="9.342092922710448"><ele>269.33333333333337</ele><time>2026-03-16T15:12:54.999Z</time></trkpt><trkpt lat="45.67545198394239" lon="9.342021512956466"><ele>269.0</ele><time>2026-03-16T15:12:55.999Z</time></trkpt><trkpt lat="45.67534005017424" lon="9.34197139963988"><ele>269.0</ele><time>2026-03-16T15:12:56.999Z</time></trkpt><trkpt lat="45.67523523921495" lon="9.341917196162607"><ele>269.0</ele><time>2026-03-16T15:12:57.999Z</time></trkpt><trkpt lat="45.67515879504285" lon="9.341866495923322"><ele>269.0</ele><time>2026-03-16T15:12:58.999Z</time></trkpt><trkpt lat="45.67508535602819" lon="9.341845862815422"><ele>269.0</ele><time>2026-03-16T15:13:01.999Z</time></trkpt><trkpt lat="45.6750398850069" lon="9.341973164801047"><ele>269.0</ele><time>2026-03-16T15:13:03.999Z</time></trkpt><trkpt lat="45.675026509254195" lon="9.342127279374983"><ele>268.8</ele><time>2026-03-16T15:13:04.999Z</time></trkpt><trkpt lat="45.67501381850062" lon="9.342255364910649"><ele>268.59999999999997</ele><time>2026-03-16T15:13:05.999Z</time></trkpt><trkpt lat="45.67499497611483" lon="9.342400737242853"><ele>268.4</ele><time>2026-03-16T15:13:06.999Z</time></trkpt><trkpt lat="45.67494210453832" lon="9.342538129687663"><ele>268.2</ele><time>2026-03-16T15:13:08.999Z</time></trkpt><trkpt lat="45.674835833137465" lon="9.342570747803332"><ele>268.0</ele><time>2026-03-16T15:13:10.999Z</time></trkpt><trkpt lat="45.674748506477286" lon="9.342579847602737"><ele>268.0</ele><time>2026-03-16T15:13:11.999Z</time></trkpt><trkpt lat="45.674654789307965" lon="9.342544610338487"><ele>268.0</ele><time>2026-03-16T15:13:12.999Z</time></trkpt><trkpt lat="45.67455353665497" lon="9.342505238020793"><ele>268.0</ele><time>2026-03-16T15:13:14Z</time></trkpt><trkpt lat="45.67442801337547" lon="9.342452427763382"><ele>268.0</ele><time>2026-03-16T15:13:15Z</time></trkpt><trkpt lat="45.67428009501187" lon="9.342387248314319"><ele>267.2</ele><time>2026-03-16T15:13:16Z</time></trkpt><trkpt lat="45.67414794098111" lon="9.342344055699934"><ele>266.4</ele><time>2026-03-16T15:13:17Z</time></trkpt><trkpt lat="45.67404660016209" lon="9.342309842396645"><ele>265.59999999999997</ele><time>2026-03-16T15:13:18Z</time></trkpt><trkpt lat="45.67396395001247" lon="9.342274852104872"><ele>264.8</ele><time>2026-03-16T15:13:19Z</time></trkpt><trkpt lat="45.67387401796326" lon="9.34225166560991"><ele>264.0</ele><time>2026-03-16T15:13:20Z</time></trkpt><trkpt lat="45.67380031078656" lon="9.342226322865116"><ele>264.59999999999997</ele><time>2026-03-16T15:13:21Z</time></trkpt><trkpt lat="45.6736498207965" lon="9.342181306792721"><ele>265.2</ele><time>2026-03-16T15:13:23Z</time></trkpt><trkpt lat="45.67354386557219" lon="9.342173839475459"><ele>265.79999999999995</ele><time>2026-03-16T15:13:25Z</time></trkpt><trkpt lat="45.67344417144466" lon="9.34217126833685"><ele>266.4</ele><time>2026-03-16T15:13:27Z</time></trkpt><trkpt lat="45.673356554005565" lon="9.34214521111456"><ele>267.0</ele><time>2026-03-16T15:13:29Z</time></trkpt><trkpt lat="45.67327435718485" lon="9.342168186386692"><ele>267.0</ele><time>2026-03-16T15:13:32Z</time></trkpt><trkpt lat="45.67320450817794" lon="9.342191624131774"><ele>267.0</ele><time>2026-03-16T15:13:34Z</time></trkpt><trkpt lat="45.67310842623279" lon="9.342211230765939"><ele>267.0</ele><time>2026-03-16T15:13:36Z</time></trkpt><trkpt lat="45.6730430403377" lon="9.34228147825453"><ele>267.0</ele><time>2026-03-16T15:13:38Z</time></trkpt><trkpt lat="45.67298069378853" lon="9.342305570389577"><ele>267.0</ele><time>2026-03-16T15:13:40Z</time></trkpt><trkpt lat="45.672915687366356" lon="9.342361682532216"><ele>267.0</ele><time>2026-03-16T15:13:43Z</time></trkpt><trkpt lat="45.67283793957391" lon="9.342429902547549"><ele>267.00000000000006</ele><time>2026-03-16T15:13:45Z</time></trkpt><trkpt lat="45.67279911274157" lon="9.342524015316268"><ele>267.0</ele><time>2026-03-16T15:13:48Z</time></trkpt><trkpt lat="45.6727781286671" lon="9.342610873511585"><ele>267.0</ele><time>2026-03-16T15:13:51Z</time></trkpt><trkpt lat="45.67281991059592" lon="9.34269655926732"><ele>267.0</ele><time>2026-03-16T15:13:53Z</time></trkpt><trkpt lat="45.67284056266069" lon="9.342789341386144"><ele>267.0</ele><time>2026-03-16T15:13:55Z</time></trkpt><trkpt lat="45.67279082891161" lon="9.342894630192689"><ele>267.00000000000006</ele><time>2026-03-16T15:13:57Z</time></trkpt><trkpt lat="45.67272918687235" lon="9.342917577469873"><ele>267.0</ele><time>2026-03-16T15:13:58Z</time></trkpt><trkpt lat="45.672600460873376" lon="9.34299520188656"><ele>266.0</ele><time>2026-03-16T15:14:00Z</time></trkpt><trkpt lat="45.67250994665311" lon="9.343118800172435"><ele>265.0</ele><time>2026-03-16T15:14:02Z</time></trkpt><trkpt lat="45.672466503490334" lon="9.343186852958512"><ele>264.0</ele><time>2026-03-16T15:14:03Z</time></trkpt><trkpt lat="45.67248946595436" lon="9.34332023356158"><ele>263.0</ele><time>2026-03-16T15:14:05Z</time></trkpt><trkpt lat="45.67247997922566" lon="9.343428235364541"><ele>262.0</ele><time>2026-03-16T15:14:06Z</time></trkpt><trkpt lat="45.67249568160751" lon="9.343524819384632"><ele>261.0</ele><time>2026-03-16T15:14:07Z</time></trkpt><trkpt lat="45.67249546720269" lon="9.343660356193162"><ele>261.0</ele><time>2026-03-16T15:14:08Z</time></trkpt><trkpt lat="45.67248055756212" lon="9.343816187614458"><ele>261.0</ele><time>2026-03-16T15:14:09Z</time></trkpt><trkpt lat="45.672478238808004" lon="9.343939913430527"><ele>261.0</ele><time>2026-03-16T15:14:10Z</time></trkpt><trkpt lat="45.67245917092232" lon="9.344149476611488"><ele>261.0</ele><time>2026-03-16T15:14:11Z</time></trkpt><trkpt lat="45.67240093913564" lon="9.34434350274231"><ele>261.40000000000003</ele><time>2026-03-16T15:14:12Z</time></trkpt><trkpt lat="45.672357611016366" lon="9.344518051587759"><ele>261.8</ele><time>2026-03-16T15:14:13Z</time></trkpt><trkpt lat="45.672323463662195" lon="9.344668175369014"><ele>262.20000000000005</ele><time>2026-03-16T15:14:14Z</time></trkpt><trkpt lat="45.67229375223993" lon="9.3447952841391"><ele>262.6</ele><time>2026-03-16T15:14:15Z</time></trkpt><trkpt lat="45.672247654483996" lon="9.344918821440277"><ele>263.0</ele><time>2026-03-16T15:14:16Z</time></trkpt><trkpt lat="45.67219227271028" lon="9.345019204769978"><ele>262.25</ele><time>2026-03-16T15:14:17Z</time></trkpt><trkpt lat="45.67213260973936" lon="9.345109855337846"><ele>261.5</ele><time>2026-03-16T15:14:18Z</time></trkpt><trkpt lat="45.672026899082745" lon="9.345190964696389"><ele>260.75</ele><time>2026-03-16T15:14:19Z</time></trkpt><trkpt lat="45.67189572562161" lon="9.345197687703928"><ele>260.0</ele><time>2026-03-16T15:14:20Z</time></trkpt><trkpt lat="45.67179010806438" lon="9.345266349199678"><ele>260.0</ele><time>2026-03-16T15:14:21Z</time></trkpt><trkpt lat="45.67166321272872" lon="9.345370647227384"><ele>260.0</ele><time>2026-03-16T15:14:22Z</time></trkpt><trkpt lat="45.67154262234329" lon="9.345446801825862"><ele>260.0</ele><time>2026-03-16T15:14:23Z</time></trkpt><trkpt lat="45.67143978616573" lon="9.345494618239972"><ele>260.0</ele><time>2026-03-16T15:14:24Z</time></trkpt><trkpt lat="45.67134165450235" lon="9.345496972335184"><ele>260.25</ele><time>2026-03-16T15:14:25Z</time></trkpt><trkpt lat="45.67125499441313" lon="9.34560411139956"><ele>260.5</ele><time>2026-03-16T15:14:26Z</time></trkpt><trkpt lat="45.6711296172957" lon="9.345678146051283"><ele>260.75</ele><time>2026-03-16T15:14:27Z</time></trkpt><trkpt lat="45.67100867244558" lon="9.34573459328481"><ele>261.0</ele><time>2026-03-16T15:14:28Z</time></trkpt><trkpt lat="45.670910910308685" lon="9.345772140498502"><ele>261.0</ele><time>2026-03-16T15:14:29Z</time></trkpt><trkpt lat="45.67084289861386" lon="9.345781967423346"><ele>261.0</ele><time>2026-03-16T15:14:30Z</time></trkpt><trkpt lat="45.670764774655865" lon="9.345816922427739"><ele>261.0</ele><time>2026-03-16T15:14:31Z</time></trkpt><trkpt lat="45.67066727543908" lon="9.345821974012463"><ele>261.0</ele><time>2026-03-16T15:14:32Z</time></trkpt><trkpt lat="45.67054012200768" lon="9.345787797559867"><ele>261.0</ele><time>2026-03-16T15:14:34Z</time></trkpt><trkpt lat="45.67041497870072" lon="9.34582559228923"><ele>261.0</ele><time>2026-03-16T15:14:36Z</time></trkpt><trkpt lat="45.67030517184548" lon="9.345815657056862"><ele>261.0</ele><time>2026-03-16T15:14:38Z</time></trkpt><trkpt lat="45.670192620930905" lon="9.345799168521202"><ele>261.0</ele><time>2026-03-16T15:14:40Z</time></trkpt><trkpt lat="45.670068262151915" lon="9.345843717210903"><ele>261.0</ele><time>2026-03-16T15:14:42Z</time></trkpt><trkpt lat="45.67001538826259" lon="9.345914404489285"><ele>261.0</ele><time>2026-03-16T15:14:43Z</time></trkpt><trkpt lat="45.66998012677593" lon="9.345996538621396"><ele>261.0</ele><time>2026-03-16T15:14:44Z</time></trkpt><trkpt lat="45.669954447458636" lon="9.346101411433258"><ele>261.0</ele><time>2026-03-16T15:14:45Z</time></trkpt><trkpt lat="45.669919133082786" lon="9.346238490199418"><ele>261.0</ele><time>2026-03-16T15:14:46Z</time></trkpt><trkpt lat="45.66989178509122" lon="9.346385803110495"><ele>261.0</ele><time>2026-03-16T15:14:47Z</time></trkpt><trkpt lat="45.66987405219913" lon="9.34654176507631"><ele>261.0</ele><time>2026-03-16T15:14:48Z</time></trkpt><trkpt lat="45.66983203480668" lon="9.34671506086313"><ele>261.0</ele><time>2026-03-16T15:14:49Z</time></trkpt><trkpt lat="45.669836157860765" lon="9.346883246004687"><ele>261.0</ele><time>2026-03-16T15:14:50Z</time></trkpt><trkpt lat="45.66984575545173" lon="9.347027130588508"><ele>261.0</ele><time>2026-03-16T15:14:51Z</time></trkpt><trkpt lat="45.66982868716828" lon="9.347186544331613"><ele>261.0</ele><time>2026-03-16T15:14:52Z</time></trkpt><trkpt lat="45.66982741051689" lon="9.347337357664461"><ele>261.0</ele><time>2026-03-16T15:14:53Z</time></trkpt><trkpt lat="45.6698208120322" lon="9.347491991172975"><ele>261.40000000000003</ele><time>2026-03-16T15:14:54Z</time></trkpt><trkpt lat="45.669788634152454" lon="9.347644985663884"><ele>261.8</ele><time>2026-03-16T15:14:55Z</time></trkpt><trkpt lat="45.6697573307347" lon="9.347775499577402"><ele>262.20000000000005</ele><time>2026-03-16T15:14:56Z</time></trkpt><trkpt lat="45.669720034190306" lon="9.347939436125737"><ele>262.6</ele><time>2026-03-16T15:14:57Z</time></trkpt><trkpt lat="45.669700912161375" lon="9.3480669128019"><ele>263.0</ele><time>2026-03-16T15:14:58Z</time></trkpt><trkpt lat="45.66968533699509" lon="9.348192885300897"><ele>263.2</ele><time>2026-03-16T15:14:59Z</time></trkpt><trkpt lat="45.66966131773055" lon="9.34832836051258"><ele>263.4</ele><time>2026-03-16T15:15:00Z</time></trkpt><trkpt lat="45.66963523389504" lon="9.348476764050464"><ele>263.59999999999997</ele><time>2026-03-16T15:15:01Z</time></trkpt><trkpt lat="45.66960417095856" lon="9.348601930861252"><ele>263.8</ele><time>2026-03-16T15:15:02Z</time></trkpt><trkpt lat="45.66958284770355" lon="9.34871313779438"><ele>264.0</ele><time>2026-03-16T15:15:03Z</time></trkpt><trkpt lat="45.66955913195941" lon="9.348825830684289"><ele>264.0</ele><time>2026-03-16T15:15:04Z</time></trkpt><trkpt lat="45.66953736113022" lon="9.34899902286787"><ele>264.0</ele><time>2026-03-16T15:15:05Z</time></trkpt><trkpt lat="45.66951182740065" lon="9.349140034670691"><ele>264.0</ele><time>2026-03-16T15:15:06Z</time></trkpt><trkpt lat="45.66951840414129" lon="9.349258629518014"><ele>264.0</ele><time>2026-03-16T15:15:07Z</time></trkpt><trkpt lat="45.66948528864809" lon="9.349364359030044"><ele>264.0</ele><time>2026-03-16T15:15:08Z</time></trkpt><trkpt lat="45.66946346739408" lon="9.34946236562181"><ele>262.4</ele><time>2026-03-16T15:15:09Z</time></trkpt><trkpt lat="45.66943906068855" lon="9.349605843849572"><ele>260.79999999999995</ele><time>2026-03-16T15:15:10Z</time></trkpt><trkpt lat="45.66943528637136" lon="9.349741424403918"><ele>259.20000000000005</ele><time>2026-03-16T15:15:11Z</time></trkpt><trkpt lat="45.66939890040974" lon="9.34988319176103"><ele>257.6</ele><time>2026-03-16T15:15:12Z</time></trkpt><trkpt lat="45.66936687534568" lon="9.350023723083746"><ele>256.0</ele><time>2026-03-16T15:15:13Z</time></trkpt><trkpt lat="45.66934175412422" lon="9.350153153952773"><ele>255.75</ele><time>2026-03-16T15:15:14Z</time></trkpt><trkpt lat="45.669265926943574" lon="9.35031873577054"><ele>255.5</ele><time>2026-03-16T15:15:15Z</time></trkpt><trkpt lat="45.66916973774055" lon="9.35048378516306"><ele>255.25</ele><time>2026-03-16T15:15:16Z</time></trkpt><trkpt lat="45.66908318418949" lon="9.350665829576592"><ele>255.0</ele><time>2026-03-16T15:15:17Z</time></trkpt><trkpt lat="45.66898137209436" lon="9.350806775237"><ele>254.4</ele><time>2026-03-16T15:15:18Z</time></trkpt><trkpt lat="45.66889057732701" lon="9.350928796062995"><ele>253.8</ele><time>2026-03-16T15:15:18.999Z</time></trkpt><trkpt lat="45.668826102097924" lon="9.35103974495494"><ele>253.2</ele><time>2026-03-16T15:15:20Z</time></trkpt><trkpt lat="45.66873848614297" lon="9.35114256969759"><ele>252.6</ele><time>2026-03-16T15:15:21Z</time></trkpt><trkpt lat="45.668639846896326" lon="9.351214497490618"><ele>252.0</ele><time>2026-03-16T15:15:22Z</time></trkpt><trkpt lat="45.668547287343486" lon="9.351285388530414"><ele>251.83333333333334</ele><time>2026-03-16T15:15:23Z</time></trkpt><trkpt lat="45.66848084475607" lon="9.351368112141262"><ele>251.66666666666669</ele><time>2026-03-16T15:15:24Z</time></trkpt><trkpt lat="45.66841760671093" lon="9.351458096650495"><ele>251.5</ele><time>2026-03-16T15:15:25Z</time></trkpt><trkpt lat="45.66836051126321" lon="9.351523538356082"><ele>251.33333333333334</ele><time>2026-03-16T15:15:26Z</time></trkpt><trkpt lat="45.66827763734388" lon="9.35162381392741"><ele>251.16666666666669</ele><time>2026-03-16T15:15:27Z</time></trkpt><trkpt lat="45.668253738842125" lon="9.351714370232797"><ele>251.0</ele><time>2026-03-16T15:15:28Z</time></trkpt><trkpt lat="45.66818164888956" lon="9.35178699270427"><ele>251.20000000000002</ele><time>2026-03-16T15:15:29Z</time></trkpt><trkpt lat="45.66809228060193" lon="9.351856912848266"><ele>251.40000000000003</ele><time>2026-03-16T15:15:30Z</time></trkpt><trkpt lat="45.66801507328289" lon="9.35191453336638"><ele>251.6</ele><time>2026-03-16T15:15:31Z</time></trkpt><trkpt lat="45.66796838905566" lon="9.352080274471955"><ele>251.8</ele><time>2026-03-16T15:15:32Z</time></trkpt><trkpt lat="45.6678711994094" lon="9.35220814366095"><ele>252.0</ele><time>2026-03-16T15:15:33Z</time></trkpt><trkpt lat="45.66775820340463" lon="9.352309726236735"><ele>251.39999999999998</ele><time>2026-03-16T15:15:34Z</time></trkpt><trkpt lat="45.66765849792712" lon="9.352350824015637"><ele>250.79999999999998</ele><time>2026-03-16T15:15:35Z</time></trkpt><trkpt lat="45.66761240361119" lon="9.35241547303465"><ele>250.2</ele><time>2026-03-16T15:15:36Z</time></trkpt><trkpt lat="45.66755297208887" lon="9.352447963709938"><ele>249.6</ele><time>2026-03-16T15:15:38Z</time></trkpt><trkpt lat="45.66745753720433" lon="9.352498198906645"><ele>249.0</ele><time>2026-03-16T15:15:40Z</time></trkpt><trkpt lat="45.6673355971038" lon="9.352549573389567"><ele>249.0</ele><time>2026-03-16T15:15:42Z</time></trkpt><trkpt lat="45.66724088506538" lon="9.352593978469875"><ele>248.99999999999997</ele><time>2026-03-16T15:15:44Z</time></trkpt><trkpt lat="45.66713946383281" lon="9.352639217085379"><ele>248.99999999999997</ele><time>2026-03-16T15:15:46Z</time></trkpt><trkpt lat="45.667019189684716" lon="9.352699165522646"><ele>249.0</ele><time>2026-03-16T15:15:48Z</time></trkpt><trkpt lat="45.666934453105725" lon="9.352756919527433"><ele>249.0</ele><time>2026-03-16T15:15:49Z</time></trkpt><trkpt lat="45.66685256103781" lon="9.352819551633978"><ele>249.0</ele><time>2026-03-16T15:15:50Z</time></trkpt><trkpt lat="45.66678312517776" lon="9.352901068601824"><ele>249.0</ele><time>2026-03-16T15:15:51Z</time></trkpt><trkpt lat="45.666689721121784" lon="9.352996022428526"><ele>249.0</ele><time>2026-03-16T15:15:52Z</time></trkpt><trkpt lat="45.666625510365854" lon="9.353057467857179"><ele>249.0</ele><time>2026-03-16T15:15:53Z</time></trkpt><trkpt lat="45.66657521463052" lon="9.353116617597882"><ele>249.0</ele><time>2026-03-16T15:15:54Z</time></trkpt><trkpt lat="45.66652078117762" lon="9.35318388861694"><ele>249.0</ele><time>2026-03-16T15:15:55Z</time></trkpt><trkpt lat="45.66647280908719" lon="9.353253763510182"><ele>249.0</ele><time>2026-03-16T15:15:56Z</time></trkpt><trkpt lat="45.66638494307794" lon="9.353378221303739"><ele>249.0</ele><time>2026-03-16T15:15:58Z</time></trkpt><trkpt lat="45.66634272063718" lon="9.353452819688787"><ele>249.0</ele><time>2026-03-16T15:15:59Z</time></trkpt><trkpt lat="45.66629905880091" lon="9.353526111522338"><ele>249.0</ele><time>2026-03-16T15:16:00Z</time></trkpt><trkpt lat="45.66622958962712" lon="9.353616384497021"><ele>249.0</ele><time>2026-03-16T15:16:03Z</time></trkpt><trkpt lat="45.666168037209125" lon="9.353702560337391"><ele>249.0</ele><time>2026-03-16T15:16:05Z</time></trkpt><trkpt lat="45.66610409593872" lon="9.353779271840677"><ele>248.5</ele><time>2026-03-16T15:16:07Z</time></trkpt><trkpt lat="45.6661086651092" lon="9.353896804013972"><ele>248.0</ele><time>2026-03-16T15:16:09Z</time></trkpt><trkpt lat="45.6660648304332" lon="9.354057230601578"><ele>247.5</ele><time>2026-03-16T15:16:11Z</time></trkpt><trkpt lat="45.66601940165352" lon="9.354143144921336"><ele>247.0</ele><time>2026-03-16T15:16:12Z</time></trkpt><trkpt lat="45.665963535070645" lon="9.354223990804659"><ele>246.5</ele><time>2026-03-16T15:16:13Z</time></trkpt><trkpt lat="45.665906781203624" lon="9.354263318060214"><ele>246.0</ele><time>2026-03-16T15:16:21Z</time></trkpt><trkpt lat="45.66591586538983" lon="9.354392642993187"><ele>246.0</ele><time>2026-03-16T15:16:31Z</time></trkpt><trkpt lat="45.665946148640984" lon="9.354485478031847"><ele>246.00000000000003</ele><time>2026-03-16T15:16:33Z</time></trkpt><trkpt lat="45.665923926028285" lon="9.354605208403004"><ele>246.00000000000003</ele><time>2026-03-16T15:16:37Z</time></trkpt><trkpt lat="45.66583614554413" lon="9.354637509774712"><ele>246.0</ele><time>2026-03-16T15:16:38Z</time></trkpt><trkpt lat="45.66572889535719" lon="9.354692311239809"><ele>246.0</ele><time>2026-03-16T15:16:39Z</time></trkpt><trkpt lat="45.66561921911866" lon="9.354760983246544"><ele>245.20000000000002</ele><time>2026-03-16T15:16:40Z</time></trkpt><trkpt lat="45.6655120760148" lon="9.354823271808423"><ele>244.40000000000003</ele><time>2026-03-16T15:16:41Z</time></trkpt><trkpt lat="45.66541328383326" lon="9.354887950921126"><ele>243.6</ele><time>2026-03-16T15:16:42Z</time></trkpt><trkpt lat="45.66533130670639" lon="9.354967821331542"><ele>242.8</ele><time>2026-03-16T15:16:43Z</time></trkpt><trkpt lat="45.66526281983446" lon="9.354994250129852"><ele>242.0</ele><time>2026-03-16T15:16:44Z</time></trkpt><trkpt lat="45.66520017304827" lon="9.355042919457617"><ele>241.75</ele><time>2026-03-16T15:16:45Z</time></trkpt><trkpt lat="45.665130586781096" lon="9.355049335144539"><ele>241.5</ele><time>2026-03-16T15:16:47Z</time></trkpt><trkpt lat="45.66509390472687" lon="9.35488841194061"><ele>241.25</ele><time>2026-03-16T15:16:48Z</time></trkpt><trkpt lat="45.66500742349655" lon="9.354754663089405"><ele>241.0</ele><time>2026-03-16T15:16:49Z</time></trkpt><trkpt lat="45.664876903363066" lon="9.354623056807823"><ele>241.0</ele><time>2026-03-16T15:16:50Z</time></trkpt><trkpt lat="45.66477052780997" lon="9.354465574485824"><ele>241.0</ele><time>2026-03-16T15:16:51Z</time></trkpt><trkpt lat="45.664685610011105" lon="9.354302934598858"><ele>241.0</ele><time>2026-03-16T15:16:52Z</time></trkpt><trkpt lat="45.6645953357092" lon="9.354149116083743"><ele>241.0</ele><time>2026-03-16T15:16:53Z</time></trkpt><trkpt lat="45.664520195684375" lon="9.354024442248276"><ele>241.0</ele><time>2026-03-16T15:16:54Z</time></trkpt><trkpt lat="45.664443410586856" lon="9.353960585242689"><ele>241.00000000000003</ele><time>2026-03-16T15:16:55Z</time></trkpt><trkpt lat="45.664381564509874" lon="9.353916417890513"><ele>241.00000000000003</ele><time>2026-03-16T15:16:56Z</time></trkpt><trkpt lat="45.66429006383345" lon="9.353922495225776"><ele>241.0</ele><time>2026-03-16T15:16:57Z</time></trkpt><trkpt lat="45.664179694283845" lon="9.35389358986333"><ele>241.0</ele><time>2026-03-16T15:16:58Z</time></trkpt><trkpt lat="45.6640752623466" lon="9.353885213936929"><ele>241.66666666666666</ele><time>2026-03-16T15:16:59Z</time></trkpt><trkpt lat="45.66396543189694" lon="9.353871190435052"><ele>242.33333333333331</ele><time>2026-03-16T15:17:00Z</time></trkpt><trkpt lat="45.663884534737235" lon="9.353857655653194"><ele>243.0</ele><time>2026-03-16T15:17:01Z</time></trkpt><trkpt lat="45.66381492020354" lon="9.353828005689095"><ele>243.66666666666669</ele><time>2026-03-16T15:17:02Z</time></trkpt><trkpt lat="45.66373981902162" lon="9.353741784162365"><ele>244.33333333333334</ele><time>2026-03-16T15:17:04Z</time></trkpt><trkpt lat="45.66371966932752" lon="9.353649829283754"><ele>245.0</ele><time>2026-03-16T15:17:05Z</time></trkpt><trkpt lat="45.6636988236525" lon="9.353527000379767"><ele>245.00000000000003</ele><time>2026-03-16T15:17:06Z</time></trkpt><trkpt lat="45.66369506205587" lon="9.353380250258088"><ele>245.0</ele><time>2026-03-16T15:17:07Z</time></trkpt><trkpt lat="45.66368321520842" lon="9.353239300050415"><ele>245.0</ele><time>2026-03-16T15:17:08Z</time></trkpt><trkpt lat="45.6636935721736" lon="9.353144453477286"><ele>245.0</ele><time>2026-03-16T15:17:09Z</time></trkpt><trkpt lat="45.66370062920764" lon="9.353050558366817"><ele>245.00000000000003</ele><time>2026-03-16T15:17:10Z</time></trkpt><trkpt lat="45.66375069553072" lon="9.352949923593277"><ele>245.0</ele><time>2026-03-16T15:17:12Z</time></trkpt><trkpt lat="45.663814790365684" lon="9.352951236907998"><ele>245.16666666666669</ele><time>2026-03-16T15:17:13Z</time></trkpt><trkpt lat="45.663899569470196" lon="9.352976411304184"><ele>245.33333333333334</ele><time>2026-03-16T15:17:14Z</time></trkpt><trkpt lat="45.66400776723775" lon="9.352998927051582"><ele>245.5</ele><time>2026-03-16T15:17:15Z</time></trkpt><trkpt lat="45.664105540757525" lon="9.353008658395298"><ele>245.66666666666669</ele><time>2026-03-16T15:17:16Z</time></trkpt><trkpt lat="45.66418907629359" lon="9.353000778105066"><ele>245.83333333333334</ele><time>2026-03-16T15:17:17Z</time></trkpt><trkpt lat="45.66425900065251" lon="9.35298971417118"><ele>246.0</ele><time>2026-03-16T15:17:18Z</time></trkpt><trkpt lat="45.66437675769822" lon="9.35303560776426"><ele>246.4</ele><time>2026-03-16T15:17:20Z</time></trkpt><trkpt lat="45.66445582897036" lon="9.35305193432302"><ele>246.8</ele><time>2026-03-16T15:17:21Z</time></trkpt><trkpt lat="45.664553886256925" lon="9.353065964649145"><ele>247.20000000000002</ele><time>2026-03-16T15:17:22Z</time></trkpt><trkpt lat="45.66466336241586" lon="9.353063114691862"><ele>247.60000000000002</ele><time>2026-03-16T15:17:23Z</time></trkpt><trkpt lat="45.66477356259301" lon="9.353060977710141"><ele>248.0</ele><time>2026-03-16T15:17:24Z</time></trkpt><trkpt lat="45.66490703207518" lon="9.353065868771726"><ele>248.0</ele><time>2026-03-16T15:17:25Z</time></trkpt><trkpt lat="45.66502960288931" lon="9.353082839619836"><ele>248.0</ele><time>2026-03-16T15:17:26Z</time></trkpt><trkpt lat="45.66514766142213" lon="9.353062684328126"><ele>248.0</ele><time>2026-03-16T15:17:27Z</time></trkpt><trkpt lat="45.66524524984402" lon="9.353045811227691"><ele>248.0</ele><time>2026-03-16T15:17:28Z</time></trkpt><trkpt lat="45.66532950408968" lon="9.353033966210631"><ele>248.0</ele><time>2026-03-16T15:17:29Z</time></trkpt><trkpt lat="45.66538621656088" lon="9.352948217842329"><ele>248.8</ele><time>2026-03-16T15:17:30Z</time></trkpt><trkpt lat="45.665443365858515" lon="9.352855835322858"><ele>249.60000000000002</ele><time>2026-03-16T15:17:31Z</time></trkpt><trkpt lat="45.665508457488684" lon="9.352758248942077"><ele>250.39999999999998</ele><time>2026-03-16T15:17:32Z</time></trkpt><trkpt lat="45.66556836373848" lon="9.352677950197533"><ele>251.2</ele><time>2026-03-16T15:17:33Z</time></trkpt><trkpt lat="45.66563981760197" lon="9.352562988666257"><ele>252.0</ele><time>2026-03-16T15:17:34Z</time></trkpt><trkpt lat="45.66571869947901" lon="9.35243607497652"><ele>252.0</ele><time>2026-03-16T15:17:35Z</time></trkpt><trkpt lat="45.665795935302235" lon="9.352311809654118"><ele>252.0</ele><time>2026-03-16T15:17:36Z</time></trkpt><trkpt lat="45.66585125101029" lon="9.352165071087631"><ele>252.0</ele><time>2026-03-16T15:17:37Z</time></trkpt><trkpt lat="45.66594528304905" lon="9.352018724404035"><ele>252.0</ele><time>2026-03-16T15:17:38Z</time></trkpt><trkpt lat="45.6660479886119" lon="9.351853173607156"><ele>252.0</ele><time>2026-03-16T15:17:39Z</time></trkpt><trkpt lat="45.66613941587377" lon="9.35171522266425"><ele>252.0</ele><time>2026-03-16T15:17:40Z</time></trkpt><trkpt lat="45.66621310146458" lon="9.351600661103094"><ele>252.0</ele><time>2026-03-16T15:17:41Z</time></trkpt><trkpt lat="45.66629004812481" lon="9.351472775925616"><ele>252.0</ele><time>2026-03-16T15:17:42Z</time></trkpt><trkpt lat="45.66637136374119" lon="9.35133676251481"><ele>252.0</ele><time>2026-03-16T15:17:43Z</time></trkpt><trkpt lat="45.66645201799155" lon="9.351201566244539"><ele>252.0</ele><time>2026-03-16T15:17:44Z</time></trkpt><trkpt lat="45.66654408003833" lon="9.35104986084822"><ele>252.0</ele><time>2026-03-16T15:17:45Z</time></trkpt><trkpt lat="45.66664362344732" lon="9.350880458154164"><ele>252.0</ele><time>2026-03-16T15:17:46Z</time></trkpt><trkpt lat="45.66676450770515" lon="9.35068903682803"><ele>252.0</ele><time>2026-03-16T15:17:47Z</time></trkpt><trkpt lat="45.66689729536828" lon="9.350487595939256"><ele>252.0</ele><time>2026-03-16T15:17:48Z</time></trkpt><trkpt lat="45.66702119179165" lon="9.35030481291469"><ele>252.0</ele><time>2026-03-16T15:17:49Z</time></trkpt><trkpt lat="45.667135760574595" lon="9.350126506826209"><ele>252.0</ele><time>2026-03-16T15:17:50Z</time></trkpt><trkpt lat="45.667242025470344" lon="9.349965963900255"><ele>252.0</ele><time>2026-03-16T15:17:51Z</time></trkpt><trkpt lat="45.667329048228424" lon="9.349817266859233"><ele>252.0</ele><time>2026-03-16T15:17:52Z</time></trkpt><trkpt lat="45.667408012335706" lon="9.3497108266726"><ele>252.0</ele><time>2026-03-16T15:17:53Z</time></trkpt><trkpt lat="45.66747792058448" lon="9.349612323826067"><ele>252.6</ele><time>2026-03-16T15:17:54Z</time></trkpt><trkpt lat="45.66753490630985" lon="9.34952180964121"><ele>253.2</ele><time>2026-03-16T15:17:55Z</time></trkpt><trkpt lat="45.6675911919611" lon="9.349446553790651"><ele>253.8</ele><time>2026-03-16T15:17:56Z</time></trkpt><trkpt lat="45.66765221989377" lon="9.349355961635775"><ele>254.4</ele><time>2026-03-16T15:17:57Z</time></trkpt><trkpt lat="45.66772909353508" lon="9.34923784154201"><ele>255.0</ele><time>2026-03-16T15:17:58Z</time></trkpt><trkpt lat="45.66779894375602" lon="9.349121721366306"><ele>255.6</ele><time>2026-03-16T15:17:59Z</time></trkpt><trkpt lat="45.66787286006237" lon="9.349018984725635"><ele>256.2</ele><time>2026-03-16T15:18:00Z</time></trkpt><trkpt lat="45.6679341285321" lon="9.348925911075503"><ele>256.8</ele><time>2026-03-16T15:18:01Z</time></trkpt><trkpt lat="45.667981067136566" lon="9.348839431034838"><ele>257.4</ele><time>2026-03-16T15:18:02Z</time></trkpt><trkpt lat="45.66802632284111" lon="9.348697215370313"><ele>258.0</ele><time>2026-03-16T15:18:04Z</time></trkpt><trkpt lat="45.66808263251508" lon="9.34852907980964"><ele>258.1666666666667</ele><time>2026-03-16T15:18:06Z</time></trkpt><trkpt lat="45.66811992354275" lon="9.348443000439705"><ele>258.3333333333333</ele><time>2026-03-16T15:18:07Z</time></trkpt><trkpt lat="45.66815738141071" lon="9.348330091917255"><ele>258.5</ele><time>2026-03-16T15:18:08Z</time></trkpt><trkpt lat="45.66819160387249" lon="9.348226467900925"><ele>258.66666666666663</ele><time>2026-03-16T15:18:09Z</time></trkpt><trkpt lat="45.66825351841113" lon="9.348067302816334"><ele>258.8333333333333</ele><time>2026-03-16T15:18:11Z</time></trkpt><trkpt lat="45.668266179325045" lon="9.3479585253285"><ele>259.0</ele><time>2026-03-16T15:18:12Z</time></trkpt><trkpt lat="45.668256071837625" lon="9.347808702297474"><ele>259.59999999999997</ele><time>2026-03-16T15:18:13Z</time></trkpt><trkpt lat="45.6682400251389" lon="9.347669975684953"><ele>260.2</ele><time>2026-03-16T15:18:14Z</time></trkpt><trkpt lat="45.6682315208469" lon="9.347573464618046"><ele>260.79999999999995</ele><time>2026-03-16T15:18:15Z</time></trkpt><trkpt lat="45.6682713825406" lon="9.347431202894095"><ele>261.4</ele><time>2026-03-16T15:18:17Z</time></trkpt><trkpt lat="45.668336730094516" lon="9.347367337822627"><ele>262.0</ele><time>2026-03-16T15:18:18Z</time></trkpt><trkpt lat="45.6684118607564" lon="9.347277701647782"><ele>263.0</ele><time>2026-03-16T15:18:19Z</time></trkpt><trkpt lat="45.668487040478325" lon="9.347190081224914"><ele>264.0</ele><time>2026-03-16T15:18:20Z</time></trkpt><trkpt lat="45.668551068297226" lon="9.347092037720781"><ele>265.0</ele><time>2026-03-16T15:18:21Z</time></trkpt><trkpt lat="45.66861591000752" lon="9.347004006487031"><ele>266.0</ele><time>2026-03-16T15:18:22Z</time></trkpt><trkpt lat="45.66865140379628" lon="9.34691746145724"><ele>267.0</ele><time>2026-03-16T15:18:23Z</time></trkpt><trkpt lat="45.66865737726965" lon="9.346822116836805"><ele>268.0</ele><time>2026-03-16T15:18:24Z</time></trkpt><trkpt lat="45.66860581189001" lon="9.346630863008423"><ele>268.8</ele><time>2026-03-16T15:18:26Z</time></trkpt><trkpt lat="45.66855608863933" lon="9.346514104830923"><ele>269.6</ele><time>2026-03-16T15:18:27Z</time></trkpt><trkpt lat="45.66851944304189" lon="9.346379630548004"><ele>270.4</ele><time>2026-03-16T15:18:28Z</time></trkpt><trkpt lat="45.66849284055919" lon="9.3461955156171"><ele>271.2</ele><time>2026-03-16T15:18:29Z</time></trkpt><trkpt lat="45.668441824706115" lon="9.34605404220515"><ele>272.0</ele><time>2026-03-16T15:18:30Z</time></trkpt><trkpt lat="45.66842285626321" lon="9.345876658786983"><ele>273.5</ele><time>2026-03-16T15:18:31Z</time></trkpt><trkpt lat="45.668406143070314" lon="9.345714230320915"><ele>275.0</ele><time>2026-03-16T15:18:32Z</time></trkpt><trkpt lat="45.66840696855867" lon="9.345560878822429"><ele>276.5</ele><time>2026-03-16T15:18:33Z</time></trkpt><trkpt lat="45.66842016663792" lon="9.345385999434107"><ele>278.0</ele><time>2026-03-16T15:18:34Z</time></trkpt><trkpt lat="45.668439638320116" lon="9.345232073752484"><ele>278.4</ele><time>2026-03-16T15:18:35Z</time></trkpt><trkpt lat="45.66846214316716" lon="9.345107674890997"><ele>278.8</ele><time>2026-03-16T15:18:36Z</time></trkpt><trkpt lat="45.668481593298175" lon="9.34498886547268"><ele>279.2</ele><time>2026-03-16T15:18:37Z</time></trkpt><trkpt lat="45.668493529631206" lon="9.34483488157919"><ele>279.6</ele><time>2026-03-16T15:18:38Z</time></trkpt><trkpt lat="45.668482709034095" lon="9.34466343345744"><ele>280.0</ele><time>2026-03-16T15:18:39Z</time></trkpt><trkpt lat="45.66848168129218" lon="9.344491107966299"><ele>280.2</ele><time>2026-03-16T15:18:40Z</time></trkpt><trkpt lat="45.66849698226109" lon="9.344358806372735"><ele>280.4</ele><time>2026-03-16T15:18:41Z</time></trkpt><trkpt lat="45.6685307284626" lon="9.344229876459332"><ele>280.6</ele><time>2026-03-16T15:18:42Z</time></trkpt><trkpt lat="45.66857464373311" lon="9.344093699295552"><ele>280.8</ele><time>2026-03-16T15:18:43Z</time></trkpt><trkpt lat="45.66862797626696" lon="9.343980149671191"><ele>281.0</ele><time>2026-03-16T15:18:44Z</time></trkpt><trkpt lat="45.668675086827314" lon="9.343898817540662"><ele>280.2</ele><time>2026-03-16T15:18:45Z</time></trkpt><trkpt lat="45.66873051345455" lon="9.343820601434519"><ele>279.40000000000003</ele><time>2026-03-16T15:18:47Z</time></trkpt><trkpt lat="45.66865911465717" lon="9.343745900824224"><ele>278.6</ele><time>2026-03-16T15:18:57Z</time></trkpt><trkpt lat="45.6685175274467" lon="9.343770877882257"><ele>277.8</ele><time>2026-03-16T15:18:59Z</time></trkpt><trkpt lat="45.668416258219594" lon="9.343776585349808"><ele>277.0</ele><time>2026-03-16T15:19:00Z</time></trkpt><trkpt lat="45.668311707726666" lon="9.343783026329703"><ele>277.0</ele><time>2026-03-16T15:19:01Z</time></trkpt><trkpt lat="45.66821520930734" lon="9.34378537129677"><ele>277.0</ele><time>2026-03-16T15:19:02Z</time></trkpt><trkpt lat="45.668135262552404" lon="9.343793450272436"><ele>277.0</ele><time>2026-03-16T15:19:03Z</time></trkpt><trkpt lat="45.668068889581726" lon="9.3437869225596"><ele>277.0</ele><time>2026-03-16T15:19:04Z</time></trkpt><trkpt lat="45.66799433971549" lon="9.343764542533105"><ele>277.0</ele><time>2026-03-16T15:19:05Z</time></trkpt><trkpt lat="45.66788747116166" lon="9.343801881728824"><ele>277.0</ele><time>2026-03-16T15:19:07Z</time></trkpt><trkpt lat="45.667797351243756" lon="9.343958286074503"><ele>278.16666666666663</ele><time>2026-03-16T15:19:09Z</time></trkpt><trkpt lat="45.667761783124426" lon="9.344078488893828"><ele>279.3333333333333</ele><time>2026-03-16T15:19:10Z</time></trkpt><trkpt lat="45.66773012225825" lon="9.34417031939288"><ele>280.5</ele><time>2026-03-16T15:19:11Z</time></trkpt><trkpt lat="45.667690959268604" lon="9.344245718435802"><ele>281.6666666666667</ele><time>2026-03-16T15:19:12Z</time></trkpt><trkpt lat="45.66760239695084" lon="9.344323469929463"><ele>282.83333333333337</ele><time>2026-03-16T15:19:14Z</time></trkpt><trkpt lat="45.66752118325919" lon="9.344285852476483"><ele>284.0</ele><time>2026-03-16T15:19:16Z</time></trkpt><trkpt lat="45.66750857898648" lon="9.34414631486654"><ele>284.0</ele><time>2026-03-16T15:19:18Z</time></trkpt><trkpt lat="45.6675010595751" lon="9.343987202172276"><ele>284.0</ele><time>2026-03-16T15:19:20Z</time></trkpt><trkpt lat="45.6674772985013" lon="9.343902587961326"><ele>284.0</ele><time>2026-03-16T15:19:21Z</time></trkpt><trkpt lat="45.66744273815369" lon="9.343778858496552"><ele>284.0</ele><time>2026-03-16T15:19:23Z</time></trkpt><trkpt lat="45.66747114057925" lon="9.34364555646425"><ele>284.0</ele><time>2026-03-16T15:19:25Z</time></trkpt><trkpt lat="45.667497891820766" lon="9.343530039851027"><ele>283.2</ele><time>2026-03-16T15:19:26Z</time></trkpt><trkpt lat="45.667570426588185" lon="9.343412701324572"><ele>282.4</ele><time>2026-03-16T15:19:28Z</time></trkpt><trkpt lat="45.66768974275923" lon="9.343411912916137"><ele>281.6</ele><time>2026-03-16T15:19:30Z</time></trkpt><trkpt lat="45.66776363322817" lon="9.343417785602835"><ele>280.8</ele><time>2026-03-16T15:19:31Z</time></trkpt><trkpt lat="45.66788326098422" lon="9.343423765082079"><ele>280.0</ele><time>2026-03-16T15:19:33Z</time></trkpt><trkpt lat="45.66796489398252" lon="9.343404197322874"><ele>279.5</ele><time>2026-03-16T15:19:34Z</time></trkpt><trkpt lat="45.668049879876826" lon="9.34337873407055"><ele>279.0</ele><time>2026-03-16T15:19:35Z</time></trkpt><trkpt lat="45.6681669840416" lon="9.343326711520868"><ele>278.5</ele><time>2026-03-16T15:19:37Z</time></trkpt><trkpt lat="45.66823776683981" lon="9.34331845084022"><ele>278.0</ele><time>2026-03-16T15:19:38Z</time></trkpt><trkpt lat="45.668311646841985" lon="9.343308718172889"><ele>277.5</ele><time>2026-03-16T15:19:39Z</time></trkpt><trkpt lat="45.66839015073513" lon="9.34332411255693"><ele>277.0</ele><time>2026-03-16T15:19:40Z</time></trkpt><trkpt lat="45.66848273990363" lon="9.343378235794617"><ele>277.0</ele><time>2026-03-16T15:19:41Z</time></trkpt><trkpt lat="45.66856721851222" lon="9.343458207766325"><ele>277.0</ele><time>2026-03-16T15:19:42Z</time></trkpt><trkpt lat="45.66863161027198" lon="9.343542206972256"><ele>277.0</ele><time>2026-03-16T15:19:43Z</time></trkpt><trkpt lat="45.66869759394276" lon="9.343619686204235"><ele>277.0</ele><time>2026-03-16T15:19:44Z</time></trkpt><trkpt lat="45.66875378780593" lon="9.343707177381942"><ele>277.0</ele><time>2026-03-16T15:19:46Z</time></trkpt><trkpt lat="45.668850049072276" lon="9.343683784260879"><ele>276.5</ele><time>2026-03-16T15:19:48Z</time></trkpt><trkpt lat="45.66898522198058" lon="9.343563744438427"><ele>276.0</ele><time>2026-03-16T15:19:50Z</time></trkpt><trkpt lat="45.669071230753715" lon="9.343482036651835"><ele>275.5</ele><time>2026-03-16T15:19:51Z</time></trkpt><trkpt lat="45.66916452873848" lon="9.343344865201663"><ele>275.0</ele><time>2026-03-16T15:19:52Z</time></trkpt><trkpt lat="45.669256599419036" lon="9.343270783144515"><ele>275.0</ele><time>2026-03-16T15:19:53Z</time></trkpt><trkpt lat="45.66933820094553" lon="9.343217759426249"><ele>275.0</ele><time>2026-03-16T15:19:54Z</time></trkpt><trkpt lat="45.66941397811368" lon="9.343132950382898"><ele>275.0</ele><time>2026-03-16T15:19:55Z</time></trkpt><trkpt lat="45.66948596867306" lon="9.34305587773269"><ele>275.0</ele><time>2026-03-16T15:19:56Z</time></trkpt><trkpt lat="45.66953833306222" lon="9.34298959311035"><ele>275.0</ele><time>2026-03-16T15:19:57Z</time></trkpt><trkpt lat="45.669574856945665" lon="9.342847580850064"><ele>273.5</ele><time>2026-03-16T15:19:58Z</time></trkpt><trkpt lat="45.669604100741125" lon="9.342663765351526"><ele>272.0</ele><time>2026-03-16T15:19:59Z</time></trkpt><trkpt lat="45.669650780018166" lon="9.342462056998201"><ele>270.5</ele><time>2026-03-16T15:20:00Z</time></trkpt><trkpt lat="45.66970441049029" lon="9.34230521240838"><ele>269.0</ele><time>2026-03-16T15:20:01Z</time></trkpt><trkpt lat="45.66975807573838" lon="9.342157181445003"><ele>268.8</ele><time>2026-03-16T15:20:02Z</time></trkpt><trkpt lat="45.669816810893984" lon="9.341974085089609"><ele>268.59999999999997</ele><time>2026-03-16T15:20:03Z</time></trkpt><trkpt lat="45.66986701424491" lon="9.341838832809895"><ele>268.4</ele><time>2026-03-16T15:20:04Z</time></trkpt><trkpt lat="45.66991219084674" lon="9.341725199639416"><ele>268.2</ele><time>2026-03-16T15:20:05Z</time></trkpt><trkpt lat="45.66995661742111" lon="9.341628327870039"><ele>268.0</ele><time>2026-03-16T15:20:06Z</time></trkpt><trkpt lat="45.66998987079244" lon="9.341543245828253"><ele>268.0</ele><time>2026-03-16T15:20:07Z</time></trkpt><trkpt lat="45.67006582676001" lon="9.341427267196377"><ele>268.0</ele><time>2026-03-16T15:20:09Z</time></trkpt><trkpt lat="45.67010895538833" lon="9.341339429163808"><ele>268.0</ele><time>2026-03-16T15:20:10Z</time></trkpt><trkpt lat="45.670156461888816" lon="9.34126708001975"><ele>268.0</ele><time>2026-03-16T15:20:11Z</time></trkpt><trkpt lat="45.670207085056745" lon="9.341163120130298"><ele>268.0</ele><time>2026-03-16T15:20:12Z</time></trkpt><trkpt lat="45.670281623072434" lon="9.34104901793395"><ele>268.0</ele><time>2026-03-16T15:20:13Z</time></trkpt><trkpt lat="45.67036841994649" lon="9.340899332525185"><ele>268.0</ele><time>2026-03-16T15:20:14Z</time></trkpt><trkpt lat="45.67043443953543" lon="9.340790857464496"><ele>268.0</ele><time>2026-03-16T15:20:15Z</time></trkpt><trkpt lat="45.67047514127233" lon="9.340708946223868"><ele>268.0</ele><time>2026-03-16T15:20:16Z</time></trkpt><trkpt lat="45.67050815363996" lon="9.340632226782652"><ele>268.0</ele><time>2026-03-16T15:20:17Z</time></trkpt><trkpt lat="45.67054966300627" lon="9.34056201188443"><ele>268.0</ele><time>2026-03-16T15:20:18Z</time></trkpt><trkpt lat="45.67059304853248" lon="9.340487034382896"><ele>268.0</ele><time>2026-03-16T15:20:19Z</time></trkpt><trkpt lat="45.67063481579616" lon="9.340395396125292"><ele>268.0</ele><time>2026-03-16T15:20:20Z</time></trkpt><trkpt lat="45.67066597922566" lon="9.340307442874872"><ele>268.0</ele><time>2026-03-16T15:20:21Z</time></trkpt><trkpt lat="45.670690882524475" lon="9.340200261413058"><ele>268.0</ele><time>2026-03-16T15:20:22Z</time></trkpt><trkpt lat="45.6707157662215" lon="9.340071335329194"><ele>268.0</ele><time>2026-03-16T15:20:23Z</time></trkpt><trkpt lat="45.67076449931668" lon="9.339891388006903"><ele>268.0</ele><time>2026-03-16T15:20:24Z</time></trkpt><trkpt lat="45.67081754073596" lon="9.33971789962441"><ele>268.0</ele><time>2026-03-16T15:20:25Z</time></trkpt><trkpt lat="45.670874779375524" lon="9.33953351407829"><ele>268.0</ele><time>2026-03-16T15:20:26Z</time></trkpt><trkpt lat="45.67092294632112" lon="9.339379816342193"><ele>268.0</ele><time>2026-03-16T15:20:27Z</time></trkpt><trkpt lat="45.67097043623371" lon="9.339240298888091"><ele>267.8</ele><time>2026-03-16T15:20:28Z</time></trkpt><trkpt lat="45.67100002887406" lon="9.339078846667135"><ele>267.6</ele><time>2026-03-16T15:20:29Z</time></trkpt><trkpt lat="45.67104332430625" lon="9.338910956982787"><ele>267.4</ele><time>2026-03-16T15:20:31Z</time></trkpt><trkpt lat="45.67107857882199" lon="9.33883374582523"><ele>267.2</ele><time>2026-03-16T15:20:32Z</time></trkpt><trkpt lat="45.67106005725471" lon="9.338727566236207"><ele>267.0</ele><time>2026-03-16T15:20:34Z</time></trkpt><trkpt lat="45.67093548486736" lon="9.338714182427346"><ele>267.0</ele><time>2026-03-16T15:20:36Z</time></trkpt><trkpt lat="45.67083190627488" lon="9.338744028754851"><ele>267.0</ele><time>2026-03-16T15:20:37Z</time></trkpt><trkpt lat="45.67073175180025" lon="9.338774759801742"><ele>267.0</ele><time>2026-03-16T15:20:38Z</time></trkpt><trkpt lat="45.67066335086669" lon="9.338791005210522"><ele>267.0</ele><time>2026-03-16T15:20:39Z</time></trkpt><trkpt lat="45.670589001456946" lon="9.338724959594995"><ele>267.0</ele><time>2026-03-16T15:20:41Z</time></trkpt><trkpt lat="45.67055637769301" lon="9.338518588649087"><ele>267.0</ele><time>2026-03-16T15:20:43Z</time></trkpt><trkpt lat="45.67052583919221" lon="9.338343487635099"><ele>267.0</ele><time>2026-03-16T15:20:44Z</time></trkpt><trkpt lat="45.67049347940369" lon="9.338119084973746"><ele>267.0</ele><time>2026-03-16T15:20:45Z</time></trkpt><trkpt lat="45.670461036272734" lon="9.33787996800323"><ele>266.3333333333333</ele><time>2026-03-16T15:20:46Z</time></trkpt><trkpt lat="45.67041943508494" lon="9.337611556179835"><ele>265.66666666666663</ele><time>2026-03-16T15:20:47Z</time></trkpt><trkpt lat="45.67038751443605" lon="9.337358100397871"><ele>265.0</ele><time>2026-03-16T15:20:48Z</time></trkpt><trkpt lat="45.6703383007063" lon="9.337127266501673"><ele>265.0</ele><time>2026-03-16T15:20:49Z</time></trkpt><trkpt lat="45.67031339873995" lon="9.336941655065436"><ele>265.0</ele><time>2026-03-16T15:20:50Z</time></trkpt><trkpt lat="45.67029216842544" lon="9.336775873352874"><ele>265.0</ele><time>2026-03-16T15:20:51Z</time></trkpt><trkpt lat="45.67027485868426" lon="9.33662791819542"><ele>265.0</ele><time>2026-03-16T15:20:52Z</time></trkpt><trkpt lat="45.67025336871747" lon="9.336493506701467"><ele>264.8333333333333</ele><time>2026-03-16T15:20:53Z</time></trkpt><trkpt lat="45.67022108719609" lon="9.336379312839142"><ele>264.66666666666663</ele><time>2026-03-16T15:20:54Z</time></trkpt><trkpt lat="45.670212702876334" lon="9.336261310319712"><ele>264.5</ele><time>2026-03-16T15:20:55Z</time></trkpt><trkpt lat="45.67020299359221" lon="9.336167511277056"><ele>264.3333333333333</ele><time>2026-03-16T15:20:56Z</time></trkpt><trkpt lat="45.67019360220221" lon="9.336066978924627"><ele>264.1666666666667</ele><time>2026-03-16T15:20:58Z</time></trkpt><trkpt lat="45.670326395707285" lon="9.33605952500788"><ele>264.0</ele><time>2026-03-16T15:20:59Z</time></trkpt><trkpt lat="45.67041446735463" lon="9.336032087876193"><ele>264.0</ele><time>2026-03-16T15:21:01Z</time></trkpt><trkpt lat="45.670378627831695" lon="9.335844929302691"><ele>264.0</ele><time>2026-03-16T15:21:02Z</time></trkpt><trkpt lat="45.67033665481413" lon="9.335688832295371"><ele>264.0</ele><time>2026-03-16T15:21:03Z</time></trkpt><trkpt lat="45.67029985981797" lon="9.335512651223866"><ele>264.0</ele><time>2026-03-16T15:21:04Z</time></trkpt><trkpt lat="45.67026536534403" lon="9.335401796708428"><ele>263.6666666666667</ele><time>2026-03-16T15:21:05Z</time></trkpt><trkpt lat="45.6702212961016" lon="9.335242187318089"><ele>263.33333333333337</ele><time>2026-03-16T15:21:06Z</time></trkpt><trkpt lat="45.67017503518484" lon="9.334994127994829"><ele>263.0</ele><time>2026-03-16T15:21:07Z</time></trkpt><trkpt lat="45.670127837509504" lon="9.334739128245129"><ele>263.33333333333337</ele><time>2026-03-16T15:21:08Z</time></trkpt><trkpt lat="45.670052696209176" lon="9.334565851909408"><ele>263.6666666666667</ele><time>2026-03-16T15:21:09Z</time></trkpt><trkpt lat="45.66999702573555" lon="9.334314765875988"><ele>264.0</ele><time>2026-03-16T15:21:10Z</time></trkpt><trkpt lat="45.669924592478395" lon="9.334063832987793"><ele>263.6666666666667</ele><time>2026-03-16T15:21:11Z</time></trkpt><trkpt lat="45.669850251808036" lon="9.333791307719284"><ele>263.33333333333337</ele><time>2026-03-16T15:21:12Z</time></trkpt><trkpt lat="45.66978864390267" lon="9.333542725357574"><ele>263.0</ele><time>2026-03-16T15:21:13Z</time></trkpt><trkpt lat="45.669732726868745" lon="9.333312419072973"><ele>263.0</ele><time>2026-03-16T15:21:14Z</time></trkpt><trkpt lat="45.66968117071252" lon="9.333105152324606"><ele>263.0</ele><time>2026-03-16T15:21:15Z</time></trkpt><trkpt lat="45.66962675658391" lon="9.332912706663773"><ele>263.0</ele><time>2026-03-16T15:21:16Z</time></trkpt><trkpt lat="45.66957742672183" lon="9.332743727665765"><ele>263.0</ele><time>2026-03-16T15:21:17Z</time></trkpt><trkpt lat="45.66952660025678" lon="9.332564930587132"><ele>262.8</ele><time>2026-03-16T15:21:18Z</time></trkpt><trkpt lat="45.66948341554872" lon="9.332400644553879"><ele>262.6</ele><time>2026-03-16T15:21:19Z</time></trkpt><trkpt lat="45.669445077917274" lon="9.332247676900458"><ele>262.4</ele><time>2026-03-16T15:21:20Z</time></trkpt><trkpt lat="45.66941581133085" lon="9.332118175926674"><ele>262.2</ele><time>2026-03-16T15:21:21Z</time></trkpt><trkpt lat="45.66939346371494" lon="9.33199790214043"><ele>262.0</ele><time>2026-03-16T15:21:22Z</time></trkpt><trkpt lat="45.66936944323625" lon="9.33188314383963"><ele>262.0</ele><time>2026-03-16T15:21:23Z</time></trkpt><trkpt lat="45.66935703770081" lon="9.331772880544918"><ele>262.0</ele><time>2026-03-16T15:21:24Z</time></trkpt><trkpt lat="45.66935147877752" lon="9.33166656654318"><ele>262.0</ele><time>2026-03-16T15:21:25Z</time></trkpt><trkpt lat="45.669328756085534" lon="9.33154406515929"><ele>262.0</ele><time>2026-03-16T15:21:26Z</time></trkpt><trkpt lat="45.66928751735168" lon="9.331418477091118"><ele>262.0</ele><time>2026-03-16T15:21:27Z</time></trkpt><trkpt lat="45.66926111101756" lon="9.331302862691922"><ele>262.0</ele><time>2026-03-16T15:21:28Z</time></trkpt><trkpt lat="45.669245511025615" lon="9.331202651787715"><ele>261.66666666666663</ele><time>2026-03-16T15:21:29Z</time></trkpt><trkpt lat="45.66923129305299" lon="9.33109838408705"><ele>261.3333333333333</ele><time>2026-03-16T15:21:30Z</time></trkpt><trkpt lat="45.66921477451837" lon="9.330988759859746"><ele>261.0</ele><time>2026-03-16T15:21:31Z</time></trkpt><trkpt lat="45.66919712159253" lon="9.330885136659695"><ele>260.6666666666667</ele><time>2026-03-16T15:21:32Z</time></trkpt><trkpt lat="45.669181032123355" lon="9.33077358018964"><ele>260.33333333333337</ele><time>2026-03-16T15:21:33Z</time></trkpt><trkpt lat="45.66916543583552" lon="9.33065867747989"><ele>260.0</ele><time>2026-03-16T15:21:34Z</time></trkpt><trkpt lat="45.669154505716534" lon="9.330561983173817"><ele>260.0</ele><time>2026-03-16T15:21:35Z</time></trkpt><trkpt lat="45.66914628124859" lon="9.330464548630458"><ele>260.0</ele><time>2026-03-16T15:21:36Z</time></trkpt><trkpt lat="45.66913380917181" lon="9.330320764937746"><ele>260.0</ele><time>2026-03-16T15:21:38Z</time></trkpt><trkpt lat="45.66911747968212" lon="9.33016028215981"><ele>260.0</ele><time>2026-03-16T15:21:40Z</time></trkpt><trkpt lat="45.669090380310394" lon="9.330032961735858"><ele>260.0</ele><time>2026-03-16T15:21:42Z</time></trkpt><trkpt lat="45.6689718555602" lon="9.329980976299007"><ele>260.0</ele><time>2026-03-16T15:21:44Z</time></trkpt><trkpt lat="45.668896338794255" lon="9.329986087906256"><ele>260.0</ele><time>2026-03-16T15:21:45Z</time></trkpt><trkpt lat="45.668820683467985" lon="9.330007440152613"><ele>260.0</ele><time>2026-03-16T15:21:46Z</time></trkpt><trkpt lat="45.66872813006119" lon="9.330047586038066"><ele>260.0</ele><time>2026-03-16T15:21:48Z</time></trkpt><trkpt lat="45.66865314347203" lon="9.330115678893566"><ele>260.0</ele><time>2026-03-16T15:21:50Z</time></trkpt><trkpt lat="45.66853701682385" lon="9.33018245383797"><ele>260.0</ele><time>2026-03-16T15:21:52Z</time></trkpt><trkpt lat="45.66845474221434" lon="9.330208340478599"><ele>260.0</ele><time>2026-03-16T15:21:53Z</time></trkpt><trkpt lat="45.668359898607314" lon="9.330259782358896"><ele>260.0</ele><time>2026-03-16T15:21:54Z</time></trkpt><trkpt lat="45.6682776525178" lon="9.330318994341672"><ele>260.0</ele><time>2026-03-16T15:21:55Z</time></trkpt><trkpt lat="45.668151610847794" lon="9.330358979062062"><ele>260.0</ele><time>2026-03-16T15:21:56Z</time></trkpt><trkpt lat="45.66804623475706" lon="9.330405022898287"><ele>260.0</ele><time>2026-03-16T15:21:57Z</time></trkpt><trkpt lat="45.667926872311476" lon="9.330447604002767"><ele>260.0</ele><time>2026-03-16T15:21:58Z</time></trkpt><trkpt lat="45.667818376493734" lon="9.330439930616691"><ele>260.0</ele><time>2026-03-16T15:21:59Z</time></trkpt><trkpt lat="45.66771236393284" lon="9.33042684686696"><ele>260.0</ele><time>2026-03-16T15:22:00Z</time></trkpt><trkpt lat="45.66762730149756" lon="9.330403630501621"><ele>260.0</ele><time>2026-03-16T15:22:01Z</time></trkpt><trkpt lat="45.66755161647215" lon="9.330353695770672"><ele>260.8</ele><time>2026-03-16T15:22:02Z</time></trkpt><trkpt lat="45.66746801836413" lon="9.330274373082956"><ele>261.6</ele><time>2026-03-16T15:22:03Z</time></trkpt><trkpt lat="45.66737518313368" lon="9.330167741042853"><ele>262.4</ele><time>2026-03-16T15:22:04Z</time></trkpt><trkpt lat="45.667286513448225" lon="9.330094540005138"><ele>263.2</ele><time>2026-03-16T15:22:05Z</time></trkpt><trkpt lat="45.66719000929232" lon="9.33004212955283"><ele>264.0</ele><time>2026-03-16T15:22:06Z</time></trkpt><trkpt lat="45.66708028038196" lon="9.329980207072607"><ele>264.0</ele><time>2026-03-16T15:22:07Z</time></trkpt><trkpt lat="45.66696849049971" lon="9.32991570779706"><ele>264.0</ele><time>2026-03-16T15:22:08Z</time></trkpt><trkpt lat="45.666876312445766" lon="9.32988759638129"><ele>264.0</ele><time>2026-03-16T15:22:09Z</time></trkpt><trkpt lat="45.66678152328383" lon="9.329885744720292"><ele>264.0</ele><time>2026-03-16T15:22:10Z</time></trkpt><trkpt lat="45.66670185771457" lon="9.329889243421885"><ele>264.0</ele><time>2026-03-16T15:22:11Z</time></trkpt><trkpt lat="45.66661092986605" lon="9.32993020324243"><ele>263.8</ele><time>2026-03-16T15:22:12Z</time></trkpt><trkpt lat="45.66652704672587" lon="9.329967906443775"><ele>263.59999999999997</ele><time>2026-03-16T15:22:13Z</time></trkpt><trkpt lat="45.66646533250338" lon="9.329993336581886"><ele>263.4</ele><time>2026-03-16T15:22:14Z</time></trkpt><trkpt lat="45.6663763616544" lon="9.330043073752782"><ele>263.2</ele><time>2026-03-16T15:22:16Z</time></trkpt><trkpt lat="45.66628732698022" lon="9.330015354605028"><ele>263.0</ele><time>2026-03-16T15:22:18Z</time></trkpt><trkpt lat="45.66619929383795" lon="9.3298129517271"><ele>263.0</ele><time>2026-03-16T15:22:20Z</time></trkpt><trkpt lat="45.666142138872075" lon="9.329672192225438"><ele>263.0</ele><time>2026-03-16T15:22:21Z</time></trkpt><trkpt lat="45.66608272089144" lon="9.329519842377817"><ele>263.0</ele><time>2026-03-16T15:22:22Z</time></trkpt><trkpt lat="45.66602845256088" lon="9.329375618413815"><ele>263.0</ele><time>2026-03-16T15:22:23Z</time></trkpt><trkpt lat="45.66597643078897" lon="9.329220658661793"><ele>263.5</ele><time>2026-03-16T15:22:24Z</time></trkpt><trkpt lat="45.665920428284316" lon="9.32906813102713"><ele>264.0</ele><time>2026-03-16T15:22:25Z</time></trkpt><trkpt lat="45.66586167349435" lon="9.328894364798083"><ele>264.5</ele><time>2026-03-16T15:22:26Z</time></trkpt><trkpt lat="45.66580630007084" lon="9.328713236230477"><ele>265.0</ele><time>2026-03-16T15:22:27Z</time></trkpt><trkpt lat="45.665773004515174" lon="9.32856228499729"><ele>265.5</ele><time>2026-03-16T15:22:28Z</time></trkpt><trkpt lat="45.66569438874377" lon="9.32841038204829"><ele>266.0</ele><time>2026-03-16T15:22:29Z</time></trkpt><trkpt lat="45.66561885050402" lon="9.328242350120439"><ele>266.5</ele><time>2026-03-16T15:22:30Z</time></trkpt><trkpt lat="45.665532892971385" lon="9.328062017522441"><ele>267.0</ele><time>2026-03-16T15:22:31Z</time></trkpt><trkpt lat="45.665437635644466" lon="9.327809595109299"><ele>265.3333333333333</ele><time>2026-03-16T15:22:32Z</time></trkpt><trkpt lat="45.66534788388049" lon="9.327570746336521"><ele>263.66666666666663</ele><time>2026-03-16T15:22:33Z</time></trkpt><trkpt lat="45.66526350008533" lon="9.327382092408083"><ele>262.0</ele><time>2026-03-16T15:22:34Z</time></trkpt><trkpt lat="45.66518734432204" lon="9.327226179517304"><ele>261.25</ele><time>2026-03-16T15:22:35Z</time></trkpt><trkpt lat="45.66511331695257" lon="9.327072210185051"><ele>260.5</ele><time>2026-03-16T15:22:36Z</time></trkpt><trkpt lat="45.66503372072432" lon="9.32690753075797"><ele>259.75</ele><time>2026-03-16T15:22:37Z</time></trkpt><trkpt lat="45.66495461407732" lon="9.326719226874719"><ele>259.0</ele><time>2026-03-16T15:22:38Z</time></trkpt><trkpt lat="45.664904814856094" lon="9.326514728757507"><ele>259.25</ele><time>2026-03-16T15:22:39Z</time></trkpt><trkpt lat="45.66481648877606" lon="9.326307774574735"><ele>259.5</ele><time>2026-03-16T15:22:40Z</time></trkpt><trkpt lat="45.664743531760024" lon="9.326151059293881"><ele>259.75</ele><time>2026-03-16T15:22:41Z</time></trkpt><trkpt lat="45.664674727515326" lon="9.325963155585303"><ele>260.0</ele><time>2026-03-16T15:22:42Z</time></trkpt><trkpt lat="45.66461892834973" lon="9.325773138530764"><ele>261.0</ele><time>2026-03-16T15:22:43Z</time></trkpt><trkpt lat="45.664557528955626" lon="9.325549477396722"><ele>262.0</ele><time>2026-03-16T15:22:44Z</time></trkpt><trkpt lat="45.664509868741405" lon="9.325342213124049"><ele>263.0</ele><time>2026-03-16T15:22:45Z</time></trkpt><trkpt lat="45.66447406926817" lon="9.325162214718928"><ele>262.2</ele><time>2026-03-16T15:22:46Z</time></trkpt><trkpt lat="45.66444336394854" lon="9.325021853973865"><ele>261.4</ele><time>2026-03-16T15:22:47Z</time></trkpt><trkpt lat="45.664416802369" lon="9.324907847842892"><ele>260.59999999999997</ele><time>2026-03-16T15:22:48Z</time></trkpt><trkpt lat="45.66439181009809" lon="9.324797458258448"><ele>259.8</ele><time>2026-03-16T15:22:49Z</time></trkpt><trkpt lat="45.66436621791938" lon="9.324584072051676"><ele>259.0</ele><time>2026-03-16T15:22:51Z</time></trkpt><trkpt lat="45.6643583311516" lon="9.324460411168275"><ele>259.0</ele><time>2026-03-16T15:22:52Z</time></trkpt><trkpt lat="45.664338028918394" lon="9.324346905092012"><ele>259.0</ele><time>2026-03-16T15:22:53Z</time></trkpt><trkpt lat="45.66433194708087" lon="9.324234265843861"><ele>259.0</ele><time>2026-03-16T15:22:54Z</time></trkpt><trkpt lat="45.664318729126556" lon="9.32411813190172"><ele>259.0</ele><time>2026-03-16T15:22:55Z</time></trkpt><trkpt lat="45.664294889547875" lon="9.324023387613565"><ele>259.0</ele><time>2026-03-16T15:22:56Z</time></trkpt><trkpt lat="45.66421544157835" lon="9.323962928831317"><ele>259.0</ele><time>2026-03-16T15:22:58Z</time></trkpt><trkpt lat="45.664109869188586" lon="9.324076900190342"><ele>259.0</ele><time>2026-03-16T15:23:00Z</time></trkpt><trkpt lat="45.664054448199494" lon="9.324199814584825"><ele>259.0</ele><time>2026-03-16T15:23:01Z</time></trkpt><trkpt lat="45.66398654856202" lon="9.324327306498555"><ele>259.0</ele><time>2026-03-16T15:23:02Z</time></trkpt><trkpt lat="45.663906458493756" lon="9.324446730344375"><ele>259.0</ele><time>2026-03-16T15:23:03Z</time></trkpt><trkpt lat="45.6638181483204" lon="9.324568858538854"><ele>259.0</ele><time>2026-03-16T15:23:04Z</time></trkpt><trkpt lat="45.663744418387616" lon="9.324661690173796"><ele>259.0</ele><time>2026-03-16T15:23:05Z</time></trkpt><trkpt lat="45.66369798117405" lon="9.324726671028824"><ele>259.0</ele><time>2026-03-16T15:23:06Z</time></trkpt><trkpt lat="45.66362735393135" lon="9.324865594232099"><ele>259.0</ele><time>2026-03-16T15:23:08Z</time></trkpt><trkpt lat="45.663561112842004" lon="9.324927159757923"><ele>259.0</ele><time>2026-03-16T15:23:09Z</time></trkpt><trkpt lat="45.66350724761282" lon="9.325018819993586"><ele>259.0</ele><time>2026-03-16T15:23:10Z</time></trkpt><trkpt lat="45.66346624292859" lon="9.325097156187164"><ele>258.8</ele><time>2026-03-16T15:23:11Z</time></trkpt><trkpt lat="45.66342587575085" lon="9.325172559426115"><ele>258.59999999999997</ele><time>2026-03-16T15:23:12Z</time></trkpt><trkpt lat="45.66334183280756" lon="9.325264878823829"><ele>258.4</ele><time>2026-03-16T15:23:13Z</time></trkpt><trkpt lat="45.663272390336914" lon="9.325366712470224"><ele>258.2</ele><time>2026-03-16T15:23:14Z</time></trkpt><trkpt lat="45.66319741102566" lon="9.325460511559163"><ele>258.0</ele><time>2026-03-16T15:23:15Z</time></trkpt><trkpt lat="45.663126185579415" lon="9.325538018510308"><ele>258.1666666666667</ele><time>2026-03-16T15:23:16Z</time></trkpt><trkpt lat="45.66305376723703" lon="9.325623439412071"><ele>258.3333333333333</ele><time>2026-03-16T15:23:17Z</time></trkpt><trkpt lat="45.663001134480254" lon="9.325698445540445"><ele>258.5</ele><time>2026-03-16T15:23:18Z</time></trkpt><trkpt lat="45.66294507310361" lon="9.32576476194316"><ele>258.66666666666663</ele><time>2026-03-16T15:23:19Z</time></trkpt><trkpt lat="45.662885566699515" lon="9.325815222941058"><ele>258.8333333333333</ele><time>2026-03-16T15:23:20Z</time></trkpt><trkpt lat="45.66282739206747" lon="9.325873008392298"><ele>259.0</ele><time>2026-03-16T15:23:21Z</time></trkpt><trkpt lat="45.66276348565451" lon="9.325918616652046"><ele>259.4</ele><time>2026-03-16T15:23:22Z</time></trkpt><trkpt lat="45.66269128920943" lon="9.32598436909258"><ele>259.79999999999995</ele><time>2026-03-16T15:23:23Z</time></trkpt><trkpt lat="45.66261570608922" lon="9.325991389994533"><ele>260.20000000000005</ele><time>2026-03-16T15:23:24Z</time></trkpt><trkpt lat="45.662525282833485" lon="9.326021490517167"><ele>260.6</ele><time>2026-03-16T15:23:25Z</time></trkpt><trkpt lat="45.66241864210184" lon="9.326004493018967"><ele>261.0</ele><time>2026-03-16T15:23:26Z</time></trkpt><trkpt lat="45.66229608703481" lon="9.326033008442666"><ele>261.0</ele><time>2026-03-16T15:23:27Z</time></trkpt><trkpt lat="45.662175530420825" lon="9.326120706283472"><ele>261.0</ele><time>2026-03-16T15:23:28Z</time></trkpt><trkpt lat="45.66208353223453" lon="9.326201418991815"><ele>261.0</ele><time>2026-03-16T15:23:29Z</time></trkpt><trkpt lat="45.66200953159713" lon="9.326321193557995"><ele>261.0</ele><time>2026-03-16T15:23:31Z</time></trkpt><trkpt lat="45.662004301254335" lon="9.32641797747423"><ele>261.0</ele><time>2026-03-16T15:23:32Z</time></trkpt><trkpt lat="45.662018216370775" lon="9.32650679857108"><ele>260.8333333333333</ele><time>2026-03-16T15:23:33Z</time></trkpt><trkpt lat="45.66195815689434" lon="9.326625780173455"><ele>260.6666666666667</ele><time>2026-03-16T15:23:35Z</time></trkpt><trkpt lat="45.66188792203346" lon="9.326686315762787"><ele>260.5</ele><time>2026-03-16T15:23:36Z</time></trkpt><trkpt lat="45.6618257158968" lon="9.32671716303293"><ele>260.33333333333337</ele><time>2026-03-16T15:23:37Z</time></trkpt><trkpt lat="45.66175057912775" lon="9.326718732983187"><ele>260.1666666666667</ele><time>2026-03-16T15:23:38Z</time></trkpt><trkpt lat="45.661658912553506" lon="9.326628692468892"><ele>260.0</ele><time>2026-03-16T15:23:40Z</time></trkpt><trkpt lat="45.66159602058164" lon="9.326592259534937"><ele>261.1666666666667</ele><time>2026-03-16T15:23:43Z</time></trkpt><trkpt lat="45.6615438117066" lon="9.3266433314089"><ele>262.33333333333337</ele><time>2026-03-16T15:23:46Z</time></trkpt><trkpt lat="45.66149904117035" lon="9.326720609956034"><ele>263.5</ele><time>2026-03-16T15:23:48Z</time></trkpt><trkpt lat="45.661457396433896" lon="9.326810100132722"><ele>264.6666666666667</ele><time>2026-03-16T15:23:49Z</time></trkpt><trkpt lat="45.6614127805817" lon="9.326900369662146"><ele>265.8333333333333</ele><time>2026-03-16T15:23:50Z</time></trkpt><trkpt lat="45.66136733849896" lon="9.326980486277572"><ele>267.0</ele><time>2026-03-16T15:23:51Z</time></trkpt><trkpt lat="45.6612514859645" lon="9.327058192833622"><ele>267.0</ele><time>2026-03-16T15:23:53Z</time></trkpt><trkpt lat="45.66118335108412" lon="9.327117096545646"><ele>267.0</ele><time>2026-03-16T15:23:54Z</time></trkpt><trkpt lat="45.66109638753542" lon="9.327231225540329"><ele>267.0</ele><time>2026-03-16T15:23:56Z</time></trkpt><trkpt lat="45.66105443486823" lon="9.327328438466132"><ele>267.0</ele><time>2026-03-16T15:23:57Z</time></trkpt><trkpt lat="45.661038357008344" lon="9.327445699618806"><ele>267.0</ele><time>2026-03-16T15:23:59Z</time></trkpt><trkpt lat="45.66090943997266" lon="9.327177004757454"><ele>267.6</ele><time>2026-03-16T15:24:06Z</time></trkpt><trkpt lat="45.660823738050446" lon="9.327109318053166"><ele>268.2</ele><time>2026-03-16T15:24:07Z</time></trkpt><trkpt lat="45.660755983486226" lon="9.327035422131809"><ele>268.8</ele><time>2026-03-16T15:24:08Z</time></trkpt><trkpt lat="45.66067349384994" lon="9.32696268460949"><ele>269.4</ele><time>2026-03-16T15:24:09Z</time></trkpt><trkpt lat="45.660611696296314" lon="9.326869124988875"><ele>270.0</ele><time>2026-03-16T15:24:10Z</time></trkpt><trkpt lat="45.660392113217746" lon="9.326993437934874"><ele>270.0</ele><time>2026-03-16T15:24:11Z</time></trkpt><trkpt lat="45.66031179202894" lon="9.326998916435983"><ele>270.0</ele><time>2026-03-16T15:24:12Z</time></trkpt><trkpt lat="45.660165160103034" lon="9.32705019126783"><ele>270.0</ele><time>2026-03-16T15:24:13Z</time></trkpt><trkpt lat="45.660021640703995" lon="9.327071691482002"><ele>270.0</ele><time>2026-03-16T15:24:14Z</time></trkpt><trkpt lat="45.659910291959825" lon="9.327094147676224"><ele>269.6</ele><time>2026-03-16T15:24:15Z</time></trkpt><trkpt lat="45.65981517646009" lon="9.327111926829465"><ele>269.2</ele><time>2026-03-16T15:24:16Z</time></trkpt><trkpt lat="45.65970009563351" lon="9.32712938938538"><ele>268.8</ele><time>2026-03-16T15:24:18Z</time></trkpt><trkpt lat="45.65959930922064" lon="9.327081723641317"><ele>268.4</ele><time>2026-03-16T15:24:20Z</time></trkpt><trkpt lat="45.65952685809571" lon="9.326974366148168"><ele>268.0</ele><time>2026-03-16T15:24:22Z</time></trkpt><trkpt lat="45.65948903029757" lon="9.326862794137783"><ele>268.0</ele><time>2026-03-16T15:24:23Z</time></trkpt><trkpt lat="45.659452336065854" lon="9.326749361832636"><ele>268.0</ele><time>2026-03-16T15:24:24Z</time></trkpt><trkpt lat="45.659403610071024" lon="9.326576574947127"><ele>268.0</ele><time>2026-03-16T15:24:25Z</time></trkpt><trkpt lat="45.65935029181232" lon="9.32638785116109"><ele>268.0</ele><time>2026-03-16T15:24:26Z</time></trkpt><trkpt lat="45.6593125170943" lon="9.326234161787667"><ele>268.0</ele><time>2026-03-16T15:24:27Z</time></trkpt><trkpt lat="45.659284586173285" lon="9.32613755954611"><ele>268.0</ele><time>2026-03-16T15:24:28Z</time></trkpt><trkpt lat="45.659242807559906" lon="9.326041236933966"><ele>268.0</ele><time>2026-03-16T15:24:29Z</time></trkpt><trkpt lat="45.65918679208769" lon="9.32596557034775"><ele>268.0</ele><time>2026-03-16T15:24:30Z</time></trkpt><trkpt lat="45.65910832062649" lon="9.325928702725099"><ele>268.0</ele><time>2026-03-16T15:24:32Z</time></trkpt><trkpt lat="45.659054492670144" lon="9.325865250151743"><ele>268.0</ele><time>2026-03-16T15:24:35Z</time></trkpt><trkpt lat="45.659010477281655" lon="9.325781224249425"><ele>268.0</ele><time>2026-03-16T15:24:36Z</time></trkpt><trkpt lat="45.65896629215906" lon="9.325658071069308"><ele>268.0</ele><time>2026-03-16T15:24:37Z</time></trkpt><trkpt lat="45.65893136944728" lon="9.32552364676389"><ele>268.0</ele><time>2026-03-16T15:24:38Z</time></trkpt><trkpt lat="45.65889493956937" lon="9.325405935760735"><ele>268.0</ele><time>2026-03-16T15:24:39Z</time></trkpt><trkpt lat="45.65885184310147" lon="9.325272912777036"><ele>268.0</ele><time>2026-03-16T15:24:41Z</time></trkpt><trkpt lat="45.658805359228765" lon="9.325194764573038"><ele>268.0</ele><time>2026-03-16T15:24:43Z</time></trkpt><trkpt lat="45.65876285475192" lon="9.3250850656462"><ele>268.0</ele><time>2026-03-16T15:24:45Z</time></trkpt><trkpt lat="45.65873215294985" lon="9.324944870874868"><ele>268.0</ele><time>2026-03-16T15:24:47Z</time></trkpt><trkpt lat="45.658719203057714" lon="9.324839318627502"><ele>268.0</ele><time>2026-03-16T15:24:50Z</time></trkpt><trkpt lat="45.6587867096413" lon="9.324740988142622"><ele>268.0</ele><time>2026-03-16T15:24:53Z</time></trkpt><trkpt lat="45.658843204053234" lon="9.324670396292484"><ele>268.0</ele><time>2026-03-16T15:24:56Z</time></trkpt><trkpt lat="45.65889754782312" lon="9.324620837662115"><ele>268.0</ele><time>2026-03-16T15:24:58Z</time></trkpt><trkpt lat="45.65893458282215" lon="9.32454155969117"><ele>268.0</ele><time>2026-03-16T15:25:01Z</time></trkpt><trkpt lat="45.65897261192616" lon="9.324464227323316"><ele>268.0</ele><time>2026-03-16T15:25:04Z</time></trkpt><trkpt lat="45.65903165606858" lon="9.324420254403174"><ele>268.0</ele><time>2026-03-16T15:25:10Z</time></trkpt><trkpt lat="45.65912421308082" lon="9.324394993818435"><ele>268.0</ele><time>2026-03-16T15:25:12Z</time></trkpt><trkpt lat="45.65919018311692" lon="9.324352270730033"><ele>268.0</ele><time>2026-03-16T15:25:13Z</time></trkpt><trkpt lat="45.65924993132522" lon="9.324309815662374"><ele>268.0</ele><time>2026-03-16T15:25:14Z</time></trkpt><trkpt lat="45.65936142785982" lon="9.324274247410944"><ele>268.0</ele><time>2026-03-16T15:25:16Z</time></trkpt><trkpt lat="45.65942799729722" lon="9.32426969892734"><ele>268.0</ele><time>2026-03-16T15:25:17Z</time></trkpt><trkpt lat="45.65952603974628" lon="9.324238338224495"><ele>268.0</ele><time>2026-03-16T15:25:19Z</time></trkpt><trkpt lat="45.65961131808096" lon="9.324234890375367"><ele>268.0</ele><time>2026-03-16T15:25:20Z</time></trkpt><trkpt lat="45.65969642292416" lon="9.324244095811299"><ele>268.0</ele><time>2026-03-16T15:25:22Z</time></trkpt><trkpt lat="45.659761267351236" lon="9.32426986340244"><ele>268.0</ele><time>2026-03-16T15:25:23Z</time></trkpt><trkpt lat="45.659820929817926" lon="9.324311567480953"><ele>267.4</ele><time>2026-03-16T15:25:24Z</time></trkpt><trkpt lat="45.65992461980422" lon="9.324402196275745"><ele>266.8</ele><time>2026-03-16T15:25:26Z</time></trkpt><trkpt lat="45.66003515934014" lon="9.324445982249356"><ele>266.2</ele><time>2026-03-16T15:25:28Z</time></trkpt><trkpt lat="45.66012414652528" lon="9.324455974868986"><ele>265.6</ele><time>2026-03-16T15:25:30Z</time></trkpt><trkpt lat="45.6602198192499" lon="9.324376567816978"><ele>265.0</ele><time>2026-03-16T15:25:32Z</time></trkpt><trkpt lat="45.66028499592306" lon="9.324260278925129"><ele>264.25</ele><time>2026-03-16T15:25:33Z</time></trkpt><trkpt lat="45.66035075386254" lon="9.324145197204702"><ele>263.5</ele><time>2026-03-16T15:25:34Z</time></trkpt><trkpt lat="45.660431532754394" lon="9.323982568545714"><ele>262.75</ele><time>2026-03-16T15:25:35Z</time></trkpt><trkpt lat="45.6605050733047" lon="9.323814936942522"><ele>262.0</ele><time>2026-03-16T15:25:36Z</time></trkpt><trkpt lat="45.66059530959534" lon="9.323670697366905"><ele>262.0</ele><time>2026-03-16T15:25:37Z</time></trkpt><trkpt lat="45.66069434422511" lon="9.32352382650071"><ele>262.0</ele><time>2026-03-16T15:25:38Z</time></trkpt><trkpt lat="45.66079847525338" lon="9.323373364407836"><ele>262.0</ele><time>2026-03-16T15:25:39Z</time></trkpt><trkpt lat="45.660868037176954" lon="9.323282544021458"><ele>262.0</ele><time>2026-03-16T15:25:40Z</time></trkpt><trkpt lat="45.660900104356294" lon="9.323193980478367"><ele>262.0</ele><time>2026-03-16T15:25:40.999Z</time></trkpt><trkpt lat="45.660994672737154" lon="9.323068662778736"><ele>262.0</ele><time>2026-03-16T15:25:42.999Z</time></trkpt><trkpt lat="45.66104025046235" lon="9.322956450499952"><ele>262.0</ele><time>2026-03-16T15:25:44.999Z</time></trkpt><trkpt lat="45.66102299927532" lon="9.322860879375131"><ele>262.0</ele><time>2026-03-16T15:25:45.999Z</time></trkpt><trkpt lat="45.66099220790119" lon="9.322720832877607"><ele>262.0</ele><time>2026-03-16T15:25:46.999Z</time></trkpt><trkpt lat="45.660972964692554" lon="9.322608860982287"><ele>261.8</ele><time>2026-03-16T15:25:47.999Z</time></trkpt><trkpt lat="45.66096012292626" lon="9.322510665765066"><ele>261.6</ele><time>2026-03-16T15:25:48.999Z</time></trkpt><trkpt lat="45.66093426277473" lon="9.32240537530176"><ele>261.40000000000003</ele><time>2026-03-16T15:25:50Z</time></trkpt><trkpt lat="45.66090799773275" lon="9.322250154581782"><ele>261.2</ele><time>2026-03-16T15:25:52Z</time></trkpt><trkpt lat="45.66088778520756" lon="9.32209084506263"><ele>261.0</ele><time>2026-03-16T15:25:54Z</time></trkpt><trkpt lat="45.66087426721767" lon="9.321974988653771"><ele>261.0</ele><time>2026-03-16T15:25:55Z</time></trkpt><trkpt lat="45.66085555924293" lon="9.321841918632636"><ele>261.0</ele><time>2026-03-16T15:25:57Z</time></trkpt><trkpt lat="45.66084922972214" lon="9.321723997683792"><ele>261.0</ele><time>2026-03-16T15:25:59Z</time></trkpt><trkpt lat="45.66084467655978" lon="9.321632471020528"><ele>261.0</ele><time>2026-03-16T15:26:05Z</time></trkpt><trkpt lat="45.66085308478995" lon="9.321767249785648"><ele>261.0</ele><time>2026-03-16T15:26:25Z</time></trkpt><trkpt lat="45.66088035048476" lon="9.321879675934303"><ele>261.0</ele><time>2026-03-16T15:26:27Z</time></trkpt><trkpt lat="45.660887963476675" lon="9.322021710509993"><ele>261.0</ele><time>2026-03-16T15:26:29Z</time></trkpt><trkpt lat="45.66090902649923" lon="9.322177776154392"><ele>261.0</ele><time>2026-03-16T15:26:31Z</time></trkpt><trkpt lat="45.66091936380744" lon="9.322270866955641"><ele>261.0</ele><time>2026-03-16T15:26:32Z</time></trkpt><trkpt lat="45.66093762146797" lon="9.322361832942208"><ele>261.0</ele><time>2026-03-16T15:26:33Z</time></trkpt><trkpt lat="45.66095807703043" lon="9.322449530175705"><ele>261.0</ele><time>2026-03-16T15:26:34Z</time></trkpt><trkpt lat="45.66096771620439" lon="9.322543684004307"><ele>261.0</ele><time>2026-03-16T15:26:35Z</time></trkpt><trkpt lat="45.66098513536447" lon="9.32263781940027"><ele>261.0</ele><time>2026-03-16T15:26:36Z</time></trkpt><trkpt lat="45.661014007856735" lon="9.322816913638265"><ele>261.1666666666667</ele><time>2026-03-16T15:26:38Z</time></trkpt><trkpt lat="45.661025247179246" lon="9.32291052035323"><ele>261.3333333333333</ele><time>2026-03-16T15:26:39Z</time></trkpt><trkpt lat="45.66103465737125" lon="9.323016376035907"><ele>261.5</ele><time>2026-03-16T15:26:41Z</time></trkpt><trkpt lat="45.66098167309132" lon="9.323098873033846"><ele>261.66666666666663</ele><time>2026-03-16T15:26:43Z</time></trkpt><trkpt lat="45.6609178551077" lon="9.323167652396746"><ele>261.8333333333333</ele><time>2026-03-16T15:26:44Z</time></trkpt><trkpt lat="45.66084997839005" lon="9.323283108004897"><ele>262.0</ele><time>2026-03-16T15:26:45Z</time></trkpt><trkpt lat="45.660764584729655" lon="9.323439151822592"><ele>262.0</ele><time>2026-03-16T15:26:46Z</time></trkpt><trkpt lat="45.66068095762968" lon="9.323574670922387"><ele>262.0</ele><time>2026-03-16T15:26:47Z</time></trkpt><trkpt lat="45.66060126734139" lon="9.32369489584244"><ele>262.0</ele><time>2026-03-16T15:26:48Z</time></trkpt><trkpt lat="45.66052720776687" lon="9.323823310427604"><ele>262.0</ele><time>2026-03-16T15:26:49Z</time></trkpt><trkpt lat="45.660446025565044" lon="9.323958802093113"><ele>261.4</ele><time>2026-03-16T15:26:50Z</time></trkpt><trkpt lat="45.66037571479569" lon="9.324093600012345"><ele>260.79999999999995</ele><time>2026-03-16T15:26:51Z</time></trkpt><trkpt lat="45.66031543465027" lon="9.324249920949404"><ele>260.2</ele><time>2026-03-16T15:26:52Z</time></trkpt><trkpt lat="45.66026632969762" lon="9.324339724721492"><ele>259.59999999999997</ele><time>2026-03-16T15:26:53Z</time></trkpt><trkpt lat="45.66016119583634" lon="9.324412294356591"><ele>259.0</ele><time>2026-03-16T15:26:55Z</time></trkpt><trkpt lat="45.660216638652116" lon="9.324460875493934"><ele>260.2</ele><time>2026-03-16T15:26:59Z</time></trkpt><trkpt lat="45.66013230175434" lon="9.324448323867099"><ele>261.4</ele><time>2026-03-16T15:27:29Z</time></trkpt><trkpt lat="45.6599492117951" lon="9.324394304605795"><ele>262.6</ele><time>2026-03-16T15:29:45.999Z</time></trkpt><trkpt lat="45.659858961471635" lon="9.324323150960494"><ele>263.8</ele><time>2026-03-16T15:29:47.999Z</time></trkpt><trkpt lat="45.659799271819665" lon="9.324273564066687"><ele>265.0</ele><time>2026-03-16T15:29:48.999Z</time></trkpt><trkpt lat="45.65970299282359" lon="9.324219216664915"><ele>265.0</ele><time>2026-03-16T15:29:50.999Z</time></trkpt><trkpt lat="45.65962408917015" lon="9.324195950854344"><ele>265.0</ele><time>2026-03-16T15:29:51.999Z</time></trkpt><trkpt lat="45.65956018813861" lon="9.324182668871567"><ele>265.0</ele><time>2026-03-16T15:29:52.999Z</time></trkpt><trkpt lat="45.65948850642728" lon="9.324193197575864"><ele>265.0</ele><time>2026-03-16T15:29:53.999Z</time></trkpt><trkpt lat="45.6594172122498" lon="9.324166567812856"><ele>265.0</ele><time>2026-03-16T15:29:54.999Z</time></trkpt><trkpt lat="45.659293742325495" lon="9.324264068260378"><ele>265.0</ele><time>2026-03-16T15:29:56.999Z</time></trkpt><trkpt lat="45.65922624767636" lon="9.324299604391403"><ele>265.6</ele><time>2026-03-16T15:29:57.999Z</time></trkpt><trkpt lat="45.65912348860389" lon="9.324380082334256"><ele>266.2</ele><time>2026-03-16T15:29:59.999Z</time></trkpt><trkpt lat="45.65903549361426" lon="9.324404959634311"><ele>266.8</ele><time>2026-03-16T15:30:02Z</time></trkpt><trkpt lat="45.658952611089106" lon="9.324430944076813"><ele>267.4</ele><time>2026-03-16T15:30:04Z</time></trkpt><trkpt lat="45.658857140178945" lon="9.324492826353854"><ele>268.0</ele><time>2026-03-16T15:30:05Z</time></trkpt><trkpt lat="45.65876843640499" lon="9.324504111157932"><ele>268.0</ele><time>2026-03-16T15:30:08Z</time></trkpt><trkpt lat="45.65869643247334" lon="9.32456638967321"><ele>268.0</ele><time>2026-03-16T15:30:10Z</time></trkpt><trkpt lat="45.65864190987406" lon="9.324636812593756"><ele>268.0</ele><time>2026-03-16T15:30:11Z</time></trkpt><trkpt lat="45.658630924279215" lon="9.324747797697452"><ele>268.0</ele><time>2026-03-16T15:30:16Z</time></trkpt><trkpt lat="45.65866911277363" lon="9.32483888700743"><ele>268.0</ele><time>2026-03-16T15:30:18Z</time></trkpt><trkpt lat="45.6587071341572" lon="9.32495433044592"><ele>268.0</ele><time>2026-03-16T15:30:20Z</time></trkpt><trkpt lat="45.65873641742615" lon="9.325062728170495"><ele>268.0</ele><time>2026-03-16T15:30:22Z</time></trkpt><trkpt lat="45.658781607656024" lon="9.325178263509239"><ele>268.0</ele><time>2026-03-16T15:30:24Z</time></trkpt><trkpt lat="45.65882548929919" lon="9.325284400338143"><ele>268.0</ele><time>2026-03-16T15:30:26Z</time></trkpt><trkpt lat="45.65888024436013" lon="9.325433899862109"><ele>268.0</ele><time>2026-03-16T15:30:28Z</time></trkpt><trkpt lat="45.65891103369678" lon="9.32554294173002"><ele>268.0</ele><time>2026-03-16T15:30:29Z</time></trkpt><trkpt lat="45.658950360471856" lon="9.32563757839316"><ele>268.0</ele><time>2026-03-16T15:30:30Z</time></trkpt><trkpt lat="45.65898393328422" lon="9.32576567266517"><ele>268.0</ele><time>2026-03-16T15:30:32Z</time></trkpt><trkpt lat="45.65902155077672" lon="9.3258434664949"><ele>268.0</ele><time>2026-03-16T15:30:33Z</time></trkpt><trkpt lat="45.65908759015754" lon="9.325958874854718"><ele>268.0</ele><time>2026-03-16T15:30:35Z</time></trkpt><trkpt lat="45.659065212052674" lon="9.326062226272686"><ele>268.0</ele><time>2026-03-16T15:30:38Z</time></trkpt><trkpt lat="45.6590043961711" lon="9.326110539053042"><ele>268.0</ele><time>2026-03-16T15:30:39Z</time></trkpt><trkpt lat="45.65891695280395" lon="9.326162717875235"><ele>268.0</ele><time>2026-03-16T15:30:40Z</time></trkpt><trkpt lat="45.65883546410731" lon="9.32621830416742"><ele>268.0</ele><time>2026-03-16T15:30:41Z</time></trkpt><trkpt lat="45.65875853303348" lon="9.326314691517181"><ele>268.0</ele><time>2026-03-16T15:30:43Z</time></trkpt><trkpt lat="45.658665177065984" lon="9.32643075449764"><ele>268.0</ele><time>2026-03-16T15:30:45Z</time></trkpt><trkpt lat="45.65858395806538" lon="9.326542990447079"><ele>268.0</ele><time>2026-03-16T15:30:47Z</time></trkpt><trkpt lat="45.65849657207665" lon="9.326672347353755"><ele>266.8333333333333</ele><time>2026-03-16T15:30:49Z</time></trkpt><trkpt lat="45.65840864735435" lon="9.326748597017067"><ele>265.66666666666663</ele><time>2026-03-16T15:30:51Z</time></trkpt><trkpt lat="45.65830567445106" lon="9.32678995764847"><ele>264.5</ele><time>2026-03-16T15:30:53Z</time></trkpt><trkpt lat="45.658242992351184" lon="9.326804219624284"><ele>263.3333333333333</ele><time>2026-03-16T15:30:54Z</time></trkpt><trkpt lat="45.658177579680185" lon="9.326821650127537"><ele>262.1666666666667</ele><time>2026-03-16T15:30:55Z</time></trkpt><trkpt lat="45.65811415275603" lon="9.326832672437797"><ele>261.0</ele><time>2026-03-16T15:30:56Z</time></trkpt><trkpt lat="45.658012300710276" lon="9.326869936832676"><ele>261.0</ele><time>2026-03-16T15:30:58Z</time></trkpt><trkpt lat="45.65789890619825" lon="9.326930725671428"><ele>261.0</ele><time>2026-03-16T15:31:00Z</time></trkpt><trkpt lat="45.65784301800179" lon="9.326983487595989"><ele>261.0</ele><time>2026-03-16T15:31:01Z</time></trkpt><trkpt lat="45.657777465778246" lon="9.327039060216487"><ele>261.0</ele><time>2026-03-16T15:31:02Z</time></trkpt><trkpt lat="45.65766510701878" lon="9.327120669696697"><ele>261.0</ele><time>2026-03-16T15:31:04Z</time></trkpt><trkpt lat="45.657566322325366" lon="9.327220970356066"><ele>259.3333333333333</ele><time>2026-03-16T15:31:06Z</time></trkpt><trkpt lat="45.65750978178988" lon="9.327282847762177"><ele>257.6666666666667</ele><time>2026-03-16T15:31:07Z</time></trkpt><trkpt lat="45.657456221953204" lon="9.327346439211341"><ele>256.0</ele><time>2026-03-16T15:31:08Z</time></trkpt><trkpt lat="45.65738276824663" lon="9.327411166075045"><ele>254.33333333333334</ele><time>2026-03-16T15:31:09Z</time></trkpt><trkpt lat="45.65730742398103" lon="9.32745519311498"><ele>252.66666666666669</ele><time>2026-03-16T15:31:10Z</time></trkpt><trkpt lat="45.657242072676674" lon="9.327496160314764"><ele>251.0</ele><time>2026-03-16T15:31:11Z</time></trkpt><trkpt lat="45.65714245012887" lon="9.327551029693165"><ele>251.00000000000003</ele><time>2026-03-16T15:31:13Z</time></trkpt><trkpt lat="45.65704600876618" lon="9.327611746289893"><ele>251.0</ele><time>2026-03-16T15:31:15Z</time></trkpt><trkpt lat="45.656990124004956" lon="9.327669737465037"><ele>251.0</ele><time>2026-03-16T15:31:17Z</time></trkpt><trkpt lat="45.656948190954175" lon="9.327813063325683"><ele>251.0</ele><time>2026-03-16T15:31:19Z</time></trkpt><trkpt lat="45.65695121447297" lon="9.327911485006236"><ele>251.00000000000003</ele><time>2026-03-16T15:31:20Z</time></trkpt><trkpt lat="45.656973987088385" lon="9.328007415210026"><ele>251.0</ele><time>2026-03-16T15:31:21Z</time></trkpt><trkpt lat="45.657016089652345" lon="9.328125107842865"><ele>250.83333333333334</ele><time>2026-03-16T15:31:23Z</time></trkpt><trkpt lat="45.65707338377097" lon="9.328208687489566"><ele>250.66666666666669</ele><time>2026-03-16T15:31:24Z</time></trkpt><trkpt lat="45.65709444260555" lon="9.328295742483512"><ele>250.5</ele><time>2026-03-16T15:31:25Z</time></trkpt><trkpt lat="45.65711509703499" lon="9.328393214311408"><ele>250.33333333333331</ele><time>2026-03-16T15:31:26Z</time></trkpt><trkpt lat="45.65718031529677" lon="9.328539694743533"><ele>250.16666666666666</ele><time>2026-03-16T15:31:28Z</time></trkpt><trkpt lat="45.65721362858606" lon="9.32862537713662"><ele>250.0</ele><time>2026-03-16T15:31:29Z</time></trkpt><trkpt lat="45.65723132913243" lon="9.328735962699444"><ele>249.99999999999997</ele><time>2026-03-16T15:31:31Z</time></trkpt><trkpt lat="45.65726314416148" lon="9.328852654216206"><ele>250.0</ele><time>2026-03-16T15:31:35Z</time></trkpt><trkpt lat="45.65732261651669" lon="9.32891332032285"><ele>250.0</ele><time>2026-03-16T15:31:37Z</time></trkpt><trkpt lat="45.6573159946051" lon="9.329048601470454"><ele>250.0</ele><time>2026-03-16T15:31:38Z</time></trkpt><trkpt lat="45.65732518024635" lon="9.329151806178702"><ele>249.99999999999997</ele><time>2026-03-16T15:31:39Z</time></trkpt><trkpt lat="45.65733469403426" lon="9.329260632243775"><ele>250.0</ele><time>2026-03-16T15:31:40Z</time></trkpt><trkpt lat="45.657348458901" lon="9.329378344961032"><ele>250.0</ele><time>2026-03-16T15:31:41Z</time></trkpt><trkpt lat="45.657380786557034" lon="9.329581564082652"><ele>250.0</ele><time>2026-03-16T15:31:43Z</time></trkpt><trkpt lat="45.6573970014466" lon="9.329695052146263"><ele>250.0</ele><time>2026-03-16T15:31:44Z</time></trkpt><trkpt lat="45.65742411962241" lon="9.329845802655589"><ele>250.0</ele><time>2026-03-16T15:31:45Z</time></trkpt><trkpt lat="45.657443261137935" lon="9.329982610875302"><ele>250.0</ele><time>2026-03-16T15:31:46Z</time></trkpt><trkpt lat="45.65746307291818" lon="9.330122556216859"><ele>249.83333333333331</ele><time>2026-03-16T15:31:47Z</time></trkpt><trkpt lat="45.657479966214105" lon="9.330243628352422"><ele>249.66666666666666</ele><time>2026-03-16T15:31:48Z</time></trkpt><trkpt lat="45.65749525377747" lon="9.330355163018401"><ele>249.5</ele><time>2026-03-16T15:31:49Z</time></trkpt><trkpt lat="45.657507309363055" lon="9.330475419748167"><ele>249.33333333333331</ele><time>2026-03-16T15:31:50Z</time></trkpt><trkpt lat="45.65752111488487" lon="9.330596650856142"><ele>249.16666666666666</ele><time>2026-03-16T15:31:51Z</time></trkpt><trkpt lat="45.6575318267218" lon="9.330734577799314"><ele>249.0</ele><time>2026-03-16T15:31:52Z</time></trkpt><trkpt lat="45.657542454845846" lon="9.330875868428569"><ele>248.33333333333334</ele><time>2026-03-16T15:31:53Z</time></trkpt><trkpt lat="45.65755933020879" lon="9.330980414539749"><ele>247.66666666666669</ele><time>2026-03-16T15:31:54Z</time></trkpt><trkpt lat="45.65756456693313" lon="9.331081926585707"><ele>247.0</ele><time>2026-03-16T15:31:55Z</time></trkpt><trkpt lat="45.65758047446022" lon="9.331201399259488"><ele>246.33333333333334</ele><time>2026-03-16T15:31:56Z</time></trkpt><trkpt lat="45.657585678658386" lon="9.331356121921264"><ele>245.66666666666669</ele><time>2026-03-16T15:31:58Z</time></trkpt><trkpt lat="45.65751146412041" lon="9.33142424336064"><ele>245.0</ele><time>2026-03-16T15:32:00Z</time></trkpt><trkpt lat="45.657434467375644" lon="9.331453285043473"><ele>244.5</ele><time>2026-03-16T15:32:00.999Z</time></trkpt><trkpt lat="45.65734226176557" lon="9.331469062162693"><ele>244.0</ele><time>2026-03-16T15:32:01.999Z</time></trkpt><trkpt lat="45.657240196771674" lon="9.331488156869314"><ele>243.5</ele><time>2026-03-16T15:32:02.999Z</time></trkpt><trkpt lat="45.65711400720268" lon="9.331519110970042"><ele>243.0</ele><time>2026-03-16T15:32:03.999Z</time></trkpt><trkpt lat="45.65696889503525" lon="9.331549335562876"><ele>241.75</ele><time>2026-03-16T15:32:04.999Z</time></trkpt><trkpt lat="45.656822243358945" lon="9.331573559301065"><ele>240.5</ele><time>2026-03-16T15:32:05.999Z</time></trkpt><trkpt lat="45.65667501758079" lon="9.331609196613154"><ele>239.25</ele><time>2026-03-16T15:32:06.999Z</time></trkpt><trkpt lat="45.65654944703395" lon="9.331637807704032"><ele>238.0</ele><time>2026-03-16T15:32:08Z</time></trkpt><trkpt lat="45.656440502979514" lon="9.331658535083786"><ele>238.0</ele><time>2026-03-16T15:32:09Z</time></trkpt><trkpt lat="45.65632914464209" lon="9.331684340501088"><ele>238.0</ele><time>2026-03-16T15:32:10Z</time></trkpt><trkpt lat="45.65621731886369" lon="9.331710718987258"><ele>238.0</ele><time>2026-03-16T15:32:11Z</time></trkpt><trkpt lat="45.65609831153472" lon="9.331733531956239"><ele>238.0</ele><time>2026-03-16T15:32:12Z</time></trkpt><trkpt lat="45.655977888197036" lon="9.331767396739517"><ele>237.4</ele><time>2026-03-16T15:32:13Z</time></trkpt><trkpt lat="45.65588254589087" lon="9.331736674999508"><ele>236.8</ele><time>2026-03-16T15:32:14Z</time></trkpt><trkpt lat="45.65575684826265" lon="9.33176687762513"><ele>236.2</ele><time>2026-03-16T15:32:15Z</time></trkpt><trkpt lat="45.65565654995892" lon="9.331807501692731"><ele>235.6</ele><time>2026-03-16T15:32:16Z</time></trkpt><trkpt lat="45.65554843802599" lon="9.331806246252716"><ele>235.0</ele><time>2026-03-16T15:32:17Z</time></trkpt><trkpt lat="45.65545867782511" lon="9.331831446398052"><ele>235.0</ele><time>2026-03-16T15:32:18Z</time></trkpt><trkpt lat="45.65538037624773" lon="9.331834927227886"><ele>235.0</ele><time>2026-03-16T15:32:19Z</time></trkpt><trkpt lat="45.65527818114556" lon="9.331873756577846"><ele>235.0</ele><time>2026-03-16T15:32:21Z</time></trkpt><trkpt lat="45.6551546601292" lon="9.331904152487274"><ele>235.0</ele><time>2026-03-16T15:32:23Z</time></trkpt><trkpt lat="45.65506028988317" lon="9.331894698154699"><ele>235.0</ele><time>2026-03-16T15:32:25Z</time></trkpt><trkpt lat="45.65499447532636" lon="9.331912895901436"><ele>235.66666666666666</ele><time>2026-03-16T15:32:28Z</time></trkpt><trkpt lat="45.65490531255601" lon="9.331942332292865"><ele>236.33333333333331</ele><time>2026-03-16T15:32:31Z</time></trkpt><trkpt lat="45.65481231683159" lon="9.332022050731423"><ele>237.0</ele><time>2026-03-16T15:32:33Z</time></trkpt><trkpt lat="45.65475050891813" lon="9.332078458283139"><ele>237.66666666666669</ele><time>2026-03-16T15:32:35Z</time></trkpt><trkpt lat="45.65469715848349" lon="9.33215683477221"><ele>238.33333333333334</ele><time>2026-03-16T15:32:36Z</time></trkpt><trkpt lat="45.65462801100054" lon="9.332161951862565"><ele>239.0</ele><time>2026-03-16T15:32:37Z</time></trkpt><trkpt lat="45.65454515518155" lon="9.332200077831642"><ele>238.39999999999998</ele><time>2026-03-16T15:32:39Z</time></trkpt><trkpt lat="45.65444448886538" lon="9.33221561831568"><ele>237.79999999999998</ele><time>2026-03-16T15:32:41Z</time></trkpt><trkpt lat="45.654349183037056" lon="9.332268860251899"><ele>237.20000000000002</ele><time>2026-03-16T15:32:43Z</time></trkpt><trkpt lat="45.654264144148314" lon="9.332305598289583"><ele>236.60000000000002</ele><time>2026-03-16T15:32:45Z</time></trkpt><trkpt lat="45.65416706178573" lon="9.33233892058878"><ele>236.0</ele><time>2026-03-16T15:32:47Z</time></trkpt><trkpt lat="45.654092502059676" lon="9.332341626676095"><ele>236.0</ele><time>2026-03-16T15:32:48Z</time></trkpt><trkpt lat="45.65401807214675" lon="9.332385200434064"><ele>236.00000000000003</ele><time>2026-03-16T15:32:50Z</time></trkpt><trkpt lat="45.65392843658588" lon="9.332412522560512"><ele>236.00000000000003</ele><time>2026-03-16T15:32:52Z</time></trkpt><trkpt lat="45.65385045283157" lon="9.33243599278545"><ele>236.0</ele><time>2026-03-16T15:32:54Z</time></trkpt><trkpt lat="45.65375200547359" lon="9.332468949069254"><ele>236.0</ele><time>2026-03-16T15:32:56Z</time></trkpt><trkpt lat="45.65365701467751" lon="9.332500694574318"><ele>235.20000000000002</ele><time>2026-03-16T15:32:58Z</time></trkpt><trkpt lat="45.65356339188987" lon="9.332528983590667"><ele>234.40000000000003</ele><time>2026-03-16T15:33:00Z</time></trkpt><trkpt lat="45.653464855359" lon="9.332553425856437"><ele>233.6</ele><time>2026-03-16T15:33:02Z</time></trkpt><trkpt lat="45.65336307148728" lon="9.332589083762148"><ele>232.8</ele><time>2026-03-16T15:33:04Z</time></trkpt><trkpt lat="45.65327509440087" lon="9.332614354113561"><ele>232.0</ele><time>2026-03-16T15:33:06Z</time></trkpt><trkpt lat="45.6531933940243" lon="9.332637791559657"><ele>231.99999999999997</ele><time>2026-03-16T15:33:08Z</time></trkpt><trkpt lat="45.65312201183214" lon="9.332664191229759"><ele>232.0</ele><time>2026-03-16T15:33:12Z</time></trkpt><trkpt lat="45.65304596509637" lon="9.332688395685762"><ele>232.0</ele><time>2026-03-16T15:33:15Z</time></trkpt><trkpt lat="45.65298344774874" lon="9.332705476141152"><ele>232.0</ele><time>2026-03-16T15:33:17Z</time></trkpt><trkpt lat="45.65289549727528" lon="9.332729260072405"><ele>231.99999999999997</ele><time>2026-03-16T15:33:20Z</time></trkpt><trkpt lat="45.652814513148485" lon="9.332739497363269"><ele>232.0</ele><time>2026-03-16T15:33:22Z</time></trkpt><trkpt lat="45.65274256576224" lon="9.332785898824334"><ele>231.8</ele><time>2026-03-16T15:33:23Z</time></trkpt><trkpt lat="45.65264918208554" lon="9.33279294422343"><ele>231.6</ele><time>2026-03-16T15:33:24Z</time></trkpt><trkpt lat="45.65253851866338" lon="9.332843937848823"><ele>231.40000000000003</ele><time>2026-03-16T15:33:26Z</time></trkpt><trkpt lat="45.65244832778104" lon="9.332865070713748"><ele>231.20000000000002</ele><time>2026-03-16T15:33:27Z</time></trkpt><trkpt lat="45.65236494223676" lon="9.332882435677625"><ele>231.0</ele><time>2026-03-16T15:33:28Z</time></trkpt><trkpt lat="45.65229043869682" lon="9.332904067589492"><ele>231.0</ele><time>2026-03-16T15:33:29Z</time></trkpt><trkpt lat="45.652204807640196" lon="9.332940628937951"><ele>231.00000000000003</ele><time>2026-03-16T15:33:30Z</time></trkpt><trkpt lat="45.65210860774015" lon="9.332985100445043"><ele>231.00000000000003</ele><time>2026-03-16T15:33:31Z</time></trkpt><trkpt lat="45.65201300843873" lon="9.333013301558221"><ele>231.0</ele><time>2026-03-16T15:33:32Z</time></trkpt><trkpt lat="45.65191615374803" lon="9.333039040115349"><ele>231.0</ele><time>2026-03-16T15:33:33Z</time></trkpt><trkpt lat="45.65180507376833" lon="9.33306982861577"><ele>230.60000000000002</ele><time>2026-03-16T15:33:34Z</time></trkpt><trkpt lat="45.65170353471254" lon="9.333097158567732"><ele>230.20000000000002</ele><time>2026-03-16T15:33:35Z</time></trkpt><trkpt lat="45.65162917207764" lon="9.333082249724853"><ele>229.79999999999998</ele><time>2026-03-16T15:33:37Z</time></trkpt><trkpt lat="45.65151470398612" lon="9.33305734292104"><ele>229.39999999999998</ele><time>2026-03-16T15:33:39Z</time></trkpt><trkpt lat="45.651427796533945" lon="9.33304691387845"><ele>229.0</ele><time>2026-03-16T15:33:40Z</time></trkpt><trkpt lat="45.65132491243698" lon="9.333196313359856"><ele>228.79999999999998</ele><time>2026-03-16T15:33:41Z</time></trkpt><trkpt lat="45.65123268653228" lon="9.33323129876447"><ele>228.59999999999997</ele><time>2026-03-16T15:33:42Z</time></trkpt><trkpt lat="45.65113659456516" lon="9.333264045123924"><ele>228.4</ele><time>2026-03-16T15:33:43Z</time></trkpt><trkpt lat="45.651030731025166" lon="9.33330034537941"><ele>228.2</ele><time>2026-03-16T15:33:44Z</time></trkpt><trkpt lat="45.650938143160005" lon="9.333318859513472"><ele>228.0</ele><time>2026-03-16T15:33:45Z</time></trkpt><trkpt lat="45.650835189913586" lon="9.33335131651925"><ele>228.0</ele><time>2026-03-16T15:33:46Z</time></trkpt><trkpt lat="45.6507548040063" lon="9.333371269582248"><ele>228.0</ele><time>2026-03-16T15:33:47Z</time></trkpt><trkpt lat="45.6506772929551" lon="9.333398733419058"><ele>228.0</ele><time>2026-03-16T15:33:48Z</time></trkpt><trkpt lat="45.65061047932873" lon="9.333416010104647"><ele>228.0</ele><time>2026-03-16T15:33:49Z</time></trkpt><trkpt lat="45.65051130512035" lon="9.333448050029892"><ele>228.0</ele><time>2026-03-16T15:33:51Z</time></trkpt><trkpt lat="45.650447591604404" lon="9.333463270934356"><ele>228.0</ele><time>2026-03-16T15:33:53Z</time></trkpt><trkpt lat="45.65038339573637" lon="9.333443711722998"><ele>228.0</ele><time>2026-03-16T15:33:55Z</time></trkpt><trkpt lat="45.65037178891923" lon="9.333298309537934"><ele>228.0</ele><time>2026-03-16T15:33:58Z</time></trkpt><trkpt lat="45.650374134959144" lon="9.3331244247097"><ele>228.0</ele><time>2026-03-16T15:34:00Z</time></trkpt><trkpt lat="45.65036146597115" lon="9.333007971222873"><ele>228.0</ele><time>2026-03-16T15:34:01Z</time></trkpt><trkpt lat="45.65036528049207" lon="9.332879695800788"><ele>228.0</ele><time>2026-03-16T15:34:02Z</time></trkpt><trkpt lat="45.65036316525118" lon="9.332762021862619"><ele>228.0</ele><time>2026-03-16T15:34:03Z</time></trkpt><trkpt lat="45.65035091611351" lon="9.332643407191119"><ele>228.0</ele><time>2026-03-16T15:34:04Z</time></trkpt><trkpt lat="45.650357417232364" lon="9.332507581567517"><ele>228.0</ele><time>2026-03-16T15:34:05Z</time></trkpt><trkpt lat="45.65035879266216" lon="9.332351617335169"><ele>228.0</ele><time>2026-03-16T15:34:06Z</time></trkpt><trkpt lat="45.650360876528715" lon="9.332214195980137"><ele>228.0</ele><time>2026-03-16T15:34:07Z</time></trkpt><trkpt lat="45.65035888657215" lon="9.332073350365526"><ele>228.2</ele><time>2026-03-16T15:34:08Z</time></trkpt><trkpt lat="45.650342340382466" lon="9.33191379753962"><ele>228.4</ele><time>2026-03-16T15:34:09Z</time></trkpt><trkpt lat="45.65034980601615" lon="9.331770074989727"><ele>228.59999999999997</ele><time>2026-03-16T15:34:10.999Z</time></trkpt><trkpt lat="45.650345066262595" lon="9.331670593417702"><ele>228.79999999999998</ele><time>2026-03-16T15:34:11.999Z</time></trkpt><trkpt lat="45.65035550905326" lon="9.331472636916523"><ele>229.0</ele><time>2026-03-16T15:34:14Z</time></trkpt><trkpt lat="45.650356674704845" lon="9.331337299322852"><ele>229.39999999999998</ele><time>2026-03-16T15:34:15Z</time></trkpt><trkpt lat="45.65037251068394" lon="9.331216688854807"><ele>229.79999999999998</ele><time>2026-03-16T15:34:17Z</time></trkpt><trkpt lat="45.650292761175066" lon="9.331139414612375"><ele>230.20000000000002</ele><time>2026-03-16T15:34:19Z</time></trkpt><trkpt lat="45.650165139820814" lon="9.331168674750737"><ele>230.60000000000002</ele><time>2026-03-16T15:34:21Z</time></trkpt><trkpt lat="45.6500812351243" lon="9.331206660832736"><ele>231.0</ele><time>2026-03-16T15:34:22Z</time></trkpt><trkpt lat="45.64998559893018" lon="9.331240493078504"><ele>231.0</ele><time>2026-03-16T15:34:23Z</time></trkpt><trkpt lat="45.649856850477896" lon="9.331273168967128"><ele>231.0</ele><time>2026-03-16T15:34:24Z</time></trkpt><trkpt lat="45.64972306042543" lon="9.331317048555423"><ele>231.0</ele><time>2026-03-16T15:34:25Z</time></trkpt><trkpt lat="45.64962787571426" lon="9.331345863009547"><ele>231.0</ele><time>2026-03-16T15:34:26Z</time></trkpt><trkpt lat="45.64951611832773" lon="9.33137585813436"><ele>230.33333333333334</ele><time>2026-03-16T15:34:27Z</time></trkpt><trkpt lat="45.64941313620308" lon="9.331409063236741"><ele>229.66666666666669</ele><time>2026-03-16T15:34:28Z</time></trkpt><trkpt lat="45.64934412445893" lon="9.33143121238688"><ele>229.0</ele><time>2026-03-16T15:34:29Z</time></trkpt><trkpt lat="45.64928168093353" lon="9.33146823256713"><ele>228.33333333333334</ele><time>2026-03-16T15:34:30Z</time></trkpt><trkpt lat="45.649212822432126" lon="9.331526134271304"><ele>227.66666666666669</ele><time>2026-03-16T15:34:31Z</time></trkpt><trkpt lat="45.649140766403264" lon="9.331582672803481"><ele>227.0</ele><time>2026-03-16T15:34:32Z</time></trkpt><trkpt lat="45.649059866971484" lon="9.33163534470824"><ele>227.00000000000003</ele><time>2026-03-16T15:34:33Z</time></trkpt><trkpt lat="45.64898827638731" lon="9.331683164990714"><ele>227.0</ele><time>2026-03-16T15:34:34Z</time></trkpt><trkpt lat="45.648918228091446" lon="9.331731549583864"><ele>227.0</ele><time>2026-03-16T15:34:35Z</time></trkpt><trkpt lat="45.648856285557805" lon="9.331771419439107"><ele>227.0</ele><time>2026-03-16T15:34:36Z</time></trkpt><trkpt lat="45.64879210594279" lon="9.331861212974683"><ele>227.00000000000003</ele><time>2026-03-16T15:34:38Z</time></trkpt><trkpt lat="45.64872332062764" lon="9.331844527608641"><ele>227.0</ele><time>2026-03-16T15:34:41Z</time></trkpt><trkpt lat="45.648659155576155" lon="9.331878947874142"><ele>226.6</ele><time>2026-03-16T15:34:49Z</time></trkpt><trkpt lat="45.64856768937301" lon="9.331940301239804"><ele>226.2</ele><time>2026-03-16T15:34:53Z</time></trkpt><trkpt lat="45.64851323009459" lon="9.332000660293717"><ele>225.8</ele><time>2026-03-16T15:34:54Z</time></trkpt><trkpt lat="45.6484820744962" lon="9.332123853068012"><ele>225.4</ele><time>2026-03-16T15:34:55Z</time></trkpt><trkpt lat="45.648363860448356" lon="9.332150677769066"><ele>225.0</ele><time>2026-03-16T15:34:56Z</time></trkpt><trkpt lat="45.64824721637278" lon="9.332194756972608"><ele>225.0</ele><time>2026-03-16T15:34:58Z</time></trkpt><trkpt lat="45.648178981647916" lon="9.332213551429083"><ele>225.0</ele><time>2026-03-16T15:34:59Z</time></trkpt><trkpt lat="45.64809507564176" lon="9.332253677018858"><ele>225.0</ele><time>2026-03-16T15:35:00Z</time></trkpt><trkpt lat="45.64800824852595" lon="9.332327274537718"><ele>225.0</ele><time>2026-03-16T15:35:01Z</time></trkpt><trkpt lat="45.64792946831321" lon="9.332384162640162"><ele>225.0</ele><time>2026-03-16T15:35:02Z</time></trkpt><trkpt lat="45.64783178809327" lon="9.332456976483261"><ele>225.0</ele><time>2026-03-16T15:35:03Z</time></trkpt><trkpt lat="45.64776089779424" lon="9.332502351587106"><ele>225.0</ele><time>2026-03-16T15:35:04Z</time></trkpt><trkpt lat="45.6476971865781" lon="9.33254079451498"><ele>225.0</ele><time>2026-03-16T15:35:05Z</time></trkpt><trkpt lat="45.64761495933092" lon="9.332595340006494"><ele>225.0</ele><time>2026-03-16T15:35:06Z</time></trkpt><trkpt lat="45.64752332305379" lon="9.332654364263604"><ele>225.0</ele><time>2026-03-16T15:35:07Z</time></trkpt><trkpt lat="45.647394004495254" lon="9.332733935748532"><ele>225.0</ele><time>2026-03-16T15:35:08Z</time></trkpt><trkpt lat="45.64728718049202" lon="9.332792188522356"><ele>225.0</ele><time>2026-03-16T15:35:09Z</time></trkpt><trkpt lat="45.647198579535996" lon="9.332840393347201"><ele>225.0</ele><time>2026-03-16T15:35:10Z</time></trkpt><trkpt lat="45.64710440581533" lon="9.332890352138131"><ele>225.0</ele><time>2026-03-16T15:35:11Z</time></trkpt><trkpt lat="45.64703274801036" lon="9.332943906185612"><ele>225.0</ele><time>2026-03-16T15:35:12Z</time></trkpt><trkpt lat="45.64696043873073" lon="9.33300991175334"><ele>225.00000000000003</ele><time>2026-03-16T15:35:13Z</time></trkpt><trkpt lat="45.646902186020014" lon="9.333048935043413"><ele>225.0</ele><time>2026-03-16T15:35:14Z</time></trkpt><trkpt lat="45.64683738715814" lon="9.333099304095544"><ele>225.00000000000003</ele><time>2026-03-16T15:35:15Z</time></trkpt><trkpt lat="45.64676753652431" lon="9.333112134395924"><ele>225.00000000000003</ele><time>2026-03-16T15:35:16Z</time></trkpt><trkpt lat="45.64668359838387" lon="9.333145438239223"><ele>225.0</ele><time>2026-03-16T15:35:17Z</time></trkpt><trkpt lat="45.646624982881384" lon="9.33320202286215"><ele>225.00000000000003</ele><time>2026-03-16T15:35:18Z</time></trkpt><trkpt lat="45.64656047773873" lon="9.333218680863716"><ele>225.00000000000003</ele><time>2026-03-16T15:35:19Z</time></trkpt><trkpt lat="45.64648178711034" lon="9.33322867325486"><ele>225.0</ele><time>2026-03-16T15:35:20Z</time></trkpt><trkpt lat="45.64640236344498" lon="9.333259574825027"><ele>225.0</ele><time>2026-03-16T15:35:21Z</time></trkpt><trkpt lat="45.64632931804035" lon="9.333303997666155"><ele>225.0</ele><time>2026-03-16T15:35:23Z</time></trkpt><trkpt lat="45.64626533603533" lon="9.333317665807083"><ele>225.0</ele><time>2026-03-16T15:35:26Z</time></trkpt><trkpt lat="45.64616590542142" lon="9.333353503975772"><ele>225.0</ele><time>2026-03-16T15:35:28Z</time></trkpt><trkpt lat="45.64608842441155" lon="9.3333798834211"><ele>225.0</ele><time>2026-03-16T15:35:29Z</time></trkpt><trkpt lat="45.64600756250655" lon="9.333409720335895"><ele>225.0</ele><time>2026-03-16T15:35:30Z</time></trkpt><trkpt lat="45.64590570279028" lon="9.333438721602263"><ele>225.0</ele><time>2026-03-16T15:35:31Z</time></trkpt><trkpt lat="45.64582342129797" lon="9.333476612983356"><ele>225.0</ele><time>2026-03-16T15:35:32Z</time></trkpt><trkpt lat="45.64575340211543" lon="9.333500040302601"><ele>225.0</ele><time>2026-03-16T15:35:33Z</time></trkpt><trkpt lat="45.645683616169286" lon="9.3335022884759"><ele>225.0</ele><time>2026-03-16T15:35:34Z</time></trkpt><trkpt lat="45.64558174416801" lon="9.333515614166213"><ele>225.0</ele><time>2026-03-16T15:35:36Z</time></trkpt><trkpt lat="45.645491442875176" lon="9.333452969060303"><ele>225.0</ele><time>2026-03-16T15:35:38Z</time></trkpt><trkpt lat="45.64537956232351" lon="9.333390913890216"><ele>225.0</ele><time>2026-03-16T15:35:40Z</time></trkpt><trkpt lat="45.645299260795" lon="9.333320580337379"><ele>225.0</ele><time>2026-03-16T15:35:42Z</time></trkpt><trkpt lat="45.64522399626265" lon="9.33327761573439"><ele>225.0</ele><time>2026-03-16T15:35:44Z</time></trkpt><trkpt lat="45.64513045384113" lon="9.333264327512117"><ele>225.0</ele><time>2026-03-16T15:35:46Z</time></trkpt><trkpt lat="45.64505250750088" lon="9.333319257438204"><ele>225.0</ele><time>2026-03-16T15:35:48Z</time></trkpt><trkpt lat="45.64501015619374" lon="9.333439748814572"><ele>225.0</ele><time>2026-03-16T15:35:50Z</time></trkpt><trkpt lat="45.64494204813093" lon="9.333550589894767"><ele>225.0</ele><time>2026-03-16T15:35:52Z</time></trkpt><trkpt lat="45.644896394524736" lon="9.333630152897701"><ele>225.0</ele><time>2026-03-16T15:35:54Z</time></trkpt><trkpt lat="45.64464513271278" lon="9.333386894582823"><ele>225.0</ele><time>2026-03-16T15:35:56Z</time></trkpt><trkpt lat="45.64457988007374" lon="9.333336603736111"><ele>225.0</ele><time>2026-03-16T15:35:57Z</time></trkpt><trkpt lat="45.64450355521893" lon="9.33329085097487"><ele>225.0</ele><time>2026-03-16T15:35:58Z</time></trkpt><trkpt lat="45.644422007284646" lon="9.333242300813177"><ele>225.0</ele><time>2026-03-16T15:35:59Z</time></trkpt><trkpt lat="45.64433233576436" lon="9.333184470653155"><ele>225.0</ele><time>2026-03-16T15:36:01Z</time></trkpt><trkpt lat="45.64426545250915" lon="9.333117282084835"><ele>225.0</ele><time>2026-03-16T15:36:03Z</time></trkpt><trkpt lat="45.64419589976676" lon="9.333069350660473"><ele>224.71428571428575</ele><time>2026-03-16T15:36:05Z</time></trkpt><trkpt lat="45.64412836589455" lon="9.333022103404463"><ele>224.42857142857144</ele><time>2026-03-16T15:36:08Z</time></trkpt><trkpt lat="45.64406064993543" lon="9.333013663015942"><ele>224.14285714285717</ele><time>2026-03-16T15:36:11Z</time></trkpt><trkpt lat="45.64398924651708" lon="9.333029256964531"><ele>223.8571428571429</ele><time>2026-03-16T15:36:14Z</time></trkpt><trkpt lat="45.643923013412895" lon="9.333016513514298"><ele>223.57142857142856</ele><time>2026-03-16T15:36:16Z</time></trkpt><trkpt lat="45.643854440049346" lon="9.33302637937965"><ele>223.28571428571428</ele><time>2026-03-16T15:36:19Z</time></trkpt><trkpt lat="45.64378952794211" lon="9.332987717603872"><ele>223.0</ele><time>2026-03-16T15:36:23Z</time></trkpt><trkpt lat="45.643848642925455" lon="9.33302310270552"><ele>222.99999999999997</ele><time>2026-03-16T15:36:52Z</time></trkpt><trkpt lat="45.64392343476001" lon="9.33302722285325"><ele>223.0</ele><time>2026-03-16T15:36:55Z</time></trkpt><trkpt lat="45.64399292860462" lon="9.333027747123305"><ele>223.0</ele><time>2026-03-16T15:36:58Z</time></trkpt><trkpt lat="45.64408739563575" lon="9.333061220039854"><ele>223.0</ele><time>2026-03-16T15:37:01Z</time></trkpt><trkpt lat="45.64415381264864" lon="9.333087288709358"><ele>222.99999999999997</ele><time>2026-03-16T15:37:03Z</time></trkpt><trkpt lat="45.644279296366555" lon="9.333126305514062"><ele>223.0</ele><time>2026-03-16T15:37:05Z</time></trkpt><trkpt lat="45.64440109478753" lon="9.333205335797802"><ele>223.33333333333331</ele><time>2026-03-16T15:37:07Z</time></trkpt><trkpt lat="45.64447270967083" lon="9.333262424118356"><ele>223.66666666666666</ele><time>2026-03-16T15:37:08Z</time></trkpt><trkpt lat="45.64454732426203" lon="9.333309551823502"><ele>224.0</ele><time>2026-03-16T15:37:09Z</time></trkpt><trkpt lat="45.64462682493449" lon="9.333360222277635"><ele>224.33333333333331</ele><time>2026-03-16T15:37:10Z</time></trkpt><trkpt lat="45.64468853517194" lon="9.333396076375768"><ele>224.66666666666666</ele><time>2026-03-16T15:37:11Z</time></trkpt><trkpt lat="45.64475047477685" lon="9.333428232234212"><ele>225.0</ele><time>2026-03-16T15:37:12Z</time></trkpt><trkpt lat="45.644834602684895" lon="9.333467320455807"><ele>225.0</ele><time>2026-03-16T15:37:14Z</time></trkpt><trkpt lat="45.644936249152224" lon="9.33339329476257"><ele>225.0</ele><time>2026-03-16T15:37:16Z</time></trkpt><trkpt lat="45.64501934487796" lon="9.33325557287347"><ele>225.0</ele><time>2026-03-16T15:37:18Z</time></trkpt><trkpt lat="45.6451329410619" lon="9.333342762447892"><ele>225.0</ele><time>2026-03-16T15:37:20Z</time></trkpt><trkpt lat="45.64505584676788" lon="9.333407459179277"><ele>225.0</ele><time>2026-03-16T15:37:26Z</time></trkpt><trkpt lat="45.644981677059604" lon="9.33355928699781"><ele>225.0</ele><time>2026-03-16T15:37:28Z</time></trkpt><trkpt lat="45.644927298726884" lon="9.333648966720641"><ele>225.0</ele><time>2026-03-16T15:37:29Z</time></trkpt><trkpt lat="45.64485639273011" lon="9.33373195393505"><ele>225.0</ele><time>2026-03-16T15:37:30Z</time></trkpt><trkpt lat="45.64482517233473" lon="9.333830373306125"><ele>225.0</ele><time>2026-03-16T15:37:31Z</time></trkpt><trkpt lat="45.64477366926002" lon="9.333892972463525"><ele>225.0</ele><time>2026-03-16T15:37:32Z</time></trkpt><trkpt lat="45.644734897673544" lon="9.333998022563438"><ele>225.0</ele><time>2026-03-16T15:37:33Z</time></trkpt><trkpt lat="45.64468441764773" lon="9.33408786220161"><ele>225.0</ele><time>2026-03-16T15:37:34Z</time></trkpt><trkpt lat="45.64460357584517" lon="9.334134009683458"><ele>225.0</ele><time>2026-03-16T15:37:35Z</time></trkpt><trkpt lat="45.6445463620868" lon="9.334245010003546"><ele>225.0</ele><time>2026-03-16T15:37:36Z</time></trkpt><trkpt lat="45.6444934081962" lon="9.33436118044275"><ele>225.0</ele><time>2026-03-16T15:37:37Z</time></trkpt><trkpt lat="45.64443495987611" lon="9.334455966829948"><ele>225.0</ele><time>2026-03-16T15:37:38Z</time></trkpt><trkpt lat="45.64439249511374" lon="9.33453287781653"><ele>224.4</ele><time>2026-03-16T15:37:39Z</time></trkpt><trkpt lat="45.64434272773573" lon="9.334613691291633"><ele>223.8</ele><time>2026-03-16T15:37:40Z</time></trkpt><trkpt lat="45.644274791195755" lon="9.334731424197287"><ele>223.2</ele><time>2026-03-16T15:37:41Z</time></trkpt><trkpt lat="45.64419245678467" lon="9.33486114265134"><ele>222.6</ele><time>2026-03-16T15:37:42Z</time></trkpt><trkpt lat="45.64410301165168" lon="9.335005015651298"><ele>222.0</ele><time>2026-03-16T15:37:43Z</time></trkpt><trkpt lat="45.64402378032754" lon="9.335124994075443"><ele>222.0</ele><time>2026-03-16T15:37:44Z</time></trkpt><trkpt lat="45.64393869022576" lon="9.335261488740239"><ele>222.0</ele><time>2026-03-16T15:37:45Z</time></trkpt><trkpt lat="45.64385040723456" lon="9.335399084065292"><ele>222.0</ele><time>2026-03-16T15:37:46Z</time></trkpt><trkpt lat="45.6437510714363" lon="9.335550660949002"><ele>222.0</ele><time>2026-03-16T15:37:47Z</time></trkpt><trkpt lat="45.64365680310632" lon="9.335694922394564"><ele>222.0</ele><time>2026-03-16T15:37:48Z</time></trkpt><trkpt lat="45.64360041764155" lon="9.33576885550326"><ele>222.0</ele><time>2026-03-16T15:37:49Z</time></trkpt><trkpt lat="45.64352059740547" lon="9.335893067496437"><ele>222.0</ele><time>2026-03-16T15:37:51Z</time></trkpt><trkpt lat="45.643467154125204" lon="9.335974938379206"><ele>222.0</ele><time>2026-03-16T15:37:52Z</time></trkpt><trkpt lat="45.6434041485174" lon="9.336072625069065"><ele>222.0</ele><time>2026-03-16T15:37:53Z</time></trkpt><trkpt lat="45.6433572605305" lon="9.336140335841657"><ele>222.0</ele><time>2026-03-16T15:37:54Z</time></trkpt><trkpt lat="45.64328962703362" lon="9.33620208540857"><ele>222.0</ele><time>2026-03-16T15:37:55Z</time></trkpt><trkpt lat="45.643241706447675" lon="9.336267447684252"><ele>222.0</ele><time>2026-03-16T15:37:56Z</time></trkpt><trkpt lat="45.64316417547274" lon="9.336371776888765"><ele>222.0</ele><time>2026-03-16T15:37:58Z</time></trkpt><trkpt lat="45.643085605441534" lon="9.336480007660182"><ele>222.0</ele><time>2026-03-16T15:38:01Z</time></trkpt><trkpt lat="45.64300151530042" lon="9.336477255743311"><ele>222.0</ele><time>2026-03-16T15:38:01.999Z</time></trkpt><trkpt lat="45.64290189676306" lon="9.336457417057018"><ele>220.2</ele><time>2026-03-16T15:38:02.999Z</time></trkpt><trkpt lat="45.64278524994186" lon="9.336437353314048"><ele>218.39999999999998</ele><time>2026-03-16T15:38:03.999Z</time></trkpt><trkpt lat="45.64265592869781" lon="9.336422386749925"><ele>216.60000000000002</ele><time>2026-03-16T15:38:04.999Z</time></trkpt><trkpt lat="45.64255721502635" lon="9.336433607516044"><ele>214.8</ele><time>2026-03-16T15:38:05.999Z</time></trkpt><trkpt lat="45.64245479854607" lon="9.336429132202603"><ele>213.0</ele><time>2026-03-16T15:38:06.999Z</time></trkpt><trkpt lat="45.64235479071308" lon="9.336416681799133"><ele>213.0</ele><time>2026-03-16T15:38:07.999Z</time></trkpt><trkpt lat="45.64224880625994" lon="9.33641355812968"><ele>213.0</ele><time>2026-03-16T15:38:08.999Z</time></trkpt><trkpt lat="45.64214614085838" lon="9.336410506743121"><ele>213.0</ele><time>2026-03-16T15:38:09.999Z</time></trkpt><trkpt lat="45.642061864825365" lon="9.336390672739604"><ele>213.0</ele><time>2026-03-16T15:38:10.999Z</time></trkpt><trkpt lat="45.64198171799106" lon="9.336395328630914"><ele>213.0</ele><time>2026-03-16T15:38:11.999Z</time></trkpt><trkpt lat="45.641904511321265" lon="9.336401895385082"><ele>211.4</ele><time>2026-03-16T15:38:12.999Z</time></trkpt><trkpt lat="45.64178039775729" lon="9.336501107485136"><ele>209.8</ele><time>2026-03-16T15:38:14.999Z</time></trkpt><trkpt lat="45.641707191507344" lon="9.336599649749257"><ele>208.2</ele><time>2026-03-16T15:38:15.999Z</time></trkpt><trkpt lat="45.64165362126185" lon="9.336676823311818"><ele>206.6</ele><time>2026-03-16T15:38:16.999Z</time></trkpt><trkpt lat="45.64158114226311" lon="9.33674630546668"><ele>205.0</ele><time>2026-03-16T15:38:18.999Z</time></trkpt><trkpt lat="45.641525693939904" lon="9.33681305444594"><ele>205.0</ele><time>2026-03-16T15:38:23.999Z</time></trkpt><trkpt lat="45.64142785028198" lon="9.336666979575593"><ele>205.0</ele><time>2026-03-16T15:38:24.999Z</time></trkpt><trkpt lat="45.64135030917314" lon="9.336558415845712"><ele>205.0</ele><time>2026-03-16T15:38:26Z</time></trkpt><trkpt lat="45.64127402577676" lon="9.336445964419347"><ele>205.0</ele><time>2026-03-16T15:38:27Z</time></trkpt><trkpt lat="45.641164413991625" lon="9.336313044178658"><ele>204.0</ele><time>2026-03-16T15:38:28Z</time></trkpt><trkpt lat="45.6410508479929" lon="9.336148520862569"><ele>203.0</ele><time>2026-03-16T15:38:29Z</time></trkpt><trkpt lat="45.64092761172892" lon="9.335986849643541"><ele>202.0</ele><time>2026-03-16T15:38:30Z</time></trkpt><trkpt lat="45.64081225107455" lon="9.335837524194472"><ele>202.0</ele><time>2026-03-16T15:38:31Z</time></trkpt><trkpt lat="45.64069419876526" lon="9.335689460789897"><ele>202.0</ele><time>2026-03-16T15:38:32Z</time></trkpt><trkpt lat="45.640578262249484" lon="9.335539782885393"><ele>202.0</ele><time>2026-03-16T15:38:33Z</time></trkpt><trkpt lat="45.640464007181315" lon="9.335393650277625"><ele>201.75</ele><time>2026-03-16T15:38:34Z</time></trkpt><trkpt lat="45.64034961280589" lon="9.335243765372542"><ele>201.5</ele><time>2026-03-16T15:38:35Z</time></trkpt><trkpt lat="45.64024298629448" lon="9.335102917550776"><ele>201.25</ele><time>2026-03-16T15:38:36Z</time></trkpt><trkpt lat="45.64013936459029" lon="9.334967636523453"><ele>201.0</ele><time>2026-03-16T15:38:37Z</time></trkpt><trkpt lat="45.640030935996634" lon="9.334832228997508"><ele>201.25</ele><time>2026-03-16T15:38:38Z</time></trkpt><trkpt lat="45.63993009603465" lon="9.334701367811988"><ele>201.5</ele><time>2026-03-16T15:38:39Z</time></trkpt><trkpt lat="45.63983709019396" lon="9.334579959021244"><ele>201.75</ele><time>2026-03-16T15:38:40Z</time></trkpt><trkpt lat="45.63974850286911" lon="9.334474482071851"><ele>202.0</ele><time>2026-03-16T15:38:41Z</time></trkpt><trkpt lat="45.63967463388565" lon="9.33437899724105"><ele>202.0</ele><time>2026-03-16T15:38:42Z</time></trkpt><trkpt lat="45.63959472003974" lon="9.334262976454468"><ele>202.0</ele><time>2026-03-16T15:38:43Z</time></trkpt><trkpt lat="45.63951866673513" lon="9.3341638287071"><ele>202.0</ele><time>2026-03-16T15:38:44Z</time></trkpt><trkpt lat="45.63945173836471" lon="9.334073457359386"><ele>202.0</ele><time>2026-03-16T15:38:45Z</time></trkpt><trkpt lat="45.63938150185692" lon="9.333987904146397"><ele>202.0</ele><time>2026-03-16T15:38:46Z</time></trkpt><trkpt lat="45.63930534680267" lon="9.33389249943771"><ele>202.5</ele><time>2026-03-16T15:38:47Z</time></trkpt><trkpt lat="45.6392254203791" lon="9.333799861736026"><ele>203.0</ele><time>2026-03-16T15:38:48Z</time></trkpt><trkpt lat="45.63914356143632" lon="9.33369898515681"><ele>203.5</ele><time>2026-03-16T15:38:49Z</time></trkpt><trkpt lat="45.63905262924723" lon="9.333586926188499"><ele>204.0</ele><time>2026-03-16T15:38:50Z</time></trkpt><trkpt lat="45.638961953467515" lon="9.333449196904052"><ele>204.0</ele><time>2026-03-16T15:38:51Z</time></trkpt><trkpt lat="45.63886391936521" lon="9.333341587211137"><ele>204.0</ele><time>2026-03-16T15:38:52Z</time></trkpt><trkpt lat="45.63880037519886" lon="9.333249426141283"><ele>204.0</ele><time>2026-03-16T15:38:53Z</time></trkpt><trkpt lat="45.63873999197547" lon="9.333188998660205"><ele>204.0</ele><time>2026-03-16T15:38:54Z</time></trkpt><trkpt lat="45.63869522513903" lon="9.333106523753404"><ele>204.0</ele><time>2026-03-16T15:38:55Z</time></trkpt><trkpt lat="45.638609462383094" lon="9.332989521603915"><ele>204.5</ele><time>2026-03-16T15:38:57Z</time></trkpt><trkpt lat="45.63866009697497" lon="9.332820547935414"><ele>205.0</ele><time>2026-03-16T15:39:02Z</time></trkpt><trkpt lat="45.638730490727816" lon="9.332722584152338"><ele>205.5</ele><time>2026-03-16T15:39:03Z</time></trkpt><trkpt lat="45.63882183360739" lon="9.332600077239015"><ele>206.0</ele><time>2026-03-16T15:39:04Z</time></trkpt><trkpt lat="45.63893643236914" lon="9.3324554009343"><ele>206.0</ele><time>2026-03-16T15:39:05Z</time></trkpt><trkpt lat="45.63905098179921" lon="9.332289768430254"><ele>206.0</ele><time>2026-03-16T15:39:06Z</time></trkpt><trkpt lat="45.63914127930198" lon="9.332147172452277"><ele>206.0</ele><time>2026-03-16T15:39:07Z</time></trkpt><trkpt lat="45.63916790695238" lon="9.332046332360843"><ele>206.0</ele><time>2026-03-16T15:39:09Z</time></trkpt><trkpt lat="45.63922837628478" lon="9.331906550881072"><ele>206.75</ele><time>2026-03-16T15:39:10Z</time></trkpt><trkpt lat="45.639256183709996" lon="9.331793865686501"><ele>207.5</ele><time>2026-03-16T15:39:11Z</time></trkpt><trkpt lat="45.63929576476747" lon="9.33167386972452"><ele>208.25</ele><time>2026-03-16T15:39:13Z</time></trkpt><trkpt lat="45.63909411878162" lon="9.33152496005661"><ele>209.0</ele><time>2026-03-16T15:39:17Z</time></trkpt><trkpt lat="45.6389903338289" lon="9.331463380944951"><ele>209.0</ele><time>2026-03-16T15:39:18Z</time></trkpt><trkpt lat="45.63884241669713" lon="9.331413373396225"><ele>209.0</ele><time>2026-03-16T15:39:19Z</time></trkpt><trkpt lat="45.63869055024436" lon="9.331308653123623"><ele>209.0</ele><time>2026-03-16T15:39:20Z</time></trkpt><trkpt lat="45.63851552605483" lon="9.331226454110226"><ele>208.33333333333334</ele><time>2026-03-16T15:39:21Z</time></trkpt><trkpt lat="45.63835910409724" lon="9.331137270589863"><ele>207.66666666666669</ele><time>2026-03-16T15:39:22Z</time></trkpt><trkpt lat="45.63820947749347" lon="9.331048500353711"><ele>207.0</ele><time>2026-03-16T15:39:23Z</time></trkpt><trkpt lat="45.63805572781089" lon="9.330962993844896"><ele>207.0</ele><time>2026-03-16T15:39:24Z</time></trkpt><trkpt lat="45.637906238116486" lon="9.330882133339566"><ele>207.0</ele><time>2026-03-16T15:39:25Z</time></trkpt><trkpt lat="45.63776183343027" lon="9.330800588267882"><ele>207.0</ele><time>2026-03-16T15:39:26Z</time></trkpt><trkpt lat="45.637614308340716" lon="9.330713198969981"><ele>206.66666666666669</ele><time>2026-03-16T15:39:27Z</time></trkpt><trkpt lat="45.63746751811247" lon="9.330627104323494"><ele>206.33333333333334</ele><time>2026-03-16T15:39:28Z</time></trkpt><trkpt lat="45.63732165708894" lon="9.33054211790009"><ele>206.0</ele><time>2026-03-16T15:39:29Z</time></trkpt><trkpt lat="45.63717249730165" lon="9.330455394760302"><ele>206.0</ele><time>2026-03-16T15:39:30Z</time></trkpt><trkpt lat="45.63702106197018" lon="9.33037276001335"><ele>206.0</ele><time>2026-03-16T15:39:31Z</time></trkpt><trkpt lat="45.636871968856624" lon="9.330288260290239"><ele>206.0</ele><time>2026-03-16T15:39:32Z</time></trkpt><trkpt lat="45.636723589073505" lon="9.3302079450874"><ele>204.0</ele><time>2026-03-16T15:39:33Z</time></trkpt><trkpt lat="45.636576111204704" lon="9.330121376047574"><ele>202.0</ele><time>2026-03-16T15:39:34Z</time></trkpt><trkpt lat="45.636432421977304" lon="9.330033378193233"><ele>200.0</ele><time>2026-03-16T15:39:35Z</time></trkpt><trkpt lat="45.6362838899584" lon="9.329962406415927"><ele>200.0</ele><time>2026-03-16T15:39:36Z</time></trkpt><trkpt lat="45.636147359422395" lon="9.329889404485419"><ele>200.0</ele><time>2026-03-16T15:39:37Z</time></trkpt><trkpt lat="45.63601398394613" lon="9.329812125376547"><ele>200.0</ele><time>2026-03-16T15:39:38Z</time></trkpt><trkpt lat="45.63589061947486" lon="9.329733348080604"><ele>200.0</ele><time>2026-03-16T15:39:39Z</time></trkpt><trkpt lat="45.635772640515015" lon="9.329665976411752"><ele>199.75</ele><time>2026-03-16T15:39:40Z</time></trkpt><trkpt lat="45.635653836482234" lon="9.329598664737864"><ele>199.5</ele><time>2026-03-16T15:39:41Z</time></trkpt><trkpt lat="45.635541598419316" lon="9.32953479798855"><ele>199.25</ele><time>2026-03-16T15:39:42Z</time></trkpt><trkpt lat="45.63543675746498" lon="9.329471774619964"><ele>199.0</ele><time>2026-03-16T15:39:43Z</time></trkpt><trkpt lat="45.63531776097077" lon="9.329403030349653"><ele>198.75</ele><time>2026-03-16T15:39:44Z</time></trkpt><trkpt lat="45.635186266235195" lon="9.329340558759036"><ele>198.5</ele><time>2026-03-16T15:39:45Z</time></trkpt><trkpt lat="45.63507202851373" lon="9.329271255554264"><ele>198.25</ele><time>2026-03-16T15:39:46Z</time></trkpt><trkpt lat="45.634965925199495" lon="9.329213225315138"><ele>198.0</ele><time>2026-03-16T15:39:47Z</time></trkpt><trkpt lat="45.63488402169324" lon="9.329166442920052"><ele>198.0</ele><time>2026-03-16T15:39:48Z</time></trkpt><trkpt lat="45.634808883347645" lon="9.329139808732096"><ele>198.0</ele><time>2026-03-16T15:39:49Z</time></trkpt><trkpt lat="45.63475829773067" lon="9.329058157953911"><ele>198.0</ele><time>2026-03-16T15:39:52Z</time></trkpt><trkpt lat="45.63477317201342" lon="9.328920699025737"><ele>198.0</ele><time>2026-03-16T15:39:54Z</time></trkpt><trkpt lat="45.634839819775" lon="9.328834203317761"><ele>198.0</ele><time>2026-03-16T15:39:55Z</time></trkpt><trkpt lat="45.63493014186883" lon="9.328710001773452"><ele>197.75</ele><time>2026-03-16T15:39:56Z</time></trkpt><trkpt lat="45.6350068935556" lon="9.328548471145064"><ele>197.5</ele><time>2026-03-16T15:39:57Z</time></trkpt><trkpt lat="45.63506400692201" lon="9.328393320844548"><ele>197.25</ele><time>2026-03-16T15:39:58Z</time></trkpt><trkpt lat="45.63510504071316" lon="9.328238866294756"><ele>197.0</ele><time>2026-03-16T15:39:59Z</time></trkpt><trkpt lat="45.6351484456069" lon="9.32805975486555"><ele>197.0</ele><time>2026-03-16T15:40:00Z</time></trkpt><trkpt lat="45.6351926093202" lon="9.32787031088004"><ele>197.0</ele><time>2026-03-16T15:40:01Z</time></trkpt><trkpt lat="45.63523685395627" lon="9.327661359051882"><ele>197.0</ele><time>2026-03-16T15:40:02Z</time></trkpt><trkpt lat="45.63528051811799" lon="9.327458824035112"><ele>197.0</ele><time>2026-03-16T15:40:03Z</time></trkpt><trkpt lat="45.635306628476854" lon="9.327240899816706"><ele>197.0</ele><time>2026-03-16T15:40:04Z</time></trkpt><trkpt lat="45.63531754060686" lon="9.327031408317389"><ele>197.0</ele><time>2026-03-16T15:40:05Z</time></trkpt><trkpt lat="45.6353130089549" lon="9.32680668499256"><ele>197.0</ele><time>2026-03-16T15:40:06Z</time></trkpt><trkpt lat="45.63529984924601" lon="9.326584143288818"><ele>197.25</ele><time>2026-03-16T15:40:07Z</time></trkpt><trkpt lat="45.63528744671541" lon="9.326372460931388"><ele>197.5</ele><time>2026-03-16T15:40:08Z</time></trkpt><trkpt lat="45.63527023682517" lon="9.326166999843327"><ele>197.75</ele><time>2026-03-16T15:40:09Z</time></trkpt><trkpt lat="45.63524484626122" lon="9.32598224725348"><ele>198.0</ele><time>2026-03-16T15:40:10Z</time></trkpt><trkpt lat="45.6352333215405" lon="9.325810060054453"><ele>198.0</ele><time>2026-03-16T15:40:11Z</time></trkpt><trkpt lat="45.63522383723725" lon="9.325661985535012"><ele>198.0</ele><time>2026-03-16T15:40:12Z</time></trkpt><trkpt lat="45.635210695889114" lon="9.325527831859604"><ele>198.0</ele><time>2026-03-16T15:40:13Z</time></trkpt><trkpt lat="45.63520901316153" lon="9.325415386255557"><ele>198.0</ele><time>2026-03-16T15:40:14Z</time></trkpt><trkpt lat="45.63520718511249" lon="9.325302338450575"><ele>198.0</ele><time>2026-03-16T15:40:15Z</time></trkpt><trkpt lat="45.63521489093746" lon="9.325203382475935"><ele>198.0</ele><time>2026-03-16T15:40:16Z</time></trkpt><trkpt lat="45.63523666544143" lon="9.325083023039772"><ele>198.16666666666666</ele><time>2026-03-16T15:40:18Z</time></trkpt><trkpt lat="45.63527226673754" lon="9.324969636898198"><ele>198.33333333333331</ele><time>2026-03-16T15:40:20.999Z</time></trkpt><trkpt lat="45.63531671043526" lon="9.324897784551052"><ele>198.5</ele><time>2026-03-16T15:40:22.999Z</time></trkpt><trkpt lat="45.635366223031376" lon="9.324737358482192"><ele>198.66666666666666</ele><time>2026-03-16T15:40:24.999Z</time></trkpt><trkpt lat="45.635382444335" lon="9.324628951402945"><ele>198.83333333333331</ele><time>2026-03-16T15:40:25.999Z</time></trkpt><trkpt lat="45.63541272527379" lon="9.324533926760015"><ele>199.0</ele><time>2026-03-16T15:40:26.999Z</time></trkpt><trkpt lat="45.6354562356655" lon="9.324417535864816"><ele>199.39999999999998</ele><time>2026-03-16T15:40:27.999Z</time></trkpt><trkpt lat="45.63549967618762" lon="9.324331053379925"><ele>199.8</ele><time>2026-03-16T15:40:28.999Z</time></trkpt><trkpt lat="45.63557025907176" lon="9.324189258686038"><ele>200.2</ele><time>2026-03-16T15:40:30.999Z</time></trkpt><trkpt lat="45.63560608138086" lon="9.324103568655318"><ele>200.60000000000002</ele><time>2026-03-16T15:40:32Z</time></trkpt><trkpt lat="45.63563039744776" lon="9.324010037385175"><ele>201.0</ele><time>2026-03-16T15:40:33Z</time></trkpt><trkpt lat="45.635695219845466" lon="9.32385697038305"><ele>201.60000000000002</ele><time>2026-03-16T15:40:35Z</time></trkpt><trkpt lat="45.635750319921414" lon="9.323779171407613"><ele>202.2</ele><time>2026-03-16T15:40:36Z</time></trkpt><trkpt lat="45.63583522033461" lon="9.323727125747194"><ele>202.8</ele><time>2026-03-16T15:40:37Z</time></trkpt><trkpt lat="45.63595864574082" lon="9.323735491929845"><ele>203.39999999999998</ele><time>2026-03-16T15:40:38Z</time></trkpt><trkpt lat="45.636103912057656" lon="9.32372872308092"><ele>204.0</ele><time>2026-03-16T15:40:39Z</time></trkpt><trkpt lat="45.636276922054485" lon="9.323713393138359"><ele>204.0</ele><time>2026-03-16T15:40:40Z</time></trkpt><trkpt lat="45.63646174269097" lon="9.323713599458138"><ele>204.0</ele><time>2026-03-16T15:40:41Z</time></trkpt><trkpt lat="45.63665365617171" lon="9.323703396472077"><ele>204.0</ele><time>2026-03-16T15:40:42Z</time></trkpt><trkpt lat="45.63686482583588" lon="9.323703346202922"><ele>203.0</ele><time>2026-03-16T15:40:43Z</time></trkpt><trkpt lat="45.63708707355839" lon="9.323718700153787"><ele>202.0</ele><time>2026-03-16T15:40:44Z</time></trkpt><trkpt lat="45.63730942006161" lon="9.323707622146003"><ele>201.0</ele><time>2026-03-16T15:40:45Z</time></trkpt><trkpt lat="45.63753452401904" lon="9.323687761268165"><ele>201.0</ele><time>2026-03-16T15:40:46Z</time></trkpt><trkpt lat="45.63772841175591" lon="9.323675416215984"><ele>201.0</ele><time>2026-03-16T15:40:47Z</time></trkpt><trkpt lat="45.63790896044685" lon="9.323669019984512"><ele>201.0</ele><time>2026-03-16T15:40:48Z</time></trkpt><trkpt lat="45.63806592802873" lon="9.323654248663681"><ele>201.5</ele><time>2026-03-16T15:40:49Z</time></trkpt><trkpt lat="45.638221158434945" lon="9.323645241522458"><ele>202.0</ele><time>2026-03-16T15:40:50Z</time></trkpt><trkpt lat="45.638350650776275" lon="9.323642973566777"><ele>202.5</ele><time>2026-03-16T15:40:51Z</time></trkpt><trkpt lat="45.638475387392724" lon="9.323636273598678"><ele>203.0</ele><time>2026-03-16T15:40:52Z</time></trkpt><trkpt lat="45.638599416813584" lon="9.323632684430224"><ele>203.60000000000002</ele><time>2026-03-16T15:40:53Z</time></trkpt><trkpt lat="45.638719207137136" lon="9.323634196862823"><ele>204.20000000000002</ele><time>2026-03-16T15:40:54Z</time></trkpt><trkpt lat="45.638828746055985" lon="9.323626255782507"><ele>204.8</ele><time>2026-03-16T15:40:55Z</time></trkpt><trkpt lat="45.638933382624295" lon="9.323601003700244"><ele>205.4</ele><time>2026-03-16T15:40:56Z</time></trkpt><trkpt lat="45.63902279045725" lon="9.323531679531623"><ele>206.0</ele><time>2026-03-16T15:40:57Z</time></trkpt><trkpt lat="45.63909005765597" lon="9.323403587648283"><ele>206.0</ele><time>2026-03-16T15:40:58Z</time></trkpt><trkpt lat="45.63914120115804" lon="9.32327956247278"><ele>206.0</ele><time>2026-03-16T15:40:59Z</time></trkpt><trkpt lat="45.63919920260202" lon="9.32313387093793"><ele>206.0</ele><time>2026-03-16T15:41:01Z</time></trkpt><trkpt lat="45.639252268145434" lon="9.323039881600884"><ele>206.0</ele><time>2026-03-16T15:41:02Z</time></trkpt><trkpt lat="45.63932091948421" lon="9.322934902948253"><ele>206.0</ele><time>2026-03-16T15:41:03Z</time></trkpt><trkpt lat="45.639416202798834" lon="9.322826770650797"><ele>206.75</ele><time>2026-03-16T15:41:04Z</time></trkpt><trkpt lat="45.639540639240266" lon="9.322744400141458"><ele>207.5</ele><time>2026-03-16T15:41:05Z</time></trkpt><trkpt lat="45.63967319963516" lon="9.322660371550807"><ele>208.25</ele><time>2026-03-16T15:41:06Z</time></trkpt><trkpt lat="45.639789603594664" lon="9.322602336808803"><ele>209.0</ele><time>2026-03-16T15:41:07Z</time></trkpt><trkpt lat="45.63990032293665" lon="9.322539531498048"><ele>209.0</ele><time>2026-03-16T15:41:08Z</time></trkpt><trkpt lat="45.63999848905481" lon="9.322505592055498"><ele>209.0</ele><time>2026-03-16T15:41:09Z</time></trkpt><trkpt lat="45.6401107353277" lon="9.322501585982236"><ele>209.0</ele><time>2026-03-16T15:41:10Z</time></trkpt><trkpt lat="45.64022503670045" lon="9.32251009604361"><ele>209.0</ele><time>2026-03-16T15:41:11Z</time></trkpt><trkpt lat="45.640329713533575" lon="9.322539203291672"><ele>209.0</ele><time>2026-03-16T15:41:12Z</time></trkpt><trkpt lat="45.64041291207708" lon="9.322552989558488"><ele>209.0</ele><time>2026-03-16T15:41:13Z</time></trkpt><trkpt lat="45.640492934430064" lon="9.322566607228298"><ele>209.0</ele><time>2026-03-16T15:41:14Z</time></trkpt><trkpt lat="45.640581150258015" lon="9.3225738148211"><ele>209.0</ele><time>2026-03-16T15:41:15Z</time></trkpt><trkpt lat="45.64068057939774" lon="9.322584433691818"><ele>209.0</ele><time>2026-03-16T15:41:16Z</time></trkpt><trkpt lat="45.64079821519817" lon="9.322602764893594"><ele>209.0</ele><time>2026-03-16T15:41:17Z</time></trkpt><trkpt lat="45.640932613410236" lon="9.322608262094363"><ele>209.0</ele><time>2026-03-16T15:41:18Z</time></trkpt><trkpt lat="45.641058756385945" lon="9.32263795337425"><ele>209.0</ele><time>2026-03-16T15:41:19Z</time></trkpt><trkpt lat="45.64116355014979" lon="9.322659054152776"><ele>209.0</ele><time>2026-03-16T15:41:20Z</time></trkpt><trkpt lat="45.64127073248795" lon="9.322675256591632"><ele>209.0</ele><time>2026-03-16T15:41:21Z</time></trkpt><trkpt lat="45.6413869543312" lon="9.322689537652247"><ele>209.75</ele><time>2026-03-16T15:41:22Z</time></trkpt><trkpt lat="45.641502157814344" lon="9.322705559688748"><ele>210.5</ele><time>2026-03-16T15:41:23Z</time></trkpt><trkpt lat="45.64160561586978" lon="9.322752461593726"><ele>211.25</ele><time>2026-03-16T15:41:24Z</time></trkpt><trkpt lat="45.64172630179195" lon="9.322843482739282"><ele>212.0</ele><time>2026-03-16T15:41:25Z</time></trkpt><trkpt lat="45.641833822326475" lon="9.322982308824429"><ele>212.75</ele><time>2026-03-16T15:41:26Z</time></trkpt><trkpt lat="45.64195870285022" lon="9.323100751722412"><ele>213.5</ele><time>2026-03-16T15:41:27Z</time></trkpt><trkpt lat="45.64205405774152" lon="9.323224785783209"><ele>214.25</ele><time>2026-03-16T15:41:28Z</time></trkpt><trkpt lat="45.64213632642177" lon="9.323328620968043"><ele>215.0</ele><time>2026-03-16T15:41:29Z</time></trkpt><trkpt lat="45.64221310661603" lon="9.323438299254033"><ele>215.66666666666669</ele><time>2026-03-16T15:41:30Z</time></trkpt><trkpt lat="45.642310688645395" lon="9.323592181107902"><ele>216.33333333333331</ele><time>2026-03-16T15:41:31Z</time></trkpt><trkpt lat="45.64240364818045" lon="9.323781763418923"><ele>217.0</ele><time>2026-03-16T15:41:32Z</time></trkpt><trkpt lat="45.642468717496925" lon="9.323973234006292"><ele>217.5</ele><time>2026-03-16T15:41:33Z</time></trkpt><trkpt lat="45.64253218600275" lon="9.324158082050076"><ele>218.0</ele><time>2026-03-16T15:41:34Z</time></trkpt><trkpt lat="45.64261099493038" lon="9.324353656697403"><ele>218.5</ele><time>2026-03-16T15:41:35Z</time></trkpt><trkpt lat="45.64268901222961" lon="9.324523879537091"><ele>219.0</ele><time>2026-03-16T15:41:36Z</time></trkpt><trkpt lat="45.642790754782666" lon="9.324666841613633"><ele>218.75</ele><time>2026-03-16T15:41:37Z</time></trkpt><trkpt lat="45.64292065005824" lon="9.324766732288396"><ele>218.5</ele><time>2026-03-16T15:41:38Z</time></trkpt><trkpt lat="45.64304728713825" lon="9.324839379882317"><ele>218.25</ele><time>2026-03-16T15:41:39Z</time></trkpt><trkpt lat="45.643169966460974" lon="9.32487090936072"><ele>218.0</ele><time>2026-03-16T15:41:40Z</time></trkpt><trkpt lat="45.643292245934134" lon="9.324890230429109"><ele>218.0</ele><time>2026-03-16T15:41:41Z</time></trkpt><trkpt lat="45.64342995495836" lon="9.324883272756702"><ele>218.0</ele><time>2026-03-16T15:41:42Z</time></trkpt><trkpt lat="45.643587013490475" lon="9.324879546838527"><ele>218.0</ele><time>2026-03-16T15:41:43Z</time></trkpt><trkpt lat="45.64372008281202" lon="9.324874180056547"><ele>218.0</ele><time>2026-03-16T15:41:44Z</time></trkpt><trkpt lat="45.64383920789003" lon="9.32486794255065"><ele>218.75</ele><time>2026-03-16T15:41:45Z</time></trkpt><trkpt lat="45.64396234198372" lon="9.324868960398025"><ele>219.5</ele><time>2026-03-16T15:41:46Z</time></trkpt><trkpt lat="45.64408351170626" lon="9.324861705336325"><ele>220.25</ele><time>2026-03-16T15:41:47Z</time></trkpt><trkpt lat="45.64419125717545" lon="9.324865570423247"><ele>221.0</ele><time>2026-03-16T15:41:48Z</time></trkpt><trkpt lat="45.64429680196499" lon="9.32485576674218"><ele>221.0</ele><time>2026-03-16T15:41:49Z</time></trkpt><trkpt lat="45.64442056125608" lon="9.324838415427871"><ele>221.00000000000003</ele><time>2026-03-16T15:41:50Z</time></trkpt><trkpt lat="45.644535043783236" lon="9.324814611416045"><ele>221.00000000000003</ele><time>2026-03-16T15:41:51Z</time></trkpt><trkpt lat="45.644642307014536" lon="9.324790260967363"><ele>221.0</ele><time>2026-03-16T15:41:52Z</time></trkpt><trkpt lat="45.644718749536416" lon="9.324776123295038"><ele>221.0</ele><time>2026-03-16T15:41:53Z</time></trkpt><trkpt lat="45.644806645786964" lon="9.324749894710843"><ele>221.4</ele><time>2026-03-16T15:41:54Z</time></trkpt><trkpt lat="45.64488894692248" lon="9.324726044583086"><ele>221.8</ele><time>2026-03-16T15:41:55Z</time></trkpt><trkpt lat="45.644971911598205" lon="9.324708076935824"><ele>222.20000000000002</ele><time>2026-03-16T15:41:56Z</time></trkpt><trkpt lat="45.64506786134773" lon="9.324691195482538"><ele>222.60000000000002</ele><time>2026-03-16T15:41:57Z</time></trkpt><trkpt lat="45.64516637864852" lon="9.324675476845224"><ele>223.0</ele><time>2026-03-16T15:41:58Z</time></trkpt><trkpt lat="45.6452637394863" lon="9.324679618212265"><ele>223.4</ele><time>2026-03-16T15:41:59Z</time></trkpt><trkpt lat="45.64537771007423" lon="9.324703896042701"><ele>223.8</ele><time>2026-03-16T15:42:00Z</time></trkpt><trkpt lat="45.64546368550948" lon="9.324700227789743"><ele>224.2</ele><time>2026-03-16T15:42:01Z</time></trkpt><trkpt lat="45.645563188525564" lon="9.324711864197155"><ele>224.6</ele><time>2026-03-16T15:42:02Z</time></trkpt><trkpt lat="45.645682568718826" lon="9.324743907284137"><ele>225.0</ele><time>2026-03-16T15:42:03Z</time></trkpt><trkpt lat="45.645778617123014" lon="9.324758695516698"><ele>225.0</ele><time>2026-03-16T15:42:04Z</time></trkpt><trkpt lat="45.64585705089597" lon="9.324766483720301"><ele>225.0</ele><time>2026-03-16T15:42:05Z</time></trkpt><trkpt lat="45.645926386213446" lon="9.324770845367519"><ele>225.0</ele><time>2026-03-16T15:42:06Z</time></trkpt><trkpt lat="45.645957998216424" lon="9.324518524716476"><ele>225.0</ele><time>2026-03-16T15:42:11Z</time></trkpt><trkpt lat="45.64595949475322" lon="9.324357974860327"><ele>225.0</ele><time>2026-03-16T15:42:12Z</time></trkpt><trkpt lat="45.645977283989" lon="9.324227691301168"><ele>224.8</ele><time>2026-03-16T15:42:13Z</time></trkpt><trkpt lat="45.64601513665673" lon="9.32411383523355"><ele>224.6</ele><time>2026-03-16T15:42:14Z</time></trkpt><trkpt lat="45.64610487948728" lon="9.323993158554797"><ele>224.39999999999998</ele><time>2026-03-16T15:42:15Z</time></trkpt><trkpt lat="45.64619134966443" lon="9.323846344746043"><ele>224.2</ele><time>2026-03-16T15:42:16Z</time></trkpt><trkpt lat="45.64625867373193" lon="9.323745466662954"><ele>224.0</ele><time>2026-03-16T15:42:17Z</time></trkpt><trkpt lat="45.64631346922735" lon="9.323645466262876"><ele>224.0</ele><time>2026-03-16T15:42:18Z</time></trkpt><trkpt lat="45.64639046223317" lon="9.32355564826958"><ele>223.99999999999997</ele><time>2026-03-16T15:42:19Z</time></trkpt><trkpt lat="45.64647395421678" lon="9.323477108152257"><ele>223.99999999999997</ele><time>2026-03-16T15:42:20Z</time></trkpt><trkpt lat="45.64652505989483" lon="9.32342267158393"><ele>224.0</ele><time>2026-03-16T15:42:21Z</time></trkpt><trkpt lat="45.64655824409986" lon="9.323309578221599"><ele>224.0</ele><time>2026-03-16T15:42:22Z</time></trkpt><trkpt lat="45.64657107010297" lon="9.323151963543381"><ele>224.0</ele><time>2026-03-16T15:42:23Z</time></trkpt><trkpt lat="45.64657724003254" lon="9.32298408767343"><ele>223.99999999999997</ele><time>2026-03-16T15:42:24Z</time></trkpt><trkpt lat="45.64660291441703" lon="9.322810308289098"><ele>223.99999999999997</ele><time>2026-03-16T15:42:25Z</time></trkpt><trkpt lat="45.646599329269556" lon="9.322692745145497"><ele>224.0</ele><time>2026-03-16T15:42:26Z</time></trkpt><trkpt lat="45.64661348107907" lon="9.322577670766789"><ele>224.0</ele><time>2026-03-16T15:42:26.999Z</time></trkpt><trkpt lat="45.64661605716106" lon="9.322475079125244"><ele>224.0</ele><time>2026-03-16T15:42:27.999Z</time></trkpt><trkpt lat="45.64661381177994" lon="9.322350992439898"><ele>223.99999999999997</ele><time>2026-03-16T15:42:28.999Z</time></trkpt><trkpt lat="45.64663482717215" lon="9.322246166032095"><ele>223.99999999999997</ele><time>2026-03-16T15:42:29.999Z</time></trkpt><trkpt lat="45.646634054027544" lon="9.322150004983373"><ele>224.0</ele><time>2026-03-16T15:42:32.999Z</time></trkpt><trkpt lat="45.64668412793439" lon="9.322064693838604"><ele>224.0</ele><time>2026-03-16T15:42:41Z</time></trkpt><trkpt lat="45.6470176225235" lon="9.322134100707368"><ele>223.6</ele><time>2026-03-16T15:42:43Z</time></trkpt><trkpt lat="45.64710003292458" lon="9.322070480937757"><ele>223.2</ele><time>2026-03-16T15:42:45Z</time></trkpt><trkpt lat="45.647196784635874" lon="9.322092451120664"><ele>222.79999999999998</ele><time>2026-03-16T15:42:47Z</time></trkpt><trkpt lat="45.64729173639673" lon="9.322099323963377"><ele>222.39999999999998</ele><time>2026-03-16T15:42:49Z</time></trkpt><trkpt lat="45.64738245404864" lon="9.322092897829283"><ele>222.0</ele><time>2026-03-16T15:42:51Z</time></trkpt><trkpt lat="45.647488162633316" lon="9.322085619519079"><ele>222.0</ele><time>2026-03-16T15:42:53Z</time></trkpt><trkpt lat="45.647596885691826" lon="9.322072982012907"><ele>222.0</ele><time>2026-03-16T15:42:55Z</time></trkpt><trkpt lat="45.6476743020681" lon="9.322077449241057"><ele>222.0</ele><time>2026-03-16T15:42:57Z</time></trkpt><trkpt lat="45.64773828747336" lon="9.32201185351036"><ele>222.0</ele><time>2026-03-16T15:42:59Z</time></trkpt><trkpt lat="45.647751335050174" lon="9.321899903253355"><ele>222.0</ele><time>2026-03-16T15:43:01Z</time></trkpt><trkpt lat="45.64774740142393" lon="9.321806006720234"><ele>222.0</ele><time>2026-03-16T15:43:02Z</time></trkpt><trkpt lat="45.64773965016645" lon="9.321706304728028"><ele>222.0</ele><time>2026-03-16T15:43:03Z</time></trkpt><trkpt lat="45.64772611782342" lon="9.321595280761409"><ele>222.0</ele><time>2026-03-16T15:43:04Z</time></trkpt><trkpt lat="45.64774443167156" lon="9.321475701479667"><ele>222.0</ele><time>2026-03-16T15:43:05Z</time></trkpt><trkpt lat="45.64775552085732" lon="9.321363986244736"><ele>222.0</ele><time>2026-03-16T15:43:06Z</time></trkpt><trkpt lat="45.64776898183477" lon="9.32125403353314"><ele>222.0</ele><time>2026-03-16T15:43:07Z</time></trkpt><trkpt lat="45.64778365825926" lon="9.321151003737842"><ele>222.0</ele><time>2026-03-16T15:43:08Z</time></trkpt><trkpt lat="45.647793945123816" lon="9.321053671582114"><ele>223.0</ele><time>2026-03-16T15:43:09Z</time></trkpt><trkpt lat="45.64780628780932" lon="9.320909006599946"><ele>224.0</ele><time>2026-03-16T15:43:11Z</time></trkpt><trkpt lat="45.64781828089257" lon="9.32078234652404"><ele>225.0</ele><time>2026-03-16T15:43:13Z</time></trkpt><trkpt lat="45.64784175978302" lon="9.320650930153668"><ele>226.0</ele><time>2026-03-16T15:43:15Z</time></trkpt><trkpt lat="45.64785538538112" lon="9.320541904320425"><ele>227.0</ele><time>2026-03-16T15:43:17Z</time></trkpt><trkpt lat="45.64786250618425" lon="9.320442033153872"><ele>228.0</ele><time>2026-03-16T15:43:21Z</time></trkpt><trkpt lat="45.647895584755126" lon="9.320355161181794"><ele>228.16666666666666</ele><time>2026-03-16T15:43:25Z</time></trkpt><trkpt lat="45.647911871621154" lon="9.320262021939586"><ele>228.33333333333331</ele><time>2026-03-16T15:43:27Z</time></trkpt><trkpt lat="45.64791882801533" lon="9.320133044962837"><ele>228.5</ele><time>2026-03-16T15:43:29Z</time></trkpt><trkpt lat="45.647921883835366" lon="9.320030387629293"><ele>228.66666666666666</ele><time>2026-03-16T15:43:31Z</time></trkpt><trkpt lat="45.6478931641956" lon="9.319947383697402"><ele>228.83333333333331</ele><time>2026-03-16T15:43:34Z</time></trkpt><trkpt lat="45.64781854758286" lon="9.31988063440626"><ele>229.0</ele><time>2026-03-16T15:43:36Z</time></trkpt><trkpt lat="45.64772323583765" lon="9.319821274024681"><ele>228.79999999999998</ele><time>2026-03-16T15:43:38Z</time></trkpt><trkpt lat="45.647711292102166" lon="9.319657956270875"><ele>228.59999999999997</ele><time>2026-03-16T15:43:40Z</time></trkpt><trkpt lat="45.64776466180996" lon="9.31950355565972"><ele>228.4</ele><time>2026-03-16T15:43:41Z</time></trkpt><trkpt lat="45.64775043640615" lon="9.319409465692672"><ele>228.2</ele><time>2026-03-16T15:43:42Z</time></trkpt><trkpt lat="45.647717782886644" lon="9.319315292002928"><ele>228.0</ele><time>2026-03-16T15:43:43Z</time></trkpt><trkpt lat="45.647628411922625" lon="9.319209152280893"><ele>228.0</ele><time>2026-03-16T15:43:44Z</time></trkpt><trkpt lat="45.64747905955001" lon="9.319217772633264"><ele>228.0</ele><time>2026-03-16T15:43:45Z</time></trkpt><trkpt lat="45.64733854829713" lon="9.319184125497156"><ele>228.0</ele><time>2026-03-16T15:43:46Z</time></trkpt><trkpt lat="45.6471807891514" lon="9.319149441741695"><ele>228.0</ele><time>2026-03-16T15:43:47Z</time></trkpt><trkpt lat="45.6470323767998" lon="9.319101559546484"><ele>228.0</ele><time>2026-03-16T15:43:48Z</time></trkpt><trkpt lat="45.64689237072627" lon="9.318999735694659"><ele>228.0</ele><time>2026-03-16T15:43:49Z</time></trkpt><trkpt lat="45.64674006742268" lon="9.318915231931138"><ele>226.5</ele><time>2026-03-16T15:43:50Z</time></trkpt><trkpt lat="45.64661122152496" lon="9.318839401776664"><ele>225.0</ele><time>2026-03-16T15:43:51Z</time></trkpt><trkpt lat="45.64648617576432" lon="9.31878947169148"><ele>223.5</ele><time>2026-03-16T15:43:52Z</time></trkpt><trkpt lat="45.64636998775787" lon="9.31871888716024"><ele>222.0</ele><time>2026-03-16T15:43:53Z</time></trkpt><trkpt lat="45.64626955873836" lon="9.318676024641713"><ele>222.0</ele><time>2026-03-16T15:43:54Z</time></trkpt><trkpt lat="45.646195542229776" lon="9.31866150576244"><ele>222.0</ele><time>2026-03-16T15:43:55Z</time></trkpt><trkpt lat="45.64613433006439" lon="9.31863684821078"><ele>222.0</ele><time>2026-03-16T15:43:56Z</time></trkpt><trkpt lat="45.64607219861543" lon="9.318599353368928"><ele>222.0</ele><time>2026-03-16T15:43:57Z</time></trkpt><trkpt lat="45.64602038762656" lon="9.318526697621758"><ele>222.0</ele><time>2026-03-16T15:43:58Z</time></trkpt><trkpt lat="45.645985141248445" lon="9.318427950755094"><ele>222.0</ele><time>2026-03-16T15:43:59Z</time></trkpt><trkpt lat="45.64598239146517" lon="9.318297052805457"><ele>222.0</ele><time>2026-03-16T15:44:00Z</time></trkpt><trkpt lat="45.64597136000917" lon="9.3181532789832"><ele>222.2</ele><time>2026-03-16T15:44:01Z</time></trkpt><trkpt lat="45.645965636404284" lon="9.31804695322995"><ele>222.39999999999998</ele><time>2026-03-16T15:44:02Z</time></trkpt><trkpt lat="45.64596544442884" lon="9.317955611031453"><ele>222.60000000000002</ele><time>2026-03-16T15:44:03Z</time></trkpt><trkpt lat="45.6459863745649" lon="9.31777975390073"><ele>222.8</ele><time>2026-03-16T15:44:05Z</time></trkpt><trkpt lat="45.645995906277854" lon="9.317680200960954"><ele>223.0</ele><time>2026-03-16T15:44:06Z</time></trkpt><trkpt lat="45.6460127314483" lon="9.317504472291233"><ele>223.0</ele><time>2026-03-16T15:44:08Z</time></trkpt><trkpt lat="45.645939148275346" lon="9.317337750102283"><ele>223.0</ele><time>2026-03-16T15:44:09Z</time></trkpt><trkpt lat="45.64596166739884" lon="9.317194377588017"><ele>223.0</ele><time>2026-03-16T15:44:10Z</time></trkpt><trkpt lat="45.645994623024116" lon="9.317062019711022"><ele>223.0</ele><time>2026-03-16T15:44:11Z</time></trkpt><trkpt lat="45.6460118170272" lon="9.316920685547936"><ele>223.0</ele><time>2026-03-16T15:44:12Z</time></trkpt><trkpt lat="45.64603442797452" lon="9.316783656716874"><ele>222.83333333333331</ele><time>2026-03-16T15:44:13Z</time></trkpt><trkpt lat="45.64605473191873" lon="9.316657144922324"><ele>222.66666666666666</ele><time>2026-03-16T15:44:14Z</time></trkpt><trkpt lat="45.64606718586345" lon="9.31653248831919"><ele>222.5</ele><time>2026-03-16T15:44:15Z</time></trkpt><trkpt lat="45.64606082228886" lon="9.316407355121465"><ele>222.33333333333331</ele><time>2026-03-16T15:44:16Z</time></trkpt><trkpt lat="45.64610100285963" lon="9.316330126973503"><ele>222.16666666666666</ele><time>2026-03-16T15:44:19Z</time></trkpt><trkpt lat="45.64609117956284" lon="9.316188883922955"><ele>222.0</ele><time>2026-03-16T15:44:22Z</time></trkpt><trkpt lat="45.64606156006734" lon="9.31609825979749"><ele>222.39999999999998</ele><time>2026-03-16T15:44:23Z</time></trkpt><trkpt lat="45.646035350305176" lon="9.315971527808435"><ele>222.79999999999998</ele><time>2026-03-16T15:44:24Z</time></trkpt><trkpt lat="45.64603351251044" lon="9.315834559697032"><ele>223.2</ele><time>2026-03-16T15:44:25Z</time></trkpt><trkpt lat="45.64605907896321" lon="9.315679143661036"><ele>223.6</ele><time>2026-03-16T15:44:26Z</time></trkpt><trkpt lat="45.646084884116476" lon="9.315508630410802"><ele>224.0</ele><time>2026-03-16T15:44:27Z</time></trkpt><trkpt lat="45.64610890853637" lon="9.315337246895906"><ele>224.0</ele><time>2026-03-16T15:44:28Z</time></trkpt><trkpt lat="45.646132954147085" lon="9.315143934274113"><ele>224.0</ele><time>2026-03-16T15:44:29Z</time></trkpt><trkpt lat="45.64619171039621" lon="9.314943519399696"><ele>224.0</ele><time>2026-03-16T15:44:30Z</time></trkpt><trkpt lat="45.64624786770958" lon="9.314741817223675"><ele>224.0</ele><time>2026-03-16T15:44:31Z</time></trkpt><trkpt lat="45.64629709225507" lon="9.314502792552837"><ele>224.0</ele><time>2026-03-16T15:44:32Z</time></trkpt><trkpt lat="45.64637557510672" lon="9.314235958065371"><ele>224.0</ele><time>2026-03-16T15:44:32.999Z</time></trkpt><trkpt lat="45.646419809443145" lon="9.314034736846097"><ele>224.0</ele><time>2026-03-16T15:44:33.999Z</time></trkpt><trkpt lat="45.64646714576782" lon="9.313823981241265"><ele>223.75</ele><time>2026-03-16T15:44:34.999Z</time></trkpt><trkpt lat="45.64651896522623" lon="9.31363761915218"><ele>223.5</ele><time>2026-03-16T15:44:35.999Z</time></trkpt><trkpt lat="45.646563905475006" lon="9.313466495213438"><ele>223.25</ele><time>2026-03-16T15:44:36.999Z</time></trkpt><trkpt lat="45.646603012873086" lon="9.31330278554112"><ele>223.0</ele><time>2026-03-16T15:44:37.999Z</time></trkpt><trkpt lat="45.64665478139866" lon="9.313115649342413"><ele>223.0</ele><time>2026-03-16T15:44:38.999Z</time></trkpt><trkpt lat="45.64671500508142" lon="9.312915954215812"><ele>223.0</ele><time>2026-03-16T15:44:39.999Z</time></trkpt><trkpt lat="45.64673400323529" lon="9.312737974466087"><ele>223.0</ele><time>2026-03-16T15:44:40.999Z</time></trkpt><trkpt lat="45.64679051097257" lon="9.312579381335222"><ele>223.0</ele><time>2026-03-16T15:44:41.999Z</time></trkpt><trkpt lat="45.646829461252864" lon="9.312433020594245"><ele>223.0</ele><time>2026-03-16T15:44:42.999Z</time></trkpt><trkpt lat="45.646862466821986" lon="9.312288551903373"><ele>223.0</ele><time>2026-03-16T15:44:44Z</time></trkpt><trkpt lat="45.64690233305262" lon="9.312166590075497"><ele>223.0</ele><time>2026-03-16T15:44:45Z</time></trkpt><trkpt lat="45.64692432079856" lon="9.312052682405728"><ele>223.0</ele><time>2026-03-16T15:44:46Z</time></trkpt><trkpt lat="45.646939540987375" lon="9.311963879498913"><ele>223.0</ele><time>2026-03-16T15:44:47Z</time></trkpt><trkpt lat="45.647020012719594" lon="9.311842165286636"><ele>223.75</ele><time>2026-03-16T15:44:49Z</time></trkpt><trkpt lat="45.64702693019391" lon="9.311719066300334"><ele>224.5</ele><time>2026-03-16T15:44:50Z</time></trkpt><trkpt lat="45.647012106542306" lon="9.311545651949048"><ele>225.25</ele><time>2026-03-16T15:44:51Z</time></trkpt><trkpt lat="45.647022389298314" lon="9.311361207590927"><ele>226.0</ele><time>2026-03-16T15:44:52Z</time></trkpt><trkpt lat="45.64701922171296" lon="9.311196990462731"><ele>227.0</ele><time>2026-03-16T15:44:53Z</time></trkpt><trkpt lat="45.64706269967138" lon="9.311011961761457"><ele>228.0</ele><time>2026-03-16T15:44:54Z</time></trkpt><trkpt lat="45.64710072472121" lon="9.310797888324725"><ele>229.0</ele><time>2026-03-16T15:44:55Z</time></trkpt><trkpt lat="45.64712029533733" lon="9.310598380006732"><ele>230.0</ele><time>2026-03-16T15:44:56Z</time></trkpt><trkpt lat="45.64713668630886" lon="9.310389667521722"><ele>231.75</ele><time>2026-03-16T15:44:57Z</time></trkpt><trkpt lat="45.64715104547282" lon="9.310201000297713"><ele>233.5</ele><time>2026-03-16T15:44:58Z</time></trkpt><trkpt lat="45.647184585086336" lon="9.31005649949795"><ele>235.25</ele><time>2026-03-16T15:44:59Z</time></trkpt><trkpt lat="45.64720177364095" lon="9.309884105009461"><ele>237.0</ele><time>2026-03-16T15:45:00Z</time></trkpt><trkpt lat="45.64722754372726" lon="9.309694236000222"><ele>237.5</ele><time>2026-03-16T15:45:01Z</time></trkpt><trkpt lat="45.6472530626783" lon="9.309488911805518"><ele>238.0</ele><time>2026-03-16T15:45:02Z</time></trkpt><trkpt lat="45.64726950714501" lon="9.309280103409254"><ele>238.5</ele><time>2026-03-16T15:45:03Z</time></trkpt><trkpt lat="45.647294654102694" lon="9.309079494301823"><ele>239.0</ele><time>2026-03-16T15:45:04Z</time></trkpt><trkpt lat="45.647333522877815" lon="9.308869015806836"><ele>239.39999999999998</ele><time>2026-03-16T15:45:05Z</time></trkpt><trkpt lat="45.647343831737174" lon="9.30869264228293"><ele>239.79999999999998</ele><time>2026-03-16T15:45:06Z</time></trkpt><trkpt lat="45.64737695331256" lon="9.308529596884402"><ele>240.20000000000002</ele><time>2026-03-16T15:45:07Z</time></trkpt><trkpt lat="45.647396382005326" lon="9.308394188861142"><ele>240.60000000000002</ele><time>2026-03-16T15:45:08Z</time></trkpt><trkpt lat="45.64741105933774" lon="9.308272405457025"><ele>241.0</ele><time>2026-03-16T15:45:09Z</time></trkpt><trkpt lat="45.64741839869472" lon="9.30812919673226"><ele>241.4</ele><time>2026-03-16T15:45:10Z</time></trkpt><trkpt lat="45.64747262894754" lon="9.307989327839428"><ele>241.8</ele><time>2026-03-16T15:45:24Z</time></trkpt><trkpt lat="45.64752519277364" lon="9.307914535419851"><ele>242.20000000000002</ele><time>2026-03-16T15:45:25Z</time></trkpt><trkpt lat="45.647588457233404" lon="9.30785993534852"><ele>242.60000000000002</ele><time>2026-03-16T15:45:26Z</time></trkpt><trkpt lat="45.64771977188976" lon="9.307869565089117"><ele>243.0</ele><time>2026-03-16T15:45:28Z</time></trkpt><trkpt lat="45.64782489771181" lon="9.307881047916942"><ele>243.2</ele><time>2026-03-16T15:45:29Z</time></trkpt><trkpt lat="45.64795644112864" lon="9.307915078207655"><ele>243.4</ele><time>2026-03-16T15:45:30Z</time></trkpt><trkpt lat="45.64806468167062" lon="9.307946051933891"><ele>243.59999999999997</ele><time>2026-03-16T15:45:31Z</time></trkpt><trkpt lat="45.64817119344807" lon="9.30796673352478"><ele>243.79999999999998</ele><time>2026-03-16T15:45:32Z</time></trkpt><trkpt lat="45.64826588104971" lon="9.307964007572297"><ele>244.0</ele><time>2026-03-16T15:45:33Z</time></trkpt><trkpt lat="45.64828913002351" lon="9.308144561148257"><ele>244.0</ele><time>2026-03-16T15:45:34Z</time></trkpt><trkpt lat="45.64843280347971" lon="9.308234494267646"><ele>244.0</ele><time>2026-03-16T15:45:35Z</time></trkpt><trkpt lat="45.64857349144934" lon="9.308325705486812"><ele>244.0</ele><time>2026-03-16T15:45:36Z</time></trkpt><trkpt lat="45.64872414659567" lon="9.308417527414736"><ele>245.25</ele><time>2026-03-16T15:45:37Z</time></trkpt><trkpt lat="45.648879665512425" lon="9.30851100236311"><ele>246.5</ele><time>2026-03-16T15:45:38Z</time></trkpt><trkpt lat="45.64902238746263" lon="9.308579967475776"><ele>247.75</ele><time>2026-03-16T15:45:39Z</time></trkpt><trkpt lat="45.649146663062474" lon="9.30860999918616"><ele>249.0</ele><time>2026-03-16T15:45:40Z</time></trkpt><trkpt lat="45.64926276059823" lon="9.308655141405644"><ele>249.0</ele><time>2026-03-16T15:45:41Z</time></trkpt><trkpt lat="45.649361596335794" lon="9.308688727275252"><ele>248.99999999999997</ele><time>2026-03-16T15:45:42Z</time></trkpt><trkpt lat="45.64947050013788" lon="9.308687717735955"><ele>248.99999999999997</ele><time>2026-03-16T15:45:43Z</time></trkpt><trkpt lat="45.64957201982894" lon="9.308665124178352"><ele>249.0</ele><time>2026-03-16T15:45:44Z</time></trkpt><trkpt lat="45.64967991635391" lon="9.308637048515031"><ele>249.0</ele><time>2026-03-16T15:45:45Z</time></trkpt><trkpt lat="45.64978075512827" lon="9.308597991447057"><ele>249.16666666666666</ele><time>2026-03-16T15:45:46Z</time></trkpt><trkpt lat="45.64986174936659" lon="9.308551323552074"><ele>249.33333333333331</ele><time>2026-03-16T15:45:47Z</time></trkpt><trkpt lat="45.64993775954992" lon="9.308516167838006"><ele>249.5</ele><time>2026-03-16T15:45:48Z</time></trkpt><trkpt lat="45.650009101444844" lon="9.308482559863645"><ele>249.66666666666666</ele><time>2026-03-16T15:45:49Z</time></trkpt><trkpt lat="45.65007042525071" lon="9.308447733112606"><ele>249.83333333333331</ele><time>2026-03-16T15:45:52Z</time></trkpt><trkpt lat="45.65013492532603" lon="9.308421626415427"><ele>250.0</ele><time>2026-03-16T15:45:54Z</time></trkpt><trkpt lat="45.65008883353432" lon="9.308189552828699"><ele>249.8</ele><time>2026-03-16T15:45:56Z</time></trkpt><trkpt lat="45.65007630151201" lon="9.308004162602446"><ele>249.6</ele><time>2026-03-16T15:45:58Z</time></trkpt><trkpt lat="45.65008441320015" lon="9.307873312831155"><ele>249.39999999999998</ele><time>2026-03-16T15:45:59Z</time></trkpt><trkpt lat="45.65008044701782" lon="9.307703595020646"><ele>249.2</ele><time>2026-03-16T15:46:00Z</time></trkpt><trkpt lat="45.65008414663347" lon="9.307549764696978"><ele>249.0</ele><time>2026-03-16T15:46:01Z</time></trkpt><trkpt lat="45.650088649078576" lon="9.307408482666467"><ele>249.0</ele><time>2026-03-16T15:46:02Z</time></trkpt><trkpt lat="45.65008926806118" lon="9.307277243368219"><ele>248.99999999999997</ele><time>2026-03-16T15:46:03Z</time></trkpt><trkpt lat="45.65009168693561" lon="9.307141708339211"><ele>248.99999999999997</ele><time>2026-03-16T15:46:04Z</time></trkpt><trkpt lat="45.65010135137537" lon="9.307013836251654"><ele>249.0</ele><time>2026-03-16T15:46:05Z</time></trkpt><trkpt lat="45.65011012937397" lon="9.306870924807981"><ele>249.0</ele><time>2026-03-16T15:46:06Z</time></trkpt><trkpt lat="45.6501128274814" lon="9.306714785238132"><ele>248.75</ele><time>2026-03-16T15:46:08Z</time></trkpt><trkpt lat="45.65021783243099" lon="9.3066371671426"><ele>248.5</ele><time>2026-03-16T15:46:10Z</time></trkpt><trkpt lat="45.65029067587656" lon="9.30663866861925"><ele>248.25</ele><time>2026-03-16T15:46:11Z</time></trkpt><trkpt lat="45.65044500543322" lon="9.306605520490272"><ele>248.0</ele><time>2026-03-16T15:46:18Z</time></trkpt><trkpt lat="45.65076507095813" lon="9.306517102835848"><ele>247.5</ele><time>2026-03-16T15:46:20Z</time></trkpt><trkpt lat="45.65090605009656" lon="9.30649383033311"><ele>247.0</ele><time>2026-03-16T15:46:21Z</time></trkpt><trkpt lat="45.65104573667797" lon="9.306445616970986"><ele>246.5</ele><time>2026-03-16T15:46:22Z</time></trkpt><trkpt lat="45.65115469492029" lon="9.306410317659417"><ele>246.0</ele><time>2026-03-16T15:46:23Z</time></trkpt><trkpt lat="45.65124503248645" lon="9.306383347099867"><ele>244.5</ele><time>2026-03-16T15:46:24Z</time></trkpt><trkpt lat="45.65133790380549" lon="9.306373769323715"><ele>243.0</ele><time>2026-03-16T15:46:25Z</time></trkpt><trkpt lat="45.651453794626114" lon="9.306355326235153"><ele>241.5</ele><time>2026-03-16T15:46:26Z</time></trkpt><trkpt lat="45.651583763747034" lon="9.306334016863453"><ele>240.0</ele><time>2026-03-16T15:46:27Z</time></trkpt><trkpt lat="45.651698392444274" lon="9.306322367767226"><ele>240.0</ele><time>2026-03-16T15:46:28Z</time></trkpt><trkpt lat="45.65178158338285" lon="9.306332153659863"><ele>240.0</ele><time>2026-03-16T15:46:29Z</time></trkpt><trkpt lat="45.65185374776412" lon="9.306292253288747"><ele>240.0</ele><time>2026-03-16T15:46:30Z</time></trkpt><trkpt lat="45.65197207437606" lon="9.30626329174485"><ele>240.0</ele><time>2026-03-16T15:46:31Z</time></trkpt><trkpt lat="45.65210497144458" lon="9.30623119602246"><ele>240.0</ele><time>2026-03-16T15:46:32Z</time></trkpt><trkpt lat="45.65222545539118" lon="9.30620357355206"><ele>240.0</ele><time>2026-03-16T15:46:33Z</time></trkpt><trkpt lat="45.65236955268717" lon="9.306172005062376"><ele>240.0</ele><time>2026-03-16T15:46:34Z</time></trkpt><trkpt lat="45.65249456700999" lon="9.306142324416028"><ele>240.0</ele><time>2026-03-16T15:46:35Z</time></trkpt><trkpt lat="45.652604306999784" lon="9.306116275015855"><ele>240.0</ele><time>2026-03-16T15:46:36Z</time></trkpt><trkpt lat="45.65272245920454" lon="9.306087624544285"><ele>239.4</ele><time>2026-03-16T15:46:37Z</time></trkpt><trkpt lat="45.6527971216803" lon="9.306070037175866"><ele>238.8</ele><time>2026-03-16T15:46:38Z</time></trkpt><trkpt lat="45.65292385310461" lon="9.306004670681363"><ele>238.2</ele><time>2026-03-16T15:46:40Z</time></trkpt><trkpt lat="45.65303917291323" lon="9.305988556774277"><ele>237.6</ele><time>2026-03-16T15:46:41Z</time></trkpt><trkpt lat="45.65313961825731" lon="9.305967193605106"><ele>237.0</ele><time>2026-03-16T15:46:42Z</time></trkpt><trkpt lat="45.6532274415465" lon="9.305941237287705"><ele>236.99999999999997</ele><time>2026-03-16T15:46:43Z</time></trkpt><trkpt lat="45.65330495813237" lon="9.30591857489066"><ele>237.0</ele><time>2026-03-16T15:46:44Z</time></trkpt><trkpt lat="45.65337636574729" lon="9.305896888833747"><ele>236.99999999999997</ele><time>2026-03-16T15:46:45Z</time></trkpt><trkpt lat="45.65343942954032" lon="9.305879761819087"><ele>236.99999999999997</ele><time>2026-03-16T15:46:46Z</time></trkpt><trkpt lat="45.65350410468754" lon="9.305874061011163"><ele>237.0</ele><time>2026-03-16T15:46:46.999Z</time></trkpt><trkpt lat="45.653578673261926" lon="9.305859475007564"><ele>236.99999999999997</ele><time>2026-03-16T15:46:47.999Z</time></trkpt><trkpt lat="45.653664196448524" lon="9.30584024291974"><ele>236.99999999999997</ele><time>2026-03-16T15:46:48.999Z</time></trkpt><trkpt lat="45.65376786266356" lon="9.305796063320642"><ele>237.2</ele><time>2026-03-16T15:46:51Z</time></trkpt><trkpt lat="45.65385363784676" lon="9.305789155710823"><ele>237.39999999999998</ele><time>2026-03-16T15:46:55Z</time></trkpt><trkpt lat="45.65395080523561" lon="9.305759487180099"><ele>237.60000000000002</ele><time>2026-03-16T15:46:57Z</time></trkpt><trkpt lat="45.654045944141394" lon="9.305727730487861"><ele>237.8</ele><time>2026-03-16T15:46:58Z</time></trkpt><trkpt lat="45.65416803961387" lon="9.305683421795171"><ele>238.0</ele><time>2026-03-16T15:46:59Z</time></trkpt><trkpt lat="45.65435103935893" lon="9.305650852971066"><ele>238.0</ele><time>2026-03-16T15:47:00Z</time></trkpt><trkpt lat="45.654550728963486" lon="9.30563010588046"><ele>238.0</ele><time>2026-03-16T15:47:01Z</time></trkpt><trkpt lat="45.65474548010239" lon="9.305586576720794"><ele>238.0</ele><time>2026-03-16T15:47:02Z</time></trkpt><trkpt lat="45.654952849810144" lon="9.305531847576582"><ele>238.0</ele><time>2026-03-16T15:47:03Z</time></trkpt><trkpt lat="45.65514216746485" lon="9.305481948258818"><ele>238.0</ele><time>2026-03-16T15:47:04Z</time></trkpt><trkpt lat="45.655310957510956" lon="9.305453025004354"><ele>238.0</ele><time>2026-03-16T15:47:05Z</time></trkpt><trkpt lat="45.6554703880338" lon="9.30541766487716"><ele>237.75</ele><time>2026-03-16T15:47:06Z</time></trkpt><trkpt lat="45.655624081369474" lon="9.305384096667455"><ele>237.5</ele><time>2026-03-16T15:47:07Z</time></trkpt><trkpt lat="45.65576487368789" lon="9.305346521121695"><ele>237.25</ele><time>2026-03-16T15:47:08Z</time></trkpt><trkpt lat="45.65590132593467" lon="9.305308656115495"><ele>237.0</ele><time>2026-03-16T15:47:09Z</time></trkpt><trkpt lat="45.65604462712961" lon="9.30527724189471"><ele>237.66666666666669</ele><time>2026-03-16T15:47:10Z</time></trkpt><trkpt lat="45.656226542355405" lon="9.305229229150603"><ele>238.33333333333334</ele><time>2026-03-16T15:47:11Z</time></trkpt><trkpt lat="45.65640077144215" lon="9.305192374713156"><ele>239.0</ele><time>2026-03-16T15:47:12Z</time></trkpt><trkpt lat="45.65655799890268" lon="9.305151890307748"><ele>239.0</ele><time>2026-03-16T15:47:13Z</time></trkpt><trkpt lat="45.65669234726281" lon="9.305109627004676"><ele>239.0</ele><time>2026-03-16T15:47:14Z</time></trkpt><trkpt lat="45.65683747303083" lon="9.305096824152582"><ele>239.0</ele><time>2026-03-16T15:47:15Z</time></trkpt><trkpt lat="45.657019097953125" lon="9.305068829442375"><ele>239.5</ele><time>2026-03-16T15:47:16Z</time></trkpt><trkpt lat="45.65716797292252" lon="9.305039339893467"><ele>240.0</ele><time>2026-03-16T15:47:17Z</time></trkpt><trkpt lat="45.657315847185274" lon="9.304994749983546"><ele>240.5</ele><time>2026-03-16T15:47:18Z</time></trkpt><trkpt lat="45.65745834889237" lon="9.304957669329319"><ele>241.0</ele><time>2026-03-16T15:47:19Z</time></trkpt><trkpt lat="45.65759268885442" lon="9.304932509426605"><ele>241.0</ele><time>2026-03-16T15:47:20Z</time></trkpt><trkpt lat="45.657719449283476" lon="9.30489233517471"><ele>241.0</ele><time>2026-03-16T15:47:21Z</time></trkpt><trkpt lat="45.65783871828008" lon="9.304866552128251"><ele>241.0</ele><time>2026-03-16T15:47:22Z</time></trkpt><trkpt lat="45.65796191228199" lon="9.304834812436816"><ele>241.0</ele><time>2026-03-16T15:47:23Z</time></trkpt><trkpt lat="45.65807465612066" lon="9.30481725072166"><ele>241.0</ele><time>2026-03-16T15:47:24Z</time></trkpt><trkpt lat="45.65820517815209" lon="9.304795176224134"><ele>241.00000000000003</ele><time>2026-03-16T15:47:25Z</time></trkpt><trkpt lat="45.65827582861072" lon="9.304770953737146"><ele>241.00000000000003</ele><time>2026-03-16T15:47:26Z</time></trkpt><trkpt lat="45.65839228037431" lon="9.304751192325485"><ele>241.0</ele><time>2026-03-16T15:47:27Z</time></trkpt><trkpt lat="45.65850894105343" lon="9.30475340133147"><ele>241.0</ele><time>2026-03-16T15:47:28Z</time></trkpt><trkpt lat="45.65863674974762" lon="9.304714099779984"><ele>242.0</ele><time>2026-03-16T15:47:29Z</time></trkpt><trkpt lat="45.658742133175075" lon="9.304691481317331"><ele>243.0</ele><time>2026-03-16T15:47:30Z</time></trkpt><trkpt lat="45.658861005037686" lon="9.304664120869258"><ele>244.0</ele><time>2026-03-16T15:47:31Z</time></trkpt><trkpt lat="45.65898787183183" lon="9.304631296323686"><ele>245.0</ele><time>2026-03-16T15:47:32Z</time></trkpt><trkpt lat="45.65909201545766" lon="9.304627930926902"><ele>245.0</ele><time>2026-03-16T15:47:33Z</time></trkpt><trkpt lat="45.65918319121529" lon="9.304677224040619"><ele>245.0</ele><time>2026-03-16T15:47:34Z</time></trkpt><trkpt lat="45.659258086356466" lon="9.304701604170173"><ele>245.0</ele><time>2026-03-16T15:47:35Z</time></trkpt><trkpt lat="45.659334742099034" lon="9.304639411471772"><ele>245.0</ele><time>2026-03-16T15:47:36Z</time></trkpt><trkpt lat="45.65943672081711" lon="9.304535063337896"><ele>245.0</ele><time>2026-03-16T15:47:37Z</time></trkpt><trkpt lat="45.65955200328454" lon="9.304478645579117"><ele>246.0</ele><time>2026-03-16T15:47:38Z</time></trkpt><trkpt lat="45.65967288844521" lon="9.30447933683028"><ele>247.0</ele><time>2026-03-16T15:47:39Z</time></trkpt><trkpt lat="45.6598224507604" lon="9.304446567020111"><ele>248.0</ele><time>2026-03-16T15:47:40Z</time></trkpt><trkpt lat="45.65993949229183" lon="9.304415124375025"><ele>249.0</ele><time>2026-03-16T15:47:41Z</time></trkpt><trkpt lat="45.6600337801312" lon="9.304399077242177"><ele>249.0</ele><time>2026-03-16T15:47:42Z</time></trkpt><trkpt lat="45.660119176727484" lon="9.304382174032279"><ele>249.0</ele><time>2026-03-16T15:47:43Z</time></trkpt><trkpt lat="45.6602032422439" lon="9.30435936286344"><ele>249.0</ele><time>2026-03-16T15:47:44Z</time></trkpt><trkpt lat="45.660302451785654" lon="9.304342816891758"><ele>249.0</ele><time>2026-03-16T15:47:45Z</time></trkpt><trkpt lat="45.66040492712886" lon="9.304312805078208"><ele>249.0</ele><time>2026-03-16T15:47:46Z</time></trkpt><trkpt lat="45.660472318256076" lon="9.304295333323553"><ele>249.0</ele><time>2026-03-16T15:47:47Z</time></trkpt><trkpt lat="45.66058390789874" lon="9.304266514377169"><ele>249.75</ele><time>2026-03-16T15:47:48Z</time></trkpt><trkpt lat="45.660703210160335" lon="9.304238965450823"><ele>250.5</ele><time>2026-03-16T15:47:49Z</time></trkpt><trkpt lat="45.66082499106308" lon="9.304216243957892"><ele>251.25</ele><time>2026-03-16T15:47:50Z</time></trkpt><trkpt lat="45.6609497412108" lon="9.304174539367954"><ele>252.0</ele><time>2026-03-16T15:47:51Z</time></trkpt><trkpt lat="45.66107516650731" lon="9.304150197723331"><ele>252.0</ele><time>2026-03-16T15:47:52Z</time></trkpt><trkpt lat="45.661187161017956" lon="9.304129213332178"><ele>252.0</ele><time>2026-03-16T15:47:53Z</time></trkpt><trkpt lat="45.661277666782745" lon="9.304116903529446"><ele>252.0</ele><time>2026-03-16T15:47:54Z</time></trkpt><trkpt lat="45.66135370536133" lon="9.304099444555977"><ele>252.0</ele><time>2026-03-16T15:47:55Z</time></trkpt><trkpt lat="45.6614378584414" lon="9.304091797311811"><ele>252.0</ele><time>2026-03-16T15:47:56Z</time></trkpt><trkpt lat="45.66152314491036" lon="9.304082614107049"><ele>252.0</ele><time>2026-03-16T15:47:57Z</time></trkpt><trkpt lat="45.661628379072695" lon="9.304068067984337"><ele>252.0</ele><time>2026-03-16T15:47:58Z</time></trkpt><trkpt lat="45.66174911411829" lon="9.304042653978856"><ele>252.0</ele><time>2026-03-16T15:47:59Z</time></trkpt><trkpt lat="45.661866923069994" lon="9.304014940397668"><ele>252.0</ele><time>2026-03-16T15:48:00Z</time></trkpt><trkpt lat="45.66198266840488" lon="9.303998161405612"><ele>251.8</ele><time>2026-03-16T15:48:01Z</time></trkpt><trkpt lat="45.66210377168087" lon="9.303983283579399"><ele>251.6</ele><time>2026-03-16T15:48:02Z</time></trkpt><trkpt lat="45.66221146905103" lon="9.303964262927515"><ele>251.40000000000003</ele><time>2026-03-16T15:48:03Z</time></trkpt><trkpt lat="45.66230237558768" lon="9.303951679423951"><ele>251.20000000000002</ele><time>2026-03-16T15:48:04Z</time></trkpt><trkpt lat="45.66240141069501" lon="9.303936617635332"><ele>251.0</ele><time>2026-03-16T15:48:05Z</time></trkpt><trkpt lat="45.66249906847459" lon="9.303919160972248"><ele>251.75</ele><time>2026-03-16T15:48:06Z</time></trkpt><trkpt lat="45.66260190774618" lon="9.303900720416392"><ele>252.5</ele><time>2026-03-16T15:48:07Z</time></trkpt><trkpt lat="45.66271571185473" lon="9.303881526180248"><ele>253.25</ele><time>2026-03-16T15:48:08Z</time></trkpt><trkpt lat="45.66283075308587" lon="9.303867561464964"><ele>254.0</ele><time>2026-03-16T15:48:09Z</time></trkpt><trkpt lat="45.66295808694703" lon="9.303850851680094"><ele>254.75</ele><time>2026-03-16T15:48:10Z</time></trkpt><trkpt lat="45.66310036702766" lon="9.303821142896492"><ele>255.5</ele><time>2026-03-16T15:48:11Z</time></trkpt><trkpt lat="45.663228072399946" lon="9.303791681566402"><ele>256.25</ele><time>2026-03-16T15:48:12Z</time></trkpt><trkpt lat="45.66333788182904" lon="9.30376916849732"><ele>257.0</ele><time>2026-03-16T15:48:13Z</time></trkpt><trkpt lat="45.66344344376181" lon="9.303750485366491"><ele>257.0</ele><time>2026-03-16T15:48:14Z</time></trkpt><trkpt lat="45.663533467017345" lon="9.303736723939043"><ele>257.0</ele><time>2026-03-16T15:48:15Z</time></trkpt><trkpt lat="45.663621452573274" lon="9.303724211341873"><ele>257.0</ele><time>2026-03-16T15:48:16Z</time></trkpt><trkpt lat="45.663716173060685" lon="9.303712455762993"><ele>257.0</ele><time>2026-03-16T15:48:17Z</time></trkpt><trkpt lat="45.66381727648194" lon="9.303696685474153"><ele>257.0</ele><time>2026-03-16T15:48:18Z</time></trkpt><trkpt lat="45.66391731180093" lon="9.303676155172758"><ele>257.0</ele><time>2026-03-16T15:48:19Z</time></trkpt><trkpt lat="45.66401557138254" lon="9.303663669960955"><ele>257.0</ele><time>2026-03-16T15:48:20Z</time></trkpt><trkpt lat="45.66411500355406" lon="9.303645108896442"><ele>257.0</ele><time>2026-03-16T15:48:21Z</time></trkpt><trkpt lat="45.664213850035296" lon="9.30363425119788"><ele>257.0</ele><time>2026-03-16T15:48:22Z</time></trkpt><trkpt lat="45.66430671503058" lon="9.303617860728716"><ele>257.0</ele><time>2026-03-16T15:48:23Z</time></trkpt><trkpt lat="45.66439487431784" lon="9.303610037856835"><ele>257.25</ele><time>2026-03-16T15:48:24Z</time></trkpt><trkpt lat="45.66448829975123" lon="9.303591343284172"><ele>257.5</ele><time>2026-03-16T15:48:25Z</time></trkpt><trkpt lat="45.664588165246336" lon="9.303559217930163"><ele>257.75</ele><time>2026-03-16T15:48:26Z</time></trkpt><trkpt lat="45.66468113163425" lon="9.303563351866133"><ele>258.0</ele><time>2026-03-16T15:48:27Z</time></trkpt><trkpt lat="45.66486967436061" lon="9.303516392270422"><ele>258.0</ele><time>2026-03-16T15:48:28Z</time></trkpt><trkpt lat="45.66502497619107" lon="9.303503236651327"><ele>258.0</ele><time>2026-03-16T15:48:29Z</time></trkpt><trkpt lat="45.665133316501084" lon="9.303491689532615"><ele>258.0</ele><time>2026-03-16T15:48:30Z</time></trkpt><trkpt lat="45.66521165752811" lon="9.303480747228162"><ele>258.0</ele><time>2026-03-16T15:48:31Z</time></trkpt><trkpt lat="45.665313723734876" lon="9.303463525028539"><ele>258.0</ele><time>2026-03-16T15:48:33Z</time></trkpt><trkpt lat="45.665434013969936" lon="9.30344661583852"><ele>258.0</ele><time>2026-03-16T15:48:35Z</time></trkpt><trkpt lat="45.66550278221223" lon="9.303433580315117"><ele>258.0</ele><time>2026-03-16T15:48:36Z</time></trkpt><trkpt lat="45.66557181114751" lon="9.303421935757566"><ele>258.0</ele><time>2026-03-16T15:48:37Z</time></trkpt><trkpt lat="45.66565337547373" lon="9.303421971827852"><ele>258.0</ele><time>2026-03-16T15:48:38Z</time></trkpt><trkpt lat="45.66574301740136" lon="9.303442423730532"><ele>258.0</ele><time>2026-03-16T15:48:39Z</time></trkpt><trkpt lat="45.66582951798428" lon="9.303476225349025"><ele>258.0</ele><time>2026-03-16T15:48:40Z</time></trkpt><trkpt lat="45.66592168943924" lon="9.30349386627708"><ele>258.0</ele><time>2026-03-16T15:48:41Z</time></trkpt><trkpt lat="45.66600585351091" lon="9.303455745044621"><ele>258.0</ele><time>2026-03-16T15:48:42Z</time></trkpt><trkpt lat="45.66608079650551" lon="9.303369058660104"><ele>258.0</ele><time>2026-03-16T15:48:43Z</time></trkpt><trkpt lat="45.666169068923686" lon="9.303309561472746"><ele>258.0</ele><time>2026-03-16T15:48:44Z</time></trkpt><trkpt lat="45.66628239226414" lon="9.303301458766862"><ele>258.0</ele><time>2026-03-16T15:48:45Z</time></trkpt><trkpt lat="45.66640799592947" lon="9.303293809980522"><ele>258.5</ele><time>2026-03-16T15:48:46Z</time></trkpt><trkpt lat="45.66652848711004" lon="9.303283571336273"><ele>259.0</ele><time>2026-03-16T15:48:47Z</time></trkpt><trkpt lat="45.666652526415106" lon="9.303260736956812"><ele>259.5</ele><time>2026-03-16T15:48:48Z</time></trkpt><trkpt lat="45.666759535395826" lon="9.303239548469286"><ele>260.0</ele><time>2026-03-16T15:48:49Z</time></trkpt><trkpt lat="45.666859985659435" lon="9.303223429983937"><ele>260.6</ele><time>2026-03-16T15:48:50Z</time></trkpt><trkpt lat="45.666959054346876" lon="9.303212059599861"><ele>261.2</ele><time>2026-03-16T15:48:51Z</time></trkpt><trkpt lat="45.66706440392078" lon="9.30320228771764"><ele>261.8</ele><time>2026-03-16T15:48:52Z</time></trkpt><trkpt lat="45.667174410377775" lon="9.303190539656963"><ele>262.4</ele><time>2026-03-16T15:48:53Z</time></trkpt><trkpt lat="45.667290783190055" lon="9.303186859320315"><ele>263.0</ele><time>2026-03-16T15:48:54Z</time></trkpt><trkpt lat="45.66742470280303" lon="9.303197927346014"><ele>263.0</ele><time>2026-03-16T15:48:55Z</time></trkpt><trkpt lat="45.66757952895406" lon="9.303189822312529"><ele>263.0</ele><time>2026-03-16T15:48:56Z</time></trkpt><trkpt lat="45.66775863331737" lon="9.303195740491097"><ele>263.0</ele><time>2026-03-16T15:48:57Z</time></trkpt><trkpt lat="45.66795668019362" lon="9.303208597839314"><ele>263.0</ele><time>2026-03-16T15:48:58Z</time></trkpt><trkpt lat="45.668160115955594" lon="9.303243872432436"><ele>263.0</ele><time>2026-03-16T15:48:59Z</time></trkpt><trkpt lat="45.668370320416116" lon="9.303265099032748"><ele>263.0</ele><time>2026-03-16T15:49:00Z</time></trkpt><trkpt lat="45.66859805796028" lon="9.303282779943782"><ele>264.0</ele><time>2026-03-16T15:49:01Z</time></trkpt><trkpt lat="45.66879768863512" lon="9.30330655143591"><ele>265.0</ele><time>2026-03-16T15:49:02Z</time></trkpt><trkpt lat="45.66898491733387" lon="9.303317180027124"><ele>266.0</ele><time>2026-03-16T15:49:03Z</time></trkpt><trkpt lat="45.66915417557927" lon="9.303342944389335"><ele>266.0</ele><time>2026-03-16T15:49:04Z</time></trkpt><trkpt lat="45.669300416476794" lon="9.303381310465413"><ele>266.0</ele><time>2026-03-16T15:49:05Z</time></trkpt><trkpt lat="45.66942408632002" lon="9.303405732715992"><ele>266.0</ele><time>2026-03-16T15:49:06Z</time></trkpt><trkpt lat="45.66952671551724" lon="9.303429266561317"><ele>266.0</ele><time>2026-03-16T15:49:07Z</time></trkpt><trkpt lat="45.66965161396693" lon="9.303457792531516"><ele>267.0</ele><time>2026-03-16T15:49:08Z</time></trkpt><trkpt lat="45.66979823999668" lon="9.303481109890189"><ele>268.0</ele><time>2026-03-16T15:49:09Z</time></trkpt><trkpt lat="45.66995168132348" lon="9.30351283391391"><ele>269.0</ele><time>2026-03-16T15:49:10Z</time></trkpt><trkpt lat="45.670086354984136" lon="9.303543669166586"><ele>270.0</ele><time>2026-03-16T15:49:11Z</time></trkpt><trkpt lat="45.6702053434333" lon="9.303586002308647"><ele>271.0</ele><time>2026-03-16T15:49:12Z</time></trkpt><trkpt lat="45.67032001605795" lon="9.303605385984689"><ele>272.0</ele><time>2026-03-16T15:49:13Z</time></trkpt><trkpt lat="45.670431379079844" lon="9.303637560555288"><ele>273.0</ele><time>2026-03-16T15:49:14Z</time></trkpt><trkpt lat="45.67055469802981" lon="9.303667272388553"><ele>274.0</ele><time>2026-03-16T15:49:15Z</time></trkpt><trkpt lat="45.670677922219845" lon="9.3036980800804"><ele>274.0</ele><time>2026-03-16T15:49:16Z</time></trkpt><trkpt lat="45.67080457775796" lon="9.303731420286827"><ele>274.0</ele><time>2026-03-16T15:49:17Z</time></trkpt><trkpt lat="45.67091009902547" lon="9.3037560734005"><ele>274.0</ele><time>2026-03-16T15:49:18Z</time></trkpt><trkpt lat="45.6710087216553" lon="9.303777547365272"><ele>274.0</ele><time>2026-03-16T15:49:19Z</time></trkpt><trkpt lat="45.671116687175825" lon="9.303794355828774"><ele>274.0</ele><time>2026-03-16T15:49:20Z</time></trkpt><trkpt lat="45.67122997397089" lon="9.303782807743566"><ele>274.0</ele><time>2026-03-16T15:49:21Z</time></trkpt><trkpt lat="45.67134742774449" lon="9.303758468350942"><ele>274.0</ele><time>2026-03-16T15:49:22Z</time></trkpt><trkpt lat="45.67145402966244" lon="9.303723668368633"><ele>274.0</ele><time>2026-03-16T15:49:23Z</time></trkpt><trkpt lat="45.67158982008266" lon="9.303694533374644"><ele>274.0</ele><time>2026-03-16T15:49:24Z</time></trkpt><trkpt lat="45.671732613888565" lon="9.303667235237732"><ele>274.0</ele><time>2026-03-16T15:49:25Z</time></trkpt><trkpt lat="45.67189474117092" lon="9.303611068985495"><ele>274.0</ele><time>2026-03-16T15:49:26Z</time></trkpt><trkpt lat="45.672055686375295" lon="9.303586394117087"><ele>274.0</ele><time>2026-03-16T15:49:27Z</time></trkpt><trkpt lat="45.6722124094601" lon="9.303542448495177"><ele>274.75</ele><time>2026-03-16T15:49:28Z</time></trkpt><trkpt lat="45.67235211271809" lon="9.303515154592976"><ele>275.5</ele><time>2026-03-16T15:49:29Z</time></trkpt><trkpt lat="45.672490484146564" lon="9.303477811653158"><ele>276.25</ele><time>2026-03-16T15:49:30Z</time></trkpt><trkpt lat="45.67261640450523" lon="9.30343692687535"><ele>277.0</ele><time>2026-03-16T15:49:31Z</time></trkpt><trkpt lat="45.67273361966196" lon="9.303394263336816"><ele>277.6</ele><time>2026-03-16T15:49:32Z</time></trkpt><trkpt lat="45.67285850415588" lon="9.303368924996867"><ele>278.2</ele><time>2026-03-16T15:49:33Z</time></trkpt><trkpt lat="45.67296699536794" lon="9.303330978594628"><ele>278.8</ele><time>2026-03-16T15:49:34Z</time></trkpt><trkpt lat="45.67309776342127" lon="9.30329717692345"><ele>279.4</ele><time>2026-03-16T15:49:35Z</time></trkpt><trkpt lat="45.67316753464337" lon="9.303265420483138"><ele>280.0</ele><time>2026-03-16T15:49:36Z</time></trkpt><trkpt lat="45.673307578379436" lon="9.303240845339294"><ele>280.0</ele><time>2026-03-16T15:49:37Z</time></trkpt><trkpt lat="45.673456169799174" lon="9.303219525208315"><ele>280.0</ele><time>2026-03-16T15:49:38Z</time></trkpt><trkpt lat="45.67359991308731" lon="9.30322781952383"><ele>280.0</ele><time>2026-03-16T15:49:39Z</time></trkpt><trkpt lat="45.67375069322703" lon="9.303283193363018"><ele>280.0</ele><time>2026-03-16T15:49:40Z</time></trkpt><trkpt lat="45.673888520551955" lon="9.303363297215455"><ele>281.5</ele><time>2026-03-16T15:49:41Z</time></trkpt><trkpt lat="45.67401503411837" lon="9.303423300299553"><ele>283.0</ele><time>2026-03-16T15:49:42Z</time></trkpt><trkpt lat="45.6741505794676" lon="9.303423048657034"><ele>284.5</ele><time>2026-03-16T15:49:43Z</time></trkpt><trkpt lat="45.67429145798724" lon="9.303371196338386"><ele>286.0</ele><time>2026-03-16T15:49:44Z</time></trkpt><trkpt lat="45.67440654475198" lon="9.30329488352423"><ele>286.0</ele><time>2026-03-16T15:49:45Z</time></trkpt><trkpt lat="45.67452260271055" lon="9.303231668902804"><ele>286.0</ele><time>2026-03-16T15:49:46Z</time></trkpt><trkpt lat="45.6746499122779" lon="9.303205705766022"><ele>286.0</ele><time>2026-03-16T15:49:47Z</time></trkpt><trkpt lat="45.67478406378968" lon="9.303178993210908"><ele>286.0</ele><time>2026-03-16T15:49:48Z</time></trkpt><trkpt lat="45.674911914672734" lon="9.303195304968233"><ele>286.0</ele><time>2026-03-16T15:49:49Z</time></trkpt><trkpt lat="45.67501873526235" lon="9.303233424364633"><ele>286.0</ele><time>2026-03-16T15:49:50Z</time></trkpt><trkpt lat="45.67510319933842" lon="9.303262344818476"><ele>286.0</ele><time>2026-03-16T15:49:51Z</time></trkpt><trkpt lat="45.67518393168952" lon="9.303310620300287"><ele>286.0</ele><time>2026-03-16T15:49:52Z</time></trkpt><trkpt lat="45.67525141286898" lon="9.30328924508865"><ele>286.0</ele><time>2026-03-16T15:49:53Z</time></trkpt><trkpt lat="45.67532395327886" lon="9.30320507577996"><ele>286.0</ele><time>2026-03-16T15:49:54Z</time></trkpt><trkpt lat="45.67537663317422" lon="9.303047985076738"><ele>284.66666666666663</ele><time>2026-03-16T15:49:55Z</time></trkpt><trkpt lat="45.67541848053537" lon="9.302839363326623"><ele>283.3333333333333</ele><time>2026-03-16T15:49:56Z</time></trkpt><trkpt lat="45.67546875997685" lon="9.30262311538689"><ele>282.0</ele><time>2026-03-16T15:49:57Z</time></trkpt><trkpt lat="45.67552043973115" lon="9.302423713444961"><ele>282.75</ele><time>2026-03-16T15:49:58Z</time></trkpt><trkpt lat="45.675582925660954" lon="9.30222832358798"><ele>283.5</ele><time>2026-03-16T15:49:59Z</time></trkpt><trkpt lat="45.67564875311551" lon="9.302039411597892"><ele>284.25</ele><time>2026-03-16T15:50:00Z</time></trkpt><trkpt lat="45.675720712944866" lon="9.301906830234651"><ele>285.0</ele><time>2026-03-16T15:50:01Z</time></trkpt><trkpt lat="45.675841656354194" lon="9.301734292364722"><ele>285.0</ele><time>2026-03-16T15:50:02Z</time></trkpt><trkpt lat="45.6758958196701" lon="9.301578173463488"><ele>285.0</ele><time>2026-03-16T15:50:03Z</time></trkpt><trkpt lat="45.67593993675069" lon="9.301453091982475"><ele>285.0</ele><time>2026-03-16T15:50:04Z</time></trkpt><trkpt lat="45.6760508078338" lon="9.301310366329574"><ele>285.0</ele><time>2026-03-16T15:50:05Z</time></trkpt><trkpt lat="45.67614163097694" lon="9.301165279805991"><ele>285.75</ele><time>2026-03-16T15:50:06Z</time></trkpt><trkpt lat="45.67622626178778" lon="9.301012728220241"><ele>286.5</ele><time>2026-03-16T15:50:07Z</time></trkpt><trkpt lat="45.67630909204732" lon="9.30086173458813"><ele>287.25</ele><time>2026-03-16T15:50:08Z</time></trkpt><trkpt lat="45.67639150522149" lon="9.300704561235259"><ele>288.0</ele><time>2026-03-16T15:50:09Z</time></trkpt><trkpt lat="45.67647010227149" lon="9.300561985395094"><ele>288.0</ele><time>2026-03-16T15:50:10Z</time></trkpt><trkpt lat="45.676547649491305" lon="9.300424126408307"><ele>288.0</ele><time>2026-03-16T15:50:11Z</time></trkpt><trkpt lat="45.67662907337912" lon="9.30027353698045"><ele>288.0</ele><time>2026-03-16T15:50:12Z</time></trkpt><trkpt lat="45.67670179869789" lon="9.300098662466715"><ele>288.0</ele><time>2026-03-16T15:50:13Z</time></trkpt><trkpt lat="45.676793607518015" lon="9.299980292570966"><ele>288.0</ele><time>2026-03-16T15:50:14Z</time></trkpt><trkpt lat="45.67688339239187" lon="9.299760325063843"><ele>288.0</ele><time>2026-03-16T15:50:15Z</time></trkpt><trkpt lat="45.67698607977166" lon="9.299513814874198"><ele>288.0</ele><time>2026-03-16T15:50:16Z</time></trkpt><trkpt lat="45.67710146981201" lon="9.299398995674343"><ele>287.0</ele><time>2026-03-16T15:50:18Z</time></trkpt><trkpt lat="45.6771830497744" lon="9.299305428658668"><ele>286.0</ele><time>2026-03-16T15:50:19Z</time></trkpt><trkpt lat="45.67728728936943" lon="9.299247380391801"><ele>285.0</ele><time>2026-03-16T15:50:20Z</time></trkpt><trkpt lat="45.677420610090095" lon="9.299246187548336"><ele>284.0</ele><time>2026-03-16T15:50:21Z</time></trkpt><trkpt lat="45.67755639040243" lon="9.299260819660613"><ele>284.0</ele><time>2026-03-16T15:50:22Z</time></trkpt><trkpt lat="45.67767969381025" lon="9.2992749216892"><ele>284.0</ele><time>2026-03-16T15:50:23Z</time></trkpt><trkpt lat="45.67779324629096" lon="9.299274727844244"><ele>284.0</ele><time>2026-03-16T15:50:24Z</time></trkpt><trkpt lat="45.67791136816714" lon="9.299272530543066"><ele>284.0</ele><time>2026-03-16T15:50:25Z</time></trkpt><trkpt lat="45.67803058625296" lon="9.29926071401582"><ele>284.25</ele><time>2026-03-16T15:50:26Z</time></trkpt><trkpt lat="45.67816212278161" lon="9.29926393679953"><ele>284.5</ele><time>2026-03-16T15:50:27Z</time></trkpt><trkpt lat="45.67831043052271" lon="9.29926787942046"><ele>284.75</ele><time>2026-03-16T15:50:28Z</time></trkpt><trkpt lat="45.67843835848224" lon="9.299263828600862"><ele>285.0</ele><time>2026-03-16T15:50:29Z</time></trkpt><trkpt lat="45.6785611324302" lon="9.299260418392567"><ele>285.0</ele><time>2026-03-16T15:50:30Z</time></trkpt><trkpt lat="45.678680407428544" lon="9.29926287903402"><ele>285.0</ele><time>2026-03-16T15:50:31Z</time></trkpt><trkpt lat="45.67878882852058" lon="9.299247853937668"><ele>285.0</ele><time>2026-03-16T15:50:32Z</time></trkpt><trkpt lat="45.67887187980898" lon="9.299186423081421"><ele>285.0</ele><time>2026-03-16T15:50:33Z</time></trkpt><trkpt lat="45.678944154744045" lon="9.299053083651724"><ele>285.0</ele><time>2026-03-16T15:50:34Z</time></trkpt><trkpt lat="45.67900487452226" lon="9.298921814854538"><ele>282.4</ele><time>2026-03-16T15:50:35Z</time></trkpt><trkpt lat="45.679056359660834" lon="9.298793022105556"><ele>279.8</ele><time>2026-03-16T15:50:36Z</time></trkpt><trkpt lat="45.67911729262711" lon="9.298681958691137"><ele>277.2</ele><time>2026-03-16T15:50:37Z</time></trkpt><trkpt lat="45.67919212128359" lon="9.298569231913707"><ele>274.6</ele><time>2026-03-16T15:50:38Z</time></trkpt><trkpt lat="45.67927355328061" lon="9.298462569400382"><ele>272.0</ele><time>2026-03-16T15:50:39Z</time></trkpt><trkpt lat="45.67942263949745" lon="9.298396937033136"><ele>271.75</ele><time>2026-03-16T15:50:40Z</time></trkpt><trkpt lat="45.67954153269633" lon="9.298337789114425"><ele>271.5</ele><time>2026-03-16T15:50:41Z</time></trkpt><trkpt lat="45.679668079603886" lon="9.298323450262725"><ele>271.25</ele><time>2026-03-16T15:50:42Z</time></trkpt><trkpt lat="45.67978720867919" lon="9.298328151338563"><ele>271.0</ele><time>2026-03-16T15:50:43Z</time></trkpt><trkpt lat="45.67992327304666" lon="9.298345960667422"><ele>271.0</ele><time>2026-03-16T15:50:44Z</time></trkpt><trkpt lat="45.6800338425748" lon="9.298353542605582"><ele>271.0</ele><time>2026-03-16T15:50:44.999Z</time></trkpt><trkpt lat="45.68014059579974" lon="9.298372351188895"><ele>271.0</ele><time>2026-03-16T15:50:45.999Z</time></trkpt><trkpt lat="45.680248527823466" lon="9.298411966226128"><ele>271.0</ele><time>2026-03-16T15:50:46.999Z</time></trkpt><trkpt lat="45.6803421872863" lon="9.29845143584814"><ele>271.0</ele><time>2026-03-16T15:50:47.999Z</time></trkpt><trkpt lat="45.68042693938824" lon="9.298454691251347"><ele>269.25</ele><time>2026-03-16T15:50:48.999Z</time></trkpt><trkpt lat="45.68053166890432" lon="9.29841827245365"><ele>267.5</ele><time>2026-03-16T15:50:49.999Z</time></trkpt><trkpt lat="45.68063783467683" lon="9.298323953153975"><ele>265.75</ele><time>2026-03-16T15:50:50.999Z</time></trkpt><trkpt lat="45.680742299637146" lon="9.298218357653587"><ele>264.0</ele><time>2026-03-16T15:50:51.999Z</time></trkpt><trkpt lat="45.68085247110259" lon="9.298119029889051"><ele>264.5</ele><time>2026-03-16T15:50:52.999Z</time></trkpt><trkpt lat="45.680968242959814" lon="9.298008940533887"><ele>265.0</ele><time>2026-03-16T15:50:53.999Z</time></trkpt><trkpt lat="45.6810869840915" lon="9.297910144037912"><ele>265.5</ele><time>2026-03-16T15:50:54.999Z</time></trkpt><trkpt lat="45.681200904133505" lon="9.297817484124167"><ele>266.0</ele><time>2026-03-16T15:50:55.999Z</time></trkpt><trkpt lat="45.68132492812028" lon="9.297711995221421"><ele>266.0</ele><time>2026-03-16T15:50:56.999Z</time></trkpt><trkpt lat="45.681458373848024" lon="9.297586858412679"><ele>266.0</ele><time>2026-03-16T15:50:57.999Z</time></trkpt><trkpt lat="45.681590242476744" lon="9.297468989349253"><ele>266.0</ele><time>2026-03-16T15:50:58.999Z</time></trkpt><trkpt lat="45.68171367405581" lon="9.297338364537527"><ele>268.6666666666667</ele><time>2026-03-16T15:50:59.999Z</time></trkpt><trkpt lat="45.68182636390869" lon="9.297169570392995"><ele>271.3333333333333</ele><time>2026-03-16T15:51:00.999Z</time></trkpt><trkpt lat="45.681932016058575" lon="9.296985025281973"><ele>274.0</ele><time>2026-03-16T15:51:02Z</time></trkpt><trkpt lat="45.682031222261685" lon="9.296807972896131"><ele>275.5</ele><time>2026-03-16T15:51:03Z</time></trkpt><trkpt lat="45.68213170490515" lon="9.296638960323923"><ele>277.0</ele><time>2026-03-16T15:51:04Z</time></trkpt><trkpt lat="45.68222494876802" lon="9.296479271063776"><ele>278.5</ele><time>2026-03-16T15:51:05Z</time></trkpt><trkpt lat="45.68230228752113" lon="9.296346599532853"><ele>280.0</ele><time>2026-03-16T15:51:06Z</time></trkpt><trkpt lat="45.68234976738874" lon="9.296198615258879"><ele>280.0</ele><time>2026-03-16T15:51:07Z</time></trkpt><trkpt lat="45.68236556348452" lon="9.296010958228843"><ele>280.0</ele><time>2026-03-16T15:51:08Z</time></trkpt><trkpt lat="45.68235025522702" lon="9.2957791810639"><ele>280.0</ele><time>2026-03-16T15:51:09Z</time></trkpt><trkpt lat="45.68232860531097" lon="9.295554759041561"><ele>280.6</ele><time>2026-03-16T15:51:10Z</time></trkpt><trkpt lat="45.68230659679918" lon="9.295368021977609"><ele>281.2</ele><time>2026-03-16T15:51:11Z</time></trkpt><trkpt lat="45.6822982883424" lon="9.295214981554981"><ele>281.8</ele><time>2026-03-16T15:51:12Z</time></trkpt><trkpt lat="45.682305524717464" lon="9.295082913630901"><ele>282.4</ele><time>2026-03-16T15:51:13Z</time></trkpt><trkpt lat="45.6823604532702" lon="9.294952285970123"><ele>283.0</ele><time>2026-03-16T15:51:14Z</time></trkpt><trkpt lat="45.682458831941666" lon="9.294852785428992"><ele>283.0</ele><time>2026-03-16T15:51:15Z</time></trkpt><trkpt lat="45.68258113174941" lon="9.294796390715433"><ele>283.0</ele><time>2026-03-16T15:51:16Z</time></trkpt><trkpt lat="45.682730706288496" lon="9.294741741143794"><ele>283.0</ele><time>2026-03-16T15:51:17Z</time></trkpt><trkpt lat="45.6828541720658" lon="9.294695845939316"><ele>283.0</ele><time>2026-03-16T15:51:18Z</time></trkpt><trkpt lat="45.682961118083476" lon="9.294645302078484"><ele>285.25</ele><time>2026-03-16T15:51:19Z</time></trkpt><trkpt lat="45.68307983339708" lon="9.294576743429445"><ele>287.5</ele><time>2026-03-16T15:51:20Z</time></trkpt><trkpt lat="45.68319397815693" lon="9.294472954947706"><ele>289.75</ele><time>2026-03-16T15:51:21Z</time></trkpt><trkpt lat="45.683303329346565" lon="9.294361130369575"><ele>292.0</ele><time>2026-03-16T15:51:22Z</time></trkpt><trkpt lat="45.683404370515305" lon="9.294242709513954"><ele>292.0</ele><time>2026-03-16T15:51:23Z</time></trkpt><trkpt lat="45.683502572792044" lon="9.294139078497354"><ele>292.0</ele><time>2026-03-16T15:51:24Z</time></trkpt><trkpt lat="45.68360193492932" lon="9.294036336526704"><ele>292.0</ele><time>2026-03-16T15:51:25Z</time></trkpt><trkpt lat="45.6836937411153" lon="9.293935698139967"><ele>292.0</ele><time>2026-03-16T15:51:26Z</time></trkpt><trkpt lat="45.683788572781616" lon="9.293842139427905"><ele>293.25</ele><time>2026-03-16T15:51:27Z</time></trkpt><trkpt lat="45.683891404318544" lon="9.293738687428947"><ele>294.5</ele><time>2026-03-16T15:51:28Z</time></trkpt><trkpt lat="45.68400194143475" lon="9.293624855991931"><ele>295.75</ele><time>2026-03-16T15:51:29Z</time></trkpt><trkpt lat="45.684107346115155" lon="9.293521071007564"><ele>297.0</ele><time>2026-03-16T15:51:30Z</time></trkpt><trkpt lat="45.684207439980874" lon="9.293416983918139"><ele>297.0</ele><time>2026-03-16T15:51:31Z</time></trkpt><trkpt lat="45.684300178414404" lon="9.293310788947016"><ele>297.0</ele><time>2026-03-16T15:51:32Z</time></trkpt><trkpt lat="45.68439686004153" lon="9.293213471700556"><ele>297.0</ele><time>2026-03-16T15:51:33Z</time></trkpt><trkpt lat="45.68449139865994" lon="9.293122300535817"><ele>297.0</ele><time>2026-03-16T15:51:34Z</time></trkpt><trkpt lat="45.68457917124101" lon="9.293032013591718"><ele>298.2</ele><time>2026-03-16T15:51:35Z</time></trkpt><trkpt lat="45.68467570109218" lon="9.292932582056654"><ele>299.4</ele><time>2026-03-16T15:51:36Z</time></trkpt><trkpt lat="45.68475179409473" lon="9.292834679826969"><ele>300.6</ele><time>2026-03-16T15:51:37Z</time></trkpt><trkpt lat="45.68484471702838" lon="9.292759797564292"><ele>301.8</ele><time>2026-03-16T15:51:38Z</time></trkpt><trkpt lat="45.68492732037103" lon="9.292679106150434"><ele>303.0</ele><time>2026-03-16T15:51:39Z</time></trkpt><trkpt lat="45.68501106026242" lon="9.29260049746253"><ele>303.0</ele><time>2026-03-16T15:51:40Z</time></trkpt><trkpt lat="45.68509289470454" lon="9.292525776665022"><ele>303.0</ele><time>2026-03-16T15:51:41Z</time></trkpt><trkpt lat="45.68516416047556" lon="9.29243721016342"><ele>303.0</ele><time>2026-03-16T15:51:42Z</time></trkpt><trkpt lat="45.685246253117356" lon="9.292351612920163"><ele>303.0</ele><time>2026-03-16T15:51:43Z</time></trkpt><trkpt lat="45.685327053620824" lon="9.29225963980961"><ele>303.0</ele><time>2026-03-16T15:51:44Z</time></trkpt><trkpt lat="45.685406912498095" lon="9.292158392815141"><ele>303.0</ele><time>2026-03-16T15:51:45Z</time></trkpt><trkpt lat="45.68548076722469" lon="9.292056459242719"><ele>303.0</ele><time>2026-03-16T15:51:46Z</time></trkpt><trkpt lat="45.685543766091676" lon="9.291960112795739"><ele>303.0</ele><time>2026-03-16T15:51:47Z</time></trkpt><trkpt lat="45.68560577850452" lon="9.291881126062517"><ele>303.0</ele><time>2026-03-16T15:51:48Z</time></trkpt><trkpt lat="45.68567020671982" lon="9.291797998634058"><ele>303.0</ele><time>2026-03-16T15:51:49Z</time></trkpt><trkpt lat="45.68573853825261" lon="9.291726450082773"><ele>303.0</ele><time>2026-03-16T15:51:50Z</time></trkpt><trkpt lat="45.68581001781152" lon="9.291674285282035"><ele>303.0</ele><time>2026-03-16T15:51:51Z</time></trkpt><trkpt lat="45.685885433116724" lon="9.291623763770406"><ele>303.0</ele><time>2026-03-16T15:51:52Z</time></trkpt><trkpt lat="45.68597022282313" lon="9.29161802349724"><ele>303.0</ele><time>2026-03-16T15:51:53Z</time></trkpt><trkpt lat="45.68604460549089" lon="9.291584907306468"><ele>303.0</ele><time>2026-03-16T15:51:54Z</time></trkpt><trkpt lat="45.68610312083743" lon="9.291512360120688"><ele>303.0</ele><time>2026-03-16T15:51:55Z</time></trkpt><trkpt lat="45.6861355953276" lon="9.291391476851881"><ele>303.0</ele><time>2026-03-16T15:51:56Z</time></trkpt><trkpt lat="45.686118584388176" lon="9.291236197375207"><ele>303.5</ele><time>2026-03-16T15:51:57Z</time></trkpt><trkpt lat="45.686102105014065" lon="9.291071987540379"><ele>304.0</ele><time>2026-03-16T15:51:58Z</time></trkpt><trkpt lat="45.68612648372905" lon="9.290896600329559"><ele>304.5</ele><time>2026-03-16T15:51:59Z</time></trkpt><trkpt lat="45.6861834756459" lon="9.29074174941169"><ele>305.0</ele><time>2026-03-16T15:52:00Z</time></trkpt><trkpt lat="45.68623605309796" lon="9.290576527134604"><ele>305.0</ele><time>2026-03-16T15:52:01Z</time></trkpt><trkpt lat="45.68627664997376" lon="9.290430954553752"><ele>305.0</ele><time>2026-03-16T15:52:02Z</time></trkpt><trkpt lat="45.68631309305156" lon="9.290293086433628"><ele>305.0</ele><time>2026-03-16T15:52:03Z</time></trkpt><trkpt lat="45.68635194393013" lon="9.290143045153988"><ele>305.0</ele><time>2026-03-16T15:52:04Z</time></trkpt><trkpt lat="45.68638631247968" lon="9.28995809621633"><ele>305.0</ele><time>2026-03-16T15:52:05Z</time></trkpt><trkpt lat="45.68640039197665" lon="9.289769325598169"><ele>305.0</ele><time>2026-03-16T15:52:06Z</time></trkpt><trkpt lat="45.68637765133446" lon="9.289600092841004"><ele>305.0</ele><time>2026-03-16T15:52:07Z</time></trkpt><trkpt lat="45.686346671976736" lon="9.289465316324803"><ele>305.0</ele><time>2026-03-16T15:52:08Z</time></trkpt><trkpt lat="45.68633926038903" lon="9.28935811483818"><ele>305.0</ele><time>2026-03-16T15:52:09Z</time></trkpt><trkpt lat="45.68637448826432" lon="9.289242092155177"><ele>305.4</ele><time>2026-03-16T15:52:11Z</time></trkpt><trkpt lat="45.6864112048488" lon="9.289143154953415"><ele>305.8</ele><time>2026-03-16T15:52:15Z</time></trkpt><trkpt lat="45.68634110050475" lon="9.289000422348005"><ele>306.2</ele><time>2026-03-16T15:52:17Z</time></trkpt><trkpt lat="45.686244669986614" lon="9.28895959802596"><ele>306.6</ele><time>2026-03-16T15:52:18Z</time></trkpt><trkpt lat="45.686125814125226" lon="9.28894409309176"><ele>307.0</ele><time>2026-03-16T15:52:19Z</time></trkpt><trkpt lat="45.68600487501448" lon="9.28888646136862"><ele>305.5</ele><time>2026-03-16T15:52:20Z</time></trkpt><trkpt lat="45.68586861328561" lon="9.288820585763661"><ele>304.0</ele><time>2026-03-16T15:52:21Z</time></trkpt><trkpt lat="45.68576465199808" lon="9.2887719361028"><ele>302.5</ele><time>2026-03-16T15:52:22Z</time></trkpt><trkpt lat="45.685640293937006" lon="9.288720948721913"><ele>301.0</ele><time>2026-03-16T15:52:23Z</time></trkpt><trkpt lat="45.68553083253137" lon="9.288669919068198"><ele>301.0</ele><time>2026-03-16T15:52:24Z</time></trkpt><trkpt lat="45.68545576624134" lon="9.28864180880013"><ele>301.0</ele><time>2026-03-16T15:52:25Z</time></trkpt><trkpt lat="45.685421602277714" lon="9.288524134243744"><ele>301.0</ele><time>2026-03-16T15:52:27Z</time></trkpt><trkpt lat="45.68541305043802" lon="9.288404975520628"><ele>301.0</ele><time>2026-03-16T15:52:28Z</time></trkpt><trkpt lat="45.68538061016004" lon="9.288253329307658"><ele>301.0</ele><time>2026-03-16T15:52:29Z</time></trkpt><trkpt lat="45.685320311690226" lon="9.28811024487475"><ele>301.0</ele><time>2026-03-16T15:52:30Z</time></trkpt><trkpt lat="45.68523918894115" lon="9.287977480363068"><ele>301.0</ele><time>2026-03-16T15:52:31Z</time></trkpt><trkpt lat="45.68517330777257" lon="9.287856736682391"><ele>301.0</ele><time>2026-03-16T15:52:32Z</time></trkpt><trkpt lat="45.685103791075" lon="9.287746366673792"><ele>301.0</ele><time>2026-03-16T15:52:33Z</time></trkpt><trkpt lat="45.685028744435996" lon="9.287629470125927"><ele>301.0</ele><time>2026-03-16T15:52:34Z</time></trkpt><trkpt lat="45.68496639250893" lon="9.287505059030105"><ele>301.0</ele><time>2026-03-16T15:52:35Z</time></trkpt><trkpt lat="45.68493047915381" lon="9.287381730787967"><ele>301.0</ele><time>2026-03-16T15:52:36Z</time></trkpt><trkpt lat="45.684912947794714" lon="9.287262418765867"><ele>301.0</ele><time>2026-03-16T15:52:37Z</time></trkpt><trkpt lat="45.68490647255363" lon="9.287095647903195"><ele>301.0</ele><time>2026-03-16T15:52:38Z</time></trkpt><trkpt lat="45.68490375812801" lon="9.286915772477695"><ele>301.0</ele><time>2026-03-16T15:52:39Z</time></trkpt><trkpt lat="45.68489948368161" lon="9.286781011017897"><ele>301.16666666666663</ele><time>2026-03-16T15:52:40Z</time></trkpt><trkpt lat="45.684900374665" lon="9.286658169835494"><ele>301.3333333333333</ele><time>2026-03-16T15:52:41Z</time></trkpt><trkpt lat="45.6848941553866" lon="9.286527287387448"><ele>301.5</ele><time>2026-03-16T15:52:42Z</time></trkpt><trkpt lat="45.68491295676583" lon="9.286420232268432"><ele>301.6666666666667</ele><time>2026-03-16T15:52:43Z</time></trkpt><trkpt lat="45.68490938354841" lon="9.286319242596651"><ele>301.83333333333337</ele><time>2026-03-16T15:52:44Z</time></trkpt><trkpt lat="45.68488340826614" lon="9.286229725997803"><ele>302.0</ele><time>2026-03-16T15:52:45Z</time></trkpt><trkpt lat="45.68485819680766" lon="9.286115994297946"><ele>301.8</ele><time>2026-03-16T15:52:46Z</time></trkpt><trkpt lat="45.68483238645833" lon="9.285950127723744"><ele>301.6</ele><time>2026-03-16T15:52:48Z</time></trkpt><trkpt lat="45.684777496527886" lon="9.28587091844746"><ele>301.40000000000003</ele><time>2026-03-16T15:52:49Z</time></trkpt><trkpt lat="45.68473055606616" lon="9.285766976737467"><ele>301.2</ele><time>2026-03-16T15:52:50Z</time></trkpt><trkpt lat="45.684700823434" lon="9.285660523227321"><ele>301.0</ele><time>2026-03-16T15:52:50.999Z</time></trkpt><trkpt lat="45.684674689023815" lon="9.285536323966587"><ele>301.0</ele><time>2026-03-16T15:52:51.999Z</time></trkpt><trkpt lat="45.68466861652244" lon="9.285439233165496"><ele>301.0</ele><time>2026-03-16T15:52:52.999Z</time></trkpt><trkpt lat="45.68459813981818" lon="9.285268115817216"><ele>301.0</ele><time>2026-03-16T15:52:53.999Z</time></trkpt><trkpt lat="45.6845750140961" lon="9.285137855609062"><ele>301.0</ele><time>2026-03-16T15:52:54.999Z</time></trkpt><trkpt lat="45.684558443538286" lon="9.285008287933323"><ele>301.0</ele><time>2026-03-16T15:52:55.999Z</time></trkpt><trkpt lat="45.68454690868869" lon="9.28491145989085"><ele>300.8</ele><time>2026-03-16T15:52:56.999Z</time></trkpt><trkpt lat="45.68452572990592" lon="9.284756634494403"><ele>300.6</ele><time>2026-03-16T15:52:58.999Z</time></trkpt><trkpt lat="45.684525465868695" lon="9.284646549667855"><ele>300.4</ele><time>2026-03-16T15:53:00.999Z</time></trkpt><trkpt lat="45.684520969231535" lon="9.284497243584324"><ele>300.2</ele><time>2026-03-16T15:53:02.999Z</time></trkpt><trkpt lat="45.68451039177786" lon="9.284377000963431"><ele>300.0</ele><time>2026-03-16T15:53:03.999Z</time></trkpt><trkpt lat="45.68450078666603" lon="9.284252487523457"><ele>300.0</ele><time>2026-03-16T15:53:04.999Z</time></trkpt><trkpt lat="45.68448566111766" lon="9.284128257034938"><ele>300.0</ele><time>2026-03-16T15:53:05.999Z</time></trkpt><trkpt lat="45.68447552149554" lon="9.283995729142852"><ele>300.0</ele><time>2026-03-16T15:53:06.999Z</time></trkpt><trkpt lat="45.684468625096095" lon="9.28389529325343"><ele>300.0</ele><time>2026-03-16T15:53:08Z</time></trkpt><trkpt lat="45.68447386932304" lon="9.283729578462637"><ele>300.0</ele><time>2026-03-16T15:53:10Z</time></trkpt><trkpt lat="45.68451586018542" lon="9.283621993270797"><ele>300.6</ele><time>2026-03-16T15:53:12Z</time></trkpt><trkpt lat="45.684600393089596" lon="9.283496351579295"><ele>301.2</ele><time>2026-03-16T15:53:14Z</time></trkpt><trkpt lat="45.684691249300286" lon="9.283383631908666"><ele>301.8</ele><time>2026-03-16T15:53:16Z</time></trkpt><trkpt lat="45.68472235887127" lon="9.28329812975607"><ele>302.4</ele><time>2026-03-16T15:53:17Z</time></trkpt><trkpt lat="45.68476056688947" lon="9.283174031440947"><ele>303.0</ele><time>2026-03-16T15:53:19Z</time></trkpt><trkpt lat="45.68483410425815" lon="9.28309787950819"><ele>303.0</ele><time>2026-03-16T15:53:21Z</time></trkpt><trkpt lat="45.68493933141971" lon="9.283048269705551"><ele>303.0</ele><time>2026-03-16T15:53:23Z</time></trkpt><trkpt lat="45.685033058353746" lon="9.282986951815097"><ele>303.0</ele><time>2026-03-16T15:53:25Z</time></trkpt><trkpt lat="45.685109160753775" lon="9.282893420492107"><ele>303.0</ele><time>2026-03-16T15:53:27Z</time></trkpt><trkpt lat="45.68515869976782" lon="9.28281358486775"><ele>303.0</ele><time>2026-03-16T15:53:29Z</time></trkpt><trkpt lat="45.68522532352644" lon="9.282750515290639"><ele>302.6</ele><time>2026-03-16T15:53:31Z</time></trkpt><trkpt lat="45.68528681163075" lon="9.282717797817593"><ele>302.20000000000005</ele><time>2026-03-16T15:53:33Z</time></trkpt><trkpt lat="45.685360355765496" lon="9.28278708328284"><ele>301.8</ele><time>2026-03-16T15:53:36Z</time></trkpt><trkpt lat="45.6854399056628" lon="9.282843441474519"><ele>301.40000000000003</ele><time>2026-03-16T15:53:39Z</time></trkpt><trkpt lat="45.68547550895163" lon="9.282730868794681"><ele>301.0</ele><time>2026-03-16T15:53:41Z</time></trkpt><trkpt lat="45.68537827603285" lon="9.282610054507943"><ele>301.0</ele><time>2026-03-16T15:53:43Z</time></trkpt><trkpt lat="45.68532583543036" lon="9.282534649598785"><ele>301.0</ele><time>2026-03-16T15:53:44Z</time></trkpt><trkpt lat="45.685258682109655" lon="9.282405748538336"><ele>301.0</ele><time>2026-03-16T15:53:46Z</time></trkpt><trkpt lat="45.68515139187704" lon="9.282293824330157"><ele>301.0</ele><time>2026-03-16T15:53:48Z</time></trkpt><trkpt lat="45.68509208019913" lon="9.282227174093107"><ele>301.0</ele><time>2026-03-16T15:53:49Z</time></trkpt><trkpt lat="45.68499888992957" lon="9.282104158986819"><ele>300.16666666666663</ele><time>2026-03-16T15:53:51Z</time></trkpt><trkpt lat="45.68495112975148" lon="9.282020591652236"><ele>299.3333333333333</ele><time>2026-03-16T15:53:52Z</time></trkpt><trkpt lat="45.68490952360894" lon="9.281923806780283"><ele>298.5</ele><time>2026-03-16T15:53:53Z</time></trkpt><trkpt lat="45.68486722468625" lon="9.281808724931812"><ele>297.6666666666667</ele><time>2026-03-16T15:53:54Z</time></trkpt><trkpt lat="45.684825780588554" lon="9.281699192958106"><ele>296.83333333333337</ele><time>2026-03-16T15:53:55Z</time></trkpt><trkpt lat="45.68477305018761" lon="9.281570783898472"><ele>296.0</ele><time>2026-03-16T15:53:56Z</time></trkpt><trkpt lat="45.684729976114134" lon="9.28148550760553"><ele>296.5</ele><time>2026-03-16T15:53:57Z</time></trkpt><trkpt lat="45.68469186112452" lon="9.281391589480686"><ele>297.0</ele><time>2026-03-16T15:53:58Z</time></trkpt><trkpt lat="45.68461723660871" lon="9.281282152582433"><ele>297.5</ele><time>2026-03-16T15:54:00Z</time></trkpt><trkpt lat="45.68452518650513" lon="9.28120547267086"><ele>298.0</ele><time>2026-03-16T15:54:02Z</time></trkpt><trkpt lat="45.68446961388571" lon="9.281143242062011"><ele>298.5</ele><time>2026-03-16T15:54:04Z</time></trkpt><trkpt lat="45.68442497856715" lon="9.281072812372248"><ele>299.0</ele><time>2026-03-16T15:54:06Z</time></trkpt><trkpt lat="45.68449856991971" lon="9.280992786242198"><ele>297.6666666666667</ele><time>2026-03-16T15:54:10Z</time></trkpt><trkpt lat="45.684576989044274" lon="9.281003400015042"><ele>296.33333333333337</ele><time>2026-03-16T15:54:12Z</time></trkpt><trkpt lat="45.684638152002414" lon="9.281039110733385"><ele>295.0</ele><time>2026-03-16T15:54:14Z</time></trkpt><trkpt lat="45.684732828155155" lon="9.281101166423435"><ele>293.6666666666667</ele><time>2026-03-16T15:54:16Z</time></trkpt><trkpt lat="45.684846446940384" lon="9.281129762660305"><ele>292.3333333333333</ele><time>2026-03-16T15:54:18Z</time></trkpt><trkpt lat="45.68492023477532" lon="9.281144335683454"><ele>291.0</ele><time>2026-03-16T15:54:19Z</time></trkpt><trkpt lat="45.6849863976745" lon="9.281143604963749"><ele>291.0</ele><time>2026-03-16T15:54:21Z</time></trkpt><trkpt lat="45.68502070840355" lon="9.281061941727984"><ele>291.0</ele><time>2026-03-16T15:54:23Z</time></trkpt><trkpt lat="45.684945515118685" lon="9.280967955753761"><ele>291.0</ele><time>2026-03-16T15:54:25Z</time></trkpt><trkpt lat="45.68483727692044" lon="9.280893971796816"><ele>291.0</ele><time>2026-03-16T15:54:27Z</time></trkpt><trkpt lat="45.68477260182353" lon="9.28083629545129"><ele>291.0</ele><time>2026-03-16T15:54:28Z</time></trkpt><trkpt lat="45.68469695536974" lon="9.28076513537362"><ele>291.0</ele><time>2026-03-16T15:54:30Z</time></trkpt><trkpt lat="45.684657808756704" lon="9.280678301095278"><ele>291.0</ele><time>2026-03-16T15:54:31Z</time></trkpt><trkpt lat="45.68462123550339" lon="9.280561176722923"><ele>291.0</ele><time>2026-03-16T15:54:32Z</time></trkpt><trkpt lat="45.68458687945913" lon="9.28045768629316"><ele>291.0</ele><time>2026-03-16T15:54:33Z</time></trkpt><trkpt lat="45.68453920096213" lon="9.280337733451152"><ele>291.0</ele><time>2026-03-16T15:54:35Z</time></trkpt><trkpt lat="45.68448841065279" lon="9.280256564160375"><ele>291.0</ele><time>2026-03-16T15:54:36Z</time></trkpt><trkpt lat="45.684394913736206" lon="9.280125214852209"><ele>290.8</ele><time>2026-03-16T15:54:38Z</time></trkpt><trkpt lat="45.68433005971248" lon="9.280050734567709"><ele>290.6</ele><time>2026-03-16T15:54:39Z</time></trkpt><trkpt lat="45.68425347052061" lon="9.279942596900527"><ele>290.4</ele><time>2026-03-16T15:54:41Z</time></trkpt><trkpt lat="45.684218451485584" lon="9.279845404941481"><ele>290.2</ele><time>2026-03-16T15:54:45Z</time></trkpt><trkpt lat="45.68415016031983" lon="9.279741939923246"><ele>290.0</ele><time>2026-03-16T15:54:47Z</time></trkpt><trkpt lat="45.68407297978032" lon="9.279697308606957"><ele>290.0</ele><time>2026-03-16T15:54:48Z</time></trkpt><trkpt lat="45.6840160453484" lon="9.279651568946054"><ele>290.0</ele><time>2026-03-16T15:54:49Z</time></trkpt><trkpt lat="45.68397278918308" lon="9.279582171530267"><ele>290.0</ele><time>2026-03-16T15:54:50Z</time></trkpt><trkpt lat="45.68393000406689" lon="9.279452254098"><ele>290.0</ele><time>2026-03-16T15:54:52Z</time></trkpt><trkpt lat="45.683902389258044" lon="9.279353165384023"><ele>290.0</ele><time>2026-03-16T15:54:53.999Z</time></trkpt><trkpt lat="45.68385544973088" lon="9.279250130095773"><ele>290.0</ele><time>2026-03-16T15:54:56.999Z</time></trkpt><trkpt lat="45.68382965145758" lon="9.279161372803632"><ele>290.0</ele><time>2026-03-16T15:54:58.999Z</time></trkpt><trkpt lat="45.68383460432229" lon="9.27906215850701"><ele>290.0</ele><time>2026-03-16T15:55:00.999Z</time></trkpt><trkpt lat="45.68384202998008" lon="9.27896231457647"><ele>290.0</ele><time>2026-03-16T15:55:02.999Z</time></trkpt><trkpt lat="45.683842714429005" lon="9.278840932154376"><ele>290.0</ele><time>2026-03-16T15:55:05.999Z</time></trkpt><trkpt lat="45.68379908406355" lon="9.278719494921145"><ele>290.0</ele><time>2026-03-16T15:55:08.999Z</time></trkpt><trkpt lat="45.683749970978354" lon="9.278662317947203"><ele>290.0</ele><time>2026-03-16T15:55:10.999Z</time></trkpt><trkpt lat="45.683756503593145" lon="9.278569019694228"><ele>290.0</ele><time>2026-03-16T15:55:14Z</time></trkpt><trkpt lat="45.68371481662144" lon="9.278473829899378"><ele>287.6666666666667</ele><time>2026-03-16T15:55:17Z</time></trkpt><trkpt lat="45.68370464026388" lon="9.2783681552883"><ele>285.33333333333337</ele><time>2026-03-16T15:55:20Z</time></trkpt><trkpt lat="45.68366418555703" lon="9.278298498148441"><ele>283.0</ele><time>2026-03-16T15:55:22Z</time></trkpt><trkpt lat="45.68360352008292" lon="9.278218877333536"><ele>280.6666666666667</ele><time>2026-03-16T15:55:25Z</time></trkpt><trkpt lat="45.68359505196552" lon="9.278088916084974"><ele>278.3333333333333</ele><time>2026-03-16T15:55:27Z</time></trkpt><trkpt lat="45.68356174877704" lon="9.277994332800901"><ele>276.0</ele><time>2026-03-16T15:55:29Z</time></trkpt><trkpt lat="45.68350534298569" lon="9.27790319740125"><ele>275.0</ele><time>2026-03-16T15:55:32Z</time></trkpt><trkpt lat="45.68344656714171" lon="9.277836020814634"><ele>274.0</ele><time>2026-03-16T15:55:38Z</time></trkpt><trkpt lat="45.68343104195631" lon="9.277717584931953"><ele>273.0</ele><time>2026-03-16T15:55:41Z</time></trkpt><trkpt lat="45.68338769903275" lon="9.277619529903339"><ele>272.0</ele><time>2026-03-16T15:55:43Z</time></trkpt><trkpt lat="45.68333658009202" lon="9.277561672855853"><ele>271.0</ele><time>2026-03-16T15:55:44Z</time></trkpt><trkpt lat="45.683239134004324" lon="9.27746871124229"><ele>270.0</ele><time>2026-03-16T15:55:46Z</time></trkpt><trkpt lat="45.68317255174705" lon="9.27743890189399"><ele>270.0</ele><time>2026-03-16T15:55:47Z</time></trkpt><trkpt lat="45.683099710732385" lon="9.277404637073758"><ele>270.0</ele><time>2026-03-16T15:55:48Z</time></trkpt><trkpt lat="45.68303302395626" lon="9.277371788680277"><ele>270.0</ele><time>2026-03-16T15:55:49Z</time></trkpt><trkpt lat="45.68292640157299" lon="9.277328615139512"><ele>270.0</ele><time>2026-03-16T15:55:51Z</time></trkpt><trkpt lat="45.68286508438645" lon="9.277259929078243"><ele>270.0</ele><time>2026-03-16T15:55:53Z</time></trkpt><trkpt lat="45.682800817714664" lon="9.27722063732805"><ele>270.0</ele><time>2026-03-16T15:55:55Z</time></trkpt><trkpt lat="45.6827349168603" lon="9.277217152437311"><ele>269.6666666666667</ele><time>2026-03-16T15:55:57Z</time></trkpt><trkpt lat="45.682668358317954" lon="9.277174102902958"><ele>269.3333333333333</ele><time>2026-03-16T15:56:04Z</time></trkpt><trkpt lat="45.682586085101114" lon="9.277150192420649"><ele>269.0</ele><time>2026-03-16T15:56:07Z</time></trkpt><trkpt lat="45.682514531314226" lon="9.277076875726442"><ele>268.66666666666663</ele><time>2026-03-16T15:56:09Z</time></trkpt><trkpt lat="45.68246056120028" lon="9.277016810478854"><ele>268.3333333333333</ele><time>2026-03-16T15:56:10Z</time></trkpt><trkpt lat="45.68240439211688" lon="9.276967477814013"><ele>268.0</ele><time>2026-03-16T15:56:11Z</time></trkpt><trkpt lat="45.68233950765005" lon="9.276911721080337"><ele>268.0</ele><time>2026-03-16T15:56:12Z</time></trkpt><trkpt lat="45.68226700592068" lon="9.27687411927317"><ele>268.0</ele><time>2026-03-16T15:56:13Z</time></trkpt><trkpt lat="45.682147128016474" lon="9.2767847403766"><ele>268.0</ele><time>2026-03-16T15:56:15Z</time></trkpt><trkpt lat="45.682037130373885" lon="9.276707032404858"><ele>268.0</ele><time>2026-03-16T15:56:17Z</time></trkpt><trkpt lat="45.681952446204875" lon="9.2766357082114"><ele>268.0</ele><time>2026-03-16T15:56:19Z</time></trkpt><trkpt lat="45.681753979571965" lon="9.276486592448904"><ele>266.5</ele><time>2026-03-16T15:56:29Z</time></trkpt><trkpt lat="45.68165775226996" lon="9.2764255406186"><ele>265.0</ele><time>2026-03-16T15:56:31Z</time></trkpt><trkpt lat="45.68152893814759" lon="9.276301109531413"><ele>263.5</ele><time>2026-03-16T15:56:33Z</time></trkpt><trkpt lat="45.68145520176605" lon="9.276239901321489"><ele>262.0</ele><time>2026-03-16T15:56:34Z</time></trkpt><trkpt lat="45.68135369513102" lon="9.276115652984139"><ele>262.0</ele><time>2026-03-16T15:56:36Z</time></trkpt><trkpt lat="45.68124940835129" lon="9.276041061951922"><ele>262.0</ele><time>2026-03-16T15:56:37Z</time></trkpt><trkpt lat="45.68117891042511" lon="9.275985131334597"><ele>262.0</ele><time>2026-03-16T15:56:38Z</time></trkpt><trkpt lat="45.68108880418761" lon="9.275917316984986"><ele>262.0</ele><time>2026-03-16T15:56:39Z</time></trkpt><trkpt lat="45.68101793402881" lon="9.2758622115423"><ele>262.0</ele><time>2026-03-16T15:56:40Z</time></trkpt><trkpt lat="45.680959709437815" lon="9.275805331175533"><ele>261.5</ele><time>2026-03-16T15:56:41Z</time></trkpt><trkpt lat="45.680905548508825" lon="9.27575272531816"><ele>261.0</ele><time>2026-03-16T15:56:42Z</time></trkpt><trkpt lat="45.68083855631254" lon="9.275679832137019"><ele>260.5</ele><time>2026-03-16T15:56:43.999Z</time></trkpt><trkpt lat="45.68078186535553" lon="9.275597026387427"><ele>260.0</ele><time>2026-03-16T15:56:46.999Z</time></trkpt><trkpt lat="45.680720501232784" lon="9.275513402209391"><ele>259.5</ele><time>2026-03-16T15:56:48.999Z</time></trkpt><trkpt lat="45.68065610699579" lon="9.27544020348916"><ele>259.0</ele><time>2026-03-16T15:56:50.999Z</time></trkpt><trkpt lat="45.68058129262538" lon="9.27542854538148"><ele>259.0</ele><time>2026-03-16T15:56:53.999Z</time></trkpt><trkpt lat="45.68050357958264" lon="9.275413095882175"><ele>259.0</ele><time>2026-03-16T15:56:56.999Z</time></trkpt><trkpt lat="45.68042097070206" lon="9.275343301298074"><ele>259.0</ele><time>2026-03-16T15:56:58.999Z</time></trkpt><trkpt lat="45.680321751104934" lon="9.275269078501205"><ele>259.0</ele><time>2026-03-16T15:56:59.999Z</time></trkpt><trkpt lat="45.680265602158876" lon="9.275185415482955"><ele>259.0</ele><time>2026-03-16T15:57:00.999Z</time></trkpt><trkpt lat="45.68020542403599" lon="9.27507604857122"><ele>259.16666666666663</ele><time>2026-03-16T15:57:01.999Z</time></trkpt><trkpt lat="45.680150081022" lon="9.274975402234519"><ele>259.3333333333333</ele><time>2026-03-16T15:57:02.999Z</time></trkpt><trkpt lat="45.680083073129495" lon="9.274882521742581"><ele>259.5</ele><time>2026-03-16T15:57:03.999Z</time></trkpt><trkpt lat="45.68002418234092" lon="9.274810383834323"><ele>259.6666666666667</ele><time>2026-03-16T15:57:04.999Z</time></trkpt><trkpt lat="45.67996029400452" lon="9.274753499702015"><ele>259.83333333333337</ele><time>2026-03-16T15:57:05.999Z</time></trkpt><trkpt lat="45.679888152903736" lon="9.274651930806177"><ele>260.0</ele><time>2026-03-16T15:57:07.999Z</time></trkpt><trkpt lat="45.67982242912758" lon="9.274553703033895"><ele>260.0</ele><time>2026-03-16T15:57:09.999Z</time></trkpt><trkpt lat="45.67979091183628" lon="9.274472542025894"><ele>260.0</ele><time>2026-03-16T15:57:10.999Z</time></trkpt><trkpt lat="45.67975194093295" lon="9.274238939297144"><ele>260.0</ele><time>2026-03-16T15:57:12.999Z</time></trkpt><trkpt lat="45.67977415232808" lon="9.27406520756779"><ele>260.0</ele><time>2026-03-16T15:57:13.999Z</time></trkpt><trkpt lat="45.67980344790485" lon="9.273806691946042"><ele>260.0</ele><time>2026-03-16T15:57:14.999Z</time></trkpt><trkpt lat="45.67985301824099" lon="9.273579302561878"><ele>260.0</ele><time>2026-03-16T15:57:15.999Z</time></trkpt><trkpt lat="45.67988774792125" lon="9.273386765798334"><ele>260.0</ele><time>2026-03-16T15:57:16.999Z</time></trkpt><trkpt lat="45.67991076423516" lon="9.273216607808356"><ele>260.0</ele><time>2026-03-16T15:57:17.999Z</time></trkpt><trkpt lat="45.67993027744624" lon="9.273075736676814"><ele>260.2</ele><time>2026-03-16T15:57:18.999Z</time></trkpt><trkpt lat="45.679946317556684" lon="9.272939657175007"><ele>260.4</ele><time>2026-03-16T15:57:20Z</time></trkpt><trkpt lat="45.679967480823414" lon="9.27280104498109"><ele>260.6</ele><time>2026-03-16T15:57:21Z</time></trkpt><trkpt lat="45.679988123612894" lon="9.272662519907456"><ele>260.8</ele><time>2026-03-16T15:57:22Z</time></trkpt><trkpt lat="45.68000950071332" lon="9.27252066366886"><ele>261.0</ele><time>2026-03-16T15:57:23Z</time></trkpt><trkpt lat="45.680032953214855" lon="9.272359564531662"><ele>261.0</ele><time>2026-03-16T15:57:24Z</time></trkpt><trkpt lat="45.68005516768927" lon="9.27219138380211"><ele>261.0</ele><time>2026-03-16T15:57:25Z</time></trkpt><trkpt lat="45.68008115793194" lon="9.272023891779382"><ele>261.0</ele><time>2026-03-16T15:57:26Z</time></trkpt><trkpt lat="45.680102692629326" lon="9.2718688262663"><ele>261.0</ele><time>2026-03-16T15:57:27Z</time></trkpt><trkpt lat="45.680127105247706" lon="9.271734692599138"><ele>261.0</ele><time>2026-03-16T15:57:28Z</time></trkpt><trkpt lat="45.68014443807815" lon="9.271623506799177"><ele>261.0</ele><time>2026-03-16T15:57:29Z</time></trkpt><trkpt lat="45.68016076648044" lon="9.27152437907608"><ele>261.0</ele><time>2026-03-16T15:57:30Z</time></trkpt><trkpt lat="45.68015986200126" lon="9.271426403253523"><ele>261.0</ele><time>2026-03-16T15:57:31Z</time></trkpt><trkpt lat="45.68013612206454" lon="9.271333054446085"><ele>261.0</ele><time>2026-03-16T15:57:32Z</time></trkpt><trkpt lat="45.680032268387365" lon="9.27122930232358"><ele>261.0</ele><time>2026-03-16T15:57:34Z</time></trkpt><trkpt lat="45.67997844248883" lon="9.271174470046398"><ele>261.0</ele><time>2026-03-16T15:57:35Z</time></trkpt><trkpt lat="45.67992857590024" lon="9.271108423969542"><ele>259.8</ele><time>2026-03-16T15:57:36Z</time></trkpt><trkpt lat="45.67984470106995" lon="9.270981288164345"><ele>258.6</ele><time>2026-03-16T15:57:38Z</time></trkpt><trkpt lat="45.67979336091193" lon="9.270906550138394"><ele>257.4</ele><time>2026-03-16T15:57:39Z</time></trkpt><trkpt lat="45.67967777206157" lon="9.27078347908906"><ele>256.2</ele><time>2026-03-16T15:57:41Z</time></trkpt><trkpt lat="45.67962609169069" lon="9.27071036289834"><ele>255.0</ele><time>2026-03-16T15:57:42Z</time></trkpt><trkpt lat="45.67959392507467" lon="9.270625941751272"><ele>253.8</ele><time>2026-03-16T15:57:43Z</time></trkpt><trkpt lat="45.679582510550226" lon="9.270490033686857"><ele>252.6</ele><time>2026-03-16T15:57:44Z</time></trkpt><trkpt lat="45.67958030760508" lon="9.27033448944302"><ele>251.39999999999998</ele><time>2026-03-16T15:57:45Z</time></trkpt><trkpt lat="45.6795667596637" lon="9.270183093948619"><ele>250.2</ele><time>2026-03-16T15:57:46Z</time></trkpt><trkpt lat="45.679562041250634" lon="9.270038554786579"><ele>249.0</ele><time>2026-03-16T15:57:47Z</time></trkpt><trkpt lat="45.67956642050076" lon="9.269903743333476"><ele>248.79999999999998</ele><time>2026-03-16T15:57:48Z</time></trkpt><trkpt lat="45.6795682158398" lon="9.26975771606319"><ele>248.59999999999997</ele><time>2026-03-16T15:57:49Z</time></trkpt><trkpt lat="45.67956547718951" lon="9.269617580627525"><ele>248.4</ele><time>2026-03-16T15:57:50Z</time></trkpt><trkpt lat="45.679564766745976" lon="9.269476873058915"><ele>248.2</ele><time>2026-03-16T15:57:51Z</time></trkpt><trkpt lat="45.67956549423333" lon="9.269317978964182"><ele>248.0</ele><time>2026-03-16T15:57:52Z</time></trkpt><trkpt lat="45.67956583419668" lon="9.269142306862806"><ele>248.0</ele><time>2026-03-16T15:57:53Z</time></trkpt><trkpt lat="45.679566993282876" lon="9.26896487783742"><ele>248.0</ele><time>2026-03-16T15:57:54Z</time></trkpt><trkpt lat="45.67956458692905" lon="9.268808099053095"><ele>248.0</ele><time>2026-03-16T15:57:55Z</time></trkpt><trkpt lat="45.67956520832809" lon="9.268684290981605"><ele>248.0</ele><time>2026-03-16T15:57:56Z</time></trkpt><trkpt lat="45.679546756187655" lon="9.268550511223632"><ele>248.0</ele><time>2026-03-16T15:57:58Z</time></trkpt><trkpt lat="45.67948345449975" lon="9.268523876018795"><ele>248.75</ele><time>2026-03-16T15:57:59Z</time></trkpt><trkpt lat="45.67938277765245" lon="9.268509058902684"><ele>249.5</ele><time>2026-03-16T15:58:00Z</time></trkpt><trkpt lat="45.67926699676476" lon="9.268502654328941"><ele>250.25</ele><time>2026-03-16T15:58:01Z</time></trkpt><trkpt lat="45.67912151382402" lon="9.26849488059401"><ele>251.0</ele><time>2026-03-16T15:58:02Z</time></trkpt><trkpt lat="45.67896985809439" lon="9.268469764507971"><ele>251.0</ele><time>2026-03-16T15:58:03Z</time></trkpt><trkpt lat="45.678856315184774" lon="9.26844011960249"><ele>251.00000000000003</ele><time>2026-03-16T15:58:04Z</time></trkpt><trkpt lat="45.67875711090873" lon="9.268425226392932"><ele>251.00000000000003</ele><time>2026-03-16T15:58:05Z</time></trkpt><trkpt lat="45.67867478624436" lon="9.268410999105214"><ele>251.0</ele><time>2026-03-16T15:58:06Z</time></trkpt><trkpt lat="45.67857008554245" lon="9.268456030949755"><ele>251.0</ele><time>2026-03-16T15:58:07Z</time></trkpt><trkpt lat="45.67844019308187" lon="9.268527622388428"><ele>251.60000000000002</ele><time>2026-03-16T15:58:08Z</time></trkpt><trkpt lat="45.67833615967748" lon="9.268604122519205"><ele>252.20000000000002</ele><time>2026-03-16T15:58:09Z</time></trkpt><trkpt lat="45.678255095444534" lon="9.268663741412055"><ele>252.79999999999998</ele><time>2026-03-16T15:58:10Z</time></trkpt><trkpt lat="45.67816872572213" lon="9.268697489646067"><ele>253.39999999999998</ele><time>2026-03-16T15:58:11Z</time></trkpt><trkpt lat="45.67806903597002" lon="9.268698547637895"><ele>254.0</ele><time>2026-03-16T15:58:12Z</time></trkpt><trkpt lat="45.67795045251569" lon="9.268654201753648"><ele>254.0</ele><time>2026-03-16T15:58:13Z</time></trkpt><trkpt lat="45.677838810246044" lon="9.268573324789987"><ele>254.0</ele><time>2026-03-16T15:58:14Z</time></trkpt><trkpt lat="45.6777527653228" lon="9.26847419271988"><ele>254.0</ele><time>2026-03-16T15:58:15Z</time></trkpt><trkpt lat="45.67768434084157" lon="9.268360679699255"><ele>254.0</ele><time>2026-03-16T15:58:16Z</time></trkpt><trkpt lat="45.677578245930235" lon="9.26825077787552"><ele>253.75</ele><time>2026-03-16T15:58:17Z</time></trkpt><trkpt lat="45.67746774262773" lon="9.26815039456268"><ele>253.5</ele><time>2026-03-16T15:58:18Z</time></trkpt><trkpt lat="45.6773621669566" lon="9.268022938855816"><ele>253.25</ele><time>2026-03-16T15:58:19Z</time></trkpt><trkpt lat="45.677245328308565" lon="9.267848789008454"><ele>253.0</ele><time>2026-03-16T15:58:20Z</time></trkpt><trkpt lat="45.67715433957026" lon="9.267691778155559"><ele>253.0</ele><time>2026-03-16T15:58:21Z</time></trkpt><trkpt lat="45.67708618180744" lon="9.267549028844353"><ele>253.0</ele><time>2026-03-16T15:58:22Z</time></trkpt><trkpt lat="45.67703601286197" lon="9.267463720960194"><ele>253.0</ele><time>2026-03-16T15:58:23Z</time></trkpt><trkpt lat="45.67698853282795" lon="9.26737744134081"><ele>253.0</ele><time>2026-03-16T15:58:24Z</time></trkpt><trkpt lat="45.676974992337634" lon="9.267220850675635"><ele>253.0</ele><time>2026-03-16T15:58:26Z</time></trkpt><trkpt lat="45.67697667177197" lon="9.267118745571775"><ele>254.2</ele><time>2026-03-16T15:58:27Z</time></trkpt><trkpt lat="45.67700094249598" lon="9.267034496394604"><ele>255.4</ele><time>2026-03-16T15:58:28Z</time></trkpt><trkpt lat="45.67709109299369" lon="9.266922519268546"><ele>256.59999999999997</ele><time>2026-03-16T15:58:30Z</time></trkpt><trkpt lat="45.67718630161194" lon="9.266883291840786"><ele>257.8</ele><time>2026-03-16T15:58:31Z</time></trkpt><trkpt lat="45.677278935265626" lon="9.266834782580673"><ele>259.0</ele><time>2026-03-16T15:58:32Z</time></trkpt><trkpt lat="45.67739423630636" lon="9.266767835111981"><ele>259.0</ele><time>2026-03-16T15:58:33Z</time></trkpt><trkpt lat="45.677523485205725" lon="9.266693442423618"><ele>259.0</ele><time>2026-03-16T15:58:34Z</time></trkpt><trkpt lat="45.677663984989906" lon="9.266606045161994"><ele>259.0</ele><time>2026-03-16T15:58:35Z</time></trkpt><trkpt lat="45.67782261147833" lon="9.266505001388458"><ele>262.66666666666663</ele><time>2026-03-16T15:58:36Z</time></trkpt><trkpt lat="45.678010281282454" lon="9.266413013667686"><ele>266.3333333333333</ele><time>2026-03-16T15:58:37Z</time></trkpt><trkpt lat="45.67817329830827" lon="9.26630479998074"><ele>270.0</ele><time>2026-03-16T15:58:38Z</time></trkpt><trkpt lat="45.67831415706209" lon="9.266214996489586"><ele>270.0</ele><time>2026-03-16T15:58:38.999Z</time></trkpt><trkpt lat="45.67844283857645" lon="9.266138854915006"><ele>270.0</ele><time>2026-03-16T15:58:39.999Z</time></trkpt><trkpt lat="45.67858875299391" lon="9.266062407391324"><ele>270.0</ele><time>2026-03-16T15:58:40.999Z</time></trkpt><trkpt lat="45.67872755272132" lon="9.265980542231691"><ele>270.0</ele><time>2026-03-16T15:58:41.999Z</time></trkpt><trkpt lat="45.678856357530535" lon="9.265907043869523"><ele>270.8</ele><time>2026-03-16T15:58:42.999Z</time></trkpt><trkpt lat="45.67897035459113" lon="9.265828982002406"><ele>271.6</ele><time>2026-03-16T15:58:43.999Z</time></trkpt><trkpt lat="45.679087881921234" lon="9.265757026481628"><ele>272.4</ele><time>2026-03-16T15:58:44.999Z</time></trkpt><trkpt lat="45.679148785856036" lon="9.265721733479273"><ele>273.2</ele><time>2026-03-16T15:58:45.999Z</time></trkpt><trkpt lat="45.67922744357802" lon="9.265738815564783"><ele>274.0</ele><time>2026-03-16T15:58:49.999Z</time></trkpt><trkpt lat="45.67929151543593" lon="9.265692524490769"><ele>275.0</ele><time>2026-03-16T15:58:52.999Z</time></trkpt><trkpt lat="45.679275038742745" lon="9.26555214550129"><ele>276.0</ele><time>2026-03-16T15:58:54.999Z</time></trkpt><trkpt lat="45.67925026561657" lon="9.265412871309465"><ele>277.0</ele><time>2026-03-16T15:58:56.999Z</time></trkpt><trkpt lat="45.67922954968136" lon="9.265280956022533"><ele>278.0</ele><time>2026-03-16T15:58:57.999Z</time></trkpt><trkpt lat="45.679208327517216" lon="9.265141535275898"><ele>279.0</ele><time>2026-03-16T15:58:58.999Z</time></trkpt><trkpt lat="45.67936021595489" lon="9.265188695467588"><ele>279.8</ele><time>2026-03-16T15:59:01.999Z</time></trkpt><trkpt lat="45.679466438771314" lon="9.265201506566182"><ele>280.59999999999997</ele><time>2026-03-16T15:59:02.999Z</time></trkpt><trkpt lat="45.679571862348354" lon="9.265213587995747"><ele>281.4</ele><time>2026-03-16T15:59:03.999Z</time></trkpt><trkpt lat="45.67968855592654" lon="9.265187524985016"><ele>282.2</ele><time>2026-03-16T15:59:04.999Z</time></trkpt><trkpt lat="45.67980311109229" lon="9.265158625992093"><ele>283.0</ele><time>2026-03-16T15:59:05.999Z</time></trkpt><trkpt lat="45.67994240065735" lon="9.265138501028103"><ele>283.0</ele><time>2026-03-16T15:59:06.999Z</time></trkpt><trkpt lat="45.680071024459785" lon="9.265107089054315"><ele>283.0</ele><time>2026-03-16T15:59:07.999Z</time></trkpt><trkpt lat="45.68017778475918" lon="9.265117955323783"><ele>283.0</ele><time>2026-03-16T15:59:08.999Z</time></trkpt><trkpt lat="45.680305231038474" lon="9.26513283795718"><ele>283.0</ele><time>2026-03-16T15:59:09.999Z</time></trkpt><trkpt lat="45.68044232623918" lon="9.265126617993445"><ele>282.5</ele><time>2026-03-16T15:59:10.999Z</time></trkpt><trkpt lat="45.680549911401535" lon="9.265097595863695"><ele>282.0</ele><time>2026-03-16T15:59:11.999Z</time></trkpt><trkpt lat="45.68067782758083" lon="9.265072124473855"><ele>281.5</ele><time>2026-03-16T15:59:12.999Z</time></trkpt><trkpt lat="45.68079516216477" lon="9.265041447531312"><ele>281.0</ele><time>2026-03-16T15:59:13.999Z</time></trkpt><trkpt lat="45.680910009194676" lon="9.265013566448964"><ele>281.0</ele><time>2026-03-16T15:59:14.999Z</time></trkpt><trkpt lat="45.681007138779684" lon="9.264993911552411"><ele>281.0</ele><time>2026-03-16T15:59:15.999Z</time></trkpt><trkpt lat="45.68108363766895" lon="9.264978781680648"><ele>281.0</ele><time>2026-03-16T15:59:16.999Z</time></trkpt><trkpt lat="45.68120229377983" lon="9.264965185771505"><ele>281.0</ele><time>2026-03-16T15:59:17.999Z</time></trkpt><trkpt lat="45.68129335124464" lon="9.264933948532816"><ele>281.0</ele><time>2026-03-16T15:59:18.999Z</time></trkpt><trkpt lat="45.681480718639044" lon="9.264889063269582"><ele>281.2</ele><time>2026-03-16T15:59:20.999Z</time></trkpt><trkpt lat="45.681562826796664" lon="9.264866270863706"><ele>281.40000000000003</ele><time>2026-03-16T15:59:21.999Z</time></trkpt><trkpt lat="45.68162351902243" lon="9.26482380448355"><ele>281.6</ele><time>2026-03-16T15:59:22.999Z</time></trkpt><trkpt lat="45.681700357687184" lon="9.264776002425553"><ele>281.8</ele><time>2026-03-16T15:59:23.999Z</time></trkpt><trkpt lat="45.681802113883315" lon="9.26474664748914"><ele>282.0</ele><time>2026-03-16T15:59:24.999Z</time></trkpt><trkpt lat="45.681920885631406" lon="9.264762137923357"><ele>283.0</ele><time>2026-03-16T15:59:26Z</time></trkpt><trkpt lat="45.682034997718596" lon="9.264802067064164"><ele>284.0</ele><time>2026-03-16T15:59:27Z</time></trkpt><trkpt lat="45.68215991414625" lon="9.264831348278404"><ele>285.0</ele><time>2026-03-16T15:59:28Z</time></trkpt><trkpt lat="45.68231184121189" lon="9.26482530631312"><ele>286.0</ele><time>2026-03-16T15:59:29Z</time></trkpt><trkpt lat="45.682469994575904" lon="9.264800160752614"><ele>286.0</ele><time>2026-03-16T15:59:30Z</time></trkpt><trkpt lat="45.68262562714394" lon="9.264814743710707"><ele>286.0</ele><time>2026-03-16T15:59:31Z</time></trkpt><trkpt lat="45.68276625160337" lon="9.26485814591857"><ele>286.0</ele><time>2026-03-16T15:59:32Z</time></trkpt><trkpt lat="45.68291729765715" lon="9.264933940622363"><ele>285.25</ele><time>2026-03-16T15:59:33Z</time></trkpt><trkpt lat="45.68305957590041" lon="9.26500317704777"><ele>284.5</ele><time>2026-03-16T15:59:34Z</time></trkpt><trkpt lat="45.68319688633511" lon="9.265077485236223"><ele>283.75</ele><time>2026-03-16T15:59:35Z</time></trkpt><trkpt lat="45.68332395235313" lon="9.265140284073054"><ele>283.0</ele><time>2026-03-16T15:59:36Z</time></trkpt><trkpt lat="45.68345493189951" lon="9.265178647361365"><ele>283.0</ele><time>2026-03-16T15:59:37Z</time></trkpt><trkpt lat="45.68358920139418" lon="9.265190220586234"><ele>283.0</ele><time>2026-03-16T15:59:38Z</time></trkpt><trkpt lat="45.68373550717126" lon="9.265165161437896"><ele>283.0</ele><time>2026-03-16T15:59:39Z</time></trkpt><trkpt lat="45.68388344343946" lon="9.265154011084432"><ele>283.0</ele><time>2026-03-16T15:59:40Z</time></trkpt><trkpt lat="45.68405142728497" lon="9.265156811009923"><ele>283.0</ele><time>2026-03-16T15:59:41Z</time></trkpt><trkpt lat="45.68423244949524" lon="9.265160628112257"><ele>283.0</ele><time>2026-03-16T15:59:42Z</time></trkpt><trkpt lat="45.68441063726608" lon="9.265162396217185"><ele>283.0</ele><time>2026-03-16T15:59:43Z</time></trkpt><trkpt lat="45.684579456042826" lon="9.265173158491757"><ele>283.0</ele><time>2026-03-16T15:59:44Z</time></trkpt><trkpt lat="45.6847487358423" lon="9.265191525547191"><ele>283.0</ele><time>2026-03-16T15:59:45Z</time></trkpt><trkpt lat="45.68492019314225" lon="9.265211675053362"><ele>283.0</ele><time>2026-03-16T15:59:46Z</time></trkpt><trkpt lat="45.6850875455673" lon="9.265223577889396"><ele>283.0</ele><time>2026-03-16T15:59:47Z</time></trkpt><trkpt lat="45.685234508392384" lon="9.26521511584471"><ele>283.0</ele><time>2026-03-16T15:59:48Z</time></trkpt><trkpt lat="45.685370285629766" lon="9.265209479692857"><ele>283.0</ele><time>2026-03-16T15:59:49Z</time></trkpt><trkpt lat="45.68549463640178" lon="9.26520311846575"><ele>283.0</ele><time>2026-03-16T15:59:50Z</time></trkpt><trkpt lat="45.68560002612229" lon="9.26520931077737"><ele>282.66666666666663</ele><time>2026-03-16T15:59:51Z</time></trkpt><trkpt lat="45.68569798068489" lon="9.265210084337685"><ele>282.3333333333333</ele><time>2026-03-16T15:59:52Z</time></trkpt><trkpt lat="45.685789041226556" lon="9.265205458834375"><ele>282.0</ele><time>2026-03-16T15:59:53Z</time></trkpt><trkpt lat="45.68587439341119" lon="9.265197134178763"><ele>281.6666666666667</ele><time>2026-03-16T15:59:54Z</time></trkpt><trkpt lat="45.68595247080477" lon="9.2651901346833"><ele>281.33333333333337</ele><time>2026-03-16T15:59:55Z</time></trkpt><trkpt lat="45.68603666852332" lon="9.265183859231652"><ele>281.0</ele><time>2026-03-16T15:59:56Z</time></trkpt><trkpt lat="45.68611774120565" lon="9.265182350002885"><ele>280.83333333333337</ele><time>2026-03-16T15:59:57Z</time></trkpt><trkpt lat="45.68619585929032" lon="9.265171721396928"><ele>280.6666666666667</ele><time>2026-03-16T15:59:58Z</time></trkpt><trkpt lat="45.68627474420577" lon="9.265153236105329"><ele>280.5</ele><time>2026-03-16T15:59:59Z</time></trkpt><trkpt lat="45.68634773858548" lon="9.265116895833447"><ele>280.3333333333333</ele><time>2026-03-16T16:00:00Z</time></trkpt><trkpt lat="45.68642241013664" lon="9.26505828457824"><ele>280.16666666666663</ele><time>2026-03-16T16:00:01Z</time></trkpt><trkpt lat="45.686498743375765" lon="9.264985458889644"><ele>280.0</ele><time>2026-03-16T16:00:02Z</time></trkpt><trkpt lat="45.686583123436655" lon="9.264899899332379"><ele>280.0</ele><time>2026-03-16T16:00:03Z</time></trkpt><trkpt lat="45.68668595073031" lon="9.264790841111276"><ele>280.0</ele><time>2026-03-16T16:00:04Z</time></trkpt><trkpt lat="45.686792837088646" lon="9.264675699416989"><ele>280.0</ele><time>2026-03-16T16:00:05Z</time></trkpt><trkpt lat="45.6868937036186" lon="9.264571389158087"><ele>280.0</ele><time>2026-03-16T16:00:06Z</time></trkpt><trkpt lat="45.68699948126358" lon="9.26446139681942"><ele>280.0</ele><time>2026-03-16T16:00:07Z</time></trkpt><trkpt lat="45.68710952249894" lon="9.264364795640294"><ele>280.0</ele><time>2026-03-16T16:00:08Z</time></trkpt><trkpt lat="45.687219072707705" lon="9.264281091063209"><ele>280.0</ele><time>2026-03-16T16:00:09Z</time></trkpt><trkpt lat="45.68734500806874" lon="9.264206285190548"><ele>280.0</ele><time>2026-03-16T16:00:10Z</time></trkpt><trkpt lat="45.68747469997252" lon="9.264149451730946"><ele>280.0</ele><time>2026-03-16T16:00:11Z</time></trkpt><trkpt lat="45.68759873562802" lon="9.264088639742987"><ele>280.0</ele><time>2026-03-16T16:00:12Z</time></trkpt><trkpt lat="45.68771093844311" lon="9.26403801923399"><ele>280.0</ele><time>2026-03-16T16:00:13Z</time></trkpt><trkpt lat="45.68781284495603" lon="9.263979413051514"><ele>280.0</ele><time>2026-03-16T16:00:14Z</time></trkpt><trkpt lat="45.68791397696143" lon="9.263941997883439"><ele>280.6</ele><time>2026-03-16T16:00:15Z</time></trkpt><trkpt lat="45.6880165296689" lon="9.263889728620546"><ele>281.2</ele><time>2026-03-16T16:00:16Z</time></trkpt><trkpt lat="45.68811096946245" lon="9.263837654934894"><ele>281.8</ele><time>2026-03-16T16:00:17Z</time></trkpt><trkpt lat="45.688221423755216" lon="9.263788294701568"><ele>282.4</ele><time>2026-03-16T16:00:18Z</time></trkpt><trkpt lat="45.688313992232246" lon="9.26375419363045"><ele>283.0</ele><time>2026-03-16T16:00:19Z</time></trkpt><trkpt lat="45.68840718440859" lon="9.263699150685"><ele>283.0</ele><time>2026-03-16T16:00:20Z</time></trkpt><trkpt lat="45.68847384628936" lon="9.263648641374461"><ele>283.0</ele><time>2026-03-16T16:00:21Z</time></trkpt><trkpt lat="45.688529815445094" lon="9.263581288426952"><ele>283.0</ele><time>2026-03-16T16:00:22Z</time></trkpt><trkpt lat="45.688621330796856" lon="9.263561251224772"><ele>283.0</ele><time>2026-03-16T16:00:23Z</time></trkpt><trkpt lat="45.68869173191691" lon="9.263522882983219"><ele>283.0</ele><time>2026-03-16T16:00:24Z</time></trkpt><trkpt lat="45.68876077131164" lon="9.263491714999967"><ele>283.0</ele><time>2026-03-16T16:00:25Z</time></trkpt><trkpt lat="45.688846630032224" lon="9.263475577448919"><ele>283.66666666666663</ele><time>2026-03-16T16:00:26Z</time></trkpt><trkpt lat="45.688959659521124" lon="9.263390284128374"><ele>284.3333333333333</ele><time>2026-03-16T16:00:28Z</time></trkpt><trkpt lat="45.689021314654575" lon="9.263360394698665"><ele>285.0</ele><time>2026-03-16T16:00:29Z</time></trkpt><trkpt lat="45.68910242777925" lon="9.263321237335692"><ele>285.6666666666667</ele><time>2026-03-16T16:00:31Z</time></trkpt><trkpt lat="45.689174017946954" lon="9.26327939289494"><ele>286.33333333333337</ele><time>2026-03-16T16:00:34Z</time></trkpt><trkpt lat="45.689258480776765" lon="9.263263361159431"><ele>287.0</ele><time>2026-03-16T16:00:36Z</time></trkpt><trkpt lat="45.68935711678302" lon="9.263242815334447"><ele>287.0</ele><time>2026-03-16T16:01:18.999Z</time></trkpt><trkpt lat="45.68942151504675" lon="9.263206450449413"><ele>287.0</ele><time>2026-03-16T16:01:19.999Z</time></trkpt><trkpt lat="45.68948252121441" lon="9.263180018103643"><ele>287.0</ele><time>2026-03-16T16:01:21.999Z</time></trkpt><trkpt lat="45.68953652515754" lon="9.263069997318615"><ele>287.0</ele><time>2026-03-16T16:01:24.999Z</time></trkpt><trkpt lat="45.68953653028329" lon="9.262931134104843"><ele>287.0</ele><time>2026-03-16T16:01:25.999Z</time></trkpt><trkpt lat="45.689546604509744" lon="9.26277141743103"><ele>287.0</ele><time>2026-03-16T16:01:26.999Z</time></trkpt><trkpt lat="45.68955697508944" lon="9.262588869867965"><ele>286.5</ele><time>2026-03-16T16:01:27.999Z</time></trkpt><trkpt lat="45.68955615439286" lon="9.262397290904593"><ele>286.0</ele><time>2026-03-16T16:01:28.999Z</time></trkpt><trkpt lat="45.68956170597419" lon="9.262200055239052"><ele>285.5</ele><time>2026-03-16T16:01:29.999Z</time></trkpt><trkpt lat="45.68957105568902" lon="9.262006711795301"><ele>285.0</ele><time>2026-03-16T16:01:30.999Z</time></trkpt><trkpt lat="45.689565900211115" lon="9.261815287759067"><ele>284.2</ele><time>2026-03-16T16:01:32Z</time></trkpt><trkpt lat="45.68959988488276" lon="9.261723945345823"><ele>283.4</ele><time>2026-03-16T16:01:33Z</time></trkpt><trkpt lat="45.68960629317417" lon="9.261587101381103"><ele>282.6</ele><time>2026-03-16T16:01:34Z</time></trkpt><trkpt lat="45.68961634789025" lon="9.261454830578998"><ele>281.8</ele><time>2026-03-16T16:01:35Z</time></trkpt><trkpt lat="45.68961688317859" lon="9.261331919665455"><ele>281.0</ele><time>2026-03-16T16:01:36Z</time></trkpt><trkpt lat="45.68961511299412" lon="9.261168942274557"><ele>280.0</ele><time>2026-03-16T16:01:37Z</time></trkpt><trkpt lat="45.68961827849324" lon="9.260987089155792"><ele>279.0</ele><time>2026-03-16T16:01:38Z</time></trkpt><trkpt lat="45.689623643560445" lon="9.26079670157873"><ele>278.0</ele><time>2026-03-16T16:01:39Z</time></trkpt><trkpt lat="45.68962416501752" lon="9.260610609160274"><ele>277.0</ele><time>2026-03-16T16:01:40Z</time></trkpt><trkpt lat="45.689630875224246" lon="9.260414159265608"><ele>276.25</ele><time>2026-03-16T16:01:41Z</time></trkpt><trkpt lat="45.68964177742222" lon="9.260212760629692"><ele>275.5</ele><time>2026-03-16T16:01:42Z</time></trkpt><trkpt lat="45.68963295883626" lon="9.26001629548496"><ele>274.75</ele><time>2026-03-16T16:01:43Z</time></trkpt><trkpt lat="45.68964662038929" lon="9.25979661395268"><ele>274.0</ele><time>2026-03-16T16:01:44Z</time></trkpt><trkpt lat="45.68965051727525" lon="9.259579565986481"><ele>274.0</ele><time>2026-03-16T16:01:45Z</time></trkpt><trkpt lat="45.68965769337944" lon="9.25933415017933"><ele>274.0</ele><time>2026-03-16T16:01:46Z</time></trkpt><trkpt lat="45.6896451101987" lon="9.259117692124796"><ele>274.0</ele><time>2026-03-16T16:01:47Z</time></trkpt><trkpt lat="45.68964780518439" lon="9.258915469760778"><ele>274.25</ele><time>2026-03-16T16:01:48Z</time></trkpt><trkpt lat="45.68965116334339" lon="9.258734078364968"><ele>274.5</ele><time>2026-03-16T16:01:49Z</time></trkpt><trkpt lat="45.68967438368336" lon="9.258568103045924"><ele>274.75</ele><time>2026-03-16T16:01:50Z</time></trkpt><trkpt lat="45.68967483578211" lon="9.25836471617946"><ele>275.0</ele><time>2026-03-16T16:01:51Z</time></trkpt><trkpt lat="45.68969347983379" lon="9.258184847020399"><ele>274.0</ele><time>2026-03-16T16:01:52Z</time></trkpt><trkpt lat="45.689701671436794" lon="9.258003516100928"><ele>273.0</ele><time>2026-03-16T16:01:53Z</time></trkpt><trkpt lat="45.68971067552533" lon="9.257824821459527"><ele>272.0</ele><time>2026-03-16T16:01:54Z</time></trkpt><trkpt lat="45.68970050699269" lon="9.257670437287336"><ele>271.0</ele><time>2026-03-16T16:01:55Z</time></trkpt><trkpt lat="45.68966015308669" lon="9.257546571306037"><ele>271.0</ele><time>2026-03-16T16:01:56Z</time></trkpt><trkpt lat="45.68960921470167" lon="9.257445420592035"><ele>271.0</ele><time>2026-03-16T16:01:57Z</time></trkpt><trkpt lat="45.689594806449946" lon="9.257323746297645"><ele>271.0</ele><time>2026-03-16T16:01:59Z</time></trkpt><trkpt lat="45.68973749329368" lon="9.257273922320119"><ele>271.0</ele><time>2026-03-16T16:02:01Z</time></trkpt><trkpt lat="45.689931621938726" lon="9.257244984859769"><ele>270.66666666666663</ele><time>2026-03-16T16:02:02Z</time></trkpt><trkpt lat="45.690153015307125" lon="9.25711496399763"><ele>270.3333333333333</ele><time>2026-03-16T16:02:03Z</time></trkpt><trkpt lat="45.690329262459194" lon="9.257002446692727"><ele>270.0</ele><time>2026-03-16T16:02:04Z</time></trkpt><trkpt lat="45.690398174783304" lon="9.256940203067764"><ele>270.0</ele><time>2026-03-16T16:02:05Z</time></trkpt><trkpt lat="45.690526068431815" lon="9.256864517752092"><ele>270.0</ele><time>2026-03-16T16:02:06Z</time></trkpt><trkpt lat="45.69065165638093" lon="9.256786493510017"><ele>270.0</ele><time>2026-03-16T16:02:07Z</time></trkpt><trkpt lat="45.69080135696964" lon="9.256710433138466"><ele>270.0</ele><time>2026-03-16T16:02:08Z</time></trkpt><trkpt lat="45.69093842178953" lon="9.25663093095865"><ele>270.0</ele><time>2026-03-16T16:02:09Z</time></trkpt><trkpt lat="45.691071181775946" lon="9.256550711247884"><ele>270.0</ele><time>2026-03-16T16:02:10Z</time></trkpt><trkpt lat="45.691204312459405" lon="9.256478237152129"><ele>270.0</ele><time>2026-03-16T16:02:11Z</time></trkpt><trkpt lat="45.6913391049969" lon="9.256401527730151"><ele>270.0</ele><time>2026-03-16T16:02:12Z</time></trkpt><trkpt lat="45.69147536485268" lon="9.256317490243072"><ele>270.5</ele><time>2026-03-16T16:02:13Z</time></trkpt><trkpt lat="45.69160477115218" lon="9.256247721033661"><ele>271.0</ele><time>2026-03-16T16:02:14Z</time></trkpt><trkpt lat="45.691732940335214" lon="9.25616900790851"><ele>271.5</ele><time>2026-03-16T16:02:15Z</time></trkpt><trkpt lat="45.69186195417804" lon="9.256107680360504"><ele>272.0</ele><time>2026-03-16T16:02:16Z</time></trkpt><trkpt lat="45.691992522345984" lon="9.256038780786072"><ele>272.0</ele><time>2026-03-16T16:02:17Z</time></trkpt><trkpt lat="45.69212467945041" lon="9.255975309820155"><ele>272.0</ele><time>2026-03-16T16:02:18Z</time></trkpt><trkpt lat="45.692262181335856" lon="9.255934266534334"><ele>272.0</ele><time>2026-03-16T16:02:19Z</time></trkpt><trkpt lat="45.69242322291253" lon="9.255919125150886"><ele>272.0</ele><time>2026-03-16T16:02:20Z</time></trkpt><trkpt lat="45.69260076547066" lon="9.255926615874674"><ele>272.5</ele><time>2026-03-16T16:02:21Z</time></trkpt><trkpt lat="45.692758964778875" lon="9.255964022057624"><ele>273.0</ele><time>2026-03-16T16:02:22Z</time></trkpt><trkpt lat="45.69290509411994" lon="9.256025847311726"><ele>273.5</ele><time>2026-03-16T16:02:23Z</time></trkpt><trkpt lat="45.69303585149176" lon="9.25607827910761"><ele>274.0</ele><time>2026-03-16T16:02:24Z</time></trkpt><trkpt lat="45.693152473693544" lon="9.256116228641224"><ele>274.0</ele><time>2026-03-16T16:02:25Z</time></trkpt><trkpt lat="45.69328213253986" lon="9.256158526465642"><ele>274.0</ele><time>2026-03-16T16:02:26Z</time></trkpt><trkpt lat="45.69342396587311" lon="9.256234173983259"><ele>274.0</ele><time>2026-03-16T16:02:27Z</time></trkpt><trkpt lat="45.6935675156921" lon="9.256325888206549"><ele>274.0</ele><time>2026-03-16T16:02:28Z</time></trkpt><trkpt lat="45.69371319843764" lon="9.256435088265015"><ele>274.3333333333333</ele><time>2026-03-16T16:02:29Z</time></trkpt><trkpt lat="45.693855155449526" lon="9.256543129487476"><ele>274.6666666666667</ele><time>2026-03-16T16:02:30Z</time></trkpt><trkpt lat="45.69398900587289" lon="9.256669425744471"><ele>275.0</ele><time>2026-03-16T16:02:31Z</time></trkpt><trkpt lat="45.69411153824501" lon="9.256816260853812"><ele>275.0</ele><time>2026-03-16T16:02:32Z</time></trkpt><trkpt lat="45.694227752450665" lon="9.25697824382811"><ele>275.0</ele><time>2026-03-16T16:02:33Z</time></trkpt><trkpt lat="45.694338225650185" lon="9.257143171661049"><ele>275.0</ele><time>2026-03-16T16:02:34Z</time></trkpt><trkpt lat="45.69444159848048" lon="9.257306843395384"><ele>275.33333333333337</ele><time>2026-03-16T16:02:35Z</time></trkpt><trkpt lat="45.69454717623224" lon="9.257477719974242"><ele>275.6666666666667</ele><time>2026-03-16T16:02:36Z</time></trkpt><trkpt lat="45.694648901517034" lon="9.257646950718328"><ele>276.0</ele><time>2026-03-16T16:02:37Z</time></trkpt><trkpt lat="45.694755816292194" lon="9.257808873029154"><ele>276.0</ele><time>2026-03-16T16:02:38Z</time></trkpt><trkpt lat="45.6948555276172" lon="9.257961380581495"><ele>276.0</ele><time>2026-03-16T16:02:39Z</time></trkpt><trkpt lat="45.6949506677347" lon="9.258112453062958"><ele>276.0</ele><time>2026-03-16T16:02:40Z</time></trkpt><trkpt lat="45.695049585537426" lon="9.258267919090503"><ele>276.0</ele><time>2026-03-16T16:02:41Z</time></trkpt><trkpt lat="45.69515423140337" lon="9.258417590563045"><ele>276.6666666666667</ele><time>2026-03-16T16:02:42Z</time></trkpt><trkpt lat="45.69525301371449" lon="9.258587838816199"><ele>277.33333333333337</ele><time>2026-03-16T16:02:43Z</time></trkpt><trkpt lat="45.695359332239576" lon="9.258761389763343"><ele>278.0</ele><time>2026-03-16T16:02:44Z</time></trkpt><trkpt lat="45.69547406576389" lon="9.258956154141455"><ele>278.0</ele><time>2026-03-16T16:02:45Z</time></trkpt><trkpt lat="45.695589936305694" lon="9.259177820183133"><ele>278.0</ele><time>2026-03-16T16:02:46Z</time></trkpt><trkpt lat="45.6957171390177" lon="9.259410147383337"><ele>278.0</ele><time>2026-03-16T16:02:47Z</time></trkpt><trkpt lat="45.695865844384166" lon="9.259643819005747"><ele>279.0</ele><time>2026-03-16T16:02:48Z</time></trkpt><trkpt lat="45.6960207468395" lon="9.259869448274095"><ele>280.0</ele><time>2026-03-16T16:02:49Z</time></trkpt><trkpt lat="45.69616256681288" lon="9.260081531851988"><ele>281.0</ele><time>2026-03-16T16:02:50Z</time></trkpt><trkpt lat="45.69630475468294" lon="9.260289361662162"><ele>281.0</ele><time>2026-03-16T16:02:51Z</time></trkpt><trkpt lat="45.69645506777708" lon="9.260476289973399"><ele>281.0</ele><time>2026-03-16T16:02:52Z</time></trkpt><trkpt lat="45.696613206986896" lon="9.260652588383222"><ele>281.0</ele><time>2026-03-16T16:02:53Z</time></trkpt><trkpt lat="45.69673519779075" lon="9.260828280558242"><ele>281.33333333333337</ele><time>2026-03-16T16:02:54Z</time></trkpt><trkpt lat="45.696884779329054" lon="9.260951813152788"><ele>281.6666666666667</ele><time>2026-03-16T16:02:55Z</time></trkpt><trkpt lat="45.697031945337" lon="9.261062762704487"><ele>282.0</ele><time>2026-03-16T16:02:56Z</time></trkpt><trkpt lat="45.697170189650016" lon="9.261122812730147"><ele>282.3333333333333</ele><time>2026-03-16T16:02:56.999Z</time></trkpt><trkpt lat="45.69729542190868" lon="9.26119662415604"><ele>282.66666666666663</ele><time>2026-03-16T16:02:57.999Z</time></trkpt><trkpt lat="45.69744836710265" lon="9.261254769492286"><ele>283.0</ele><time>2026-03-16T16:02:58.999Z</time></trkpt><trkpt lat="45.69762396517182" lon="9.261311616098613"><ele>283.25</ele><time>2026-03-16T16:02:59.999Z</time></trkpt><trkpt lat="45.6977824080562" lon="9.261349924983321"><ele>283.5</ele><time>2026-03-16T16:03:00.999Z</time></trkpt><trkpt lat="45.69790180593214" lon="9.261378416371567"><ele>283.75</ele><time>2026-03-16T16:03:01.999Z</time></trkpt><trkpt lat="45.69798174350478" lon="9.261406677101354"><ele>284.0</ele><time>2026-03-16T16:03:02.999Z</time></trkpt><trkpt lat="45.69809123997122" lon="9.261502820412002"><ele>284.0</ele><time>2026-03-16T16:03:04.999Z</time></trkpt><trkpt lat="45.698150013306744" lon="9.26159454766065"><ele>284.0</ele><time>2026-03-16T16:03:05.999Z</time></trkpt><trkpt lat="45.69821215003072" lon="9.261676588952655"><ele>284.0</ele><time>2026-03-16T16:03:06.999Z</time></trkpt><trkpt lat="45.698288837617646" lon="9.26168550613071"><ele>284.0</ele><time>2026-03-16T16:03:07.999Z</time></trkpt><trkpt lat="45.69837094930753" lon="9.261628349621613"><ele>284.0</ele><time>2026-03-16T16:03:08.999Z</time></trkpt><trkpt lat="45.69841505424642" lon="9.261524152797755"><ele>284.0</ele><time>2026-03-16T16:03:09.999Z</time></trkpt><trkpt lat="45.69840759082755" lon="9.261371380334005"><ele>284.0</ele><time>2026-03-16T16:03:10.999Z</time></trkpt><trkpt lat="45.698367126258034" lon="9.261260074398399"><ele>284.0</ele><time>2026-03-16T16:03:11.999Z</time></trkpt><trkpt lat="45.69833460081223" lon="9.261136561644067"><ele>284.0</ele><time>2026-03-16T16:03:13.999Z</time></trkpt><trkpt lat="45.69832650952517" lon="9.260902526306777"><ele>284.0</ele><time>2026-03-16T16:03:18.999Z</time></trkpt><trkpt lat="45.69832285807605" lon="9.260738511214381"><ele>284.33333333333337</ele><time>2026-03-16T16:03:19.999Z</time></trkpt><trkpt lat="45.69834166971437" lon="9.260547776500003"><ele>284.6666666666667</ele><time>2026-03-16T16:03:20.999Z</time></trkpt><trkpt lat="45.69837621734739" lon="9.260339982780057"><ele>285.0</ele><time>2026-03-16T16:03:21.999Z</time></trkpt><trkpt lat="45.698419439767896" lon="9.260098724850554"><ele>285.0</ele><time>2026-03-16T16:03:22.999Z</time></trkpt><trkpt lat="45.69847438776095" lon="9.259861775813848"><ele>285.0</ele><time>2026-03-16T16:03:23.999Z</time></trkpt><trkpt lat="45.698574099630434" lon="9.259630574194544"><ele>285.0</ele><time>2026-03-16T16:03:24.999Z</time></trkpt><trkpt lat="45.69870587565763" lon="9.259390675362361"><ele>287.3333333333333</ele><time>2026-03-16T16:03:25.999Z</time></trkpt><trkpt lat="45.69883744137084" lon="9.259140954080875"><ele>289.66666666666663</ele><time>2026-03-16T16:03:26.999Z</time></trkpt><trkpt lat="45.69895325968412" lon="9.258881657858852"><ele>292.0</ele><time>2026-03-16T16:03:27.999Z</time></trkpt><trkpt lat="45.69905902328575" lon="9.258663491191498"><ele>292.0</ele><time>2026-03-16T16:03:28.999Z</time></trkpt><trkpt lat="45.69914758535446" lon="9.258475182993154"><ele>292.0</ele><time>2026-03-16T16:03:29.999Z</time></trkpt><trkpt lat="45.69921211772701" lon="9.258295574304846"><ele>292.0</ele><time>2026-03-16T16:03:30.999Z</time></trkpt><trkpt lat="45.69923611867358" lon="9.258086688169637"><ele>292.0</ele><time>2026-03-16T16:03:31.999Z</time></trkpt><trkpt lat="45.699226760269894" lon="9.257846568636573"><ele>292.0</ele><time>2026-03-16T16:03:32.999Z</time></trkpt><trkpt lat="45.69919273755413" lon="9.257604616022904"><ele>292.0</ele><time>2026-03-16T16:03:33.999Z</time></trkpt><trkpt lat="45.69913020352453" lon="9.257351160902482"><ele>292.0</ele><time>2026-03-16T16:03:34.999Z</time></trkpt><trkpt lat="45.69906084925611" lon="9.257105876581122"><ele>292.0</ele><time>2026-03-16T16:03:35.999Z</time></trkpt><trkpt lat="45.69898212445775" lon="9.256863237138234"><ele>292.0</ele><time>2026-03-16T16:03:36.999Z</time></trkpt><trkpt lat="45.698888513359464" lon="9.256630140120425"><ele>292.0</ele><time>2026-03-16T16:03:38Z</time></trkpt><trkpt lat="45.69878100095594" lon="9.256396698261597"><ele>292.3333333333333</ele><time>2026-03-16T16:03:39Z</time></trkpt><trkpt lat="45.69867443920389" lon="9.256150549099004"><ele>292.6666666666667</ele><time>2026-03-16T16:03:40Z</time></trkpt><trkpt lat="45.69855913541069" lon="9.255876869536522"><ele>293.0</ele><time>2026-03-16T16:03:41Z</time></trkpt><trkpt lat="45.69843996255414" lon="9.255615504160058"><ele>291.33333333333337</ele><time>2026-03-16T16:03:42Z</time></trkpt><trkpt lat="45.6983346766554" lon="9.255371629605309"><ele>289.6666666666667</ele><time>2026-03-16T16:03:43Z</time></trkpt><trkpt lat="45.69823344434034" lon="9.255137652600107"><ele>288.0</ele><time>2026-03-16T16:03:44Z</time></trkpt><trkpt lat="45.69812637508102" lon="9.25490600947684"><ele>287.6666666666667</ele><time>2026-03-16T16:03:45Z</time></trkpt><trkpt lat="45.698027503300786" lon="9.254696144755247"><ele>287.33333333333337</ele><time>2026-03-16T16:03:46Z</time></trkpt><trkpt lat="45.69791362661786" lon="9.254516678147269"><ele>287.0</ele><time>2026-03-16T16:03:47Z</time></trkpt><trkpt lat="45.69777794346634" lon="9.254378575063724"><ele>287.0</ele><time>2026-03-16T16:03:48Z</time></trkpt><trkpt lat="45.69761255826359" lon="9.25428632857824"><ele>287.0</ele><time>2026-03-16T16:03:49Z</time></trkpt><trkpt lat="45.69744499324543" lon="9.25421945576159"><ele>287.0</ele><time>2026-03-16T16:03:50Z</time></trkpt><trkpt lat="45.697299880727854" lon="9.254140819653685"><ele>287.0</ele><time>2026-03-16T16:03:51Z</time></trkpt><trkpt lat="45.69719014989423" lon="9.25404819253618"><ele>287.0</ele><time>2026-03-16T16:03:52Z</time></trkpt><trkpt lat="45.69715556194218" lon="9.253970043250417"><ele>287.0</ele><time>2026-03-16T16:03:53Z</time></trkpt><trkpt lat="45.697144227473395" lon="9.253836813002046"><ele>287.0</ele><time>2026-03-16T16:03:54Z</time></trkpt><trkpt lat="45.697168609424644" lon="9.253701466367565"><ele>287.0</ele><time>2026-03-16T16:03:55Z</time></trkpt><trkpt lat="45.69722429923812" lon="9.253558968610356"><ele>288.33333333333337</ele><time>2026-03-16T16:03:56Z</time></trkpt><trkpt lat="45.697298222838995" lon="9.253408462166766"><ele>289.6666666666667</ele><time>2026-03-16T16:03:57Z</time></trkpt><trkpt lat="45.697371969462644" lon="9.253204737187161"><ele>291.0</ele><time>2026-03-16T16:03:58Z</time></trkpt><trkpt lat="45.69745311973986" lon="9.253005189527093"><ele>291.2</ele><time>2026-03-16T16:03:59Z</time></trkpt><trkpt lat="45.69750744577456" lon="9.252853618712196"><ele>291.40000000000003</ele><time>2026-03-16T16:04:00Z</time></trkpt><trkpt lat="45.697551790563715" lon="9.252735512462978"><ele>291.6</ele><time>2026-03-16T16:04:01Z</time></trkpt><trkpt lat="45.697583478515355" lon="9.252642692380244"><ele>291.8</ele><time>2026-03-16T16:04:02Z</time></trkpt><trkpt lat="45.697642798298354" lon="9.252523463721795"><ele>292.0</ele><time>2026-03-16T16:04:04Z</time></trkpt><trkpt lat="45.697744118520376" lon="9.252502750863886"><ele>291.8</ele><time>2026-03-16T16:04:07Z</time></trkpt><trkpt lat="45.69782917605844" lon="9.25254893222375"><ele>291.6</ele><time>2026-03-16T16:04:08Z</time></trkpt><trkpt lat="45.697911798441204" lon="9.25258107814358"><ele>291.40000000000003</ele><time>2026-03-16T16:04:09Z</time></trkpt><trkpt lat="45.698008621062144" lon="9.252621616643507"><ele>291.2</ele><time>2026-03-16T16:04:10Z</time></trkpt><trkpt lat="45.6981025596384" lon="9.252634907678976"><ele>291.0</ele><time>2026-03-16T16:04:11Z</time></trkpt><trkpt lat="45.698201348861296" lon="9.252680189716637"><ele>291.0</ele><time>2026-03-16T16:04:12Z</time></trkpt><trkpt lat="45.69829762050421" lon="9.25270565688506"><ele>291.0</ele><time>2026-03-16T16:04:13Z</time></trkpt><trkpt lat="45.698409101287325" lon="9.25273260059787"><ele>291.0</ele><time>2026-03-16T16:04:14Z</time></trkpt><trkpt lat="45.6985045567337" lon="9.252754963073055"><ele>291.0</ele><time>2026-03-16T16:04:15Z</time></trkpt><trkpt lat="45.69859437104453" lon="9.252782132668445"><ele>291.0</ele><time>2026-03-16T16:04:16Z</time></trkpt><trkpt lat="45.69870900165765" lon="9.252815709979664"><ele>290.6</ele><time>2026-03-16T16:04:17Z</time></trkpt><trkpt lat="45.698834133860075" lon="9.25282489183421"><ele>290.20000000000005</ele><time>2026-03-16T16:04:18Z</time></trkpt><trkpt lat="45.69892612665188" lon="9.252845173933512"><ele>289.79999999999995</ele><time>2026-03-16T16:04:19Z</time></trkpt><trkpt lat="45.699009556380126" lon="9.252858596195656"><ele>289.4</ele><time>2026-03-16T16:04:20Z</time></trkpt><trkpt lat="45.69907712622063" lon="9.252870940934057"><ele>289.0</ele><time>2026-03-16T16:04:21Z</time></trkpt><trkpt lat="45.699169257883234" lon="9.252876496951345"><ele>289.0</ele><time>2026-03-16T16:04:23Z</time></trkpt><trkpt lat="45.699265388886836" lon="9.252882958545156"><ele>289.0</ele><time>2026-03-16T16:04:25Z</time></trkpt><trkpt lat="45.69933720921328" lon="9.252932269360677"><ele>289.0</ele><time>2026-03-16T16:04:27Z</time></trkpt><trkpt lat="45.69940089568991" lon="9.252942371147906"><ele>289.0</ele><time>2026-03-16T16:04:28Z</time></trkpt><trkpt lat="45.699487784385" lon="9.252965442053254"><ele>289.0</ele><time>2026-03-16T16:04:29Z</time></trkpt><trkpt lat="45.69959474817802" lon="9.253021599212785"><ele>289.0</ele><time>2026-03-16T16:04:30Z</time></trkpt><trkpt lat="45.69977708146188" lon="9.25301005488652"><ele>287.75</ele><time>2026-03-16T16:04:31Z</time></trkpt><trkpt lat="45.699883183502706" lon="9.253009917211424"><ele>286.5</ele><time>2026-03-16T16:04:32Z</time></trkpt><trkpt lat="45.70003026248672" lon="9.25303687635961"><ele>285.25</ele><time>2026-03-16T16:04:33Z</time></trkpt><trkpt lat="45.700159903552645" lon="9.253065164061288"><ele>284.0</ele><time>2026-03-16T16:04:34Z</time></trkpt><trkpt lat="45.70033223674055" lon="9.253048574448105"><ele>284.0</ele><time>2026-03-16T16:04:35Z</time></trkpt><trkpt lat="45.7004688890512" lon="9.253060562172351"><ele>284.0</ele><time>2026-03-16T16:04:36Z</time></trkpt><trkpt lat="45.70060734542788" lon="9.253085105394588"><ele>284.0</ele><time>2026-03-16T16:04:37Z</time></trkpt><trkpt lat="45.70074856961293" lon="9.253093467674578"><ele>284.0</ele><time>2026-03-16T16:04:38Z</time></trkpt><trkpt lat="45.700882758766554" lon="9.253105223173021"><ele>284.0</ele><time>2026-03-16T16:04:39Z</time></trkpt><trkpt lat="45.701022052280265" lon="9.25312147793719"><ele>284.0</ele><time>2026-03-16T16:04:40Z</time></trkpt><trkpt lat="45.70114415256291" lon="9.253144698765137"><ele>284.0</ele><time>2026-03-16T16:04:41Z</time></trkpt><trkpt lat="45.701260064527766" lon="9.253135078418632"><ele>284.0</ele><time>2026-03-16T16:04:42Z</time></trkpt><trkpt lat="45.70130728915047" lon="9.253034000272352"><ele>285.0</ele><time>2026-03-16T16:04:43Z</time></trkpt><trkpt lat="45.70137968910339" lon="9.252923728728337"><ele>286.0</ele><time>2026-03-16T16:04:44Z</time></trkpt><trkpt lat="45.70143096175357" lon="9.252745589366421"><ele>287.0</ele><time>2026-03-16T16:04:45Z</time></trkpt><trkpt lat="45.70147093517338" lon="9.252553760926993"><ele>288.0</ele><time>2026-03-16T16:04:46Z</time></trkpt><trkpt lat="45.70153062738284" lon="9.25232677140336"><ele>288.0</ele><time>2026-03-16T16:04:47Z</time></trkpt><trkpt lat="45.70159077967837" lon="9.252084673266138"><ele>288.0</ele><time>2026-03-16T16:04:48Z</time></trkpt><trkpt lat="45.70166493469628" lon="9.25181445593381"><ele>288.0</ele><time>2026-03-16T16:04:49Z</time></trkpt><trkpt lat="45.70175019936503" lon="9.251540753890563"><ele>288.6666666666667</ele><time>2026-03-16T16:04:50Z</time></trkpt><trkpt lat="45.70185832952095" lon="9.251261134437366"><ele>289.33333333333337</ele><time>2026-03-16T16:04:51Z</time></trkpt><trkpt lat="45.701938260433224" lon="9.251005134471496"><ele>290.0</ele><time>2026-03-16T16:04:52Z</time></trkpt><trkpt lat="45.70200969586073" lon="9.250769386625908"><ele>289.5</ele><time>2026-03-16T16:04:53Z</time></trkpt><trkpt lat="45.70208276310845" lon="9.25056587977488"><ele>289.0</ele><time>2026-03-16T16:04:54Z</time></trkpt><trkpt lat="45.70213758989838" lon="9.250394335679303"><ele>288.5</ele><time>2026-03-16T16:04:55Z</time></trkpt><trkpt lat="45.70221575776412" lon="9.25024162671395"><ele>288.0</ele><time>2026-03-16T16:04:56Z</time></trkpt><trkpt lat="45.70233088425459" lon="9.250136640766994"><ele>288.0</ele><time>2026-03-16T16:04:57Z</time></trkpt><trkpt lat="45.70249317053094" lon="9.250030307339411"><ele>288.0</ele><time>2026-03-16T16:04:58Z</time></trkpt><trkpt lat="45.70270262873019" lon="9.250016552754046"><ele>288.0</ele><time>2026-03-16T16:04:59Z</time></trkpt><trkpt lat="45.70289377295454" lon="9.249935636494625"><ele>288.3333333333333</ele><time>2026-03-16T16:05:00Z</time></trkpt><trkpt lat="45.70309823870731" lon="9.249845629551574"><ele>288.66666666666663</ele><time>2026-03-16T16:05:01Z</time></trkpt><trkpt lat="45.70329902523425" lon="9.249756271365731"><ele>289.0</ele><time>2026-03-16T16:05:02Z</time></trkpt><trkpt lat="45.703493582252726" lon="9.249654049801087"><ele>292.3333333333333</ele><time>2026-03-16T16:05:03Z</time></trkpt><trkpt lat="45.70371184851945" lon="9.249551190207267"><ele>295.6666666666667</ele><time>2026-03-16T16:05:04Z</time></trkpt><trkpt lat="45.7038993323219" lon="9.249462415639414"><ele>299.0</ele><time>2026-03-16T16:05:05Z</time></trkpt><trkpt lat="45.704076267128144" lon="9.249408529465938"><ele>299.0</ele><time>2026-03-16T16:05:06Z</time></trkpt><trkpt lat="45.70425844749166" lon="9.249388084220916"><ele>299.0</ele><time>2026-03-16T16:05:07Z</time></trkpt><trkpt lat="45.704450510633116" lon="9.249418701920982"><ele>299.0</ele><time>2026-03-16T16:05:08Z</time></trkpt><trkpt lat="45.70465458430677" lon="9.249485286919455"><ele>298.0</ele><time>2026-03-16T16:05:08.999Z</time></trkpt><trkpt lat="45.70486959036493" lon="9.249559079491087"><ele>297.0</ele><time>2026-03-16T16:05:09.999Z</time></trkpt><trkpt lat="45.70508829033036" lon="9.249609639414068"><ele>296.0</ele><time>2026-03-16T16:05:10.999Z</time></trkpt><trkpt lat="45.70529047994336" lon="9.249665347973963"><ele>295.0</ele><time>2026-03-16T16:05:11.999Z</time></trkpt><trkpt lat="45.7054704494844" lon="9.249708584320526"><ele>294.0</ele><time>2026-03-16T16:05:12.999Z</time></trkpt><trkpt lat="45.70564364523963" lon="9.249752006476294"><ele>293.0</ele><time>2026-03-16T16:05:13.999Z</time></trkpt><trkpt lat="45.7058062942654" lon="9.249795223065847"><ele>290.6666666666667</ele><time>2026-03-16T16:05:14.999Z</time></trkpt><trkpt lat="45.705966366961306" lon="9.249823988557168"><ele>288.3333333333333</ele><time>2026-03-16T16:05:15.999Z</time></trkpt><trkpt lat="45.70612180419482" lon="9.249824985185573"><ele>286.0</ele><time>2026-03-16T16:05:16.999Z</time></trkpt><trkpt lat="45.70627380790465" lon="9.249752812198839"><ele>286.0</ele><time>2026-03-16T16:05:17.999Z</time></trkpt><trkpt lat="45.70640562735673" lon="9.249631081853257"><ele>286.0</ele><time>2026-03-16T16:05:18.999Z</time></trkpt><trkpt lat="45.706522004288686" lon="9.249458430525586"><ele>286.0</ele><time>2026-03-16T16:05:19.999Z</time></trkpt><trkpt lat="45.70661776828849" lon="9.24923656709742"><ele>286.0</ele><time>2026-03-16T16:05:20.999Z</time></trkpt><trkpt lat="45.70668892408504" lon="9.248994719048909"><ele>286.0</ele><time>2026-03-16T16:05:21.999Z</time></trkpt><trkpt lat="45.7067251203193" lon="9.248733397707083"><ele>286.0</ele><time>2026-03-16T16:05:22.999Z</time></trkpt><trkpt lat="45.70673157803372" lon="9.248448812476402"><ele>284.0</ele><time>2026-03-16T16:05:23.999Z</time></trkpt><trkpt lat="45.70672155012009" lon="9.248117328099069"><ele>282.0</ele><time>2026-03-16T16:05:24.999Z</time></trkpt><trkpt lat="45.706716632814846" lon="9.247775260596974"><ele>282.0</ele><time>2026-03-16T16:05:25.999Z</time></trkpt><trkpt lat="45.706705246434765" lon="9.247437401589789"><ele>282.0</ele><time>2026-03-16T16:05:26.999Z</time></trkpt><trkpt lat="45.70669409560383" lon="9.247086430567816"><ele>279.5</ele><time>2026-03-16T16:05:27.999Z</time></trkpt><trkpt lat="45.70668417940398" lon="9.246762018526566"><ele>277.0</ele><time>2026-03-16T16:05:28.999Z</time></trkpt><trkpt lat="45.706681786165944" lon="9.246437371175553"><ele>276.5</ele><time>2026-03-16T16:05:29.999Z</time></trkpt><trkpt lat="45.70668071669694" lon="9.246102846260731"><ele>276.0</ele><time>2026-03-16T16:05:30.999Z</time></trkpt><trkpt lat="45.706671880463595" lon="9.245778717117858"><ele>275.6666666666667</ele><time>2026-03-16T16:05:31.999Z</time></trkpt><trkpt lat="45.70665965776972" lon="9.245481410434957"><ele>275.33333333333337</ele><time>2026-03-16T16:05:32.999Z</time></trkpt><trkpt lat="45.70666148041436" lon="9.24520758657961"><ele>275.0</ele><time>2026-03-16T16:05:33.999Z</time></trkpt><trkpt lat="45.70665975972014" lon="9.244950536622817"><ele>275.6666666666667</ele><time>2026-03-16T16:05:34.999Z</time></trkpt><trkpt lat="45.70666641763851" lon="9.244713099260354"><ele>276.3333333333333</ele><time>2026-03-16T16:05:35.999Z</time></trkpt><trkpt lat="45.70668650550188" lon="9.244480559349"><ele>277.0</ele><time>2026-03-16T16:05:36.999Z</time></trkpt><trkpt lat="45.706718971750824" lon="9.244238610894541"><ele>277.0</ele><time>2026-03-16T16:05:37.999Z</time></trkpt><trkpt lat="45.70675674630133" lon="9.244000249219756"><ele>277.0</ele><time>2026-03-16T16:05:38.999Z</time></trkpt><trkpt lat="45.70679543721225" lon="9.243782447537015"><ele>277.0</ele><time>2026-03-16T16:05:39.999Z</time></trkpt><trkpt lat="45.70684515759221" lon="9.243572821850513"><ele>277.3333333333333</ele><time>2026-03-16T16:05:40.999Z</time></trkpt><trkpt lat="45.70688611208437" lon="9.243350545877968"><ele>277.6666666666667</ele><time>2026-03-16T16:05:41.999Z</time></trkpt><trkpt lat="45.70692043031702" lon="9.243120682748302"><ele>278.0</ele><time>2026-03-16T16:05:42.999Z</time></trkpt><trkpt lat="45.706957693676365" lon="9.242915061840927"><ele>278.0</ele><time>2026-03-16T16:05:44Z</time></trkpt><trkpt lat="45.70698979664666" lon="9.242725602836032"><ele>278.0</ele><time>2026-03-16T16:05:45Z</time></trkpt><trkpt lat="45.707022580747854" lon="9.242555427548295"><ele>278.0</ele><time>2026-03-16T16:05:46Z</time></trkpt><trkpt lat="45.707054174059714" lon="9.242398968565654"><ele>278.0</ele><time>2026-03-16T16:05:47Z</time></trkpt><trkpt lat="45.7070749644129" lon="9.242258279793496"><ele>278.6</ele><time>2026-03-16T16:05:48Z</time></trkpt><trkpt lat="45.70709744867229" lon="9.242138662732879"><ele>279.20000000000005</ele><time>2026-03-16T16:05:49Z</time></trkpt><trkpt lat="45.707117104972546" lon="9.242046943554174"><ele>279.8</ele><time>2026-03-16T16:05:50Z</time></trkpt><trkpt lat="45.707128336997634" lon="9.241918404248372"><ele>280.40000000000003</ele><time>2026-03-16T16:05:51Z</time></trkpt><trkpt lat="45.70714111209709" lon="9.24174071967853"><ele>281.0</ele><time>2026-03-16T16:05:52Z</time></trkpt><trkpt lat="45.70716554716299" lon="9.241530507406937"><ele>281.6666666666667</ele><time>2026-03-16T16:05:53Z</time></trkpt><trkpt lat="45.70720742640019" lon="9.241316038786376"><ele>282.3333333333333</ele><time>2026-03-16T16:05:54Z</time></trkpt><trkpt lat="45.70724178665394" lon="9.24109748610023"><ele>283.0</ele><time>2026-03-16T16:05:55Z</time></trkpt><trkpt lat="45.70727247270557" lon="9.24089400939818"><ele>283.0</ele><time>2026-03-16T16:05:56Z</time></trkpt><trkpt lat="45.707290366820814" lon="9.240704893139952"><ele>283.0</ele><time>2026-03-16T16:05:57Z</time></trkpt><trkpt lat="45.70732195714663" lon="9.240536817848609"><ele>283.0</ele><time>2026-03-16T16:05:58Z</time></trkpt><trkpt lat="45.70734478954989" lon="9.240388989187204"><ele>283.0</ele><time>2026-03-16T16:05:59Z</time></trkpt><trkpt lat="45.70736593554157" lon="9.240265642131913"><ele>283.0</ele><time>2026-03-16T16:06:00Z</time></trkpt><trkpt lat="45.7073854655765" lon="9.240144250064878"><ele>283.25</ele><time>2026-03-16T16:06:01Z</time></trkpt><trkpt lat="45.70740520711033" lon="9.240029539953277"><ele>283.5</ele><time>2026-03-16T16:06:02Z</time></trkpt><trkpt lat="45.70740734427458" lon="9.23988282662495"><ele>283.75</ele><time>2026-03-16T16:06:03Z</time></trkpt><trkpt lat="45.70741437251979" lon="9.239693587180485"><ele>284.0</ele><time>2026-03-16T16:06:04Z</time></trkpt><trkpt lat="45.707435242116844" lon="9.239498739912579"><ele>284.0</ele><time>2026-03-16T16:06:05Z</time></trkpt><trkpt lat="45.707476706178156" lon="9.239288609297716"><ele>284.0</ele><time>2026-03-16T16:06:06Z</time></trkpt><trkpt lat="45.70750371395256" lon="9.23909193188243"><ele>284.0</ele><time>2026-03-16T16:06:07Z</time></trkpt><trkpt lat="45.707536505529866" lon="9.238918304092344"><ele>284.0</ele><time>2026-03-16T16:06:08Z</time></trkpt><trkpt lat="45.707562140640306" lon="9.238787424587176"><ele>283.59999999999997</ele><time>2026-03-16T16:06:09Z</time></trkpt><trkpt lat="45.707589739779856" lon="9.238673183842668"><ele>283.2</ele><time>2026-03-16T16:06:10Z</time></trkpt><trkpt lat="45.707606941852255" lon="9.238560290701747"><ele>282.79999999999995</ele><time>2026-03-16T16:06:11Z</time></trkpt><trkpt lat="45.707579781126455" lon="9.238465303426835"><ele>282.4</ele><time>2026-03-16T16:06:12Z</time></trkpt><trkpt lat="45.70765911330705" lon="9.238363496324158"><ele>282.0</ele><time>2026-03-16T16:06:15Z</time></trkpt><trkpt lat="45.70777236067276" lon="9.238365111597796"><ele>280.75</ele><time>2026-03-16T16:06:17Z</time></trkpt><trkpt lat="45.70787270486995" lon="9.238420060136116"><ele>279.5</ele><time>2026-03-16T16:06:18Z</time></trkpt><trkpt lat="45.707985680666845" lon="9.238500647282974"><ele>278.25</ele><time>2026-03-16T16:06:19Z</time></trkpt><trkpt lat="45.708109504929986" lon="9.238603341544374"><ele>277.0</ele><time>2026-03-16T16:06:20Z</time></trkpt><trkpt lat="45.708224469110704" lon="9.23876630416729"><ele>277.0</ele><time>2026-03-16T16:06:21Z</time></trkpt><trkpt lat="45.708339244714644" lon="9.238888883985437"><ele>277.0</ele><time>2026-03-16T16:06:22Z</time></trkpt><trkpt lat="45.70845271521563" lon="9.238995332522496"><ele>277.0</ele><time>2026-03-16T16:06:23Z</time></trkpt><trkpt lat="45.708543591281284" lon="9.239102855631133"><ele>277.0</ele><time>2026-03-16T16:06:24Z</time></trkpt><trkpt lat="45.70863883832194" lon="9.239199886919506"><ele>276.0</ele><time>2026-03-16T16:06:25Z</time></trkpt><trkpt lat="45.7087451343117" lon="9.23930793820158"><ele>275.0</ele><time>2026-03-16T16:06:26Z</time></trkpt><trkpt lat="45.70885746220836" lon="9.239418654358138"><ele>274.0</ele><time>2026-03-16T16:06:27Z</time></trkpt><trkpt lat="45.70894566214103" lon="9.239518894216467"><ele>273.0</ele><time>2026-03-16T16:06:28Z</time></trkpt><trkpt lat="45.709030946311884" lon="9.239620639038638"><ele>273.0</ele><time>2026-03-16T16:06:29Z</time></trkpt><trkpt lat="45.70910719173349" lon="9.23970920092002"><ele>273.0</ele><time>2026-03-16T16:06:30Z</time></trkpt><trkpt lat="45.709162789546646" lon="9.239762579057532"><ele>273.0</ele><time>2026-03-16T16:06:31Z</time></trkpt><trkpt lat="45.709294522607124" lon="9.239740069082503"><ele>273.0</ele><time>2026-03-16T16:06:33Z</time></trkpt><trkpt lat="45.70936452293213" lon="9.239634617271944"><ele>273.0</ele><time>2026-03-16T16:06:34Z</time></trkpt><trkpt lat="45.70945832269207" lon="9.23944336117975"><ele>272.4</ele><time>2026-03-16T16:06:35Z</time></trkpt><trkpt lat="45.70955976317012" lon="9.239328041154288"><ele>271.8</ele><time>2026-03-16T16:06:36Z</time></trkpt><trkpt lat="45.70966147817729" lon="9.239218442458165"><ele>271.2</ele><time>2026-03-16T16:06:37Z</time></trkpt><trkpt lat="45.70973923154874" lon="9.239123811281928"><ele>270.6</ele><time>2026-03-16T16:06:38Z</time></trkpt><trkpt lat="45.70978429169557" lon="9.239036358517467"><ele>270.0</ele><time>2026-03-16T16:06:39Z</time></trkpt><trkpt lat="45.70981322217757" lon="9.238927042237343"><ele>270.0</ele><time>2026-03-16T16:06:40Z</time></trkpt><trkpt lat="45.70990866135443" lon="9.23881684821596"><ele>270.0</ele><time>2026-03-16T16:06:41Z</time></trkpt><trkpt lat="45.71007400749722" lon="9.238677098643931"><ele>270.0</ele><time>2026-03-16T16:06:42Z</time></trkpt><trkpt lat="45.71017353708575" lon="9.238575068209917"><ele>270.0</ele><time>2026-03-16T16:06:43Z</time></trkpt><trkpt lat="45.710315935828035" lon="9.238387262107336"><ele>269.75</ele><time>2026-03-16T16:06:44Z</time></trkpt><trkpt lat="45.71041312860164" lon="9.238208805663943"><ele>269.5</ele><time>2026-03-16T16:06:45Z</time></trkpt><trkpt lat="45.71049646509414" lon="9.238033926875687"><ele>269.25</ele><time>2026-03-16T16:06:46Z</time></trkpt><trkpt lat="45.710577570538874" lon="9.237871359755093"><ele>269.0</ele><time>2026-03-16T16:06:47Z</time></trkpt><trkpt lat="45.710658986661734" lon="9.237716153227336"><ele>269.0</ele><time>2026-03-16T16:06:48Z</time></trkpt><trkpt lat="45.710728543364056" lon="9.23757537847795"><ele>269.0</ele><time>2026-03-16T16:06:49Z</time></trkpt><trkpt lat="45.71079673660603" lon="9.237443911469164"><ele>269.0</ele><time>2026-03-16T16:06:50Z</time></trkpt><trkpt lat="45.71085354122988" lon="9.237331548381654"><ele>269.0</ele><time>2026-03-16T16:06:51Z</time></trkpt><trkpt lat="45.71090712428031" lon="9.237230073067888"><ele>269.0</ele><time>2026-03-16T16:06:52Z</time></trkpt><trkpt lat="45.710959663189435" lon="9.23713650502288"><ele>269.0</ele><time>2026-03-16T16:06:53Z</time></trkpt><trkpt lat="45.71100071130071" lon="9.23704221805811"><ele>269.0</ele><time>2026-03-16T16:06:54Z</time></trkpt><trkpt lat="45.711042265372356" lon="9.23693831297536"><ele>269.0</ele><time>2026-03-16T16:06:55Z</time></trkpt><trkpt lat="45.711073795503175" lon="9.236818740639844"><ele>269.0</ele><time>2026-03-16T16:06:56Z</time></trkpt><trkpt lat="45.71110669397557" lon="9.236701148796845"><ele>269.0</ele><time>2026-03-16T16:06:57Z</time></trkpt><trkpt lat="45.71113841577107" lon="9.236588552223044"><ele>269.0</ele><time>2026-03-16T16:06:58Z</time></trkpt><trkpt lat="45.71116813429536" lon="9.236480966109092"><ele>268.14285714285717</ele><time>2026-03-16T16:06:59Z</time></trkpt><trkpt lat="45.71119267889396" lon="9.236379330995268"><ele>267.28571428571433</ele><time>2026-03-16T16:07:00Z</time></trkpt><trkpt lat="45.711212343129006" lon="9.236284566328155"><ele>266.42857142857144</ele><time>2026-03-16T16:07:00.999Z</time></trkpt><trkpt lat="45.711229184275005" lon="9.236193466208922"><ele>265.57142857142856</ele><time>2026-03-16T16:07:01.999Z</time></trkpt><trkpt lat="45.71125352179978" lon="9.236087231216876"><ele>264.71428571428567</ele><time>2026-03-16T16:07:02.999Z</time></trkpt><trkpt lat="45.71128867016797" lon="9.235997062320024"><ele>263.85714285714283</ele><time>2026-03-16T16:07:03.999Z</time></trkpt><trkpt lat="45.711337195533716" lon="9.23593012145897"><ele>263.0</ele><time>2026-03-16T16:07:04.999Z</time></trkpt><trkpt lat="45.711401726001085" lon="9.235881023982353"><ele>263.0</ele><time>2026-03-16T16:07:05.999Z</time></trkpt><trkpt lat="45.71149138434751" lon="9.23587443080153"><ele>263.0</ele><time>2026-03-16T16:07:06.999Z</time></trkpt><trkpt lat="45.71155773645673" lon="9.235874742256975"><ele>263.0</ele><time>2026-03-16T16:07:07.999Z</time></trkpt><trkpt lat="45.71164469494362" lon="9.235851775475245"><ele>263.0</ele><time>2026-03-16T16:07:08.999Z</time></trkpt><trkpt lat="45.71174081678166" lon="9.235841719922863"><ele>263.0</ele><time>2026-03-16T16:07:09.999Z</time></trkpt><trkpt lat="45.71182399636589" lon="9.235824386586232"><ele>263.0</ele><time>2026-03-16T16:07:10.999Z</time></trkpt><trkpt lat="45.711899635810525" lon="9.235782047010561"><ele>263.33333333333337</ele><time>2026-03-16T16:07:11.999Z</time></trkpt><trkpt lat="45.71194647188251" lon="9.23570545534041"><ele>263.6666666666667</ele><time>2026-03-16T16:07:12.999Z</time></trkpt><trkpt lat="45.71198385624544" lon="9.235594676490418"><ele>264.0</ele><time>2026-03-16T16:07:13.999Z</time></trkpt><trkpt lat="45.711987478363405" lon="9.235465385042541"><ele>264.3333333333333</ele><time>2026-03-16T16:07:14.999Z</time></trkpt><trkpt lat="45.71196689796155" lon="9.235347035882226"><ele>264.66666666666663</ele><time>2026-03-16T16:07:15.999Z</time></trkpt><trkpt lat="45.71195564371534" lon="9.235239426121968"><ele>265.0</ele><time>2026-03-16T16:07:16.999Z</time></trkpt><trkpt lat="45.711953576858384" lon="9.23513378041096"><ele>263.85714285714283</ele><time>2026-03-16T16:07:17.999Z</time></trkpt><trkpt lat="45.71195608443658" lon="9.235029659687205"><ele>262.7142857142857</ele><time>2026-03-16T16:07:18.999Z</time></trkpt><trkpt lat="45.711960504589506" lon="9.234921579762819"><ele>261.57142857142856</ele><time>2026-03-16T16:07:19.999Z</time></trkpt><trkpt lat="45.7119753321744" lon="9.234807799624157"><ele>260.42857142857144</ele><time>2026-03-16T16:07:20.999Z</time></trkpt><trkpt lat="45.712005202698364" lon="9.234710738499421"><ele>259.2857142857143</ele><time>2026-03-16T16:07:21.999Z</time></trkpt><trkpt lat="45.71205218870012" lon="9.234635945799695"><ele>258.1428571428571</ele><time>2026-03-16T16:07:22.999Z</time></trkpt><trkpt lat="45.712115384535515" lon="9.23458846746865"><ele>257.0</ele><time>2026-03-16T16:07:23.999Z</time></trkpt><trkpt lat="45.71220815952322" lon="9.234569135680408"><ele>254.39999999999998</ele><time>2026-03-16T16:07:24.999Z</time></trkpt><trkpt lat="45.712294305585864" lon="9.234565165202099"><ele>251.79999999999998</ele><time>2026-03-16T16:07:25.999Z</time></trkpt><trkpt lat="45.71239718391801" lon="9.234602114252093"><ele>249.2</ele><time>2026-03-16T16:07:26.999Z</time></trkpt><trkpt lat="45.71250476427795" lon="9.234594456346084"><ele>246.6</ele><time>2026-03-16T16:07:27.999Z</time></trkpt><trkpt lat="45.712575930937085" lon="9.234601264435348"><ele>244.0</ele><time>2026-03-16T16:07:28.999Z</time></trkpt><trkpt lat="45.71270072196343" lon="9.23455680212132"><ele>243.75</ele><time>2026-03-16T16:07:29.999Z</time></trkpt><trkpt lat="45.71279893114094" lon="9.23448741583632"><ele>243.5</ele><time>2026-03-16T16:07:30.999Z</time></trkpt><trkpt lat="45.71291221345257" lon="9.234392447524518"><ele>243.25</ele><time>2026-03-16T16:07:31.999Z</time></trkpt><trkpt lat="45.71300450044393" lon="9.234298267078568"><ele>243.0</ele><time>2026-03-16T16:07:32.999Z</time></trkpt><trkpt lat="45.71310752291899" lon="9.234214372410932"><ele>243.0</ele><time>2026-03-16T16:07:33.999Z</time></trkpt><trkpt lat="45.71319733274073" lon="9.234143025584157"><ele>243.0</ele><time>2026-03-16T16:07:34.999Z</time></trkpt><trkpt lat="45.71328979132809" lon="9.23406871720667"><ele>243.0</ele><time>2026-03-16T16:07:35.999Z</time></trkpt><trkpt lat="45.71336763053415" lon="9.233967463776173"><ele>243.0</ele><time>2026-03-16T16:07:36.999Z</time></trkpt><trkpt lat="45.713420663865726" lon="9.23381972988366"><ele>243.0</ele><time>2026-03-16T16:07:37.999Z</time></trkpt><trkpt lat="45.713447102466276" lon="9.233650444726804"><ele>242.0</ele><time>2026-03-16T16:07:38.999Z</time></trkpt><trkpt lat="45.71346004156278" lon="9.233458302720852"><ele>241.0</ele><time>2026-03-16T16:07:39.999Z</time></trkpt><trkpt lat="45.713446143694874" lon="9.233288074393046"><ele>240.0</ele><time>2026-03-16T16:07:40.999Z</time></trkpt><trkpt lat="45.71343932974446" lon="9.233121800458969"><ele>239.0</ele><time>2026-03-16T16:07:41.999Z</time></trkpt><trkpt lat="45.713436693774455" lon="9.232967526625002"><ele>238.0</ele><time>2026-03-16T16:07:42.999Z</time></trkpt><trkpt lat="45.71344193777385" lon="9.232815347039145"><ele>236.99999999999997</ele><time>2026-03-16T16:07:43.999Z</time></trkpt><trkpt lat="45.7134598560077" lon="9.232663348709627"><ele>235.99999999999997</ele><time>2026-03-16T16:07:44.999Z</time></trkpt><trkpt lat="45.71349642854811" lon="9.232518432745445"><ele>235.0</ele><time>2026-03-16T16:07:45.999Z</time></trkpt><trkpt lat="45.713546481269425" lon="9.232393295387299"><ele>234.0</ele><time>2026-03-16T16:07:46.999Z</time></trkpt><trkpt lat="45.71359647061156" lon="9.232272859277524"><ele>234.0</ele><time>2026-03-16T16:07:47.999Z</time></trkpt><trkpt lat="45.71367153774253" lon="9.232197100318846"><ele>233.99999999999997</ele><time>2026-03-16T16:07:48.999Z</time></trkpt><trkpt lat="45.71374180436037" lon="9.232105556637968"><ele>233.99999999999997</ele><time>2026-03-16T16:07:50Z</time></trkpt><trkpt lat="45.71381480610192" lon="9.232011951267603"><ele>234.0</ele><time>2026-03-16T16:07:51Z</time></trkpt><trkpt lat="45.713890291739965" lon="9.231908779390729"><ele>234.0</ele><time>2026-03-16T16:07:52Z</time></trkpt><trkpt lat="45.71396912006423" lon="9.231774117529781"><ele>234.0</ele><time>2026-03-16T16:07:53Z</time></trkpt><trkpt lat="45.71403939973082" lon="9.231608556990139"><ele>234.0</ele><time>2026-03-16T16:07:54Z</time></trkpt><trkpt lat="45.71410705082685" lon="9.231445333480856"><ele>234.0</ele><time>2026-03-16T16:07:55Z</time></trkpt><trkpt lat="45.71416500490276" lon="9.231294997863051"><ele>234.0</ele><time>2026-03-16T16:07:56Z</time></trkpt><trkpt lat="45.71423358192968" lon="9.231135156593952"><ele>235.5</ele><time>2026-03-16T16:07:57Z</time></trkpt><trkpt lat="45.714287773702665" lon="9.23102923461441"><ele>237.0</ele><time>2026-03-16T16:07:58Z</time></trkpt><trkpt lat="45.714339266637275" lon="9.230896308686841"><ele>238.5</ele><time>2026-03-16T16:07:59Z</time></trkpt><trkpt lat="45.71439881746691" lon="9.230718319548055"><ele>240.0</ele><time>2026-03-16T16:08:00Z</time></trkpt><trkpt lat="45.714445031567664" lon="9.230565076137452"><ele>241.83333333333334</ele><time>2026-03-16T16:08:01Z</time></trkpt><trkpt lat="45.71446535919724" lon="9.230445243962457"><ele>243.66666666666669</ele><time>2026-03-16T16:08:02Z</time></trkpt><trkpt lat="45.71448132416113" lon="9.23033896904726"><ele>245.5</ele><time>2026-03-16T16:08:03Z</time></trkpt><trkpt lat="45.71449921972456" lon="9.230237262322644"><ele>247.33333333333334</ele><time>2026-03-16T16:08:04Z</time></trkpt><trkpt lat="45.71452374398052" lon="9.230132152216818"><ele>249.16666666666669</ele><time>2026-03-16T16:08:05Z</time></trkpt><trkpt lat="45.71455611886911" lon="9.230038354212398"><ele>251.0</ele><time>2026-03-16T16:08:06Z</time></trkpt><trkpt lat="45.71460861032905" lon="9.229971627934313"><ele>251.00000000000003</ele><time>2026-03-16T16:08:07Z</time></trkpt><trkpt lat="45.7146780669398" lon="9.229877874078925"><ele>251.0</ele><time>2026-03-16T16:08:08Z</time></trkpt><trkpt lat="45.71474880426345" lon="9.229770518415183"><ele>251.0</ele><time>2026-03-16T16:08:09Z</time></trkpt><trkpt lat="45.71482771584418" lon="9.229732056251594"><ele>251.0</ele><time>2026-03-16T16:08:10Z</time></trkpt><trkpt lat="45.71490338117263" lon="9.229736407731378"><ele>251.00000000000003</ele><time>2026-03-16T16:08:11Z</time></trkpt><trkpt lat="45.7149909147926" lon="9.22976547956149"><ele>251.0</ele><time>2026-03-16T16:08:12Z</time></trkpt><trkpt lat="45.71506407224623" lon="9.229769430406634"><ele>251.8</ele><time>2026-03-16T16:08:13Z</time></trkpt><trkpt lat="45.71511473546534" lon="9.22966247701339"><ele>252.60000000000002</ele><time>2026-03-16T16:08:14Z</time></trkpt><trkpt lat="45.715133045959675" lon="9.229560174117815"><ele>253.4</ele><time>2026-03-16T16:08:15Z</time></trkpt><trkpt lat="45.71513257243786" lon="9.229425314490813"><ele>254.2</ele><time>2026-03-16T16:08:16Z</time></trkpt><trkpt lat="45.71520418445154" lon="9.229276774408492"><ele>255.0</ele><time>2026-03-16T16:08:17Z</time></trkpt><trkpt lat="45.71529246224703" lon="9.229099857903735"><ele>256.3333333333333</ele><time>2026-03-16T16:08:18Z</time></trkpt><trkpt lat="45.71539023476205" lon="9.228937523269398"><ele>257.66666666666663</ele><time>2026-03-16T16:08:19Z</time></trkpt><trkpt lat="45.715522173482555" lon="9.22880052214442"><ele>259.0</ele><time>2026-03-16T16:08:20Z</time></trkpt><trkpt lat="45.71567123494063" lon="9.22864074626914"><ele>259.0</ele><time>2026-03-16T16:08:21Z</time></trkpt><trkpt lat="45.71583857774046" lon="9.228432518077321"><ele>259.0</ele><time>2026-03-16T16:08:22Z</time></trkpt><trkpt lat="45.716028428823336" lon="9.228254691993579"><ele>259.0</ele><time>2026-03-16T16:08:23Z</time></trkpt><trkpt lat="45.7161845440952" lon="9.228093387648173"><ele>261.3333333333333</ele><time>2026-03-16T16:08:24Z</time></trkpt><trkpt lat="45.71631895512137" lon="9.227909898680561"><ele>263.6666666666667</ele><time>2026-03-16T16:08:25Z</time></trkpt><trkpt lat="45.71642210486177" lon="9.227712274144539"><ele>266.0</ele><time>2026-03-16T16:08:26Z</time></trkpt><trkpt lat="45.71651661123214" lon="9.2275056835883"><ele>266.0</ele><time>2026-03-16T16:08:27Z</time></trkpt><trkpt lat="45.716586924795045" lon="9.227325503307878"><ele>266.0</ele><time>2026-03-16T16:08:28Z</time></trkpt><trkpt lat="45.71664737160139" lon="9.22716742927824"><ele>266.0</ele><time>2026-03-16T16:08:29Z</time></trkpt><trkpt lat="45.71668969091326" lon="9.227027809400218"><ele>266.0</ele><time>2026-03-16T16:08:30Z</time></trkpt><trkpt lat="45.71672927047437" lon="9.22688550581746"><ele>267.5</ele><time>2026-03-16T16:08:31Z</time></trkpt><trkpt lat="45.71676610401417" lon="9.22671690586434"><ele>269.0</ele><time>2026-03-16T16:08:32Z</time></trkpt><trkpt lat="45.716791621943315" lon="9.226549310656496"><ele>270.5</ele><time>2026-03-16T16:08:33Z</time></trkpt><trkpt lat="45.71680279147016" lon="9.226390632764973"><ele>272.0</ele><time>2026-03-16T16:08:34Z</time></trkpt><trkpt lat="45.71681172259754" lon="9.22623113290591"><ele>272.75</ele><time>2026-03-16T16:08:35Z</time></trkpt><trkpt lat="45.716820884985665" lon="9.226068947434245"><ele>273.5</ele><time>2026-03-16T16:08:36Z</time></trkpt><trkpt lat="45.71682455946748" lon="9.225899086359705"><ele>274.25</ele><time>2026-03-16T16:08:37Z</time></trkpt><trkpt lat="45.71681986976804" lon="9.225724225953178"><ele>275.0</ele><time>2026-03-16T16:08:38Z</time></trkpt><trkpt lat="45.7168086949923" lon="9.225548759418318"><ele>276.2</ele><time>2026-03-16T16:08:39Z</time></trkpt><trkpt lat="45.716801387588" lon="9.225407781653162"><ele>277.4</ele><time>2026-03-16T16:08:40Z</time></trkpt><trkpt lat="45.716789309970956" lon="9.22525189379711"><ele>278.6</ele><time>2026-03-16T16:08:41Z</time></trkpt><trkpt lat="45.716775110722104" lon="9.225094129231406"><ele>279.8</ele><time>2026-03-16T16:08:42Z</time></trkpt><trkpt lat="45.71675853508684" lon="9.224934634019702"><ele>281.0</ele><time>2026-03-16T16:08:43Z</time></trkpt><trkpt lat="45.716734590880954" lon="9.224771486199923"><ele>282.2</ele><time>2026-03-16T16:08:44Z</time></trkpt><trkpt lat="45.71671144326293" lon="9.224625647628569"><ele>283.40000000000003</ele><time>2026-03-16T16:08:45Z</time></trkpt><trkpt lat="45.716692144119264" lon="9.224486215598422"><ele>284.6</ele><time>2026-03-16T16:08:46Z</time></trkpt><trkpt lat="45.7166832280703" lon="9.224357521379323"><ele>285.8</ele><time>2026-03-16T16:08:47Z</time></trkpt><trkpt lat="45.71666650873736" lon="9.224266810760186"><ele>287.0</ele><time>2026-03-16T16:08:48Z</time></trkpt><trkpt lat="45.71664127497303" lon="9.224113968668405"><ele>287.6666666666667</ele><time>2026-03-16T16:08:50Z</time></trkpt><trkpt lat="45.716607467706005" lon="9.2239482543087"><ele>288.33333333333337</ele><time>2026-03-16T16:08:52Z</time></trkpt><trkpt lat="45.71658588034721" lon="9.223858126985505"><ele>289.0</ele><time>2026-03-16T16:08:53Z</time></trkpt><trkpt lat="45.716589612088" lon="9.223751610152469"><ele>289.6666666666667</ele><time>2026-03-16T16:08:54Z</time></trkpt><trkpt lat="45.71655534755297" lon="9.223616595737202"><ele>290.3333333333333</ele><time>2026-03-16T16:08:55Z</time></trkpt><trkpt lat="45.71655361465452" lon="9.22350680301696"><ele>291.0</ele><time>2026-03-16T16:08:56Z</time></trkpt><trkpt lat="45.716543092763345" lon="9.22338250138544"><ele>291.0</ele><time>2026-03-16T16:08:58Z</time></trkpt><trkpt lat="45.7164966861662" lon="9.223205415200889"><ele>291.0</ele><time>2026-03-16T16:09:00Z</time></trkpt><trkpt lat="45.71647887371212" lon="9.223114896419991"><ele>291.0</ele><time>2026-03-16T16:09:01Z</time></trkpt><trkpt lat="45.71657497461305" lon="9.223024322192495"><ele>291.0</ele><time>2026-03-16T16:09:05Z</time></trkpt><trkpt lat="45.716654137716105" lon="9.223071448763385"><ele>291.0</ele><time>2026-03-16T16:09:07Z</time></trkpt><trkpt lat="45.71671542576832" lon="9.223038450568223"><ele>290.8</ele><time>2026-03-16T16:09:10Z</time></trkpt><trkpt lat="45.716781090220216" lon="9.223007597363777"><ele>290.6</ele><time>2026-03-16T16:09:11Z</time></trkpt><trkpt lat="45.71688024831827" lon="9.222962197695509"><ele>290.4</ele><time>2026-03-16T16:09:12Z</time></trkpt><trkpt lat="45.71698177711656" lon="9.222935165311196"><ele>290.2</ele><time>2026-03-16T16:09:13Z</time></trkpt><trkpt lat="45.71710454615126" lon="9.222911324865269"><ele>290.0</ele><time>2026-03-16T16:09:14Z</time></trkpt><trkpt lat="45.71721104995425" lon="9.222898247681721"><ele>290.6666666666667</ele><time>2026-03-16T16:09:15Z</time></trkpt><trkpt lat="45.71730543067275" lon="9.22288061353076"><ele>291.33333333333337</ele><time>2026-03-16T16:09:16Z</time></trkpt><trkpt lat="45.71736960996982" lon="9.222888173779015"><ele>292.0</ele><time>2026-03-16T16:09:22.999Z</time></trkpt><trkpt lat="45.71731716202867" lon="9.222943718180291"><ele>292.6666666666667</ele><time>2026-03-16T16:09:25.999Z</time></trkpt><trkpt lat="45.71727820544942" lon="9.222852081868476"><ele>293.3333333333333</ele><time>2026-03-16T16:09:27.999Z</time></trkpt><trkpt lat="45.71723853265819" lon="9.222727686421793"><ele>294.0</ele><time>2026-03-16T16:09:29.999Z</time></trkpt><trkpt lat="45.7172370052632" lon="9.222531648763168"><ele>294.0</ele><time>2026-03-16T16:09:31.999Z</time></trkpt><trkpt lat="45.71723522921436" lon="9.222355615687594"><ele>294.0</ele><time>2026-03-16T16:09:33.999Z</time></trkpt><trkpt lat="45.717228521440326" lon="9.222168277121183"><ele>294.0</ele><time>2026-03-16T16:09:35.999Z</time></trkpt><trkpt lat="45.71722235291961" lon="9.222064441404934"><ele>294.0</ele><time>2026-03-16T16:09:36.999Z</time></trkpt><trkpt lat="45.71722797882629" lon="9.22197221708275"><ele>294.0</ele><time>2026-03-16T16:09:37.999Z</time></trkpt><trkpt lat="45.717255688099016" lon="9.221881964134848"><ele>294.59999999999997</ele><time>2026-03-16T16:09:38.999Z</time></trkpt><trkpt lat="45.71729698648585" lon="9.221802409410223"><ele>295.2</ele><time>2026-03-16T16:09:39.999Z</time></trkpt><trkpt lat="45.71736383265429" lon="9.22170398149276"><ele>295.79999999999995</ele><time>2026-03-16T16:09:41.999Z</time></trkpt><trkpt lat="45.717447343097554" lon="9.221608567327914"><ele>296.4</ele><time>2026-03-16T16:09:44.999Z</time></trkpt><trkpt lat="45.717535815912946" lon="9.221539951840779"><ele>297.0</ele><time>2026-03-16T16:09:46.999Z</time></trkpt><trkpt lat="45.717603495455414" lon="9.221483607210384"><ele>297.1666666666667</ele><time>2026-03-16T16:09:48.999Z</time></trkpt><trkpt lat="45.71766229062121" lon="9.221436043820933"><ele>297.3333333333333</ele><time>2026-03-16T16:09:50.999Z</time></trkpt><trkpt lat="45.7176820628541" lon="9.221328642570517"><ele>297.5</ele><time>2026-03-16T16:09:53.999Z</time></trkpt><trkpt lat="45.71765372805857" lon="9.221192350452457"><ele>297.66666666666663</ele><time>2026-03-16T16:09:56Z</time></trkpt><trkpt lat="45.71759676215272" lon="9.221070006810507"><ele>297.8333333333333</ele><time>2026-03-16T16:09:58Z</time></trkpt><trkpt lat="45.717595650504094" lon="9.220939134547153"><ele>298.0</ele><time>2026-03-16T16:09:59Z</time></trkpt><trkpt lat="45.71756254295724" lon="9.220832765641159"><ele>298.0</ele><time>2026-03-16T16:10:00Z</time></trkpt><trkpt lat="45.71752698740055" lon="9.220711928226311"><ele>298.0</ele><time>2026-03-16T16:10:01Z</time></trkpt><trkpt lat="45.717496955718985" lon="9.220602993683746"><ele>298.0</ele><time>2026-03-16T16:10:02Z</time></trkpt><trkpt lat="45.71746948318266" lon="9.22050778854794"><ele>298.0</ele><time>2026-03-16T16:10:03Z</time></trkpt><trkpt lat="45.717445874888696" lon="9.220400325291747"><ele>298.0</ele><time>2026-03-16T16:10:04Z</time></trkpt><trkpt lat="45.71742350959096" lon="9.220267258497355"><ele>298.0</ele><time>2026-03-16T16:10:05Z</time></trkpt><trkpt lat="45.71739413884081" lon="9.220123359354258"><ele>298.66666666666663</ele><time>2026-03-16T16:10:06Z</time></trkpt><trkpt lat="45.71736804909105" lon="9.220029127691626"><ele>299.3333333333333</ele><time>2026-03-16T16:10:07Z</time></trkpt><trkpt lat="45.7173356479827" lon="9.219947218891003"><ele>300.0</ele><time>2026-03-16T16:10:08Z</time></trkpt><trkpt lat="45.71730541792123" lon="9.219858337378877"><ele>300.6666666666667</ele><time>2026-03-16T16:10:09Z</time></trkpt><trkpt lat="45.71725971015698" lon="9.219712440367635"><ele>301.33333333333337</ele><time>2026-03-16T16:10:11Z</time></trkpt><trkpt lat="45.717239371957206" lon="9.219620236487364"><ele>302.0</ele><time>2026-03-16T16:10:12Z</time></trkpt><trkpt lat="45.717232624318086" lon="9.219490080029512"><ele>302.0</ele><time>2026-03-16T16:10:14Z</time></trkpt><trkpt lat="45.71726126692277" lon="9.219368477387874"><ele>302.0</ele><time>2026-03-16T16:10:17Z</time></trkpt><trkpt lat="45.71735461698718" lon="9.2193413828455"><ele>302.0</ele><time>2026-03-16T16:10:19Z</time></trkpt><trkpt lat="45.71744152872788" lon="9.2193476435347"><ele>302.0</ele><time>2026-03-16T16:10:20Z</time></trkpt><trkpt lat="45.71750459552472" lon="9.219343572215557"><ele>302.0</ele><time>2026-03-16T16:10:21Z</time></trkpt><trkpt lat="45.717555342195325" lon="9.219241032685467"><ele>302.0</ele><time>2026-03-16T16:10:25Z</time></trkpt><trkpt lat="45.717625008842184" lon="9.219151984195404"><ele>302.0</ele><time>2026-03-16T16:10:26Z</time></trkpt><trkpt lat="45.71764292878772" lon="9.219033057579543"><ele>302.0</ele><time>2026-03-16T16:10:27Z</time></trkpt><trkpt lat="45.71766431891203" lon="9.218898203242002"><ele>302.0</ele><time>2026-03-16T16:10:28Z</time></trkpt><trkpt lat="45.717695875106145" lon="9.218739153411578"><ele>302.0</ele><time>2026-03-16T16:10:29Z</time></trkpt><trkpt lat="45.717726884713635" lon="9.218531600361676"><ele>302.0</ele><time>2026-03-16T16:10:30Z</time></trkpt><trkpt lat="45.717752629680206" lon="9.218311827698544"><ele>301.8</ele><time>2026-03-16T16:10:31Z</time></trkpt><trkpt lat="45.71777276229977" lon="9.218115472981864"><ele>301.6</ele><time>2026-03-16T16:10:32Z</time></trkpt><trkpt lat="45.717777131746736" lon="9.217942238627653"><ele>301.40000000000003</ele><time>2026-03-16T16:10:33Z</time></trkpt><trkpt lat="45.71779074131893" lon="9.217822957330863"><ele>301.2</ele><time>2026-03-16T16:10:34Z</time></trkpt><trkpt lat="45.71781755248418" lon="9.217709561506524"><ele>301.0</ele><time>2026-03-16T16:10:36Z</time></trkpt><trkpt lat="45.71798307962736" lon="9.217724478142824"><ele>301.0</ele><time>2026-03-16T16:10:37Z</time></trkpt><trkpt lat="45.71811441429076" lon="9.217667221182166"><ele>301.0</ele><time>2026-03-16T16:10:38Z</time></trkpt><trkpt lat="45.71825711842329" lon="9.217628983394604"><ele>301.0</ele><time>2026-03-16T16:10:39Z</time></trkpt><trkpt lat="45.71839950366482" lon="9.217574022739461"><ele>301.0</ele><time>2026-03-16T16:10:40Z</time></trkpt><trkpt lat="45.718531427070964" lon="9.21751153769343"><ele>301.75</ele><time>2026-03-16T16:10:41Z</time></trkpt><trkpt lat="45.718654589212925" lon="9.217462584755166"><ele>302.5</ele><time>2026-03-16T16:10:42Z</time></trkpt><trkpt lat="45.71877785136671" lon="9.217425223328426"><ele>303.25</ele><time>2026-03-16T16:10:43Z</time></trkpt><trkpt lat="45.71887898767777" lon="9.21738760301183"><ele>304.0</ele><time>2026-03-16T16:10:44Z</time></trkpt><trkpt lat="45.71898470245954" lon="9.217348321476317"><ele>303.59999999999997</ele><time>2026-03-16T16:10:45Z</time></trkpt><trkpt lat="45.71909564883856" lon="9.217305005777943"><ele>303.2</ele><time>2026-03-16T16:10:46Z</time></trkpt><trkpt lat="45.719176617728166" lon="9.217267926520536"><ele>302.79999999999995</ele><time>2026-03-16T16:10:47Z</time></trkpt><trkpt lat="45.71918641619334" lon="9.217076534645992"><ele>302.4</ele><time>2026-03-16T16:10:54Z</time></trkpt><trkpt lat="45.71915003981283" lon="9.216946701413674"><ele>302.0</ele><time>2026-03-16T16:10:56Z</time></trkpt><trkpt lat="45.71912470864135" lon="9.216814385123882"><ele>302.0</ele><time>2026-03-16T16:10:58Z</time></trkpt><trkpt lat="45.719099853493404" lon="9.216678784313288"><ele>302.0</ele><time>2026-03-16T16:11:00Z</time></trkpt><trkpt lat="45.719071300359346" lon="9.216550883536087"><ele>302.0</ele><time>2026-03-16T16:11:02Z</time></trkpt><trkpt lat="45.71903469828898" lon="9.2164274238593"><ele>302.0</ele><time>2026-03-16T16:11:04Z</time></trkpt><trkpt lat="45.71900286136582" lon="9.216338810906292"><ele>302.0</ele><time>2026-03-16T16:11:06Z</time></trkpt><trkpt lat="45.71897297974188" lon="9.21621112712264"><ele>302.0</ele><time>2026-03-16T16:11:08Z</time></trkpt><trkpt lat="45.718969262302586" lon="9.21611723534241"><ele>301.8</ele><time>2026-03-16T16:11:10Z</time></trkpt><trkpt lat="45.71896762473107" lon="9.215935218248948"><ele>301.6</ele><time>2026-03-16T16:11:33.999Z</time></trkpt><trkpt lat="45.718974777610825" lon="9.215828062722538"><ele>301.40000000000003</ele><time>2026-03-16T16:11:34.999Z</time></trkpt><trkpt lat="45.71912855728496" lon="9.21580704442256"><ele>301.2</ele><time>2026-03-16T16:11:35.999Z</time></trkpt><trkpt lat="45.71922010982029" lon="9.215801989227588"><ele>301.0</ele><time>2026-03-16T16:11:36.999Z</time></trkpt><trkpt lat="45.71928342358254" lon="9.215814243149044"><ele>302.0</ele><time>2026-03-16T16:11:37.999Z</time></trkpt><trkpt lat="45.719428939918586" lon="9.21579156041949"><ele>303.0</ele><time>2026-03-16T16:11:38.999Z</time></trkpt><trkpt lat="45.71959141899238" lon="9.215751671610597"><ele>304.0</ele><time>2026-03-16T16:11:39.999Z</time></trkpt><trkpt lat="45.71975614595394" lon="9.215725637029"><ele>304.0</ele><time>2026-03-16T16:11:40.999Z</time></trkpt><trkpt lat="45.719910524291514" lon="9.215709114135459"><ele>304.0</ele><time>2026-03-16T16:11:41.999Z</time></trkpt><trkpt lat="45.72007453113051" lon="9.215700529929919"><ele>304.0</ele><time>2026-03-16T16:11:42.999Z</time></trkpt><trkpt lat="45.720214411697526" lon="9.215685819789925"><ele>304.0</ele><time>2026-03-16T16:11:43.999Z</time></trkpt><trkpt lat="45.720350792162954" lon="9.215671002968124"><ele>304.0</ele><time>2026-03-16T16:11:44.999Z</time></trkpt><trkpt lat="45.720495422433146" lon="9.2156500462444"><ele>304.0</ele><time>2026-03-16T16:11:45.999Z</time></trkpt><trkpt lat="45.720656368945065" lon="9.21561297117594"><ele>304.0</ele><time>2026-03-16T16:11:46.999Z</time></trkpt><trkpt lat="45.72082751163966" lon="9.21559186466287"><ele>304.3333333333333</ele><time>2026-03-16T16:11:47.999Z</time></trkpt><trkpt lat="45.72100419011585" lon="9.215561235431108"><ele>304.6666666666667</ele><time>2026-03-16T16:11:48.999Z</time></trkpt><trkpt lat="45.72118245616476" lon="9.215528851033746"><ele>305.0</ele><time>2026-03-16T16:11:49.999Z</time></trkpt><trkpt lat="45.721374874873604" lon="9.215503510660202"><ele>305.0</ele><time>2026-03-16T16:11:50.999Z</time></trkpt><trkpt lat="45.72157427526687" lon="9.215471215435795"><ele>305.0</ele><time>2026-03-16T16:11:51.999Z</time></trkpt><trkpt lat="45.72177785172315" lon="9.215442592002633"><ele>305.0</ele><time>2026-03-16T16:11:52.999Z</time></trkpt><trkpt lat="45.721956430467365" lon="9.215430310155385"><ele>306.25</ele><time>2026-03-16T16:11:53.999Z</time></trkpt><trkpt lat="45.722118718373984" lon="9.21541440982026"><ele>307.5</ele><time>2026-03-16T16:11:54.999Z</time></trkpt><trkpt lat="45.722266534548126" lon="9.215417216888042"><ele>308.75</ele><time>2026-03-16T16:11:55.999Z</time></trkpt><trkpt lat="45.722399462157206" lon="9.215401456710099"><ele>310.0</ele><time>2026-03-16T16:11:56.999Z</time></trkpt><trkpt lat="45.72253382707297" lon="9.215385526120867"><ele>310.0</ele><time>2026-03-16T16:11:57.999Z</time></trkpt><trkpt lat="45.72268303318601" lon="9.215367835968328"><ele>310.0</ele><time>2026-03-16T16:11:58.999Z</time></trkpt><trkpt lat="45.72283455196274" lon="9.215346977653477"><ele>310.0</ele><time>2026-03-16T16:11:59.999Z</time></trkpt><trkpt lat="45.72300216115018" lon="9.215303142640884"><ele>311.0</ele><time>2026-03-16T16:12:00.999Z</time></trkpt><trkpt lat="45.72315954612274" lon="9.21528284621138"><ele>311.0</ele><time>2026-03-16T16:12:02Z</time></trkpt></trkseg><trkseg><trkpt lat="45.657335324656394" lon="9.328716976292046"><ele>250.0</ele><time>2026-03-31T13:31:15Z</time></trkpt><trkpt lat="45.65723664700609" lon="9.328765186354092"><ele>250.0</ele><time>2026-03-31T13:31:16Z</time></trkpt><trkpt lat="45.65716505884214" lon="9.328807054201938"><ele>250.0</ele><time>2026-03-31T13:31:18Z</time></trkpt><trkpt lat="45.65708475714336" lon="9.328820602706912"><ele>250.0</ele><time>2026-03-31T13:31:19Z</time></trkpt><trkpt lat="45.65699070945292" lon="9.32885228842486"><ele>250.0</ele><time>2026-03-31T13:31:20Z</time></trkpt><trkpt lat="45.65687945803911" lon="9.328885972483521"><ele>249.0</ele><time>2026-03-31T13:31:21Z</time></trkpt><trkpt lat="45.65674365480939" lon="9.328944528482312"><ele>248.0</ele><time>2026-03-31T13:31:22Z</time></trkpt><trkpt lat="45.656584027301896" lon="9.329001563177213"><ele>247.0</ele><time>2026-03-31T13:31:23Z</time></trkpt><trkpt lat="45.65645066343281" lon="9.329042772222326"><ele>246.0</ele><time>2026-03-31T13:31:24Z</time></trkpt><trkpt lat="45.656328449524665" lon="9.329081483203845"><ele>246.0</ele><time>2026-03-31T13:31:25Z</time></trkpt><trkpt lat="45.65622719401691" lon="9.329116176697184"><ele>246.00000000000003</ele><time>2026-03-31T13:31:26Z</time></trkpt><trkpt lat="45.656127970405024" lon="9.329146134820478"><ele>246.00000000000003</ele><time>2026-03-31T13:31:27Z</time></trkpt><trkpt lat="45.65602163754697" lon="9.329181392398027"><ele>246.0</ele><time>2026-03-31T13:31:28Z</time></trkpt><trkpt lat="45.65592620761441" lon="9.329216488659196"><ele>246.0</ele><time>2026-03-31T13:31:29Z</time></trkpt><trkpt lat="45.65581697799835" lon="9.329256674020005"><ele>245.0</ele><time>2026-03-31T13:31:30Z</time></trkpt><trkpt lat="45.65572492469187" lon="9.329285841007415"><ele>244.00000000000003</ele><time>2026-03-31T13:31:31Z</time></trkpt><trkpt lat="45.65563876719593" lon="9.329317616263499"><ele>243.00000000000003</ele><time>2026-03-31T13:31:32Z</time></trkpt><trkpt lat="45.65556187403176" lon="9.329340897741606"><ele>242.0</ele><time>2026-03-31T13:31:33Z</time></trkpt><trkpt lat="45.65544347415491" lon="9.329380940852035"><ele>241.0</ele><time>2026-03-31T13:31:35Z</time></trkpt><trkpt lat="45.6553745719299" lon="9.329407467943925"><ele>241.0</ele><time>2026-03-31T13:31:36Z</time></trkpt><trkpt lat="45.65526024735351" lon="9.329454439597733"><ele>241.00000000000003</ele><time>2026-03-31T13:31:37.999Z</time></trkpt><trkpt lat="45.655185467056796" lon="9.329478145324417"><ele>241.00000000000003</ele><time>2026-03-31T13:31:39.999Z</time></trkpt><trkpt lat="45.65510700801279" lon="9.329491260127444"><ele>241.0</ele><time>2026-03-31T13:31:42.999Z</time></trkpt><trkpt lat="45.65508982032006" lon="9.329261942958146"><ele>241.0</ele><time>2026-03-31T13:31:44.999Z</time></trkpt><trkpt lat="45.65506809179527" lon="9.329116437479305"><ele>241.0</ele><time>2026-03-31T13:31:45.999Z</time></trkpt><trkpt lat="45.65503790944625" lon="9.328978430806286"><ele>241.0</ele><time>2026-03-31T13:31:46.999Z</time></trkpt><trkpt lat="45.65498942231046" lon="9.328812741768818"><ele>241.0</ele><time>2026-03-31T13:31:47.999Z</time></trkpt><trkpt lat="45.65496370129071" lon="9.328641803433808"><ele>241.0</ele><time>2026-03-31T13:31:48.999Z</time></trkpt><trkpt lat="45.654931062509675" lon="9.328469087868012"><ele>240.75</ele><time>2026-03-31T13:31:49.999Z</time></trkpt><trkpt lat="45.65490834742641" lon="9.328299378567182"><ele>240.5</ele><time>2026-03-31T13:31:50.999Z</time></trkpt><trkpt lat="45.654868835902214" lon="9.328134456184547"><ele>240.25</ele><time>2026-03-31T13:31:51.999Z</time></trkpt><trkpt lat="45.654838751604444" lon="9.327987153740938"><ele>240.0</ele><time>2026-03-31T13:31:52.999Z</time></trkpt><trkpt lat="45.654803019073924" lon="9.327826012079017"><ele>239.8</ele><time>2026-03-31T13:31:53.999Z</time></trkpt><trkpt lat="45.65477450920892" lon="9.32766662497764"><ele>239.6</ele><time>2026-03-31T13:31:54.999Z</time></trkpt><trkpt lat="45.65475635231801" lon="9.327526326450778"><ele>239.39999999999998</ele><time>2026-03-31T13:31:55.999Z</time></trkpt><trkpt lat="45.65473349272678" lon="9.327392111860755"><ele>239.2</ele><time>2026-03-31T13:31:56.999Z</time></trkpt><trkpt lat="45.6546992590816" lon="9.32726093002181"><ele>239.0</ele><time>2026-03-31T13:31:57.999Z</time></trkpt><trkpt lat="45.65465572844248" lon="9.327098272084134"><ele>238.0</ele><time>2026-03-31T13:31:58.999Z</time></trkpt><trkpt lat="45.65458196822328" lon="9.326934104644083"><ele>237.0</ele><time>2026-03-31T13:31:59.999Z</time></trkpt><trkpt lat="45.654502216435496" lon="9.326793594856449"><ele>236.0</ele><time>2026-03-31T13:32:00.999Z</time></trkpt><trkpt lat="45.65440845613686" lon="9.326685429551462"><ele>235.0</ele><time>2026-03-31T13:32:01.999Z</time></trkpt><trkpt lat="45.65429750394542" lon="9.326616971730846"><ele>234.8</ele><time>2026-03-31T13:32:02.999Z</time></trkpt><trkpt lat="45.654198954535" lon="9.326573452784483"><ele>234.6</ele><time>2026-03-31T13:32:03.999Z</time></trkpt><trkpt lat="45.65407224349611" lon="9.326597035086202"><ele>234.39999999999998</ele><time>2026-03-31T13:32:04.999Z</time></trkpt><trkpt lat="45.653944180363936" lon="9.326588379129655"><ele>234.2</ele><time>2026-03-31T13:32:05.999Z</time></trkpt><trkpt lat="45.65386197377524" lon="9.326561723891771"><ele>234.0</ele><time>2026-03-31T13:32:06.999Z</time></trkpt><trkpt lat="45.653792815204525" lon="9.326518700117362"><ele>234.0</ele><time>2026-03-31T13:32:07.999Z</time></trkpt><trkpt lat="45.65371679586274" lon="9.326459464499761"><ele>234.0</ele><time>2026-03-31T13:32:08.999Z</time></trkpt><trkpt lat="45.65362202215011" lon="9.326300938446693"><ele>234.0</ele><time>2026-03-31T13:32:09.999Z</time></trkpt><trkpt lat="45.65351976589474" lon="9.326163426936445"><ele>234.0</ele><time>2026-03-31T13:32:10.999Z</time></trkpt><trkpt lat="45.653405119776735" lon="9.326013683015617"><ele>235.0</ele><time>2026-03-31T13:32:11.999Z</time></trkpt><trkpt lat="45.65330042948709" lon="9.325875333752652"><ele>236.0</ele><time>2026-03-31T13:32:12.999Z</time></trkpt><trkpt lat="45.65322063880016" lon="9.3257224232756"><ele>237.0</ele><time>2026-03-31T13:32:13.999Z</time></trkpt><trkpt lat="45.653155818252024" lon="9.32554602915169"><ele>238.0</ele><time>2026-03-31T13:32:14.999Z</time></trkpt><trkpt lat="45.65313910130164" lon="9.325330172233762"><ele>238.5</ele><time>2026-03-31T13:32:15.999Z</time></trkpt><trkpt lat="45.653099536380495" lon="9.325129816882008"><ele>239.0</ele><time>2026-03-31T13:32:16.999Z</time></trkpt><trkpt lat="45.65304356138576" lon="9.3249433070792"><ele>239.5</ele><time>2026-03-31T13:32:17.999Z</time></trkpt><trkpt lat="45.65302195455573" lon="9.324752736476768"><ele>240.0</ele><time>2026-03-31T13:32:18.999Z</time></trkpt><trkpt lat="45.65299077261374" lon="9.324587678246868"><ele>240.2</ele><time>2026-03-31T13:32:19.999Z</time></trkpt><trkpt lat="45.65296133127768" lon="9.324422759656327"><ele>240.4</ele><time>2026-03-31T13:32:20.999Z</time></trkpt><trkpt lat="45.652948312505536" lon="9.324308602305695"><ele>240.60000000000002</ele><time>2026-03-31T13:32:21.999Z</time></trkpt><trkpt lat="45.65293091308184" lon="9.324176196648912"><ele>240.8</ele><time>2026-03-31T13:32:22.999Z</time></trkpt><trkpt lat="45.65291647082788" lon="9.324057987451718"><ele>241.0</ele><time>2026-03-31T13:32:23.999Z</time></trkpt><trkpt lat="45.65289442594333" lon="9.323941753059493"><ele>240.60000000000002</ele><time>2026-03-31T13:32:24.999Z</time></trkpt><trkpt lat="45.652882120784824" lon="9.323823535949924"><ele>240.20000000000002</ele><time>2026-03-31T13:32:25.999Z</time></trkpt><trkpt lat="45.652898222179694" lon="9.32371721342972"><ele>239.79999999999998</ele><time>2026-03-31T13:32:26.999Z</time></trkpt><trkpt lat="45.65304809485024" lon="9.32365455089627"><ele>239.39999999999998</ele><time>2026-03-31T13:32:27.999Z</time></trkpt><trkpt lat="45.65314995300007" lon="9.323598987206083"><ele>239.0</ele><time>2026-03-31T13:32:28.999Z</time></trkpt><trkpt lat="45.653265185803726" lon="9.323532465290583"><ele>239.0</ele><time>2026-03-31T13:32:29.999Z</time></trkpt><trkpt lat="45.65341848930319" lon="9.323445849334076"><ele>239.0</ele><time>2026-03-31T13:32:30.999Z</time></trkpt><trkpt lat="45.653574995010295" lon="9.323366289693533"><ele>239.0</ele><time>2026-03-31T13:32:31.999Z</time></trkpt><trkpt lat="45.653738244158745" lon="9.32326650820131"><ele>239.25</ele><time>2026-03-31T13:32:32.999Z</time></trkpt><trkpt lat="45.65388257987081" lon="9.323173193363393"><ele>239.5</ele><time>2026-03-31T13:32:33.999Z</time></trkpt><trkpt lat="45.653997360231536" lon="9.323118255960958"><ele>239.75</ele><time>2026-03-31T13:32:34.999Z</time></trkpt><trkpt lat="45.65408626724829" lon="9.323067462822495"><ele>240.0</ele><time>2026-03-31T13:32:35.999Z</time></trkpt><trkpt lat="45.654193096232596" lon="9.323004519414246"><ele>240.0</ele><time>2026-03-31T13:32:36.999Z</time></trkpt><trkpt lat="45.65428455958684" lon="9.322957162710626"><ele>240.0</ele><time>2026-03-31T13:32:37.999Z</time></trkpt><trkpt lat="45.654349813105746" lon="9.322897305484826"><ele>240.0</ele><time>2026-03-31T13:32:38.999Z</time></trkpt><trkpt lat="45.65439882455665" lon="9.32281224938976"><ele>240.0</ele><time>2026-03-31T13:32:39.999Z</time></trkpt><trkpt lat="45.65443857994229" lon="9.322705843191256"><ele>240.0</ele><time>2026-03-31T13:32:40.999Z</time></trkpt><trkpt lat="45.65447377724586" lon="9.322609076440987"><ele>240.0</ele><time>2026-03-31T13:32:41.999Z</time></trkpt><trkpt lat="45.65450593740037" lon="9.32247158082818"><ele>240.8</ele><time>2026-03-31T13:32:42.999Z</time></trkpt><trkpt lat="45.65452241668425" lon="9.322345333717454"><ele>241.6</ele><time>2026-03-31T13:32:43.999Z</time></trkpt><trkpt lat="45.65454161484968" lon="9.322203112978677"><ele>242.39999999999998</ele><time>2026-03-31T13:32:44.999Z</time></trkpt><trkpt lat="45.654596362590055" lon="9.322066713839124"><ele>243.2</ele><time>2026-03-31T13:32:46Z</time></trkpt><trkpt lat="45.65467080639446" lon="9.32192264466848"><ele>244.0</ele><time>2026-03-31T13:32:47Z</time></trkpt><trkpt lat="45.65476222141246" lon="9.321733725119525"><ele>244.0</ele><time>2026-03-31T13:32:48Z</time></trkpt><trkpt lat="45.65486334425344" lon="9.32152465009541"><ele>244.0</ele><time>2026-03-31T13:32:49Z</time></trkpt><trkpt lat="45.654963978862" lon="9.321316526653689"><ele>244.0</ele><time>2026-03-31T13:32:50Z</time></trkpt><trkpt lat="45.655082769089894" lon="9.321074408546039"><ele>244.0</ele><time>2026-03-31T13:32:51Z</time></trkpt><trkpt lat="45.655178556935105" lon="9.320862370490207"><ele>244.0</ele><time>2026-03-31T13:32:52Z</time></trkpt><trkpt lat="45.65526996612598" lon="9.320696140003813"><ele>244.0</ele><time>2026-03-31T13:32:53Z</time></trkpt><trkpt lat="45.655349530400336" lon="9.320542396847758"><ele>244.75</ele><time>2026-03-31T13:32:54Z</time></trkpt><trkpt lat="45.65542297039984" lon="9.320387569226057"><ele>245.5</ele><time>2026-03-31T13:32:55Z</time></trkpt><trkpt lat="45.65549761260882" lon="9.320213419553621"><ele>246.25</ele><time>2026-03-31T13:32:56Z</time></trkpt><trkpt lat="45.655577566651914" lon="9.320043909195098"><ele>247.0</ele><time>2026-03-31T13:32:57Z</time></trkpt><trkpt lat="45.65566268160953" lon="9.319861046922348"><ele>248.0</ele><time>2026-03-31T13:32:58Z</time></trkpt><trkpt lat="45.65574495816452" lon="9.319692322877877"><ele>249.0</ele><time>2026-03-31T13:32:59Z</time></trkpt><trkpt lat="45.65583259583045" lon="9.319521970803558"><ele>250.0</ele><time>2026-03-31T13:33:00Z</time></trkpt><trkpt lat="45.655911938098754" lon="9.319352167555818"><ele>251.0</ele><time>2026-03-31T13:33:01Z</time></trkpt><trkpt lat="45.65599949820518" lon="9.31916813302597"><ele>251.0</ele><time>2026-03-31T13:33:02Z</time></trkpt><trkpt lat="45.65608561464505" lon="9.318987693362363"><ele>251.0</ele><time>2026-03-31T13:33:03Z</time></trkpt><trkpt lat="45.656170972751255" lon="9.318816590043971"><ele>251.0</ele><time>2026-03-31T13:33:04Z</time></trkpt><trkpt lat="45.65624562718431" lon="9.31865780163039"><ele>251.0</ele><time>2026-03-31T13:33:05Z</time></trkpt><trkpt lat="45.65633922169048" lon="9.318490067064758"><ele>252.5</ele><time>2026-03-31T13:33:06Z</time></trkpt><trkpt lat="45.65641385877596" lon="9.318326034367319"><ele>254.0</ele><time>2026-03-31T13:33:07Z</time></trkpt><trkpt lat="45.65649241307413" lon="9.318160076106889"><ele>255.5</ele><time>2026-03-31T13:33:08Z</time></trkpt><trkpt lat="45.65658162063083" lon="9.317979894284715"><ele>257.0</ele><time>2026-03-31T13:33:09Z</time></trkpt><trkpt lat="45.65666608398793" lon="9.317815796873623"><ele>257.75</ele><time>2026-03-31T13:33:10Z</time></trkpt><trkpt lat="45.65677103333773" lon="9.317619440688922"><ele>258.5</ele><time>2026-03-31T13:33:11Z</time></trkpt><trkpt lat="45.65683432759393" lon="9.317450571010042"><ele>259.25</ele><time>2026-03-31T13:33:12Z</time></trkpt><trkpt lat="45.656915145558685" lon="9.317303364695828"><ele>260.0</ele><time>2026-03-31T13:33:13Z</time></trkpt><trkpt lat="45.656990216161965" lon="9.317173713404145"><ele>260.75</ele><time>2026-03-31T13:33:14Z</time></trkpt><trkpt lat="45.65708426736508" lon="9.31708125653071"><ele>261.5</ele><time>2026-03-31T13:33:15Z</time></trkpt><trkpt lat="45.65717466325564" lon="9.317005659519143"><ele>262.25</ele><time>2026-03-31T13:33:16Z</time></trkpt><trkpt lat="45.657309371426216" lon="9.316936909978589"><ele>263.0</ele><time>2026-03-31T13:33:17Z</time></trkpt><trkpt lat="45.65746732257456" lon="9.316868614672664"><ele>263.0</ele><time>2026-03-31T13:33:18Z</time></trkpt><trkpt lat="45.657624475919086" lon="9.31678310954194"><ele>263.0</ele><time>2026-03-31T13:33:19Z</time></trkpt><trkpt lat="45.657771966807694" lon="9.316715849207542"><ele>263.0</ele><time>2026-03-31T13:33:20Z</time></trkpt><trkpt lat="45.65790673861747" lon="9.316671335254814"><ele>263.5</ele><time>2026-03-31T13:33:21Z</time></trkpt><trkpt lat="45.65803089351561" lon="9.316611064423055"><ele>264.0</ele><time>2026-03-31T13:33:22Z</time></trkpt><trkpt lat="45.6581571456461" lon="9.316560740932303"><ele>264.5</ele><time>2026-03-31T13:33:23Z</time></trkpt><trkpt lat="45.658302696019355" lon="9.316485368324516"><ele>265.0</ele><time>2026-03-31T13:33:24Z</time></trkpt><trkpt lat="45.65844402739088" lon="9.316415072598534"><ele>263.75</ele><time>2026-03-31T13:33:24.999Z</time></trkpt><trkpt lat="45.658561636500835" lon="9.316362142210014"><ele>262.5</ele><time>2026-03-31T13:33:25.999Z</time></trkpt><trkpt lat="45.658666669351994" lon="9.316304193051968"><ele>261.25</ele><time>2026-03-31T13:33:26.999Z</time></trkpt><trkpt lat="45.65879611508159" lon="9.31624990006517"><ele>260.0</ele><time>2026-03-31T13:33:27.999Z</time></trkpt><trkpt lat="45.65893494333094" lon="9.316190568557431"><ele>259.5</ele><time>2026-03-31T13:33:28.999Z</time></trkpt><trkpt lat="45.65906262985571" lon="9.31613346278759"><ele>259.0</ele><time>2026-03-31T13:33:29.999Z</time></trkpt><trkpt lat="45.65918679552096" lon="9.316074449801325"><ele>258.5</ele><time>2026-03-31T13:33:30.999Z</time></trkpt><trkpt lat="45.659328062157634" lon="9.31600264665311"><ele>258.0</ele><time>2026-03-31T13:33:31.999Z</time></trkpt><trkpt lat="45.65946668726763" lon="9.315905442337801"><ele>257.0</ele><time>2026-03-31T13:33:32.999Z</time></trkpt><trkpt lat="45.65958424433946" lon="9.315776653687621"><ele>256.0</ele><time>2026-03-31T13:33:33.999Z</time></trkpt><trkpt lat="45.659687773873124" lon="9.31561899030972"><ele>255.0</ele><time>2026-03-31T13:33:34.999Z</time></trkpt><trkpt lat="45.659786350436256" lon="9.31547450186539"><ele>254.0</ele><time>2026-03-31T13:33:35.999Z</time></trkpt><trkpt lat="45.65986452649728" lon="9.31530573730721"><ele>254.0</ele><time>2026-03-31T13:33:36.999Z</time></trkpt><trkpt lat="45.65994501323634" lon="9.315186249227732"><ele>253.99999999999997</ele><time>2026-03-31T13:33:37.999Z</time></trkpt><trkpt lat="45.66000645445222" lon="9.315074025900437"><ele>253.99999999999997</ele><time>2026-03-31T13:33:38.999Z</time></trkpt><trkpt lat="45.66007059937214" lon="9.314958974584457"><ele>254.0</ele><time>2026-03-31T13:33:39.999Z</time></trkpt><trkpt lat="45.6601323760976" lon="9.314845062586429"><ele>254.0</ele><time>2026-03-31T13:33:40.999Z</time></trkpt><trkpt lat="45.66023380471719" lon="9.314722394092264"><ele>254.0</ele><time>2026-03-31T13:33:41.999Z</time></trkpt><trkpt lat="45.66031726569885" lon="9.31459275990376"><ele>253.99999999999997</ele><time>2026-03-31T13:33:42.999Z</time></trkpt><trkpt lat="45.660387691226745" lon="9.314473193663922"><ele>253.99999999999997</ele><time>2026-03-31T13:33:43.999Z</time></trkpt><trkpt lat="45.66044483096766" lon="9.314388523258675"><ele>254.0</ele><time>2026-03-31T13:33:44.999Z</time></trkpt><trkpt lat="45.6604885036587" lon="9.314318377515873"><ele>254.0</ele><time>2026-03-31T13:33:45.999Z</time></trkpt><trkpt lat="45.66051824805644" lon="9.314209660142863"><ele>254.0</ele><time>2026-03-31T13:33:48.999Z</time></trkpt><trkpt lat="45.660630565027404" lon="9.31416893626923"><ele>254.0</ele><time>2026-03-31T13:33:54.999Z</time></trkpt><trkpt lat="45.660732568481926" lon="9.314202559375971"><ele>254.0</ele><time>2026-03-31T13:33:55.999Z</time></trkpt><trkpt lat="45.66085178233368" lon="9.314218912723502"><ele>254.0</ele><time>2026-03-31T13:33:56.999Z</time></trkpt><trkpt lat="45.66098031535607" lon="9.314206060140023"><ele>253.5</ele><time>2026-03-31T13:33:57.999Z</time></trkpt><trkpt lat="45.661126440673414" lon="9.314190997460111"><ele>253.0</ele><time>2026-03-31T13:33:58.999Z</time></trkpt><trkpt lat="45.66126781764741" lon="9.314166278766033"><ele>252.5</ele><time>2026-03-31T13:33:59.999Z</time></trkpt><trkpt lat="45.66140007616873" lon="9.314169218027073"><ele>252.0</ele><time>2026-03-31T13:34:00.999Z</time></trkpt><trkpt lat="45.66156547195162" lon="9.314195650583628"><ele>252.0</ele><time>2026-03-31T13:34:01.999Z</time></trkpt><trkpt lat="45.66172885591412" lon="9.314245966825936"><ele>252.0</ele><time>2026-03-31T13:34:02.999Z</time></trkpt><trkpt lat="45.661883159741734" lon="9.314317026361092"><ele>252.0</ele><time>2026-03-31T13:34:03.999Z</time></trkpt><trkpt lat="45.66204860560891" lon="9.314405247283885"><ele>252.66666666666669</ele><time>2026-03-31T13:34:04.999Z</time></trkpt><trkpt lat="45.662228802143375" lon="9.314504738320569"><ele>253.33333333333334</ele><time>2026-03-31T13:34:05.999Z</time></trkpt><trkpt lat="45.66241127132588" lon="9.314606830551762"><ele>254.0</ele><time>2026-03-31T13:34:06.999Z</time></trkpt><trkpt lat="45.66260538791478" lon="9.31470694824911"><ele>255.0</ele><time>2026-03-31T13:34:07.999Z</time></trkpt><trkpt lat="45.66278374736462" lon="9.314801525516595"><ele>256.0</ele><time>2026-03-31T13:34:08.999Z</time></trkpt><trkpt lat="45.66294683959627" lon="9.314888055783022"><ele>257.0</ele><time>2026-03-31T13:34:09.999Z</time></trkpt><trkpt lat="45.6630948685179" lon="9.314960597432089"><ele>257.0</ele><time>2026-03-31T13:34:10.999Z</time></trkpt><trkpt lat="45.66324388469483" lon="9.315045700322072"><ele>257.0</ele><time>2026-03-31T13:34:11.999Z</time></trkpt><trkpt lat="45.663405341884314" lon="9.31513416486854"><ele>257.0</ele><time>2026-03-31T13:34:12.999Z</time></trkpt><trkpt lat="45.66357806919718" lon="9.315226584052214"><ele>257.6666666666667</ele><time>2026-03-31T13:34:13.999Z</time></trkpt><trkpt lat="45.66375839616434" lon="9.315312863290357"><ele>258.3333333333333</ele><time>2026-03-31T13:34:14.999Z</time></trkpt><trkpt lat="45.66395138745597" lon="9.315421331375198"><ele>259.0</ele><time>2026-03-31T13:34:15.999Z</time></trkpt><trkpt lat="45.66414704183312" lon="9.315521862748657"><ele>259.0</ele><time>2026-03-31T13:34:16.999Z</time></trkpt><trkpt lat="45.66434757965952" lon="9.315629248914206"><ele>259.0</ele><time>2026-03-31T13:34:17.999Z</time></trkpt><trkpt lat="45.66454638260183" lon="9.315730006142388"><ele>259.0</ele><time>2026-03-31T13:34:18.999Z</time></trkpt><trkpt lat="45.66475328093325" lon="9.31583764177258"><ele>259.0</ele><time>2026-03-31T13:34:19.999Z</time></trkpt><trkpt lat="45.66494488965423" lon="9.315942260933635"><ele>259.0</ele><time>2026-03-31T13:34:20.999Z</time></trkpt><trkpt lat="45.66513037594391" lon="9.316046066815254"><ele>259.0</ele><time>2026-03-31T13:34:21.999Z</time></trkpt><trkpt lat="45.66529725619059" lon="9.316132971382308"><ele>259.0</ele><time>2026-03-31T13:34:22.999Z</time></trkpt><trkpt lat="45.66545894539675" lon="9.31620618642899"><ele>259.0</ele><time>2026-03-31T13:34:23.999Z</time></trkpt><trkpt lat="45.665610261858944" lon="9.316281920998001"><ele>259.0</ele><time>2026-03-31T13:34:24.999Z</time></trkpt><trkpt lat="45.66576730386948" lon="9.316372362327344"><ele>259.0</ele><time>2026-03-31T13:34:25.999Z</time></trkpt><trkpt lat="45.66591913400161" lon="9.316453164530625"><ele>259.0</ele><time>2026-03-31T13:34:26.999Z</time></trkpt><trkpt lat="45.666050068445585" lon="9.316519111038076"><ele>259.0</ele><time>2026-03-31T13:34:27.999Z</time></trkpt><trkpt lat="45.666174859576095" lon="9.316587657539246"><ele>259.0</ele><time>2026-03-31T13:34:28.999Z</time></trkpt><trkpt lat="45.66629174707538" lon="9.316648058569855"><ele>259.4</ele><time>2026-03-31T13:34:29.999Z</time></trkpt><trkpt lat="45.666393161045875" lon="9.31670186422727"><ele>259.79999999999995</ele><time>2026-03-31T13:34:30.999Z</time></trkpt><trkpt lat="45.66648833748623" lon="9.316744319636882"><ele>260.20000000000005</ele><time>2026-03-31T13:34:31.999Z</time></trkpt><trkpt lat="45.66657189470057" lon="9.31676756810484"><ele>260.6</ele><time>2026-03-31T13:34:32.999Z</time></trkpt><trkpt lat="45.66665567683581" lon="9.316782429891342"><ele>261.0</ele><time>2026-03-31T13:34:33.999Z</time></trkpt><trkpt lat="45.66675424879104" lon="9.316820203949176"><ele>261.0</ele><time>2026-03-31T13:34:35.999Z</time></trkpt><trkpt lat="45.66681784246201" lon="9.316854271264166"><ele>261.0</ele><time>2026-03-31T13:34:36.999Z</time></trkpt><trkpt lat="45.66682464214603" lon="9.316960740263468"><ele>261.0</ele><time>2026-03-31T13:34:37.999Z</time></trkpt><trkpt lat="45.666890446233054" lon="9.316700465461082"><ele>261.0</ele><time>2026-03-31T13:34:39.999Z</time></trkpt><trkpt lat="45.66680832158138" lon="9.316551218158734"><ele>261.0</ele><time>2026-03-31T13:34:41.999Z</time></trkpt><trkpt lat="45.66676007127999" lon="9.316475881751227"><ele>261.0</ele><time>2026-03-31T13:34:42.999Z</time></trkpt><trkpt lat="45.66676017568198" lon="9.316372652605834"><ele>261.0</ele><time>2026-03-31T13:34:43.999Z</time></trkpt><trkpt lat="45.666763128005336" lon="9.31625654004316"><ele>261.0</ele><time>2026-03-31T13:34:44.999Z</time></trkpt><trkpt lat="45.66676796499381" lon="9.316131595786413"><ele>261.0</ele><time>2026-03-31T13:34:45.999Z</time></trkpt><trkpt lat="45.66677035189464" lon="9.31596249488695"><ele>261.0</ele><time>2026-03-31T13:34:46.999Z</time></trkpt><trkpt lat="45.66676523170269" lon="9.315778675333608"><ele>261.0</ele><time>2026-03-31T13:34:47.999Z</time></trkpt><trkpt lat="45.66677042769721" lon="9.31561785709414"><ele>261.0</ele><time>2026-03-31T13:34:48.999Z</time></trkpt><trkpt lat="45.666774805819145" lon="9.315445441633557"><ele>261.0</ele><time>2026-03-31T13:34:49.999Z</time></trkpt><trkpt lat="45.66677479580453" lon="9.315268528098184"><ele>261.0</ele><time>2026-03-31T13:34:50.999Z</time></trkpt><trkpt lat="45.66679508411551" lon="9.315095301682057"><ele>261.0</ele><time>2026-03-31T13:34:51.999Z</time></trkpt><trkpt lat="45.66679606405857" lon="9.31491270286971"><ele>261.0</ele><time>2026-03-31T13:34:52.999Z</time></trkpt><trkpt lat="45.66681023740485" lon="9.314695849433946"><ele>261.0</ele><time>2026-03-31T13:34:53.999Z</time></trkpt><trkpt lat="45.666839475604164" lon="9.314488955529042"><ele>261.0</ele><time>2026-03-31T13:34:54.999Z</time></trkpt><trkpt lat="45.66687858576313" lon="9.314275664515977"><ele>261.0</ele><time>2026-03-31T13:34:56Z</time></trkpt><trkpt lat="45.666915369745745" lon="9.314049938269378"><ele>261.0</ele><time>2026-03-31T13:34:57Z</time></trkpt><trkpt lat="45.66695568336656" lon="9.313875846133675"><ele>261.0</ele><time>2026-03-31T13:34:58Z</time></trkpt><trkpt lat="45.66696944571907" lon="9.313718642391713"><ele>261.0</ele><time>2026-03-31T13:34:59Z</time></trkpt><trkpt lat="45.66698521427879" lon="9.313519259846167"><ele>262.0</ele><time>2026-03-31T13:35:00Z</time></trkpt><trkpt lat="45.66704676103434" lon="9.31333255847576"><ele>263.0</ele><time>2026-03-31T13:35:01Z</time></trkpt><trkpt lat="45.6670598442743" lon="9.313129588765003"><ele>264.0</ele><time>2026-03-31T13:35:02Z</time></trkpt><trkpt lat="45.66705337808773" lon="9.312898825029245"><ele>265.0</ele><time>2026-03-31T13:35:03Z</time></trkpt><trkpt lat="45.667031324014935" lon="9.31263764160098"><ele>266.0</ele><time>2026-03-31T13:35:04Z</time></trkpt><trkpt lat="45.66701275442204" lon="9.31241511091782"><ele>267.0</ele><time>2026-03-31T13:35:05Z</time></trkpt><trkpt lat="45.66699486586966" lon="9.312194499694565"><ele>268.0</ele><time>2026-03-31T13:35:06Z</time></trkpt><trkpt lat="45.66697656586084" lon="9.311968566557844"><ele>267.66666666666663</ele><time>2026-03-31T13:35:07Z</time></trkpt><trkpt lat="45.66695473347667" lon="9.31170211974637"><ele>267.3333333333333</ele><time>2026-03-31T13:35:08Z</time></trkpt><trkpt lat="45.66693206694372" lon="9.311426429033029"><ele>267.0</ele><time>2026-03-31T13:35:09Z</time></trkpt><trkpt lat="45.66691001484681" lon="9.31116127459415"><ele>267.0</ele><time>2026-03-31T13:35:10Z</time></trkpt><trkpt lat="45.66689218092048" lon="9.310944635000485"><ele>267.0</ele><time>2026-03-31T13:35:11Z</time></trkpt><trkpt lat="45.6668773539906" lon="9.310759037998604"><ele>267.0</ele><time>2026-03-31T13:35:12Z</time></trkpt><trkpt lat="45.66686314108053" lon="9.310574263251407"><ele>267.0</ele><time>2026-03-31T13:35:13Z</time></trkpt><trkpt lat="45.666834721306316" lon="9.310350777993364"><ele>266.6666666666667</ele><time>2026-03-31T13:35:14Z</time></trkpt><trkpt lat="45.66681338922953" lon="9.310080524033832"><ele>266.33333333333337</ele><time>2026-03-31T13:35:15Z</time></trkpt><trkpt lat="45.666804038149834" lon="9.309824817077116"><ele>266.0</ele><time>2026-03-31T13:35:16Z</time></trkpt><trkpt lat="45.66678193983468" lon="9.309586200219261"><ele>266.0</ele><time>2026-03-31T13:35:17Z</time></trkpt><trkpt lat="45.66676543076646" lon="9.30936414607802"><ele>266.0</ele><time>2026-03-31T13:35:18Z</time></trkpt><trkpt lat="45.666756843991166" lon="9.309119729004353"><ele>266.0</ele><time>2026-03-31T13:35:19Z</time></trkpt><trkpt lat="45.66673869571006" lon="9.308892780646337"><ele>264.0</ele><time>2026-03-31T13:35:20Z</time></trkpt><trkpt lat="45.66672689014554" lon="9.308683604666745"><ele>262.0</ele><time>2026-03-31T13:35:21Z</time></trkpt><trkpt lat="45.666704391711505" lon="9.308428268784969"><ele>260.0</ele><time>2026-03-31T13:35:22Z</time></trkpt><trkpt lat="45.66668639397113" lon="9.30814282943347"><ele>260.0</ele><time>2026-03-31T13:35:23Z</time></trkpt><trkpt lat="45.66666429547951" lon="9.307888923637105"><ele>260.0</ele><time>2026-03-31T13:35:24Z</time></trkpt><trkpt lat="45.666648767764954" lon="9.307661576756589"><ele>260.0</ele><time>2026-03-31T13:35:25Z</time></trkpt><trkpt lat="45.66663859291111" lon="9.307438607715362"><ele>260.0</ele><time>2026-03-31T13:35:26Z</time></trkpt><trkpt lat="45.66662972998853" lon="9.307244846836438"><ele>260.0</ele><time>2026-03-31T13:35:27Z</time></trkpt><trkpt lat="45.66660788815954" lon="9.307082740676687"><ele>260.0</ele><time>2026-03-31T13:35:28Z</time></trkpt><trkpt lat="45.66659927949835" lon="9.30695129723228"><ele>260.0</ele><time>2026-03-31T13:35:29Z</time></trkpt><trkpt lat="45.666587193641924" lon="9.306830323037456"><ele>260.0</ele><time>2026-03-31T13:35:30Z</time></trkpt><trkpt lat="45.666570759279296" lon="9.306706387672602"><ele>260.25</ele><time>2026-03-31T13:35:31Z</time></trkpt><trkpt lat="45.66654228174448" lon="9.306522034620695"><ele>260.5</ele><time>2026-03-31T13:35:32Z</time></trkpt><trkpt lat="45.66651063330365" lon="9.306327550832656"><ele>260.75</ele><time>2026-03-31T13:35:33Z</time></trkpt><trkpt lat="45.66648099170115" lon="9.306147164501038"><ele>261.0</ele><time>2026-03-31T13:35:34Z</time></trkpt><trkpt lat="45.666438913175476" lon="9.305941300406534"><ele>261.0</ele><time>2026-03-31T13:35:35Z</time></trkpt><trkpt lat="45.66641255520663" lon="9.305751854853874"><ele>261.0</ele><time>2026-03-31T13:35:36Z</time></trkpt><trkpt lat="45.66638978287737" lon="9.30559003045975"><ele>261.0</ele><time>2026-03-31T13:35:37Z</time></trkpt><trkpt lat="45.66636178830269" lon="9.305413476810985"><ele>261.0</ele><time>2026-03-31T13:35:38Z</time></trkpt><trkpt lat="45.66635545767026" lon="9.305221244513671"><ele>261.0</ele><time>2026-03-31T13:35:39Z</time></trkpt><trkpt lat="45.66631549838573" lon="9.305007763861006"><ele>261.0</ele><time>2026-03-31T13:35:40Z</time></trkpt><trkpt lat="45.666264503476505" lon="9.30480872414998"><ele>261.0</ele><time>2026-03-31T13:35:41Z</time></trkpt><trkpt lat="45.666228554240014" lon="9.304626582444236"><ele>261.0</ele><time>2026-03-31T13:35:42Z</time></trkpt><trkpt lat="45.66619847118299" lon="9.304444598037321"><ele>261.0</ele><time>2026-03-31T13:35:43Z</time></trkpt><trkpt lat="45.66617183838899" lon="9.304282877639778"><ele>261.0</ele><time>2026-03-31T13:35:44Z</time></trkpt><trkpt lat="45.666143994491634" lon="9.304143777213314"><ele>261.0</ele><time>2026-03-31T13:35:45Z</time></trkpt><trkpt lat="45.666120632535744" lon="9.30397365053311"><ele>261.0</ele><time>2026-03-31T13:35:46Z</time></trkpt><trkpt lat="45.66609825950449" lon="9.303830670809843"><ele>261.0</ele><time>2026-03-31T13:35:47Z</time></trkpt><trkpt lat="45.66606900765105" lon="9.303706885095863"><ele>260.8</ele><time>2026-03-31T13:35:48Z</time></trkpt><trkpt lat="45.6660393636832" lon="9.30359389666926"><ele>260.6</ele><time>2026-03-31T13:35:49Z</time></trkpt><trkpt lat="45.66601997187484" lon="9.303491501046704"><ele>260.4</ele><time>2026-03-31T13:35:50.999Z</time></trkpt><trkpt lat="45.66602576561339" lon="9.303363677869527"><ele>260.2</ele><time>2026-03-31T13:35:58.999Z</time></trkpt><trkpt lat="45.66618735613422" lon="9.303290417946553"><ele>260.0</ele><time>2026-03-31T13:36:00.999Z</time></trkpt><trkpt lat="45.66627932260521" lon="9.303284772114647"><ele>260.0</ele><time>2026-03-31T13:36:01.999Z</time></trkpt><trkpt lat="45.66636291119613" lon="9.303263562679197"><ele>260.0</ele><time>2026-03-31T13:36:02.999Z</time></trkpt><trkpt lat="45.666446697753294" lon="9.303252904331305"><ele>260.0</ele><time>2026-03-31T13:36:03.999Z</time></trkpt><trkpt lat="45.6665492956767" lon="9.303234872352304"><ele>260.0</ele><time>2026-03-31T13:36:04.999Z</time></trkpt><trkpt lat="45.66668610978975" lon="9.303209235079272"><ele>260.0</ele><time>2026-03-31T13:36:05.999Z</time></trkpt><trkpt lat="45.666811993905014" lon="9.303192821926295"><ele>260.0</ele><time>2026-03-31T13:36:06.999Z</time></trkpt><trkpt lat="45.666924406746816" lon="9.303180457531106"><ele>260.0</ele><time>2026-03-31T13:36:07.999Z</time></trkpt><trkpt lat="45.6670405969513" lon="9.303164365955297"><ele>260.0</ele><time>2026-03-31T13:36:08.999Z</time></trkpt><trkpt lat="45.66717579768657" lon="9.303159333071406"><ele>260.0</ele><time>2026-03-31T13:36:09.999Z</time></trkpt><trkpt lat="45.66730978753255" lon="9.303164794920386"><ele>260.75</ele><time>2026-03-31T13:36:10.999Z</time></trkpt><trkpt lat="45.667446353527424" lon="9.303181614568365"><ele>261.5</ele><time>2026-03-31T13:36:11.999Z</time></trkpt><trkpt lat="45.66756286794704" lon="9.303183537567435"><ele>262.25</ele><time>2026-03-31T13:36:12.999Z</time></trkpt><trkpt lat="45.66767637612495" lon="9.303173610766565"><ele>263.0</ele><time>2026-03-31T13:36:13.999Z</time></trkpt><trkpt lat="45.667801340831986" lon="9.30317986542853"><ele>263.0</ele><time>2026-03-31T13:36:14.999Z</time></trkpt><trkpt lat="45.66794338277391" lon="9.303185328163002"><ele>263.0</ele><time>2026-03-31T13:36:15.999Z</time></trkpt><trkpt lat="45.6680729648225" lon="9.303212273945832"><ele>263.0</ele><time>2026-03-31T13:36:16.999Z</time></trkpt><trkpt lat="45.66820015611751" lon="9.303204473000172"><ele>263.0</ele><time>2026-03-31T13:36:17.999Z</time></trkpt><trkpt lat="45.66832313870663" lon="9.303209813071941"><ele>263.0</ele><time>2026-03-31T13:36:18.999Z</time></trkpt><trkpt lat="45.66843645677306" lon="9.3032331415076"><ele>263.0</ele><time>2026-03-31T13:36:19.999Z</time></trkpt><trkpt lat="45.66854629416927" lon="9.303241051853181"><ele>263.0</ele><time>2026-03-31T13:36:20.999Z</time></trkpt><trkpt lat="45.6686604311608" lon="9.303251076471769"><ele>263.0</ele><time>2026-03-31T13:36:21.999Z</time></trkpt><trkpt lat="45.66878474767843" lon="9.303263865580327"><ele>264.0</ele><time>2026-03-31T13:36:22.999Z</time></trkpt><trkpt lat="45.66886388611407" lon="9.303275815536812"><ele>265.0</ele><time>2026-03-31T13:36:23.999Z</time></trkpt><trkpt lat="45.66910980953839" lon="9.30329976581667"><ele>266.0</ele><time>2026-03-31T13:36:24.999Z</time></trkpt><trkpt lat="45.669243601366496" lon="9.303332507790161"><ele>266.0</ele><time>2026-03-31T13:36:25.999Z</time></trkpt><trkpt lat="45.66937890250976" lon="9.303362223080816"><ele>266.0</ele><time>2026-03-31T13:36:26.999Z</time></trkpt><trkpt lat="45.66951473719741" lon="9.303390090257915"><ele>266.0</ele><time>2026-03-31T13:36:27.999Z</time></trkpt><trkpt lat="45.66964441690774" lon="9.303418950751462"><ele>266.0</ele><time>2026-03-31T13:36:28.999Z</time></trkpt><trkpt lat="45.66976597751837" lon="9.303439863202222"><ele>267.0</ele><time>2026-03-31T13:36:29.999Z</time></trkpt><trkpt lat="45.66988884066437" lon="9.303469815566823"><ele>268.0</ele><time>2026-03-31T13:36:30.999Z</time></trkpt><trkpt lat="45.67001018443806" lon="9.303507051531938"><ele>269.0</ele><time>2026-03-31T13:36:31.999Z</time></trkpt><trkpt lat="45.67012662794088" lon="9.303532227078126"><ele>270.0</ele><time>2026-03-31T13:36:32.999Z</time></trkpt><trkpt lat="45.67024295254853" lon="9.303559178568653"><ele>270.8</ele><time>2026-03-31T13:36:33.999Z</time></trkpt><trkpt lat="45.670353409168136" lon="9.303605515313064"><ele>271.6</ele><time>2026-03-31T13:36:34.999Z</time></trkpt><trkpt lat="45.670451393384425" lon="9.303629155664698"><ele>272.4</ele><time>2026-03-31T13:36:35.999Z</time></trkpt><trkpt lat="45.67054688290886" lon="9.303650477607881"><ele>273.2</ele><time>2026-03-31T13:36:36.999Z</time></trkpt><trkpt lat="45.6706397462846" lon="9.303674794049439"><ele>274.0</ele><time>2026-03-31T13:36:37.999Z</time></trkpt><trkpt lat="45.67071953288154" lon="9.303704454312946"><ele>274.0</ele><time>2026-03-31T13:36:38.999Z</time></trkpt><trkpt lat="45.670782597246564" lon="9.303718084117612"><ele>274.0</ele><time>2026-03-31T13:36:39.999Z</time></trkpt><trkpt lat="45.6708646102381" lon="9.303737065838426"><ele>274.0</ele><time>2026-03-31T13:36:40.999Z</time></trkpt><trkpt lat="45.67097118474077" lon="9.303753981097525"><ele>274.0</ele><time>2026-03-31T13:36:41.999Z</time></trkpt><trkpt lat="45.67109841461395" lon="9.303779605034409"><ele>274.0</ele><time>2026-03-31T13:36:42.999Z</time></trkpt><trkpt lat="45.67123464734136" lon="9.303759200388793"><ele>274.0</ele><time>2026-03-31T13:36:43.999Z</time></trkpt><trkpt lat="45.67134905551181" lon="9.303720510450773"><ele>274.0</ele><time>2026-03-31T13:36:44.999Z</time></trkpt><trkpt lat="45.671503071176986" lon="9.303686647641912"><ele>274.0</ele><time>2026-03-31T13:36:45.999Z</time></trkpt><trkpt lat="45.67166376538676" lon="9.303647202014105"><ele>274.0</ele><time>2026-03-31T13:36:46.999Z</time></trkpt><trkpt lat="45.67179975034416" lon="9.303614665645759"><ele>274.0</ele><time>2026-03-31T13:36:47.999Z</time></trkpt><trkpt lat="45.67191857749377" lon="9.303583297269032"><ele>274.0</ele><time>2026-03-31T13:36:48.999Z</time></trkpt><trkpt lat="45.672046378872" lon="9.303546809631722"><ele>274.0</ele><time>2026-03-31T13:36:49.999Z</time></trkpt><trkpt lat="45.67220045559955" lon="9.30352257213972"><ele>274.0</ele><time>2026-03-31T13:36:50.999Z</time></trkpt><trkpt lat="45.67234754214117" lon="9.30348899970979"><ele>274.75</ele><time>2026-03-31T13:36:51.999Z</time></trkpt><trkpt lat="45.672466861938105" lon="9.303463912844363"><ele>275.5</ele><time>2026-03-31T13:36:52.999Z</time></trkpt><trkpt lat="45.672610644854664" lon="9.303420204238831"><ele>276.25</ele><time>2026-03-31T13:36:53.999Z</time></trkpt><trkpt lat="45.67276717981781" lon="9.303379931524246"><ele>277.0</ele><time>2026-03-31T13:36:54.999Z</time></trkpt><trkpt lat="45.67290591611971" lon="9.303338250476815"><ele>277.75</ele><time>2026-03-31T13:36:55.999Z</time></trkpt><trkpt lat="45.67302019844764" lon="9.3033047269827"><ele>278.5</ele><time>2026-03-31T13:36:56.999Z</time></trkpt><trkpt lat="45.673130677888565" lon="9.30328365365862"><ele>279.25</ele><time>2026-03-31T13:36:58Z</time></trkpt><trkpt lat="45.67324739803898" lon="9.303245198650163"><ele>280.0</ele><time>2026-03-31T13:36:59Z</time></trkpt><trkpt lat="45.67337688417169" lon="9.303232389814434"><ele>280.0</ele><time>2026-03-31T13:37:00Z</time></trkpt><trkpt lat="45.67349483723867" lon="9.303210118817447"><ele>280.0</ele><time>2026-03-31T13:37:01Z</time></trkpt><trkpt lat="45.67361417223148" lon="9.30322928613297"><ele>280.0</ele><time>2026-03-31T13:37:02Z</time></trkpt><trkpt lat="45.67374454068157" lon="9.30328030290585"><ele>280.0</ele><time>2026-03-31T13:37:03Z</time></trkpt><trkpt lat="45.673867089290866" lon="9.303343563210602"><ele>281.2</ele><time>2026-03-31T13:37:04Z</time></trkpt><trkpt lat="45.673969935452135" lon="9.303390379824657"><ele>282.4</ele><time>2026-03-31T13:37:05Z</time></trkpt><trkpt lat="45.674089044991945" lon="9.303400422420948"><ele>283.6</ele><time>2026-03-31T13:37:06Z</time></trkpt><trkpt lat="45.67420449635356" lon="9.30336615876682"><ele>284.8</ele><time>2026-03-31T13:37:07Z</time></trkpt><trkpt lat="45.67429988297678" lon="9.303332070363501"><ele>286.0</ele><time>2026-03-31T13:37:08Z</time></trkpt><trkpt lat="45.67438640980996" lon="9.303295941981936"><ele>286.0</ele><time>2026-03-31T13:37:09Z</time></trkpt><trkpt lat="45.67446758008876" lon="9.303262185794898"><ele>286.0</ele><time>2026-03-31T13:37:10Z</time></trkpt><trkpt lat="45.67453570447276" lon="9.30321159706471"><ele>286.0</ele><time>2026-03-31T13:37:11Z</time></trkpt><trkpt lat="45.67461967132389" lon="9.303188257236132"><ele>286.0</ele><time>2026-03-31T13:37:12Z</time></trkpt><trkpt lat="45.67470572186561" lon="9.3031681800535"><ele>286.0</ele><time>2026-03-31T13:37:13Z</time></trkpt><trkpt lat="45.674808952735624" lon="9.303162828621469"><ele>286.0</ele><time>2026-03-31T13:37:14Z</time></trkpt><trkpt lat="45.674929660907914" lon="9.303181371809208"><ele>286.0</ele><time>2026-03-31T13:37:15Z</time></trkpt><trkpt lat="45.675029038780366" lon="9.303228135153603"><ele>286.0</ele><time>2026-03-31T13:37:16Z</time></trkpt><trkpt lat="45.67512304280917" lon="9.30325228424604"><ele>286.0</ele><time>2026-03-31T13:37:17Z</time></trkpt><trkpt lat="45.67521775764593" lon="9.303273095765663"><ele>286.0</ele><time>2026-03-31T13:37:18Z</time></trkpt><trkpt lat="45.67532417326336" lon="9.303185337240897"><ele>286.0</ele><time>2026-03-31T13:37:20Z</time></trkpt><trkpt lat="45.67534724978045" lon="9.303045303225229"><ele>285.0</ele><time>2026-03-31T13:37:21Z</time></trkpt><trkpt lat="45.67539317965829" lon="9.30293939552582"><ele>284.0</ele><time>2026-03-31T13:37:22Z</time></trkpt><trkpt lat="45.675451350591835" lon="9.30273099829086"><ele>283.0</ele><time>2026-03-31T13:37:23Z</time></trkpt><trkpt lat="45.67551511321778" lon="9.302501441708477"><ele>282.0</ele><time>2026-03-31T13:37:24Z</time></trkpt><trkpt lat="45.675583218945796" lon="9.302267388220734"><ele>283.0</ele><time>2026-03-31T13:37:25Z</time></trkpt><trkpt lat="45.67565395438167" lon="9.302046680257794"><ele>284.0</ele><time>2026-03-31T13:37:26Z</time></trkpt><trkpt lat="45.67576706173311" lon="9.30188148457024"><ele>285.0</ele><time>2026-03-31T13:37:27Z</time></trkpt><trkpt lat="45.67584709396661" lon="9.30170900650474"><ele>285.0</ele><time>2026-03-31T13:37:28Z</time></trkpt><trkpt lat="45.67594366057946" lon="9.301566634703166"><ele>285.0</ele><time>2026-03-31T13:37:29Z</time></trkpt><trkpt lat="45.67603544914468" lon="9.301401039564686"><ele>285.0</ele><time>2026-03-31T13:37:30Z</time></trkpt><trkpt lat="45.67613744676373" lon="9.301219504634227"><ele>285.0</ele><time>2026-03-31T13:37:31Z</time></trkpt><trkpt lat="45.676249457850844" lon="9.30101759215596"><ele>286.0</ele><time>2026-03-31T13:37:32Z</time></trkpt><trkpt lat="45.67635931195284" lon="9.300817049183287"><ele>287.0</ele><time>2026-03-31T13:37:33Z</time></trkpt><trkpt lat="45.676455591181174" lon="9.3006439938931"><ele>288.0</ele><time>2026-03-31T13:37:34Z</time></trkpt><trkpt lat="45.67654163549893" lon="9.300487850151816"><ele>288.0</ele><time>2026-03-31T13:37:35Z</time></trkpt><trkpt lat="45.67661939096174" lon="9.300342272642972"><ele>288.0</ele><time>2026-03-31T13:37:36Z</time></trkpt><trkpt lat="45.676689603191264" lon="9.300198124388057"><ele>288.0</ele><time>2026-03-31T13:37:37Z</time></trkpt><trkpt lat="45.67675860648591" lon="9.300055866408414"><ele>288.0</ele><time>2026-03-31T13:37:38Z</time></trkpt><trkpt lat="45.67684451048745" lon="9.299911421131446"><ele>288.0</ele><time>2026-03-31T13:37:39Z</time></trkpt><trkpt lat="45.67692188400863" lon="9.299755924194816"><ele>288.0</ele><time>2026-03-31T13:37:40Z</time></trkpt><trkpt lat="45.67698870983104" lon="9.299634278119665"><ele>288.0</ele><time>2026-03-31T13:37:41Z</time></trkpt><trkpt lat="45.67704830177836" lon="9.299527278549458"><ele>288.0</ele><time>2026-03-31T13:37:42Z</time></trkpt><trkpt lat="45.677105599114086" lon="9.299424585951678"><ele>288.0</ele><time>2026-03-31T13:37:43Z</time></trkpt><trkpt lat="45.6771781568059" lon="9.299344497892738"><ele>287.0</ele><time>2026-03-31T13:37:44Z</time></trkpt><trkpt lat="45.67727980013536" lon="9.299286854520078"><ele>286.0</ele><time>2026-03-31T13:37:45Z</time></trkpt><trkpt lat="45.677433415574974" lon="9.299303589065941"><ele>285.0</ele><time>2026-03-31T13:37:46Z</time></trkpt><trkpt lat="45.67758309349648" lon="9.299287814260508"><ele>284.0</ele><time>2026-03-31T13:37:47Z</time></trkpt><trkpt lat="45.67772313973627" lon="9.299292406861506"><ele>284.25</ele><time>2026-03-31T13:37:48Z</time></trkpt><trkpt lat="45.67784688942" lon="9.299284752536032"><ele>284.5</ele><time>2026-03-31T13:37:49Z</time></trkpt><trkpt lat="45.67797120527387" lon="9.299278615501876"><ele>284.75</ele><time>2026-03-31T13:37:50Z</time></trkpt><trkpt lat="45.67809959436085" lon="9.29927412987749"><ele>285.0</ele><time>2026-03-31T13:37:51Z</time></trkpt><trkpt lat="45.67822359362782" lon="9.299260743387071"><ele>285.0</ele><time>2026-03-31T13:37:52Z</time></trkpt><trkpt lat="45.6783411828931" lon="9.299259677942107"><ele>285.0</ele><time>2026-03-31T13:37:53Z</time></trkpt><trkpt lat="45.67846048586334" lon="9.29925760386625"><ele>285.0</ele><time>2026-03-31T13:37:54Z</time></trkpt><trkpt lat="45.67856773285677" lon="9.299242664576909"><ele>285.0</ele><time>2026-03-31T13:37:55Z</time></trkpt><trkpt lat="45.67868167327059" lon="9.299237261741029"><ele>285.0</ele><time>2026-03-31T13:37:55.999Z</time></trkpt><trkpt lat="45.67877652618721" lon="9.299219238748291"><ele>285.0</ele><time>2026-03-31T13:37:56.999Z</time></trkpt><trkpt lat="45.678863534735655" lon="9.299151889392334"><ele>285.0</ele><time>2026-03-31T13:37:57.999Z</time></trkpt><trkpt lat="45.67893504036123" lon="9.299040853705003"><ele>285.0</ele><time>2026-03-31T13:37:58.999Z</time></trkpt><trkpt lat="45.67899459188041" lon="9.29890407304235"><ele>285.0</ele><time>2026-03-31T13:37:59.999Z</time></trkpt><trkpt lat="45.679041942476445" lon="9.298783087936998"><ele>282.4</ele><time>2026-03-31T13:38:00.999Z</time></trkpt><trkpt lat="45.67909710599174" lon="9.298672055214894"><ele>279.8</ele><time>2026-03-31T13:38:01.999Z</time></trkpt><trkpt lat="45.67916746743347" lon="9.298575353831815"><ele>277.2</ele><time>2026-03-31T13:38:02.999Z</time></trkpt><trkpt lat="45.67926331100523" lon="9.298484448825182"><ele>274.6</ele><time>2026-03-31T13:38:03.999Z</time></trkpt><trkpt lat="45.67936109421545" lon="9.298420450279762"><ele>272.0</ele><time>2026-03-31T13:38:04.999Z</time></trkpt><trkpt lat="45.67945244684457" lon="9.298377669644754"><ele>271.8</ele><time>2026-03-31T13:38:05.999Z</time></trkpt><trkpt lat="45.679540647852235" lon="9.298344990108015"><ele>271.6</ele><time>2026-03-31T13:38:06.999Z</time></trkpt><trkpt lat="45.67963425157808" lon="9.298326016038146"><ele>271.40000000000003</ele><time>2026-03-31T13:38:07.999Z</time></trkpt><trkpt lat="45.67972530031747" lon="9.298327510417879"><ele>271.2</ele><time>2026-03-31T13:38:08.999Z</time></trkpt><trkpt lat="45.67983178538978" lon="9.298335363740785"><ele>271.0</ele><time>2026-03-31T13:38:09.999Z</time></trkpt><trkpt lat="45.679930135401484" lon="9.298339744102934"><ele>271.0</ele><time>2026-03-31T13:38:10.999Z</time></trkpt><trkpt lat="45.68002441218292" lon="9.29835071518326"><ele>271.0</ele><time>2026-03-31T13:38:11.999Z</time></trkpt><trkpt lat="45.680104711074705" lon="9.298357772342662"><ele>271.0</ele><time>2026-03-31T13:38:12.999Z</time></trkpt><trkpt lat="45.680183999418865" lon="9.298380898758003"><ele>271.0</ele><time>2026-03-31T13:38:13.999Z</time></trkpt><trkpt lat="45.680253648916555" lon="9.29840901336524"><ele>271.0</ele><time>2026-03-31T13:38:14.999Z</time></trkpt><trkpt lat="45.680343612161565" lon="9.298434832831123"><ele>271.0</ele><time>2026-03-31T13:38:15.999Z</time></trkpt><trkpt lat="45.680444277273956" lon="9.298435306222379"><ele>270.5</ele><time>2026-03-31T13:38:16.999Z</time></trkpt><trkpt lat="45.68056032021184" lon="9.298391004850997"><ele>270.0</ele><time>2026-03-31T13:38:17.999Z</time></trkpt><trkpt lat="45.68067913553765" lon="9.298299122052873"><ele>269.5</ele><time>2026-03-31T13:38:18.999Z</time></trkpt><trkpt lat="45.68080294686848" lon="9.298183337110308"><ele>269.0</ele><time>2026-03-31T13:38:19.999Z</time></trkpt><trkpt lat="45.68089642847873" lon="9.298077484796188"><ele>269.0</ele><time>2026-03-31T13:38:20.999Z</time></trkpt><trkpt lat="45.68098576319976" lon="9.298001119015456"><ele>269.0</ele><time>2026-03-31T13:38:21.999Z</time></trkpt><trkpt lat="45.68109638519746" lon="9.297918189455691"><ele>269.0</ele><time>2026-03-31T13:38:22.999Z</time></trkpt><trkpt lat="45.68122168812933" lon="9.29780740049573"><ele>269.0</ele><time>2026-03-31T13:38:23.999Z</time></trkpt><trkpt lat="45.68134380810601" lon="9.297707236702394"><ele>268.25</ele><time>2026-03-31T13:38:24.999Z</time></trkpt><trkpt lat="45.6814493590668" lon="9.29760706323232"><ele>267.5</ele><time>2026-03-31T13:38:25.999Z</time></trkpt><trkpt lat="45.6815578957293" lon="9.297514367147626"><ele>266.75</ele><time>2026-03-31T13:38:26.999Z</time></trkpt><trkpt lat="45.6816708454286" lon="9.297420737268146"><ele>266.0</ele><time>2026-03-31T13:38:27.999Z</time></trkpt><trkpt lat="45.68175575955288" lon="9.297295386222244"><ele>268.0</ele><time>2026-03-31T13:38:28.999Z</time></trkpt><trkpt lat="45.681846420528316" lon="9.297152130963932"><ele>270.0</ele><time>2026-03-31T13:38:29.999Z</time></trkpt><trkpt lat="45.68194385767139" lon="9.297012003529401"><ele>272.0</ele><time>2026-03-31T13:38:30.999Z</time></trkpt><trkpt lat="45.68202762419488" lon="9.296855073288617"><ele>274.0</ele><time>2026-03-31T13:38:31.999Z</time></trkpt><trkpt lat="45.6821269612916" lon="9.296681651659803"><ele>275.5</ele><time>2026-03-31T13:38:32.999Z</time></trkpt><trkpt lat="45.68223141998858" lon="9.296508174628423"><ele>277.0</ele><time>2026-03-31T13:38:33.999Z</time></trkpt><trkpt lat="45.68231964719007" lon="9.296362012828457"><ele>278.5</ele><time>2026-03-31T13:38:34.999Z</time></trkpt><trkpt lat="45.682376793283666" lon="9.29622500477113"><ele>280.0</ele><time>2026-03-31T13:38:35.999Z</time></trkpt><trkpt lat="45.682397416327454" lon="9.296063601185669"><ele>280.0</ele><time>2026-03-31T13:38:36.999Z</time></trkpt><trkpt lat="45.68238477921934" lon="9.295855102697624"><ele>280.0</ele><time>2026-03-31T13:38:37.999Z</time></trkpt><trkpt lat="45.68235401876082" lon="9.295625528990046"><ele>280.0</ele><time>2026-03-31T13:38:38.999Z</time></trkpt><trkpt lat="45.68233517410851" lon="9.295433937365699"><ele>280.0</ele><time>2026-03-31T13:38:39.999Z</time></trkpt><trkpt lat="45.68232471054511" lon="9.295278557540174"><ele>280.6</ele><time>2026-03-31T13:38:40.999Z</time></trkpt><trkpt lat="45.68232740853584" lon="9.295146768602233"><ele>281.2</ele><time>2026-03-31T13:38:41.999Z</time></trkpt><trkpt lat="45.682356241394025" lon="9.295025480710821"><ele>281.8</ele><time>2026-03-31T13:38:42.999Z</time></trkpt><trkpt lat="45.68242672575769" lon="9.294916265326737"><ele>282.4</ele><time>2026-03-31T13:38:43.999Z</time></trkpt><trkpt lat="45.68252671755901" lon="9.294834384186867"><ele>283.0</ele><time>2026-03-31T13:38:44.999Z</time></trkpt><trkpt lat="45.68265638449589" lon="9.294772093826875"><ele>286.0</ele><time>2026-03-31T13:38:45.999Z</time></trkpt><trkpt lat="45.68279831536527" lon="9.294719752549462"><ele>289.0</ele><time>2026-03-31T13:38:46.999Z</time></trkpt><trkpt lat="45.68294901203964" lon="9.294654316071579"><ele>292.0</ele><time>2026-03-31T13:38:47.999Z</time></trkpt><trkpt lat="45.683087630408394" lon="9.294569214770434"><ele>292.0</ele><time>2026-03-31T13:38:48.999Z</time></trkpt><trkpt lat="45.68321802936711" lon="9.294464313585246"><ele>292.0</ele><time>2026-03-31T13:38:49.999Z</time></trkpt><trkpt lat="45.68333848593086" lon="9.294325960586667"><ele>292.0</ele><time>2026-03-31T13:38:50.999Z</time></trkpt><trkpt lat="45.68344757148815" lon="9.294197050062742"><ele>292.0</ele><time>2026-03-31T13:38:51.999Z</time></trkpt><trkpt lat="45.683555946065034" lon="9.294076779476777"><ele>292.75</ele><time>2026-03-31T13:38:52.999Z</time></trkpt><trkpt lat="45.68365226485614" lon="9.293980921190172"><ele>293.5</ele><time>2026-03-31T13:38:53.999Z</time></trkpt><trkpt lat="45.68374862286446" lon="9.29388023508903"><ele>294.25</ele><time>2026-03-31T13:38:54.999Z</time></trkpt><trkpt lat="45.68385793268869" lon="9.2937610465127"><ele>295.0</ele><time>2026-03-31T13:38:55.999Z</time></trkpt><trkpt lat="45.68398441360467" lon="9.293635559611227"><ele>295.5</ele><time>2026-03-31T13:38:56.999Z</time></trkpt><trkpt lat="45.684103596423576" lon="9.293510814966846"><ele>296.0</ele><time>2026-03-31T13:38:57.999Z</time></trkpt><trkpt lat="45.684208679347506" lon="9.293391234633646"><ele>296.5</ele><time>2026-03-31T13:38:58.999Z</time></trkpt><trkpt lat="45.68431727254411" lon="9.293283004392652"><ele>297.0</ele><time>2026-03-31T13:38:59.999Z</time></trkpt><trkpt lat="45.68442578290298" lon="9.293185118837375"><ele>298.5</ele><time>2026-03-31T13:39:00.999Z</time></trkpt><trkpt lat="45.68453965830968" lon="9.293089287270057"><ele>300.0</ele><time>2026-03-31T13:39:01.999Z</time></trkpt><trkpt lat="45.684644548217285" lon="9.293014576820804"><ele>301.5</ele><time>2026-03-31T13:39:02.999Z</time></trkpt><trkpt lat="45.684719724613224" lon="9.292914295337598"><ele>303.0</ele><time>2026-03-31T13:39:04Z</time></trkpt><trkpt lat="45.6848044485563" lon="9.292815654773857"><ele>303.0</ele><time>2026-03-31T13:39:05Z</time></trkpt><trkpt lat="45.68489359008437" lon="9.29272012987992"><ele>303.0</ele><time>2026-03-31T13:39:06Z</time></trkpt><trkpt lat="45.68496999863169" lon="9.29264647985366"><ele>303.0</ele><time>2026-03-31T13:39:07Z</time></trkpt><trkpt lat="45.68503805462586" lon="9.292586776556265"><ele>303.0</ele><time>2026-03-31T13:39:08Z</time></trkpt><trkpt lat="45.68509499183725" lon="9.292531124180693"><ele>303.0</ele><time>2026-03-31T13:39:09Z</time></trkpt><trkpt lat="45.68515516588754" lon="9.292465162862499"><ele>303.0</ele><time>2026-03-31T13:39:10Z</time></trkpt><trkpt lat="45.68522791256535" lon="9.292385240047196"><ele>303.0</ele><time>2026-03-31T13:39:11Z</time></trkpt><trkpt lat="45.68531434653831" lon="9.292284827424604"><ele>303.0</ele><time>2026-03-31T13:39:12Z</time></trkpt><trkpt lat="45.68538809949416" lon="9.292202355406925"><ele>303.0</ele><time>2026-03-31T13:39:13Z</time></trkpt><trkpt lat="45.68544883463079" lon="9.292121646616922"><ele>303.0</ele><time>2026-03-31T13:39:14Z</time></trkpt><trkpt lat="45.68550396903165" lon="9.292051220854358"><ele>303.0</ele><time>2026-03-31T13:39:15Z</time></trkpt><trkpt lat="45.68556210463124" lon="9.291972641373132"><ele>303.0</ele><time>2026-03-31T13:39:16Z</time></trkpt><trkpt lat="45.685620371750886" lon="9.2918730392908"><ele>303.0</ele><time>2026-03-31T13:39:17Z</time></trkpt><trkpt lat="45.68568380977436" lon="9.291776236228563"><ele>303.0</ele><time>2026-03-31T13:39:18Z</time></trkpt><trkpt lat="45.68576418461663" lon="9.29170635420668"><ele>303.0</ele><time>2026-03-31T13:39:19Z</time></trkpt><trkpt lat="45.68582902603587" lon="9.291656511021193"><ele>303.0</ele><time>2026-03-31T13:39:20Z</time></trkpt><trkpt lat="45.68590576351783" lon="9.291615304239189"><ele>303.0</ele><time>2026-03-31T13:39:21Z</time></trkpt><trkpt lat="45.68598088859398" lon="9.291595532558075"><ele>303.0</ele><time>2026-03-31T13:39:22Z</time></trkpt><trkpt lat="45.6860407801287" lon="9.29156580376062"><ele>303.4</ele><time>2026-03-31T13:39:23Z</time></trkpt><trkpt lat="45.68610476800761" lon="9.291588881929993"><ele>303.8</ele><time>2026-03-31T13:39:24Z</time></trkpt><trkpt lat="45.68612699367932" lon="9.291392522267364"><ele>304.2</ele><time>2026-03-31T13:39:25Z</time></trkpt><trkpt lat="45.68611685463033" lon="9.291251178174733"><ele>304.6</ele><time>2026-03-31T13:39:26Z</time></trkpt><trkpt lat="45.686118639477066" lon="9.291096768928806"><ele>305.0</ele><time>2026-03-31T13:39:27Z</time></trkpt><trkpt lat="45.686142323722514" lon="9.29094577203439"><ele>305.0</ele><time>2026-03-31T13:39:28Z</time></trkpt><trkpt lat="45.686190497911575" lon="9.290785229501022"><ele>305.0</ele><time>2026-03-31T13:39:29Z</time></trkpt><trkpt lat="45.68622651396038" lon="9.290633762678782"><ele>305.0</ele><time>2026-03-31T13:39:30Z</time></trkpt><trkpt lat="45.686264393167555" lon="9.290488671489749"><ele>305.0</ele><time>2026-03-31T13:39:31Z</time></trkpt><trkpt lat="45.68630025838673" lon="9.290355619755685"><ele>305.0</ele><time>2026-03-31T13:39:32Z</time></trkpt><trkpt lat="45.68634304793841" lon="9.290194249551865"><ele>305.0</ele><time>2026-03-31T13:39:33Z</time></trkpt><trkpt lat="45.68637985995214" lon="9.290033948730605"><ele>305.0</ele><time>2026-03-31T13:39:34Z</time></trkpt><trkpt lat="45.68640443856986" lon="9.289891476245622"><ele>305.0</ele><time>2026-03-31T13:39:35Z</time></trkpt><trkpt lat="45.68641240237507" lon="9.28974338116927"><ele>305.0</ele><time>2026-03-31T13:39:36Z</time></trkpt><trkpt lat="45.68639929310547" lon="9.28959001089113"><ele>305.0</ele><time>2026-03-31T13:39:37Z</time></trkpt><trkpt lat="45.686377584923434" lon="9.289463754704073"><ele>305.33333333333337</ele><time>2026-03-31T13:39:38Z</time></trkpt><trkpt lat="45.686359209714006" lon="9.289362421619863"><ele>305.6666666666667</ele><time>2026-03-31T13:39:39Z</time></trkpt><trkpt lat="45.686347289279155" lon="9.28925668407948"><ele>306.0</ele><time>2026-03-31T13:39:40Z</time></trkpt><trkpt lat="45.68636499890096" lon="9.289152285598833"><ele>306.3333333333333</ele><time>2026-03-31T13:39:41Z</time></trkpt><trkpt lat="45.68641132376712" lon="9.289047606712325"><ele>306.66666666666663</ele><time>2026-03-31T13:39:44Z</time></trkpt><trkpt lat="45.68630817954264" lon="9.288946640697473"><ele>307.0</ele><time>2026-03-31T13:39:46Z</time></trkpt><trkpt lat="45.68619930308027" lon="9.288907163712656"><ele>305.5</ele><time>2026-03-31T13:39:47Z</time></trkpt><trkpt lat="45.68609204759002" lon="9.2888655250759"><ele>304.0</ele><time>2026-03-31T13:39:48Z</time></trkpt><trkpt lat="45.68596059399157" lon="9.288799586281073"><ele>302.5</ele><time>2026-03-31T13:39:49Z</time></trkpt><trkpt lat="45.68584314266084" lon="9.288752635165478"><ele>301.0</ele><time>2026-03-31T13:39:50Z</time></trkpt><trkpt lat="45.6857539048999" lon="9.288711736500568"><ele>301.0</ele><time>2026-03-31T13:39:51Z</time></trkpt><trkpt lat="45.685651773917805" lon="9.288605255115227"><ele>301.0</ele><time>2026-03-31T13:39:53Z</time></trkpt><trkpt lat="45.685587991423134" lon="9.288556860869493"><ele>301.0</ele><time>2026-03-31T13:39:54Z</time></trkpt><trkpt lat="45.68548418571186" lon="9.288499907100983"><ele>301.0</ele><time>2026-03-31T13:39:56Z</time></trkpt><trkpt lat="45.68544152296995" lon="9.288346621729458"><ele>301.0</ele><time>2026-03-31T13:39:58Z</time></trkpt><trkpt lat="45.68538737503127" lon="9.288200309477517"><ele>301.0</ele><time>2026-03-31T13:39:59Z</time></trkpt><trkpt lat="45.68530671765794" lon="9.288038857188036"><ele>301.0</ele><time>2026-03-31T13:40:00Z</time></trkpt><trkpt lat="45.68521040693663" lon="9.287887718879977"><ele>301.0</ele><time>2026-03-31T13:40:01Z</time></trkpt><trkpt lat="45.68512050456965" lon="9.287775042074"><ele>301.0</ele><time>2026-03-31T13:40:02Z</time></trkpt><trkpt lat="45.68505103198877" lon="9.287668142826238"><ele>301.0</ele><time>2026-03-31T13:40:03Z</time></trkpt><trkpt lat="45.685006522081814" lon="9.287550669496971"><ele>301.0</ele><time>2026-03-31T13:40:04Z</time></trkpt><trkpt lat="45.68497171937399" lon="9.287449355456584"><ele>301.0</ele><time>2026-03-31T13:40:05Z</time></trkpt><trkpt lat="45.68494509500376" lon="9.287334017459424"><ele>301.0</ele><time>2026-03-31T13:40:06Z</time></trkpt><trkpt lat="45.684931879157354" lon="9.287196671587273"><ele>301.0</ele><time>2026-03-31T13:40:07Z</time></trkpt><trkpt lat="45.68492541984761" lon="9.287039186817738"><ele>301.25</ele><time>2026-03-31T13:40:08Z</time></trkpt><trkpt lat="45.6849065549107" lon="9.286858374657747"><ele>301.5</ele><time>2026-03-31T13:40:09Z</time></trkpt><trkpt lat="45.68490974062815" lon="9.286685306090867"><ele>301.75</ele><time>2026-03-31T13:40:10Z</time></trkpt><trkpt lat="45.68491755159039" lon="9.286522086686306"><ele>302.0</ele><time>2026-03-31T13:40:11Z</time></trkpt><trkpt lat="45.68491947653668" lon="9.286376708692735"><ele>301.6</ele><time>2026-03-31T13:40:12Z</time></trkpt><trkpt lat="45.68492150816361" lon="9.286226388790402"><ele>301.2</ele><time>2026-03-31T13:40:13Z</time></trkpt><trkpt lat="45.684892757617035" lon="9.28608940474005"><ele>300.8</ele><time>2026-03-31T13:40:14Z</time></trkpt><trkpt lat="45.684853685117666" lon="9.285984486287493"><ele>300.4</ele><time>2026-03-31T13:40:15Z</time></trkpt><trkpt lat="45.684802664560834" lon="9.285876034719593"><ele>300.0</ele><time>2026-03-31T13:40:16Z</time></trkpt><trkpt lat="45.68475649289996" lon="9.285791591834137"><ele>300.0</ele><time>2026-03-31T13:40:17Z</time></trkpt><trkpt lat="45.68468750835063" lon="9.285694327033598"><ele>300.0</ele><time>2026-03-31T13:40:18Z</time></trkpt><trkpt lat="45.68463421064943" lon="9.28560738930803"><ele>300.0</ele><time>2026-03-31T13:40:20Z</time></trkpt><trkpt lat="45.68460170147307" lon="9.285738053371173"><ele>300.0</ele><time>2026-03-31T13:40:21Z</time></trkpt><trkpt lat="45.684574301066306" lon="9.285632731498936"><ele>300.0</ele><time>2026-03-31T13:40:22Z</time></trkpt><trkpt lat="45.68448955859071" lon="9.285529119825961"><ele>300.3333333333333</ele><time>2026-03-31T13:40:24Z</time></trkpt><trkpt lat="45.68456607003753" lon="9.28511158255026"><ele>300.66666666666663</ele><time>2026-03-31T13:40:26Z</time></trkpt><trkpt lat="45.68454777090678" lon="9.284983876546432"><ele>301.0</ele><time>2026-03-31T13:40:26.999Z</time></trkpt><trkpt lat="45.68453555324389" lon="9.284810919345386"><ele>300.8333333333333</ele><time>2026-03-31T13:40:28.999Z</time></trkpt><trkpt lat="45.68452951115871" lon="9.28470827014085"><ele>300.66666666666663</ele><time>2026-03-31T13:40:29.999Z</time></trkpt><trkpt lat="45.68452677026813" lon="9.284601507099222"><ele>300.5</ele><time>2026-03-31T13:40:30.999Z</time></trkpt><trkpt lat="45.68452292166879" lon="9.284474450321417"><ele>300.3333333333333</ele><time>2026-03-31T13:40:31.999Z</time></trkpt><trkpt lat="45.684513781128445" lon="9.28438211028131"><ele>300.1666666666667</ele><time>2026-03-31T13:40:32.999Z</time></trkpt><trkpt lat="45.68449479483065" lon="9.284196412382595"><ele>300.0</ele><time>2026-03-31T13:40:34.999Z</time></trkpt><trkpt lat="45.68448634590231" lon="9.284106805963015"><ele>300.0</ele><time>2026-03-31T13:40:35.999Z</time></trkpt><trkpt lat="45.684478010445545" lon="9.28396105450465"><ele>300.0</ele><time>2026-03-31T13:40:37.999Z</time></trkpt><trkpt lat="45.68447501235597" lon="9.283830935346213"><ele>300.0</ele><time>2026-03-31T13:40:39.999Z</time></trkpt><trkpt lat="45.68449501837209" lon="9.283682691898369"><ele>300.0</ele><time>2026-03-31T13:40:41.999Z</time></trkpt><trkpt lat="45.68458180256759" lon="9.283546707065586"><ele>300.0</ele><time>2026-03-31T13:40:43.999Z</time></trkpt><trkpt lat="45.684646933011436" lon="9.283472300297676"><ele>300.6</ele><time>2026-03-31T13:40:44.999Z</time></trkpt><trkpt lat="45.68470064724186" lon="9.283376165263197"><ele>301.2</ele><time>2026-03-31T13:40:45.999Z</time></trkpt><trkpt lat="45.68473229419449" lon="9.283279868729215"><ele>301.8</ele><time>2026-03-31T13:40:46.999Z</time></trkpt><trkpt lat="45.68478172718958" lon="9.283162726964443"><ele>302.4</ele><time>2026-03-31T13:40:48.999Z</time></trkpt><trkpt lat="45.6848830422177" lon="9.283078776143665"><ele>303.0</ele><time>2026-03-31T13:40:50.999Z</time></trkpt><trkpt lat="45.684954519572884" lon="9.283037454867559"><ele>303.0</ele><time>2026-03-31T13:40:51.999Z</time></trkpt><trkpt lat="45.68503443941535" lon="9.282985957178541"><ele>303.0</ele><time>2026-03-31T13:40:52.999Z</time></trkpt><trkpt lat="45.685095148350975" lon="9.28288690060168"><ele>303.0</ele><time>2026-03-31T13:40:53.999Z</time></trkpt><trkpt lat="45.685175208750366" lon="9.28280847984709"><ele>303.0</ele><time>2026-03-31T13:40:55.999Z</time></trkpt><trkpt lat="45.68515644515809" lon="9.282707648086008"><ele>303.0</ele><time>2026-03-31T13:40:57.999Z</time></trkpt><trkpt lat="45.685112852225195" lon="9.282512374175168"><ele>303.0</ele><time>2026-03-31T13:40:59.999Z</time></trkpt><trkpt lat="45.68509709003567" lon="9.282404489547574"><ele>303.0</ele><time>2026-03-31T13:41:00.999Z</time></trkpt><trkpt lat="45.685072950654096" lon="9.282308172889444"><ele>303.0</ele><time>2026-03-31T13:41:01.999Z</time></trkpt><trkpt lat="45.685047823412795" lon="9.282220320171005"><ele>303.0</ele><time>2026-03-31T13:41:02.999Z</time></trkpt><trkpt lat="45.68500721317507" lon="9.282067393100201"><ele>303.0</ele><time>2026-03-31T13:41:04.999Z</time></trkpt><trkpt lat="45.68493490736841" lon="9.281900044890314"><ele>302.0</ele><time>2026-03-31T13:41:06.999Z</time></trkpt><trkpt lat="45.684909768017825" lon="9.281809824773257"><ele>301.0</ele><time>2026-03-31T13:41:07.999Z</time></trkpt><trkpt lat="45.68487022865626" lon="9.281719368951265"><ele>300.0</ele><time>2026-03-31T13:41:08.999Z</time></trkpt><trkpt lat="45.68483885020224" lon="9.281634845453393"><ele>299.0</ele><time>2026-03-31T13:41:10Z</time></trkpt><trkpt lat="45.68480094073205" lon="9.281546368694837"><ele>298.0</ele><time>2026-03-31T13:41:11Z</time></trkpt><trkpt lat="45.68476647455007" lon="9.281464369318563"><ele>297.0</ele><time>2026-03-31T13:41:12Z</time></trkpt><trkpt lat="45.68472987807225" lon="9.281382206673415"><ele>296.0</ele><time>2026-03-31T13:41:13Z</time></trkpt><trkpt lat="45.68468400446471" lon="9.28131387676881"><ele>295.2857142857143</ele><time>2026-03-31T13:41:14Z</time></trkpt><trkpt lat="45.68461195972357" lon="9.281217858982934"><ele>294.57142857142856</ele><time>2026-03-31T13:41:16Z</time></trkpt><trkpt lat="45.68453768956767" lon="9.281155290299482"><ele>293.85714285714283</ele><time>2026-03-31T13:41:18Z</time></trkpt><trkpt lat="45.68447844877748" lon="9.281115677828602"><ele>293.1428571428571</ele><time>2026-03-31T13:41:20Z</time></trkpt><trkpt lat="45.68443858962325" lon="9.28104052671784"><ele>292.4285714285714</ele><time>2026-03-31T13:41:23Z</time></trkpt><trkpt lat="45.68447957305865" lon="9.2809694060453"><ele>291.7142857142857</ele><time>2026-03-31T13:41:26Z</time></trkpt><trkpt lat="45.684543170401085" lon="9.280976979992294"><ele>291.0</ele><time>2026-03-31T13:41:28Z</time></trkpt><trkpt lat="45.684630029368414" lon="9.2810294549461"><ele>291.0</ele><time>2026-03-31T13:41:30Z</time></trkpt><trkpt lat="45.68470621502597" lon="9.28105771571264"><ele>291.0</ele><time>2026-03-31T13:41:32Z</time></trkpt><trkpt lat="45.684789137152436" lon="9.281077362134813"><ele>291.0</ele><time>2026-03-31T13:41:34Z</time></trkpt><trkpt lat="45.68487709044961" lon="9.281109957641862"><ele>291.0</ele><time>2026-03-31T13:41:36Z</time></trkpt><trkpt lat="45.684945688673665" lon="9.281107868549336"><ele>291.0</ele><time>2026-03-31T13:41:38Z</time></trkpt><trkpt lat="45.685011229043816" lon="9.281111943170481"><ele>291.0</ele><time>2026-03-31T13:41:41Z</time></trkpt><trkpt lat="45.68502698835274" lon="9.2810158002918"><ele>291.0</ele><time>2026-03-31T13:41:44Z</time></trkpt><trkpt lat="45.6849279942312" lon="9.280922044995526"><ele>291.0</ele><time>2026-03-31T13:41:46Z</time></trkpt><trkpt lat="45.68485949779177" lon="9.280888649032851"><ele>291.0</ele><time>2026-03-31T13:41:47Z</time></trkpt><trkpt lat="45.68478474934429" lon="9.280816469612418"><ele>291.0</ele><time>2026-03-31T13:41:49Z</time></trkpt><trkpt lat="45.68483061143686" lon="9.280707902425178"><ele>291.0</ele><time>2026-03-31T13:41:50Z</time></trkpt><trkpt lat="45.684773947111786" lon="9.28058481717818"><ele>290.75</ele><time>2026-03-31T13:41:52Z</time></trkpt><trkpt lat="45.68479474568325" lon="9.280415259183926"><ele>290.5</ele><time>2026-03-31T13:41:54Z</time></trkpt><trkpt lat="45.68458124126935" lon="9.28042899512832"><ele>290.25</ele><time>2026-03-31T13:41:55Z</time></trkpt><trkpt lat="45.684528204204675" lon="9.280347096155634"><ele>290.0</ele><time>2026-03-31T13:41:57Z</time></trkpt><trkpt lat="45.68447913012985" lon="9.280261655964978"><ele>290.0</ele><time>2026-03-31T13:41:59Z</time></trkpt><trkpt lat="45.68442826069757" lon="9.280188662190557"><ele>290.0</ele><time>2026-03-31T13:42:00Z</time></trkpt><trkpt lat="45.684378356386155" lon="9.280117366557104"><ele>290.0</ele><time>2026-03-31T13:42:01Z</time></trkpt><trkpt lat="45.684314614661844" lon="9.280056500539647"><ele>290.0</ele><time>2026-03-31T13:42:02Z</time></trkpt><trkpt lat="45.684258300935895" lon="9.279995792550228"><ele>290.0</ele><time>2026-03-31T13:42:03Z</time></trkpt><trkpt lat="45.68422042284831" lon="9.279906386724232"><ele>290.0</ele><time>2026-03-31T13:42:05Z</time></trkpt><trkpt lat="45.684199007242164" lon="9.279812924645471"><ele>290.0</ele><time>2026-03-31T13:42:14Z</time></trkpt><trkpt lat="45.68409242926813" lon="9.279698693120004"><ele>290.0</ele><time>2026-03-31T13:42:16Z</time></trkpt><trkpt lat="45.683996752462946" lon="9.279640758897438"><ele>290.0</ele><time>2026-03-31T13:42:18Z</time></trkpt><trkpt lat="45.68392231008454" lon="9.279509375469475"><ele>290.0</ele><time>2026-03-31T13:42:20Z</time></trkpt><trkpt lat="45.68388795285697" lon="9.279413115871359"><ele>290.0</ele><time>2026-03-31T13:42:21Z</time></trkpt><trkpt lat="45.68385143776197" lon="9.279311611827962"><ele>290.0</ele><time>2026-03-31T13:42:22Z</time></trkpt><trkpt lat="45.683817278448345" lon="9.279160173423083"><ele>290.0</ele><time>2026-03-31T13:42:24Z</time></trkpt><trkpt lat="45.683831563043775" lon="9.279058762647077"><ele>290.0</ele><time>2026-03-31T13:42:26Z</time></trkpt><trkpt lat="45.683821242517425" lon="9.278966337593918"><ele>290.0</ele><time>2026-03-31T13:42:28Z</time></trkpt><trkpt lat="45.68385084631838" lon="9.278822396351327"><ele>290.0</ele><time>2026-03-31T13:42:30Z</time></trkpt><trkpt lat="45.683795582003434" lon="9.278668553549121"><ele>290.0</ele><time>2026-03-31T13:42:32Z</time></trkpt><trkpt lat="45.68373360609395" lon="9.278592341260877"><ele>290.0</ele><time>2026-03-31T13:42:36Z</time></trkpt><trkpt lat="45.68370956900833" lon="9.278487631540735"><ele>288.0</ele><time>2026-03-31T13:42:39Z</time></trkpt><trkpt lat="45.683654401601096" lon="9.278422915494966"><ele>286.0</ele><time>2026-03-31T13:42:41Z</time></trkpt><trkpt lat="45.683646475774125" lon="9.278332860118976"><ele>284.0</ele><time>2026-03-31T13:42:43.999Z</time></trkpt><trkpt lat="45.683609518127334" lon="9.278259479667122"><ele>282.0</ele><time>2026-03-31T13:42:46.999Z</time></trkpt><trkpt lat="45.68359820665464" lon="9.27816145783691"><ele>280.0</ele><time>2026-03-31T13:42:48.999Z</time></trkpt><trkpt lat="45.683591710639675" lon="9.278044558218655"><ele>278.0</ele><time>2026-03-31T13:42:50.999Z</time></trkpt><trkpt lat="45.683551446973645" lon="9.277960383704722"><ele>276.0</ele><time>2026-03-31T13:42:54.999Z</time></trkpt><trkpt lat="45.68349697884095" lon="9.27788640557531"><ele>275.0</ele><time>2026-03-31T13:42:57.999Z</time></trkpt><trkpt lat="45.683420130775545" lon="9.277877922073568"><ele>274.0</ele><time>2026-03-31T13:43:02.999Z</time></trkpt><trkpt lat="45.683408808635306" lon="9.277746251527303"><ele>273.0</ele><time>2026-03-31T13:43:06.999Z</time></trkpt><trkpt lat="45.68335549468574" lon="9.277648065889995"><ele>272.0</ele><time>2026-03-31T13:43:08.999Z</time></trkpt><trkpt lat="45.68325449938122" lon="9.277567334019198"><ele>271.0</ele><time>2026-03-31T13:43:10.999Z</time></trkpt><trkpt lat="45.68320006302121" lon="9.277508672316738"><ele>270.0</ele><time>2026-03-31T13:43:11.999Z</time></trkpt><trkpt lat="45.683097042287855" lon="9.277460685887652"><ele>270.0</ele><time>2026-03-31T13:43:13.999Z</time></trkpt><trkpt lat="45.68303638452649" lon="9.277415664491292"><ele>270.0</ele><time>2026-03-31T13:43:14.999Z</time></trkpt><trkpt lat="45.68297805172575" lon="9.277378415729947"><ele>270.0</ele><time>2026-03-31T13:43:16Z</time></trkpt><trkpt lat="45.68287771445991" lon="9.27736248213507"><ele>270.0</ele><time>2026-03-31T13:43:18Z</time></trkpt><trkpt lat="45.682797601342614" lon="9.277257297372364"><ele>270.0</ele><time>2026-03-31T13:43:20Z</time></trkpt><trkpt lat="45.68272435437761" lon="9.277232749488578"><ele>270.0</ele><time>2026-03-31T13:43:22Z</time></trkpt><trkpt lat="45.68264752360007" lon="9.277172761042014"><ele>269.6</ele><time>2026-03-31T13:43:25Z</time></trkpt><trkpt lat="45.682572732647664" lon="9.277095908097152"><ele>269.2</ele><time>2026-03-31T13:43:28Z</time></trkpt><trkpt lat="45.68243548759477" lon="9.27704416480421"><ele>268.8</ele><time>2026-03-31T13:43:30Z</time></trkpt><trkpt lat="45.68236595088221" lon="9.27700401797552"><ele>268.4</ele><time>2026-03-31T13:43:31Z</time></trkpt><trkpt lat="45.68231385201106" lon="9.276952507773766"><ele>268.0</ele><time>2026-03-31T13:43:32Z</time></trkpt><trkpt lat="45.68218820408578" lon="9.276880098282435"><ele>268.0</ele><time>2026-03-31T13:43:34Z</time></trkpt><trkpt lat="45.68213058003477" lon="9.276836577850935"><ele>268.0</ele><time>2026-03-31T13:43:35Z</time></trkpt><trkpt lat="45.68206434586197" lon="9.27678934991543"><ele>268.0</ele><time>2026-03-31T13:43:36Z</time></trkpt><trkpt lat="45.68196105383354" lon="9.276734838234857"><ele>268.0</ele><time>2026-03-31T13:43:38Z</time></trkpt><trkpt lat="45.68187833604284" lon="9.276652841654736"><ele>268.0</ele><time>2026-03-31T13:43:40Z</time></trkpt><trkpt lat="45.6818109313874" lon="9.276611598481947"><ele>268.0</ele><time>2026-03-31T13:43:42Z</time></trkpt><trkpt lat="45.681724656620894" lon="9.276545924358937"><ele>268.16666666666663</ele><time>2026-03-31T13:43:45Z</time></trkpt><trkpt lat="45.68165537496908" lon="9.27647466427479"><ele>268.3333333333333</ele><time>2026-03-31T13:43:47Z</time></trkpt><trkpt lat="45.68154569379349" lon="9.276388332927155"><ele>268.5</ele><time>2026-03-31T13:43:49Z</time></trkpt><trkpt lat="45.68148706602431" lon="9.276348883566762"><ele>268.6666666666667</ele><time>2026-03-31T13:43:50Z</time></trkpt><trkpt lat="45.68142236045067" lon="9.276295187557947"><ele>268.83333333333337</ele><time>2026-03-31T13:43:51Z</time></trkpt><trkpt lat="45.68134874509663" lon="9.276233535858829"><ele>269.0</ele><time>2026-03-31T13:43:52Z</time></trkpt><trkpt lat="45.68127367577611" lon="9.27615520410337"><ele>268.83333333333337</ele><time>2026-03-31T13:43:53Z</time></trkpt><trkpt lat="45.681205471495254" lon="9.276089376819789"><ele>268.6666666666667</ele><time>2026-03-31T13:43:54Z</time></trkpt><trkpt lat="45.68114060880941" lon="9.27603738980746"><ele>268.5</ele><time>2026-03-31T13:43:55Z</time></trkpt><trkpt lat="45.68107207037902" lon="9.275985738395631"><ele>268.3333333333333</ele><time>2026-03-31T13:43:56Z</time></trkpt><trkpt lat="45.68101752691801" lon="9.275926317263787"><ele>268.16666666666663</ele><time>2026-03-31T13:43:57Z</time></trkpt><trkpt lat="45.68095373028334" lon="9.275864753426935"><ele>268.0</ele><time>2026-03-31T13:43:58Z</time></trkpt><trkpt lat="45.68089073822114" lon="9.275814049322973"><ele>268.0</ele><time>2026-03-31T13:43:59Z</time></trkpt><trkpt lat="45.680821649501176" lon="9.275746609781018"><ele>268.0</ele><time>2026-03-31T13:44:01Z</time></trkpt><trkpt lat="45.680773001135535" lon="9.275688278023726"><ele>268.0</ele><time>2026-03-31T13:44:03Z</time></trkpt><trkpt lat="45.68073284991261" lon="9.275606932648545"><ele>268.0</ele><time>2026-03-31T13:44:05Z</time></trkpt><trkpt lat="45.68065792437239" lon="9.275551083204416"><ele>268.0</ele><time>2026-03-31T13:44:07Z</time></trkpt><trkpt lat="45.68059451501267" lon="9.275459131395381"><ele>268.0</ele><time>2026-03-31T13:44:09Z</time></trkpt><trkpt lat="45.68052765126938" lon="9.27540905946414"><ele>267.8333333333333</ele><time>2026-03-31T13:44:12Z</time></trkpt><trkpt lat="45.680464947715045" lon="9.275457643528782"><ele>267.66666666666663</ele><time>2026-03-31T13:44:14Z</time></trkpt><trkpt lat="45.680388140591766" lon="9.275381855505168"><ele>267.5</ele><time>2026-03-31T13:44:16Z</time></trkpt><trkpt lat="45.68031937246602" lon="9.275313256264562"><ele>267.3333333333333</ele><time>2026-03-31T13:44:17Z</time></trkpt><trkpt lat="45.68025270372924" lon="9.275257173691905"><ele>267.1666666666667</ele><time>2026-03-31T13:44:18Z</time></trkpt><trkpt lat="45.6801928043429" lon="9.275181400787147"><ele>267.0</ele><time>2026-03-31T13:44:19Z</time></trkpt><trkpt lat="45.68015137387453" lon="9.275088580284187"><ele>267.0</ele><time>2026-03-31T13:44:20Z</time></trkpt><trkpt lat="45.680100242448574" lon="9.274986906766706"><ele>267.0</ele><time>2026-03-31T13:44:21Z</time></trkpt><trkpt lat="45.680057075823925" lon="9.274916830311646"><ele>267.0</ele><time>2026-03-31T13:44:22Z</time></trkpt><trkpt lat="45.6800036316128" lon="9.274860904542024"><ele>267.0</ele><time>2026-03-31T13:44:23Z</time></trkpt><trkpt lat="45.6799361056018" lon="9.274767730697759"><ele>267.0</ele><time>2026-03-31T13:44:25Z</time></trkpt><trkpt lat="45.67988078517165" lon="9.274688437349571"><ele>267.0</ele><time>2026-03-31T13:44:27Z</time></trkpt><trkpt lat="45.679832475743936" lon="9.274609569379034"><ele>265.8333333333333</ele><time>2026-03-31T13:44:30Z</time></trkpt><trkpt lat="45.67978276998262" lon="9.27449530158787"><ele>264.6666666666667</ele><time>2026-03-31T13:44:32Z</time></trkpt><trkpt lat="45.67976516817401" lon="9.274398965003174"><ele>263.5</ele><time>2026-03-31T13:44:33Z</time></trkpt><trkpt lat="45.67975561413248" lon="9.274300887535187"><ele>262.33333333333337</ele><time>2026-03-31T13:44:34Z</time></trkpt><trkpt lat="45.67975974634993" lon="9.274200969907344"><ele>261.1666666666667</ele><time>2026-03-31T13:44:35Z</time></trkpt><trkpt lat="45.67977885173395" lon="9.274070083999225"><ele>260.0</ele><time>2026-03-31T13:44:36Z</time></trkpt><trkpt lat="45.67981190732968" lon="9.273899632181577"><ele>260.0</ele><time>2026-03-31T13:44:37Z</time></trkpt><trkpt lat="45.67982901938505" lon="9.273756842505188"><ele>260.0</ele><time>2026-03-31T13:44:38Z</time></trkpt><trkpt lat="45.67985083700504" lon="9.273586416918121"><ele>260.0</ele><time>2026-03-31T13:44:39Z</time></trkpt><trkpt lat="45.67988388992651" lon="9.273389187735926"><ele>260.0</ele><time>2026-03-31T13:44:40Z</time></trkpt><trkpt lat="45.67991324127577" lon="9.273204417622885"><ele>260.25</ele><time>2026-03-31T13:44:41Z</time></trkpt><trkpt lat="45.679943336410126" lon="9.273038609589882"><ele>260.5</ele><time>2026-03-31T13:44:42Z</time></trkpt><trkpt lat="45.679971831815514" lon="9.272874681497504"><ele>260.75</ele><time>2026-03-31T13:44:43Z</time></trkpt><trkpt lat="45.67999820964709" lon="9.272707521648565"><ele>261.0</ele><time>2026-03-31T13:44:44Z</time></trkpt><trkpt lat="45.680011365053126" lon="9.2725703146528"><ele>261.0</ele><time>2026-03-31T13:44:45Z</time></trkpt><trkpt lat="45.680026433844425" lon="9.272463703068876"><ele>261.0</ele><time>2026-03-31T13:44:46Z</time></trkpt><trkpt lat="45.68003781871257" lon="9.272324731740914"><ele>261.0</ele><time>2026-03-31T13:44:48Z</time></trkpt><trkpt lat="45.680068167501595" lon="9.272120025403717"><ele>261.0</ele><time>2026-03-31T13:44:50Z</time></trkpt><trkpt lat="45.68009621344507" lon="9.271945699063679"><ele>261.0</ele><time>2026-03-31T13:44:51Z</time></trkpt><trkpt lat="45.68012486231275" lon="9.271766637779173"><ele>261.0</ele><time>2026-03-31T13:44:52Z</time></trkpt><trkpt lat="45.68014877108559" lon="9.271644814874094"><ele>261.0</ele><time>2026-03-31T13:44:53Z</time></trkpt><trkpt lat="45.68016018849033" lon="9.271550983991983"><ele>261.0</ele><time>2026-03-31T13:44:54Z</time></trkpt><trkpt lat="45.68014801771271" lon="9.271387387248044"><ele>261.0</ele><time>2026-03-31T13:44:56Z</time></trkpt><trkpt lat="45.68010760138042" lon="9.27130447255429"><ele>261.0</ele><time>2026-03-31T13:44:57Z</time></trkpt><trkpt lat="45.68004834863761" lon="9.271221022653199"><ele>261.0</ele><time>2026-03-31T13:44:58Z</time></trkpt><trkpt lat="45.67998548314099" lon="9.271152030906253"><ele>260.0</ele><time>2026-03-31T13:44:59Z</time></trkpt><trkpt lat="45.67994683928669" lon="9.271073053365383"><ele>259.0</ele><time>2026-03-31T13:45:00Z</time></trkpt><trkpt lat="45.67984769704456" lon="9.270957915778318"><ele>258.0</ele><time>2026-03-31T13:45:02Z</time></trkpt><trkpt lat="45.67977013221886" lon="9.270873872607762"><ele>257.0</ele><time>2026-03-31T13:45:04Z</time></trkpt><trkpt lat="45.679718829468946" lon="9.270818226811445"><ele>256.0</ele><time>2026-03-31T13:45:06Z</time></trkpt><trkpt lat="45.67964647934993" lon="9.270741698223578"><ele>255.0</ele><time>2026-03-31T13:45:10Z</time></trkpt><trkpt lat="45.67952359857251" lon="9.270896352569359"><ele>255.16666666666666</ele><time>2026-03-31T13:45:11Z</time></trkpt><trkpt lat="45.679426455693644" lon="9.270865737415136"><ele>255.33333333333331</ele><time>2026-03-31T13:45:12Z</time></trkpt><trkpt lat="45.67934057734951" lon="9.2708358463561"><ele>255.5</ele><time>2026-03-31T13:45:13Z</time></trkpt><trkpt lat="45.67926275664801" lon="9.27081076521599"><ele>255.66666666666666</ele><time>2026-03-31T13:45:14Z</time></trkpt><trkpt lat="45.679184542577964" lon="9.270784368336866"><ele>255.83333333333331</ele><time>2026-03-31T13:45:15Z</time></trkpt><trkpt lat="45.67911414592747" lon="9.270761163867896"><ele>256.0</ele><time>2026-03-31T13:45:16Z</time></trkpt><trkpt lat="45.67898983094526" lon="9.270736102682424"><ele>256.0</ele><time>2026-03-31T13:45:18Z</time></trkpt><trkpt lat="45.6789054493143" lon="9.27074049446392"><ele>256.0</ele><time>2026-03-31T13:45:18.999Z</time></trkpt><trkpt lat="45.678799970089514" lon="9.270793636070826"><ele>256.0</ele><time>2026-03-31T13:45:19.999Z</time></trkpt><trkpt lat="45.678687807505085" lon="9.270887856479185"><ele>256.0</ele><time>2026-03-31T13:45:20.999Z</time></trkpt><trkpt lat="45.67859995663992" lon="9.270989222412004"><ele>256.0</ele><time>2026-03-31T13:45:22Z</time></trkpt><trkpt lat="45.67852446488091" lon="9.271095660101194"><ele>255.4</ele><time>2026-03-31T13:45:23Z</time></trkpt><trkpt lat="45.6784461596301" lon="9.271175955316506"><ele>254.8</ele><time>2026-03-31T13:45:24Z</time></trkpt><trkpt lat="45.67837083896878" lon="9.271264457082697"><ele>254.20000000000002</ele><time>2026-03-31T13:45:25Z</time></trkpt><trkpt lat="45.67830146928112" lon="9.271355276261112"><ele>253.60000000000002</ele><time>2026-03-31T13:45:26Z</time></trkpt><trkpt lat="45.67822810203056" lon="9.271439012585276"><ele>253.0</ele><time>2026-03-31T13:45:27Z</time></trkpt><trkpt lat="45.67814748040679" lon="9.271524329479105"><ele>253.0</ele><time>2026-03-31T13:45:28Z</time></trkpt><trkpt lat="45.678068292837565" lon="9.271616348673483"><ele>253.0</ele><time>2026-03-31T13:45:29Z</time></trkpt><trkpt lat="45.67799133250082" lon="9.2717131265134"><ele>253.0</ele><time>2026-03-31T13:45:30Z</time></trkpt><trkpt lat="45.677907722213085" lon="9.271814778254804"><ele>253.0</ele><time>2026-03-31T13:45:31Z</time></trkpt><trkpt lat="45.67782836963533" lon="9.271907163944046"><ele>253.0</ele><time>2026-03-31T13:45:32Z</time></trkpt><trkpt lat="45.677740030687794" lon="9.272008500964711"><ele>253.5</ele><time>2026-03-31T13:45:33Z</time></trkpt><trkpt lat="45.67764525747244" lon="9.272119521336819"><ele>254.0</ele><time>2026-03-31T13:45:34Z</time></trkpt><trkpt lat="45.6775527064487" lon="9.272231323013257"><ele>254.5</ele><time>2026-03-31T13:45:35Z</time></trkpt><trkpt lat="45.677453741868995" lon="9.272341782786857"><ele>255.0</ele><time>2026-03-31T13:45:36Z</time></trkpt><trkpt lat="45.677367285878816" lon="9.272443590241274"><ele>257.0</ele><time>2026-03-31T13:45:37Z</time></trkpt><trkpt lat="45.67728076357809" lon="9.272540495109292"><ele>259.0</ele><time>2026-03-31T13:45:38Z</time></trkpt><trkpt lat="45.67719391226954" lon="9.272644593012403"><ele>261.0</ele><time>2026-03-31T13:45:39Z</time></trkpt><trkpt lat="45.67710340833545" lon="9.272756836441188"><ele>263.0</ele><time>2026-03-31T13:45:40Z</time></trkpt><trkpt lat="45.67703373531692" lon="9.272850705632964"><ele>265.0</ele><time>2026-03-31T13:45:41Z</time></trkpt><trkpt lat="45.67694054195927" lon="9.272934938992137"><ele>266.5</ele><time>2026-03-31T13:45:42Z</time></trkpt><trkpt lat="45.6768464926231" lon="9.273046575081192"><ele>268.0</ele><time>2026-03-31T13:45:43Z</time></trkpt><trkpt lat="45.67675193529588" lon="9.27316288085864"><ele>269.5</ele><time>2026-03-31T13:45:44Z</time></trkpt><trkpt lat="45.67665653491203" lon="9.273284903646934"><ele>271.0</ele><time>2026-03-31T13:45:45Z</time></trkpt><trkpt lat="45.676557576508884" lon="9.27339746740231"><ele>271.0</ele><time>2026-03-31T13:45:46Z</time></trkpt><trkpt lat="45.67647359012947" lon="9.273502946666984"><ele>271.0</ele><time>2026-03-31T13:45:47Z</time></trkpt><trkpt lat="45.67638982482621" lon="9.273602562284227"><ele>271.0</ele><time>2026-03-31T13:45:48Z</time></trkpt><trkpt lat="45.67630040295935" lon="9.27369929296443"><ele>271.0</ele><time>2026-03-31T13:45:49Z</time></trkpt><trkpt lat="45.6762175351816" lon="9.273785605170177"><ele>271.0</ele><time>2026-03-31T13:45:50Z</time></trkpt><trkpt lat="45.676124457356416" lon="9.27385583491978"><ele>270.5</ele><time>2026-03-31T13:45:51Z</time></trkpt><trkpt lat="45.676009557800384" lon="9.273923097471922"><ele>270.0</ele><time>2026-03-31T13:45:52Z</time></trkpt><trkpt lat="45.675889689660174" lon="9.27398175735202"><ele>269.5</ele><time>2026-03-31T13:45:53Z</time></trkpt><trkpt lat="45.67577195206271" lon="9.273997619549357"><ele>269.0</ele><time>2026-03-31T13:45:54Z</time></trkpt><trkpt lat="45.67566564925084" lon="9.274023966374614"><ele>268.59999999999997</ele><time>2026-03-31T13:45:55Z</time></trkpt><trkpt lat="45.675563547202984" lon="9.274068025649733"><ele>268.2</ele><time>2026-03-31T13:45:56Z</time></trkpt><trkpt lat="45.67544376127788" lon="9.274070873793308"><ele>267.79999999999995</ele><time>2026-03-31T13:45:57Z</time></trkpt><trkpt lat="45.67534342577764" lon="9.274088896488935"><ele>267.4</ele><time>2026-03-31T13:45:58Z</time></trkpt><trkpt lat="45.67524186297487" lon="9.274107115981696"><ele>267.0</ele><time>2026-03-31T13:45:59Z</time></trkpt><trkpt lat="45.67511680621155" lon="9.274129455620743"><ele>265.6</ele><time>2026-03-31T13:46:00Z</time></trkpt><trkpt lat="45.67500611684752" lon="9.274170433265093"><ele>264.2</ele><time>2026-03-31T13:46:01Z</time></trkpt><trkpt lat="45.674900678374506" lon="9.274167304211018"><ele>262.8</ele><time>2026-03-31T13:46:02Z</time></trkpt><trkpt lat="45.67479501389323" lon="9.274185002144769"><ele>261.4</ele><time>2026-03-31T13:46:03Z</time></trkpt><trkpt lat="45.67472199506462" lon="9.274209110527893"><ele>260.0</ele><time>2026-03-31T13:46:04Z</time></trkpt><trkpt lat="45.674630537318095" lon="9.27422603097581"><ele>260.0</ele><time>2026-03-31T13:46:05Z</time></trkpt><trkpt lat="45.674526634078184" lon="9.274245245530457"><ele>260.0</ele><time>2026-03-31T13:46:06Z</time></trkpt><trkpt lat="45.674421120135484" lon="9.274263686145305"><ele>260.0</ele><time>2026-03-31T13:46:07Z</time></trkpt><trkpt lat="45.67433014762278" lon="9.27427576934157"><ele>260.0</ele><time>2026-03-31T13:46:08Z</time></trkpt><trkpt lat="45.674264232984385" lon="9.274290476779582"><ele>260.0</ele><time>2026-03-31T13:46:09Z</time></trkpt><trkpt lat="45.6741859955747" lon="9.27433020189771"><ele>261.0</ele><time>2026-03-31T13:46:11Z</time></trkpt><trkpt lat="45.67411146487649" lon="9.274339599792633"><ele>262.0</ele><time>2026-03-31T13:46:13Z</time></trkpt><trkpt lat="45.674025920957135" lon="9.27438026710516"><ele>263.0</ele><time>2026-03-31T13:46:15Z</time></trkpt><trkpt lat="45.673954563184004" lon="9.274223930884842"><ele>264.0</ele><time>2026-03-31T13:46:17Z</time></trkpt><trkpt lat="45.673919363756724" lon="9.274137361395772"><ele>265.0</ele><time>2026-03-31T13:48:37Z</time></trkpt><trkpt lat="45.674031160049395" lon="9.27415150984227"><ele>265.0</ele><time>2026-03-31T13:48:50Z</time></trkpt><trkpt lat="45.6740723632371" lon="9.274222162806316"><ele>265.0</ele><time>2026-03-31T13:48:52Z</time></trkpt><trkpt lat="45.67414172375418" lon="9.274313683180255"><ele>265.0</ele><time>2026-03-31T13:48:54Z</time></trkpt><trkpt lat="45.67421031444223" lon="9.274427197070741"><ele>265.0</ele><time>2026-03-31T13:48:56Z</time></trkpt><trkpt lat="45.67420549974582" lon="9.274606533346837"><ele>265.0</ele><time>2026-03-31T13:48:59Z</time></trkpt><trkpt lat="45.67420954033695" lon="9.274740632618254"><ele>265.0</ele><time>2026-03-31T13:49:00Z</time></trkpt><trkpt lat="45.6742005530474" lon="9.27483653602336"><ele>265.0</ele><time>2026-03-31T13:49:01Z</time></trkpt><trkpt lat="45.674122377387526" lon="9.274930750954422"><ele>265.0</ele><time>2026-03-31T13:49:03Z</time></trkpt><trkpt lat="45.67397566169269" lon="9.274834315814829"><ele>265.0</ele><time>2026-03-31T13:49:05Z</time></trkpt><trkpt lat="45.67388194289986" lon="9.274798904588275"><ele>265.0</ele><time>2026-03-31T13:49:06Z</time></trkpt><trkpt lat="45.67376841835071" lon="9.27473934294356"><ele>265.0</ele><time>2026-03-31T13:49:07Z</time></trkpt><trkpt lat="45.67365982353385" lon="9.274682793814959"><ele>265.0</ele><time>2026-03-31T13:49:08Z</time></trkpt><trkpt lat="45.67355956862092" lon="9.274621152108349"><ele>265.0</ele><time>2026-03-31T13:49:09Z</time></trkpt><trkpt lat="45.673485664340234" lon="9.274548156118055"><ele>265.0</ele><time>2026-03-31T13:49:10Z</time></trkpt><trkpt lat="45.673439801864006" lon="9.274442632415074"><ele>265.0</ele><time>2026-03-31T13:49:11Z</time></trkpt><trkpt lat="45.67338736208008" lon="9.27438203856879"><ele>266.75</ele><time>2026-03-31T13:49:12Z</time></trkpt><trkpt lat="45.67331100651224" lon="9.274221390309782"><ele>268.5</ele><time>2026-03-31T13:49:14Z</time></trkpt><trkpt lat="45.67323784583671" lon="9.274122168390047"><ele>270.25</ele><time>2026-03-31T13:49:16Z</time></trkpt><trkpt lat="45.6731613393153" lon="9.274139621715035"><ele>272.0</ele><time>2026-03-31T13:49:18Z</time></trkpt><trkpt lat="45.67309850535198" lon="9.274334286044699"><ele>272.0</ele><time>2026-03-31T13:49:20Z</time></trkpt><trkpt lat="45.67308160456908" lon="9.27445862896608"><ele>272.0</ele><time>2026-03-31T13:49:21Z</time></trkpt><trkpt lat="45.67306820719039" lon="9.274589645775555"><ele>272.0</ele><time>2026-03-31T13:49:22Z</time></trkpt><trkpt lat="45.673051542639136" lon="9.274755133902588"><ele>272.0</ele><time>2026-03-31T13:49:23Z</time></trkpt><trkpt lat="45.673042046362845" lon="9.274885780335191"><ele>272.0</ele><time>2026-03-31T13:49:24Z</time></trkpt><trkpt lat="45.6730220158596" lon="9.275039156424786"><ele>272.0</ele><time>2026-03-31T13:49:25Z</time></trkpt><trkpt lat="45.67301364459783" lon="9.275170328205654"><ele>272.0</ele><time>2026-03-31T13:49:26Z</time></trkpt><trkpt lat="45.672994804126326" lon="9.27534594170428"><ele>272.0</ele><time>2026-03-31T13:49:27Z</time></trkpt><trkpt lat="45.672974251198156" lon="9.275542632909827"><ele>272.0</ele><time>2026-03-31T13:49:28Z</time></trkpt><trkpt lat="45.67295111530186" lon="9.27572462166472"><ele>272.0</ele><time>2026-03-31T13:49:29Z</time></trkpt><trkpt lat="45.672951643048656" lon="9.275877481035355"><ele>272.0</ele><time>2026-03-31T13:49:30Z</time></trkpt><trkpt lat="45.67293459596745" lon="9.27600536275268"><ele>272.0</ele><time>2026-03-31T13:49:31Z</time></trkpt><trkpt lat="45.6729310779966" lon="9.27615754224767"><ele>272.0</ele><time>2026-03-31T13:49:33Z</time></trkpt><trkpt lat="45.672914549435085" lon="9.27624855116126"><ele>272.0</ele><time>2026-03-31T13:49:34Z</time></trkpt><trkpt lat="45.672907620118075" lon="9.276346238778375"><ele>272.0</ele><time>2026-03-31T13:49:35Z</time></trkpt><trkpt lat="45.67286592517588" lon="9.276814474703652"><ele>271.83333333333337</ele><time>2026-03-31T13:49:36Z</time></trkpt><trkpt lat="45.672854792974874" lon="9.27694665193982"><ele>271.6666666666667</ele><time>2026-03-31T13:49:37Z</time></trkpt><trkpt lat="45.67283406200597" lon="9.277081177723693"><ele>271.5</ele><time>2026-03-31T13:49:38Z</time></trkpt><trkpt lat="45.6728233055625" lon="9.27720941341237"><ele>271.3333333333333</ele><time>2026-03-31T13:49:39Z</time></trkpt><trkpt lat="45.672813885170015" lon="9.277319003178988"><ele>271.16666666666663</ele><time>2026-03-31T13:49:40Z</time></trkpt><trkpt lat="45.67280633507998" lon="9.277419461496535"><ele>271.0</ele><time>2026-03-31T13:49:41Z</time></trkpt><trkpt lat="45.67279149509293" lon="9.277558361523521"><ele>271.6</ele><time>2026-03-31T13:49:43Z</time></trkpt><trkpt lat="45.67276491451932" lon="9.277674884453832"><ele>272.20000000000005</ele><time>2026-03-31T13:49:46Z</time></trkpt><trkpt lat="45.67276945268125" lon="9.27779371778289"><ele>272.79999999999995</ele><time>2026-03-31T13:49:49Z</time></trkpt><trkpt lat="45.672615494833884" lon="9.277747964808704"><ele>273.4</ele><time>2026-03-31T13:50:28Z</time></trkpt><trkpt lat="45.67254046617861" lon="9.277650525316268"><ele>274.0</ele><time>2026-03-31T13:50:29Z</time></trkpt><trkpt lat="45.67246289726066" lon="9.277559760279537"><ele>274.0</ele><time>2026-03-31T13:50:30Z</time></trkpt><trkpt lat="45.67237524943339" lon="9.27747639687691"><ele>274.0</ele><time>2026-03-31T13:50:31Z</time></trkpt><trkpt lat="45.672291870988396" lon="9.27739528384655"><ele>274.0</ele><time>2026-03-31T13:50:32Z</time></trkpt><trkpt lat="45.672225688771285" lon="9.277330492268343"><ele>274.0</ele><time>2026-03-31T13:50:33Z</time></trkpt><trkpt lat="45.672161721869394" lon="9.277268244123348"><ele>274.0</ele><time>2026-03-31T13:50:34Z</time></trkpt><trkpt lat="45.6720774058939" lon="9.277190487754362"><ele>274.0</ele><time>2026-03-31T13:50:36Z</time></trkpt><trkpt lat="45.6719703081305" lon="9.27739523580468"><ele>274.0</ele><time>2026-03-31T13:50:39Z</time></trkpt><trkpt lat="45.67190605085873" lon="9.277490034249565"><ele>274.0</ele><time>2026-03-31T13:50:41Z</time></trkpt><trkpt lat="45.67187700783724" lon="9.277605985695155"><ele>274.0</ele><time>2026-03-31T13:50:43Z</time></trkpt><trkpt lat="45.671843300330394" lon="9.277698464943017"><ele>274.0</ele><time>2026-03-31T13:50:45Z</time></trkpt><trkpt lat="45.67180708764101" lon="9.277798573971781"><ele>274.5</ele><time>2026-03-31T13:50:47Z</time></trkpt><trkpt lat="45.671755544309335" lon="9.277968257095727"><ele>275.0</ele><time>2026-03-31T13:50:49Z</time></trkpt><trkpt lat="45.67170512559942" lon="9.278120057137386"><ele>275.5</ele><time>2026-03-31T13:50:51Z</time></trkpt><trkpt lat="45.671651038654815" lon="9.278263062852297"><ele>276.0</ele><time>2026-03-31T13:50:53Z</time></trkpt><trkpt lat="45.67159868926482" lon="9.27839118710883"><ele>277.1666666666667</ele><time>2026-03-31T13:50:55Z</time></trkpt><trkpt lat="45.67156096782475" lon="9.278476605495324"><ele>278.3333333333333</ele><time>2026-03-31T13:50:56Z</time></trkpt><trkpt lat="45.671512529771476" lon="9.27860552441603"><ele>279.5</ele><time>2026-03-31T13:50:58Z</time></trkpt><trkpt lat="45.671479890639645" lon="9.278711934637776"><ele>280.66666666666663</ele><time>2026-03-31T13:51:00Z</time></trkpt><trkpt lat="45.671440166709694" lon="9.27878633201978"><ele>281.8333333333333</ele><time>2026-03-31T13:51:02Z</time></trkpt><trkpt lat="45.671432888573804" lon="9.278881749782299"><ele>283.0</ele><time>2026-03-31T13:51:06Z</time></trkpt><trkpt lat="45.6714186323186" lon="9.27896970552249"><ele>283.0</ele><time>2026-03-31T13:51:10Z</time></trkpt><trkpt lat="45.671450856489805" lon="9.278853960504485"><ele>283.0</ele><time>2026-03-31T13:51:16Z</time></trkpt><trkpt lat="45.67148049806817" lon="9.278702509624253"><ele>283.0</ele><time>2026-03-31T13:51:18Z</time></trkpt><trkpt lat="45.671517860668615" lon="9.278564013857284"><ele>283.0</ele><time>2026-03-31T13:51:20Z</time></trkpt><trkpt lat="45.671564218609724" lon="9.278442387309273"><ele>283.0</ele><time>2026-03-31T13:51:22Z</time></trkpt><trkpt lat="45.67162470955921" lon="9.27830816189462"><ele>283.0</ele><time>2026-03-31T13:51:24Z</time></trkpt><trkpt lat="45.67166461391124" lon="9.278206443538268"><ele>283.0</ele><time>2026-03-31T13:51:25Z</time></trkpt><trkpt lat="45.67170751623497" lon="9.278094583233514"><ele>283.0</ele><time>2026-03-31T13:51:26Z</time></trkpt><trkpt lat="45.67175170285774" lon="9.277996718810423"><ele>283.0</ele><time>2026-03-31T13:51:27Z</time></trkpt><trkpt lat="45.67178633133815" lon="9.277907252866214"><ele>283.0</ele><time>2026-03-31T13:51:28Z</time></trkpt><trkpt lat="45.6718195496949" lon="9.27777787494263"><ele>283.0</ele><time>2026-03-31T13:51:30Z</time></trkpt><trkpt lat="45.671831634805415" lon="9.277663658720876"><ele>281.8333333333333</ele><time>2026-03-31T13:51:32Z</time></trkpt><trkpt lat="45.671859763864624" lon="9.27756067658476"><ele>280.66666666666663</ele><time>2026-03-31T13:51:34Z</time></trkpt><trkpt lat="45.67194465347142" lon="9.277453497251791"><ele>279.5</ele><time>2026-03-31T13:51:36Z</time></trkpt><trkpt lat="45.671995364948735" lon="9.277398874197"><ele>278.3333333333333</ele><time>2026-03-31T13:51:37Z</time></trkpt><trkpt lat="45.67206020121623" lon="9.277305401500126"><ele>277.1666666666667</ele><time>2026-03-31T13:51:39Z</time></trkpt><trkpt lat="45.67207934693601" lon="9.277181716857479"><ele>276.0</ele><time>2026-03-31T13:51:43Z</time></trkpt><trkpt lat="45.67201006890651" lon="9.2771001997419"><ele>274.0</ele><time>2026-03-31T13:51:44Z</time></trkpt><trkpt lat="45.671924627341184" lon="9.277036513292332"><ele>272.0</ele><time>2026-03-31T13:51:45Z</time></trkpt><trkpt lat="45.67183497178906" lon="9.276947319566098"><ele>270.0</ele><time>2026-03-31T13:51:46Z</time></trkpt><trkpt lat="45.67172539451223" lon="9.276839113715374"><ele>268.0</ele><time>2026-03-31T13:51:47Z</time></trkpt><trkpt lat="45.671623719825504" lon="9.276751627284895"><ele>268.0</ele><time>2026-03-31T13:51:48Z</time></trkpt><trkpt lat="45.671534645790366" lon="9.276674231682453"><ele>268.0</ele><time>2026-03-31T13:51:49Z</time></trkpt><trkpt lat="45.671455512360296" lon="9.276608554220477"><ele>268.0</ele><time>2026-03-31T13:51:50Z</time></trkpt><trkpt lat="45.67138178527069" lon="9.276548692867012"><ele>268.0</ele><time>2026-03-31T13:51:51Z</time></trkpt><trkpt lat="45.67130393645607" lon="9.276487694813136"><ele>268.0</ele><time>2026-03-31T13:51:52Z</time></trkpt><trkpt lat="45.671214062650485" lon="9.27642047906561"><ele>267.8</ele><time>2026-03-31T13:51:53Z</time></trkpt><trkpt lat="45.67114479334298" lon="9.276370756686338"><ele>267.6</ele><time>2026-03-31T13:51:54Z</time></trkpt><trkpt lat="45.67104885678282" lon="9.276306944526953"><ele>267.4</ele><time>2026-03-31T13:51:56Z</time></trkpt><trkpt lat="45.67097721770031" lon="9.276237962208386"><ele>267.2</ele><time>2026-03-31T13:51:58Z</time></trkpt><trkpt lat="45.67086130489605" lon="9.276421823058838"><ele>267.0</ele><time>2026-03-31T13:51:59Z</time></trkpt><trkpt lat="45.670784339047366" lon="9.27644418216149"><ele>267.0</ele><time>2026-03-31T13:52:00Z</time></trkpt><trkpt lat="45.670702108212986" lon="9.276458216110044"><ele>267.0</ele><time>2026-03-31T13:52:01Z</time></trkpt><trkpt lat="45.6706307901501" lon="9.276475165424854"><ele>267.0</ele><time>2026-03-31T13:52:02Z</time></trkpt><trkpt lat="45.670491417487675" lon="9.276456053601763"><ele>267.0</ele><time>2026-03-31T13:52:04Z</time></trkpt><trkpt lat="45.670401777631625" lon="9.27642215729881"><ele>267.0</ele><time>2026-03-31T13:52:05Z</time></trkpt><trkpt lat="45.67031367143932" lon="9.276392225533948"><ele>267.5</ele><time>2026-03-31T13:52:06Z</time></trkpt><trkpt lat="45.670239771596904" lon="9.276381783429002"><ele>268.0</ele><time>2026-03-31T13:52:07Z</time></trkpt><trkpt lat="45.67017004360227" lon="9.276360322171628"><ele>268.5</ele><time>2026-03-31T13:52:08Z</time></trkpt><trkpt lat="45.67009145403722" lon="9.276342977448582"><ele>269.0</ele><time>2026-03-31T13:52:09Z</time></trkpt><trkpt lat="45.67002428735398" lon="9.276323812524517"><ele>269.5</ele><time>2026-03-31T13:52:10Z</time></trkpt><trkpt lat="45.66992566413905" lon="9.276292448935328"><ele>270.0</ele><time>2026-03-31T13:52:12Z</time></trkpt><trkpt lat="45.669844154133465" lon="9.276271418043216"><ele>270.0</ele><time>2026-03-31T13:52:13Z</time></trkpt><trkpt lat="45.669780585181186" lon="9.276257443924903"><ele>270.0</ele><time>2026-03-31T13:52:14Z</time></trkpt><trkpt lat="45.669685353230626" lon="9.276212974701375"><ele>270.0</ele><time>2026-03-31T13:52:17Z</time></trkpt><trkpt lat="45.669588836300186" lon="9.276175898135477"><ele>270.0</ele><time>2026-03-31T13:52:20Z</time></trkpt><trkpt lat="45.669524281191705" lon="9.276155743635695"><ele>270.0</ele><time>2026-03-31T13:52:24Z</time></trkpt><trkpt lat="45.66943704397666" lon="9.276145015687547"><ele>270.0</ele><time>2026-03-31T13:52:27Z</time></trkpt><trkpt lat="45.66936920622653" lon="9.276173775535932"><ele>270.1666666666667</ele><time>2026-03-31T13:52:28Z</time></trkpt><trkpt lat="45.66929783449472" lon="9.276211309930138"><ele>270.3333333333333</ele><time>2026-03-31T13:52:29Z</time></trkpt><trkpt lat="45.66919862988205" lon="9.276266533138223"><ele>270.5</ele><time>2026-03-31T13:52:30Z</time></trkpt><trkpt lat="45.66913615939795" lon="9.276300898234135"><ele>270.66666666666663</ele><time>2026-03-31T13:52:31Z</time></trkpt><trkpt lat="45.66906583061569" lon="9.276338821979182"><ele>270.8333333333333</ele><time>2026-03-31T13:52:32Z</time></trkpt><trkpt lat="45.668997788483004" lon="9.27637551262291"><ele>271.0</ele><time>2026-03-31T13:52:33Z</time></trkpt><trkpt lat="45.66888392934671" lon="9.276437166231185"><ele>271.0</ele><time>2026-03-31T13:52:35Z</time></trkpt><trkpt lat="45.66882623384507" lon="9.276473774364332"><ele>271.0</ele><time>2026-03-31T13:52:37Z</time></trkpt><trkpt lat="45.66877971778948" lon="9.276360939546679"><ele>271.0</ele><time>2026-03-31T13:52:39Z</time></trkpt><trkpt lat="45.66879573445042" lon="9.27624364258316"><ele>271.0</ele><time>2026-03-31T13:52:40Z</time></trkpt><trkpt lat="45.66880320881899" lon="9.276151631988256"><ele>271.0</ele><time>2026-03-31T13:52:41Z</time></trkpt><trkpt lat="45.66879821365374" lon="9.276049269869716"><ele>271.0</ele><time>2026-03-31T13:52:42Z</time></trkpt><trkpt lat="45.66878844107024" lon="9.275941106036909"><ele>270.25</ele><time>2026-03-31T13:52:44Z</time></trkpt><trkpt lat="45.66859843096881" lon="9.275955537781426"><ele>269.5</ele><time>2026-03-31T13:52:47Z</time></trkpt><trkpt lat="45.6685037096713" lon="9.275989098704356"><ele>268.75</ele><time>2026-03-31T13:52:48Z</time></trkpt><trkpt lat="45.66840938419132" lon="9.276043167175727"><ele>268.0</ele><time>2026-03-31T13:52:49Z</time></trkpt><trkpt lat="45.66832337069173" lon="9.276107002364133"><ele>268.0</ele><time>2026-03-31T13:52:50Z</time></trkpt><trkpt lat="45.66824270298658" lon="9.276160595631591"><ele>268.0</ele><time>2026-03-31T13:52:51Z</time></trkpt><trkpt lat="45.66816427311116" lon="9.27620787686732"><ele>268.0</ele><time>2026-03-31T13:52:52Z</time></trkpt><trkpt lat="45.668066631059965" lon="9.276264624605611"><ele>268.0</ele><time>2026-03-31T13:52:53Z</time></trkpt><trkpt lat="45.667962902458555" lon="9.276351622023684"><ele>268.0</ele><time>2026-03-31T13:52:54Z</time></trkpt><trkpt lat="45.667899789362124" lon="9.276418106349533"><ele>267.6</ele><time>2026-03-31T13:52:55Z</time></trkpt><trkpt lat="45.66784104924317" lon="9.276523990778044"><ele>267.20000000000005</ele><time>2026-03-31T13:52:56Z</time></trkpt><trkpt lat="45.66780001623502" lon="9.276603964753013"><ele>266.8</ele><time>2026-03-31T13:52:57Z</time></trkpt><trkpt lat="45.667704545465405" lon="9.276744865325876"><ele>266.40000000000003</ele><time>2026-03-31T13:52:59Z</time></trkpt><trkpt lat="45.66763046986612" lon="9.27680847393505"><ele>266.0</ele><time>2026-03-31T13:53:00Z</time></trkpt><trkpt lat="45.667553243780915" lon="9.276875100529386"><ele>266.0</ele><time>2026-03-31T13:53:01Z</time></trkpt><trkpt lat="45.66748652134283" lon="9.276932694803744"><ele>266.0</ele><time>2026-03-31T13:53:02Z</time></trkpt><trkpt lat="45.66740572399308" lon="9.276998106182933"><ele>266.0</ele><time>2026-03-31T13:53:03Z</time></trkpt><trkpt lat="45.66734699297935" lon="9.277053381215014"><ele>266.0</ele><time>2026-03-31T13:53:04Z</time></trkpt><trkpt lat="45.6672581365425" lon="9.277146945229676"><ele>266.0</ele><time>2026-03-31T13:53:06Z</time></trkpt><trkpt lat="45.66719503453751" lon="9.27722496809112"><ele>266.0</ele><time>2026-03-31T13:53:08Z</time></trkpt><trkpt lat="45.667204597791695" lon="9.277337719955735"><ele>265.8</ele><time>2026-03-31T13:53:10Z</time></trkpt><trkpt lat="45.667131358373936" lon="9.277484659572602"><ele>265.6</ele><time>2026-03-31T13:53:13Z</time></trkpt><trkpt lat="45.66703206640273" lon="9.277469086178625"><ele>265.4</ele><time>2026-03-31T13:53:14Z</time></trkpt><trkpt lat="45.666950881290326" lon="9.277509262801894"><ele>265.2</ele><time>2026-03-31T13:53:15Z</time></trkpt><trkpt lat="45.666861336312216" lon="9.277552900212081"><ele>265.0</ele><time>2026-03-31T13:53:16Z</time></trkpt><trkpt lat="45.66675967154011" lon="9.277607149041907"><ele>265.0</ele><time>2026-03-31T13:53:17Z</time></trkpt><trkpt lat="45.66665511285855" lon="9.277657942237663"><ele>265.0</ele><time>2026-03-31T13:53:18Z</time></trkpt><trkpt lat="45.6665559005288" lon="9.277698499586549"><ele>265.0</ele><time>2026-03-31T13:53:19Z</time></trkpt><trkpt lat="45.66646687780932" lon="9.277743316015274"><ele>265.0</ele><time>2026-03-31T13:53:20Z</time></trkpt><trkpt lat="45.666389458988476" lon="9.277803564026621"><ele>265.0</ele><time>2026-03-31T13:53:21Z</time></trkpt><trkpt lat="45.66629617310338" lon="9.277868149143915"><ele>265.0</ele><time>2026-03-31T13:53:22Z</time></trkpt><trkpt lat="45.66620161650736" lon="9.277921728419056"><ele>265.0</ele><time>2026-03-31T13:53:23Z</time></trkpt><trkpt lat="45.66609662005422" lon="9.27797282338067"><ele>265.0</ele><time>2026-03-31T13:53:24Z</time></trkpt><trkpt lat="45.665999244490315" lon="9.277985187570254"><ele>265.0</ele><time>2026-03-31T13:53:25Z</time></trkpt><trkpt lat="45.66591214731683" lon="9.278019844925913"><ele>265.0</ele><time>2026-03-31T13:53:26Z</time></trkpt><trkpt lat="45.66583511348538" lon="9.278049848686718"><ele>264.5</ele><time>2026-03-31T13:53:27Z</time></trkpt><trkpt lat="45.66576002097031" lon="9.278088408230087"><ele>264.0</ele><time>2026-03-31T13:53:28Z</time></trkpt><trkpt lat="45.665662974110624" lon="9.278097545360037"><ele>263.5</ele><time>2026-03-31T13:53:29Z</time></trkpt><trkpt lat="45.66558835299379" lon="9.278127459563839"><ele>263.0</ele><time>2026-03-31T13:53:30Z</time></trkpt><trkpt lat="45.665505192052834" lon="9.278157603571453"><ele>262.5</ele><time>2026-03-31T13:53:31Z</time></trkpt><trkpt lat="45.66543373498053" lon="9.278184037222294"><ele>262.0</ele><time>2026-03-31T13:53:32Z</time></trkpt><trkpt lat="45.66532136626333" lon="9.27822172111095"><ele>261.6</ele><time>2026-03-31T13:53:34Z</time></trkpt><trkpt lat="45.66522506507621" lon="9.278257309619864"><ele>261.2</ele><time>2026-03-31T13:53:36Z</time></trkpt><trkpt lat="45.66515353145995" lon="9.278271173865893"><ele>260.8</ele><time>2026-03-31T13:53:38Z</time></trkpt><trkpt lat="45.66515995491168" lon="9.278549461601576"><ele>260.4</ele><time>2026-03-31T13:53:44Z</time></trkpt><trkpt lat="45.665176629326524" lon="9.278644101043742"><ele>260.0</ele><time>2026-03-31T13:53:46Z</time></trkpt><trkpt lat="45.665196275728015" lon="9.278784099070208"><ele>260.0</ele><time>2026-03-31T13:53:48Z</time></trkpt><trkpt lat="45.66522634894806" lon="9.278899539526025"><ele>260.0</ele><time>2026-03-31T13:53:52Z</time></trkpt><trkpt lat="45.665306480546604" lon="9.278910836820089"><ele>260.0</ele><time>2026-03-31T13:53:56Z</time></trkpt><trkpt lat="45.665394644381905" lon="9.278910033517512"><ele>260.0</ele><time>2026-03-31T13:54:00Z</time></trkpt><trkpt lat="45.66545320551259" lon="9.278945294496461"><ele>260.0</ele><time>2026-03-31T13:54:05Z</time></trkpt><trkpt lat="45.66540198986902" lon="9.279041066407792"><ele>260.0</ele><time>2026-03-31T13:54:17Z</time></trkpt><trkpt lat="45.66545672325556" lon="9.279090869588652"><ele>259.6666666666667</ele><time>2026-03-31T13:54:19Z</time></trkpt><trkpt lat="45.66540282040523" lon="9.279220459031686"><ele>259.33333333333337</ele><time>2026-03-31T13:54:24Z</time></trkpt><trkpt lat="45.66538240815777" lon="9.27930846523529"><ele>259.0</ele><time>2026-03-31T13:54:26Z</time></trkpt><trkpt lat="45.66537565803669" lon="9.27941291602327"><ele>258.6666666666667</ele><time>2026-03-31T13:54:31Z</time></trkpt><trkpt lat="45.66547539080745" lon="9.279392473173175"><ele>258.3333333333333</ele><time>2026-03-31T13:54:42Z</time></trkpt><trkpt lat="45.665544017659926" lon="9.279380093772927"><ele>258.0</ele><time>2026-03-31T13:54:44Z</time></trkpt><trkpt lat="45.665622914990685" lon="9.279329136255521"><ele>258.0</ele><time>2026-03-31T13:54:47Z</time></trkpt><trkpt lat="45.665692177719066" lon="9.27931828103441"><ele>258.0</ele><time>2026-03-31T13:54:52Z</time></trkpt><trkpt lat="45.665756545178176" lon="9.279337162832881"><ele>258.0</ele><time>2026-03-31T13:54:54Z</time></trkpt><trkpt lat="45.66583696153193" lon="9.279397371351854"><ele>258.0</ele><time>2026-03-31T13:55:19Z</time></trkpt><trkpt lat="45.66578724393567" lon="9.279512915084306"><ele>258.0</ele><time>2026-03-31T13:55:23.999Z</time></trkpt><trkpt lat="45.66574578076674" lon="9.279605219070971"><ele>258.0</ele><time>2026-03-31T13:55:34.999Z</time></trkpt><trkpt lat="45.66576571721931" lon="9.27969690784287"><ele>258.0</ele><time>2026-03-31T13:55:41.999Z</time></trkpt><trkpt lat="45.665813371330245" lon="9.279601695850054"><ele>258.0</ele><time>2026-03-31T14:10:44.001Z</time></trkpt><trkpt lat="45.66588181834668" lon="9.279522415200706"><ele>258.0</ele><time>2026-03-31T14:10:49.001Z</time></trkpt><trkpt lat="45.66584096450917" lon="9.279397000461834"><ele>258.0</ele><time>2026-03-31T14:10:52.001Z</time></trkpt><trkpt lat="45.665781747003045" lon="9.27928649743107"><ele>258.0</ele><time>2026-03-31T14:10:55.001Z</time></trkpt><trkpt lat="45.665743974903876" lon="9.279185643412001"><ele>258.0</ele><time>2026-03-31T14:10:58Z</time></trkpt><trkpt lat="45.66576452660914" lon="9.279082044617494"><ele>258.0</ele><time>2026-03-31T14:11:01Z</time></trkpt><trkpt lat="45.66569770176853" lon="9.279044952766053"><ele>258.0</ele><time>2026-03-31T14:11:04Z</time></trkpt><trkpt lat="45.66563288185794" lon="9.278975846209283"><ele>258.0</ele><time>2026-03-31T14:11:06Z</time></trkpt><trkpt lat="45.66554319892132" lon="9.278950314374994"><ele>258.0</ele><time>2026-03-31T14:11:08Z</time></trkpt><trkpt lat="45.66546432719799" lon="9.278997533860355"><ele>258.0</ele><time>2026-03-31T14:11:13Z</time></trkpt><trkpt lat="45.66537672895949" lon="9.278963405424399"><ele>258.0</ele><time>2026-03-31T14:11:16Z</time></trkpt><trkpt lat="45.66530098326607" lon="9.278945011230382"><ele>258.3333333333333</ele><time>2026-03-31T14:11:18Z</time></trkpt><trkpt lat="45.66524157613556" lon="9.278861322548602"><ele>258.6666666666667</ele><time>2026-03-31T14:11:21Z</time></trkpt><trkpt lat="45.66520488936619" lon="9.278763289377748"><ele>259.0</ele><time>2026-03-31T14:11:30Z</time></trkpt><trkpt lat="45.66519376317887" lon="9.278646573155193"><ele>259.33333333333337</ele><time>2026-03-31T14:11:32Z</time></trkpt><trkpt lat="45.66519283746984" lon="9.278511992123923"><ele>259.6666666666667</ele><time>2026-03-31T14:11:34Z</time></trkpt><trkpt lat="45.6651541833161" lon="9.278390790625963"><ele>260.0</ele><time>2026-03-31T14:11:36Z</time></trkpt><trkpt lat="45.66513366908161" lon="9.27823289981065"><ele>259.6</ele><time>2026-03-31T14:11:38Z</time></trkpt><trkpt lat="45.665101356612716" lon="9.27807976339247"><ele>259.2</ele><time>2026-03-31T14:11:40Z</time></trkpt><trkpt lat="45.66506318552279" lon="9.277912606934354"><ele>258.8</ele><time>2026-03-31T14:11:42Z</time></trkpt><trkpt lat="45.66504133802997" lon="9.27782132107643"><ele>258.4</ele><time>2026-03-31T14:11:43Z</time></trkpt><trkpt lat="45.66499396797967" lon="9.27766021798104"><ele>258.0</ele><time>2026-03-31T14:11:45Z</time></trkpt><trkpt lat="45.66497485823509" lon="9.277519689962178"><ele>258.0</ele><time>2026-03-31T14:11:47Z</time></trkpt><trkpt lat="45.664948271455756" lon="9.277399010956222"><ele>258.0</ele><time>2026-03-31T14:11:49Z</time></trkpt><trkpt lat="45.66490508549345" lon="9.27730352882062"><ele>258.0</ele><time>2026-03-31T14:11:51Z</time></trkpt><trkpt lat="45.66489146760348" lon="9.277201868115485"><ele>258.0</ele><time>2026-03-31T14:11:53Z</time></trkpt><trkpt lat="45.66485154653744" lon="9.277118066268894"><ele>258.0</ele><time>2026-03-31T14:11:55Z</time></trkpt><trkpt lat="45.66483649846883" lon="9.277029670875471"><ele>258.0</ele><time>2026-03-31T14:11:57Z</time></trkpt><trkpt lat="45.664789146528356" lon="9.276917230748957"><ele>257.6666666666667</ele><time>2026-03-31T14:12:00Z</time></trkpt><trkpt lat="45.664761577553556" lon="9.27681939792423"><ele>257.3333333333333</ele><time>2026-03-31T14:12:02Z</time></trkpt><trkpt lat="45.66473359344984" lon="9.276726093070456"><ele>257.0</ele><time>2026-03-31T14:12:04Z</time></trkpt><trkpt lat="45.66470523573091" lon="9.276625404176553"><ele>256.66666666666663</ele><time>2026-03-31T14:12:06Z</time></trkpt><trkpt lat="45.66467783583456" lon="9.276532322595582"><ele>256.3333333333333</ele><time>2026-03-31T14:12:07Z</time></trkpt><trkpt lat="45.66465380427017" lon="9.27644077838063"><ele>256.0</ele><time>2026-03-31T14:12:08Z</time></trkpt><trkpt lat="45.6645905619039" lon="9.276304550143877"><ele>256.0</ele><time>2026-03-31T14:12:10Z</time></trkpt><trkpt lat="45.66454632880782" lon="9.27620317922047"><ele>256.0</ele><time>2026-03-31T14:12:13Z</time></trkpt><trkpt lat="45.6645204241632" lon="9.27609756453422"><ele>256.0</ele><time>2026-03-31T14:12:15Z</time></trkpt><trkpt lat="45.66448225742885" lon="9.275999118403925"><ele>256.0</ele><time>2026-03-31T14:12:16Z</time></trkpt><trkpt lat="45.66445367480848" lon="9.275879379841726"><ele>256.0</ele><time>2026-03-31T14:12:17Z</time></trkpt><trkpt lat="45.66438179768285" lon="9.275719123587482"><ele>256.0</ele><time>2026-03-31T14:12:19Z</time></trkpt><trkpt lat="45.6643437090378" lon="9.27561360088921"><ele>256.0</ele><time>2026-03-31T14:12:20Z</time></trkpt><trkpt lat="45.6642998151321" lon="9.275503476631759"><ele>256.0</ele><time>2026-03-31T14:12:21Z</time></trkpt><trkpt lat="45.664248271822565" lon="9.275439345562209"><ele>256.0</ele><time>2026-03-31T14:12:22Z</time></trkpt><trkpt lat="45.6641642070018" lon="9.27540868287002"><ele>256.0</ele><time>2026-03-31T14:12:24Z</time></trkpt><trkpt lat="45.66403250236489" lon="9.27537589310436"><ele>255.57142857142856</ele><time>2026-03-31T14:12:26Z</time></trkpt><trkpt lat="45.6639592399883" lon="9.275363140793187"><ele>255.1428571428571</ele><time>2026-03-31T14:12:27Z</time></trkpt><trkpt lat="45.66388594821958" lon="9.275332358199023"><ele>254.71428571428572</ele><time>2026-03-31T14:12:28Z</time></trkpt><trkpt lat="45.663826033073896" lon="9.275293970509523"><ele>254.28571428571428</ele><time>2026-03-31T14:12:29Z</time></trkpt><trkpt lat="45.66377361273922" lon="9.275216849881174"><ele>253.85714285714286</ele><time>2026-03-31T14:12:30Z</time></trkpt><trkpt lat="45.663754155337834" lon="9.275102922770323"><ele>253.42857142857144</ele><time>2026-03-31T14:12:31Z</time></trkpt><trkpt lat="45.66370048964441" lon="9.275032625191844"><ele>253.00000000000003</ele><time>2026-03-31T14:12:32Z</time></trkpt><trkpt lat="45.663668065819515" lon="9.274921535536297"><ele>253.2</ele><time>2026-03-31T14:12:34Z</time></trkpt><trkpt lat="45.66360664870814" lon="9.274881771819544"><ele>253.4</ele><time>2026-03-31T14:12:36Z</time></trkpt><trkpt lat="45.663454596341886" lon="9.275001257062074"><ele>253.59999999999997</ele><time>2026-03-31T14:12:37Z</time></trkpt><trkpt lat="45.66337413903867" lon="9.275058648377259"><ele>253.79999999999998</ele><time>2026-03-31T14:12:38Z</time></trkpt><trkpt lat="45.663308647071986" lon="9.275079530196571"><ele>254.0</ele><time>2026-03-31T14:12:39Z</time></trkpt><trkpt lat="45.66321260888033" lon="9.275154596751655"><ele>254.0</ele><time>2026-03-31T14:12:40Z</time></trkpt><trkpt lat="45.66313351420818" lon="9.275200641031123"><ele>253.99999999999997</ele><time>2026-03-31T14:12:41Z</time></trkpt><trkpt lat="45.66307139132525" lon="9.275245111354188"><ele>253.99999999999997</ele><time>2026-03-31T14:12:42Z</time></trkpt><trkpt lat="45.66299600930666" lon="9.275271253820732"><ele>254.0</ele><time>2026-03-31T14:12:43Z</time></trkpt><trkpt lat="45.66292265536413" lon="9.275321535870058"><ele>254.0</ele><time>2026-03-31T14:12:47Z</time></trkpt><trkpt lat="45.662967069922495" lon="9.275570193827386"><ele>255.00000000000003</ele><time>2026-03-31T14:12:50Z</time></trkpt><trkpt lat="45.663011185263976" lon="9.275643841834905"><ele>256.0</ele><time>2026-03-31T14:12:51Z</time></trkpt><trkpt lat="45.66303372989735" lon="9.275760831888089"><ele>257.0</ele><time>2026-03-31T14:12:52Z</time></trkpt><trkpt lat="45.66306535425559" lon="9.275872535088668"><ele>258.0</ele><time>2026-03-31T14:12:53Z</time></trkpt><trkpt lat="45.663115907774596" lon="9.276010806515592"><ele>259.0</ele><time>2026-03-31T14:12:55Z</time></trkpt><trkpt lat="45.663145284714126" lon="9.276121131351003"><ele>260.0</ele><time>2026-03-31T14:12:57Z</time></trkpt><trkpt lat="45.663113347662154" lon="9.276268544706562"><ele>260.0</ele><time>2026-03-31T14:12:59Z</time></trkpt><trkpt lat="45.66306380944135" lon="9.276338351896602"><ele>260.0</ele><time>2026-03-31T14:13:00Z</time></trkpt><trkpt lat="45.66301157345984" lon="9.276418440261406"><ele>260.0</ele><time>2026-03-31T14:13:01Z</time></trkpt><trkpt lat="45.66293204641778" lon="9.27649924735532"><ele>260.0</ele><time>2026-03-31T14:13:03Z</time></trkpt><trkpt lat="45.662884553295996" lon="9.27657041114977"><ele>260.0</ele><time>2026-03-31T14:13:05Z</time></trkpt><trkpt lat="45.66283474623885" lon="9.276645013576998"><ele>260.0</ele><time>2026-03-31T14:13:07Z</time></trkpt><trkpt lat="45.66277072823892" lon="9.276710688262414"><ele>259.6666666666667</ele><time>2026-03-31T14:13:09Z</time></trkpt><trkpt lat="45.662679380218876" lon="9.276825011134292"><ele>259.33333333333337</ele><time>2026-03-31T14:13:11Z</time></trkpt><trkpt lat="45.66261842545313" lon="9.276899977221799"><ele>259.0</ele><time>2026-03-31T14:13:13Z</time></trkpt><trkpt lat="45.66258716650291" lon="9.276991424382095"><ele>258.6666666666667</ele><time>2026-03-31T14:13:15Z</time></trkpt><trkpt lat="45.66262855261374" lon="9.277123204619645"><ele>258.3333333333333</ele><time>2026-03-31T14:13:17Z</time></trkpt><trkpt lat="45.66265873698961" lon="9.277209228417684"><ele>258.0</ele><time>2026-03-31T14:13:18Z</time></trkpt><trkpt lat="45.66267801307605" lon="9.277335694377106"><ele>257.6666666666667</ele><time>2026-03-31T14:13:19Z</time></trkpt><trkpt lat="45.66270315106405" lon="9.277480715409787"><ele>257.3333333333333</ele><time>2026-03-31T14:13:20Z</time></trkpt><trkpt lat="45.66272733954452" lon="9.277612220543029"><ele>257.0</ele><time>2026-03-31T14:13:21Z</time></trkpt><trkpt lat="45.66274584409421" lon="9.277727907628284"><ele>256.66666666666663</ele><time>2026-03-31T14:13:22Z</time></trkpt><trkpt lat="45.662759389967434" lon="9.277833530309564"><ele>256.3333333333333</ele><time>2026-03-31T14:13:23Z</time></trkpt><trkpt lat="45.66278285188175" lon="9.277928472708522"><ele>256.0</ele><time>2026-03-31T14:13:24Z</time></trkpt><trkpt lat="45.662799826019295" lon="9.278042107612814"><ele>255.83333333333331</ele><time>2026-03-31T14:13:25Z</time></trkpt><trkpt lat="45.66282130881157" lon="9.278172990572491"><ele>255.66666666666666</ele><time>2026-03-31T14:13:26Z</time></trkpt><trkpt lat="45.66284532721667" lon="9.2782828117587"><ele>255.5</ele><time>2026-03-31T14:13:27Z</time></trkpt><trkpt lat="45.66286922217411" lon="9.278378919586157"><ele>255.33333333333331</ele><time>2026-03-31T14:13:28Z</time></trkpt><trkpt lat="45.66289022270133" lon="9.278476674651086"><ele>255.16666666666666</ele><time>2026-03-31T14:13:29Z</time></trkpt><trkpt lat="45.66289912380093" lon="9.278634222379813"><ele>255.0</ele><time>2026-03-31T14:13:31Z</time></trkpt><trkpt lat="45.66285075463506" lon="9.278715881853934"><ele>255.0</ele><time>2026-03-31T14:13:32Z</time></trkpt><trkpt lat="45.662793260153244" lon="9.278782926287251"><ele>255.0</ele><time>2026-03-31T14:13:33Z</time></trkpt><trkpt lat="45.66269617745917" lon="9.278832950997469"><ele>255.0</ele><time>2026-03-31T14:13:34Z</time></trkpt><trkpt lat="45.662603974084945" lon="9.278889652132285"><ele>255.0</ele><time>2026-03-31T14:13:35Z</time></trkpt><trkpt lat="45.66253186664626" lon="9.278953541982844"><ele>255.0</ele><time>2026-03-31T14:13:36Z</time></trkpt><trkpt lat="45.66245607342644" lon="9.27903735346179"><ele>253.33333333333334</ele><time>2026-03-31T14:13:37Z</time></trkpt><trkpt lat="45.66238462331428" lon="9.2791080639679"><ele>251.66666666666669</ele><time>2026-03-31T14:13:38Z</time></trkpt><trkpt lat="45.662321633101975" lon="9.279192558339744"><ele>250.0</ele><time>2026-03-31T14:13:39Z</time></trkpt><trkpt lat="45.662269776891364" lon="9.27927156076579"><ele>248.33333333333334</ele><time>2026-03-31T14:13:40Z</time></trkpt><trkpt lat="45.66221263189989" lon="9.279341655488865"><ele>246.66666666666669</ele><time>2026-03-31T14:13:41Z</time></trkpt><trkpt lat="45.662146725596855" lon="9.279398254931465"><ele>245.0</ele><time>2026-03-31T14:13:42Z</time></trkpt><trkpt lat="45.66207415225175" lon="9.279432116139182"><ele>245.00000000000003</ele><time>2026-03-31T14:13:43Z</time></trkpt><trkpt lat="45.6620005371527" lon="9.279442037117198"><ele>245.0</ele><time>2026-03-31T14:13:44Z</time></trkpt><trkpt lat="45.661925273633024" lon="9.279432982645982"><ele>245.0</ele><time>2026-03-31T14:13:45Z</time></trkpt><trkpt lat="45.66186028672894" lon="9.279417534188985"><ele>245.0</ele><time>2026-03-31T14:13:46Z</time></trkpt><trkpt lat="45.661725290627395" lon="9.279370949147758"><ele>245.00000000000003</ele><time>2026-03-31T14:13:48Z</time></trkpt><trkpt lat="45.66164245666862" lon="9.279322113293944"><ele>245.0</ele><time>2026-03-31T14:13:49Z</time></trkpt><trkpt lat="45.661569878558375" lon="9.279255622971258"><ele>244.33333333333334</ele><time>2026-03-31T14:13:50Z</time></trkpt><trkpt lat="45.661505379286844" lon="9.279186458810342"><ele>243.66666666666669</ele><time>2026-03-31T14:13:51Z</time></trkpt><trkpt lat="45.66145242698204" lon="9.279108635667134"><ele>243.0</ele><time>2026-03-31T14:13:52Z</time></trkpt><trkpt lat="45.661397831693165" lon="9.279000510631175"><ele>242.33333333333331</ele><time>2026-03-31T14:13:53Z</time></trkpt><trkpt lat="45.6613554100353" lon="9.278884351209165"><ele>241.66666666666666</ele><time>2026-03-31T14:13:54Z</time></trkpt><trkpt lat="45.66132320893732" lon="9.278761529220885"><ele>241.0</ele><time>2026-03-31T14:13:55Z</time></trkpt><trkpt lat="45.661292526705466" lon="9.278628716052063"><ele>241.0</ele><time>2026-03-31T14:13:56Z</time></trkpt><trkpt lat="45.66126575320281" lon="9.278525699262707"><ele>241.00000000000003</ele><time>2026-03-31T14:13:57Z</time></trkpt><trkpt lat="45.661192624983684" lon="9.278414868343381"><ele>241.00000000000003</ele><time>2026-03-31T14:13:59Z</time></trkpt><trkpt lat="45.66105753635931" lon="9.27844502399788"><ele>241.0</ele><time>2026-03-31T14:14:01Z</time></trkpt><trkpt lat="45.66096790889552" lon="9.278480588685353"><ele>241.0</ele><time>2026-03-31T14:14:02Z</time></trkpt><trkpt lat="45.6608742657114" lon="9.278503462612274"><ele>241.0</ele><time>2026-03-31T14:14:03Z</time></trkpt><trkpt lat="45.66078382740858" lon="9.278531867865565"><ele>241.00000000000003</ele><time>2026-03-31T14:14:04Z</time></trkpt><trkpt lat="45.660644370033424" lon="9.278561092568882"><ele>241.00000000000003</ele><time>2026-03-31T14:14:06Z</time></trkpt><trkpt lat="45.660541153623264" lon="9.278569758295372"><ele>241.0</ele><time>2026-03-31T14:14:08Z</time></trkpt><trkpt lat="45.66044098445707" lon="9.278606636665273"><ele>241.0</ele><time>2026-03-31T14:14:10Z</time></trkpt><trkpt lat="45.660356254784986" lon="9.278634549598031"><ele>240.60000000000002</ele><time>2026-03-31T14:14:11Z</time></trkpt><trkpt lat="45.660267840369606" lon="9.278654132571646"><ele>240.20000000000002</ele><time>2026-03-31T14:14:12Z</time></trkpt><trkpt lat="45.66014832001222" lon="9.278676715156204"><ele>239.79999999999998</ele><time>2026-03-31T14:14:14Z</time></trkpt><trkpt lat="45.66003485798243" lon="9.278708199821095"><ele>239.39999999999998</ele><time>2026-03-31T14:14:16Z</time></trkpt><trkpt lat="45.65996984142764" lon="9.278736980356287"><ele>239.0</ele><time>2026-03-31T14:14:17Z</time></trkpt><trkpt lat="45.6598935555069" lon="9.278788922046347"><ele>239.00000000000003</ele><time>2026-03-31T14:14:18Z</time></trkpt><trkpt lat="45.65980661321738" lon="9.278860828580864"><ele>239.0</ele><time>2026-03-31T14:14:19Z</time></trkpt><trkpt lat="45.65973075336186" lon="9.278936138366001"><ele>239.0</ele><time>2026-03-31T14:14:20Z</time></trkpt><trkpt lat="45.659663235985825" lon="9.279010527886339"><ele>239.0</ele><time>2026-03-31T14:14:21Z</time></trkpt><trkpt lat="45.65960731497206" lon="9.279068614455449"><ele>239.00000000000003</ele><time>2026-03-31T14:14:22Z</time></trkpt><trkpt lat="45.65952159327709" lon="9.279129654124699"><ele>239.0</ele><time>2026-03-31T14:14:24Z</time></trkpt><trkpt lat="45.659408763567654" lon="9.279184851012554"><ele>239.2</ele><time>2026-03-31T14:14:26Z</time></trkpt><trkpt lat="45.65931946707541" lon="9.279178735779082"><ele>239.39999999999998</ele><time>2026-03-31T14:14:27Z</time></trkpt><trkpt lat="45.6592031280163" lon="9.279144493419853"><ele>239.6</ele><time>2026-03-31T14:14:28Z</time></trkpt><trkpt lat="45.659092260228725" lon="9.279109889008668"><ele>239.8</ele><time>2026-03-31T14:14:29Z</time></trkpt><trkpt lat="45.65898292396454" lon="9.279082370317028"><ele>240.0</ele><time>2026-03-31T14:14:30Z</time></trkpt><trkpt lat="45.65890256052732" lon="9.279058385085612"><ele>240.0</ele><time>2026-03-31T14:14:31Z</time></trkpt><trkpt lat="45.65883861365941" lon="9.279033323104585"><ele>240.0</ele><time>2026-03-31T14:14:32Z</time></trkpt><trkpt lat="45.658762267988855" lon="9.279013482464336"><ele>240.0</ele><time>2026-03-31T14:14:33Z</time></trkpt><trkpt lat="45.65867164071873" lon="9.279006471697395"><ele>240.0</ele><time>2026-03-31T14:14:34Z</time></trkpt><trkpt lat="45.6585703344464" lon="9.279009405776169"><ele>240.0</ele><time>2026-03-31T14:14:35Z</time></trkpt><trkpt lat="45.658475190127064" lon="9.27901772425231"><ele>240.0</ele><time>2026-03-31T14:14:36Z</time></trkpt><trkpt lat="45.65839022339973" lon="9.279029075834018"><ele>240.66666666666666</ele><time>2026-03-31T14:14:37Z</time></trkpt><trkpt lat="45.658297926366906" lon="9.27904167243615"><ele>241.33333333333331</ele><time>2026-03-31T14:14:39Z</time></trkpt><trkpt lat="45.658218879945125" lon="9.27904225553563"><ele>242.0</ele><time>2026-03-31T14:14:41.999Z</time></trkpt><trkpt lat="45.65811218380989" lon="9.279070063355727"><ele>242.66666666666666</ele><time>2026-03-31T14:14:43.999Z</time></trkpt><trkpt lat="45.65802416638536" lon="9.27909207906658"><ele>243.33333333333331</ele><time>2026-03-31T14:14:45Z</time></trkpt><trkpt lat="45.65795166876521" lon="9.279129231115524"><ele>244.0</ele><time>2026-03-31T14:14:46Z</time></trkpt><trkpt lat="45.65788457922262" lon="9.279187768478494"><ele>244.0</ele><time>2026-03-31T14:14:47Z</time></trkpt><trkpt lat="45.65779445871762" lon="9.279250034407246"><ele>243.99999999999997</ele><time>2026-03-31T14:14:49Z</time></trkpt><trkpt lat="45.65770106217135" lon="9.279230567907241"><ele>243.99999999999997</ele><time>2026-03-31T14:14:55Z</time></trkpt><trkpt lat="45.65761124288973" lon="9.279177611076893"><ele>244.0</ele><time>2026-03-31T14:14:57Z</time></trkpt><trkpt lat="45.65752462912794" lon="9.279149514387965"><ele>244.0</ele><time>2026-03-31T14:14:59Z</time></trkpt><trkpt lat="45.65740189991256" lon="9.279171737566486"><ele>243.79999999999998</ele><time>2026-03-31T14:15:01Z</time></trkpt><trkpt lat="45.657328238293935" lon="9.279225057853926"><ele>243.59999999999997</ele><time>2026-03-31T14:15:02Z</time></trkpt><trkpt lat="45.65724308919268" lon="9.279281390230956"><ele>243.4</ele><time>2026-03-31T14:15:03Z</time></trkpt><trkpt lat="45.657176458575805" lon="9.27933581054432"><ele>243.2</ele><time>2026-03-31T14:15:04Z</time></trkpt><trkpt lat="45.65707094963692" lon="9.279335150544835"><ele>243.0</ele><time>2026-03-31T14:15:06Z</time></trkpt><trkpt lat="45.65695941686535" lon="9.27921846604963"><ele>241.0</ele><time>2026-03-31T14:15:08Z</time></trkpt><trkpt lat="45.6568930701624" lon="9.279117773928593"><ele>239.0</ele><time>2026-03-31T14:15:09Z</time></trkpt><trkpt lat="45.6568357984423" lon="9.279015061740134"><ele>237.0</ele><time>2026-03-31T14:15:10Z</time></trkpt><trkpt lat="45.656788042603615" lon="9.278923293235703"><ele>235.0</ele><time>2026-03-31T14:15:11Z</time></trkpt><trkpt lat="45.65673786030043" lon="9.278832655580418"><ele>233.0</ele><time>2026-03-31T14:15:12Z</time></trkpt><trkpt lat="45.65668175250207" lon="9.278746291805493"><ele>231.0</ele><time>2026-03-31T14:15:13Z</time></trkpt><trkpt lat="45.65663125766775" lon="9.278666725542452"><ele>230.16666666666666</ele><time>2026-03-31T14:15:14Z</time></trkpt><trkpt lat="45.65657561412662" lon="9.278589563770838"><ele>229.33333333333331</ele><time>2026-03-31T14:15:15Z</time></trkpt><trkpt lat="45.65651606859449" lon="9.27852178008232"><ele>228.5</ele><time>2026-03-31T14:15:16Z</time></trkpt><trkpt lat="45.65643091262665" lon="9.278435001110974"><ele>227.66666666666666</ele><time>2026-03-31T14:15:17Z</time></trkpt><trkpt lat="45.65636518247654" lon="9.278346231046232"><ele>226.83333333333331</ele><time>2026-03-31T14:15:18Z</time></trkpt><trkpt lat="45.65630313242452" lon="9.278249338744185"><ele>226.0</ele><time>2026-03-31T14:15:19Z</time></trkpt><trkpt lat="45.656256090645755" lon="9.278159463995935"><ele>225.20000000000002</ele><time>2026-03-31T14:15:20Z</time></trkpt><trkpt lat="45.656211673286954" lon="9.278061181707422"><ele>224.40000000000003</ele><time>2026-03-31T14:15:21Z</time></trkpt><trkpt lat="45.6561737401601" lon="9.277978160261945"><ele>223.6</ele><time>2026-03-31T14:15:22Z</time></trkpt><trkpt lat="45.65610891952975" lon="9.277857149132103"><ele>222.8</ele><time>2026-03-31T14:15:24Z</time></trkpt><trkpt lat="45.65600886675671" lon="9.27779304505581"><ele>222.0</ele><time>2026-03-31T14:15:26Z</time></trkpt><trkpt lat="45.65591003995513" lon="9.27777826984048"><ele>222.0</ele><time>2026-03-31T14:15:28Z</time></trkpt><trkpt lat="45.65583955272869" lon="9.277780377052615"><ele>222.0</ele><time>2026-03-31T14:15:31Z</time></trkpt><trkpt lat="45.65577069740343" lon="9.277787165579147"><ele>222.0</ele><time>2026-03-31T14:15:33Z</time></trkpt><trkpt lat="45.655704994918814" lon="9.277801211384874"><ele>222.0</ele><time>2026-03-31T14:15:35Z</time></trkpt><trkpt lat="45.655635245658715" lon="9.277826039033917"><ele>222.0</ele><time>2026-03-31T14:15:37Z</time></trkpt><trkpt lat="45.65552698458636" lon="9.277865679574557"><ele>222.0</ele><time>2026-03-31T14:15:39Z</time></trkpt><trkpt lat="45.655401881088565" lon="9.277920407637822"><ele>222.0</ele><time>2026-03-31T14:15:41Z</time></trkpt><trkpt lat="45.655343774202414" lon="9.277961192763893"><ele>222.0</ele><time>2026-03-31T14:15:42Z</time></trkpt><trkpt lat="45.65526245055226" lon="9.27801563513573"><ele>222.0</ele><time>2026-03-31T14:15:43Z</time></trkpt><trkpt lat="45.655189090337565" lon="9.278064773011371"><ele>222.0</ele><time>2026-03-31T14:15:44Z</time></trkpt><trkpt lat="45.65512221044178" lon="9.278115062683094"><ele>222.0</ele><time>2026-03-31T14:15:45Z</time></trkpt><trkpt lat="45.65505615473601" lon="9.278172796470164"><ele>222.0</ele><time>2026-03-31T14:15:46Z</time></trkpt><trkpt lat="45.65493740975001" lon="9.278268557817784"><ele>222.0</ele><time>2026-03-31T14:15:48Z</time></trkpt><trkpt lat="45.65487520700738" lon="9.278311233694732"><ele>222.0</ele><time>2026-03-31T14:15:49Z</time></trkpt><trkpt lat="45.65475951103606" lon="9.278329824738725"><ele>222.0</ele><time>2026-03-31T14:15:51Z</time></trkpt><trkpt lat="45.65469390430701" lon="9.278270914742798"><ele>222.0</ele><time>2026-03-31T14:15:52Z</time></trkpt><trkpt lat="45.654623149845214" lon="9.27818718422574"><ele>222.0</ele><time>2026-03-31T14:15:53Z</time></trkpt><trkpt lat="45.654541600340835" lon="9.27807996128512"><ele>221.83333333333334</ele><time>2026-03-31T14:15:54Z</time></trkpt><trkpt lat="45.654490110749826" lon="9.277988198429732"><ele>221.66666666666669</ele><time>2026-03-31T14:15:55Z</time></trkpt><trkpt lat="45.654426521224956" lon="9.277887694840322"><ele>221.5</ele><time>2026-03-31T14:15:57Z</time></trkpt><trkpt lat="45.654341470355476" lon="9.277791019893398"><ele>221.33333333333334</ele><time>2026-03-31T14:15:59Z</time></trkpt><trkpt lat="45.654297460397935" lon="9.277723297617463"><ele>221.16666666666669</ele><time>2026-03-31T14:16:00Z</time></trkpt><trkpt lat="45.654241365431645" lon="9.2776312856694"><ele>221.0</ele><time>2026-03-31T14:16:02Z</time></trkpt><trkpt lat="45.65419862129674" lon="9.27753301845987"><ele>221.00000000000003</ele><time>2026-03-31T14:16:04Z</time></trkpt><trkpt lat="45.65408816257605" lon="9.277504367979033"><ele>221.0</ele><time>2026-03-31T14:16:07Z</time></trkpt><trkpt lat="45.654020860663" lon="9.277499807465551"><ele>221.0</ele><time>2026-03-31T14:16:09Z</time></trkpt><trkpt lat="45.65393714662405" lon="9.277467184034196"><ele>221.0</ele><time>2026-03-31T14:16:11Z</time></trkpt><trkpt lat="45.653865745836704" lon="9.277414450678544"><ele>221.00000000000003</ele><time>2026-03-31T14:16:13Z</time></trkpt><trkpt lat="45.653804065443275" lon="9.277363502410196"><ele>221.0</ele><time>2026-03-31T14:16:15Z</time></trkpt><trkpt lat="45.6537567800926" lon="9.277289743709373"><ele>221.00000000000003</ele><time>2026-03-31T14:16:16Z</time></trkpt><trkpt lat="45.6537273242898" lon="9.277135816142579"><ele>221.0</ele><time>2026-03-31T14:16:18Z</time></trkpt><trkpt lat="45.65366663236301" lon="9.277071978278956"><ele>221.0</ele><time>2026-03-31T14:16:19Z</time></trkpt><trkpt lat="45.6535994364102" lon="9.277024428970417"><ele>221.0</ele><time>2026-03-31T14:16:20Z</time></trkpt><trkpt lat="45.65353786109662" lon="9.276989212936657"><ele>221.00000000000003</ele><time>2026-03-31T14:16:21Z</time></trkpt><trkpt lat="45.65345809009285" lon="9.276963592024828"><ele>221.0</ele><time>2026-03-31T14:16:22Z</time></trkpt><trkpt lat="45.6533790596345" lon="9.27693981653138"><ele>221.00000000000003</ele><time>2026-03-31T14:16:23Z</time></trkpt><trkpt lat="45.653257105004506" lon="9.276924436074676"><ele>221.0</ele><time>2026-03-31T14:16:25Z</time></trkpt><trkpt lat="45.65319450717922" lon="9.276941375853578"><ele>221.0</ele><time>2026-03-31T14:16:26Z</time></trkpt><trkpt lat="45.653091327484034" lon="9.27695592292162"><ele>221.0</ele><time>2026-03-31T14:16:28Z</time></trkpt><trkpt lat="45.6530094440841" lon="9.276955519520284"><ele>221.00000000000003</ele><time>2026-03-31T14:16:30Z</time></trkpt><trkpt lat="45.652947583751484" lon="9.276933153450042"><ele>221.0</ele><time>2026-03-31T14:16:33Z</time></trkpt><trkpt lat="45.65288091949004" lon="9.276931194702188"><ele>220.0</ele><time>2026-03-31T14:16:35Z</time></trkpt><trkpt lat="45.65278839605642" lon="9.276958683881613"><ele>219.0</ele><time>2026-03-31T14:16:36Z</time></trkpt><trkpt lat="45.65269753919094" lon="9.277032588757582"><ele>218.0</ele><time>2026-03-31T14:16:37Z</time></trkpt><trkpt lat="45.65256739621232" lon="9.277144786995915"><ele>217.0</ele><time>2026-03-31T14:16:38Z</time></trkpt><trkpt lat="45.6524448520669" lon="9.277246199564994"><ele>217.33333333333331</ele><time>2026-03-31T14:16:39Z</time></trkpt><trkpt lat="45.65230446390736" lon="9.277358443149291"><ele>217.66666666666669</ele><time>2026-03-31T14:16:40Z</time></trkpt><trkpt lat="45.65212533094651" lon="9.277490500350385"><ele>218.0</ele><time>2026-03-31T14:16:41Z</time></trkpt><trkpt lat="45.65196284553664" lon="9.277606504910437"><ele>215.66666666666669</ele><time>2026-03-31T14:16:42Z</time></trkpt><trkpt lat="45.65182333986971" lon="9.27770485914759"><ele>213.33333333333331</ele><time>2026-03-31T14:16:43Z</time></trkpt><trkpt lat="45.65168424435788" lon="9.277802893331986"><ele>211.0</ele><time>2026-03-31T14:16:44Z</time></trkpt><trkpt lat="45.6515510856039" lon="9.277890370905897"><ele>211.0</ele><time>2026-03-31T14:16:45Z</time></trkpt><trkpt lat="45.65143786469335" lon="9.27798529043717"><ele>211.0</ele><time>2026-03-31T14:16:46Z</time></trkpt><trkpt lat="45.65132194936003" lon="9.278079614592787"><ele>211.0</ele><time>2026-03-31T14:16:47Z</time></trkpt><trkpt lat="45.65122035448478" lon="9.278168115561087"><ele>211.0</ele><time>2026-03-31T14:16:48Z</time></trkpt><trkpt lat="45.65110110457722" lon="9.278241842368518"><ele>211.0</ele><time>2026-03-31T14:16:49Z</time></trkpt><trkpt lat="45.651003997396565" lon="9.278339788692076"><ele>211.0</ele><time>2026-03-31T14:16:50Z</time></trkpt><trkpt lat="45.650919111445376" lon="9.278420452238072"><ele>211.0</ele><time>2026-03-31T14:16:51Z</time></trkpt><trkpt lat="45.65086303201536" lon="9.278478245520606"><ele>211.0</ele><time>2026-03-31T14:16:52Z</time></trkpt><trkpt lat="45.65077724956203" lon="9.278491228714447"><ele>211.0</ele><time>2026-03-31T14:16:54Z</time></trkpt><trkpt lat="45.65069293076888" lon="9.278420558652229"><ele>211.0</ele><time>2026-03-31T14:16:56Z</time></trkpt><trkpt lat="45.65062706732212" lon="9.278349204014413"><ele>211.0</ele><time>2026-03-31T14:17:00Z</time></trkpt><trkpt lat="45.650496117058424" lon="9.27850711698987"><ele>211.0</ele><time>2026-03-31T14:17:02Z</time></trkpt><trkpt lat="45.650439407566715" lon="9.278608990104217"><ele>211.0</ele><time>2026-03-31T14:17:03Z</time></trkpt><trkpt lat="45.65036699562387" lon="9.278739071169769"><ele>209.33333333333331</ele><time>2026-03-31T14:17:04Z</time></trkpt><trkpt lat="45.650270472227724" lon="9.278902748499132"><ele>207.66666666666669</ele><time>2026-03-31T14:17:05Z</time></trkpt><trkpt lat="45.650171223483625" lon="9.279067006008683"><ele>206.0</ele><time>2026-03-31T14:17:06Z</time></trkpt><trkpt lat="45.650039768086906" lon="9.279266484111407"><ele>206.0</ele><time>2026-03-31T14:17:07Z</time></trkpt><trkpt lat="45.64997765924301" lon="9.279458523970147"><ele>206.0</ele><time>2026-03-31T14:17:09Z</time></trkpt><trkpt lat="45.64986185416763" lon="9.279563789409927"><ele>206.0</ele><time>2026-03-31T14:17:10Z</time></trkpt><trkpt lat="45.649743293566935" lon="9.279694950123302"><ele>206.0</ele><time>2026-03-31T14:17:11Z</time></trkpt><trkpt lat="45.64963338443529" lon="9.279816366291051"><ele>205.25</ele><time>2026-03-31T14:17:12Z</time></trkpt><trkpt lat="45.64952836378309" lon="9.279930935063984"><ele>204.5</ele><time>2026-03-31T14:17:13Z</time></trkpt><trkpt lat="45.64942756666739" lon="9.28005134134315"><ele>203.75</ele><time>2026-03-31T14:17:14Z</time></trkpt><trkpt lat="45.649334639517114" lon="9.280153659513395"><ele>203.0</ele><time>2026-03-31T14:17:15Z</time></trkpt><trkpt lat="45.649243600399416" lon="9.280253421407593"><ele>202.2</ele><time>2026-03-31T14:17:16Z</time></trkpt><trkpt lat="45.64915356542094" lon="9.280335630227482"><ele>201.4</ele><time>2026-03-31T14:17:17Z</time></trkpt><trkpt lat="45.64908413008709" lon="9.280417795811807"><ele>200.6</ele><time>2026-03-31T14:17:18Z</time></trkpt><trkpt lat="45.64900926134835" lon="9.280558438102648"><ele>199.79999999999998</ele><time>2026-03-31T14:17:19Z</time></trkpt><trkpt lat="45.648963742798976" lon="9.280729332633243"><ele>199.0</ele><time>2026-03-31T14:17:20Z</time></trkpt><trkpt lat="45.648924495568444" lon="9.280905778283424"><ele>198.75</ele><time>2026-03-31T14:17:21Z</time></trkpt><trkpt lat="45.64889254404042" lon="9.281075975518606"><ele>198.5</ele><time>2026-03-31T14:17:22Z</time></trkpt><trkpt lat="45.648852963451255" lon="9.281246244592793"><ele>198.25</ele><time>2026-03-31T14:17:23Z</time></trkpt><trkpt lat="45.64881874503315" lon="9.281392890132707"><ele>198.0</ele><time>2026-03-31T14:17:24Z</time></trkpt><trkpt lat="45.648788261252484" lon="9.281524925121762"><ele>198.5</ele><time>2026-03-31T14:17:25Z</time></trkpt><trkpt lat="45.64876200153054" lon="9.281636370146693"><ele>199.0</ele><time>2026-03-31T14:17:26Z</time></trkpt><trkpt lat="45.648721346491" lon="9.281734170436167"><ele>199.5</ele><time>2026-03-31T14:17:27Z</time></trkpt><trkpt lat="45.648700468334674" lon="9.281828877813561"><ele>200.0</ele><time>2026-03-31T14:17:28Z</time></trkpt><trkpt lat="45.64865723789861" lon="9.281908059964714"><ele>200.5</ele><time>2026-03-31T14:17:30Z</time></trkpt><trkpt lat="45.648741766272465" lon="9.282037614328996"><ele>201.0</ele><time>2026-03-31T14:17:31Z</time></trkpt><trkpt lat="45.648813472525134" lon="9.282121713046937"><ele>201.0</ele><time>2026-03-31T14:17:32Z</time></trkpt><trkpt lat="45.6489193825423" lon="9.282185278071772"><ele>201.0</ele><time>2026-03-31T14:17:33Z</time></trkpt><trkpt lat="45.64902715604457" lon="9.282239120528557"><ele>201.0</ele><time>2026-03-31T14:17:34Z</time></trkpt><trkpt lat="45.64915692346896" lon="9.282285209333994"><ele>201.0</ele><time>2026-03-31T14:17:35Z</time></trkpt><trkpt lat="45.64929464673977" lon="9.282300222108532"><ele>201.25</ele><time>2026-03-31T14:17:36Z</time></trkpt><trkpt lat="45.64942762777531" lon="9.2823155929986"><ele>201.5</ele><time>2026-03-31T14:17:37Z</time></trkpt><trkpt lat="45.649560589563244" lon="9.28233602737277"><ele>201.75</ele><time>2026-03-31T14:17:38Z</time></trkpt><trkpt lat="45.64968011700758" lon="9.28235894764845"><ele>202.0</ele><time>2026-03-31T14:17:39Z</time></trkpt><trkpt lat="45.64980488197246" lon="9.282377602763622"><ele>203.0</ele><time>2026-03-31T14:17:40Z</time></trkpt><trkpt lat="45.64992840564125" lon="9.28239004972328"><ele>204.0</ele><time>2026-03-31T14:17:41Z</time></trkpt><trkpt lat="45.6500537867052" lon="9.28240374181933"><ele>205.0</ele><time>2026-03-31T14:17:42Z</time></trkpt><trkpt lat="45.65017477816522" lon="9.282418304967706"><ele>206.0</ele><time>2026-03-31T14:17:43Z</time></trkpt><trkpt lat="45.65029563117342" lon="9.282430156011994"><ele>207.0</ele><time>2026-03-31T14:17:44Z</time></trkpt><trkpt lat="45.650403509375586" lon="9.282445707836187"><ele>208.0</ele><time>2026-03-31T14:17:45Z</time></trkpt><trkpt lat="45.65051959946479" lon="9.282455631780744"><ele>209.0</ele><time>2026-03-31T14:17:46Z</time></trkpt><trkpt lat="45.650616179952515" lon="9.282489040585084"><ele>210.0</ele><time>2026-03-31T14:17:47Z</time></trkpt><trkpt lat="45.65073106693074" lon="9.282506532260483"><ele>211.0</ele><time>2026-03-31T14:17:48Z</time></trkpt><trkpt lat="45.65081119249598" lon="9.282495103269262"><ele>211.0</ele><time>2026-03-31T14:17:49Z</time></trkpt><trkpt lat="45.650888380225446" lon="9.282505257665015"><ele>211.0</ele><time>2026-03-31T14:17:50Z</time></trkpt><trkpt lat="45.65095278082014" lon="9.282510187294779"><ele>211.0</ele><time>2026-03-31T14:17:52Z</time></trkpt><trkpt lat="45.65102354100261" lon="9.28235995361511"><ele>211.0</ele><time>2026-03-31T14:17:55Z</time></trkpt><trkpt lat="45.65102498727917" lon="9.282218859244448"><ele>211.0</ele><time>2026-03-31T14:17:56Z</time></trkpt><trkpt lat="45.65104205536462" lon="9.28206054466532"><ele>210.5</ele><time>2026-03-31T14:17:57Z</time></trkpt><trkpt lat="45.651058102564825" lon="9.281882246306955"><ele>210.0</ele><time>2026-03-31T14:17:58Z</time></trkpt><trkpt lat="45.651082199162964" lon="9.281686918301157"><ele>209.5</ele><time>2026-03-31T14:17:59Z</time></trkpt><trkpt lat="45.65109301847618" lon="9.281534691172718"><ele>209.0</ele><time>2026-03-31T14:18:00Z</time></trkpt><trkpt lat="45.65110128513641" lon="9.281381979713425"><ele>208.79999999999998</ele><time>2026-03-31T14:18:01Z</time></trkpt><trkpt lat="45.651123503620624" lon="9.281224738435736"><ele>208.6</ele><time>2026-03-31T14:18:02Z</time></trkpt><trkpt lat="45.65114039301877" lon="9.281084056069753"><ele>208.4</ele><time>2026-03-31T14:18:03Z</time></trkpt><trkpt lat="45.65116338511602" lon="9.280959488785202"><ele>208.2</ele><time>2026-03-31T14:18:04Z</time></trkpt><trkpt lat="45.65117281620315" lon="9.280805396176012"><ele>208.0</ele><time>2026-03-31T14:18:06Z</time></trkpt><trkpt lat="45.65116770527211" lon="9.280706768118979"><ele>210.2</ele><time>2026-03-31T14:18:10Z</time></trkpt><trkpt lat="45.6513379337951" lon="9.280706951578809"><ele>212.4</ele><time>2026-03-31T14:18:14Z</time></trkpt><trkpt lat="45.651408204521154" lon="9.280701119895221"><ele>214.59999999999997</ele><time>2026-03-31T14:18:18Z</time></trkpt><trkpt lat="45.65132035837525" lon="9.280676685735912"><ele>216.79999999999998</ele><time>2026-03-31T14:18:31Z</time></trkpt><trkpt lat="45.65124317732465" lon="9.280667108526817"><ele>219.0</ele><time>2026-03-31T14:18:33Z</time></trkpt><trkpt lat="45.65116555593655" lon="9.280676406618634"><ele>219.0</ele><time>2026-03-31T14:18:38Z</time></trkpt><trkpt lat="45.6511315882164" lon="9.280832893770715"><ele>219.0</ele><time>2026-03-31T14:18:40Z</time></trkpt><trkpt lat="45.65111628978244" lon="9.280974074043048"><ele>219.0</ele><time>2026-03-31T14:18:41Z</time></trkpt><trkpt lat="45.65109017638244" lon="9.281175116131774"><ele>219.0</ele><time>2026-03-31T14:18:42Z</time></trkpt><trkpt lat="45.65107192287355" lon="9.281381747024234"><ele>216.5</ele><time>2026-03-31T14:18:43Z</time></trkpt><trkpt lat="45.65105474788235" lon="9.281576169035278"><ele>214.0</ele><time>2026-03-31T14:18:44Z</time></trkpt><trkpt lat="45.65103900249804" lon="9.281754407850864"><ele>211.5</ele><time>2026-03-31T14:18:45Z</time></trkpt><trkpt lat="45.65102599824193" lon="9.281896328406567"><ele>209.0</ele><time>2026-03-31T14:18:46Z</time></trkpt><trkpt lat="45.65101267330058" lon="9.282041944692713"><ele>209.0</ele><time>2026-03-31T14:18:46.999Z</time></trkpt><trkpt lat="45.65100374657965" lon="9.282139496802795"><ele>209.0</ele><time>2026-03-31T14:18:47.999Z</time></trkpt><trkpt lat="45.65099531646087" lon="9.282231622052532"><ele>209.0</ele><time>2026-03-31T14:18:48.999Z</time></trkpt><trkpt lat="45.650982310575074" lon="9.282361144789073"><ele>209.0</ele><time>2026-03-31T14:18:50.999Z</time></trkpt><trkpt lat="45.65101172868929" lon="9.282453470661393"><ele>209.0</ele><time>2026-03-31T14:18:52.999Z</time></trkpt><trkpt lat="45.65118599325156" lon="9.282524843069513"><ele>211.0</ele><time>2026-03-31T14:18:59Z</time></trkpt><trkpt lat="45.65129773096709" lon="9.282552434105071"><ele>213.0</ele><time>2026-03-31T14:19:00Z</time></trkpt><trkpt lat="45.6513964238797" lon="9.282578713811974"><ele>215.0</ele><time>2026-03-31T14:19:01Z</time></trkpt><trkpt lat="45.65150108680089" lon="9.282655201829396"><ele>217.0</ele><time>2026-03-31T14:19:02Z</time></trkpt><trkpt lat="45.6515872311788" lon="9.282787407247685"><ele>217.0</ele><time>2026-03-31T14:19:03Z</time></trkpt><trkpt lat="45.651635542390316" lon="9.282949609437791"><ele>217.0</ele><time>2026-03-31T14:19:04Z</time></trkpt><trkpt lat="45.651684412533285" lon="9.283115575947452"><ele>217.0</ele><time>2026-03-31T14:19:05Z</time></trkpt><trkpt lat="45.65169930673756" lon="9.28326199490468"><ele>217.0</ele><time>2026-03-31T14:19:06Z</time></trkpt><trkpt lat="45.65173094025985" lon="9.283415506545552"><ele>218.0</ele><time>2026-03-31T14:19:07Z</time></trkpt><trkpt lat="45.65178634793355" lon="9.283541195787434"><ele>219.0</ele><time>2026-03-31T14:19:08Z</time></trkpt><trkpt lat="45.651809228701495" lon="9.283653779706572"><ele>220.0</ele><time>2026-03-31T14:19:09Z</time></trkpt><trkpt lat="45.651875389835645" lon="9.283720662124313"><ele>221.0</ele><time>2026-03-31T14:19:10Z</time></trkpt><trkpt lat="45.652024240420324" lon="9.28377660635798"><ele>222.0</ele><time>2026-03-31T14:19:11Z</time></trkpt><trkpt lat="45.652138776138486" lon="9.28384491434867"><ele>222.0</ele><time>2026-03-31T14:19:12Z</time></trkpt><trkpt lat="45.652276427492204" lon="9.283875765200031"><ele>222.0</ele><time>2026-03-31T14:19:13Z</time></trkpt><trkpt lat="45.65236754208585" lon="9.283913036666432"><ele>222.0</ele><time>2026-03-31T14:19:14Z</time></trkpt><trkpt lat="45.65244613743642" lon="9.283959375239576"><ele>222.0</ele><time>2026-03-31T14:19:15Z</time></trkpt><trkpt lat="45.6525327947044" lon="9.284016865430335"><ele>222.0</ele><time>2026-03-31T14:19:17Z</time></trkpt><trkpt lat="45.65253129873944" lon="9.283766395428922"><ele>222.0</ele><time>2026-03-31T14:19:20Z</time></trkpt><trkpt lat="45.652500935753956" lon="9.283587672490151"><ele>222.0</ele><time>2026-03-31T14:19:22Z</time></trkpt><trkpt lat="45.65248447999542" lon="9.283485961440206"><ele>222.0</ele><time>2026-03-31T14:19:23Z</time></trkpt><trkpt lat="45.652476587667145" lon="9.283364968921905"><ele>222.0</ele><time>2026-03-31T14:19:24Z</time></trkpt><trkpt lat="45.652469292218846" lon="9.283253942878096"><ele>222.0</ele><time>2026-03-31T14:19:25Z</time></trkpt><trkpt lat="45.65247513076423" lon="9.283137330448985"><ele>222.0</ele><time>2026-03-31T14:19:26Z</time></trkpt><trkpt lat="45.65245379145472" lon="9.283024730213535"><ele>221.66666666666666</ele><time>2026-03-31T14:19:27Z</time></trkpt><trkpt lat="45.65244702077419" lon="9.282923301458233"><ele>221.33333333333331</ele><time>2026-03-31T14:19:28Z</time></trkpt><trkpt lat="45.65245174041601" lon="9.282804027864938"><ele>221.0</ele><time>2026-03-31T14:19:29Z</time></trkpt><trkpt lat="45.65243787163164" lon="9.282691413596782"><ele>220.66666666666666</ele><time>2026-03-31T14:19:30Z</time></trkpt><trkpt lat="45.65242709461418" lon="9.28256567470955"><ele>220.33333333333331</ele><time>2026-03-31T14:19:31Z</time></trkpt><trkpt lat="45.65241791817639" lon="9.282440489768735"><ele>220.0</ele><time>2026-03-31T14:19:32Z</time></trkpt><trkpt lat="45.652407847146954" lon="9.28231289424368"><ele>220.33333333333331</ele><time>2026-03-31T14:19:33Z</time></trkpt><trkpt lat="45.65239821576666" lon="9.282212358761667"><ele>220.66666666666666</ele><time>2026-03-31T14:19:34Z</time></trkpt><trkpt lat="45.65238311608496" lon="9.28209976931161"><ele>221.0</ele><time>2026-03-31T14:19:35Z</time></trkpt><trkpt lat="45.652367661281296" lon="9.281990453032817"><ele>221.33333333333331</ele><time>2026-03-31T14:19:36Z</time></trkpt><trkpt lat="45.65235497490267" lon="9.281879621435994"><ele>221.66666666666666</ele><time>2026-03-31T14:19:37Z</time></trkpt><trkpt lat="45.65234253764876" lon="9.28176878475962"><ele>222.0</ele><time>2026-03-31T14:19:38Z</time></trkpt><trkpt lat="45.65233455126206" lon="9.281667619678503"><ele>222.0</ele><time>2026-03-31T14:19:39Z</time></trkpt><trkpt lat="45.65229993300818" lon="9.281508629587341"><ele>222.0</ele><time>2026-03-31T14:19:41Z</time></trkpt><trkpt lat="45.65229746918231" lon="9.281410508577572"><ele>222.0</ele><time>2026-03-31T14:19:42Z</time></trkpt><trkpt lat="45.65229182041218" lon="9.281259724180252"><ele>222.0</ele><time>2026-03-31T14:19:44Z</time></trkpt><trkpt lat="45.65225522110988" lon="9.281172984239573"><ele>222.0</ele><time>2026-03-31T14:19:46Z</time></trkpt><trkpt lat="45.65218388616896" lon="9.281140237384363"><ele>222.0</ele><time>2026-03-31T14:19:48Z</time></trkpt><trkpt lat="45.65212239691047" lon="9.281103183563499"><ele>222.2</ele><time>2026-03-31T14:19:50Z</time></trkpt><trkpt lat="45.65204909831216" lon="9.281078494845255"><ele>222.39999999999998</ele><time>2026-03-31T14:19:52Z</time></trkpt><trkpt lat="45.65198664197288" lon="9.28104438922246"><ele>222.60000000000002</ele><time>2026-03-31T14:19:55Z</time></trkpt><trkpt lat="45.65199751450421" lon="9.280844832225776"><ele>222.8</ele><time>2026-03-31T14:19:57Z</time></trkpt><trkpt lat="45.65202496288218" lon="9.280694352843435"><ele>223.0</ele><time>2026-03-31T14:19:59Z</time></trkpt><trkpt lat="45.65215252886873" lon="9.28069327153352"><ele>222.99999999999997</ele><time>2026-03-31T14:20:03Z</time></trkpt><trkpt lat="45.652213980884795" lon="9.280719782078863"><ele>223.0</ele><time>2026-03-31T14:20:05Z</time></trkpt><trkpt lat="45.652275864757776" lon="9.280747624883524"><ele>223.0</ele><time>2026-03-31T14:20:08Z</time></trkpt><trkpt lat="45.65237622111731" lon="9.280771655320656"><ele>223.0</ele><time>2026-03-31T14:20:12Z</time></trkpt><trkpt lat="45.65248318375672" lon="9.280839585429263"><ele>222.99999999999997</ele><time>2026-03-31T14:20:13Z</time></trkpt><trkpt lat="45.65256808927767" lon="9.280885983049972"><ele>223.0</ele><time>2026-03-31T14:20:14Z</time></trkpt><trkpt lat="45.65266291495153" lon="9.280893987788518"><ele>223.0</ele><time>2026-03-31T14:20:16Z</time></trkpt><trkpt lat="45.65273505653662" lon="9.280922077702233"><ele>223.0</ele><time>2026-03-31T14:20:18Z</time></trkpt><trkpt lat="45.652816278352496" lon="9.28100971109906"><ele>223.0</ele><time>2026-03-31T14:20:20Z</time></trkpt><trkpt lat="45.652929035551544" lon="9.281068588858288"><ele>223.0</ele><time>2026-03-31T14:20:22Z</time></trkpt><trkpt lat="45.65304257746211" lon="9.281165547623806"><ele>223.0</ele><time>2026-03-31T14:20:24Z</time></trkpt><trkpt lat="45.65310853345183" lon="9.281215021003534"><ele>223.16666666666666</ele><time>2026-03-31T14:20:25Z</time></trkpt><trkpt lat="45.65317546251086" lon="9.281265398478595"><ele>223.33333333333331</ele><time>2026-03-31T14:20:26Z</time></trkpt><trkpt lat="45.6532420829059" lon="9.281318602129772"><ele>223.5</ele><time>2026-03-31T14:20:27Z</time></trkpt><trkpt lat="45.6533114175393" lon="9.281361894187231"><ele>223.66666666666669</ele><time>2026-03-31T14:20:28Z</time></trkpt><trkpt lat="45.65340623645812" lon="9.28147890841396"><ele>223.83333333333334</ele><time>2026-03-31T14:20:30Z</time></trkpt><trkpt lat="45.65346313610815" lon="9.281529324238225"><ele>224.0</ele><time>2026-03-31T14:20:31Z</time></trkpt><trkpt lat="45.653518302968784" lon="9.281580561133968"><ele>224.00000000000003</ele><time>2026-03-31T14:20:32Z</time></trkpt><trkpt lat="45.65358218161708" lon="9.281638937642713"><ele>224.0</ele><time>2026-03-31T14:20:33Z</time></trkpt><trkpt lat="45.65363720339827" lon="9.281682715377933"><ele>224.0</ele><time>2026-03-31T14:20:34Z</time></trkpt><trkpt lat="45.65374025898844" lon="9.281763069881489"><ele>224.0</ele><time>2026-03-31T14:20:36Z</time></trkpt><trkpt lat="45.653799233434725" lon="9.28181527994252"><ele>224.00000000000003</ele><time>2026-03-31T14:20:37Z</time></trkpt><trkpt lat="45.6538649100103" lon="9.281893346701173"><ele>224.0</ele><time>2026-03-31T14:20:38Z</time></trkpt><trkpt lat="45.65390136928947" lon="9.281991787936311"><ele>224.83333333333334</ele><time>2026-03-31T14:20:39Z</time></trkpt><trkpt lat="45.65394922587735" lon="9.28209634717733"><ele>225.66666666666669</ele><time>2026-03-31T14:20:40Z</time></trkpt><trkpt lat="45.653997818526754" lon="9.282223811026356"><ele>226.5</ele><time>2026-03-31T14:20:41Z</time></trkpt><trkpt lat="45.65403549193989" lon="9.282324763772158"><ele>227.33333333333331</ele><time>2026-03-31T14:20:42Z</time></trkpt><trkpt lat="45.65406677604349" lon="9.282405837650135"><ele>228.16666666666666</ele><time>2026-03-31T14:20:43Z</time></trkpt><trkpt lat="45.65411305578631" lon="9.282479611514008"><ele>229.0</ele><time>2026-03-31T14:20:44Z</time></trkpt><trkpt lat="45.65415767246692" lon="9.282573494614436"><ele>229.0</ele><time>2026-03-31T14:20:45Z</time></trkpt><trkpt lat="45.65420585538538" lon="9.282653919565217"><ele>228.99999999999997</ele><time>2026-03-31T14:20:46Z</time></trkpt><trkpt lat="45.65425929432269" lon="9.282716913640094"><ele>228.99999999999997</ele><time>2026-03-31T14:20:47Z</time></trkpt><trkpt lat="45.65434668660561" lon="9.282804409929375"><ele>229.0</ele><time>2026-03-31T14:20:49Z</time></trkpt><trkpt lat="45.65447368280746" lon="9.282847326517041"><ele>229.0</ele><time>2026-03-31T14:20:51Z</time></trkpt><trkpt lat="45.654540509735796" lon="9.282879131107352"><ele>230.66666666666666</ele><time>2026-03-31T14:20:52Z</time></trkpt><trkpt lat="45.654612854602135" lon="9.282921639345387"><ele>232.33333333333331</ele><time>2026-03-31T14:20:53Z</time></trkpt><trkpt lat="45.65468292095329" lon="9.282954760580635"><ele>234.0</ele><time>2026-03-31T14:20:54Z</time></trkpt><trkpt lat="45.654761472652474" lon="9.282994979009388"><ele>235.66666666666669</ele><time>2026-03-31T14:20:55Z</time></trkpt><trkpt lat="45.65482993539296" lon="9.283018933577297"><ele>237.33333333333334</ele><time>2026-03-31T14:20:57Z</time></trkpt><trkpt lat="45.65490536368763" lon="9.283035816705485"><ele>239.0</ele><time>2026-03-31T14:20:59Z</time></trkpt><trkpt lat="45.654983421471684" lon="9.283040410902434"><ele>239.0</ele><time>2026-03-31T14:21:00Z</time></trkpt><trkpt lat="45.65507183442646" lon="9.283062163345262"><ele>238.99999999999997</ele><time>2026-03-31T14:21:01Z</time></trkpt><trkpt lat="45.65516621159373" lon="9.283101465279724"><ele>238.99999999999997</ele><time>2026-03-31T14:21:02Z</time></trkpt><trkpt lat="45.655255755776935" lon="9.283154159741281"><ele>239.0</ele><time>2026-03-31T14:21:03Z</time></trkpt><trkpt lat="45.65534548727623" lon="9.283204526432662"><ele>239.0</ele><time>2026-03-31T14:21:04Z</time></trkpt><trkpt lat="45.655445429024276" lon="9.283265428728312"><ele>239.6</ele><time>2026-03-31T14:21:05Z</time></trkpt><trkpt lat="45.655554669036356" lon="9.283310174438025"><ele>240.2</ele><time>2026-03-31T14:21:06Z</time></trkpt><trkpt lat="45.65564562497535" lon="9.283340959303693"><ele>240.79999999999998</ele><time>2026-03-31T14:21:07Z</time></trkpt><trkpt lat="45.65571732018642" lon="9.283368591043244"><ele>241.39999999999998</ele><time>2026-03-31T14:21:08Z</time></trkpt><trkpt lat="45.65582169648074" lon="9.28340506701687"><ele>242.0</ele><time>2026-03-31T14:21:10Z</time></trkpt><trkpt lat="45.6558947261369" lon="9.28345059639364"><ele>242.00000000000003</ele><time>2026-03-31T14:21:12Z</time></trkpt><trkpt lat="45.65596284880509" lon="9.283481964532644"><ele>242.0</ele><time>2026-03-31T14:21:16Z</time></trkpt><trkpt lat="45.65602973175804" lon="9.283475095440359"><ele>242.0</ele><time>2026-03-31T14:21:26Z</time></trkpt><trkpt lat="45.6559970863301" lon="9.283383497136521"><ele>242.0</ele><time>2026-03-31T14:21:33Z</time></trkpt><trkpt lat="45.655929772783125" lon="9.283473926427579"><ele>242.00000000000003</ele><time>2026-03-31T14:21:37Z</time></trkpt><trkpt lat="45.65584527984453" lon="9.283604216973325"><ele>242.0</ele><time>2026-03-31T14:21:38Z</time></trkpt><trkpt lat="45.65580518237181" lon="9.28372586933825"><ele>242.0</ele><time>2026-03-31T14:21:39Z</time></trkpt><trkpt lat="45.655773843245775" lon="9.283861244658642"><ele>242.0</ele><time>2026-03-31T14:21:40Z</time></trkpt><trkpt lat="45.65571325720077" lon="9.284047482423476"><ele>242.0</ele><time>2026-03-31T14:21:41Z</time></trkpt><trkpt lat="45.655640400955896" lon="9.284217797233012"><ele>242.0</ele><time>2026-03-31T14:21:42Z</time></trkpt><trkpt lat="45.655583969363875" lon="9.284344453038281"><ele>242.16666666666669</ele><time>2026-03-31T14:21:43Z</time></trkpt><trkpt lat="45.6555324615319" lon="9.284448576839758"><ele>242.33333333333334</ele><time>2026-03-31T14:21:44Z</time></trkpt><trkpt lat="45.65549246057524" lon="9.284539857851138"><ele>242.5</ele><time>2026-03-31T14:21:45Z</time></trkpt><trkpt lat="45.655454720097254" lon="9.284659210234866"><ele>242.66666666666669</ele><time>2026-03-31T14:21:46Z</time></trkpt><trkpt lat="45.65542359347268" lon="9.28476474223454"><ele>242.83333333333334</ele><time>2026-03-31T14:21:47Z</time></trkpt><trkpt lat="45.65536174607623" lon="9.284887953604901"><ele>243.0</ele><time>2026-03-31T14:21:49Z</time></trkpt><trkpt lat="45.65531845860071" lon="9.28504319793681"><ele>243.0</ele><time>2026-03-31T14:21:51Z</time></trkpt><trkpt lat="45.65528882465225" lon="9.28514681367449"><ele>243.0</ele><time>2026-03-31T14:21:52Z</time></trkpt><trkpt lat="45.65526430480369" lon="9.285238345822016"><ele>243.0</ele><time>2026-03-31T14:21:53Z</time></trkpt><trkpt lat="45.65527470507653" lon="9.28532856871102"><ele>243.0</ele><time>2026-03-31T14:21:58Z</time></trkpt><trkpt lat="45.65535976163109" lon="9.285446606225813"><ele>243.0</ele><time>2026-03-31T14:22:01Z</time></trkpt><trkpt lat="45.655450977303175" lon="9.285494732128807"><ele>243.0</ele><time>2026-03-31T14:22:02Z</time></trkpt><trkpt lat="45.65554082911251" lon="9.285526347657308"><ele>243.0</ele><time>2026-03-31T14:22:03Z</time></trkpt><trkpt lat="45.655656679204796" lon="9.285583101295956"><ele>243.0</ele><time>2026-03-31T14:22:04Z</time></trkpt><trkpt lat="45.655768755678906" lon="9.28562654075322"><ele>243.0</ele><time>2026-03-31T14:22:05Z</time></trkpt><trkpt lat="45.65586721512715" lon="9.285676233736883"><ele>243.0</ele><time>2026-03-31T14:22:06Z</time></trkpt><trkpt lat="45.655980069033454" lon="9.285729255233608"><ele>242.2</ele><time>2026-03-31T14:22:07Z</time></trkpt><trkpt lat="45.656087362363685" lon="9.28577260606244"><ele>241.4</ele><time>2026-03-31T14:22:08Z</time></trkpt><trkpt lat="45.65618743394118" lon="9.285818704593563"><ele>240.59999999999997</ele><time>2026-03-31T14:22:09Z</time></trkpt><trkpt lat="45.65628554018229" lon="9.285868674396594"><ele>239.79999999999998</ele><time>2026-03-31T14:22:10Z</time></trkpt><trkpt lat="45.656381137036284" lon="9.28591023782008"><ele>239.0</ele><time>2026-03-31T14:22:11Z</time></trkpt><trkpt lat="45.656477486617774" lon="9.285959885571826"><ele>240.6</ele><time>2026-03-31T14:22:12Z</time></trkpt><trkpt lat="45.656575244053215" lon="9.286015417146572"><ele>242.2</ele><time>2026-03-31T14:22:13Z</time></trkpt><trkpt lat="45.65668018168036" lon="9.286048028414193"><ele>243.79999999999998</ele><time>2026-03-31T14:22:14Z</time></trkpt><trkpt lat="45.65676703698421" lon="9.286087894584686"><ele>245.39999999999998</ele><time>2026-03-31T14:22:15Z</time></trkpt><trkpt lat="45.656822512435355" lon="9.28613172471505"><ele>247.0</ele><time>2026-03-31T14:22:16Z</time></trkpt><trkpt lat="45.656918762537686" lon="9.28616507057633"><ele>246.6</ele><time>2026-03-31T14:22:18Z</time></trkpt><trkpt lat="45.656992698209656" lon="9.286211699097779"><ele>246.2</ele><time>2026-03-31T14:22:19Z</time></trkpt><trkpt lat="45.65707546342238" lon="9.286257909682272"><ele>245.8</ele><time>2026-03-31T14:22:20Z</time></trkpt><trkpt lat="45.65715855573667" lon="9.286304302905508"><ele>245.4</ele><time>2026-03-31T14:22:21Z</time></trkpt><trkpt lat="45.65725240824046" lon="9.286356703897136"><ele>245.0</ele><time>2026-03-31T14:22:22Z</time></trkpt><trkpt lat="45.657435402215235" lon="9.286003153187462"><ele>245.00000000000003</ele><time>2026-03-31T14:22:23Z</time></trkpt><trkpt lat="45.65750622406017" lon="9.285972041084985"><ele>245.0</ele><time>2026-03-31T14:22:24Z</time></trkpt><trkpt lat="45.6575813576403" lon="9.285940985406794"><ele>245.0</ele><time>2026-03-31T14:22:25Z</time></trkpt><trkpt lat="45.65765353494165" lon="9.285919874362062"><ele>245.0</ele><time>2026-03-31T14:22:26Z</time></trkpt><trkpt lat="45.65772935556247" lon="9.285870631569198"><ele>245.00000000000003</ele><time>2026-03-31T14:22:27Z</time></trkpt><trkpt lat="45.65782193339174" lon="9.285783953967622"><ele>245.0</ele><time>2026-03-31T14:22:28Z</time></trkpt><trkpt lat="45.657928747332676" lon="9.285660533028102"><ele>244.16666666666669</ele><time>2026-03-31T14:22:30Z</time></trkpt><trkpt lat="45.657985624732234" lon="9.285560662869385"><ele>243.33333333333334</ele><time>2026-03-31T14:22:31Z</time></trkpt><trkpt lat="45.658050303824" lon="9.28548141114746"><ele>242.5</ele><time>2026-03-31T14:22:32Z</time></trkpt><trkpt lat="45.65811662948057" lon="9.285411903762698"><ele>241.66666666666669</ele><time>2026-03-31T14:22:33Z</time></trkpt><trkpt lat="45.6581904976348" lon="9.28536516747778"><ele>240.83333333333334</ele><time>2026-03-31T14:22:34Z</time></trkpt><trkpt lat="45.658285515505845" lon="9.285342459302212"><ele>240.0</ele><time>2026-03-31T14:22:35Z</time></trkpt><trkpt lat="45.65840993040743" lon="9.285304552886133"><ele>240.0</ele><time>2026-03-31T14:22:36Z</time></trkpt><trkpt lat="45.65851883690198" lon="9.285283557241485"><ele>240.0</ele><time>2026-03-31T14:22:37Z</time></trkpt><trkpt lat="45.658620109118786" lon="9.28525883957248"><ele>240.0</ele><time>2026-03-31T14:22:38Z</time></trkpt><trkpt lat="45.65872393212544" lon="9.285241355023715"><ele>240.0</ele><time>2026-03-31T14:22:39Z</time></trkpt><trkpt lat="45.65882912069964" lon="9.285227170178688"><ele>240.0</ele><time>2026-03-31T14:22:40Z</time></trkpt><trkpt lat="45.65891486531507" lon="9.285215849291399"><ele>240.0</ele><time>2026-03-31T14:22:41Z</time></trkpt><trkpt lat="45.658986207608166" lon="9.285218209437089"><ele>240.0</ele><time>2026-03-31T14:22:42Z</time></trkpt><trkpt lat="45.65904925631589" lon="9.285243272991496"><ele>240.0</ele><time>2026-03-31T14:22:43Z</time></trkpt><trkpt lat="45.65912000345177" lon="9.285284439187395"><ele>240.0</ele><time>2026-03-31T14:22:44Z</time></trkpt><trkpt lat="45.659185029034134" lon="9.285313099417344"><ele>240.0</ele><time>2026-03-31T14:22:45Z</time></trkpt><trkpt lat="45.65930377735865" lon="9.285303810347608"><ele>240.0</ele><time>2026-03-31T14:22:47Z</time></trkpt><trkpt lat="45.65940814830337" lon="9.285305246517103"><ele>239.66666666666666</ele><time>2026-03-31T14:22:49Z</time></trkpt><trkpt lat="45.65950128207996" lon="9.285299168939941"><ele>239.33333333333331</ele><time>2026-03-31T14:22:51Z</time></trkpt><trkpt lat="45.659595036319246" lon="9.28529541480538"><ele>239.0</ele><time>2026-03-31T14:22:53Z</time></trkpt><trkpt lat="45.65965714804566" lon="9.285315135670928"><ele>238.66666666666666</ele><time>2026-03-31T14:22:55Z</time></trkpt><trkpt lat="45.659715543235926" lon="9.285366497004151"><ele>238.33333333333331</ele><time>2026-03-31T14:22:59Z</time></trkpt><trkpt lat="45.65980713576199" lon="9.28542886133397"><ele>238.0</ele><time>2026-03-31T14:23:01Z</time></trkpt><trkpt lat="45.65986214540421" lon="9.285544274685707"><ele>239.2</ele><time>2026-03-31T14:23:03Z</time></trkpt><trkpt lat="45.65994498797405" lon="9.285639801947577"><ele>240.4</ele><time>2026-03-31T14:23:05Z</time></trkpt><trkpt lat="45.6600545437691" lon="9.285686323776641"><ele>241.59999999999997</ele><time>2026-03-31T14:23:07Z</time></trkpt><trkpt lat="45.66016447539773" lon="9.285680188531098"><ele>242.79999999999998</ele><time>2026-03-31T14:23:09Z</time></trkpt><trkpt lat="45.66023746077999" lon="9.285659327453965"><ele>244.0</ele><time>2026-03-31T14:23:10Z</time></trkpt><trkpt lat="45.66031095334784" lon="9.28563328497089"><ele>244.33333333333331</ele><time>2026-03-31T14:23:11Z</time></trkpt><trkpt lat="45.660375850122385" lon="9.285612265084618"><ele>244.66666666666666</ele><time>2026-03-31T14:23:12Z</time></trkpt><trkpt lat="45.66048884006169" lon="9.28558485190749"><ele>245.0</ele><time>2026-03-31T14:23:14Z</time></trkpt><trkpt lat="45.66057784128507" lon="9.28558339067907"><ele>245.33333333333331</ele><time>2026-03-31T14:23:16Z</time></trkpt><trkpt lat="45.660627313012306" lon="9.285516891644939"><ele>245.66666666666666</ele><time>2026-03-31T14:23:19Z</time></trkpt><trkpt lat="45.66060814282253" lon="9.285396823761474"><ele>246.0</ele><time>2026-03-31T14:23:21Z</time></trkpt><trkpt lat="45.66059405578458" lon="9.285237015387857"><ele>245.16666666666666</ele><time>2026-03-31T14:23:23Z</time></trkpt><trkpt lat="45.660591938804835" lon="9.285074176760201"><ele>244.33333333333331</ele><time>2026-03-31T14:23:24Z</time></trkpt><trkpt lat="45.66057006198099" lon="9.284933335287223"><ele>243.5</ele><time>2026-03-31T14:23:25Z</time></trkpt><trkpt lat="45.66056087862612" lon="9.284816226057034"><ele>242.66666666666666</ele><time>2026-03-31T14:23:26Z</time></trkpt><trkpt lat="45.66055521500672" lon="9.284710289854313"><ele>241.83333333333331</ele><time>2026-03-31T14:23:27Z</time></trkpt><trkpt lat="45.66054818163196" lon="9.284606812154452"><ele>241.0</ele><time>2026-03-31T14:23:28Z</time></trkpt><trkpt lat="45.66055692813395" lon="9.284491980819945"><ele>240.8</ele><time>2026-03-31T14:23:29Z</time></trkpt><trkpt lat="45.660583013166" lon="9.2843516586987"><ele>240.60000000000002</ele><time>2026-03-31T14:23:30Z</time></trkpt><trkpt lat="45.66059690618242" lon="9.284176046196446"><ele>240.4</ele><time>2026-03-31T14:23:31Z</time></trkpt><trkpt lat="45.66059654787211" lon="9.284029138936269"><ele>240.2</ele><time>2026-03-31T14:23:32Z</time></trkpt><trkpt lat="45.66060508179622" lon="9.283911841025612"><ele>240.0</ele><time>2026-03-31T14:23:33Z</time></trkpt><trkpt lat="45.660625253824065" lon="9.283803940763862"><ele>240.0</ele><time>2026-03-31T14:23:34Z</time></trkpt><trkpt lat="45.66066619883153" lon="9.283707472333141"><ele>240.0</ele><time>2026-03-31T14:23:35Z</time></trkpt><trkpt lat="45.66071200012168" lon="9.28359024604843"><ele>240.0</ele><time>2026-03-31T14:23:36Z</time></trkpt><trkpt lat="45.66071965234854" lon="9.283478019799599"><ele>240.0</ele><time>2026-03-31T14:23:37Z</time></trkpt><trkpt lat="45.660692803794156" lon="9.283319501255203"><ele>240.0</ele><time>2026-03-31T14:23:38Z</time></trkpt><trkpt lat="45.66069642794097" lon="9.283177968440098"><ele>240.16666666666666</ele><time>2026-03-31T14:23:39Z</time></trkpt><trkpt lat="45.660699017873426" lon="9.283014053528705"><ele>240.33333333333331</ele><time>2026-03-31T14:23:41Z</time></trkpt><trkpt lat="45.6607240816883" lon="9.282909591223675"><ele>240.5</ele><time>2026-03-31T14:23:44Z</time></trkpt><trkpt lat="45.66079020484352" lon="9.282842727667667"><ele>240.66666666666666</ele><time>2026-03-31T14:23:46Z</time></trkpt><trkpt lat="45.66086254012382" lon="9.282803976406184"><ele>240.83333333333331</ele><time>2026-03-31T14:23:48Z</time></trkpt><trkpt lat="45.660918250793976" lon="9.282759412233954"><ele>241.0</ele><time>2026-03-31T14:23:51Z</time></trkpt><trkpt lat="45.66098260040194" lon="9.282718247526345"><ele>241.0</ele><time>2026-03-31T14:23:53Z</time></trkpt><trkpt lat="45.66104516215062" lon="9.282673510509454"><ele>241.00000000000003</ele><time>2026-03-31T14:23:55Z</time></trkpt><trkpt lat="45.66113077675922" lon="9.282632099718903"><ele>241.00000000000003</ele><time>2026-03-31T14:23:57Z</time></trkpt><trkpt lat="45.661213907157894" lon="9.282585606097227"><ele>241.0</ele><time>2026-03-31T14:23:59Z</time></trkpt><trkpt lat="45.661309768891" lon="9.28253409484617"><ele>241.0</ele><time>2026-03-31T14:24:01Z</time></trkpt><trkpt lat="45.66141239343971" lon="9.28249650254013"><ele>241.60000000000002</ele><time>2026-03-31T14:24:03Z</time></trkpt><trkpt lat="45.66150910503468" lon="9.282442670105642"><ele>242.20000000000002</ele><time>2026-03-31T14:24:05Z</time></trkpt><trkpt lat="45.661603257720714" lon="9.282381918907612"><ele>242.79999999999998</ele><time>2026-03-31T14:24:07Z</time></trkpt><trkpt lat="45.66170358122577" lon="9.282322867824812"><ele>243.39999999999998</ele><time>2026-03-31T14:24:09Z</time></trkpt><trkpt lat="45.66179338042707" lon="9.282260106968485"><ele>244.0</ele><time>2026-03-31T14:24:11Z</time></trkpt><trkpt lat="45.661877910703694" lon="9.2822038581145"><ele>243.99999999999997</ele><time>2026-03-31T14:24:13Z</time></trkpt><trkpt lat="45.661940392909244" lon="9.282178835744553"><ele>244.0</ele><time>2026-03-31T14:24:15Z</time></trkpt><trkpt lat="45.66201982889396" lon="9.282126480537215"><ele>244.0</ele><time>2026-03-31T14:24:18Z</time></trkpt><trkpt lat="45.662090990120646" lon="9.282079521155053"><ele>244.0</ele><time>2026-03-31T14:24:21Z</time></trkpt><trkpt lat="45.66218000909357" lon="9.282035995742257"><ele>243.99999999999997</ele><time>2026-03-31T14:24:24Z</time></trkpt><trkpt lat="45.66223989762776" lon="9.282000506361715"><ele>244.0</ele><time>2026-03-31T14:24:26Z</time></trkpt><trkpt lat="45.66229991295345" lon="9.281963492783783"><ele>244.66666666666666</ele><time>2026-03-31T14:24:28Z</time></trkpt><trkpt lat="45.66237562695088" lon="9.281920977510095"><ele>245.33333333333331</ele><time>2026-03-31T14:24:30Z</time></trkpt><trkpt lat="45.6624615821456" lon="9.281875016313926"><ele>246.0</ele><time>2026-03-31T14:24:33Z</time></trkpt><trkpt lat="45.662519317513045" lon="9.281831760101333"><ele>246.66666666666669</ele><time>2026-03-31T14:24:35Z</time></trkpt><trkpt lat="45.662582195672826" lon="9.281788909154555"><ele>247.33333333333334</ele><time>2026-03-31T14:24:37Z</time></trkpt><trkpt lat="45.66267337407805" lon="9.281734727801313"><ele>248.0</ele><time>2026-03-31T14:24:40Z</time></trkpt><trkpt lat="45.66273833350657" lon="9.281685878792532"><ele>249.00000000000003</ele><time>2026-03-31T14:24:42Z</time></trkpt><trkpt lat="45.662798413570215" lon="9.281658431908195"><ele>250.0</ele><time>2026-03-31T14:24:44Z</time></trkpt><trkpt lat="45.66287823398928" lon="9.281612365619598"><ele>251.0</ele><time>2026-03-31T14:24:47Z</time></trkpt><trkpt lat="45.66294865526783" lon="9.281596138495718"><ele>252.0</ele><time>2026-03-31T14:24:50Z</time></trkpt><trkpt lat="45.66302356925045" lon="9.28154680233003"><ele>253.00000000000003</ele><time>2026-03-31T14:24:53Z</time></trkpt><trkpt lat="45.663028831282034" lon="9.281448256804223"><ele>254.0</ele><time>2026-03-31T14:24:55Z</time></trkpt><trkpt lat="45.6630287171562" lon="9.281330346613892"><ele>254.00000000000003</ele><time>2026-03-31T14:24:57Z</time></trkpt><trkpt lat="45.66304125059055" lon="9.28121889435704"><ele>254.0</ele><time>2026-03-31T14:24:59Z</time></trkpt><trkpt lat="45.66308565323097" lon="9.281120991622679"><ele>254.0</ele><time>2026-03-31T14:25:02Z</time></trkpt><trkpt lat="45.66314312537924" lon="9.281014975529642"><ele>254.0</ele><time>2026-03-31T14:25:06Z</time></trkpt><trkpt lat="45.66320931337689" lon="9.280953231060346"><ele>254.00000000000003</ele><time>2026-03-31T14:25:08Z</time></trkpt><trkpt lat="45.66328071652627" lon="9.280922273535431"><ele>254.0</ele><time>2026-03-31T14:25:10Z</time></trkpt><trkpt lat="45.66337541694279" lon="9.280888410553732"><ele>254.0</ele><time>2026-03-31T14:25:12Z</time></trkpt><trkpt lat="45.66349215801536" lon="9.280858560475592"><ele>253.99999999999997</ele><time>2026-03-31T14:25:14Z</time></trkpt><trkpt lat="45.66358994026749" lon="9.280868788651985"><ele>253.99999999999997</ele><time>2026-03-31T14:25:15Z</time></trkpt><trkpt lat="45.66365717084351" lon="9.28088093102609"><ele>254.0</ele><time>2026-03-31T14:25:16Z</time></trkpt><trkpt lat="45.66377512735229" lon="9.280889870641063"><ele>254.0</ele><time>2026-03-31T14:25:18Z</time></trkpt><trkpt lat="45.66383536165515" lon="9.280863511180847"><ele>254.39999999999998</ele><time>2026-03-31T14:25:19Z</time></trkpt><trkpt lat="45.66396297742578" lon="9.280837703357161"><ele>254.79999999999998</ele><time>2026-03-31T14:25:21Z</time></trkpt><trkpt lat="45.66404747402261" lon="9.280875424730343"><ele>255.20000000000002</ele><time>2026-03-31T14:25:22Z</time></trkpt><trkpt lat="45.66412129523019" lon="9.280901443419998"><ele>255.60000000000002</ele><time>2026-03-31T14:25:23Z</time></trkpt><trkpt lat="45.664212919880576" lon="9.280983470625358"><ele>256.0</ele><time>2026-03-31T14:25:25Z</time></trkpt><trkpt lat="45.664262830020604" lon="9.28105217045239"><ele>256.0</ele><time>2026-03-31T14:25:26Z</time></trkpt><trkpt lat="45.66431026751666" lon="9.281133494135162"><ele>256.0</ele><time>2026-03-31T14:25:27Z</time></trkpt><trkpt lat="45.66435487819506" lon="9.28122968615844"><ele>256.0</ele><time>2026-03-31T14:25:28Z</time></trkpt><trkpt lat="45.66440451660941" lon="9.281375156201253"><ele>256.0</ele><time>2026-03-31T14:25:29Z</time></trkpt><trkpt lat="45.6644565453678" lon="9.28152154996505"><ele>256.0</ele><time>2026-03-31T14:25:30Z</time></trkpt><trkpt lat="45.66450484297562" lon="9.281629870469457"><ele>256.3333333333333</ele><time>2026-03-31T14:25:31Z</time></trkpt><trkpt lat="45.66455679021852" lon="9.281686154739893"><ele>256.66666666666663</ele><time>2026-03-31T14:25:32Z</time></trkpt><trkpt lat="45.66462194962524" lon="9.281726419046517"><ele>257.0</ele><time>2026-03-31T14:25:33Z</time></trkpt><trkpt lat="45.664712257021094" lon="9.281753666692286"><ele>257.3333333333333</ele><time>2026-03-31T14:25:34Z</time></trkpt><trkpt lat="45.66480458011587" lon="9.281801288356016"><ele>257.6666666666667</ele><time>2026-03-31T14:25:35Z</time></trkpt><trkpt lat="45.66487154205125" lon="9.2818533225082"><ele>258.0</ele><time>2026-03-31T14:25:36Z</time></trkpt><trkpt lat="45.664935852978154" lon="9.281907565218503"><ele>258.0</ele><time>2026-03-31T14:25:37Z</time></trkpt><trkpt lat="45.66503233429662" lon="9.28204247110101"><ele>258.0</ele><time>2026-03-31T14:25:39Z</time></trkpt><trkpt lat="45.66507369395369" lon="9.282138353747166"><ele>258.0</ele><time>2026-03-31T14:25:40Z</time></trkpt><trkpt lat="45.66511413446458" lon="9.28225636238043"><ele>258.0</ele><time>2026-03-31T14:25:41Z</time></trkpt><trkpt lat="45.66514813421576" lon="9.282348200582641"><ele>258.0</ele><time>2026-03-31T14:25:42Z</time></trkpt><trkpt lat="45.66518727998084" lon="9.282435676272888"><ele>258.0</ele><time>2026-03-31T14:25:43Z</time></trkpt><trkpt lat="45.66522811128185" lon="9.282566425801273"><ele>258.0</ele><time>2026-03-31T14:25:45Z</time></trkpt><trkpt lat="45.66526607888475" lon="9.282677552266195"><ele>258.0</ele><time>2026-03-31T14:25:47Z</time></trkpt><trkpt lat="45.665335909668954" lon="9.282813386595079"><ele>258.0</ele><time>2026-03-31T14:25:49Z</time></trkpt><trkpt lat="45.665387867395204" lon="9.282912313044127"><ele>258.0</ele><time>2026-03-31T14:25:51Z</time></trkpt><trkpt lat="45.665440820726005" lon="9.282977120328848"><ele>258.0</ele><time>2026-03-31T14:25:52Z</time></trkpt><trkpt lat="45.66552443235363" lon="9.283028116444822"><ele>258.0</ele><time>2026-03-31T14:25:53Z</time></trkpt><trkpt lat="45.665579913428445" lon="9.283123415166033"><ele>258.0</ele><time>2026-03-31T14:25:54Z</time></trkpt><trkpt lat="45.6656309752864" lon="9.283264283755432"><ele>258.0</ele><time>2026-03-31T14:25:55Z</time></trkpt><trkpt lat="45.665677989085665" lon="9.283405246678441"><ele>258.0</ele><time>2026-03-31T14:25:56Z</time></trkpt><trkpt lat="45.66572316699742" lon="9.283492148151675"><ele>258.8333333333333</ele><time>2026-03-31T14:25:57Z</time></trkpt><trkpt lat="45.66575393955566" lon="9.283589928874363"><ele>259.6666666666667</ele><time>2026-03-31T14:25:58Z</time></trkpt><trkpt lat="45.665780908895854" lon="9.283688916806687"><ele>260.5</ele><time>2026-03-31T14:25:59Z</time></trkpt><trkpt lat="45.66581660820375" lon="9.283785607428676"><ele>261.33333333333337</ele><time>2026-03-31T14:26:00Z</time></trkpt><trkpt lat="45.66583858026482" lon="9.283895238388961"><ele>262.1666666666667</ele><time>2026-03-31T14:26:01Z</time></trkpt><trkpt lat="45.665879750923516" lon="9.284018434279032"><ele>263.0</ele><time>2026-03-31T14:26:02Z</time></trkpt><trkpt lat="45.6659354785985" lon="9.28415338325918"><ele>263.0</ele><time>2026-03-31T14:26:03Z</time></trkpt><trkpt lat="45.66598710446865" lon="9.284311789436288"><ele>263.0</ele><time>2026-03-31T14:26:04Z</time></trkpt><trkpt lat="45.66601489340229" lon="9.284453998324103"><ele>263.0</ele><time>2026-03-31T14:26:05Z</time></trkpt><trkpt lat="45.66605818029837" lon="9.284554521203958"><ele>263.0</ele><time>2026-03-31T14:26:06Z</time></trkpt><trkpt lat="45.66614662928835" lon="9.284640301461476"><ele>263.0</ele><time>2026-03-31T14:26:07Z</time></trkpt><trkpt lat="45.66626510056107" lon="9.284748029536798"><ele>264.25</ele><time>2026-03-31T14:26:08Z</time></trkpt><trkpt lat="45.66635918357297" lon="9.284862704160263"><ele>265.5</ele><time>2026-03-31T14:26:09Z</time></trkpt><trkpt lat="45.666473236997575" lon="9.284978374199767"><ele>266.75</ele><time>2026-03-31T14:26:10Z</time></trkpt><trkpt lat="45.666533174393514" lon="9.285089967764353"><ele>268.0</ele><time>2026-03-31T14:26:11Z</time></trkpt><trkpt lat="45.666606975472675" lon="9.285164535021321"><ele>268.0</ele><time>2026-03-31T14:26:12Z</time></trkpt><trkpt lat="45.66668645285949" lon="9.285287201288835"><ele>268.0</ele><time>2026-03-31T14:26:13Z</time></trkpt><trkpt lat="45.66675229041385" lon="9.285417171478684"><ele>268.0</ele><time>2026-03-31T14:26:14Z</time></trkpt><trkpt lat="45.666807893613274" lon="9.28552240977872"><ele>268.0</ele><time>2026-03-31T14:26:15Z</time></trkpt><trkpt lat="45.666842478877605" lon="9.285628005001376"><ele>268.0</ele><time>2026-03-31T14:26:17Z</time></trkpt><trkpt lat="45.66682850190234" lon="9.285839115907246"><ele>268.75</ele><time>2026-03-31T14:26:19Z</time></trkpt><trkpt lat="45.66681587982886" lon="9.28600164166387"><ele>269.5</ele><time>2026-03-31T14:26:20Z</time></trkpt><trkpt lat="45.66680099782236" lon="9.286147472656209"><ele>270.25</ele><time>2026-03-31T14:26:21Z</time></trkpt><trkpt lat="45.666788460043676" lon="9.286390227004249"><ele>271.0</ele><time>2026-03-31T14:26:22Z</time></trkpt><trkpt lat="45.666749368372706" lon="9.286650545019755"><ele>271.2</ele><time>2026-03-31T14:26:23Z</time></trkpt><trkpt lat="45.66672432366952" lon="9.286866791099303"><ele>271.40000000000003</ele><time>2026-03-31T14:26:24Z</time></trkpt><trkpt lat="45.66672006121308" lon="9.287045450245454"><ele>271.6</ele><time>2026-03-31T14:26:25Z</time></trkpt><trkpt lat="45.666693486552816" lon="9.287168718120258"><ele>271.8</ele><time>2026-03-31T14:26:26Z</time></trkpt><trkpt lat="45.66670031753496" lon="9.287259892798806"><ele>272.0</ele><time>2026-03-31T14:26:27Z</time></trkpt><trkpt lat="45.6665870705492" lon="9.287306480520064"><ele>272.2</ele><time>2026-03-31T14:26:30Z</time></trkpt><trkpt lat="45.66647579562197" lon="9.287295230560913"><ele>272.4</ele><time>2026-03-31T14:26:31Z</time></trkpt><trkpt lat="45.666346043820916" lon="9.287295115048522"><ele>272.6</ele><time>2026-03-31T14:26:32Z</time></trkpt><trkpt lat="45.666239235479594" lon="9.287288998246375"><ele>272.8</ele><time>2026-03-31T14:26:33Z</time></trkpt><trkpt lat="45.66615161436886" lon="9.287283144758637"><ele>273.0</ele><time>2026-03-31T14:26:34Z</time></trkpt><trkpt lat="45.66608436057893" lon="9.287291056518583"><ele>272.75</ele><time>2026-03-31T14:26:35Z</time></trkpt><trkpt lat="45.66598813090359" lon="9.28726473274692"><ele>272.5</ele><time>2026-03-31T14:26:37Z</time></trkpt><trkpt lat="45.66586041273885" lon="9.28721605523005"><ele>272.25</ele><time>2026-03-31T14:26:39Z</time></trkpt><trkpt lat="45.66582357767984" lon="9.287020204668517"><ele>272.0</ele><time>2026-03-31T14:26:40Z</time></trkpt><trkpt lat="45.66574495090032" lon="9.28698678681369"><ele>272.0</ele><time>2026-03-31T14:26:41Z</time></trkpt><trkpt lat="45.66567834894937" lon="9.286969914314263"><ele>272.0</ele><time>2026-03-31T14:26:42Z</time></trkpt><trkpt lat="45.66561134185712" lon="9.286952939174368"><ele>272.0</ele><time>2026-03-31T14:26:43Z</time></trkpt><trkpt lat="45.66548446617163" lon="9.286895813881062"><ele>272.0</ele><time>2026-03-31T14:26:45Z</time></trkpt><trkpt lat="45.665367962373544" lon="9.28680116016168"><ele>272.0</ele><time>2026-03-31T14:26:47Z</time></trkpt><trkpt lat="45.66528986769039" lon="9.286752741465827"><ele>268.0</ele><time>2026-03-31T14:26:48Z</time></trkpt><trkpt lat="45.665201378761466" lon="9.286697878335936"><ele>264.0</ele><time>2026-03-31T14:26:49Z</time></trkpt><trkpt lat="45.664972717043604" lon="9.287137472291647"><ele>264.0</ele><time>2026-03-31T14:26:50Z</time></trkpt><trkpt lat="45.66489517931101" lon="9.287152882370577"><ele>264.0</ele><time>2026-03-31T14:26:51Z</time></trkpt><trkpt lat="45.66481723571308" lon="9.287157047479337"><ele>264.0</ele><time>2026-03-31T14:26:52Z</time></trkpt><trkpt lat="45.66473850186125" lon="9.287163130058634"><ele>264.0</ele><time>2026-03-31T14:26:53Z</time></trkpt><trkpt lat="45.66466556842323" lon="9.287164427142773"><ele>264.0</ele><time>2026-03-31T14:26:54Z</time></trkpt><trkpt lat="45.66458574382871" lon="9.287157293363792"><ele>264.0</ele><time>2026-03-31T14:26:55Z</time></trkpt><trkpt lat="45.66449553121533" lon="9.28715888236268"><ele>263.0</ele><time>2026-03-31T14:26:57Z</time></trkpt><trkpt lat="45.66440873056008" lon="9.287157515414995"><ele>262.0</ele><time>2026-03-31T14:27:00Z</time></trkpt><trkpt lat="45.66434414732898" lon="9.287151345035959"><ele>261.0</ele><time>2026-03-31T14:27:01Z</time></trkpt><trkpt lat="45.664277020787615" lon="9.28715144590272"><ele>260.0</ele><time>2026-03-31T14:27:02Z</time></trkpt><trkpt lat="45.6641769093051" lon="9.287139353037773"><ele>259.0</ele><time>2026-03-31T14:27:04Z</time></trkpt><trkpt lat="45.664051172631666" lon="9.287105796700276"><ele>258.0</ele><time>2026-03-31T14:27:06Z</time></trkpt><trkpt lat="45.663945291752235" lon="9.2871030962058"><ele>258.0</ele><time>2026-03-31T14:27:07Z</time></trkpt><trkpt lat="45.66385609167649" lon="9.287097597002903"><ele>258.0</ele><time>2026-03-31T14:27:08Z</time></trkpt><trkpt lat="45.663758217854465" lon="9.287090369378562"><ele>258.0</ele><time>2026-03-31T14:27:10Z</time></trkpt><trkpt lat="45.663695639107814" lon="9.287102448319375"><ele>258.0</ele><time>2026-03-31T14:27:13Z</time></trkpt><trkpt lat="45.66370106952225" lon="9.287257124520037"><ele>258.0</ele><time>2026-03-31T14:27:16Z</time></trkpt><trkpt lat="45.66370862677466" lon="9.287346662367968"><ele>258.0</ele><time>2026-03-31T14:27:17Z</time></trkpt><trkpt lat="45.663706034061676" lon="9.287465855830233"><ele>257.6666666666667</ele><time>2026-03-31T14:27:18Z</time></trkpt><trkpt lat="45.66370474191583" lon="9.287600628200725"><ele>257.3333333333333</ele><time>2026-03-31T14:27:19Z</time></trkpt><trkpt lat="45.66370565614765" lon="9.28774529711423"><ele>257.0</ele><time>2026-03-31T14:27:20Z</time></trkpt><trkpt lat="45.66370554373163" lon="9.287869257641416"><ele>256.66666666666663</ele><time>2026-03-31T14:27:21Z</time></trkpt><trkpt lat="45.66370611662233" lon="9.287973757735857"><ele>256.3333333333333</ele><time>2026-03-31T14:27:22Z</time></trkpt><trkpt lat="45.66369739980947" lon="9.288083309610236"><ele>256.0</ele><time>2026-03-31T14:27:23Z</time></trkpt><trkpt lat="45.66368403781244" lon="9.288190102987702"><ele>255.99999999999997</ele><time>2026-03-31T14:27:24Z</time></trkpt><trkpt lat="45.66367997733775" lon="9.288308440365368"><ele>256.0</ele><time>2026-03-31T14:27:25Z</time></trkpt><trkpt lat="45.663677887111575" lon="9.288403874433076"><ele>256.0</ele><time>2026-03-31T14:27:26Z</time></trkpt><trkpt lat="45.66367397381625" lon="9.288555088011458"><ele>256.0</ele><time>2026-03-31T14:27:28Z</time></trkpt><trkpt lat="45.66367231620689" lon="9.288650107199086"><ele>255.99999999999997</ele><time>2026-03-31T14:27:29Z</time></trkpt><trkpt lat="45.66367302594523" lon="9.2887846576368"><ele>256.0</ele><time>2026-03-31T14:27:31Z</time></trkpt><trkpt lat="45.663661047477255" lon="9.288887016791028"><ele>256.0</ele><time>2026-03-31T14:27:34Z</time></trkpt><trkpt lat="45.66375827606597" lon="9.289003636565402"><ele>256.0</ele><time>2026-03-31T14:27:38Z</time></trkpt><trkpt lat="45.663839175498715" lon="9.289005555747194"><ele>256.0</ele><time>2026-03-31T14:27:39Z</time></trkpt><trkpt lat="45.66394126921645" lon="9.289013502786327"><ele>256.0</ele><time>2026-03-31T14:27:40Z</time></trkpt><trkpt lat="45.66403980149566" lon="9.28901866041692"><ele>256.0</ele><time>2026-03-31T14:27:41Z</time></trkpt><trkpt lat="45.6641351334447" lon="9.289006362177576"><ele>256.0</ele><time>2026-03-31T14:27:42Z</time></trkpt><trkpt lat="45.66424652076352" lon="9.28904166987305"><ele>256.0</ele><time>2026-03-31T14:27:43Z</time></trkpt><trkpt lat="45.6643874657862" lon="9.289070490384042"><ele>256.0</ele><time>2026-03-31T14:27:44Z</time></trkpt><trkpt lat="45.66454060395728" lon="9.289090615269584"><ele>256.0</ele><time>2026-03-31T14:27:45Z</time></trkpt><trkpt lat="45.66470056862859" lon="9.289120730895068"><ele>257.3333333333333</ele><time>2026-03-31T14:27:46Z</time></trkpt><trkpt lat="45.664879586078094" lon="9.289138844613726"><ele>258.6666666666667</ele><time>2026-03-31T14:27:47Z</time></trkpt><trkpt lat="45.66505011106178" lon="9.289156820425589"><ele>260.0</ele><time>2026-03-31T14:27:48Z</time></trkpt><trkpt lat="45.66521079436364" lon="9.289184265688784"><ele>263.6666666666667</ele><time>2026-03-31T14:27:49Z</time></trkpt><trkpt lat="45.665373017496954" lon="9.289206631050696"><ele>267.3333333333333</ele><time>2026-03-31T14:27:50Z</time></trkpt><trkpt lat="45.66554363309371" lon="9.289232950627058"><ele>271.0</ele><time>2026-03-31T14:27:51Z</time></trkpt><trkpt lat="45.66569896930656" lon="9.289261436790316"><ele>271.0</ele><time>2026-03-31T14:27:52Z</time></trkpt><trkpt lat="45.665896549909164" lon="9.289276717956678"><ele>271.0</ele><time>2026-03-31T14:27:53Z</time></trkpt><trkpt lat="45.66604535714414" lon="9.289289311978056"><ele>271.0</ele><time>2026-03-31T14:27:53.999Z</time></trkpt><trkpt lat="45.666176677171464" lon="9.289301618941103"><ele>272.5</ele><time>2026-03-31T14:27:54.999Z</time></trkpt><trkpt lat="45.66631946105599" lon="9.289322653243543"><ele>274.0</ele><time>2026-03-31T14:27:55.999Z</time></trkpt><trkpt lat="45.66645833599719" lon="9.289335218112388"><ele>275.5</ele><time>2026-03-31T14:27:56.999Z</time></trkpt><trkpt lat="45.66657235121051" lon="9.289373072824997"><ele>277.0</ele><time>2026-03-31T14:27:58.999Z</time></trkpt><trkpt lat="45.66664292606767" lon="9.289387824144105"><ele>277.0</ele><time>2026-03-31T14:28:03.999Z</time></trkpt><trkpt lat="45.66685181097526" lon="9.289436766628617"><ele>277.0</ele><time>2026-03-31T14:28:38.999Z</time></trkpt><trkpt lat="45.66694422724875" lon="9.289465147728171"><ele>277.0</ele><time>2026-03-31T14:28:39.999Z</time></trkpt><trkpt lat="45.66705311187653" lon="9.289497101768273"><ele>277.0</ele><time>2026-03-31T14:28:40.999Z</time></trkpt><trkpt lat="45.66717644731168" lon="9.289514341965416"><ele>276.25</ele><time>2026-03-31T14:28:41.999Z</time></trkpt><trkpt lat="45.6672880783815" lon="9.289542682343196"><ele>275.5</ele><time>2026-03-31T14:28:42.999Z</time></trkpt><trkpt lat="45.66740462614235" lon="9.289573613958453"><ele>274.75</ele><time>2026-03-31T14:28:43.999Z</time></trkpt><trkpt lat="45.667535487325296" lon="9.28959030807407"><ele>274.0</ele><time>2026-03-31T14:28:44.999Z</time></trkpt><trkpt lat="45.66764716588816" lon="9.28962505377157"><ele>274.0</ele><time>2026-03-31T14:28:45.999Z</time></trkpt><trkpt lat="45.667770287375454" lon="9.289669980120397"><ele>274.0</ele><time>2026-03-31T14:28:46.999Z</time></trkpt><trkpt lat="45.66790649214664" lon="9.289731781678052"><ele>274.0</ele><time>2026-03-31T14:28:47.999Z</time></trkpt><trkpt lat="45.66809284410926" lon="9.289775882829506"><ele>273.75</ele><time>2026-03-31T14:28:48.999Z</time></trkpt><trkpt lat="45.6682322902083" lon="9.289813830293026"><ele>273.5</ele><time>2026-03-31T14:28:49.999Z</time></trkpt><trkpt lat="45.668365252587996" lon="9.289870478417875"><ele>273.25</ele><time>2026-03-31T14:28:50.999Z</time></trkpt><trkpt lat="45.668507240705644" lon="9.289892139406348"><ele>273.0</ele><time>2026-03-31T14:28:51.999Z</time></trkpt><trkpt lat="45.66866080972893" lon="9.28993211878435"><ele>273.0</ele><time>2026-03-31T14:28:52.999Z</time></trkpt><trkpt lat="45.66880594689271" lon="9.289968370941367"><ele>273.0</ele><time>2026-03-31T14:28:53.999Z</time></trkpt><trkpt lat="45.66895211862321" lon="9.290003707699718"><ele>273.0</ele><time>2026-03-31T14:28:54.999Z</time></trkpt><trkpt lat="45.66909866374604" lon="9.29004280944657"><ele>273.0</ele><time>2026-03-31T14:28:55.999Z</time></trkpt><trkpt lat="45.66923932121406" lon="9.290084273463641"><ele>273.0</ele><time>2026-03-31T14:28:56.999Z</time></trkpt><trkpt lat="45.669388554388256" lon="9.29012703612873"><ele>273.0</ele><time>2026-03-31T14:28:57.999Z</time></trkpt><trkpt lat="45.669537562804386" lon="9.290165494794678"><ele>273.0</ele><time>2026-03-31T14:28:58.999Z</time></trkpt><trkpt lat="45.669681087236306" lon="9.29020599337237"><ele>273.5</ele><time>2026-03-31T14:28:59.999Z</time></trkpt><trkpt lat="45.669826384791875" lon="9.290242894761656"><ele>274.0</ele><time>2026-03-31T14:29:00.999Z</time></trkpt><trkpt lat="45.669975529196165" lon="9.290283092033045"><ele>274.5</ele><time>2026-03-31T14:29:01.999Z</time></trkpt><trkpt lat="45.670121199442804" lon="9.290319202931435"><ele>275.0</ele><time>2026-03-31T14:29:02.999Z</time></trkpt><trkpt lat="45.67026795767769" lon="9.290354693963234"><ele>275.0</ele><time>2026-03-31T14:29:03.999Z</time></trkpt><trkpt lat="45.6704229486771" lon="9.290396122140569"><ele>275.0</ele><time>2026-03-31T14:29:04.999Z</time></trkpt><trkpt lat="45.67057586447537" lon="9.29043598003918"><ele>275.0</ele><time>2026-03-31T14:29:05.999Z</time></trkpt><trkpt lat="45.67073838574922" lon="9.29048105553012"><ele>275.0</ele><time>2026-03-31T14:29:06.999Z</time></trkpt><trkpt lat="45.67092946646206" lon="9.290516009596443"><ele>275.0</ele><time>2026-03-31T14:29:07.999Z</time></trkpt><trkpt lat="45.67113835663105" lon="9.29050276936856"><ele>275.0</ele><time>2026-03-31T14:29:08.999Z</time></trkpt><trkpt lat="45.671354322857354" lon="9.290446680137077"><ele>275.33333333333337</ele><time>2026-03-31T14:29:09.999Z</time></trkpt><trkpt lat="45.67155130236239" lon="9.290394132292166"><ele>275.6666666666667</ele><time>2026-03-31T14:29:10.999Z</time></trkpt><trkpt lat="45.671721708275946" lon="9.290358976073392"><ele>276.0</ele><time>2026-03-31T14:29:11.999Z</time></trkpt><trkpt lat="45.67188873182569" lon="9.290325779519836"><ele>278.0</ele><time>2026-03-31T14:29:12.999Z</time></trkpt><trkpt lat="45.67203214762535" lon="9.290299680668541"><ele>280.0</ele><time>2026-03-31T14:29:13.999Z</time></trkpt><trkpt lat="45.672166577030495" lon="9.29027795290418"><ele>282.0</ele><time>2026-03-31T14:29:14.999Z</time></trkpt><trkpt lat="45.67230538467323" lon="9.29024886203971"><ele>284.0</ele><time>2026-03-31T14:29:15.999Z</time></trkpt><trkpt lat="45.67242063457551" lon="9.290219749277664"><ele>284.0</ele><time>2026-03-31T14:29:16.999Z</time></trkpt><trkpt lat="45.67253627930006" lon="9.29019294083293"><ele>284.0</ele><time>2026-03-31T14:29:17.999Z</time></trkpt><trkpt lat="45.672643455720134" lon="9.290164643760452"><ele>284.0</ele><time>2026-03-31T14:29:18.999Z</time></trkpt><trkpt lat="45.67273035575905" lon="9.290144688294125"><ele>284.0</ele><time>2026-03-31T14:29:19.999Z</time></trkpt><trkpt lat="45.67282565338878" lon="9.2901474283584"><ele>284.0</ele><time>2026-03-31T14:29:21.999Z</time></trkpt><trkpt lat="45.67285184962369" lon="9.29039429255498"><ele>284.2</ele><time>2026-03-31T14:29:24.999Z</time></trkpt><trkpt lat="45.67284623415225" lon="9.290522393608718"><ele>284.4</ele><time>2026-03-31T14:29:25.999Z</time></trkpt><trkpt lat="45.67284143780415" lon="9.29063180875808"><ele>284.6</ele><time>2026-03-31T14:29:27Z</time></trkpt><trkpt lat="45.67284628153526" lon="9.290787255701414"><ele>284.8</ele><time>2026-03-31T14:29:28Z</time></trkpt><trkpt lat="45.672838152975714" lon="9.29094471108057"><ele>285.0</ele><time>2026-03-31T14:29:29Z</time></trkpt><trkpt lat="45.67282703222422" lon="9.291086028048474"><ele>284.6</ele><time>2026-03-31T14:29:30Z</time></trkpt><trkpt lat="45.672839698237574" lon="9.291205791529421"><ele>284.2</ele><time>2026-03-31T14:29:31Z</time></trkpt><trkpt lat="45.67283792214981" lon="9.291306987864612"><ele>283.8</ele><time>2026-03-31T14:29:32Z</time></trkpt><trkpt lat="45.67283329907446" lon="9.29142495593313"><ele>283.4</ele><time>2026-03-31T14:29:33Z</time></trkpt><trkpt lat="45.67282008401248" lon="9.291597087767471"><ele>283.0</ele><time>2026-03-31T14:29:34Z</time></trkpt><trkpt lat="45.672808829045515" lon="9.291779742435393"><ele>282.75</ele><time>2026-03-31T14:29:35Z</time></trkpt><trkpt lat="45.67278892300301" lon="9.291967456285427"><ele>282.5</ele><time>2026-03-31T14:29:36Z</time></trkpt><trkpt lat="45.67279224759567" lon="9.292172498778543"><ele>282.25</ele><time>2026-03-31T14:29:37Z</time></trkpt><trkpt lat="45.67278817655213" lon="9.29237696023613"><ele>282.0</ele><time>2026-03-31T14:29:38Z</time></trkpt><trkpt lat="45.67278235892847" lon="9.292576149776533"><ele>281.5</ele><time>2026-03-31T14:29:39Z</time></trkpt><trkpt lat="45.672809388525685" lon="9.29227937930153"><ele>281.0</ele><time>2026-03-31T14:29:40Z</time></trkpt><trkpt lat="45.672806895960456" lon="9.292450665447227"><ele>280.5</ele><time>2026-03-31T14:29:42Z</time></trkpt><trkpt lat="45.67280553611316" lon="9.292541384506107"><ele>280.0</ele><time>2026-03-31T14:29:43Z</time></trkpt><trkpt lat="45.67280269471234" lon="9.292693474692204"><ele>280.0</ele><time>2026-03-31T14:29:44Z</time></trkpt><trkpt lat="45.67280448452573" lon="9.292861183243597"><ele>280.0</ele><time>2026-03-31T14:29:45Z</time></trkpt><trkpt lat="45.672801241525846" lon="9.293040301321108"><ele>280.0</ele><time>2026-03-31T14:29:46Z</time></trkpt><trkpt lat="45.6727976839467" lon="9.293191144488954"><ele>280.0</ele><time>2026-03-31T14:29:47Z</time></trkpt><trkpt lat="45.672798239219645" lon="9.293311695318428"><ele>280.0</ele><time>2026-03-31T14:29:48Z</time></trkpt><trkpt lat="45.67279855075453" lon="9.293445802307053"><ele>279.8</ele><time>2026-03-31T14:29:49Z</time></trkpt><trkpt lat="45.67280209012399" lon="9.293558478910354"><ele>279.6</ele><time>2026-03-31T14:29:50Z</time></trkpt><trkpt lat="45.672801598197715" lon="9.293657995553923"><ele>279.4</ele><time>2026-03-31T14:29:51Z</time></trkpt><trkpt lat="45.67280581742836" lon="9.29376467357043"><ele>279.2</ele><time>2026-03-31T14:29:52Z</time></trkpt><trkpt lat="45.67282588698954" lon="9.293924150169232"><ele>279.0</ele><time>2026-03-31T14:29:53Z</time></trkpt><trkpt lat="45.67285511893431" lon="9.294111920674071"><ele>279.0</ele><time>2026-03-31T14:29:54Z</time></trkpt><trkpt lat="45.67287540480252" lon="9.294261766674671"><ele>279.0</ele><time>2026-03-31T14:29:55Z</time></trkpt><trkpt lat="45.67289516316399" lon="9.294412795837497"><ele>279.0</ele><time>2026-03-31T14:29:56Z</time></trkpt><trkpt lat="45.67290637919277" lon="9.294533782091834"><ele>279.0</ele><time>2026-03-31T14:29:57Z</time></trkpt><trkpt lat="45.67292169965913" lon="9.294667909346062"><ele>279.0</ele><time>2026-03-31T14:29:58Z</time></trkpt><trkpt lat="45.672936878323796" lon="9.294780363514064"><ele>279.0</ele><time>2026-03-31T14:29:59Z</time></trkpt><trkpt lat="45.67294252639142" lon="9.294900438363282"><ele>279.0</ele><time>2026-03-31T14:30:00Z</time></trkpt><trkpt lat="45.67293652293716" lon="9.294997210270429"><ele>279.0</ele><time>2026-03-31T14:30:01Z</time></trkpt><trkpt lat="45.673022215900225" lon="9.29506897698161"><ele>279.0</ele><time>2026-03-31T14:30:05Z</time></trkpt><trkpt lat="45.673089919163246" lon="9.295051376548827"><ele>279.0</ele><time>2026-03-31T14:30:07Z</time></trkpt><trkpt lat="45.67320674330526" lon="9.295080290491741"><ele>279.0</ele><time>2026-03-31T14:30:10Z</time></trkpt><trkpt lat="45.673277500146135" lon="9.295071089694346"><ele>279.0</ele><time>2026-03-31T14:30:11Z</time></trkpt><trkpt lat="45.67335843732041" lon="9.295060473553356"><ele>279.0</ele><time>2026-03-31T14:30:14Z</time></trkpt><trkpt lat="45.67343807020272" lon="9.295018778922188"><ele>279.0</ele><time>2026-03-31T14:30:20Z</time></trkpt><trkpt lat="45.67361342300136" lon="9.295017526888062"><ele>279.0</ele><time>2026-03-31T14:30:25Z</time></trkpt><trkpt lat="45.67371153253627" lon="9.294976412502061"><ele>279.0</ele><time>2026-03-31T14:30:27Z</time></trkpt><trkpt lat="45.673792567506126" lon="9.294936775851344"><ele>279.59999999999997</ele><time>2026-03-31T14:30:29Z</time></trkpt><trkpt lat="45.673891883069224" lon="9.294885002578697"><ele>280.2</ele><time>2026-03-31T14:30:31Z</time></trkpt><trkpt lat="45.67396355095307" lon="9.294822041370702"><ele>280.79999999999995</ele><time>2026-03-31T14:30:34Z</time></trkpt><trkpt lat="45.67406751633117" lon="9.294721066014159"><ele>281.4</ele><time>2026-03-31T14:30:37Z</time></trkpt><trkpt lat="45.67411530341744" lon="9.294658131551744"><ele>282.0</ele><time>2026-03-31T14:30:39Z</time></trkpt><trkpt lat="45.6741666992449" lon="9.294590559796967"><ele>282.8</ele><time>2026-03-31T14:30:41Z</time></trkpt><trkpt lat="45.674233309492834" lon="9.294508992271272"><ele>283.6</ele><time>2026-03-31T14:30:44Z</time></trkpt><trkpt lat="45.67432391754872" lon="9.294479068943216"><ele>284.40000000000003</ele><time>2026-03-31T14:30:47Z</time></trkpt><trkpt lat="45.67438221208717" lon="9.29443075229164"><ele>285.2</ele><time>2026-03-31T14:30:50Z</time></trkpt><trkpt lat="45.674556854953536" lon="9.294413187796106"><ele>286.0</ele><time>2026-03-31T14:30:54Z</time></trkpt><trkpt lat="45.67463018386783" lon="9.29442677456595"><ele>286.5</ele><time>2026-03-31T14:30:55Z</time></trkpt><trkpt lat="45.67471491876067" lon="9.294432972920145"><ele>287.0</ele><time>2026-03-31T14:30:56Z</time></trkpt><trkpt lat="45.67478384155503" lon="9.294436247369305"><ele>287.5</ele><time>2026-03-31T14:30:57Z</time></trkpt><trkpt lat="45.674868308385705" lon="9.294417776091091"><ele>288.0</ele><time>2026-03-31T14:30:59Z</time></trkpt><trkpt lat="45.67493599480336" lon="9.294290430425354"><ele>288.5</ele><time>2026-03-31T14:31:01Z</time></trkpt><trkpt lat="45.674970638140586" lon="9.294182217831928"><ele>289.0</ele><time>2026-03-31T14:31:02Z</time></trkpt><trkpt lat="45.674987206263296" lon="9.294039173671145"><ele>289.0</ele><time>2026-03-31T14:31:03Z</time></trkpt><trkpt lat="45.67503325650764" lon="9.293939852419353"><ele>289.0</ele><time>2026-03-31T14:31:04Z</time></trkpt><trkpt lat="45.67505304688364" lon="9.293839717239802"><ele>289.0</ele><time>2026-03-31T14:31:05Z</time></trkpt><trkpt lat="45.67510028948496" lon="9.293742645179305"><ele>289.0</ele><time>2026-03-31T14:31:06Z</time></trkpt><trkpt lat="45.675223126588406" lon="9.293822134490796"><ele>289.0</ele><time>2026-03-31T14:31:09Z</time></trkpt><trkpt lat="45.67529332540827" lon="9.293822216972233"><ele>289.0</ele><time>2026-03-31T14:31:10Z</time></trkpt><trkpt lat="45.6753821061788" lon="9.293849257955085"><ele>288.66666666666663</ele><time>2026-03-31T14:31:11Z</time></trkpt><trkpt lat="45.67548358414466" lon="9.29386915849527"><ele>288.3333333333333</ele><time>2026-03-31T14:31:12Z</time></trkpt><trkpt lat="45.675569255105785" lon="9.293877139060223"><ele>288.0</ele><time>2026-03-31T14:31:13Z</time></trkpt><trkpt lat="45.67565507263055" lon="9.293910398278479"><ele>287.6666666666667</ele><time>2026-03-31T14:31:14Z</time></trkpt><trkpt lat="45.675731937797096" lon="9.293897694869624"><ele>287.33333333333337</ele><time>2026-03-31T14:31:15Z</time></trkpt><trkpt lat="45.67580585466375" lon="9.293906121789037"><ele>287.0</ele><time>2026-03-31T14:31:16Z</time></trkpt><trkpt lat="45.67589263878399" lon="9.293899045516577"><ele>287.0</ele><time>2026-03-31T14:31:17Z</time></trkpt><trkpt lat="45.675987791043944" lon="9.293871748807229"><ele>287.0</ele><time>2026-03-31T14:31:18Z</time></trkpt><trkpt lat="45.67606539288586" lon="9.293853161148894"><ele>287.0</ele><time>2026-03-31T14:31:19Z</time></trkpt><trkpt lat="45.67614605585434" lon="9.293834239992101"><ele>287.0</ele><time>2026-03-31T14:31:20Z</time></trkpt><trkpt lat="45.67625495208646" lon="9.293809854253155"><ele>287.0</ele><time>2026-03-31T14:31:21Z</time></trkpt><trkpt lat="45.67634799573326" lon="9.293778522793348"><ele>287.2</ele><time>2026-03-31T14:31:22Z</time></trkpt><trkpt lat="45.67643030800348" lon="9.293756113725621"><ele>287.4</ele><time>2026-03-31T14:31:23Z</time></trkpt><trkpt lat="45.676511256172496" lon="9.293785480960304"><ele>287.6</ele><time>2026-03-31T14:31:24Z</time></trkpt><trkpt lat="45.67660840459283" lon="9.293793528667898"><ele>287.8</ele><time>2026-03-31T14:31:25Z</time></trkpt><trkpt lat="45.67672512354917" lon="9.293656472383308"><ele>288.0</ele><time>2026-03-31T14:31:26Z</time></trkpt><trkpt lat="45.67683486658714" lon="9.293632502747572"><ele>288.0</ele><time>2026-03-31T14:31:27Z</time></trkpt><trkpt lat="45.676925589192095" lon="9.293611928149648"><ele>288.0</ele><time>2026-03-31T14:31:28Z</time></trkpt><trkpt lat="45.67700544136055" lon="9.2935858219366"><ele>288.0</ele><time>2026-03-31T14:31:29Z</time></trkpt><trkpt lat="45.67707969408547" lon="9.293552584040553"><ele>288.0</ele><time>2026-03-31T14:31:30Z</time></trkpt><trkpt lat="45.67714705853554" lon="9.293506983965264"><ele>288.0</ele><time>2026-03-31T14:31:31Z</time></trkpt><trkpt lat="45.67722190822574" lon="9.293396551445284"><ele>288.0</ele><time>2026-03-31T14:31:33Z</time></trkpt><trkpt lat="45.67724148519291" lon="9.293222480514821"><ele>287.6666666666667</ele><time>2026-03-31T14:31:35Z</time></trkpt><trkpt lat="45.677230391683274" lon="9.29309215179203"><ele>287.3333333333333</ele><time>2026-03-31T14:31:36Z</time></trkpt><trkpt lat="45.677219949452024" lon="9.292944155359807"><ele>287.0</ele><time>2026-03-31T14:31:37Z</time></trkpt><trkpt lat="45.67722060778251" lon="9.292820561658155"><ele>286.66666666666663</ele><time>2026-03-31T14:31:38Z</time></trkpt><trkpt lat="45.677201970203114" lon="9.292709844823522"><ele>286.3333333333333</ele><time>2026-03-31T14:31:39Z</time></trkpt><trkpt lat="45.67718501645621" lon="9.292586470445595"><ele>286.0</ele><time>2026-03-31T14:31:40Z</time></trkpt><trkpt lat="45.67714664695163" lon="9.292437408412145"><ele>286.0</ele><time>2026-03-31T14:31:41Z</time></trkpt><trkpt lat="45.67711161599976" lon="9.292326560183056"><ele>286.0</ele><time>2026-03-31T14:31:42Z</time></trkpt><trkpt lat="45.677089912926355" lon="9.292231330162158"><ele>286.0</ele><time>2026-03-31T14:31:43Z</time></trkpt><trkpt lat="45.677090075141344" lon="9.292131090005002"><ele>286.0</ele><time>2026-03-31T14:31:44Z</time></trkpt><trkpt lat="45.67718235134511" lon="9.291995204298061"><ele>286.0</ele><time>2026-03-31T14:31:46Z</time></trkpt><trkpt lat="45.67726869672617" lon="9.291955083661698"><ele>286.0</ele><time>2026-03-31T14:31:47Z</time></trkpt><trkpt lat="45.6773743966361" lon="9.29192631924905"><ele>286.0</ele><time>2026-03-31T14:31:48Z</time></trkpt><trkpt lat="45.677486653827124" lon="9.29189364455587"><ele>286.0</ele><time>2026-03-31T14:31:49Z</time></trkpt><trkpt lat="45.67757813785111" lon="9.29186922482103"><ele>286.0</ele><time>2026-03-31T14:31:50Z</time></trkpt><trkpt lat="45.677667736757904" lon="9.291831314902003"><ele>286.0</ele><time>2026-03-31T14:31:51Z</time></trkpt><trkpt lat="45.67776231004482" lon="9.291787656769769"><ele>286.0</ele><time>2026-03-31T14:31:52Z</time></trkpt><trkpt lat="45.6778719869201" lon="9.291737812772052"><ele>287.0</ele><time>2026-03-31T14:31:53Z</time></trkpt><trkpt lat="45.67798106684323" lon="9.29168178837382"><ele>288.0</ele><time>2026-03-31T14:31:54Z</time></trkpt><trkpt lat="45.67809168994968" lon="9.291628210990664"><ele>289.0</ele><time>2026-03-31T14:31:55Z</time></trkpt><trkpt lat="45.67818688381791" lon="9.291581434603081"><ele>290.0</ele><time>2026-03-31T14:31:56Z</time></trkpt><trkpt lat="45.678282582056745" lon="9.291582157255188"><ele>291.0</ele><time>2026-03-31T14:31:57Z</time></trkpt><trkpt lat="45.678344266811315" lon="9.2915082149779"><ele>291.0</ele><time>2026-03-31T14:31:58Z</time></trkpt><trkpt lat="45.67840930023418" lon="9.291469618171993"><ele>291.0</ele><time>2026-03-31T14:31:59Z</time></trkpt><trkpt lat="45.67850622894994" lon="9.291391347328021"><ele>291.0</ele><time>2026-03-31T14:32:01Z</time></trkpt><trkpt lat="45.67859988765469" lon="9.291289924877136"><ele>291.0</ele><time>2026-03-31T14:32:02Z</time></trkpt><trkpt lat="45.67869562715543" lon="9.291203983443602"><ele>291.0</ele><time>2026-03-31T14:32:04Z</time></trkpt><trkpt lat="45.67876577094877" lon="9.291134919110776"><ele>292.0</ele><time>2026-03-31T14:32:06Z</time></trkpt><trkpt lat="45.678843116610054" lon="9.291068670893972"><ele>293.0</ele><time>2026-03-31T14:32:08Z</time></trkpt><trkpt lat="45.67896009947986" lon="9.29107199618162"><ele>294.0</ele><time>2026-03-31T14:32:10Z</time></trkpt><trkpt lat="45.67905795386496" lon="9.29106746058044"><ele>295.0</ele><time>2026-03-31T14:32:12Z</time></trkpt><trkpt lat="45.67916335619408" lon="9.291055820440365"><ele>296.0</ele><time>2026-03-31T14:32:14Z</time></trkpt><trkpt lat="45.67922643898052" lon="9.29107532695868"><ele>296.0</ele><time>2026-03-31T14:32:15Z</time></trkpt><trkpt lat="45.67931823887434" lon="9.291036739490048"><ele>296.0</ele><time>2026-03-31T14:32:16Z</time></trkpt><trkpt lat="45.67941908195632" lon="9.291003288381356"><ele>296.0</ele><time>2026-03-31T14:32:18Z</time></trkpt><trkpt lat="45.67948195638262" lon="9.29095627716196"><ele>296.0</ele><time>2026-03-31T14:32:23Z</time></trkpt><trkpt lat="45.67943497798865" lon="9.290822694329004"><ele>296.0</ele><time>2026-03-31T14:32:24Z</time></trkpt><trkpt lat="45.67939796864541" lon="9.290688798644714"><ele>296.0</ele><time>2026-03-31T14:32:26Z</time></trkpt><trkpt lat="45.679376428209906" lon="9.290596772454606"><ele>296.0</ele><time>2026-03-31T14:32:31Z</time></trkpt><trkpt lat="45.67956016558069" lon="9.29050566616533"><ele>296.0</ele><time>2026-03-31T14:32:35Z</time></trkpt><trkpt lat="45.679634817850015" lon="9.290475187236781"><ele>296.0</ele><time>2026-03-31T14:32:36Z</time></trkpt><trkpt lat="45.679704710323634" lon="9.290460820857003"><ele>296.0</ele><time>2026-03-31T14:32:37Z</time></trkpt><trkpt lat="45.67976869703406" lon="9.290451655890566"><ele>295.83333333333337</ele><time>2026-03-31T14:32:38Z</time></trkpt><trkpt lat="45.679853877137205" lon="9.29042919686394"><ele>295.6666666666667</ele><time>2026-03-31T14:32:40Z</time></trkpt><trkpt lat="45.67988592500093" lon="9.290333570009297"><ele>295.5</ele><time>2026-03-31T14:32:43Z</time></trkpt><trkpt lat="45.679853645819506" lon="9.290236166519847"><ele>295.3333333333333</ele><time>2026-03-31T14:32:58Z</time></trkpt><trkpt lat="45.67978936227368" lon="9.290152870571198"><ele>295.16666666666663</ele><time>2026-03-31T14:32:59Z</time></trkpt><trkpt lat="45.67970996407612" lon="9.2900582150731"><ele>295.0</ele><time>2026-03-31T14:33:00Z</time></trkpt><trkpt lat="45.67962331518567" lon="9.290001267510746"><ele>295.0</ele><time>2026-03-31T14:33:01Z</time></trkpt><trkpt lat="45.679532238938684" lon="9.28995729642485"><ele>295.0</ele><time>2026-03-31T14:33:02Z</time></trkpt><trkpt lat="45.679438074857316" lon="9.289885986048171"><ele>295.0</ele><time>2026-03-31T14:33:03Z</time></trkpt><trkpt lat="45.6793693306013" lon="9.289850972428601"><ele>295.0</ele><time>2026-03-31T14:33:04Z</time></trkpt><trkpt lat="45.67930758202023" lon="9.28979941882125"><ele>295.0</ele><time>2026-03-31T14:33:05Z</time></trkpt><trkpt lat="45.67924655629458" lon="9.289769146354516"><ele>295.0</ele><time>2026-03-31T14:33:06Z</time></trkpt><trkpt lat="45.67914000753812" lon="9.289693323861806"><ele>294.2</ele><time>2026-03-31T14:33:08Z</time></trkpt><trkpt lat="45.67904645894794" lon="9.289652500264477"><ele>293.4</ele><time>2026-03-31T14:33:10Z</time></trkpt><trkpt lat="45.67895621138592" lon="9.289613212540132"><ele>292.6</ele><time>2026-03-31T14:33:12Z</time></trkpt><trkpt lat="45.67890352508736" lon="9.289550302192172"><ele>291.8</ele><time>2026-03-31T14:33:15Z</time></trkpt><trkpt lat="45.67885365447293" lon="9.289445989031853"><ele>291.0</ele><time>2026-03-31T14:33:17Z</time></trkpt><trkpt lat="45.678856372701766" lon="9.28926951763134"><ele>291.0</ele><time>2026-03-31T14:33:19Z</time></trkpt><trkpt lat="45.67883594945194" lon="9.289142088108113"><ele>291.0</ele><time>2026-03-31T14:33:20Z</time></trkpt><trkpt lat="45.678827134278905" lon="9.289025727898096"><ele>291.0</ele><time>2026-03-31T14:33:21Z</time></trkpt><trkpt lat="45.678817418107556" lon="9.288897474407486"><ele>291.0</ele><time>2026-03-31T14:33:22Z</time></trkpt><trkpt lat="45.67880716311072" lon="9.288762108397494"><ele>291.0</ele><time>2026-03-31T14:33:23Z</time></trkpt><trkpt lat="45.67879646143042" lon="9.288620846951028"><ele>290.6</ele><time>2026-03-31T14:33:24Z</time></trkpt><trkpt lat="45.678783777481705" lon="9.288450178815838"><ele>290.20000000000005</ele><time>2026-03-31T14:33:25Z</time></trkpt><trkpt lat="45.678789147884736" lon="9.288306570534523"><ele>289.79999999999995</ele><time>2026-03-31T14:33:26Z</time></trkpt><trkpt lat="45.678763818414865" lon="9.28818247169617"><ele>289.4</ele><time>2026-03-31T14:33:27Z</time></trkpt><trkpt lat="45.678755012219796" lon="9.288064355819996"><ele>289.0</ele><time>2026-03-31T14:33:28Z</time></trkpt><trkpt lat="45.67874553198221" lon="9.287937199221902"><ele>288.59999999999997</ele><time>2026-03-31T14:33:29Z</time></trkpt><trkpt lat="45.67874012190481" lon="9.287821903870437"><ele>288.2</ele><time>2026-03-31T14:33:30Z</time></trkpt><trkpt lat="45.67873565251357" lon="9.287663323099087"><ele>287.79999999999995</ele><time>2026-03-31T14:33:32Z</time></trkpt><trkpt lat="45.67872722242423" lon="9.287570842150133"><ele>287.4</ele><time>2026-03-31T14:33:34Z</time></trkpt><trkpt lat="45.678907514452376" lon="9.287587329910593"><ele>287.0</ele><time>2026-03-31T14:33:35Z</time></trkpt><trkpt lat="45.67897437916582" lon="9.287565815151773"><ele>287.0</ele><time>2026-03-31T14:33:36Z</time></trkpt><trkpt lat="45.67905265104912" lon="9.287541521229379"><ele>287.0</ele><time>2026-03-31T14:33:37Z</time></trkpt><trkpt lat="45.67914525086322" lon="9.287488759943823"><ele>287.0</ele><time>2026-03-31T14:33:38Z</time></trkpt><trkpt lat="45.67924518556386" lon="9.287462504173648"><ele>287.0</ele><time>2026-03-31T14:33:39Z</time></trkpt><trkpt lat="45.6793465970428" lon="9.287443417007447"><ele>287.0</ele><time>2026-03-31T14:33:40Z</time></trkpt><trkpt lat="45.67947197559645" lon="9.287402565421184"><ele>287.25</ele><time>2026-03-31T14:33:41Z</time></trkpt><trkpt lat="45.679593821535015" lon="9.287360773312379"><ele>287.5</ele><time>2026-03-31T14:33:42Z</time></trkpt><trkpt lat="45.67972046839975" lon="9.287330929277404"><ele>287.75</ele><time>2026-03-31T14:33:43Z</time></trkpt><trkpt lat="45.67984989508217" lon="9.28728332420699"><ele>288.0</ele><time>2026-03-31T14:33:44Z</time></trkpt><trkpt lat="45.67997825946109" lon="9.287239567497842"><ele>288.0</ele><time>2026-03-31T14:33:45Z</time></trkpt><trkpt lat="45.68010689220753" lon="9.287203969187772"><ele>288.0</ele><time>2026-03-31T14:33:46Z</time></trkpt><trkpt lat="45.68023864454565" lon="9.28716162403808"><ele>288.0</ele><time>2026-03-31T14:33:47Z</time></trkpt><trkpt lat="45.68036785671045" lon="9.28711876228641"><ele>288.0</ele><time>2026-03-31T14:33:48Z</time></trkpt><trkpt lat="45.68049336336616" lon="9.287077513393154"><ele>288.2</ele><time>2026-03-31T14:33:49Z</time></trkpt><trkpt lat="45.68061169711793" lon="9.287036420906269"><ele>288.4</ele><time>2026-03-31T14:33:50Z</time></trkpt><trkpt lat="45.68071112064106" lon="9.287003383059028"><ele>288.59999999999997</ele><time>2026-03-31T14:33:51Z</time></trkpt><trkpt lat="45.6808027750246" lon="9.286973647779746"><ele>288.8</ele><time>2026-03-31T14:33:52Z</time></trkpt><trkpt lat="45.680883123460795" lon="9.28696089570181"><ele>289.0</ele><time>2026-03-31T14:33:53Z</time></trkpt><trkpt lat="45.68099480191637" lon="9.286952028276422"><ele>289.0</ele><time>2026-03-31T14:33:55Z</time></trkpt><trkpt lat="45.681079630832365" lon="9.28700113350761"><ele>289.0</ele><time>2026-03-31T14:33:57Z</time></trkpt><trkpt lat="45.68121345221882" lon="9.286818268823634"><ele>289.0</ele><time>2026-03-31T14:33:59Z</time></trkpt><trkpt lat="45.681274024945" lon="9.286727163523087"><ele>289.0</ele><time>2026-03-31T14:34:00Z</time></trkpt><trkpt lat="45.68135175754345" lon="9.286612699584012"><ele>289.5</ele><time>2026-03-31T14:34:01Z</time></trkpt><trkpt lat="45.68150047068242" lon="9.286544528356748"><ele>290.0</ele><time>2026-03-31T14:34:02Z</time></trkpt><trkpt lat="45.681624904726824" lon="9.286645105799126"><ele>290.5</ele><time>2026-03-31T14:34:03Z</time></trkpt><trkpt lat="45.68172984808506" lon="9.286634448555777"><ele>291.0</ele><time>2026-03-31T14:34:04Z</time></trkpt><trkpt lat="45.681845308540495" lon="9.2865968387362"><ele>292.0</ele><time>2026-03-31T14:34:05Z</time></trkpt><trkpt lat="45.681994752040524" lon="9.286560952293566"><ele>293.0</ele><time>2026-03-31T14:34:06Z</time></trkpt><trkpt lat="45.68215437242274" lon="9.286525669913043"><ele>294.0</ele><time>2026-03-31T14:34:07Z</time></trkpt><trkpt lat="45.68227385464276" lon="9.286499259623884"><ele>295.0</ele><time>2026-03-31T14:34:08Z</time></trkpt><trkpt lat="45.682399880995085" lon="9.286472059721898"><ele>295.0</ele><time>2026-03-31T14:34:09Z</time></trkpt><trkpt lat="45.68250254378819" lon="9.286431543709693"><ele>295.0</ele><time>2026-03-31T14:34:10Z</time></trkpt><trkpt lat="45.68259254476845" lon="9.286410478264711"><ele>295.0</ele><time>2026-03-31T14:34:11Z</time></trkpt><trkpt lat="45.68267862007654" lon="9.286400576915508"><ele>295.0</ele><time>2026-03-31T14:34:12Z</time></trkpt><trkpt lat="45.682781060304606" lon="9.286372305537114"><ele>295.0</ele><time>2026-03-31T14:34:13Z</time></trkpt><trkpt lat="45.68288372665104" lon="9.286324438580332"><ele>295.14285714285717</ele><time>2026-03-31T14:34:14Z</time></trkpt><trkpt lat="45.68295416221156" lon="9.28631018677505"><ele>295.2857142857143</ele><time>2026-03-31T14:34:15Z</time></trkpt><trkpt lat="45.68301838942027" lon="9.286288795705786"><ele>295.42857142857144</ele><time>2026-03-31T14:34:16Z</time></trkpt><trkpt lat="45.683082012443066" lon="9.286293311384357"><ele>295.57142857142856</ele><time>2026-03-31T14:34:17Z</time></trkpt><trkpt lat="45.68315003102465" lon="9.286277742776155"><ele>295.7142857142857</ele><time>2026-03-31T14:34:18Z</time></trkpt><trkpt lat="45.68321975830299" lon="9.286241842300951"><ele>295.8571428571429</ele><time>2026-03-31T14:34:19Z</time></trkpt><trkpt lat="45.683294729963166" lon="9.286225709539151"><ele>296.0</ele><time>2026-03-31T14:34:20Z</time></trkpt><trkpt lat="45.68337904422134" lon="9.286233512718532"><ele>296.0</ele><time>2026-03-31T14:34:21Z</time></trkpt><trkpt lat="45.68347940404125" lon="9.286213106670875"><ele>296.0</ele><time>2026-03-31T14:34:22Z</time></trkpt><trkpt lat="45.68356416978398" lon="9.286173957790194"><ele>296.0</ele><time>2026-03-31T14:34:23Z</time></trkpt><trkpt lat="45.683644431386504" lon="9.286173959496205"><ele>296.0</ele><time>2026-03-31T14:34:24Z</time></trkpt><trkpt lat="45.68372552435531" lon="9.286132402822345"><ele>296.0</ele><time>2026-03-31T14:34:25Z</time></trkpt><trkpt lat="45.68381285434451" lon="9.28613303731366"><ele>296.0</ele><time>2026-03-31T14:34:26Z</time></trkpt><trkpt lat="45.683897375592785" lon="9.286096058296959"><ele>296.1666666666667</ele><time>2026-03-31T14:34:27Z</time></trkpt><trkpt lat="45.68398723431957" lon="9.28607659849981"><ele>296.33333333333337</ele><time>2026-03-31T14:34:28Z</time></trkpt><trkpt lat="45.68406567128256" lon="9.286055522795905"><ele>296.5</ele><time>2026-03-31T14:34:29Z</time></trkpt><trkpt lat="45.684146874471416" lon="9.286036938616547"><ele>296.6666666666667</ele><time>2026-03-31T14:34:30Z</time></trkpt><trkpt lat="45.68422577522394" lon="9.28602997913691"><ele>296.8333333333333</ele><time>2026-03-31T14:34:31Z</time></trkpt><trkpt lat="45.6842978434612" lon="9.285987866657983"><ele>297.0</ele><time>2026-03-31T14:34:32Z</time></trkpt><trkpt lat="45.6843640910381" lon="9.285963926262813"><ele>297.6</ele><time>2026-03-31T14:34:33Z</time></trkpt><trkpt lat="45.68447313541399" lon="9.285928023776435"><ele>298.2</ele><time>2026-03-31T14:34:35Z</time></trkpt><trkpt lat="45.68458658254515" lon="9.2859143887719"><ele>298.8</ele><time>2026-03-31T14:34:37Z</time></trkpt><trkpt lat="45.684682404107896" lon="9.285872434889175"><ele>299.4</ele><time>2026-03-31T14:34:39Z</time></trkpt><trkpt lat="45.684773065971655" lon="9.285887064261852"><ele>300.0</ele><time>2026-03-31T14:34:41Z</time></trkpt><trkpt lat="45.68483625498978" lon="9.286003989706007"><ele>300.0</ele><time>2026-03-31T14:34:43Z</time></trkpt><trkpt lat="45.68487282035755" lon="9.286121183257125"><ele>300.0</ele><time>2026-03-31T14:34:44Z</time></trkpt><trkpt lat="45.68488761575449" lon="9.286281734639648"><ele>300.0</ele><time>2026-03-31T14:34:45Z</time></trkpt><trkpt lat="45.68489124869954" lon="9.286452610988565"><ele>300.0</ele><time>2026-03-31T14:34:46Z</time></trkpt><trkpt lat="45.684906261496415" lon="9.286625555730764"><ele>300.0</ele><time>2026-03-31T14:34:47Z</time></trkpt><trkpt lat="45.68490500640869" lon="9.286816575523932"><ele>300.2</ele><time>2026-03-31T14:34:48Z</time></trkpt><trkpt lat="45.68490514090943" lon="9.287001655560463"><ele>300.4</ele><time>2026-03-31T14:34:49Z</time></trkpt><trkpt lat="45.68489737079681" lon="9.287167859118508"><ele>300.6</ele><time>2026-03-31T14:34:50Z</time></trkpt><trkpt lat="45.6849097485314" lon="9.28730767623828"><ele>300.8</ele><time>2026-03-31T14:34:51Z</time></trkpt><trkpt lat="45.68492616776882" lon="9.28741731177435"><ele>301.0</ele><time>2026-03-31T14:34:52Z</time></trkpt><trkpt lat="45.68496920602844" lon="9.287542782695319"><ele>301.0</ele><time>2026-03-31T14:34:53Z</time></trkpt><trkpt lat="45.685035445202566" lon="9.287664850444319"><ele>301.0</ele><time>2026-03-31T14:34:54Z</time></trkpt><trkpt lat="45.68511544328032" lon="9.287788584661323"><ele>301.0</ele><time>2026-03-31T14:34:55Z</time></trkpt><trkpt lat="45.68520217637635" lon="9.287915237541833"><ele>301.0</ele><time>2026-03-31T14:34:56Z</time></trkpt><trkpt lat="45.68526794233674" lon="9.288010757142516"><ele>301.0</ele><time>2026-03-31T14:34:57Z</time></trkpt><trkpt lat="45.68530317543988" lon="9.288109738164044"><ele>301.0</ele><time>2026-03-31T14:34:58Z</time></trkpt><trkpt lat="45.68534452713952" lon="9.288193460439901"><ele>301.0</ele><time>2026-03-31T14:34:59Z</time></trkpt><trkpt lat="45.685385793478616" lon="9.288288860158934"><ele>301.0</ele><time>2026-03-31T14:35:00Z</time></trkpt><trkpt lat="45.68541620634139" lon="9.288379157124929"><ele>301.0</ele><time>2026-03-31T14:35:01Z</time></trkpt><trkpt lat="45.685437194940896" lon="9.288464479311527"><ele>301.0</ele><time>2026-03-31T14:35:02Z</time></trkpt><trkpt lat="45.68546337019666" lon="9.288581817980065"><ele>301.0</ele><time>2026-03-31T14:35:04Z</time></trkpt><trkpt lat="45.68556767372131" lon="9.288578046607645"><ele>301.0</ele><time>2026-03-31T14:35:07Z</time></trkpt><trkpt lat="45.68563889639765" lon="9.2887498636938"><ele>301.0</ele><time>2026-03-31T14:35:08Z</time></trkpt><trkpt lat="45.68572355792444" lon="9.288782318372691"><ele>301.0</ele><time>2026-03-31T14:35:09Z</time></trkpt><trkpt lat="45.685813087152084" lon="9.288815766408304"><ele>301.0</ele><time>2026-03-31T14:35:10Z</time></trkpt><trkpt lat="45.68592634612405" lon="9.288858949014548"><ele>301.0</ele><time>2026-03-31T14:35:11Z</time></trkpt><trkpt lat="45.686053075532115" lon="9.28892005320566"><ele>302.5</ele><time>2026-03-31T14:35:12Z</time></trkpt><trkpt lat="45.68617255283447" lon="9.288959808774875"><ele>304.0</ele><time>2026-03-31T14:35:13Z</time></trkpt><trkpt lat="45.686248549278716" lon="9.28899897797813"><ele>305.5</ele><time>2026-03-31T14:35:14Z</time></trkpt><trkpt lat="45.68632870447524" lon="9.289107125392416"><ele>307.0</ele><time>2026-03-31T14:35:16Z</time></trkpt><trkpt lat="45.68630478437257" lon="9.289312716631969"><ele>307.0</ele><time>2026-03-31T14:35:17Z</time></trkpt><trkpt lat="45.68632709730624" lon="9.289491959656655"><ele>307.0</ele><time>2026-03-31T14:35:18Z</time></trkpt><trkpt lat="45.68635262170639" lon="9.289678986765129"><ele>307.0</ele><time>2026-03-31T14:35:19Z</time></trkpt><trkpt lat="45.686362192441074" lon="9.28983037303909"><ele>307.0</ele><time>2026-03-31T14:35:20Z</time></trkpt><trkpt lat="45.68635489736757" lon="9.289971562824288"><ele>306.3333333333333</ele><time>2026-03-31T14:35:21Z</time></trkpt><trkpt lat="45.686319300443195" lon="9.29015473783327"><ele>305.6666666666667</ele><time>2026-03-31T14:35:22Z</time></trkpt><trkpt lat="45.686259805012966" lon="9.290369460563179"><ele>305.0</ele><time>2026-03-31T14:35:23Z</time></trkpt><trkpt lat="45.686200606815866" lon="9.290584283784712"><ele>305.25</ele><time>2026-03-31T14:35:24Z</time></trkpt><trkpt lat="45.686168266973326" lon="9.290781182569996"><ele>305.5</ele><time>2026-03-31T14:35:25Z</time></trkpt><trkpt lat="45.68612046535481" lon="9.290940116885917"><ele>305.75</ele><time>2026-03-31T14:35:26Z</time></trkpt><trkpt lat="45.6860767223873" lon="9.29108329721616"><ele>306.0</ele><time>2026-03-31T14:35:27Z</time></trkpt><trkpt lat="45.6860381050507" lon="9.291206278335537"><ele>305.8</ele><time>2026-03-31T14:35:28Z</time></trkpt><trkpt lat="45.68601518291012" lon="9.29133084523055"><ele>305.6</ele><time>2026-03-31T14:35:29Z</time></trkpt><trkpt lat="45.68599769591013" lon="9.291432426981821"><ele>305.4</ele><time>2026-03-31T14:35:30Z</time></trkpt><trkpt lat="45.685941941715626" lon="9.291505607770041"><ele>305.2</ele><time>2026-03-31T14:35:32Z</time></trkpt><trkpt lat="45.68608008406711" lon="9.291650359110465"><ele>305.0</ele><time>2026-03-31T14:35:33Z</time></trkpt><trkpt lat="45.686210201967" lon="9.291655752830037"><ele>305.0</ele><time>2026-03-31T14:35:34Z</time></trkpt><trkpt lat="45.686333185898256" lon="9.291609830325863"><ele>305.0</ele><time>2026-03-31T14:35:35Z</time></trkpt><trkpt lat="45.68646655204975" lon="9.29167626286128"><ele>305.0</ele><time>2026-03-31T14:35:36Z</time></trkpt><trkpt lat="45.68659091658499" lon="9.291679952839843"><ele>305.0</ele><time>2026-03-31T14:35:37Z</time></trkpt><trkpt lat="45.686721260603974" lon="9.291651178811856"><ele>305.0</ele><time>2026-03-31T14:35:38Z</time></trkpt><trkpt lat="45.68684640664196" lon="9.291595849980618"><ele>305.0</ele><time>2026-03-31T14:35:39Z</time></trkpt><trkpt lat="45.68696105839805" lon="9.291525410402528"><ele>305.0</ele><time>2026-03-31T14:35:40Z</time></trkpt><trkpt lat="45.687047330452856" lon="9.291448818434409"><ele>305.0</ele><time>2026-03-31T14:35:41Z</time></trkpt><trkpt lat="45.687176377116266" lon="9.291360400942851"><ele>306.4</ele><time>2026-03-31T14:35:42Z</time></trkpt><trkpt lat="45.68729070992986" lon="9.291263080348807"><ele>307.8</ele><time>2026-03-31T14:35:43Z</time></trkpt><trkpt lat="45.68739824444805" lon="9.291175918616354"><ele>309.2</ele><time>2026-03-31T14:35:44Z</time></trkpt><trkpt lat="45.68746890457485" lon="9.291136385641924"><ele>310.6</ele><time>2026-03-31T14:35:45Z</time></trkpt><trkpt lat="45.68753298513736" lon="9.291066880594919"><ele>312.0</ele><time>2026-03-31T14:35:46Z</time></trkpt><trkpt lat="45.68761039475194" lon="9.291080477707476"><ele>312.0</ele><time>2026-03-31T14:35:48Z</time></trkpt><trkpt lat="45.68767460078797" lon="9.291021938010916"><ele>312.0</ele><time>2026-03-31T14:35:50Z</time></trkpt><trkpt lat="45.68777846160128" lon="9.291199082055249"><ele>312.0</ele><time>2026-03-31T14:35:51Z</time></trkpt><trkpt lat="45.687877997043024" lon="9.291274789463666"><ele>312.0</ele><time>2026-03-31T14:35:52Z</time></trkpt><trkpt lat="45.68800831575016" lon="9.291363462876898"><ele>311.5</ele><time>2026-03-31T14:35:53Z</time></trkpt><trkpt lat="45.68812773878835" lon="9.291453568349093"><ele>311.0</ele><time>2026-03-31T14:35:54Z</time></trkpt><trkpt lat="45.68823828806187" lon="9.291547590367916"><ele>310.5</ele><time>2026-03-31T14:35:55Z</time></trkpt><trkpt lat="45.688352733715355" lon="9.29163539613114"><ele>310.0</ele><time>2026-03-31T14:35:56Z</time></trkpt><trkpt lat="45.68847067887828" lon="9.291729665465635"><ele>310.0</ele><time>2026-03-31T14:35:57Z</time></trkpt><trkpt lat="45.68856445082571" lon="9.291796967875301"><ele>310.0</ele><time>2026-03-31T14:35:58Z</time></trkpt><trkpt lat="45.688651572791755" lon="9.291825214129823"><ele>310.0</ele><time>2026-03-31T14:35:59Z</time></trkpt><trkpt lat="45.68872767780205" lon="9.291813754417866"><ele>310.0</ele><time>2026-03-31T14:36:00Z</time></trkpt><trkpt lat="45.688800170136666" lon="9.291754566719623"><ele>310.0</ele><time>2026-03-31T14:36:01Z</time></trkpt><trkpt lat="45.68886779084514" lon="9.291652130539617"><ele>310.25</ele><time>2026-03-31T14:36:02Z</time></trkpt><trkpt lat="45.68894605324999" lon="9.291494403267535"><ele>310.5</ele><time>2026-03-31T14:36:03Z</time></trkpt><trkpt lat="45.689031319366144" lon="9.291342888126426"><ele>310.75</ele><time>2026-03-31T14:36:04Z</time></trkpt><trkpt lat="45.689141587232314" lon="9.29122901996561"><ele>311.0</ele><time>2026-03-31T14:36:05Z</time></trkpt><trkpt lat="45.68926858119847" lon="9.291129318062215"><ele>311.5</ele><time>2026-03-31T14:36:06Z</time></trkpt><trkpt lat="45.68939455708205" lon="9.291026362193435"><ele>312.0</ele><time>2026-03-31T14:36:07Z</time></trkpt><trkpt lat="45.68952464371537" lon="9.290910304131371"><ele>312.5</ele><time>2026-03-31T14:36:08Z</time></trkpt><trkpt lat="45.689636351517734" lon="9.290813413648378"><ele>313.0</ele><time>2026-03-31T14:36:09Z</time></trkpt><trkpt lat="45.68973694976147" lon="9.290744648788621"><ele>313.2</ele><time>2026-03-31T14:36:10Z</time></trkpt><trkpt lat="45.68980961292624" lon="9.29068995559909"><ele>313.4</ele><time>2026-03-31T14:36:11Z</time></trkpt><trkpt lat="45.6898871300298" lon="9.290659592019622"><ele>313.59999999999997</ele><time>2026-03-31T14:36:12Z</time></trkpt><trkpt lat="45.68999916951712" lon="9.290681498913687"><ele>313.8</ele><time>2026-03-31T14:36:13Z</time></trkpt><trkpt lat="45.69009694588578" lon="9.290668082699467"><ele>314.0</ele><time>2026-03-31T14:36:14Z</time></trkpt><trkpt lat="45.69018063022225" lon="9.290647718605193"><ele>313.2</ele><time>2026-03-31T14:36:15Z</time></trkpt><trkpt lat="45.69026684467574" lon="9.290684035973676"><ele>312.4</ele><time>2026-03-31T14:36:17Z</time></trkpt><trkpt lat="45.69033366793462" lon="9.290847075567902"><ele>311.6</ele><time>2026-03-31T14:36:20Z</time></trkpt><trkpt lat="45.69037094611289" lon="9.290981482928542"><ele>310.8</ele><time>2026-03-31T14:36:21Z</time></trkpt><trkpt lat="45.69043359548661" lon="9.291124974828547"><ele>310.0</ele><time>2026-03-31T14:36:22Z</time></trkpt><trkpt lat="45.69052805326136" lon="9.291242144693369"><ele>310.0</ele><time>2026-03-31T14:36:23Z</time></trkpt><trkpt lat="45.690620502561806" lon="9.291335402669654"><ele>310.0</ele><time>2026-03-31T14:36:24Z</time></trkpt><trkpt lat="45.69071330323294" lon="9.29141179368257"><ele>310.0</ele><time>2026-03-31T14:36:25Z</time></trkpt><trkpt lat="45.690812868818924" lon="9.291496256265182"><ele>310.0</ele><time>2026-03-31T14:36:26Z</time></trkpt><trkpt lat="45.690894327301145" lon="9.291594669353836"><ele>310.0</ele><time>2026-03-31T14:36:27Z</time></trkpt><trkpt lat="45.690964822707194" lon="9.291662424238899"><ele>309.4</ele><time>2026-03-31T14:36:28Z</time></trkpt><trkpt lat="45.6910500725254" lon="9.29174315687799"><ele>308.8</ele><time>2026-03-31T14:36:29Z</time></trkpt><trkpt lat="45.69112698121231" lon="9.29181610491858"><ele>308.2</ele><time>2026-03-31T14:36:30Z</time></trkpt><trkpt lat="45.69123356698816" lon="9.291890286394041"><ele>307.6</ele><time>2026-03-31T14:36:31Z</time></trkpt><trkpt lat="45.691334988157934" lon="9.291993235739461"><ele>307.0</ele><time>2026-03-31T14:36:32Z</time></trkpt><trkpt lat="45.691440087337256" lon="9.292095560295886"><ele>306.75</ele><time>2026-03-31T14:36:33Z</time></trkpt><trkpt lat="45.69154206948655" lon="9.29218623211408"><ele>306.5</ele><time>2026-03-31T14:36:34Z</time></trkpt><trkpt lat="45.69164280175689" lon="9.292278301026826"><ele>306.25</ele><time>2026-03-31T14:36:35Z</time></trkpt><trkpt lat="45.69174196888581" lon="9.292369417084162"><ele>306.0</ele><time>2026-03-31T14:36:36Z</time></trkpt><trkpt lat="45.69183650883295" lon="9.292456395689959"><ele>307.0</ele><time>2026-03-31T14:36:37Z</time></trkpt><trkpt lat="45.6919244573869" lon="9.292532048429775"><ele>308.0</ele><time>2026-03-31T14:36:38Z</time></trkpt><trkpt lat="45.692023230063654" lon="9.292588494056485"><ele>309.0</ele><time>2026-03-31T14:36:39Z</time></trkpt><trkpt lat="45.69212358169523" lon="9.29263172433843"><ele>310.0</ele><time>2026-03-31T14:36:40Z</time></trkpt><trkpt lat="45.69221519653096" lon="9.292640543193842"><ele>311.0</ele><time>2026-03-31T14:36:41Z</time></trkpt><trkpt lat="45.69228346003113" lon="9.29263588870062"><ele>311.0</ele><time>2026-03-31T14:36:42Z</time></trkpt><trkpt lat="45.69215579897744" lon="9.292790750898419"><ele>311.0</ele><time>2026-03-31T14:36:48Z</time></trkpt><trkpt lat="45.692073918302604" lon="9.292835183432706"><ele>311.0</ele><time>2026-03-31T14:36:49Z</time></trkpt><trkpt lat="45.69199660242734" lon="9.29288210295054"><ele>311.0</ele><time>2026-03-31T14:36:50Z</time></trkpt><trkpt lat="45.691895758180024" lon="9.292930207476063"><ele>311.0</ele><time>2026-03-31T14:36:52Z</time></trkpt><trkpt lat="45.69183659522038" lon="9.293015731242889"><ele>308.25</ele><time>2026-03-31T14:36:54Z</time></trkpt><trkpt lat="45.69180945892255" lon="9.293157153967485"><ele>305.5</ele><time>2026-03-31T14:36:56Z</time></trkpt><trkpt lat="45.69181510918201" lon="9.293312830470027"><ele>302.75</ele><time>2026-03-31T14:36:58Z</time></trkpt><trkpt lat="45.691862342099796" lon="9.293506288233612"><ele>300.0</ele><time>2026-03-31T14:37:00Z</time></trkpt><trkpt lat="45.69190720731926" lon="9.29364672148088"><ele>301.4</ele><time>2026-03-31T14:37:01Z</time></trkpt><trkpt lat="45.691958204649765" lon="9.293803706679103"><ele>302.8</ele><time>2026-03-31T14:37:02Z</time></trkpt><trkpt lat="45.69200435961523" lon="9.29395021597739"><ele>304.2</ele><time>2026-03-31T14:37:03Z</time></trkpt><trkpt lat="45.6920354144869" lon="9.294085718389105"><ele>305.6</ele><time>2026-03-31T14:37:04Z</time></trkpt><trkpt lat="45.692059165972296" lon="9.29422131457954"><ele>307.0</ele><time>2026-03-31T14:37:05Z</time></trkpt><trkpt lat="45.69207230535776" lon="9.294347224003825"><ele>307.0</ele><time>2026-03-31T14:37:06Z</time></trkpt><trkpt lat="45.69208360439257" lon="9.294464594431362"><ele>307.0</ele><time>2026-03-31T14:37:07Z</time></trkpt><trkpt lat="45.69210067596873" lon="9.29456843557751"><ele>307.0</ele><time>2026-03-31T14:37:08Z</time></trkpt><trkpt lat="45.69214347211917" lon="9.294659171568696"><ele>307.0</ele><time>2026-03-31T14:37:09Z</time></trkpt><trkpt lat="45.692212521285015" lon="9.294754017612211"><ele>307.0</ele><time>2026-03-31T14:37:10Z</time></trkpt><trkpt lat="45.69229320333257" lon="9.294852122289878"><ele>307.0</ele><time>2026-03-31T14:37:11Z</time></trkpt><trkpt lat="45.69237941668213" lon="9.294960501356256"><ele>307.3333333333333</ele><time>2026-03-31T14:37:12Z</time></trkpt><trkpt lat="45.692454851948646" lon="9.295052741713976"><ele>307.66666666666663</ele><time>2026-03-31T14:37:13Z</time></trkpt><trkpt lat="45.69252929024616" lon="9.29512018176978"><ele>308.0</ele><time>2026-03-31T14:37:14Z</time></trkpt><trkpt lat="45.69261640973927" lon="9.295192652507554"><ele>308.3333333333333</ele><time>2026-03-31T14:37:15Z</time></trkpt><trkpt lat="45.69268174519227" lon="9.295262468534721"><ele>308.6666666666667</ele><time>2026-03-31T14:37:16Z</time></trkpt><trkpt lat="45.69273050953701" lon="9.295329467106322"><ele>309.0</ele><time>2026-03-31T14:37:17Z</time></trkpt><trkpt lat="45.692764418573155" lon="9.295413915313851"><ele>309.0</ele><time>2026-03-31T14:37:18Z</time></trkpt><trkpt lat="45.69280032670325" lon="9.29554021800287"><ele>309.0</ele><time>2026-03-31T14:37:19Z</time></trkpt><trkpt lat="45.692828247387986" lon="9.295683668961386"><ele>309.0</ele><time>2026-03-31T14:37:20Z</time></trkpt><trkpt lat="45.69286744442211" lon="9.295776377989652"><ele>309.0</ele><time>2026-03-31T14:37:21Z</time></trkpt><trkpt lat="45.692930311754" lon="9.295849286563291"><ele>309.0</ele><time>2026-03-31T14:37:22Z</time></trkpt><trkpt lat="45.69301039435361" lon="9.295909165431576"><ele>309.0</ele><time>2026-03-31T14:37:23Z</time></trkpt><trkpt lat="45.693096421428486" lon="9.295965889522495"><ele>309.0</ele><time>2026-03-31T14:37:24Z</time></trkpt><trkpt lat="45.69316531487138" lon="9.296007422957551"><ele>309.0</ele><time>2026-03-31T14:37:25Z</time></trkpt><trkpt lat="45.69323540484682" lon="9.296058397386675"><ele>309.0</ele><time>2026-03-31T14:37:26Z</time></trkpt><trkpt lat="45.69333150631971" lon="9.296145958061373"><ele>309.0</ele><time>2026-03-31T14:37:27Z</time></trkpt><trkpt lat="45.69340301418622" lon="9.296204074737444"><ele>309.0</ele><time>2026-03-31T14:37:28Z</time></trkpt><trkpt lat="45.69347275239072" lon="9.2962481067905"><ele>309.0</ele><time>2026-03-31T14:37:29Z</time></trkpt><trkpt lat="45.69354464856914" lon="9.296337056941637"><ele>310.59999999999997</ele><time>2026-03-31T14:37:30Z</time></trkpt><trkpt lat="45.69362392223994" lon="9.296454008554077"><ele>312.2</ele><time>2026-03-31T14:37:31Z</time></trkpt><trkpt lat="45.693689988026904" lon="9.296559314291652"><ele>313.79999999999995</ele><time>2026-03-31T14:37:32Z</time></trkpt><trkpt lat="45.69374473649418" lon="9.29666825611792"><ele>315.4</ele><time>2026-03-31T14:37:33Z</time></trkpt><trkpt lat="45.69379894605303" lon="9.29678224549153"><ele>317.0</ele><time>2026-03-31T14:37:34Z</time></trkpt><trkpt lat="45.69384935662752" lon="9.296895920487875"><ele>317.0</ele><time>2026-03-31T14:37:35Z</time></trkpt><trkpt lat="45.69389700525573" lon="9.296990470054524"><ele>317.0</ele><time>2026-03-31T14:37:36Z</time></trkpt><trkpt lat="45.693964667689116" lon="9.297045506759437"><ele>317.0</ele><time>2026-03-31T14:37:38Z</time></trkpt><trkpt lat="45.69407704934384" lon="9.297020256720069"><ele>317.0</ele><time>2026-03-31T14:37:41Z</time></trkpt><trkpt lat="45.694144986529984" lon="9.29697200476952"><ele>317.0</ele><time>2026-03-31T14:37:42Z</time></trkpt><trkpt lat="45.694243308485206" lon="9.296912296434101"><ele>317.0</ele><time>2026-03-31T14:37:42.999Z</time></trkpt><trkpt lat="45.69435496719602" lon="9.296857256679703"><ele>317.0</ele><time>2026-03-31T14:37:43.999Z</time></trkpt><trkpt lat="45.69447231323388" lon="9.29678770143643"><ele>317.0</ele><time>2026-03-31T14:37:44.999Z</time></trkpt><trkpt lat="45.694601643462" lon="9.296722277217501"><ele>317.0</ele><time>2026-03-31T14:37:45.999Z</time></trkpt><trkpt lat="45.69470952429586" lon="9.296666257543349"><ele>318.6666666666667</ele><time>2026-03-31T14:37:46.999Z</time></trkpt><trkpt lat="45.69480667127003" lon="9.296624472224472"><ele>320.33333333333337</ele><time>2026-03-31T14:37:47.999Z</time></trkpt><trkpt lat="45.69491324944504" lon="9.296533589873155"><ele>322.0</ele><time>2026-03-31T14:37:49.999Z</time></trkpt><trkpt lat="45.69497285801985" lon="9.296478441803401"><ele>323.6666666666667</ele><time>2026-03-31T14:37:51Z</time></trkpt><trkpt lat="45.69504791071978" lon="9.296503499286734"><ele>325.3333333333333</ele><time>2026-03-31T14:37:53Z</time></trkpt><trkpt lat="45.6950921582476" lon="9.296571152631454"><ele>327.0</ele><time>2026-03-31T14:37:54Z</time></trkpt><trkpt lat="45.69513175880296" lon="9.29665446053738"><ele>327.0</ele><time>2026-03-31T14:37:55Z</time></trkpt><trkpt lat="45.69517056833769" lon="9.29674647792924"><ele>327.0</ele><time>2026-03-31T14:37:56Z</time></trkpt><trkpt lat="45.69520296038188" lon="9.296839578115087"><ele>327.0</ele><time>2026-03-31T14:37:57Z</time></trkpt><trkpt lat="45.69524522965923" lon="9.296939126321837"><ele>327.0</ele><time>2026-03-31T14:37:58Z</time></trkpt><trkpt lat="45.69529868489076" lon="9.29705662829815"><ele>327.0</ele><time>2026-03-31T14:37:59Z</time></trkpt><trkpt lat="45.695349181416006" lon="9.297154981912177"><ele>327.0</ele><time>2026-03-31T14:38:00Z</time></trkpt><trkpt lat="45.695431135100584" lon="9.297271034831057"><ele>328.5</ele><time>2026-03-31T14:38:02Z</time></trkpt><trkpt lat="45.695493897608834" lon="9.297315473674189"><ele>330.0</ele><time>2026-03-31T14:38:03Z</time></trkpt><trkpt lat="45.69556853264751" lon="9.297361270846764"><ele>331.5</ele><time>2026-03-31T14:38:04Z</time></trkpt><trkpt lat="45.69562813779544" lon="9.297403007586254"><ele>333.0</ele><time>2026-03-31T14:38:05Z</time></trkpt><trkpt lat="45.695711215492935" lon="9.29743135278209"><ele>334.5</ele><time>2026-03-31T14:38:07Z</time></trkpt><trkpt lat="45.695817127850496" lon="9.297350087784169"><ele>336.0</ele><time>2026-03-31T14:38:09Z</time></trkpt><trkpt lat="45.695903555018205" lon="9.297286422303367"><ele>336.0</ele><time>2026-03-31T14:38:11Z</time></trkpt><trkpt lat="45.695990543653465" lon="9.297342809073534"><ele>336.0</ele><time>2026-03-31T14:38:13Z</time></trkpt><trkpt lat="45.69609962050731" lon="9.297413085845557"><ele>336.0</ele><time>2026-03-31T14:38:15Z</time></trkpt><trkpt lat="45.6961419688372" lon="9.297498580667229"><ele>336.0</ele><time>2026-03-31T14:38:19Z</time></trkpt><trkpt lat="45.69622266711942" lon="9.297616694088175"><ele>336.0</ele><time>2026-03-31T14:38:26Z</time></trkpt><trkpt lat="45.69625652276987" lon="9.297753943936069"><ele>337.6</ele><time>2026-03-31T14:38:27Z</time></trkpt><trkpt lat="45.69627398646212" lon="9.297857840240152"><ele>339.20000000000005</ele><time>2026-03-31T14:38:28Z</time></trkpt><trkpt lat="45.696285581114985" lon="9.297987258339907"><ele>340.79999999999995</ele><time>2026-03-31T14:38:29Z</time></trkpt><trkpt lat="45.69630351232286" lon="9.298123364386589"><ele>342.4</ele><time>2026-03-31T14:38:30Z</time></trkpt><trkpt lat="45.69628466717" lon="9.298316083729569"><ele>344.0</ele><time>2026-03-31T14:38:31Z</time></trkpt><trkpt lat="45.69630242553733" lon="9.298445857324516"><ele>344.0</ele><time>2026-03-31T14:38:32Z</time></trkpt><trkpt lat="45.696311593716715" lon="9.298583929168398"><ele>344.0</ele><time>2026-03-31T14:38:33Z</time></trkpt><trkpt lat="45.696336660913964" lon="9.298672962194022"><ele>344.0</ele><time>2026-03-31T14:38:37Z</time></trkpt><trkpt lat="45.696355168921194" lon="9.298821613112253"><ele>344.0</ele><time>2026-03-31T14:38:39Z</time></trkpt><trkpt lat="45.6963806029546" lon="9.298909900267844"><ele>344.0</ele><time>2026-03-31T14:38:40Z</time></trkpt><trkpt lat="45.696415053462744" lon="9.29905547545216"><ele>344.0</ele><time>2026-03-31T14:38:41Z</time></trkpt><trkpt lat="45.69644631649442" lon="9.299176768010508"><ele>343.5</ele><time>2026-03-31T14:38:42Z</time></trkpt><trkpt lat="45.696496517432585" lon="9.299319035121494"><ele>343.0</ele><time>2026-03-31T14:38:43Z</time></trkpt><trkpt lat="45.696539066072866" lon="9.299447879383047"><ele>342.5</ele><time>2026-03-31T14:38:44Z</time></trkpt><trkpt lat="45.69659104575762" lon="9.299619395969046"><ele>342.0</ele><time>2026-03-31T14:38:45Z</time></trkpt><trkpt lat="45.69664293454653" lon="9.299845864669377"><ele>341.0</ele><time>2026-03-31T14:38:46Z</time></trkpt><trkpt lat="45.6967103500708" lon="9.300082967170145"><ele>340.0</ele><time>2026-03-31T14:38:47Z</time></trkpt><trkpt lat="45.6967868911794" lon="9.300372324877232"><ele>339.0</ele><time>2026-03-31T14:38:48Z</time></trkpt><trkpt lat="45.696859191781755" lon="9.300627987022152"><ele>341.6666666666667</ele><time>2026-03-31T14:38:49Z</time></trkpt><trkpt lat="45.696928434852495" lon="9.300849808696606"><ele>344.33333333333337</ele><time>2026-03-31T14:38:50Z</time></trkpt><trkpt lat="45.69700532020132" lon="9.301107955805497"><ele>347.0</ele><time>2026-03-31T14:38:51Z</time></trkpt><trkpt lat="45.697076010019195" lon="9.301351934364035"><ele>346.33333333333337</ele><time>2026-03-31T14:38:52Z</time></trkpt><trkpt lat="45.69714841501133" lon="9.301586410258787"><ele>345.6666666666667</ele><time>2026-03-31T14:38:53Z</time></trkpt><trkpt lat="45.69720557436128" lon="9.3018245572067"><ele>345.0</ele><time>2026-03-31T14:38:54Z</time></trkpt><trkpt lat="45.69724746691754" lon="9.302064287676865"><ele>345.0</ele><time>2026-03-31T14:38:55Z</time></trkpt><trkpt lat="45.697264842277974" lon="9.302248386163274"><ele>345.0</ele><time>2026-03-31T14:38:57Z</time></trkpt><trkpt lat="45.69725024308918" lon="9.30235094503488"><ele>345.0</ele><time>2026-03-31T14:38:58Z</time></trkpt><trkpt lat="45.69720157067547" lon="9.302469235528518"><ele>345.0</ele><time>2026-03-31T14:38:59Z</time></trkpt><trkpt lat="45.69711763357242" lon="9.302578544293363"><ele>345.0</ele><time>2026-03-31T14:39:00Z</time></trkpt><trkpt lat="45.697015241670115" lon="9.302683297272932"><ele>345.25</ele><time>2026-03-31T14:39:01Z</time></trkpt><trkpt lat="45.696896261677864" lon="9.302853523145519"><ele>345.5</ele><time>2026-03-31T14:39:02Z</time></trkpt><trkpt lat="45.696835827801216" lon="9.302977454067324"><ele>345.75</ele><time>2026-03-31T14:39:03Z</time></trkpt><trkpt lat="45.69674376669749" lon="9.30301155098334"><ele>346.0</ele><time>2026-03-31T14:39:04Z</time></trkpt><trkpt lat="45.69666912148714" lon="9.303110023424479"><ele>346.75</ele><time>2026-03-31T14:39:05Z</time></trkpt><trkpt lat="45.69656155303594" lon="9.303248772756657"><ele>347.5</ele><time>2026-03-31T14:39:06Z</time></trkpt><trkpt lat="45.69647827745507" lon="9.303392575419553"><ele>348.25</ele><time>2026-03-31T14:39:07Z</time></trkpt><trkpt lat="45.69634967775719" lon="9.303519442566945"><ele>349.0</ele><time>2026-03-31T14:39:08Z</time></trkpt><trkpt lat="45.69624936311321" lon="9.303689368678707"><ele>349.0</ele><time>2026-03-31T14:39:09Z</time></trkpt><trkpt lat="45.69617928546329" lon="9.303813100757388"><ele>349.0</ele><time>2026-03-31T14:39:10Z</time></trkpt><trkpt lat="45.69614964135969" lon="9.304025879579873"><ele>349.0</ele><time>2026-03-31T14:39:11Z</time></trkpt><trkpt lat="45.696126725498885" lon="9.304285782716759"><ele>349.0</ele><time>2026-03-31T14:39:12Z</time></trkpt><trkpt lat="45.696089729080235" lon="9.304556208669084"><ele>347.66666666666663</ele><time>2026-03-31T14:39:13Z</time></trkpt><trkpt lat="45.69607829171473" lon="9.304840074859031"><ele>346.3333333333333</ele><time>2026-03-31T14:39:14Z</time></trkpt><trkpt lat="45.69606395983039" lon="9.305074465052195"><ele>345.0</ele><time>2026-03-31T14:39:15Z</time></trkpt><trkpt lat="45.696045429093246" lon="9.305297860771098"><ele>345.0</ele><time>2026-03-31T14:39:16Z</time></trkpt><trkpt lat="45.69603779356332" lon="9.305480772747117"><ele>345.0</ele><time>2026-03-31T14:39:17Z</time></trkpt><trkpt lat="45.69602804215633" lon="9.30559658772722"><ele>345.0</ele><time>2026-03-31T14:39:18Z</time></trkpt><trkpt lat="45.69587521496664" lon="9.305559957096955"><ele>345.0</ele><time>2026-03-31T14:39:23Z</time></trkpt><trkpt lat="45.69579388002365" lon="9.305505537530253"><ele>345.0</ele><time>2026-03-31T14:39:24Z</time></trkpt><trkpt lat="45.695698272976415" lon="9.305420011904253"><ele>345.0</ele><time>2026-03-31T14:39:25Z</time></trkpt><trkpt lat="45.69556858973822" lon="9.305332184171098"><ele>345.0</ele><time>2026-03-31T14:39:26Z</time></trkpt><trkpt lat="45.695427064197595" lon="9.305227910808545"><ele>345.0</ele><time>2026-03-31T14:39:27Z</time></trkpt><trkpt lat="45.695297144592324" lon="9.30513344991103"><ele>344.0</ele><time>2026-03-31T14:39:28Z</time></trkpt><trkpt lat="45.69518445577788" lon="9.305046321703596"><ele>343.0</ele><time>2026-03-31T14:39:29Z</time></trkpt><trkpt lat="45.695071212453705" lon="9.304934668148473"><ele>342.0</ele><time>2026-03-31T14:39:30Z</time></trkpt><trkpt lat="45.69499391878947" lon="9.304869605365328"><ele>341.0</ele><time>2026-03-31T14:39:30.999Z</time></trkpt><trkpt lat="45.69491360815957" lon="9.304797236131368"><ele>340.83333333333337</ele><time>2026-03-31T14:39:31.999Z</time></trkpt><trkpt lat="45.69483404341378" lon="9.30472038004943"><ele>340.6666666666667</ele><time>2026-03-31T14:39:32.999Z</time></trkpt><trkpt lat="45.69478031491071" lon="9.304662614260327"><ele>340.5</ele><time>2026-03-31T14:39:33.999Z</time></trkpt><trkpt lat="45.69472637260095" lon="9.304584057783803"><ele>340.3333333333333</ele><time>2026-03-31T14:39:34.999Z</time></trkpt><trkpt lat="45.69466509776352" lon="9.304493661274808"><ele>340.16666666666663</ele><time>2026-03-31T14:39:35.999Z</time></trkpt><trkpt lat="45.694604169654944" lon="9.304352912054437"><ele>340.0</ele><time>2026-03-31T14:39:36.999Z</time></trkpt><trkpt lat="45.694527365927144" lon="9.304198449515395"><ele>340.0</ele><time>2026-03-31T14:39:37.999Z</time></trkpt><trkpt lat="45.69440230057146" lon="9.303997559454663"><ele>340.0</ele><time>2026-03-31T14:39:38.999Z</time></trkpt><trkpt lat="45.69429406492963" lon="9.303817455062626"><ele>340.0</ele><time>2026-03-31T14:39:39.999Z</time></trkpt><trkpt lat="45.69420715089735" lon="9.303671997182786"><ele>340.0</ele><time>2026-03-31T14:39:40.999Z</time></trkpt><trkpt lat="45.69411913273602" lon="9.303521395290629"><ele>340.0</ele><time>2026-03-31T14:39:41.999Z</time></trkpt><trkpt lat="45.69403138803987" lon="9.303361305189492"><ele>340.0</ele><time>2026-03-31T14:39:42.999Z</time></trkpt><trkpt lat="45.693954533891535" lon="9.30322580701006"><ele>340.0</ele><time>2026-03-31T14:39:43.999Z</time></trkpt><trkpt lat="45.693889333235255" lon="9.303117674493086"><ele>340.0</ele><time>2026-03-31T14:39:44.999Z</time></trkpt><trkpt lat="45.69383611673046" lon="9.303023750244494"><ele>340.0</ele><time>2026-03-31T14:39:45.999Z</time></trkpt><trkpt lat="45.69379155700985" lon="9.302933407012171"><ele>340.0</ele><time>2026-03-31T14:39:46.999Z</time></trkpt><trkpt lat="45.69373679605565" lon="9.302841081309937"><ele>340.0</ele><time>2026-03-31T14:39:47.999Z</time></trkpt><trkpt lat="45.693670821942185" lon="9.302753947643865"><ele>340.0</ele><time>2026-03-31T14:39:49.999Z</time></trkpt><trkpt lat="45.69362467532129" lon="9.302669613354038"><ele>340.0</ele><time>2026-03-31T14:39:52.999Z</time></trkpt><trkpt lat="45.69354430104585" lon="9.302703911983993"><ele>340.75</ele><time>2026-03-31T14:39:53.999Z</time></trkpt><trkpt lat="45.693471408702784" lon="9.302709244147144"><ele>341.5</ele><time>2026-03-31T14:39:54.999Z</time></trkpt><trkpt lat="45.69329108871665" lon="9.30269849818827"><ele>342.25</ele><time>2026-03-31T14:39:57Z</time></trkpt><trkpt lat="45.693190058562415" lon="9.302747874310084"><ele>343.0</ele><time>2026-03-31T14:39:58Z</time></trkpt><trkpt lat="45.6930865435172" lon="9.30276988692962"><ele>343.0</ele><time>2026-03-31T14:39:59Z</time></trkpt><trkpt lat="45.69299236687926" lon="9.302807187829362"><ele>343.0</ele><time>2026-03-31T14:40:00Z</time></trkpt><trkpt lat="45.69294341829822" lon="9.302867726872186"><ele>343.0</ele><time>2026-03-31T14:40:01Z</time></trkpt><trkpt lat="45.692872399763985" lon="9.30296068464945"><ele>343.0</ele><time>2026-03-31T14:40:02Z</time></trkpt><trkpt lat="45.692799199146826" lon="9.303072275475019"><ele>343.0</ele><time>2026-03-31T14:40:03Z</time></trkpt><trkpt lat="45.692746100373725" lon="9.3031564372842"><ele>343.0</ele><time>2026-03-31T14:40:04Z</time></trkpt><trkpt lat="45.69266534560878" lon="9.30326616725662"><ele>342.5</ele><time>2026-03-31T14:40:05Z</time></trkpt><trkpt lat="45.69261386487716" lon="9.303367793304384"><ele>342.0</ele><time>2026-03-31T14:40:06Z</time></trkpt><trkpt lat="45.69256459317535" lon="9.30345353726125"><ele>341.5</ele><time>2026-03-31T14:40:07Z</time></trkpt><trkpt lat="45.692512948284076" lon="9.303562877782792"><ele>341.0</ele><time>2026-03-31T14:40:09Z</time></trkpt><trkpt lat="45.69246432980609" lon="9.303656617438422"><ele>340.5</ele><time>2026-03-31T14:40:12Z</time></trkpt><trkpt lat="45.69240768049793" lon="9.303764158895373"><ele>340.0</ele><time>2026-03-31T14:40:15Z</time></trkpt><trkpt lat="45.69232657056767" lon="9.303830951414852"><ele>340.0</ele><time>2026-03-31T14:40:17Z</time></trkpt><trkpt lat="45.692249696902344" lon="9.303862712512924"><ele>340.0</ele><time>2026-03-31T14:40:19Z</time></trkpt><trkpt lat="45.6924334920763" lon="9.304358623088094"><ele>339.66666666666663</ele><time>2026-03-31T14:40:21Z</time></trkpt><trkpt lat="45.692437098159566" lon="9.304478709457694"><ele>339.3333333333333</ele><time>2026-03-31T14:40:23Z</time></trkpt><trkpt lat="45.692409480064825" lon="9.304564510405621"><ele>339.0</ele><time>2026-03-31T14:40:28Z</time></trkpt><trkpt lat="45.6923832128585" lon="9.304702135765202"><ele>338.6666666666667</ele><time>2026-03-31T14:40:30Z</time></trkpt><trkpt lat="45.69234033866498" lon="9.304822797613545"><ele>338.33333333333337</ele><time>2026-03-31T14:40:31Z</time></trkpt><trkpt lat="45.69231661367888" lon="9.304943264679729"><ele>338.0</ele><time>2026-03-31T14:40:32Z</time></trkpt><trkpt lat="45.692268687739904" lon="9.30504076739987"><ele>337.6666666666667</ele><time>2026-03-31T14:40:35Z</time></trkpt><trkpt lat="45.692222511128946" lon="9.305156384599352"><ele>337.33333333333337</ele><time>2026-03-31T14:40:37Z</time></trkpt><trkpt lat="45.69217859590745" lon="9.305234703454849"><ele>337.0</ele><time>2026-03-31T14:40:39Z</time></trkpt><trkpt lat="45.69208129474016" lon="9.305322304885772"><ele>336.6666666666667</ele><time>2026-03-31T14:40:42Z</time></trkpt><trkpt lat="45.69203612249032" lon="9.305388137223112"><ele>336.3333333333333</ele><time>2026-03-31T14:40:46Z</time></trkpt><trkpt lat="45.69198914831242" lon="9.30546652092832"><ele>336.0</ele><time>2026-03-31T14:41:10Z</time></trkpt><trkpt lat="45.69193037725237" lon="9.305517346345576"><ele>334.8333333333333</ele><time>2026-03-31T14:41:14Z</time></trkpt><trkpt lat="45.69187875325863" lon="9.30557784063402"><ele>333.6666666666667</ele><time>2026-03-31T14:41:17Z</time></trkpt><trkpt lat="45.69182249415068" lon="9.305639447444369"><ele>332.5</ele><time>2026-03-31T14:41:20Z</time></trkpt><trkpt lat="45.69174244126481" lon="9.305705556604536"><ele>331.33333333333337</ele><time>2026-03-31T14:41:23Z</time></trkpt><trkpt lat="45.69166442069224" lon="9.305731373475718"><ele>330.1666666666667</ele><time>2026-03-31T14:41:26Z</time></trkpt><trkpt lat="45.69158859785267" lon="9.305757239064043"><ele>329.0</ele><time>2026-03-31T14:41:28.999Z</time></trkpt><trkpt lat="45.691509284098174" lon="9.305796148701146"><ele>328.4</ele><time>2026-03-31T14:41:31.999Z</time></trkpt><trkpt lat="45.69144514925669" lon="9.305769521792525"><ele>327.79999999999995</ele><time>2026-03-31T14:41:33.999Z</time></trkpt><trkpt lat="45.69133594968927" lon="9.305749401341481"><ele>327.20000000000005</ele><time>2026-03-31T14:41:35.999Z</time></trkpt><trkpt lat="45.6912730294271" lon="9.305817408803156"><ele>326.6</ele><time>2026-03-31T14:41:39.999Z</time></trkpt><trkpt lat="45.69119748981487" lon="9.30585737648576"><ele>326.0</ele><time>2026-03-31T14:41:41.999Z</time></trkpt><trkpt lat="45.691053913244296" lon="9.305874522623508"><ele>325.33333333333337</ele><time>2026-03-31T14:41:43.999Z</time></trkpt><trkpt lat="45.69098711444427" lon="9.30583873231891"><ele>324.6666666666667</ele><time>2026-03-31T14:41:44.999Z</time></trkpt><trkpt lat="45.690909873617684" lon="9.305813539903617"><ele>324.0</ele><time>2026-03-31T14:41:47.999Z</time></trkpt><trkpt lat="45.6907812996781" lon="9.305822299527954"><ele>323.3333333333333</ele><time>2026-03-31T14:41:52.999Z</time></trkpt><trkpt lat="45.6907078802845" lon="9.30585592681027"><ele>322.66666666666663</ele><time>2026-03-31T14:41:53.999Z</time></trkpt><trkpt lat="45.69062150179033" lon="9.305897478814613"><ele>322.0</ele><time>2026-03-31T14:41:55.999Z</time></trkpt><trkpt lat="45.690514626663386" lon="9.305976542581435"><ele>322.0</ele><time>2026-03-31T14:41:57.999Z</time></trkpt><trkpt lat="45.69044551480156" lon="9.306024624668282"><ele>322.0</ele><time>2026-03-31T14:41:59.999Z</time></trkpt><trkpt lat="45.69037809915289" lon="9.30611971247663"><ele>322.0</ele><time>2026-03-31T14:42:01.999Z</time></trkpt><trkpt lat="45.69030169923611" lon="9.306200758017914"><ele>322.0</ele><time>2026-03-31T14:42:04Z</time></trkpt><trkpt lat="45.690259665494665" lon="9.306310694752515"><ele>322.0</ele><time>2026-03-31T14:42:06Z</time></trkpt><trkpt lat="45.69021545318958" lon="9.306389313117185"><ele>322.0</ele><time>2026-03-31T14:42:07Z</time></trkpt><trkpt lat="45.690138459983096" lon="9.30650681560629"><ele>321.0</ele><time>2026-03-31T14:42:09Z</time></trkpt><trkpt lat="45.690073097155974" lon="9.306644003013684"><ele>320.0</ele><time>2026-03-31T14:42:11Z</time></trkpt><trkpt lat="45.69003203405523" lon="9.306714376269037"><ele>319.0</ele><time>2026-03-31T14:42:12Z</time></trkpt><trkpt lat="45.68999542633794" lon="9.306788153478994"><ele>318.0</ele><time>2026-03-31T14:42:13Z</time></trkpt><trkpt lat="45.689933156520084" lon="9.306910845253903"><ele>317.0</ele><time>2026-03-31T14:42:15Z</time></trkpt><trkpt lat="45.68990151618412" lon="9.30700258907422"><ele>316.0</ele><time>2026-03-31T14:42:16Z</time></trkpt><trkpt lat="45.68987468691647" lon="9.307089076696371"><ele>316.0</ele><time>2026-03-31T14:42:17Z</time></trkpt><trkpt lat="45.68984180945591" lon="9.307228075821245"><ele>316.0</ele><time>2026-03-31T14:42:19Z</time></trkpt><trkpt lat="45.68982189747943" lon="9.307367526392305"><ele>316.0</ele><time>2026-03-31T14:42:21Z</time></trkpt><trkpt lat="45.689847549084334" lon="9.307460410712054"><ele>316.0</ele><time>2026-03-31T14:42:24Z</time></trkpt><trkpt lat="45.689962005770525" lon="9.307483897408295"><ele>316.0</ele><time>2026-03-31T14:42:26Z</time></trkpt><trkpt lat="45.69004870408533" lon="9.30751185782229"><ele>316.3333333333333</ele><time>2026-03-31T14:42:27Z</time></trkpt><trkpt lat="45.690128563386274" lon="9.307555959263984"><ele>316.66666666666663</ele><time>2026-03-31T14:42:28Z</time></trkpt><trkpt lat="45.69019205742361" lon="9.307623543064745"><ele>317.0</ele><time>2026-03-31T14:42:29Z</time></trkpt><trkpt lat="45.69025507485718" lon="9.307686440073054"><ele>317.3333333333333</ele><time>2026-03-31T14:42:30Z</time></trkpt><trkpt lat="45.690353785549696" lon="9.307733150096192"><ele>317.6666666666667</ele><time>2026-03-31T14:42:32Z</time></trkpt><trkpt lat="45.69038795238795" lon="9.307816249210903"><ele>318.0</ele><time>2026-03-31T14:42:35Z</time></trkpt><trkpt lat="45.69031637631003" lon="9.307865121174123"><ele>318.0</ele><time>2026-03-31T14:42:38Z</time></trkpt><trkpt lat="45.69025896767629" lon="9.307907312540998"><ele>318.0</ele><time>2026-03-31T14:42:40Z</time></trkpt><trkpt lat="45.690201555912914" lon="9.307949823512795"><ele>318.0</ele><time>2026-03-31T14:42:54Z</time></trkpt><trkpt lat="45.690137753200275" lon="9.308007741020683"><ele>318.0</ele><time>2026-03-31T14:42:56Z</time></trkpt><trkpt lat="45.690063271362774" lon="9.308062406557022"><ele>318.0</ele><time>2026-03-31T14:42:58Z</time></trkpt><trkpt lat="45.68999469791256" lon="9.308130895339135"><ele>318.0</ele><time>2026-03-31T14:43:02Z</time></trkpt><trkpt lat="45.68988902850174" lon="9.308223933396244"><ele>318.8333333333333</ele><time>2026-03-31T14:43:04Z</time></trkpt><trkpt lat="45.68982323587678" lon="9.308284547204018"><ele>319.6666666666667</ele><time>2026-03-31T14:43:05Z</time></trkpt><trkpt lat="45.68975961838206" lon="9.308355244657687"><ele>320.5</ele><time>2026-03-31T14:43:06Z</time></trkpt><trkpt lat="45.68970290124301" lon="9.308435049015769"><ele>321.33333333333337</ele><time>2026-03-31T14:43:07Z</time></trkpt><trkpt lat="45.68964766033438" lon="9.30851252376311"><ele>322.1666666666667</ele><time>2026-03-31T14:43:08Z</time></trkpt><trkpt lat="45.68959551157037" lon="9.308579656270272"><ele>323.0</ele><time>2026-03-31T14:43:09Z</time></trkpt><trkpt lat="45.68950145486499" lon="9.30868455378046"><ele>323.0</ele><time>2026-03-31T14:43:11Z</time></trkpt><trkpt lat="45.68944956262399" lon="9.308741484220116"><ele>323.0</ele><time>2026-03-31T14:43:12Z</time></trkpt><trkpt lat="45.689380111035895" lon="9.308818572988455"><ele>323.0</ele><time>2026-03-31T14:43:14Z</time></trkpt><trkpt lat="45.689300490109744" lon="9.308888845885944"><ele>323.0</ele><time>2026-03-31T14:43:16Z</time></trkpt><trkpt lat="45.6891928938551" lon="9.30896005827707"><ele>323.0</ele><time>2026-03-31T14:43:18Z</time></trkpt><trkpt lat="45.689060308448575" lon="9.30903143339944"><ele>321.79999999999995</ele><time>2026-03-31T14:43:20Z</time></trkpt><trkpt lat="45.68894863342318" lon="9.309097904613882"><ele>320.59999999999997</ele><time>2026-03-31T14:43:22Z</time></trkpt><trkpt lat="45.688828099958116" lon="9.30913927011549"><ele>319.4</ele><time>2026-03-31T14:43:24Z</time></trkpt><trkpt lat="45.68873598447948" lon="9.309187471282856"><ele>318.2</ele><time>2026-03-31T14:43:26Z</time></trkpt><trkpt lat="45.688642379893274" lon="9.309241197916824"><ele>317.0</ele><time>2026-03-31T14:43:28Z</time></trkpt><trkpt lat="45.688553562764966" lon="9.309269176944412"><ele>317.0</ele><time>2026-03-31T14:43:30Z</time></trkpt><trkpt lat="45.68844559042925" lon="9.309269679628457"><ele>317.0</ele><time>2026-03-31T14:43:32Z</time></trkpt><trkpt lat="45.688366770158346" lon="9.309267739111759"><ele>317.0</ele><time>2026-03-31T14:43:34Z</time></trkpt><trkpt lat="45.6882982076743" lon="9.309325251703264"><ele>317.0</ele><time>2026-03-31T14:43:36Z</time></trkpt><trkpt lat="45.68827804887584" lon="9.309438125071477"><ele>317.0</ele><time>2026-03-31T14:43:38Z</time></trkpt><trkpt lat="45.68826379287176" lon="9.309535878700766"><ele>317.0</ele><time>2026-03-31T14:43:39.999Z</time></trkpt><trkpt lat="45.688225820480596" lon="9.309628730550935"><ele>317.0</ele><time>2026-03-31T14:43:41.999Z</time></trkpt><trkpt lat="45.68816816705584" lon="9.309696864823781"><ele>317.0</ele><time>2026-03-31T14:43:43.999Z</time></trkpt><trkpt lat="45.6880940864193" lon="9.30972880344342"><ele>317.0</ele><time>2026-03-31T14:43:45.999Z</time></trkpt><trkpt lat="45.68807052357784" lon="9.309821507057965"><ele>317.0</ele><time>2026-03-31T14:43:47.999Z</time></trkpt><trkpt lat="45.688098047928634" lon="9.309952844791288"><ele>317.0</ele><time>2026-03-31T14:43:49.999Z</time></trkpt><trkpt lat="45.688127596251036" lon="9.310035979611937"><ele>317.0</ele><time>2026-03-31T14:43:50.999Z</time></trkpt><trkpt lat="45.68816619292109" lon="9.310140993900525"><ele>315.5</ele><time>2026-03-31T14:43:51.999Z</time></trkpt><trkpt lat="45.68820645944509" lon="9.310277973793356"><ele>314.0</ele><time>2026-03-31T14:43:52.999Z</time></trkpt><trkpt lat="45.68825717668087" lon="9.310448014413021"><ele>312.5</ele><time>2026-03-31T14:43:53.999Z</time></trkpt><trkpt lat="45.688305216437925" lon="9.310617427745186"><ele>311.0</ele><time>2026-03-31T14:43:54.999Z</time></trkpt><trkpt lat="45.688350018453825" lon="9.310757860795254"><ele>311.40000000000003</ele><time>2026-03-31T14:43:55.999Z</time></trkpt><trkpt lat="45.68839219281979" lon="9.310879480526488"><ele>311.8</ele><time>2026-03-31T14:43:56.999Z</time></trkpt><trkpt lat="45.688432814676005" lon="9.310962526639903"><ele>312.20000000000005</ele><time>2026-03-31T14:43:57.999Z</time></trkpt><trkpt lat="45.68847791738713" lon="9.311066103254117"><ele>312.6</ele><time>2026-03-31T14:43:59.999Z</time></trkpt><trkpt lat="45.688544494957775" lon="9.311198568111813"><ele>313.0</ele><time>2026-03-31T14:44:01.999Z</time></trkpt><trkpt lat="45.68866741292499" lon="9.31122572361344"><ele>313.0</ele><time>2026-03-31T14:44:03.999Z</time></trkpt><trkpt lat="45.68876857949395" lon="9.311149917097174"><ele>313.0</ele><time>2026-03-31T14:44:05.999Z</time></trkpt><trkpt lat="45.688820585472264" lon="9.311081531408293"><ele>313.0</ele><time>2026-03-31T14:44:06.999Z</time></trkpt><trkpt lat="45.6888808210598" lon="9.310962506994363"><ele>313.0</ele><time>2026-03-31T14:44:07.999Z</time></trkpt><trkpt lat="45.68892886505381" lon="9.310885901772702"><ele>313.0</ele><time>2026-03-31T14:44:09Z</time></trkpt><trkpt lat="45.688993732894964" lon="9.310838181088805"><ele>313.0</ele><time>2026-03-31T14:44:10Z</time></trkpt><trkpt lat="45.6890720610885" lon="9.31083548124781"><ele>313.0</ele><time>2026-03-31T14:44:11Z</time></trkpt><trkpt lat="45.68914123100787" lon="9.310774767038561"><ele>313.0</ele><time>2026-03-31T14:44:13Z</time></trkpt><trkpt lat="45.68921965183101" lon="9.310784210294667"><ele>313.0</ele><time>2026-03-31T14:44:14Z</time></trkpt><trkpt lat="45.689300953749175" lon="9.31081412151641"><ele>313.0</ele><time>2026-03-31T14:44:15Z</time></trkpt><trkpt lat="45.68936187634383" lon="9.310786760292808"><ele>313.0</ele><time>2026-03-31T14:44:18Z</time></trkpt><trkpt lat="45.68941347993134" lon="9.31066496693193"><ele>313.0</ele><time>2026-03-31T14:44:21Z</time></trkpt><trkpt lat="45.68945996126863" lon="9.310555129997658"><ele>313.0</ele><time>2026-03-31T14:44:24Z</time></trkpt><trkpt lat="45.68941221817536" lon="9.310483252589014"><ele>313.0</ele><time>2026-03-31T14:44:29Z</time></trkpt><trkpt lat="45.689366606395005" lon="9.310569691960279"><ele>313.0</ele><time>2026-03-31T14:44:33Z</time></trkpt><trkpt lat="45.6893312656187" lon="9.310684037022051"><ele>313.0</ele><time>2026-03-31T14:44:37Z</time></trkpt><trkpt lat="45.68925292620556" lon="9.310699262467468"><ele>313.0</ele><time>2026-03-31T14:44:40Z</time></trkpt><trkpt lat="45.68918290050149" lon="9.31069981320634"><ele>313.0</ele><time>2026-03-31T14:44:42Z</time></trkpt><trkpt lat="45.68910802301767" lon="9.310721437654006"><ele>313.0</ele><time>2026-03-31T14:44:45Z</time></trkpt><trkpt lat="45.68903129729191" lon="9.31073648148523"><ele>313.0</ele><time>2026-03-31T14:44:47Z</time></trkpt><trkpt lat="45.68895744864647" lon="9.310825423856356"><ele>313.0</ele><time>2026-03-31T14:44:49Z</time></trkpt><trkpt lat="45.6888897131399" lon="9.31092699108801"><ele>313.0</ele><time>2026-03-31T14:44:51Z</time></trkpt><trkpt lat="45.68883009755963" lon="9.311027253882434"><ele>313.0</ele><time>2026-03-31T14:44:53Z</time></trkpt><trkpt lat="45.68877588358821" lon="9.3111281219146"><ele>313.0</ele><time>2026-03-31T14:44:55Z</time></trkpt><trkpt lat="45.6887110343776" lon="9.311205230634233"><ele>313.0</ele><time>2026-03-31T14:44:58Z</time></trkpt><trkpt lat="45.688626906309416" lon="9.311261767523721"><ele>313.0</ele><time>2026-03-31T14:45:00Z</time></trkpt><trkpt lat="45.688528040372184" lon="9.31139648014402"><ele>313.0</ele><time>2026-03-31T14:45:03Z</time></trkpt><trkpt lat="45.688483794621966" lon="9.311492431730265"><ele>313.0</ele><time>2026-03-31T14:45:04Z</time></trkpt><trkpt lat="45.68843633265293" lon="9.311596695115169"><ele>311.75</ele><time>2026-03-31T14:45:05Z</time></trkpt><trkpt lat="45.688418724453975" lon="9.311694529048026"><ele>310.5</ele><time>2026-03-31T14:45:06Z</time></trkpt><trkpt lat="45.68844832325903" lon="9.311870452534034"><ele>309.25</ele><time>2026-03-31T14:45:08Z</time></trkpt><trkpt lat="45.68847050785911" lon="9.311957474590987"><ele>308.0</ele><time>2026-03-31T14:45:09Z</time></trkpt><trkpt lat="45.68867131400447" lon="9.312052505414956"><ele>310.2</ele><time>2026-03-31T14:45:16Z</time></trkpt><trkpt lat="45.68875727142466" lon="9.31210749590705"><ele>312.4</ele><time>2026-03-31T14:45:17Z</time></trkpt><trkpt lat="45.68884187741625" lon="9.312164713885283"><ele>314.59999999999997</ele><time>2026-03-31T14:45:18Z</time></trkpt><trkpt lat="45.68893762626307" lon="9.31219775853583"><ele>316.8</ele><time>2026-03-31T14:45:19Z</time></trkpt><trkpt lat="45.68902499937711" lon="9.312231006800321"><ele>319.0</ele><time>2026-03-31T14:45:20Z</time></trkpt><trkpt lat="45.68911593655929" lon="9.312280861500133"><ele>319.5</ele><time>2026-03-31T14:45:21Z</time></trkpt><trkpt lat="45.68922746736308" lon="9.312279617779897"><ele>320.0</ele><time>2026-03-31T14:45:22Z</time></trkpt><trkpt lat="45.68933247124279" lon="9.31227863487183"><ele>320.5</ele><time>2026-03-31T14:45:23Z</time></trkpt><trkpt lat="45.689457311574515" lon="9.312328126152611"><ele>321.0</ele><time>2026-03-31T14:45:24Z</time></trkpt><trkpt lat="45.689595846840426" lon="9.312394693004745"><ele>323.5</ele><time>2026-03-31T14:45:25Z</time></trkpt><trkpt lat="45.68970664711032" lon="9.31244512612633"><ele>326.0</ele><time>2026-03-31T14:45:26Z</time></trkpt><trkpt lat="45.68982085033923" lon="9.312497837880349"><ele>328.5</ele><time>2026-03-31T14:45:27Z</time></trkpt><trkpt lat="45.68993918008772" lon="9.312542107011401"><ele>331.0</ele><time>2026-03-31T14:45:28Z</time></trkpt><trkpt lat="45.6900664890352" lon="9.312601710090966"><ele>331.0</ele><time>2026-03-31T14:45:29Z</time></trkpt><trkpt lat="45.69020621355858" lon="9.312663874990504"><ele>331.0</ele><time>2026-03-31T14:45:30Z</time></trkpt><trkpt lat="45.69030749353996" lon="9.312727067711727"><ele>331.0</ele><time>2026-03-31T14:45:31Z</time></trkpt><trkpt lat="45.690397092120044" lon="9.312792244339908"><ele>331.0</ele><time>2026-03-31T14:45:32Z</time></trkpt><trkpt lat="45.69049285647505" lon="9.31286059887509"><ele>331.0</ele><time>2026-03-31T14:45:33Z</time></trkpt><trkpt lat="45.690579981015574" lon="9.312884722034296"><ele>331.0</ele><time>2026-03-31T14:45:37Z</time></trkpt><trkpt lat="45.690476883233636" lon="9.312810090100243"><ele>331.0</ele><time>2026-03-31T14:45:46.999Z</time></trkpt><trkpt lat="45.69036392270592" lon="9.312770386195753"><ele>331.0</ele><time>2026-03-31T14:45:47.999Z</time></trkpt><trkpt lat="45.690247674364365" lon="9.31271272468056"><ele>331.0</ele><time>2026-03-31T14:45:48.999Z</time></trkpt><trkpt lat="45.69014420717461" lon="9.312645388922181"><ele>331.0</ele><time>2026-03-31T14:45:49.999Z</time></trkpt><trkpt lat="45.69006632259252" lon="9.312625612697616"><ele>331.0</ele><time>2026-03-31T14:45:50.999Z</time></trkpt><trkpt lat="45.68997606242428" lon="9.312595632743468"><ele>331.0</ele><time>2026-03-31T14:45:51.999Z</time></trkpt><trkpt lat="45.68988938624217" lon="9.312559867289037"><ele>331.0</ele><time>2026-03-31T14:45:52.999Z</time></trkpt><trkpt lat="45.6897757071871" lon="9.312533906326975"><ele>331.0</ele><time>2026-03-31T14:45:53.999Z</time></trkpt><trkpt lat="45.689668890100684" lon="9.312484116154277"><ele>331.0</ele><time>2026-03-31T14:45:54.999Z</time></trkpt><trkpt lat="45.689551902531406" lon="9.312415011769708"><ele>331.0</ele><time>2026-03-31T14:45:55.999Z</time></trkpt><trkpt lat="45.689430484661536" lon="9.312349264108175"><ele>331.0</ele><time>2026-03-31T14:45:56.999Z</time></trkpt><trkpt lat="45.689323667020915" lon="9.312306186135972"><ele>331.0</ele><time>2026-03-31T14:45:57.999Z</time></trkpt><trkpt lat="45.689218449891996" lon="9.312272256419162"><ele>329.0</ele><time>2026-03-31T14:45:58.999Z</time></trkpt><trkpt lat="45.68909944556159" lon="9.312260774271216"><ele>327.0</ele><time>2026-03-31T14:45:59.999Z</time></trkpt><trkpt lat="45.68899419971873" lon="9.312262379858772"><ele>325.0</ele><time>2026-03-31T14:46:00.999Z</time></trkpt><trkpt lat="45.68891695756035" lon="9.312249952638481"><ele>323.0</ele><time>2026-03-31T14:46:01.999Z</time></trkpt><trkpt lat="45.688852918555554" lon="9.312220331247378"><ele>321.0</ele><time>2026-03-31T14:46:02.999Z</time></trkpt><trkpt lat="45.688743653020175" lon="9.312190749964218"><ele>320.6666666666667</ele><time>2026-03-31T14:46:04.999Z</time></trkpt><trkpt lat="45.68865422630652" lon="9.312134634183538"><ele>320.3333333333333</ele><time>2026-03-31T14:46:06.999Z</time></trkpt><trkpt lat="45.688586057402105" lon="9.312045569662066"><ele>320.0</ele><time>2026-03-31T14:46:08.999Z</time></trkpt><trkpt lat="45.688519021505904" lon="9.312015407166847"><ele>319.66666666666663</ele><time>2026-03-31T14:46:11.999Z</time></trkpt><trkpt lat="45.68845197958002" lon="9.311984298181345"><ele>319.3333333333333</ele><time>2026-03-31T14:46:13.999Z</time></trkpt><trkpt lat="45.68842059787193" lon="9.311901245923748"><ele>319.0</ele><time>2026-03-31T14:46:15Z</time></trkpt><trkpt lat="45.68839934819633" lon="9.311811871776984"><ele>316.8</ele><time>2026-03-31T14:46:16Z</time></trkpt><trkpt lat="45.688409189906864" lon="9.311651289487788"><ele>314.59999999999997</ele><time>2026-03-31T14:46:18Z</time></trkpt><trkpt lat="45.68846426596199" lon="9.311525902496323"><ele>312.4</ele><time>2026-03-31T14:46:19Z</time></trkpt><trkpt lat="45.688506961830335" lon="9.311437369868075"><ele>310.2</ele><time>2026-03-31T14:46:20Z</time></trkpt><trkpt lat="45.688543532331764" lon="9.311317709395832"><ele>308.0</ele><time>2026-03-31T14:46:22Z</time></trkpt><trkpt lat="45.688513794492486" lon="9.311186152188997"><ele>307.6666666666667</ele><time>2026-03-31T14:46:23Z</time></trkpt><trkpt lat="45.68845899034737" lon="9.311004456829874"><ele>307.3333333333333</ele><time>2026-03-31T14:46:24Z</time></trkpt><trkpt lat="45.688378670238166" lon="9.310783611568423"><ele>307.0</ele><time>2026-03-31T14:46:25Z</time></trkpt><trkpt lat="45.68831234899756" lon="9.310582459486438"><ele>308.0</ele><time>2026-03-31T14:46:26Z</time></trkpt><trkpt lat="45.688248843970044" lon="9.310382401102387"><ele>309.0</ele><time>2026-03-31T14:46:27Z</time></trkpt><trkpt lat="45.68820539322354" lon="9.310208858771423"><ele>310.0</ele><time>2026-03-31T14:46:28Z</time></trkpt><trkpt lat="45.6881583458832" lon="9.31006978960791"><ele>311.0</ele><time>2026-03-31T14:46:29Z</time></trkpt><trkpt lat="45.68814182391586" lon="9.309981783857474"><ele>311.0</ele><time>2026-03-31T14:46:30Z</time></trkpt><trkpt lat="45.688102438515344" lon="9.309782296421266"><ele>311.0</ele><time>2026-03-31T14:46:32Z</time></trkpt><trkpt lat="45.68809860796714" lon="9.309682828621694"><ele>311.0</ele><time>2026-03-31T14:46:33Z</time></trkpt><trkpt lat="45.68803448025207" lon="9.309666395446715"><ele>311.0</ele><time>2026-03-31T14:46:37Z</time></trkpt><trkpt lat="45.6880538372402" lon="9.309821981246442"><ele>311.0</ele><time>2026-03-31T14:46:39Z</time></trkpt><trkpt lat="45.68812074042978" lon="9.309938516136187"><ele>311.0</ele><time>2026-03-31T14:46:41Z</time></trkpt><trkpt lat="45.688185694723295" lon="9.309954209622568"><ele>311.0</ele><time>2026-03-31T14:46:42Z</time></trkpt><trkpt lat="45.688277285454866" lon="9.309848063703411"><ele>311.0</ele><time>2026-03-31T14:46:44Z</time></trkpt><trkpt lat="45.68835563568776" lon="9.3097387315577"><ele>311.0</ele><time>2026-03-31T14:46:45Z</time></trkpt><trkpt lat="45.68844872515295" lon="9.309648267796778"><ele>311.0</ele><time>2026-03-31T14:46:46Z</time></trkpt><trkpt lat="45.68857414544558" lon="9.309560854186133"><ele>312.25</ele><time>2026-03-31T14:46:47Z</time></trkpt><trkpt lat="45.6887065901371" lon="9.309476846483284"><ele>313.5</ele><time>2026-03-31T14:46:48Z</time></trkpt><trkpt lat="45.68881974247057" lon="9.309409210278393"><ele>314.75</ele><time>2026-03-31T14:46:49Z</time></trkpt><trkpt lat="45.68890894112491" lon="9.30934990896201"><ele>316.0</ele><time>2026-03-31T14:46:50Z</time></trkpt><trkpt lat="45.68898827595754" lon="9.309302952097385"><ele>316.0</ele><time>2026-03-31T14:46:51Z</time></trkpt><trkpt lat="45.689064418983094" lon="9.309270051512428"><ele>316.0</ele><time>2026-03-31T14:46:52Z</time></trkpt><trkpt lat="45.68912853585408" lon="9.309229574580113"><ele>316.0</ele><time>2026-03-31T14:46:53Z</time></trkpt><trkpt lat="45.68919463260618" lon="9.309165565185237"><ele>316.0</ele><time>2026-03-31T14:46:54Z</time></trkpt><trkpt lat="45.689284397274925" lon="9.309063704446652"><ele>316.0</ele><time>2026-03-31T14:46:55Z</time></trkpt><trkpt lat="45.689388917736956" lon="9.30895342609872"><ele>317.4</ele><time>2026-03-31T14:46:56Z</time></trkpt><trkpt lat="45.689485671548105" lon="9.308857940520763"><ele>318.8</ele><time>2026-03-31T14:46:57Z</time></trkpt><trkpt lat="45.68955886561582" lon="9.30876921355286"><ele>320.2</ele><time>2026-03-31T14:46:58Z</time></trkpt><trkpt lat="45.68961767301308" lon="9.30868487542278"><ele>321.59999999999997</ele><time>2026-03-31T14:46:59Z</time></trkpt><trkpt lat="45.68967589880334" lon="9.308570695898695"><ele>323.0</ele><time>2026-03-31T14:47:00Z</time></trkpt><trkpt lat="45.689738855967576" lon="9.308442661114784"><ele>323.0</ele><time>2026-03-31T14:47:01Z</time></trkpt><trkpt lat="45.68981498702594" lon="9.308344653145435"><ele>323.0</ele><time>2026-03-31T14:47:02Z</time></trkpt><trkpt lat="45.689917081661186" lon="9.30825616372022"><ele>323.0</ele><time>2026-03-31T14:47:03Z</time></trkpt><trkpt lat="45.69001348027461" lon="9.308163834834975"><ele>323.0</ele><time>2026-03-31T14:47:04Z</time></trkpt><trkpt lat="45.69007254540007" lon="9.308126742024132"><ele>323.0</ele><time>2026-03-31T14:47:05Z</time></trkpt><trkpt lat="45.690169271822725" lon="9.308044313765961"><ele>323.5</ele><time>2026-03-31T14:47:07Z</time></trkpt><trkpt lat="45.69021806091942" lon="9.30797949129999"><ele>324.0</ele><time>2026-03-31T14:47:09Z</time></trkpt><trkpt lat="45.69026644676389" lon="9.307904257233455"><ele>324.5</ele><time>2026-03-31T14:47:12Z</time></trkpt><trkpt lat="45.69036024185235" lon="9.30782702243073"><ele>325.0</ele><time>2026-03-31T14:47:15Z</time></trkpt><trkpt lat="45.69043197713128" lon="9.307787639794343"><ele>325.5</ele><time>2026-03-31T14:47:19Z</time></trkpt><trkpt lat="45.69051620363431" lon="9.307782382121799"><ele>326.0</ele><time>2026-03-31T14:47:21Z</time></trkpt><trkpt lat="45.69060139878337" lon="9.307747141008608"><ele>326.0</ele><time>2026-03-31T14:47:22Z</time></trkpt><trkpt lat="45.69069260478214" lon="9.307685275657976"><ele>326.0</ele><time>2026-03-31T14:47:23Z</time></trkpt><trkpt lat="45.690796173907835" lon="9.307635438879668"><ele>326.0</ele><time>2026-03-31T14:47:24Z</time></trkpt><trkpt lat="45.69093907234926" lon="9.307588823942494"><ele>326.0</ele><time>2026-03-31T14:47:25Z</time></trkpt><trkpt lat="45.691097632966525" lon="9.307550399267441"><ele>328.33333333333337</ele><time>2026-03-31T14:47:26Z</time></trkpt><trkpt lat="45.69126159353994" lon="9.307525764631393"><ele>330.6666666666667</ele><time>2026-03-31T14:47:27Z</time></trkpt><trkpt lat="45.69143688991061" lon="9.307516284775883"><ele>333.0</ele><time>2026-03-31T14:47:28Z</time></trkpt><trkpt lat="45.69159349075848" lon="9.307523245741242"><ele>333.0</ele><time>2026-03-31T14:47:29Z</time></trkpt><trkpt lat="45.69173229929297" lon="9.307527460478987"><ele>333.0</ele><time>2026-03-31T14:47:30Z</time></trkpt><trkpt lat="45.6918509871249" lon="9.30752982025128"><ele>333.0</ele><time>2026-03-31T14:47:31Z</time></trkpt><trkpt lat="45.691982403406534" lon="9.30750930818538"><ele>333.0</ele><time>2026-03-31T14:47:32Z</time></trkpt><trkpt lat="45.69213636447472" lon="9.307478250705904"><ele>336.3333333333333</ele><time>2026-03-31T14:47:33Z</time></trkpt><trkpt lat="45.69226633385725" lon="9.307477561807735"><ele>339.66666666666663</ele><time>2026-03-31T14:47:34Z</time></trkpt><trkpt lat="45.69240054219396" lon="9.307407299463291"><ele>343.0</ele><time>2026-03-31T14:47:36Z</time></trkpt><trkpt lat="45.692632038500804" lon="9.307414313861596"><ele>345.0</ele><time>2026-03-31T14:48:57Z</time></trkpt><trkpt lat="45.69276394472893" lon="9.30747902819145"><ele>347.0</ele><time>2026-03-31T14:48:58Z</time></trkpt><trkpt lat="45.69284434328573" lon="9.307503599132483"><ele>349.0</ele><time>2026-03-31T14:48:59Z</time></trkpt><trkpt lat="45.6929131924253" lon="9.307513177699402"><ele>351.0</ele><time>2026-03-31T14:49:00Z</time></trkpt><trkpt lat="45.6929781925479" lon="9.307529339700505"><ele>353.0</ele><time>2026-03-31T14:49:01Z</time></trkpt><trkpt lat="45.693036959498905" lon="9.307567515191916"><ele>355.0</ele><time>2026-03-31T14:49:02Z</time></trkpt><trkpt lat="45.693150461887655" lon="9.307546624389262"><ele>355.0</ele><time>2026-03-31T14:49:04Z</time></trkpt><trkpt lat="45.69315376405614" lon="9.307365477013812"><ele>355.0</ele><time>2026-03-31T14:49:06Z</time></trkpt><trkpt lat="45.69317265779127" lon="9.30726542629075"><ele>355.0</ele><time>2026-03-31T14:49:07Z</time></trkpt><trkpt lat="45.693215870222204" lon="9.307157716336597"><ele>355.0</ele><time>2026-03-31T14:49:09Z</time></trkpt><trkpt lat="45.69327911260155" lon="9.307075511949066"><ele>355.0</ele><time>2026-03-31T14:49:11Z</time></trkpt><trkpt lat="45.69351683489705" lon="9.307117713793208"><ele>354.8</ele><time>2026-03-31T14:49:13Z</time></trkpt><trkpt lat="45.69362900686233" lon="9.307137736851642"><ele>354.6</ele><time>2026-03-31T14:49:14Z</time></trkpt><trkpt lat="45.69373804013198" lon="9.307144772396306"><ele>354.4</ele><time>2026-03-31T14:49:15Z</time></trkpt><trkpt lat="45.693836746150154" lon="9.307145517136796"><ele>354.2</ele><time>2026-03-31T14:49:16Z</time></trkpt><trkpt lat="45.693948762083586" lon="9.307123917933984"><ele>354.0</ele><time>2026-03-31T14:49:17Z</time></trkpt><trkpt lat="45.69405651548715" lon="9.30715870622787"><ele>354.0</ele><time>2026-03-31T14:49:18Z</time></trkpt><trkpt lat="45.6941268605466" lon="9.307128008693699"><ele>354.0</ele><time>2026-03-31T14:49:19Z</time></trkpt><trkpt lat="45.69422275419816" lon="9.307148431614285"><ele>354.0</ele><time>2026-03-31T14:49:20Z</time></trkpt><trkpt lat="45.69429218677938" lon="9.307148450485988"><ele>354.0</ele><time>2026-03-31T14:49:21Z</time></trkpt><trkpt lat="45.69437943051537" lon="9.30714845048841"><ele>354.0</ele><time>2026-03-31T14:49:22Z</time></trkpt><trkpt lat="45.694463846839554" lon="9.307148450491367"><ele>354.0</ele><time>2026-03-31T14:49:23Z</time></trkpt><trkpt lat="45.694552881083155" lon="9.307128079366533"><ele>354.4</ele><time>2026-03-31T14:49:25Z</time></trkpt><trkpt lat="45.694614896446154" lon="9.30717297360971"><ele>354.79999999999995</ele><time>2026-03-31T14:49:27Z</time></trkpt><trkpt lat="45.69469424581671" lon="9.307221329014153"><ele>355.20000000000005</ele><time>2026-03-31T14:49:28Z</time></trkpt><trkpt lat="45.694750624974304" lon="9.307409259187406"><ele>355.6</ele><time>2026-03-31T14:49:29Z</time></trkpt><trkpt lat="45.69484747319511" lon="9.307561928533294"><ele>356.0</ele><time>2026-03-31T14:49:30Z</time></trkpt><trkpt lat="45.69490588388961" lon="9.307696181695851"><ele>356.0</ele><time>2026-03-31T14:49:31Z</time></trkpt><trkpt lat="45.69496751500437" lon="9.307786375320697"><ele>356.0</ele><time>2026-03-31T14:49:32Z</time></trkpt><trkpt lat="45.695012766920996" lon="9.307884751678822"><ele>356.0</ele><time>2026-03-31T14:49:33Z</time></trkpt><trkpt lat="45.69506268514231" lon="9.307958471977898"><ele>356.0</ele><time>2026-03-31T14:49:36Z</time></trkpt><trkpt lat="45.69511332059781" lon="9.30804113459906"><ele>356.0</ele><time>2026-03-31T14:49:38Z</time></trkpt><trkpt lat="45.695158671036125" lon="9.308157183215611"><ele>356.0</ele><time>2026-03-31T14:49:39Z</time></trkpt><trkpt lat="45.69519337350256" lon="9.308237633348693"><ele>356.0</ele><time>2026-03-31T14:49:40Z</time></trkpt><trkpt lat="45.69526299668995" lon="9.308320825403712"><ele>356.0</ele><time>2026-03-31T14:49:41Z</time></trkpt><trkpt lat="45.695301423413376" lon="9.308405473308506"><ele>356.0</ele><time>2026-03-31T14:49:42Z</time></trkpt><trkpt lat="45.69535275701627" lon="9.308487842123723"><ele>356.0</ele><time>2026-03-31T14:49:43Z</time></trkpt><trkpt lat="45.6954405009668" lon="9.308587666787533"><ele>356.0</ele><time>2026-03-31T14:49:44Z</time></trkpt><trkpt lat="45.6954989809164" lon="9.308670461857814"><ele>356.0</ele><time>2026-03-31T14:49:45Z</time></trkpt><trkpt lat="45.69562989715674" lon="9.308754416194038"><ele>356.0</ele><time>2026-03-31T14:49:46Z</time></trkpt><trkpt lat="45.69576201172128" lon="9.308852153782379"><ele>356.0</ele><time>2026-03-31T14:49:47Z</time></trkpt><trkpt lat="45.6958746222374" lon="9.30893379342162"><ele>356.0</ele><time>2026-03-31T14:49:48Z</time></trkpt><trkpt lat="45.69596701778519" lon="9.30900452277584"><ele>356.0</ele><time>2026-03-31T14:49:49Z</time></trkpt><trkpt lat="45.6960417122609" lon="9.309130412349605"><ele>357.0</ele><time>2026-03-31T14:49:51Z</time></trkpt><trkpt lat="45.69611768192703" lon="9.309192545573572"><ele>358.0</ele><time>2026-03-31T14:49:52Z</time></trkpt><trkpt lat="45.69620203809265" lon="9.309335937895487"><ele>359.0</ele><time>2026-03-31T14:49:53Z</time></trkpt><trkpt lat="45.69628259835329" lon="9.309464985391369"><ele>360.0</ele><time>2026-03-31T14:49:54Z</time></trkpt><trkpt lat="45.696338380112046" lon="9.309588888515478"><ele>361.0</ele><time>2026-03-31T14:49:55Z</time></trkpt><trkpt lat="45.69637115231652" lon="9.309681273462969"><ele>361.8333333333333</ele><time>2026-03-31T14:49:56Z</time></trkpt><trkpt lat="45.69639031918966" lon="9.309778547655089"><ele>362.66666666666663</ele><time>2026-03-31T14:49:57Z</time></trkpt><trkpt lat="45.69642731240587" lon="9.309861320884414"><ele>363.5</ele><time>2026-03-31T14:49:58Z</time></trkpt><trkpt lat="45.696457622158775" lon="9.309980387392935"><ele>364.3333333333333</ele><time>2026-03-31T14:49:59Z</time></trkpt><trkpt lat="45.69650756902981" lon="9.310103749539829"><ele>365.1666666666667</ele><time>2026-03-31T14:50:00Z</time></trkpt><trkpt lat="45.69654795832966" lon="9.310206171346042"><ele>366.0</ele><time>2026-03-31T14:50:01Z</time></trkpt><trkpt lat="45.696578912707324" lon="9.310288945237453"><ele>366.0</ele><time>2026-03-31T14:50:02Z</time></trkpt><trkpt lat="45.69657763136073" lon="9.310435604693538"><ele>366.0</ele><time>2026-03-31T14:50:05Z</time></trkpt><trkpt lat="45.69651254199412" lon="9.310506035857383"><ele>366.0</ele><time>2026-03-31T14:50:06Z</time></trkpt><trkpt lat="45.69642379483793" lon="9.31064011393686"><ele>366.0</ele><time>2026-03-31T14:50:07Z</time></trkpt><trkpt lat="45.69635186255021" lon="9.310722609242221"><ele>366.0</ele><time>2026-03-31T14:50:08Z</time></trkpt><trkpt lat="45.69628915533544" lon="9.310793122179925"><ele>366.0</ele><time>2026-03-31T14:50:09Z</time></trkpt><trkpt lat="45.69620552473921" lon="9.310905852553836"><ele>366.0</ele><time>2026-03-31T14:50:10Z</time></trkpt><trkpt lat="45.69611427853467" lon="9.310986207927598"><ele>366.0</ele><time>2026-03-31T14:50:11Z</time></trkpt><trkpt lat="45.69595208314152" lon="9.311083782108016"><ele>366.0</ele><time>2026-03-31T14:50:12Z</time></trkpt><trkpt lat="45.69580274821817" lon="9.311185985761258"><ele>365.0</ele><time>2026-03-31T14:50:13Z</time></trkpt><trkpt lat="45.695656459926965" lon="9.311292106701563"><ele>364.0</ele><time>2026-03-31T14:50:14Z</time></trkpt><trkpt lat="45.69552767673152" lon="9.311374196686106"><ele>363.0</ele><time>2026-03-31T14:50:14.999Z</time></trkpt><trkpt lat="45.69541502870696" lon="9.311455270244966"><ele>362.0</ele><time>2026-03-31T14:50:15.999Z</time></trkpt><trkpt lat="45.69530872972389" lon="9.311539510800205"><ele>359.5</ele><time>2026-03-31T14:50:16.999Z</time></trkpt><trkpt lat="45.695204883122564" lon="9.311642209071623"><ele>357.0</ele><time>2026-03-31T14:50:17.999Z</time></trkpt><trkpt lat="45.69510596491535" lon="9.311769690229701"><ele>354.5</ele><time>2026-03-31T14:50:18.999Z</time></trkpt><trkpt lat="45.694995398760355" lon="9.311942295696095"><ele>352.0</ele><time>2026-03-31T14:50:19.999Z</time></trkpt><trkpt lat="45.69489755974567" lon="9.31209253608438"><ele>352.0</ele><time>2026-03-31T14:50:20.999Z</time></trkpt><trkpt lat="45.69482019880653" lon="9.312203672871966"><ele>352.0</ele><time>2026-03-31T14:50:21.999Z</time></trkpt><trkpt lat="45.694746338638396" lon="9.312302276587946"><ele>352.0</ele><time>2026-03-31T14:50:22.999Z</time></trkpt><trkpt lat="45.69467680395185" lon="9.312402904697416"><ele>352.0</ele><time>2026-03-31T14:50:23.999Z</time></trkpt><trkpt lat="45.69461157537515" lon="9.312521786603448"><ele>352.0</ele><time>2026-03-31T14:50:24.999Z</time></trkpt><trkpt lat="45.69459229862838" lon="9.312628775878618"><ele>352.40000000000003</ele><time>2026-03-31T14:50:25.999Z</time></trkpt><trkpt lat="45.694594281163354" lon="9.312796031374207"><ele>352.8</ele><time>2026-03-31T14:50:28Z</time></trkpt><trkpt lat="45.69459391208946" lon="9.31288953685049"><ele>353.2</ele><time>2026-03-31T14:50:31Z</time></trkpt><trkpt lat="45.69460713153673" lon="9.313019910047219"><ele>353.6</ele><time>2026-03-31T14:51:12Z</time></trkpt><trkpt lat="45.694442112427595" lon="9.313093013237621"><ele>354.0</ele><time>2026-03-31T14:51:13Z</time></trkpt><trkpt lat="45.69433460045144" lon="9.313168766663317"><ele>354.0</ele><time>2026-03-31T14:51:14Z</time></trkpt><trkpt lat="45.694221464669496" lon="9.31325104619872"><ele>354.0</ele><time>2026-03-31T14:51:15Z</time></trkpt><trkpt lat="45.6940790465183" lon="9.313350114139858"><ele>354.0</ele><time>2026-03-31T14:51:16Z</time></trkpt><trkpt lat="45.69393777573969" lon="9.313442981330649"><ele>354.0</ele><time>2026-03-31T14:51:17Z</time></trkpt><trkpt lat="45.69379252392044" lon="9.313539526403375"><ele>354.0</ele><time>2026-03-31T14:51:18Z</time></trkpt><trkpt lat="45.693654824380786" lon="9.313619491424102"><ele>354.0</ele><time>2026-03-31T14:51:19Z</time></trkpt><trkpt lat="45.69354290451806" lon="9.313641171568571"><ele>354.0</ele><time>2026-03-31T14:51:21Z</time></trkpt><trkpt lat="45.69338634029765" lon="9.313804380844829"><ele>353.0</ele><time>2026-03-31T14:51:23Z</time></trkpt><trkpt lat="45.69322090764914" lon="9.313930011288349"><ele>352.0</ele><time>2026-03-31T14:51:24Z</time></trkpt><trkpt lat="45.69305315924588" lon="9.314049848040037"><ele>351.0</ele><time>2026-03-31T14:51:25Z</time></trkpt><trkpt lat="45.69291580709832" lon="9.314147486548437"><ele>351.0</ele><time>2026-03-31T14:51:26Z</time></trkpt><trkpt lat="45.69279290375849" lon="9.314227938499034"><ele>351.0</ele><time>2026-03-31T14:51:27Z</time></trkpt><trkpt lat="45.69268031952515" lon="9.314316024618737"><ele>351.0</ele><time>2026-03-31T14:51:28Z</time></trkpt><trkpt lat="45.692551912408405" lon="9.31443381295322"><ele>351.0</ele><time>2026-03-31T14:51:29Z</time></trkpt><trkpt lat="45.692430774238275" lon="9.314556163763571"><ele>350.20000000000005</ele><time>2026-03-31T14:51:30Z</time></trkpt><trkpt lat="45.69231022644432" lon="9.314641633014094"><ele>349.40000000000003</ele><time>2026-03-31T14:51:31Z</time></trkpt><trkpt lat="45.69221815807112" lon="9.314738846605328"><ele>348.6</ele><time>2026-03-31T14:51:32Z</time></trkpt><trkpt lat="45.692151500439905" lon="9.314805739659075"><ele>347.8</ele><time>2026-03-31T14:51:33Z</time></trkpt><trkpt lat="45.692085414432945" lon="9.314869353654363"><ele>347.0</ele><time>2026-03-31T14:51:34Z</time></trkpt><trkpt lat="45.69202873213129" lon="9.314935418853203"><ele>347.0</ele><time>2026-03-31T14:51:35Z</time></trkpt><trkpt lat="45.69195726916109" lon="9.314990706810582"><ele>347.0</ele><time>2026-03-31T14:51:36Z</time></trkpt><trkpt lat="45.69189335914735" lon="9.315020975080492"><ele>347.0</ele><time>2026-03-31T14:51:37Z</time></trkpt><trkpt lat="45.6918049905483" lon="9.31512980358796"><ele>347.0</ele><time>2026-03-31T14:51:39Z</time></trkpt><trkpt lat="45.691768685976605" lon="9.315216980751503"><ele>347.0</ele><time>2026-03-31T14:51:40Z</time></trkpt><trkpt lat="45.691747739522114" lon="9.315306477081789"><ele>347.0</ele><time>2026-03-31T14:51:41Z</time></trkpt><trkpt lat="45.691865267321006" lon="9.315464819905857"><ele>346.25</ele><time>2026-03-31T14:51:42Z</time></trkpt><trkpt lat="45.69189337847685" lon="9.315594692507462"><ele>345.5</ele><time>2026-03-31T14:51:43Z</time></trkpt><trkpt lat="45.69197274645443" lon="9.315723265278237"><ele>344.75</ele><time>2026-03-31T14:51:44Z</time></trkpt><trkpt lat="45.692015900663236" lon="9.315867576127035"><ele>344.0</ele><time>2026-03-31T14:51:45Z</time></trkpt><trkpt lat="45.692105355818306" lon="9.316078460093944"><ele>344.0</ele><time>2026-03-31T14:51:46Z</time></trkpt><trkpt lat="45.69219944230611" lon="9.316346026094086"><ele>344.0</ele><time>2026-03-31T14:51:47Z</time></trkpt><trkpt lat="45.69226594395139" lon="9.316556353117695"><ele>344.0</ele><time>2026-03-31T14:51:48Z</time></trkpt><trkpt lat="45.69230040554855" lon="9.316736317674122"><ele>343.25</ele><time>2026-03-31T14:51:49Z</time></trkpt><trkpt lat="45.69227917346416" lon="9.316914270764295"><ele>342.5</ele><time>2026-03-31T14:51:50Z</time></trkpt><trkpt lat="45.69229961612814" lon="9.31706743823284"><ele>341.75</ele><time>2026-03-31T14:51:51Z</time></trkpt><trkpt lat="45.692323322288104" lon="9.31723269585841"><ele>341.0</ele><time>2026-03-31T14:51:52Z</time></trkpt><trkpt lat="45.69235737664697" lon="9.31742213574938"><ele>340.0</ele><time>2026-03-31T14:51:53Z</time></trkpt><trkpt lat="45.692376751535875" lon="9.317624966180826"><ele>339.0</ele><time>2026-03-31T14:51:54Z</time></trkpt><trkpt lat="45.692399149013006" lon="9.317800979058179"><ele>338.0</ele><time>2026-03-31T14:51:55Z</time></trkpt><trkpt lat="45.692400972132205" lon="9.317959058091896"><ele>337.0</ele><time>2026-03-31T14:51:56Z</time></trkpt><trkpt lat="45.692436909792" lon="9.318097933943774"><ele>336.25</ele><time>2026-03-31T14:51:57Z</time></trkpt><trkpt lat="45.69250334536258" lon="9.318238358376254"><ele>335.5</ele><time>2026-03-31T14:51:58Z</time></trkpt><trkpt lat="45.69258550107404" lon="9.318352920133872"><ele>334.75</ele><time>2026-03-31T14:51:59Z</time></trkpt><trkpt lat="45.69267445326062" lon="9.31845287919533"><ele>334.0</ele><time>2026-03-31T14:52:00Z</time></trkpt><trkpt lat="45.692798990807425" lon="9.318509281922783"><ele>335.79999999999995</ele><time>2026-03-31T14:52:01Z</time></trkpt><trkpt lat="45.69289350820104" lon="9.318555607080084"><ele>337.59999999999997</ele><time>2026-03-31T14:52:02Z</time></trkpt><trkpt lat="45.69295430050189" lon="9.318595178531707"><ele>339.4</ele><time>2026-03-31T14:52:03Z</time></trkpt><trkpt lat="45.69302575294659" lon="9.31866550434418"><ele>341.2</ele><time>2026-03-31T14:52:05Z</time></trkpt><trkpt lat="45.69306764716869" lon="9.31876873547722"><ele>343.0</ele><time>2026-03-31T14:52:06Z</time></trkpt><trkpt lat="45.693149692910936" lon="9.318893816693478"><ele>343.25</ele><time>2026-03-31T14:52:06.999Z</time></trkpt><trkpt lat="45.693278066062845" lon="9.318993726718675"><ele>343.5</ele><time>2026-03-31T14:52:07.999Z</time></trkpt><trkpt lat="45.69341723017501" lon="9.319059640204882"><ele>343.75</ele><time>2026-03-31T14:52:08.999Z</time></trkpt><trkpt lat="45.69352900270563" lon="9.319113307865585"><ele>344.0</ele><time>2026-03-31T14:52:09.999Z</time></trkpt><trkpt lat="45.69360993242841" lon="9.319160335386059"><ele>344.33333333333337</ele><time>2026-03-31T14:52:10.999Z</time></trkpt><trkpt lat="45.69365786126897" lon="9.319224638439074"><ele>344.6666666666667</ele><time>2026-03-31T14:52:11.999Z</time></trkpt><trkpt lat="45.6937334731222" lon="9.319247043070282"><ele>345.0</ele><time>2026-03-31T14:52:15.999Z</time></trkpt><trkpt lat="45.69381521568627" lon="9.319370422170284"><ele>345.3333333333333</ele><time>2026-03-31T14:52:17.999Z</time></trkpt><trkpt lat="45.69383795150625" lon="9.31945777406182"><ele>345.66666666666663</ele><time>2026-03-31T14:52:18.999Z</time></trkpt><trkpt lat="45.69382565563343" lon="9.319564967752084"><ele>346.0</ele><time>2026-03-31T14:52:19.999Z</time></trkpt><trkpt lat="45.69384760009419" lon="9.31975788249618"><ele>346.0</ele><time>2026-03-31T14:52:20.999Z</time></trkpt><trkpt lat="45.6937070490834" lon="9.319879135408616"><ele>346.0</ele><time>2026-03-31T14:52:21.999Z</time></trkpt><trkpt lat="45.69366910772773" lon="9.320018510238553"><ele>346.0</ele><time>2026-03-31T14:52:22.999Z</time></trkpt><trkpt lat="45.69362909597996" lon="9.320157570710421"><ele>346.0</ele><time>2026-03-31T14:52:23.999Z</time></trkpt><trkpt lat="45.69358916829" lon="9.320297694369799"><ele>346.0</ele><time>2026-03-31T14:52:24.999Z</time></trkpt><trkpt lat="45.69355727644004" lon="9.320430459026197"><ele>346.0</ele><time>2026-03-31T14:52:25.999Z</time></trkpt><trkpt lat="45.693504794653094" lon="9.320606401775821"><ele>346.0</ele><time>2026-03-31T14:52:26.999Z</time></trkpt><trkpt lat="45.693450882032565" lon="9.320738975920712"><ele>346.0</ele><time>2026-03-31T14:52:27.999Z</time></trkpt><trkpt lat="45.69338953981849" lon="9.320857573094703"><ele>346.0</ele><time>2026-03-31T14:52:28.999Z</time></trkpt><trkpt lat="45.69332693576716" lon="9.32103735228646"><ele>344.75</ele><time>2026-03-31T14:52:29.999Z</time></trkpt><trkpt lat="45.69325901957744" lon="9.321224606162534"><ele>343.5</ele><time>2026-03-31T14:52:30.999Z</time></trkpt><trkpt lat="45.693203028291435" lon="9.321430459369411"><ele>342.25</ele><time>2026-03-31T14:52:31.999Z</time></trkpt><trkpt lat="45.69312400357477" lon="9.321579481727907"><ele>341.0</ele><time>2026-03-31T14:52:33Z</time></trkpt><trkpt lat="45.69304619710155" lon="9.321721392050195"><ele>338.5</ele><time>2026-03-31T14:52:34Z</time></trkpt><trkpt lat="45.692966318934076" lon="9.32185927341579"><ele>336.0</ele><time>2026-03-31T14:52:35Z</time></trkpt><trkpt lat="45.69290119061105" lon="9.321990310317263"><ele>333.5</ele><time>2026-03-31T14:52:36Z</time></trkpt><trkpt lat="45.69284466805206" lon="9.322119234372282"><ele>331.0</ele><time>2026-03-31T14:52:37Z</time></trkpt><trkpt lat="45.69277599273457" lon="9.322243893544604"><ele>329.75</ele><time>2026-03-31T14:52:38Z</time></trkpt><trkpt lat="45.692710995912414" lon="9.322376307543236"><ele>328.5</ele><time>2026-03-31T14:52:39Z</time></trkpt><trkpt lat="45.692643150094575" lon="9.322510407973832"><ele>327.25</ele><time>2026-03-31T14:52:40Z</time></trkpt><trkpt lat="45.69257539820991" lon="9.322653568711988"><ele>326.0</ele><time>2026-03-31T14:52:41Z</time></trkpt><trkpt lat="45.69248527078202" lon="9.32282523446839"><ele>326.0</ele><time>2026-03-31T14:52:42Z</time></trkpt><trkpt lat="45.69241771891721" lon="9.322964393659243"><ele>326.0</ele><time>2026-03-31T14:52:43Z</time></trkpt><trkpt lat="45.69234738291899" lon="9.323087504558648"><ele>326.0</ele><time>2026-03-31T14:52:44Z</time></trkpt><trkpt lat="45.69226894657518" lon="9.323231458754357"><ele>326.0</ele><time>2026-03-31T14:52:45Z</time></trkpt><trkpt lat="45.69219970921011" lon="9.323360978741581"><ele>324.6666666666667</ele><time>2026-03-31T14:52:46Z</time></trkpt><trkpt lat="45.69211782517779" lon="9.32352008918238"><ele>323.3333333333333</ele><time>2026-03-31T14:52:47Z</time></trkpt><trkpt lat="45.692028775503154" lon="9.323702716579485"><ele>322.0</ele><time>2026-03-31T14:52:48Z</time></trkpt><trkpt lat="45.691916305547814" lon="9.323857535386383"><ele>321.3333333333333</ele><time>2026-03-31T14:52:49Z</time></trkpt><trkpt lat="45.69179371720574" lon="9.324104358416049"><ele>320.6666666666667</ele><time>2026-03-31T14:52:50Z</time></trkpt><trkpt lat="45.69171094863157" lon="9.32429144380195"><ele>320.0</ele><time>2026-03-31T14:52:51Z</time></trkpt><trkpt lat="45.691628677491394" lon="9.32447609152105"><ele>320.0</ele><time>2026-03-31T14:52:52Z</time></trkpt><trkpt lat="45.6915542677783" lon="9.32463093896387"><ele>320.0</ele><time>2026-03-31T14:52:53Z</time></trkpt><trkpt lat="45.69146965516124" lon="9.324776137379208"><ele>320.0</ele><time>2026-03-31T14:52:54Z</time></trkpt><trkpt lat="45.69139572559985" lon="9.324935547395663"><ele>320.0</ele><time>2026-03-31T14:52:55Z</time></trkpt><trkpt lat="45.69131048754112" lon="9.32510231526575"><ele>320.25</ele><time>2026-03-31T14:52:56Z</time></trkpt><trkpt lat="45.69120457733148" lon="9.3252440421712"><ele>320.5</ele><time>2026-03-31T14:52:57Z</time></trkpt><trkpt lat="45.69110873333005" lon="9.325355848323726"><ele>320.75</ele><time>2026-03-31T14:52:58Z</time></trkpt><trkpt lat="45.69101833338347" lon="9.325461773658516"><ele>321.0</ele><time>2026-03-31T14:52:59Z</time></trkpt><trkpt lat="45.69095287771467" lon="9.325540965427654"><ele>321.0</ele><time>2026-03-31T14:53:00Z</time></trkpt><trkpt lat="45.690875436294405" lon="9.32559628276336"><ele>321.0</ele><time>2026-03-31T14:53:01Z</time></trkpt><trkpt lat="45.69079747308159" lon="9.325692564566788"><ele>321.0</ele><time>2026-03-31T14:53:02Z</time></trkpt><trkpt lat="45.69072351217815" lon="9.32577227059213"><ele>321.0</ele><time>2026-03-31T14:53:03Z</time></trkpt><trkpt lat="45.690653346326954" lon="9.325827478478088"><ele>321.0</ele><time>2026-03-31T14:53:04Z</time></trkpt><trkpt lat="45.69056038414763" lon="9.325891164324979"><ele>321.0</ele><time>2026-03-31T14:53:06Z</time></trkpt><trkpt lat="45.690432230362724" lon="9.325983204522116"><ele>321.0</ele><time>2026-03-31T14:53:08Z</time></trkpt><trkpt lat="45.69034288097661" lon="9.326036739499626"><ele>321.0</ele><time>2026-03-31T14:53:09Z</time></trkpt><trkpt lat="45.69026763078176" lon="9.326096355464301"><ele>321.0</ele><time>2026-03-31T14:53:10Z</time></trkpt><trkpt lat="45.69019426827193" lon="9.326145293217548"><ele>321.0</ele><time>2026-03-31T14:53:11Z</time></trkpt><trkpt lat="45.69012590887608" lon="9.326186817274616"><ele>321.0</ele><time>2026-03-31T14:53:12Z</time></trkpt><trkpt lat="45.6900441470497" lon="9.32623677982854"><ele>321.0</ele><time>2026-03-31T14:53:13Z</time></trkpt><trkpt lat="45.68994384507768" lon="9.3262905314446"><ele>321.0</ele><time>2026-03-31T14:53:14Z</time></trkpt><trkpt lat="45.689869429472814" lon="9.326319833360527"><ele>321.0</ele><time>2026-03-31T14:53:15Z</time></trkpt><trkpt lat="45.689776127010944" lon="9.326377016517064"><ele>321.0</ele><time>2026-03-31T14:53:16Z</time></trkpt><trkpt lat="45.68969257683557" lon="9.3264272302905"><ele>319.8</ele><time>2026-03-31T14:53:17Z</time></trkpt><trkpt lat="45.68960834380168" lon="9.326452659896633"><ele>318.6</ele><time>2026-03-31T14:53:18Z</time></trkpt><trkpt lat="45.68945862332203" lon="9.326475503672384"><ele>317.4</ele><time>2026-03-31T14:53:20Z</time></trkpt><trkpt lat="45.689381746025006" lon="9.326508808694392"><ele>316.2</ele><time>2026-03-31T14:53:21Z</time></trkpt><trkpt lat="45.68931052237802" lon="9.32652493280289"><ele>315.0</ele><time>2026-03-31T14:53:22Z</time></trkpt><trkpt lat="45.68924700075899" lon="9.326601535271942"><ele>314.4</ele><time>2026-03-31T14:53:24Z</time></trkpt><trkpt lat="45.689161321293476" lon="9.326673427436894"><ele>313.8</ele><time>2026-03-31T14:53:27Z</time></trkpt><trkpt lat="45.689161006795224" lon="9.326827971018176"><ele>313.2</ele><time>2026-03-31T14:53:28Z</time></trkpt><trkpt lat="45.68914860486922" lon="9.326973962184963"><ele>312.6</ele><time>2026-03-31T14:53:29Z</time></trkpt><trkpt lat="45.68913475074498" lon="9.327142325168344"><ele>312.0</ele><time>2026-03-31T14:53:30Z</time></trkpt><trkpt lat="45.68908686269717" lon="9.327296499995162"><ele>311.6</ele><time>2026-03-31T14:53:31Z</time></trkpt><trkpt lat="45.68905462545201" lon="9.327438476269974"><ele>311.2</ele><time>2026-03-31T14:53:32Z</time></trkpt><trkpt lat="45.68903363764016" lon="9.327595245275576"><ele>310.8</ele><time>2026-03-31T14:53:33Z</time></trkpt><trkpt lat="45.688984731880666" lon="9.327738909663497"><ele>310.4</ele><time>2026-03-31T14:53:34Z</time></trkpt><trkpt lat="45.68895107907622" lon="9.327881627856366"><ele>310.0</ele><time>2026-03-31T14:53:35Z</time></trkpt><trkpt lat="45.68891494319928" lon="9.328034424488477"><ele>309.75</ele><time>2026-03-31T14:53:36Z</time></trkpt><trkpt lat="45.68887790552886" lon="9.32819072523536"><ele>309.5</ele><time>2026-03-31T14:53:37Z</time></trkpt><trkpt lat="45.68884029791206" lon="9.328349431217616"><ele>309.25</ele><time>2026-03-31T14:53:38Z</time></trkpt><trkpt lat="45.688805829656616" lon="9.328495913330025"><ele>309.0</ele><time>2026-03-31T14:53:39Z</time></trkpt><trkpt lat="45.68877383804707" lon="9.328651958019098"><ele>309.0</ele><time>2026-03-31T14:53:40Z</time></trkpt><trkpt lat="45.68874342083367" lon="9.328814124935397"><ele>309.0</ele><time>2026-03-31T14:53:41Z</time></trkpt><trkpt lat="45.68870404725339" lon="9.328973020385812"><ele>309.0</ele><time>2026-03-31T14:53:42Z</time></trkpt><trkpt lat="45.68866563574339" lon="9.329133134482138"><ele>309.0</ele><time>2026-03-31T14:53:43Z</time></trkpt><trkpt lat="45.68862601219887" lon="9.329296022886895"><ele>308.8</ele><time>2026-03-31T14:53:44Z</time></trkpt><trkpt lat="45.688594270354905" lon="9.329452475444032"><ele>308.59999999999997</ele><time>2026-03-31T14:53:45Z</time></trkpt><trkpt lat="45.68856076779013" lon="9.329599584944745"><ele>308.4</ele><time>2026-03-31T14:53:46Z</time></trkpt><trkpt lat="45.6885310755881" lon="9.329735966244796"><ele>308.2</ele><time>2026-03-31T14:53:47Z</time></trkpt><trkpt lat="45.688501720229404" lon="9.329870767846332"><ele>308.0</ele><time>2026-03-31T14:53:48Z</time></trkpt><trkpt lat="45.68846303486891" lon="9.330008086643057"><ele>307.2</ele><time>2026-03-31T14:53:49Z</time></trkpt><trkpt lat="45.688409992286104" lon="9.330152437469867"><ele>306.4</ele><time>2026-03-31T14:53:50Z</time></trkpt><trkpt lat="45.68836520731093" lon="9.330276400278901"><ele>305.59999999999997</ele><time>2026-03-31T14:53:51Z</time></trkpt><trkpt lat="45.688312431107" lon="9.330401070274544"><ele>304.8</ele><time>2026-03-31T14:53:52Z</time></trkpt><trkpt lat="45.68827044212189" lon="9.330521560889972"><ele>304.0</ele><time>2026-03-31T14:53:53Z</time></trkpt><trkpt lat="45.688223076979604" lon="9.330623140471516"><ele>303.0</ele><time>2026-03-31T14:53:54Z</time></trkpt><trkpt lat="45.68818332801028" lon="9.330722848068698"><ele>302.0</ele><time>2026-03-31T14:53:55Z</time></trkpt><trkpt lat="45.6881421076179" lon="9.330829539816545"><ele>301.0</ele><time>2026-03-31T14:53:56Z</time></trkpt><trkpt lat="45.68810303485332" lon="9.330934233096727"><ele>300.0</ele><time>2026-03-31T14:53:57Z</time></trkpt><trkpt lat="45.688057922939194" lon="9.331053504680115"><ele>299.0</ele><time>2026-03-31T14:53:58Z</time></trkpt><trkpt lat="45.68799128599721" lon="9.331178816258276"><ele>299.0</ele><time>2026-03-31T14:53:59Z</time></trkpt><trkpt lat="45.687939775883144" lon="9.331313559766679"><ele>299.0</ele><time>2026-03-31T14:54:00Z</time></trkpt><trkpt lat="45.68787074070616" lon="9.331442809992419"><ele>299.0</ele><time>2026-03-31T14:54:01Z</time></trkpt><trkpt lat="45.68780625257827" lon="9.331572439875648"><ele>299.0</ele><time>2026-03-31T14:54:02Z</time></trkpt><trkpt lat="45.687743385999376" lon="9.33170841728551"><ele>299.0</ele><time>2026-03-31T14:54:03Z</time></trkpt><trkpt lat="45.687679235652595" lon="9.331825615806373"><ele>299.5</ele><time>2026-03-31T14:54:04Z</time></trkpt><trkpt lat="45.687611272746544" lon="9.331947710507233"><ele>300.0</ele><time>2026-03-31T14:54:05Z</time></trkpt><trkpt lat="45.687537170087126" lon="9.33205806266767"><ele>300.5</ele><time>2026-03-31T14:54:06Z</time></trkpt><trkpt lat="45.68743910051662" lon="9.332189506138125"><ele>301.0</ele><time>2026-03-31T14:54:07Z</time></trkpt><trkpt lat="45.68736918592838" lon="9.332311676663195"><ele>299.8</ele><time>2026-03-31T14:54:08Z</time></trkpt><trkpt lat="45.687310011684566" lon="9.332383853657928"><ele>298.6</ele><time>2026-03-31T14:54:08.999Z</time></trkpt><trkpt lat="45.687408883439495" lon="9.332452500574243"><ele>297.4</ele><time>2026-03-31T14:54:13.999Z</time></trkpt><trkpt lat="45.687493616001696" lon="9.332415172033429"><ele>296.2</ele><time>2026-03-31T14:54:14.999Z</time></trkpt><trkpt lat="45.687571864225184" lon="9.332351964316022"><ele>295.0</ele><time>2026-03-31T14:54:15.999Z</time></trkpt><trkpt lat="45.6876651018768" lon="9.332329551166685"><ele>295.0</ele><time>2026-03-31T14:54:16.999Z</time></trkpt><trkpt lat="45.68775879107623" lon="9.332289463281077"><ele>295.0</ele><time>2026-03-31T14:54:17.999Z</time></trkpt><trkpt lat="45.687870196863955" lon="9.332249292141036"><ele>295.0</ele><time>2026-03-31T14:54:19.999Z</time></trkpt><trkpt lat="45.68798490455304" lon="9.332226383450816"><ele>295.0</ele><time>2026-03-31T14:54:21.999Z</time></trkpt><trkpt lat="45.68812777613695" lon="9.332215201333202"><ele>295.8</ele><time>2026-03-31T14:54:23.999Z</time></trkpt><trkpt lat="45.68823830830415" lon="9.332198025059617"><ele>296.6</ele><time>2026-03-31T14:54:24.999Z</time></trkpt><trkpt lat="45.68832918143594" lon="9.332173778797902"><ele>297.4</ele><time>2026-03-31T14:54:25.999Z</time></trkpt><trkpt lat="45.68840909816969" lon="9.33216673527247"><ele>298.2</ele><time>2026-03-31T14:54:26.999Z</time></trkpt><trkpt lat="45.68848420552908" lon="9.332165582399899"><ele>299.0</ele><time>2026-03-31T14:54:27.999Z</time></trkpt><trkpt lat="45.68859547998481" lon="9.332147093823217"><ele>296.59999999999997</ele><time>2026-03-31T14:54:29.999Z</time></trkpt><trkpt lat="45.688665479596786" lon="9.332155808186174"><ele>294.2</ele><time>2026-03-31T14:54:31.999Z</time></trkpt><trkpt lat="45.6886870996092" lon="9.332244682358004"><ele>291.79999999999995</ele><time>2026-03-31T14:54:39Z</time></trkpt><trkpt lat="45.68864512877442" lon="9.332343763155327"><ele>289.4</ele><time>2026-03-31T14:54:41Z</time></trkpt><trkpt lat="45.68851976548491" lon="9.332499467251619"><ele>287.0</ele><time>2026-03-31T14:54:43Z</time></trkpt><trkpt lat="45.68843475886472" lon="9.33255608386361"><ele>287.0</ele><time>2026-03-31T14:54:44Z</time></trkpt><trkpt lat="45.68837166215335" lon="9.332615801191054"><ele>287.0</ele><time>2026-03-31T14:54:45Z</time></trkpt><trkpt lat="45.68831177743364" lon="9.332675261347642"><ele>287.0</ele><time>2026-03-31T14:54:46Z</time></trkpt><trkpt lat="45.68821803871736" lon="9.332746921294417"><ele>287.0</ele><time>2026-03-31T14:54:48Z</time></trkpt><trkpt lat="45.68811644572935" lon="9.332765965500577"><ele>287.0</ele><time>2026-03-31T14:54:50Z</time></trkpt><trkpt lat="45.68798980015457" lon="9.332792537440614"><ele>287.0</ele><time>2026-03-31T14:54:52Z</time></trkpt><trkpt lat="45.6878912175287" lon="9.332862819169689"><ele>287.0</ele><time>2026-03-31T14:54:54Z</time></trkpt><trkpt lat="45.68783695928167" lon="9.33293960486918"><ele>287.0</ele><time>2026-03-31T14:54:55Z</time></trkpt><trkpt lat="45.687787804730355" lon="9.333036746514836"><ele>287.0</ele><time>2026-03-31T14:54:56Z</time></trkpt><trkpt lat="45.687741088725666" lon="9.333167895252023"><ele>287.0</ele><time>2026-03-31T14:54:57Z</time></trkpt><trkpt lat="45.68768441602252" lon="9.33328959640689"><ele>286.6</ele><time>2026-03-31T14:54:58Z</time></trkpt><trkpt lat="45.687627977444535" lon="9.333351010654415"><ele>286.2</ele><time>2026-03-31T14:54:59Z</time></trkpt><trkpt lat="45.6875270722344" lon="9.333524631957026"><ele>285.8</ele><time>2026-03-31T14:55:01Z</time></trkpt><trkpt lat="45.687464752912554" lon="9.333630999446346"><ele>285.4</ele><time>2026-03-31T14:55:02Z</time></trkpt><trkpt lat="45.687412603503326" lon="9.333723358231016"><ele>285.0</ele><time>2026-03-31T14:55:03Z</time></trkpt><trkpt lat="45.687323797528045" lon="9.33381965951594"><ele>283.2</ele><time>2026-03-31T14:55:05Z</time></trkpt><trkpt lat="45.68721932715457" lon="9.333918710710517"><ele>281.4</ele><time>2026-03-31T14:55:07Z</time></trkpt><trkpt lat="45.68717614438084" lon="9.333988778864907"><ele>279.6</ele><time>2026-03-31T14:55:08Z</time></trkpt><trkpt lat="45.68713106037784" lon="9.334109271834215"><ele>277.8</ele><time>2026-03-31T14:55:09Z</time></trkpt><trkpt lat="45.68710017132939" lon="9.334209543299673"><ele>276.0</ele><time>2026-03-31T14:55:10Z</time></trkpt><trkpt lat="45.68699421869621" lon="9.33429645297578"><ele>276.0</ele><time>2026-03-31T14:55:12Z</time></trkpt><trkpt lat="45.686971960328385" lon="9.3344405693539"><ele>276.0</ele><time>2026-03-31T14:55:14Z</time></trkpt><trkpt lat="45.6869402801192" lon="9.334532142998313"><ele>276.0</ele><time>2026-03-31T14:55:16Z</time></trkpt><trkpt lat="45.68694527191495" lon="9.334622820193655"><ele>276.0</ele><time>2026-03-31T14:55:18Z</time></trkpt><trkpt lat="45.68690450870258" lon="9.334731689396875"><ele>276.0</ele><time>2026-03-31T14:55:20Z</time></trkpt><trkpt lat="45.68681159057905" lon="9.334860458063932"><ele>277.2</ele><time>2026-03-31T14:55:22Z</time></trkpt><trkpt lat="45.68676340990919" lon="9.334998656698847"><ele>278.40000000000003</ele><time>2026-03-31T14:55:24Z</time></trkpt><trkpt lat="45.686733629350044" lon="9.335098975043918"><ele>279.6</ele><time>2026-03-31T14:55:25Z</time></trkpt><trkpt lat="45.686667401275095" lon="9.335202218844614"><ele>280.8</ele><time>2026-03-31T14:55:26Z</time></trkpt><trkpt lat="45.68657262755126" lon="9.335332658972101"><ele>282.0</ele><time>2026-03-31T14:55:27Z</time></trkpt><trkpt lat="45.68648729580775" lon="9.335474094918311"><ele>280.5</ele><time>2026-03-31T14:55:28Z</time></trkpt><trkpt lat="45.68637886323285" lon="9.335628595714633"><ele>279.0</ele><time>2026-03-31T14:55:29Z</time></trkpt><trkpt lat="45.68627414186589" lon="9.335764764655867"><ele>277.5</ele><time>2026-03-31T14:55:30Z</time></trkpt><trkpt lat="45.686177564112064" lon="9.33587982978983"><ele>276.0</ele><time>2026-03-31T14:55:31Z</time></trkpt><trkpt lat="45.68611660329658" lon="9.335958719308623"><ele>277.6</ele><time>2026-03-31T14:55:32Z</time></trkpt><trkpt lat="45.686059360751074" lon="9.336011017253483"><ele>279.20000000000005</ele><time>2026-03-31T14:55:33Z</time></trkpt><trkpt lat="45.68600162395145" lon="9.336059817965133"><ele>280.79999999999995</ele><time>2026-03-31T14:55:35Z</time></trkpt><trkpt lat="45.68586840935849" lon="9.336143441497116"><ele>282.4</ele><time>2026-03-31T14:55:37Z</time></trkpt><trkpt lat="45.685780901999145" lon="9.336243974939796"><ele>284.0</ele><time>2026-03-31T14:55:38Z</time></trkpt><trkpt lat="45.68572762765564" lon="9.336309576763249"><ele>281.83333333333337</ele><time>2026-03-31T14:55:39Z</time></trkpt><trkpt lat="45.6856712382893" lon="9.336389798038986"><ele>279.6666666666667</ele><time>2026-03-31T14:55:40Z</time></trkpt><trkpt lat="45.68559675288715" lon="9.336450548197071"><ele>277.5</ele><time>2026-03-31T14:55:41Z</time></trkpt><trkpt lat="45.68552039158412" lon="9.336550446937826"><ele>275.3333333333333</ele><time>2026-03-31T14:55:43Z</time></trkpt><trkpt lat="45.685463119185364" lon="9.336623312049802"><ele>273.16666666666663</ele><time>2026-03-31T14:55:44Z</time></trkpt><trkpt lat="45.68543106250824" lon="9.33671395789871"><ele>271.0</ele><time>2026-03-31T14:55:45Z</time></trkpt><trkpt lat="45.685396874173136" lon="9.336794319671148"><ele>271.0</ele><time>2026-03-31T14:55:46Z</time></trkpt><trkpt lat="45.68541468603288" lon="9.336886776440997"><ele>271.0</ele><time>2026-03-31T14:55:47Z</time></trkpt><trkpt lat="45.68536656695167" lon="9.336968641877775"><ele>271.0</ele><time>2026-03-31T14:55:48Z</time></trkpt><trkpt lat="45.68530672576667" lon="9.337093874885994"><ele>271.0</ele><time>2026-03-31T14:55:49Z</time></trkpt><trkpt lat="45.68523909659334" lon="9.33717136272929"><ele>271.0</ele><time>2026-03-31T14:55:50Z</time></trkpt><trkpt lat="45.68515444996586" lon="9.337258889023849"><ele>271.0</ele><time>2026-03-31T14:55:51Z</time></trkpt><trkpt lat="45.685101874066" lon="9.337337423331828"><ele>271.6</ele><time>2026-03-31T14:55:52Z</time></trkpt><trkpt lat="45.68502143671947" lon="9.337407608444298"><ele>272.20000000000005</ele><time>2026-03-31T14:55:53Z</time></trkpt><trkpt lat="45.68495889991058" lon="9.33748239093532"><ele>272.79999999999995</ele><time>2026-03-31T14:55:54Z</time></trkpt><trkpt lat="45.68490024381089" lon="9.33761856310282"><ele>273.4</ele><time>2026-03-31T14:55:55Z</time></trkpt><trkpt lat="45.68482699050163" lon="9.337769825338361"><ele>274.0</ele><time>2026-03-31T14:55:56Z</time></trkpt><trkpt lat="45.68477863460355" lon="9.337911571234228"><ele>272.25</ele><time>2026-03-31T14:55:57Z</time></trkpt><trkpt lat="45.68473397965218" lon="9.338055977882037"><ele>270.5</ele><time>2026-03-31T14:55:58Z</time></trkpt><trkpt lat="45.68468343921759" lon="9.338234270467986"><ele>268.75</ele><time>2026-03-31T14:55:59Z</time></trkpt><trkpt lat="45.684644705888346" lon="9.33840850344805"><ele>267.0</ele><time>2026-03-31T14:56:00Z</time></trkpt><trkpt lat="45.6846104878777" lon="9.338548260113685"><ele>267.0</ele><time>2026-03-31T14:56:01Z</time></trkpt><trkpt lat="45.68457419620247" lon="9.338685568351197"><ele>267.0</ele><time>2026-03-31T14:56:02Z</time></trkpt><trkpt lat="45.68453151120382" lon="9.338816230371227"><ele>267.0</ele><time>2026-03-31T14:56:03Z</time></trkpt><trkpt lat="45.68447372927514" lon="9.33896004530664"><ele>267.0</ele><time>2026-03-31T14:56:04Z</time></trkpt><trkpt lat="45.68443186831828" lon="9.339120979692396"><ele>267.0</ele><time>2026-03-31T14:56:05Z</time></trkpt><trkpt lat="45.68439007370632" lon="9.339289721573854"><ele>268.4</ele><time>2026-03-31T14:56:06Z</time></trkpt><trkpt lat="45.68437201092079" lon="9.339445572908259"><ele>269.79999999999995</ele><time>2026-03-31T14:56:07Z</time></trkpt><trkpt lat="45.68435781783502" lon="9.339566660838772"><ele>271.2</ele><time>2026-03-31T14:56:08Z</time></trkpt><trkpt lat="45.68432881702808" lon="9.339663458458743"><ele>272.59999999999997</ele><time>2026-03-31T14:56:09Z</time></trkpt><trkpt lat="45.68429554982919" lon="9.339833299615039"><ele>274.0</ele><time>2026-03-31T14:56:12Z</time></trkpt><trkpt lat="45.68428160850144" lon="9.339952682174204"><ele>274.0</ele><time>2026-03-31T14:56:13Z</time></trkpt><trkpt lat="45.684250263363374" lon="9.34005472291288"><ele>274.0</ele><time>2026-03-31T14:56:14Z</time></trkpt><trkpt lat="45.684267354907064" lon="9.34014327940374"><ele>274.0</ele><time>2026-03-31T14:56:16Z</time></trkpt><trkpt lat="45.684286104143915" lon="9.340247610469062"><ele>274.0</ele><time>2026-03-31T14:56:17Z</time></trkpt><trkpt lat="45.68431126936278" lon="9.340434958846432"><ele>274.0</ele><time>2026-03-31T14:56:19Z</time></trkpt><trkpt lat="45.684318396997426" lon="9.340609047051915"><ele>274.0</ele><time>2026-03-31T14:56:21Z</time></trkpt><trkpt lat="45.684326997018786" lon="9.340707662390518"><ele>274.0</ele><time>2026-03-31T14:56:22Z</time></trkpt><trkpt lat="45.68427988755727" lon="9.340948500735795"><ele>274.0</ele><time>2026-03-31T14:56:24Z</time></trkpt><trkpt lat="45.68424905689316" lon="9.341093623349526"><ele>274.0</ele><time>2026-03-31T14:56:25Z</time></trkpt><trkpt lat="45.6842294882283" lon="9.341266599025586"><ele>274.0</ele><time>2026-03-31T14:56:27Z</time></trkpt><trkpt lat="45.68416952199314" lon="9.341322054653267"><ele>274.0</ele><time>2026-03-31T14:56:28Z</time></trkpt><trkpt lat="45.684182104783176" lon="9.3414529701206"><ele>274.0</ele><time>2026-03-31T14:56:29Z</time></trkpt><trkpt lat="45.684171812349355" lon="9.341599436841477"><ele>274.0</ele><time>2026-03-31T14:56:31Z</time></trkpt><trkpt lat="45.68417070880368" lon="9.34199814351818"><ele>273.59999999999997</ele><time>2026-03-31T14:56:39.999Z</time></trkpt><trkpt lat="45.68421450584237" lon="9.342102444713843"><ele>273.2</ele><time>2026-03-31T14:56:41.999Z</time></trkpt><trkpt lat="45.68425111900271" lon="9.34220352172028"><ele>272.79999999999995</ele><time>2026-03-31T14:56:45Z</time></trkpt><trkpt lat="45.68428140254819" lon="9.34228800596895"><ele>272.4</ele><time>2026-03-31T14:56:50Z</time></trkpt><trkpt lat="45.68431053893763" lon="9.342429519320246"><ele>272.0</ele><time>2026-03-31T14:56:52Z</time></trkpt><trkpt lat="45.684323075208034" lon="9.342605612918328"><ele>272.0</ele><time>2026-03-31T14:56:54Z</time></trkpt><trkpt lat="45.68433291604546" lon="9.34275270020175"><ele>272.0</ele><time>2026-03-31T14:56:57Z</time></trkpt><trkpt lat="45.6843180071396" lon="9.342845744568091"><ele>272.0</ele><time>2026-03-31T14:56:59Z</time></trkpt><trkpt lat="45.684295672303946" lon="9.34294874227388"><ele>272.0</ele><time>2026-03-31T14:57:00Z</time></trkpt><trkpt lat="45.684306218391576" lon="9.343061832978817"><ele>272.0</ele><time>2026-03-31T14:57:01Z</time></trkpt><trkpt lat="45.68429324616997" lon="9.343228780605846"><ele>272.0</ele><time>2026-03-31T14:57:03Z</time></trkpt><trkpt lat="45.68427168941324" lon="9.343333926076598"><ele>272.1666666666667</ele><time>2026-03-31T14:57:04Z</time></trkpt><trkpt lat="45.684250501839124" lon="9.34342457870906"><ele>272.33333333333337</ele><time>2026-03-31T14:57:05Z</time></trkpt><trkpt lat="45.684255713761225" lon="9.343583429237158"><ele>272.5</ele><time>2026-03-31T14:57:07Z</time></trkpt><trkpt lat="45.684284384478985" lon="9.343738316621282"><ele>272.6666666666667</ele><time>2026-03-31T14:57:09Z</time></trkpt><trkpt lat="45.68428382244474" lon="9.343829221763535"><ele>272.8333333333333</ele><time>2026-03-31T14:57:10Z</time></trkpt><trkpt lat="45.68426359307578" lon="9.343924315868913"><ele>273.0</ele><time>2026-03-31T14:57:12Z</time></trkpt><trkpt lat="45.68431280862757" lon="9.34398065363907"><ele>273.0</ele><time>2026-03-31T14:57:14Z</time></trkpt><trkpt lat="45.68432773509558" lon="9.344093507935932"><ele>273.0</ele><time>2026-03-31T14:57:18Z</time></trkpt><trkpt lat="45.684275094564626" lon="9.344189194592104"><ele>273.0</ele><time>2026-03-31T14:57:21Z</time></trkpt><trkpt lat="45.68423771786086" lon="9.344304576991634"><ele>273.0</ele><time>2026-03-31T14:57:23Z</time></trkpt><trkpt lat="45.68421169589661" lon="9.34439795240473"><ele>273.0</ele><time>2026-03-31T14:57:25Z</time></trkpt><trkpt lat="45.68423954157432" lon="9.34449662649093"><ele>273.0</ele><time>2026-03-31T14:57:28Z</time></trkpt><trkpt lat="45.6842800590005" lon="9.344573931636802"><ele>272.0</ele><time>2026-03-31T14:57:31Z</time></trkpt><trkpt lat="45.68445626916031" lon="9.344616104485757"><ele>271.0</ele><time>2026-03-31T14:57:41Z</time></trkpt><trkpt lat="45.68444775939257" lon="9.344717708590004"><ele>270.0</ele><time>2026-03-31T14:57:43Z</time></trkpt><trkpt lat="45.684450546546564" lon="9.344854942089711"><ele>269.0</ele><time>2026-03-31T14:57:45Z</time></trkpt><trkpt lat="45.68453976795305" lon="9.344922430166704"><ele>268.0</ele><time>2026-03-31T14:57:47Z</time></trkpt><trkpt lat="45.68460083300715" lon="9.344964498595864"><ele>268.0</ele><time>2026-03-31T14:57:48Z</time></trkpt><trkpt lat="45.684710834837865" lon="9.345045981117774"><ele>268.0</ele><time>2026-03-31T14:57:50Z</time></trkpt><trkpt lat="45.68477922753353" lon="9.3451077957815"><ele>268.0</ele><time>2026-03-31T14:57:51Z</time></trkpt><trkpt lat="45.684837111442796" lon="9.345182890557195"><ele>268.0</ele><time>2026-03-31T14:57:52Z</time></trkpt><trkpt lat="45.684895857657374" lon="9.345220944717378"><ele>268.0</ele><time>2026-03-31T14:57:53Z</time></trkpt><trkpt lat="45.68494514014386" lon="9.345293922129764"><ele>268.0</ele><time>2026-03-31T14:57:56Z</time></trkpt><trkpt lat="45.68497135477627" lon="9.345415973034935"><ele>268.0</ele><time>2026-03-31T14:57:58Z</time></trkpt><trkpt lat="45.68494335143803" lon="9.345536503288908"><ele>268.0</ele><time>2026-03-31T14:58:00Z</time></trkpt><trkpt lat="45.68489370520066" lon="9.345634850184119"><ele>268.0</ele><time>2026-03-31T14:58:01Z</time></trkpt><trkpt lat="45.6848613557013" lon="9.345724984254131"><ele>268.0</ele><time>2026-03-31T14:58:02Z</time></trkpt><trkpt lat="45.6848279376622" lon="9.345859963671012"><ele>268.0</ele><time>2026-03-31T14:58:03Z</time></trkpt><trkpt lat="45.684786978902665" lon="9.346019701045837"><ele>268.75</ele><time>2026-03-31T14:58:04Z</time></trkpt><trkpt lat="45.68470878506762" lon="9.346184751781708"><ele>269.5</ele><time>2026-03-31T14:58:05Z</time></trkpt><trkpt lat="45.684633882024514" lon="9.346333064793015"><ele>270.25</ele><time>2026-03-31T14:58:06Z</time></trkpt><trkpt lat="45.68456935378463" lon="9.346450830613014"><ele>271.0</ele><time>2026-03-31T14:58:07Z</time></trkpt><trkpt lat="45.68451227058534" lon="9.346535985040447"><ele>271.0</ele><time>2026-03-31T14:58:08Z</time></trkpt><trkpt lat="45.68446432602341" lon="9.346601889450694"><ele>271.0</ele><time>2026-03-31T14:58:09Z</time></trkpt><trkpt lat="45.68434122564616" lon="9.346653232305819"><ele>271.0</ele><time>2026-03-31T14:58:11Z</time></trkpt><trkpt lat="45.684236640756986" lon="9.346663725964957"><ele>271.0</ele><time>2026-03-31T14:58:12Z</time></trkpt><trkpt lat="45.68411313904756" lon="9.34669223737118"><ele>271.0</ele><time>2026-03-31T14:58:13Z</time></trkpt><trkpt lat="45.68402152615559" lon="9.346738410314163"><ele>270.25</ele><time>2026-03-31T14:58:14Z</time></trkpt><trkpt lat="45.68395525323655" lon="9.346795233218016"><ele>269.5</ele><time>2026-03-31T14:58:15Z</time></trkpt><trkpt lat="45.68385230109513" lon="9.347009557687507"><ele>268.75</ele><time>2026-03-31T14:58:17Z</time></trkpt><trkpt lat="45.68378462148753" lon="9.347140129172352"><ele>268.0</ele><time>2026-03-31T14:58:18Z</time></trkpt><trkpt lat="45.68372974347241" lon="9.347273641251201"><ele>268.0</ele><time>2026-03-31T14:58:19Z</time></trkpt><trkpt lat="45.68367586621542" lon="9.347397990018605"><ele>268.0</ele><time>2026-03-31T14:58:20Z</time></trkpt><trkpt lat="45.6836041022072" lon="9.347542279073291"><ele>268.0</ele><time>2026-03-31T14:58:21Z</time></trkpt><trkpt lat="45.68354575862136" lon="9.34769829157608"><ele>268.0</ele><time>2026-03-31T14:58:22Z</time></trkpt><trkpt lat="45.683437687319426" lon="9.34784256340009"><ele>267.0</ele><time>2026-03-31T14:58:23Z</time></trkpt><trkpt lat="45.68335819762041" lon="9.347951518614712"><ele>266.0</ele><time>2026-03-31T14:58:24Z</time></trkpt><trkpt lat="45.6832830123826" lon="9.348035098248488"><ele>265.0</ele><time>2026-03-31T14:58:25Z</time></trkpt><trkpt lat="45.68322152635776" lon="9.348152553665159"><ele>264.0</ele><time>2026-03-31T14:58:26Z</time></trkpt><trkpt lat="45.68314962367042" lon="9.348270187771448"><ele>263.0</ele><time>2026-03-31T14:58:27Z</time></trkpt><trkpt lat="45.68308524842013" lon="9.348399451669616"><ele>263.0</ele><time>2026-03-31T14:58:28Z</time></trkpt><trkpt lat="45.683039334208345" lon="9.348556402042902"><ele>263.0</ele><time>2026-03-31T14:58:29Z</time></trkpt><trkpt lat="45.68296677673833" lon="9.348739356320888"><ele>263.0</ele><time>2026-03-31T14:58:30Z</time></trkpt><trkpt lat="45.682909283246524" lon="9.348896384152312"><ele>263.0</ele><time>2026-03-31T14:58:31Z</time></trkpt><trkpt lat="45.68285761087074" lon="9.349030210619162"><ele>262.6</ele><time>2026-03-31T14:58:32Z</time></trkpt><trkpt lat="45.682798769382785" lon="9.349121319345246"><ele>262.20000000000005</ele><time>2026-03-31T14:58:33Z</time></trkpt><trkpt lat="45.68271897364171" lon="9.349215265915548"><ele>261.8</ele><time>2026-03-31T14:58:34Z</time></trkpt><trkpt lat="45.68262892270199" lon="9.349283616365076"><ele>261.40000000000003</ele><time>2026-03-31T14:58:35Z</time></trkpt><trkpt lat="45.68251979317405" lon="9.349358573175351"><ele>261.0</ele><time>2026-03-31T14:58:36Z</time></trkpt><trkpt lat="45.682423855950866" lon="9.34944636735307"><ele>261.0</ele><time>2026-03-31T14:58:37Z</time></trkpt><trkpt lat="45.68235624730655" lon="9.349488303434102"><ele>261.0</ele><time>2026-03-31T14:58:38Z</time></trkpt><trkpt lat="45.6822655408654" lon="9.349559846217366"><ele>261.0</ele><time>2026-03-31T14:58:39Z</time></trkpt><trkpt lat="45.68218014171539" lon="9.34967437873753"><ele>261.0</ele><time>2026-03-31T14:58:40Z</time></trkpt><trkpt lat="45.68210253768983" lon="9.349765768338788"><ele>261.0</ele><time>2026-03-31T14:58:41Z</time></trkpt><trkpt lat="45.68205906663499" lon="9.349836724888215"><ele>262.2</ele><time>2026-03-31T14:58:42Z</time></trkpt><trkpt lat="45.68201514573084" lon="9.349931264494147"><ele>263.40000000000003</ele><time>2026-03-31T14:58:43Z</time></trkpt><trkpt lat="45.68199677141385" lon="9.350021930731026"><ele>264.6</ele><time>2026-03-31T14:58:44Z</time></trkpt><trkpt lat="45.681972218348974" lon="9.350210430683731"><ele>265.8</ele><time>2026-03-31T14:58:46Z</time></trkpt><trkpt lat="45.681951544461285" lon="9.350332141339997"><ele>267.0</ele><time>2026-03-31T14:58:47Z</time></trkpt><trkpt lat="45.681943240026" lon="9.350463079287085"><ele>265.4</ele><time>2026-03-31T14:58:48Z</time></trkpt><trkpt lat="45.68193047175364" lon="9.350567886591003"><ele>263.79999999999995</ele><time>2026-03-31T14:58:49Z</time></trkpt><trkpt lat="45.681871007945034" lon="9.350710802945004"><ele>262.2</ele><time>2026-03-31T14:58:51Z</time></trkpt><trkpt lat="45.68181382930511" lon="9.350849445852704"><ele>260.59999999999997</ele><time>2026-03-31T14:58:53Z</time></trkpt><trkpt lat="45.68173288342342" lon="9.350958176088188"><ele>259.0</ele><time>2026-03-31T14:58:55Z</time></trkpt><trkpt lat="45.68166643203553" lon="9.351010984405027"><ele>259.0</ele><time>2026-03-31T14:58:56Z</time></trkpt><trkpt lat="45.681593739091525" lon="9.351058667413584"><ele>259.0</ele><time>2026-03-31T14:58:57Z</time></trkpt><trkpt lat="45.6815188136675" lon="9.35108742253969"><ele>259.0</ele><time>2026-03-31T14:58:58Z</time></trkpt><trkpt lat="45.681449648275866" lon="9.351111954243903"><ele>259.0</ele><time>2026-03-31T14:58:59Z</time></trkpt><trkpt lat="45.681352103750626" lon="9.35116367210492"><ele>259.0</ele><time>2026-03-31T14:59:01Z</time></trkpt><trkpt lat="45.68122902885516" lon="9.351154641355834"><ele>259.0</ele><time>2026-03-31T14:59:03Z</time></trkpt><trkpt lat="45.68113380370718" lon="9.351117937954852"><ele>259.0</ele><time>2026-03-31T14:59:04Z</time></trkpt><trkpt lat="45.68102338497693" lon="9.351123277471146"><ele>259.0</ele><time>2026-03-31T14:59:05Z</time></trkpt><trkpt lat="45.68091810306987" lon="9.351166831938844"><ele>259.0</ele><time>2026-03-31T14:59:06Z</time></trkpt><trkpt lat="45.68081430907775" lon="9.351216490723104"><ele>259.0</ele><time>2026-03-31T14:59:07Z</time></trkpt><trkpt lat="45.680704072861744" lon="9.351272710552339"><ele>260.0</ele><time>2026-03-31T14:59:08Z</time></trkpt><trkpt lat="45.68060367346263" lon="9.351343342116916"><ele>261.0</ele><time>2026-03-31T14:59:09Z</time></trkpt><trkpt lat="45.68046912235691" lon="9.35141914677849"><ele>262.0</ele><time>2026-03-31T14:59:10Z</time></trkpt><trkpt lat="45.68034240862165" lon="9.35144960085652"><ele>263.0</ele><time>2026-03-31T14:59:11Z</time></trkpt><trkpt lat="45.68023687232922" lon="9.35147720353889"><ele>263.2</ele><time>2026-03-31T14:59:12Z</time></trkpt><trkpt lat="45.68013107478881" lon="9.351522079155378"><ele>263.4</ele><time>2026-03-31T14:59:13Z</time></trkpt><trkpt lat="45.68003368269705" lon="9.35154215655256"><ele>263.59999999999997</ele><time>2026-03-31T14:59:14Z</time></trkpt><trkpt lat="45.679956188879316" lon="9.351528836426848"><ele>263.8</ele><time>2026-03-31T14:59:15Z</time></trkpt><trkpt lat="45.67986485976996" lon="9.351540876563782"><ele>264.0</ele><time>2026-03-31T14:59:17Z</time></trkpt><trkpt lat="45.67976120021652" lon="9.351552413152993"><ele>264.0</ele><time>2026-03-31T14:59:19Z</time></trkpt><trkpt lat="45.679660926572495" lon="9.351566792667827"><ele>264.0</ele><time>2026-03-31T14:59:21Z</time></trkpt><trkpt lat="45.679579651180866" lon="9.351578961270889"><ele>264.0</ele><time>2026-03-31T14:59:22Z</time></trkpt><trkpt lat="45.679493619697574" lon="9.351593338194718"><ele>264.0</ele><time>2026-03-31T14:59:23Z</time></trkpt><trkpt lat="45.679402391692975" lon="9.351609638266956"><ele>264.0</ele><time>2026-03-31T14:59:24Z</time></trkpt><trkpt lat="45.679313567506526" lon="9.351630563661711"><ele>263.8</ele><time>2026-03-31T14:59:25Z</time></trkpt><trkpt lat="45.67922479019665" lon="9.351653709114766"><ele>263.59999999999997</ele><time>2026-03-31T14:59:26Z</time></trkpt><trkpt lat="45.67914265674115" lon="9.351677247389173"><ele>263.4</ele><time>2026-03-31T14:59:27Z</time></trkpt><trkpt lat="45.6790657697099" lon="9.351699195225768"><ele>263.2</ele><time>2026-03-31T14:59:28Z</time></trkpt><trkpt lat="45.67892418029317" lon="9.351740824387118"><ele>263.0</ele><time>2026-03-31T14:59:30Z</time></trkpt><trkpt lat="45.67879800297876" lon="9.351778458796323"><ele>263.0</ele><time>2026-03-31T14:59:31Z</time></trkpt><trkpt lat="45.67870021789889" lon="9.351807809973048"><ele>263.0</ele><time>2026-03-31T14:59:32Z</time></trkpt><trkpt lat="45.678583749285636" lon="9.351840436528228"><ele>263.0</ele><time>2026-03-31T14:59:34Z</time></trkpt><trkpt lat="45.67850009130028" lon="9.351861763431563"><ele>263.0</ele><time>2026-03-31T14:59:35Z</time></trkpt><trkpt lat="45.67841458300457" lon="9.351883562009366"><ele>263.0</ele><time>2026-03-31T14:59:36Z</time></trkpt><trkpt lat="45.678327861954564" lon="9.351906245092273"><ele>262.25</ele><time>2026-03-31T14:59:37Z</time></trkpt><trkpt lat="45.678245908232746" lon="9.351929137544712"><ele>261.5</ele><time>2026-03-31T14:59:38Z</time></trkpt><trkpt lat="45.678157954921616" lon="9.351953705873658"><ele>260.75</ele><time>2026-03-31T14:59:39Z</time></trkpt><trkpt lat="45.678043438744936" lon="9.352032454406007"><ele>260.0</ele><time>2026-03-31T14:59:40Z</time></trkpt><trkpt lat="45.677850395759855" lon="9.352099949411773"><ele>260.0</ele><time>2026-03-31T14:59:41Z</time></trkpt><trkpt lat="45.677749368962616" lon="9.352227518157974"><ele>260.0</ele><time>2026-03-31T14:59:42Z</time></trkpt><trkpt lat="45.67766802471028" lon="9.352354633854446"><ele>260.0</ele><time>2026-03-31T14:59:43Z</time></trkpt><trkpt lat="45.67762693138899" lon="9.352454834391207"><ele>260.0</ele><time>2026-03-31T14:59:44Z</time></trkpt><trkpt lat="45.677581017648905" lon="9.352556260246653"><ele>260.0</ele><time>2026-03-31T14:59:45Z</time></trkpt><trkpt lat="45.67754592333729" lon="9.35265651358182"><ele>260.0</ele><time>2026-03-31T14:59:46Z</time></trkpt><trkpt lat="45.67753562839029" lon="9.352795855661036"><ele>260.0</ele><time>2026-03-31T14:59:48Z</time></trkpt><trkpt lat="45.67751140228395" lon="9.352886508036208"><ele>260.0</ele><time>2026-03-31T14:59:49Z</time></trkpt><trkpt lat="45.67745846846579" lon="9.353002480905662"><ele>260.0</ele><time>2026-03-31T14:59:50Z</time></trkpt><trkpt lat="45.677405076688125" lon="9.353119779851626"><ele>260.0</ele><time>2026-03-31T14:59:51Z</time></trkpt><trkpt lat="45.67734081231901" lon="9.353246823650078"><ele>260.33333333333337</ele><time>2026-03-31T14:59:52Z</time></trkpt><trkpt lat="45.677409921969634" lon="9.353716571183393"><ele>260.6666666666667</ele><time>2026-03-31T14:59:53Z</time></trkpt><trkpt lat="45.67732694090493" lon="9.35379316326057"><ele>261.0</ele><time>2026-03-31T14:59:55Z</time></trkpt><trkpt lat="45.677301543348484" lon="9.353888506763887"><ele>261.0</ele><time>2026-03-31T14:59:57Z</time></trkpt><trkpt lat="45.67735713948021" lon="9.354018004020668"><ele>261.0</ele><time>2026-03-31T14:59:59Z</time></trkpt><trkpt lat="45.67741354688815" lon="9.354082411337073"><ele>261.0</ele><time>2026-03-31T15:00:00Z</time></trkpt><trkpt lat="45.6774855369445" lon="9.354123165848012"><ele>261.0</ele><time>2026-03-31T15:00:01Z</time></trkpt><trkpt lat="45.6775848393342" lon="9.354165057428325"><ele>261.0</ele><time>2026-03-31T15:00:02Z</time></trkpt><trkpt lat="45.67766417192041" lon="9.35418075759669"><ele>261.0</ele><time>2026-03-31T15:00:03Z</time></trkpt><trkpt lat="45.67774337565622" lon="9.354209881367293"><ele>262.40000000000003</ele><time>2026-03-31T15:00:04Z</time></trkpt><trkpt lat="45.67784697449255" lon="9.354268325779536"><ele>263.8</ele><time>2026-03-31T15:00:05Z</time></trkpt><trkpt lat="45.67794365312638" lon="9.354297120471355"><ele>265.20000000000005</ele><time>2026-03-31T15:00:06Z</time></trkpt><trkpt lat="45.67805032428772" lon="9.354319242444195"><ele>266.6</ele><time>2026-03-31T15:00:07Z</time></trkpt><trkpt lat="45.67812074317179" lon="9.354398504842855"><ele>268.0</ele><time>2026-03-31T15:00:08Z</time></trkpt><trkpt lat="45.678180852184184" lon="9.354463368390778"><ele>268.0</ele><time>2026-03-31T15:00:09Z</time></trkpt><trkpt lat="45.67825378195888" lon="9.35457526297224"><ele>268.0</ele><time>2026-03-31T15:00:11Z</time></trkpt><trkpt lat="45.67825752094239" lon="9.35475499297455"><ele>268.0</ele><time>2026-03-31T15:00:13Z</time></trkpt><trkpt lat="45.67823541524958" lon="9.35485145611237"><ele>268.0</ele><time>2026-03-31T15:00:14Z</time></trkpt><trkpt lat="45.67816236320288" lon="9.35497491152974"><ele>268.0</ele><time>2026-03-31T15:00:15Z</time></trkpt><trkpt lat="45.67803756638825" lon="9.355107322203894"><ele>268.8</ele><time>2026-03-31T15:00:16Z</time></trkpt><trkpt lat="45.67793472063242" lon="9.35524133815036"><ele>269.6</ele><time>2026-03-31T15:00:17Z</time></trkpt><trkpt lat="45.67785781978743" lon="9.355335004331817"><ele>270.4</ele><time>2026-03-31T15:00:18Z</time></trkpt><trkpt lat="45.677786353434634" lon="9.355422132478614"><ele>271.2</ele><time>2026-03-31T15:00:19Z</time></trkpt><trkpt lat="45.677724075362725" lon="9.355513219118738"><ele>272.0</ele><time>2026-03-31T15:00:20Z</time></trkpt><trkpt lat="45.677637719415024" lon="9.355608153607907"><ele>272.2</ele><time>2026-03-31T15:00:21Z</time></trkpt><trkpt lat="45.67754844678228" lon="9.355716816966675"><ele>272.4</ele><time>2026-03-31T15:00:22Z</time></trkpt><trkpt lat="45.67747191539377" lon="9.355803381119403"><ele>272.6</ele><time>2026-03-31T15:00:23Z</time></trkpt><trkpt lat="45.67738935971357" lon="9.355858927628395"><ele>272.8</ele><time>2026-03-31T15:00:24Z</time></trkpt><trkpt lat="45.67730019531736" lon="9.355907140187645"><ele>273.0</ele><time>2026-03-31T15:00:25Z</time></trkpt><trkpt lat="45.677230107191754" lon="9.35593925099027"><ele>273.0</ele><time>2026-03-31T15:00:26Z</time></trkpt><trkpt lat="45.677160410404994" lon="9.35597775486843"><ele>273.0</ele><time>2026-03-31T15:00:27Z</time></trkpt><trkpt lat="45.677082986901375" lon="9.35603749407807"><ele>273.0</ele><time>2026-03-31T15:00:29Z</time></trkpt><trkpt lat="45.67705256375449" lon="9.3561536800638"><ele>273.0</ele><time>2026-03-31T15:00:31Z</time></trkpt><trkpt lat="45.67704438880597" lon="9.35624303819874"><ele>273.0</ele><time>2026-03-31T15:00:32Z</time></trkpt><trkpt lat="45.67705834415141" lon="9.356369407832753"><ele>273.0</ele><time>2026-03-31T15:00:34Z</time></trkpt><trkpt lat="45.677035958750295" lon="9.356487256873327"><ele>272.7142857142857</ele><time>2026-03-31T15:00:35Z</time></trkpt><trkpt lat="45.67707649337998" lon="9.356581540140601"><ele>272.42857142857144</ele><time>2026-03-31T15:00:37Z</time></trkpt><trkpt lat="45.67713457646657" lon="9.356543740400568"><ele>272.1428571428571</ele><time>2026-03-31T15:00:40Z</time></trkpt><trkpt lat="45.67718987624256" lon="9.35648263277499"><ele>271.8571428571429</ele><time>2026-03-31T15:00:46Z</time></trkpt><trkpt lat="45.67725842741594" lon="9.356422485273226"><ele>271.57142857142856</ele><time>2026-03-31T15:00:54.999Z</time></trkpt><trkpt lat="45.6772189653259" lon="9.356506094886393"><ele>271.2857142857143</ele><time>2026-03-31T15:00:58Z</time></trkpt><trkpt lat="45.67723476853772" lon="9.356413470262055"><ele>271.0</ele><time>2026-03-31T15:01:22Z</time></trkpt><trkpt lat="45.67728645586909" lon="9.356469310009341"><ele>271.0</ele><time>2026-03-31T15:01:29Z</time></trkpt><trkpt lat="45.67715951971135" lon="9.3564700219431"><ele>271.0</ele><time>2026-03-31T15:01:34Z</time></trkpt><trkpt lat="45.6772223048351" lon="9.356520529003564"><ele>271.0</ele><time>2026-03-31T15:01:39Z</time></trkpt><trkpt lat="45.677301137917084" lon="9.356503374322747"><ele>271.0</ele><time>2026-03-31T15:01:40Z</time></trkpt><trkpt lat="45.67723669197538" lon="9.356520337144495"><ele>271.0</ele><time>2026-03-31T15:02:02Z</time></trkpt><trkpt lat="45.67722839870224" lon="9.35661723894228"><ele>271.0</ele><time>2026-03-31T15:02:04Z</time></trkpt><trkpt lat="45.67717064515092" lon="9.356579575288109"><ele>271.0</ele><time>2026-03-31T15:02:17Z</time></trkpt><trkpt lat="45.67723122519421" lon="9.356471077809468"><ele>271.0</ele><time>2026-03-31T15:02:19Z</time></trkpt><trkpt lat="45.677331195179434" lon="9.356384881249063"><ele>271.0</ele><time>2026-03-31T15:02:58Z</time></trkpt><trkpt lat="45.67739551124294" lon="9.356270895936039"><ele>271.0</ele><time>2026-03-31T15:02:59Z</time></trkpt><trkpt lat="45.6774639986212" lon="9.356159722333393"><ele>271.0</ele><time>2026-03-31T15:03:00Z</time></trkpt><trkpt lat="45.67748610429913" lon="9.356061281386564"><ele>271.0</ele><time>2026-03-31T15:03:01.999Z</time></trkpt><trkpt lat="45.67740265534034" lon="9.356055293878972"><ele>271.0</ele><time>2026-03-31T15:03:04Z</time></trkpt><trkpt lat="45.677335484143825" lon="9.356179821761755"><ele>271.0</ele><time>2026-03-31T15:03:06Z</time></trkpt><trkpt lat="45.677300599620686" lon="9.35627322513323"><ele>271.0</ele><time>2026-03-31T15:03:07Z</time></trkpt><trkpt lat="45.67725694455315" lon="9.356394697405392"><ele>271.0</ele><time>2026-03-31T15:03:09Z</time></trkpt><trkpt lat="45.677194819919855" lon="9.356521593140785"><ele>271.0</ele><time>2026-03-31T15:03:10Z</time></trkpt><trkpt lat="45.67713358651221" lon="9.356641621410766"><ele>271.0</ele><time>2026-03-31T15:03:11Z</time></trkpt><trkpt lat="45.67707074344105" lon="9.35671128707866"><ele>271.0</ele><time>2026-03-31T15:03:13Z</time></trkpt><trkpt lat="45.6770699600258" lon="9.35659909945345"><ele>271.0</ele><time>2026-03-31T15:03:16Z</time></trkpt><trkpt lat="45.67710001241705" lon="9.356516496992834"><ele>271.0</ele><time>2026-03-31T15:03:17Z</time></trkpt><trkpt lat="45.677160184622544" lon="9.356485348530345"><ele>271.0</ele><time>2026-03-31T15:03:18Z</time></trkpt><trkpt lat="45.6771587502862" lon="9.356384786534832"><ele>271.0</ele><time>2026-03-31T15:03:21Z</time></trkpt><trkpt lat="45.67709066051325" lon="9.356448445045544"><ele>271.0</ele><time>2026-03-31T15:03:23Z</time></trkpt><trkpt lat="45.67716462746247" lon="9.356476074852685"><ele>271.0</ele><time>2026-03-31T15:03:25Z</time></trkpt><trkpt lat="45.67726243902215" lon="9.356426122144532"><ele>271.0</ele><time>2026-03-31T15:17:55Z</time></trkpt><trkpt lat="45.677317803079205" lon="9.356371953304713"><ele>271.0</ele><time>2026-03-31T15:17:57Z</time></trkpt><trkpt lat="45.67737172345394" lon="9.356286070179513"><ele>271.0</ele><time>2026-03-31T15:17:59Z</time></trkpt><trkpt lat="45.677437051992676" lon="9.356204686035571"><ele>271.3333333333333</ele><time>2026-03-31T15:18:01Z</time></trkpt><trkpt lat="45.67749119719482" lon="9.356122971816452"><ele>271.66666666666663</ele><time>2026-03-31T15:18:03Z</time></trkpt><trkpt lat="45.677550288645946" lon="9.356062186844655"><ele>272.0</ele><time>2026-03-31T15:18:04Z</time></trkpt><trkpt lat="45.677602295347185" lon="9.35599144237129"><ele>272.3333333333333</ele><time>2026-03-31T15:18:05Z</time></trkpt><trkpt lat="45.6776555420587" lon="9.355928086021914"><ele>272.6666666666667</ele><time>2026-03-31T15:18:06Z</time></trkpt><trkpt lat="45.67772764597152" lon="9.35583753744035"><ele>273.0</ele><time>2026-03-31T15:18:07Z</time></trkpt><trkpt lat="45.6777921380912" lon="9.355754531296505"><ele>273.0</ele><time>2026-03-31T15:18:08Z</time></trkpt><trkpt lat="45.67785770007048" lon="9.35566785233918"><ele>273.0</ele><time>2026-03-31T15:18:09Z</time></trkpt><trkpt lat="45.677912232327635" lon="9.35560443803157"><ele>273.0</ele><time>2026-03-31T15:18:10Z</time></trkpt><trkpt lat="45.67797924975308" lon="9.355525533651983"><ele>273.0</ele><time>2026-03-31T15:18:11Z</time></trkpt><trkpt lat="45.6780583975177" lon="9.355434477375928"><ele>273.0</ele><time>2026-03-31T15:18:12Z</time></trkpt><trkpt lat="45.67815785697628" lon="9.355314032845342"><ele>273.0</ele><time>2026-03-31T15:18:13Z</time></trkpt><trkpt lat="45.678245022031255" lon="9.355219451811156"><ele>273.0</ele><time>2026-03-31T15:18:14Z</time></trkpt><trkpt lat="45.678333377030484" lon="9.355143605030648"><ele>273.0</ele><time>2026-03-31T15:18:15Z</time></trkpt><trkpt lat="45.678414254652466" lon="9.35507079731017"><ele>273.0</ele><time>2026-03-31T15:18:16Z</time></trkpt><trkpt lat="45.678488363444174" lon="9.355006850628508"><ele>273.0</ele><time>2026-03-31T15:18:17Z</time></trkpt><trkpt lat="45.678545734731664" lon="9.35494673915666"><ele>271.6666666666667</ele><time>2026-03-31T15:18:18Z</time></trkpt><trkpt lat="45.67860927060947" lon="9.354856071061604"><ele>270.3333333333333</ele><time>2026-03-31T15:18:20Z</time></trkpt><trkpt lat="45.67868221821515" lon="9.354857812515636"><ele>269.0</ele><time>2026-03-31T15:18:22Z</time></trkpt><trkpt lat="45.67876929400896" lon="9.35494514440939"><ele>267.66666666666663</ele><time>2026-03-31T15:18:24Z</time></trkpt><trkpt lat="45.678842435268685" lon="9.354941411068646"><ele>266.3333333333333</ele><time>2026-03-31T15:18:26Z</time></trkpt><trkpt lat="45.678916655531744" lon="9.35488180877976"><ele>265.0</ele><time>2026-03-31T15:18:28Z</time></trkpt><trkpt lat="45.6789769095057" lon="9.354776152753518"><ele>266.16666666666663</ele><time>2026-03-31T15:18:30Z</time></trkpt><trkpt lat="45.679045125388164" lon="9.35465576950577"><ele>267.3333333333333</ele><time>2026-03-31T15:18:32Z</time></trkpt><trkpt lat="45.679112977311405" lon="9.354578747786503"><ele>268.5</ele><time>2026-03-31T15:18:34Z</time></trkpt><trkpt lat="45.679168100119476" lon="9.354524701215388"><ele>269.6666666666667</ele><time>2026-03-31T15:18:35Z</time></trkpt><trkpt lat="45.67921543279005" lon="9.354454783595045"><ele>270.83333333333337</ele><time>2026-03-31T15:18:36Z</time></trkpt><trkpt lat="45.6792617020646" lon="9.354381290515002"><ele>272.0</ele><time>2026-03-31T15:18:37Z</time></trkpt><trkpt lat="45.67930539320265" lon="9.35431581087032"><ele>271.99999999999994</ele><time>2026-03-31T15:18:38Z</time></trkpt><trkpt lat="45.679355336327724" lon="9.354248900870088"><ele>272.0</ele><time>2026-03-31T15:18:40Z</time></trkpt><trkpt lat="45.67942443816905" lon="9.354251201429706"><ele>272.0</ele><time>2026-03-31T15:18:42Z</time></trkpt><trkpt lat="45.67949818172618" lon="9.354256028088718"><ele>272.0</ele><time>2026-03-31T15:18:43Z</time></trkpt><trkpt lat="45.67956028423101" lon="9.354226675584613"><ele>272.0</ele><time>2026-03-31T15:18:44Z</time></trkpt><trkpt lat="45.67961138589707" lon="9.354160125064773"><ele>271.99999999999994</ele><time>2026-03-31T15:18:45Z</time></trkpt><trkpt lat="45.67966426885597" lon="9.354091884572771"><ele>272.0</ele><time>2026-03-31T15:18:46Z</time></trkpt><trkpt lat="45.67972193755199" lon="9.35396729181022"><ele>272.0</ele><time>2026-03-31T15:18:48Z</time></trkpt><trkpt lat="45.67973624772372" lon="9.353868105182203"><ele>272.0</ele><time>2026-03-31T15:18:49Z</time></trkpt><trkpt lat="45.679750888043095" lon="9.353750991167255"><ele>272.0</ele><time>2026-03-31T15:18:50Z</time></trkpt><trkpt lat="45.67977372817266" lon="9.353640349903499"><ele>272.0</ele><time>2026-03-31T15:18:51Z</time></trkpt><trkpt lat="45.67980741151835" lon="9.35352550987511"><ele>272.0</ele><time>2026-03-31T15:18:52Z</time></trkpt><trkpt lat="45.67983152021556" lon="9.353441447955515"><ele>272.0</ele><time>2026-03-31T15:18:53Z</time></trkpt><trkpt lat="45.67980804617153" lon="9.353324838274837"><ele>272.0</ele><time>2026-03-31T15:18:55Z</time></trkpt><trkpt lat="45.67976900014674" lon="9.353245854470593"><ele>272.0</ele><time>2026-03-31T15:18:57Z</time></trkpt><trkpt lat="45.67960783112352" lon="9.35334296134856"><ele>272.0</ele><time>2026-03-31T15:18:59Z</time></trkpt><trkpt lat="45.679544716056256" lon="9.353435209752025"><ele>272.0</ele><time>2026-03-31T15:19:00Z</time></trkpt><trkpt lat="45.67946569732206" lon="9.353566304994207"><ele>272.0</ele><time>2026-03-31T15:19:01Z</time></trkpt><trkpt lat="45.67936582594332" lon="9.353678530057143"><ele>272.0</ele><time>2026-03-31T15:19:02Z</time></trkpt><trkpt lat="45.67925688531786" lon="9.353831955339173"><ele>272.0</ele><time>2026-03-31T15:19:03Z</time></trkpt><trkpt lat="45.679151743884574" lon="9.353967968743898"><ele>272.0</ele><time>2026-03-31T15:19:04Z</time></trkpt><trkpt lat="45.67906214934" lon="9.354074121760085"><ele>272.0</ele><time>2026-03-31T15:19:05Z</time></trkpt><trkpt lat="45.67898610714139" lon="9.35417241496903"><ele>272.0</ele><time>2026-03-31T15:19:06Z</time></trkpt><trkpt lat="45.67886357749606" lon="9.354288003759855"><ele>272.0</ele><time>2026-03-31T15:19:08Z</time></trkpt><trkpt lat="45.6787940836039" lon="9.354348620649088"><ele>272.0</ele><time>2026-03-31T15:19:09Z</time></trkpt><trkpt lat="45.67872016149518" lon="9.354410500046976"><ele>272.0</ele><time>2026-03-31T15:19:10Z</time></trkpt><trkpt lat="45.67866157896335" lon="9.354460869167195"><ele>272.2</ele><time>2026-03-31T15:19:11Z</time></trkpt><trkpt lat="45.67860109577401" lon="9.354509697740612"><ele>272.4</ele><time>2026-03-31T15:19:12Z</time></trkpt><trkpt lat="45.6785176808033" lon="9.354564733401189"><ele>272.6</ele><time>2026-03-31T15:19:14Z</time></trkpt><trkpt lat="45.678423589039056" lon="9.354662563532349"><ele>272.8</ele><time>2026-03-31T15:19:16Z</time></trkpt><trkpt lat="45.678347661216755" lon="9.354744913051407"><ele>273.0</ele><time>2026-03-31T15:19:17Z</time></trkpt><trkpt lat="45.67824641235999" lon="9.354849322985428"><ele>273.0</ele><time>2026-03-31T15:19:18Z</time></trkpt><trkpt lat="45.67813076573011" lon="9.35497300696616"><ele>273.0</ele><time>2026-03-31T15:19:19Z</time></trkpt><trkpt lat="45.67801650810184" lon="9.355111026935324"><ele>273.0</ele><time>2026-03-31T15:19:20Z</time></trkpt><trkpt lat="45.67791011598462" lon="9.35525780890598"><ele>273.0</ele><time>2026-03-31T15:19:21Z</time></trkpt><trkpt lat="45.67778347099934" lon="9.355428050811192"><ele>273.0</ele><time>2026-03-31T15:19:22Z</time></trkpt><trkpt lat="45.67770038143324" lon="9.355533251934531"><ele>273.0</ele><time>2026-03-31T15:19:23Z</time></trkpt><trkpt lat="45.67762169604965" lon="9.355640225303876"><ele>273.0</ele><time>2026-03-31T15:19:24Z</time></trkpt><trkpt lat="45.67754912980932" lon="9.355755718547634"><ele>273.0</ele><time>2026-03-31T15:19:25Z</time></trkpt><trkpt lat="45.67748361547948" lon="9.355839060105458"><ele>273.0</ele><time>2026-03-31T15:19:26Z</time></trkpt><trkpt lat="45.6774164625449" lon="9.355882520400542"><ele>273.0</ele><time>2026-03-31T15:19:27Z</time></trkpt><trkpt lat="45.6773149662558" lon="9.355942120619638"><ele>273.0</ele><time>2026-03-31T15:19:28Z</time></trkpt><trkpt lat="45.67724054932278" lon="9.355979469916631"><ele>273.0</ele><time>2026-03-31T15:19:29Z</time></trkpt><trkpt lat="45.67714246137702" lon="9.356017838897543"><ele>273.0</ele><time>2026-03-31T15:19:31Z</time></trkpt><trkpt lat="45.67708657294934" lon="9.356129979707248"><ele>273.0</ele><time>2026-03-31T15:19:33Z</time></trkpt><trkpt lat="45.67706977639936" lon="9.356222204983924"><ele>273.0</ele><time>2026-03-31T15:19:34Z</time></trkpt><trkpt lat="45.67704309503445" lon="9.356340503510866"><ele>273.0</ele><time>2026-03-31T15:19:35Z</time></trkpt><trkpt lat="45.67700573805474" lon="9.356459711112134"><ele>273.0</ele><time>2026-03-31T15:19:36Z</time></trkpt><trkpt lat="45.67694855690214" lon="9.35655191656957"><ele>273.0</ele><time>2026-03-31T15:19:37Z</time></trkpt><trkpt lat="45.67683199674965" lon="9.3566621693833"><ele>273.0</ele><time>2026-03-31T15:19:39Z</time></trkpt><trkpt lat="45.676698423770034" lon="9.356725424201137"><ele>271.8</ele><time>2026-03-31T15:19:40Z</time></trkpt><trkpt lat="45.67660012757515" lon="9.356779562312383"><ele>270.6</ele><time>2026-03-31T15:19:41Z</time></trkpt><trkpt lat="45.67651120388063" lon="9.356854800182523"><ele>269.4</ele><time>2026-03-31T15:19:42Z</time></trkpt><trkpt lat="45.67643794123619" lon="9.356947588924163"><ele>268.2</ele><time>2026-03-31T15:19:43Z</time></trkpt><trkpt lat="45.67633554242322" lon="9.357071458282235"><ele>267.0</ele><time>2026-03-31T15:19:44Z</time></trkpt><trkpt lat="45.676231905211644" lon="9.357193396872681"><ele>266.5</ele><time>2026-03-31T15:19:45Z</time></trkpt><trkpt lat="45.676130499158944" lon="9.357280346043886"><ele>266.0</ele><time>2026-03-31T15:19:46Z</time></trkpt><trkpt lat="45.67601335765822" lon="9.35739567557574"><ele>265.5</ele><time>2026-03-31T15:19:46.999Z</time></trkpt><trkpt lat="45.675883888267954" lon="9.35751721154946"><ele>265.0</ele><time>2026-03-31T15:19:47.999Z</time></trkpt><trkpt lat="45.675764910118126" lon="9.357613598480611"><ele>264.0</ele><time>2026-03-31T15:19:48.999Z</time></trkpt><trkpt lat="45.67567292623556" lon="9.35766949915368"><ele>263.0</ele><time>2026-03-31T15:19:49.999Z</time></trkpt><trkpt lat="45.67559043055474" lon="9.357722600994377"><ele>262.0</ele><time>2026-03-31T15:19:51.001Z</time></trkpt><trkpt lat="45.6755127295434" lon="9.357782612015113"><ele>261.0</ele><time>2026-03-31T15:19:52.001Z</time></trkpt><trkpt lat="45.67543935331756" lon="9.357838142103926"><ele>260.0</ele><time>2026-03-31T15:19:53.001Z</time></trkpt><trkpt lat="45.67535267852588" lon="9.357887661457683"><ele>260.0</ele><time>2026-03-31T15:19:54.001Z</time></trkpt><trkpt lat="45.67526691690304" lon="9.357950997238786"><ele>260.0</ele><time>2026-03-31T15:19:55.001Z</time></trkpt><trkpt lat="45.67518998993999" lon="9.357997816054223"><ele>260.0</ele><time>2026-03-31T15:19:56.001Z</time></trkpt><trkpt lat="45.67510596799402" lon="9.358032775208283"><ele>260.0</ele><time>2026-03-31T15:19:57.001Z</time></trkpt><trkpt lat="45.67501482083502" lon="9.358031452678052"><ele>260.0</ele><time>2026-03-31T15:19:59.001Z</time></trkpt><trkpt lat="45.6749224590662" lon="9.358064509625962"><ele>260.0</ele><time>2026-03-31T15:20:01Z</time></trkpt><trkpt lat="45.67484097388336" lon="9.358067303454465"><ele>260.0</ele><time>2026-03-31T15:20:03Z</time></trkpt><trkpt lat="45.674748167319464" lon="9.358105147622169"><ele>260.0</ele><time>2026-03-31T15:20:06Z</time></trkpt><trkpt lat="45.67469236237111" lon="9.358158905614783"><ele>260.0</ele><time>2026-03-31T15:20:09Z</time></trkpt><trkpt lat="45.67462225385709" lon="9.35817491265931"><ele>260.0</ele><time>2026-03-31T15:20:26Z</time></trkpt><trkpt lat="45.67455284909719" lon="9.358189460479485"><ele>260.0</ele><time>2026-03-31T15:20:28Z</time></trkpt><trkpt lat="45.67446131099628" lon="9.358237271415728"><ele>259.4</ele><time>2026-03-31T15:20:30Z</time></trkpt><trkpt lat="45.67436631333591" lon="9.358297318314445"><ele>258.8</ele><time>2026-03-31T15:20:32Z</time></trkpt><trkpt lat="45.67428853175188" lon="9.358399935166934"><ele>258.2</ele><time>2026-03-31T15:20:34Z</time></trkpt><trkpt lat="45.674214357847745" lon="9.35847595861925"><ele>257.6</ele><time>2026-03-31T15:20:36Z</time></trkpt><trkpt lat="45.6741552444487" lon="9.358557576306316"><ele>257.0</ele><time>2026-03-31T15:20:38Z</time></trkpt><trkpt lat="45.674076698251945" lon="9.358623641089261"><ele>257.0</ele><time>2026-03-31T15:20:40Z</time></trkpt><trkpt lat="45.67402741944749" lon="9.358697440010872"><ele>257.0</ele><time>2026-03-31T15:20:42Z</time></trkpt><trkpt lat="45.67396658624362" lon="9.358751197830328"><ele>257.0</ele><time>2026-03-31T15:20:47Z</time></trkpt><trkpt lat="45.67389734131787" lon="9.358836698291885"><ele>257.0</ele><time>2026-03-31T15:20:53Z</time></trkpt><trkpt lat="45.673842597421306" lon="9.35889395966888"><ele>257.0</ele><time>2026-03-31T15:20:54Z</time></trkpt><trkpt lat="45.67375673063289" lon="9.358940691814228"><ele>257.0</ele><time>2026-03-31T15:20:55Z</time></trkpt><trkpt lat="45.673658147487785" lon="9.358975819888075"><ele>256.83333333333337</ele><time>2026-03-31T15:20:56Z</time></trkpt><trkpt lat="45.67358233154823" lon="9.359024831257782"><ele>256.6666666666667</ele><time>2026-03-31T15:20:57Z</time></trkpt><trkpt lat="45.673474614809365" lon="9.35909089886402"><ele>256.5</ele><time>2026-03-31T15:20:58Z</time></trkpt><trkpt lat="45.673399285825106" lon="9.35911064660712"><ele>256.3333333333333</ele><time>2026-03-31T15:20:59Z</time></trkpt><trkpt lat="45.67332936905186" lon="9.359117642348066"><ele>256.16666666666663</ele><time>2026-03-31T15:21:00Z</time></trkpt><trkpt lat="45.67324225508378" lon="9.359111036094538"><ele>256.0</ele><time>2026-03-31T15:21:01Z</time></trkpt><trkpt lat="45.673167192501616" lon="9.359085210698568"><ele>256.0</ele><time>2026-03-31T15:21:02Z</time></trkpt><trkpt lat="45.67308880610119" lon="9.359069378597578"><ele>255.99999999999997</ele><time>2026-03-31T15:21:03Z</time></trkpt><trkpt lat="45.673017038667744" lon="9.359073314406093"><ele>256.0</ele><time>2026-03-31T15:21:04Z</time></trkpt><trkpt lat="45.67295269371241" lon="9.35907709936012"><ele>256.0</ele><time>2026-03-31T15:21:05Z</time></trkpt><trkpt lat="45.672895818931735" lon="9.359126742581829"><ele>255.99999999999997</ele><time>2026-03-31T15:21:06Z</time></trkpt><trkpt lat="45.6728256851498" lon="9.35919770641572"><ele>256.0</ele><time>2026-03-31T15:21:07Z</time></trkpt><trkpt lat="45.67275305902681" lon="9.35924927385755"><ele>256.0</ele><time>2026-03-31T15:21:08Z</time></trkpt><trkpt lat="45.672681915959686" lon="9.359301646628332"><ele>255.60000000000002</ele><time>2026-03-31T15:21:09Z</time></trkpt><trkpt lat="45.672612318825365" lon="9.359379241863861"><ele>255.20000000000002</ele><time>2026-03-31T15:21:10Z</time></trkpt><trkpt lat="45.67255402741689" lon="9.359424402780236"><ele>254.79999999999998</ele><time>2026-03-31T15:21:11Z</time></trkpt><trkpt lat="45.67245418625744" lon="9.359482527804444"><ele>254.39999999999998</ele><time>2026-03-31T15:21:13Z</time></trkpt><trkpt lat="45.67238444971703" lon="9.35956611276191"><ele>254.0</ele><time>2026-03-31T15:21:15Z</time></trkpt><trkpt lat="45.67244610539067" lon="9.359876701766604"><ele>255.0</ele><time>2026-03-31T15:21:16Z</time></trkpt><trkpt lat="45.672431538780394" lon="9.360014096410122"><ele>255.99999999999997</ele><time>2026-03-31T15:21:17Z</time></trkpt><trkpt lat="45.672411428707" lon="9.360152249691264"><ele>257.0</ele><time>2026-03-31T15:21:18Z</time></trkpt><trkpt lat="45.67240029356737" lon="9.360255433884305"><ele>258.0</ele><time>2026-03-31T15:21:19Z</time></trkpt><trkpt lat="45.67239062814077" lon="9.360345980983181"><ele>259.0</ele><time>2026-03-31T15:21:20Z</time></trkpt><trkpt lat="45.67239046709236" lon="9.360517199052332"><ele>258.3333333333333</ele><time>2026-03-31T15:21:22Z</time></trkpt><trkpt lat="45.67238724549611" lon="9.360634849061983"><ele>257.66666666666663</ele><time>2026-03-31T15:21:24Z</time></trkpt><trkpt lat="45.67233135705156" lon="9.360758076027706"><ele>257.0</ele><time>2026-03-31T15:21:26Z</time></trkpt><trkpt lat="45.672243709645926" lon="9.360842466062827"><ele>256.3333333333333</ele><time>2026-03-31T15:21:28Z</time></trkpt><trkpt lat="45.67217854020825" lon="9.36088237331142"><ele>255.66666666666666</ele><time>2026-03-31T15:21:29Z</time></trkpt><trkpt lat="45.67211553800269" lon="9.3609176540319"><ele>255.0</ele><time>2026-03-31T15:21:30Z</time></trkpt><trkpt lat="45.67203523461323" lon="9.36093034653574"><ele>255.0</ele><time>2026-03-31T15:21:31Z</time></trkpt><trkpt lat="45.67194836862775" lon="9.361032618436688"><ele>255.0</ele><time>2026-03-31T15:21:33Z</time></trkpt><trkpt lat="45.67189601599613" lon="9.361101942250391"><ele>255.0</ele><time>2026-03-31T15:21:34Z</time></trkpt><trkpt lat="45.671842496775504" lon="9.361202585920088"><ele>255.0</ele><time>2026-03-31T15:21:35Z</time></trkpt><trkpt lat="45.67177410581538" lon="9.361282658717808"><ele>255.0</ele><time>2026-03-31T15:21:36Z</time></trkpt><trkpt lat="45.6717245129771" lon="9.361341078475876"><ele>255.0</ele><time>2026-03-31T15:21:37Z</time></trkpt><trkpt lat="45.67164596112543" lon="9.361430620187916"><ele>255.6</ele><time>2026-03-31T15:21:39Z</time></trkpt><trkpt lat="45.67154431586075" lon="9.361564447276463"><ele>256.2</ele><time>2026-03-31T15:21:41Z</time></trkpt><trkpt lat="45.671500762933825" lon="9.361662287068688"><ele>256.8</ele><time>2026-03-31T15:21:42Z</time></trkpt><trkpt lat="45.67145627228038" lon="9.36176871784735"><ele>257.4</ele><time>2026-03-31T15:21:42.999Z</time></trkpt><trkpt lat="45.67140811813947" lon="9.361872180031915"><ele>258.0</ele><time>2026-03-31T15:21:43.999Z</time></trkpt><trkpt lat="45.671359260503024" lon="9.361974742429519"><ele>258.0</ele><time>2026-03-31T15:21:44.999Z</time></trkpt><trkpt lat="45.67130588372651" lon="9.362061861859173"><ele>258.0</ele><time>2026-03-31T15:21:45.999Z</time></trkpt><trkpt lat="45.67124369326139" lon="9.362137762145"><ele>258.0</ele><time>2026-03-31T15:21:46.999Z</time></trkpt><trkpt lat="45.671161197776605" lon="9.36221244495158"><ele>258.0</ele><time>2026-03-31T15:21:48.999Z</time></trkpt><trkpt lat="45.67116634577869" lon="9.36233187059553"><ele>258.0</ele><time>2026-03-31T15:21:50.999Z</time></trkpt><trkpt lat="45.67113243887115" lon="9.362497656589879"><ele>257.8333333333333</ele><time>2026-03-31T15:21:52.999Z</time></trkpt><trkpt lat="45.67108077586236" lon="9.362575782670826"><ele>257.6666666666667</ele><time>2026-03-31T15:21:54.999Z</time></trkpt><trkpt lat="45.6710300115231" lon="9.362692763663219"><ele>257.5</ele><time>2026-03-31T15:21:57Z</time></trkpt><trkpt lat="45.670976350463285" lon="9.362745172062942"><ele>257.33333333333337</ele><time>2026-03-31T15:21:58Z</time></trkpt><trkpt lat="45.670894113585" lon="9.362774956584403"><ele>257.1666666666667</ele><time>2026-03-31T15:21:59Z</time></trkpt><trkpt lat="45.6707993758405" lon="9.362802070697127"><ele>257.0</ele><time>2026-03-31T15:22:00Z</time></trkpt><trkpt lat="45.670708769904195" lon="9.362862178922525"><ele>257.0</ele><time>2026-03-31T15:22:01Z</time></trkpt><trkpt lat="45.67062096176679" lon="9.362964596591"><ele>257.0</ele><time>2026-03-31T15:22:02Z</time></trkpt><trkpt lat="45.67055664632497" lon="9.363057122727769"><ele>257.0</ele><time>2026-03-31T15:22:03Z</time></trkpt><trkpt lat="45.67050109399703" lon="9.363106492829598"><ele>257.0</ele><time>2026-03-31T15:22:04Z</time></trkpt><trkpt lat="45.67045142401715" lon="9.363163546866254"><ele>257.0</ele><time>2026-03-31T15:22:06Z</time></trkpt><trkpt lat="45.67036716898496" lon="9.363305964740004"><ele>256.5</ele><time>2026-03-31T15:22:08Z</time></trkpt><trkpt lat="45.670327520565536" lon="9.363461803805377"><ele>256.0</ele><time>2026-03-31T15:22:09Z</time></trkpt><trkpt lat="45.670262721212936" lon="9.363612477139768"><ele>255.5</ele><time>2026-03-31T15:22:10Z</time></trkpt><trkpt lat="45.67022820108615" lon="9.363765764654095"><ele>255.0</ele><time>2026-03-31T15:22:11Z</time></trkpt><trkpt lat="45.67019166793285" lon="9.363907243406528"><ele>253.4</ele><time>2026-03-31T15:22:12Z</time></trkpt><trkpt lat="45.670167258707544" lon="9.364024129370607"><ele>251.8</ele><time>2026-03-31T15:22:13Z</time></trkpt><trkpt lat="45.670118577693856" lon="9.364165133648712"><ele>250.2</ele><time>2026-03-31T15:22:14Z</time></trkpt><trkpt lat="45.67005093684995" lon="9.364280295248305"><ele>248.6</ele><time>2026-03-31T15:22:15Z</time></trkpt><trkpt lat="45.66995699948088" lon="9.364410754560337"><ele>247.0</ele><time>2026-03-31T15:22:16Z</time></trkpt><trkpt lat="45.66986765297435" lon="9.364527831531626"><ele>246.99999999999997</ele><time>2026-03-31T15:22:17Z</time></trkpt><trkpt lat="45.6697897271459" lon="9.364618691739166"><ele>247.0</ele><time>2026-03-31T15:22:18Z</time></trkpt><trkpt lat="45.669720531264325" lon="9.364698633285888"><ele>247.0</ele><time>2026-03-31T15:22:19Z</time></trkpt><trkpt lat="45.66965918479177" lon="9.364766276142552"><ele>247.0</ele><time>2026-03-31T15:22:20Z</time></trkpt><trkpt lat="45.66961867770154" lon="9.364861201890447"><ele>246.99999999999997</ele><time>2026-03-31T15:22:22Z</time></trkpt><trkpt lat="45.669552331267965" lon="9.364866859959154"><ele>247.0</ele><time>2026-03-31T15:22:25Z</time></trkpt><trkpt lat="45.66951647505099" lon="9.364948546617274"><ele>244.8</ele><time>2026-03-31T15:22:26Z</time></trkpt><trkpt lat="45.669579200181786" lon="9.365074461032448"><ele>242.6</ele><time>2026-03-31T15:22:28Z</time></trkpt><trkpt lat="45.66952397184091" lon="9.365207990177229"><ele>240.40000000000003</ele><time>2026-03-31T15:22:29Z</time></trkpt><trkpt lat="45.66954503938005" lon="9.365345355214131"><ele>238.20000000000002</ele><time>2026-03-31T15:22:30Z</time></trkpt><trkpt lat="45.66953577331053" lon="9.365497139952176"><ele>236.0</ele><time>2026-03-31T15:22:31Z</time></trkpt><trkpt lat="45.66955214213968" lon="9.365673901491059"><ele>233.33333333333334</ele><time>2026-03-31T15:22:32Z</time></trkpt><trkpt lat="45.669586111693455" lon="9.365945861154996"><ele>230.66666666666669</ele><time>2026-03-31T15:22:33Z</time></trkpt><trkpt lat="45.66962021610947" lon="9.366177569141026"><ele>228.0</ele><time>2026-03-31T15:22:34Z</time></trkpt><trkpt lat="45.669658429050784" lon="9.366410318293733"><ele>227.25</ele><time>2026-03-31T15:22:35Z</time></trkpt><trkpt lat="45.66968846911631" lon="9.366611010639161"><ele>226.5</ele><time>2026-03-31T15:22:36Z</time></trkpt><trkpt lat="45.66971533165284" lon="9.366813209772232"><ele>225.75</ele><time>2026-03-31T15:22:37Z</time></trkpt><trkpt lat="45.669745007024474" lon="9.367005071980229"><ele>225.0</ele><time>2026-03-31T15:22:38Z</time></trkpt><trkpt lat="45.66976690992771" lon="9.367190006994"><ele>225.75</ele><time>2026-03-31T15:22:39Z</time></trkpt><trkpt lat="45.66979068311057" lon="9.367371834331221"><ele>226.5</ele><time>2026-03-31T15:22:40Z</time></trkpt><trkpt lat="45.66981221919201" lon="9.36755061934191"><ele>227.25</ele><time>2026-03-31T15:22:41Z</time></trkpt><trkpt lat="45.669827682585115" lon="9.367713017864455"><ele>228.0</ele><time>2026-03-31T15:22:42Z</time></trkpt><trkpt lat="45.66984491444927" lon="9.36784022026832"><ele>228.0</ele><time>2026-03-31T15:22:43Z</time></trkpt><trkpt lat="45.66987492764452" lon="9.367938677562561"><ele>228.0</ele><time>2026-03-31T15:22:44Z</time></trkpt><trkpt lat="45.669916721815646" lon="9.368026132424852"><ele>228.0</ele><time>2026-03-31T15:22:45Z</time></trkpt><trkpt lat="45.66996450778528" lon="9.368101625180673"><ele>228.0</ele><time>2026-03-31T15:22:46Z</time></trkpt><trkpt lat="45.66998215078235" lon="9.368255927673252"><ele>228.0</ele><time>2026-03-31T15:22:48Z</time></trkpt><trkpt lat="45.669934198393314" lon="9.368365907528732"><ele>228.0</ele><time>2026-03-31T15:22:49Z</time></trkpt><trkpt lat="45.66985536656773" lon="9.368498324956363"><ele>228.75</ele><time>2026-03-31T15:22:50Z</time></trkpt><trkpt lat="45.669772803657274" lon="9.368641541728204"><ele>229.5</ele><time>2026-03-31T15:22:51Z</time></trkpt><trkpt lat="45.66968986009379" lon="9.368826345219123"><ele>230.25</ele><time>2026-03-31T15:22:52Z</time></trkpt><trkpt lat="45.66963179074977" lon="9.36896936121039"><ele>231.0</ele><time>2026-03-31T15:22:53Z</time></trkpt><trkpt lat="45.66958831155792" lon="9.369075821608627"><ele>232.25</ele><time>2026-03-31T15:22:54Z</time></trkpt><trkpt lat="45.66953043007916" lon="9.369161858039195"><ele>233.5</ele><time>2026-03-31T15:22:55Z</time></trkpt><trkpt lat="45.66948429662112" lon="9.369227434381736"><ele>234.75</ele><time>2026-03-31T15:22:56Z</time></trkpt><trkpt lat="45.669556448263656" lon="9.3694638076027"><ele>236.0</ele><time>2026-03-31T15:22:59Z</time></trkpt><trkpt lat="45.66966588675785" lon="9.369547232725317"><ele>236.0</ele><time>2026-03-31T15:23:00Z</time></trkpt><trkpt lat="45.66979041030566" lon="9.369665090894818"><ele>236.0</ele><time>2026-03-31T15:23:01Z</time></trkpt><trkpt lat="45.66992242515507" lon="9.36976122009061"><ele>236.0</ele><time>2026-03-31T15:23:02Z</time></trkpt><trkpt lat="45.67001505035415" lon="9.369864870204086"><ele>236.0</ele><time>2026-03-31T15:23:03Z</time></trkpt><trkpt lat="45.670094437224606" lon="9.36995066973109"><ele>237.25</ele><time>2026-03-31T15:23:04Z</time></trkpt><trkpt lat="45.67017681966417" lon="9.370046208192841"><ele>238.5</ele><time>2026-03-31T15:23:05Z</time></trkpt><trkpt lat="45.67019125270249" lon="9.370186890920436"><ele>239.75</ele><time>2026-03-31T15:23:06Z</time></trkpt><trkpt lat="45.67025005689131" lon="9.370348694388504"><ele>241.0</ele><time>2026-03-31T15:23:07Z</time></trkpt><trkpt lat="45.6702880517425" lon="9.370546561655964"><ele>241.0</ele><time>2026-03-31T15:23:08Z</time></trkpt><trkpt lat="45.670374794658315" lon="9.37084876328705"><ele>241.0</ele><time>2026-03-31T15:23:09Z</time></trkpt><trkpt lat="45.67042272025698" lon="9.371008318058871"><ele>241.0</ele><time>2026-03-31T15:23:10Z</time></trkpt><trkpt lat="45.6704689416132" lon="9.371119689826719"><ele>241.0</ele><time>2026-03-31T15:23:11Z</time></trkpt><trkpt lat="45.670536419982994" lon="9.3712504152186"><ele>243.0</ele><time>2026-03-31T15:23:12Z</time></trkpt><trkpt lat="45.67067332351423" lon="9.371394710374116"><ele>245.0</ele><time>2026-03-31T15:23:13Z</time></trkpt><trkpt lat="45.67079067033245" lon="9.37155463591686"><ele>247.0</ele><time>2026-03-31T15:23:14Z</time></trkpt><trkpt lat="45.6709102498814" lon="9.37165397645473"><ele>247.0</ele><time>2026-03-31T15:23:15Z</time></trkpt><trkpt lat="45.67099002493174" lon="9.371773980774995"><ele>247.0</ele><time>2026-03-31T15:23:16Z</time></trkpt><trkpt lat="45.67105674477784" lon="9.371891251004643"><ele>247.0</ele><time>2026-03-31T15:23:17Z</time></trkpt><trkpt lat="45.6711138063814" lon="9.3720236009962"><ele>247.0</ele><time>2026-03-31T15:23:18Z</time></trkpt><trkpt lat="45.67117810250433" lon="9.372162874220798"><ele>247.0</ele><time>2026-03-31T15:23:19Z</time></trkpt><trkpt lat="45.671247933228514" lon="9.372286747408973"><ele>248.6</ele><time>2026-03-31T15:23:20Z</time></trkpt><trkpt lat="45.67128189461217" lon="9.372424718421907"><ele>250.2</ele><time>2026-03-31T15:23:21Z</time></trkpt><trkpt lat="45.6713253375342" lon="9.372569215529914"><ele>251.8</ele><time>2026-03-31T15:23:22Z</time></trkpt><trkpt lat="45.67135510860506" lon="9.372696646006203"><ele>253.4</ele><time>2026-03-31T15:23:23Z</time></trkpt><trkpt lat="45.67138981293265" lon="9.372821811996591"><ele>255.0</ele><time>2026-03-31T15:23:24Z</time></trkpt><trkpt lat="45.67139783695452" lon="9.372926659214851"><ele>255.0</ele><time>2026-03-31T15:23:25Z</time></trkpt><trkpt lat="45.671434405377106" lon="9.373020396780516"><ele>255.0</ele><time>2026-03-31T15:23:26.999Z</time></trkpt><trkpt lat="45.67145524872539" lon="9.37317805070614"><ele>255.0</ele><time>2026-03-31T15:23:29.999Z</time></trkpt><trkpt lat="45.67142748918928" lon="9.37327564262954"><ele>255.0</ele><time>2026-03-31T15:23:31.999Z</time></trkpt><trkpt lat="45.67144299618266" lon="9.373393698340022"><ele>255.0</ele><time>2026-03-31T15:23:34.999Z</time></trkpt><trkpt lat="45.671401361968144" lon="9.37355133589151"><ele>255.5</ele><time>2026-03-31T15:23:36.999Z</time></trkpt><trkpt lat="45.67138597494156" lon="9.373663602851616"><ele>256.0</ele><time>2026-03-31T15:23:37.999Z</time></trkpt><trkpt lat="45.671370575772535" lon="9.373763212854072"><ele>256.5</ele><time>2026-03-31T15:23:38.999Z</time></trkpt><trkpt lat="45.6713667218652" lon="9.37387454868081"><ele>257.0</ele><time>2026-03-31T15:23:39.999Z</time></trkpt><trkpt lat="45.671358657949455" lon="9.373968389031006"><ele>257.5</ele><time>2026-03-31T15:23:40.999Z</time></trkpt><trkpt lat="45.671327403687044" lon="9.374057547869038"><ele>258.0</ele><time>2026-03-31T15:23:42.999Z</time></trkpt><trkpt lat="45.671320290083095" lon="9.374210328684557"><ele>258.0</ele><time>2026-03-31T15:23:44.999Z</time></trkpt><trkpt lat="45.67133844957748" lon="9.374302242900297"><ele>258.0</ele><time>2026-03-31T15:23:45.999Z</time></trkpt><trkpt lat="45.67142343617067" lon="9.37437333204776"><ele>258.0</ele><time>2026-03-31T15:23:47.999Z</time></trkpt><trkpt lat="45.67147679307901" lon="9.374465506801528"><ele>258.0</ele><time>2026-03-31T15:23:49.999Z</time></trkpt><trkpt lat="45.67146263828388" lon="9.37463842993282"><ele>258.0</ele><time>2026-03-31T15:23:51.999Z</time></trkpt><trkpt lat="45.67146180926393" lon="9.374784974792492"><ele>258.0</ele><time>2026-03-31T15:23:54.999Z</time></trkpt><trkpt lat="45.6714888714442" lon="9.374927304378968"><ele>258.0</ele><time>2026-03-31T15:23:56.999Z</time></trkpt><trkpt lat="45.67158721846107" lon="9.374975066775002"><ele>258.0</ele><time>2026-03-31T15:23:58.999Z</time></trkpt><trkpt lat="45.67164923235078" lon="9.375023653759694"><ele>258.0</ele><time>2026-03-31T15:24:00.999Z</time></trkpt><trkpt lat="45.67167659345525" lon="9.375137339510696"><ele>258.0</ele><time>2026-03-31T15:24:03Z</time></trkpt><trkpt lat="45.671655918203" lon="9.375259386208205"><ele>258.0</ele><time>2026-03-31T15:24:05Z</time></trkpt><trkpt lat="45.67162471320312" lon="9.3754115983887"><ele>258.0</ele><time>2026-03-31T15:24:07Z</time></trkpt><trkpt lat="45.671613264091846" lon="9.375563798508686"><ele>258.0</ele><time>2026-03-31T15:24:09Z</time></trkpt><trkpt lat="45.671624172195884" lon="9.37575535525107"><ele>258.0</ele><time>2026-03-31T15:24:11Z</time></trkpt><trkpt lat="45.67164728709213" lon="9.375884918494798"><ele>258.0</ele><time>2026-03-31T15:24:12Z</time></trkpt><trkpt lat="45.6716545596457" lon="9.375981011684972"><ele>258.0</ele><time>2026-03-31T15:24:13Z</time></trkpt><trkpt lat="45.671635432256316" lon="9.376127111762266"><ele>258.0</ele><time>2026-03-31T15:24:14Z</time></trkpt><trkpt lat="45.67163153268343" lon="9.376294823284717"><ele>258.0</ele><time>2026-03-31T15:24:15Z</time></trkpt><trkpt lat="45.67162726796159" lon="9.376479710791903"><ele>258.0</ele><time>2026-03-31T15:24:16Z</time></trkpt><trkpt lat="45.67162265270868" lon="9.376646888929088"><ele>258.0</ele><time>2026-03-31T15:24:17Z</time></trkpt><trkpt lat="45.67162027366292" lon="9.37677944867437"><ele>257.8</ele><time>2026-03-31T15:24:18Z</time></trkpt><trkpt lat="45.671618773353565" lon="9.376896631351613"><ele>257.6</ele><time>2026-03-31T15:24:19Z</time></trkpt><trkpt lat="45.67160983896283" lon="9.37676304799568"><ele>257.4</ele><time>2026-03-31T15:24:20Z</time></trkpt><trkpt lat="45.67161027095761" lon="9.37689104024715"><ele>257.2</ele><time>2026-03-31T15:24:21Z</time></trkpt><trkpt lat="45.67161576039989" lon="9.377085892781515"><ele>257.0</ele><time>2026-03-31T15:24:22Z</time></trkpt><trkpt lat="45.671610935064564" lon="9.377313927991521"><ele>256.33333333333337</ele><time>2026-03-31T15:24:23Z</time></trkpt><trkpt lat="45.67160817492492" lon="9.377563624855037"><ele>255.66666666666669</ele><time>2026-03-31T15:24:24Z</time></trkpt><trkpt lat="45.6715887055742" lon="9.37782539444619"><ele>255.0</ele><time>2026-03-31T15:24:25Z</time></trkpt><trkpt lat="45.671579761044065" lon="9.378092560094663"><ele>255.0</ele><time>2026-03-31T15:24:26Z</time></trkpt><trkpt lat="45.67153231079131" lon="9.378329912281435"><ele>255.0</ele><time>2026-03-31T15:24:27Z</time></trkpt><trkpt lat="45.671503811706934" lon="9.378585751100182"><ele>255.0</ele><time>2026-03-31T15:24:28Z</time></trkpt><trkpt lat="45.67146487614561" lon="9.37883614213368"><ele>255.0</ele><time>2026-03-31T15:24:29Z</time></trkpt><trkpt lat="45.671436967576" lon="9.379084888783643"><ele>255.0</ele><time>2026-03-31T15:24:30Z</time></trkpt><trkpt lat="45.67141025900505" lon="9.379321649793146"><ele>255.0</ele><time>2026-03-31T15:24:31Z</time></trkpt><trkpt lat="45.67138487970573" lon="9.379527617685701"><ele>255.25</ele><time>2026-03-31T15:24:32Z</time></trkpt><trkpt lat="45.6713605168072" lon="9.379717900015336"><ele>255.5</ele><time>2026-03-31T15:24:33Z</time></trkpt><trkpt lat="45.6713431286223" lon="9.37989238808917"><ele>255.75</ele><time>2026-03-31T15:24:34Z</time></trkpt><trkpt lat="45.67132932310714" lon="9.380052373107032"><ele>256.0</ele><time>2026-03-31T15:24:35Z</time></trkpt><trkpt lat="45.671321524722046" lon="9.380179223172282"><ele>256.0</ele><time>2026-03-31T15:24:36Z</time></trkpt><trkpt lat="45.671300950801424" lon="9.380321609349755"><ele>256.0</ele><time>2026-03-31T15:24:38Z</time></trkpt><trkpt lat="45.6712286977102" lon="9.380410952750319"><ele>256.0</ele><time>2026-03-31T15:24:40Z</time></trkpt><trkpt lat="45.671196456805795" lon="9.380554863140146"><ele>256.0</ele><time>2026-03-31T15:24:42Z</time></trkpt><trkpt lat="45.67124087924252" lon="9.380619058955087"><ele>256.0</ele><time>2026-03-31T15:24:43Z</time></trkpt><trkpt lat="45.67134317541983" lon="9.380606047001484"><ele>256.25</ele><time>2026-03-31T15:24:44Z</time></trkpt><trkpt lat="45.67142911586874" lon="9.380574195631231"><ele>256.5</ele><time>2026-03-31T15:24:45Z</time></trkpt><trkpt lat="45.67152479621715" lon="9.38058539247271"><ele>256.75</ele><time>2026-03-31T15:24:46Z</time></trkpt><trkpt lat="45.67165332092665" lon="9.380660033357023"><ele>257.0</ele><time>2026-03-31T15:24:47Z</time></trkpt><trkpt lat="45.67180842121092" lon="9.380760573567638"><ele>256.5</ele><time>2026-03-31T15:24:48Z</time></trkpt><trkpt lat="45.67197634443048" lon="9.38085421078422"><ele>256.0</ele><time>2026-03-31T15:24:49Z</time></trkpt><trkpt lat="45.67210195148158" lon="9.380923324238854"><ele>255.5</ele><time>2026-03-31T15:24:50Z</time></trkpt><trkpt lat="45.67221042713062" lon="9.381006394043688"><ele>255.0</ele><time>2026-03-31T15:24:51Z</time></trkpt><trkpt lat="45.67233971520494" lon="9.381068090211983"><ele>255.0</ele><time>2026-03-31T15:24:52Z</time></trkpt><trkpt lat="45.67248918908847" lon="9.381090365489882"><ele>255.0</ele><time>2026-03-31T15:24:53Z</time></trkpt><trkpt lat="45.67261589439377" lon="9.381080697665551"><ele>255.0</ele><time>2026-03-31T15:24:54Z</time></trkpt><trkpt lat="45.67273324431205" lon="9.381051955642786"><ele>255.0</ele><time>2026-03-31T15:24:55Z</time></trkpt><trkpt lat="45.67286209330934" lon="9.381029765251448"><ele>254.0</ele><time>2026-03-31T15:24:56Z</time></trkpt><trkpt lat="45.6729735513442" lon="9.380997961598203"><ele>253.0</ele><time>2026-03-31T15:24:57Z</time></trkpt><trkpt lat="45.67308358973229" lon="9.381008262849063"><ele>252.0</ele><time>2026-03-31T15:24:58Z</time></trkpt><trkpt lat="45.67321256058989" lon="9.38097943118497"><ele>251.0</ele><time>2026-03-31T15:24:59Z</time></trkpt><trkpt lat="45.67331299514307" lon="9.38100169861637"><ele>251.00000000000003</ele><time>2026-03-31T15:25:00Z</time></trkpt><trkpt lat="45.67337526321936" lon="9.380984497182727"><ele>251.0</ele><time>2026-03-31T15:25:01Z</time></trkpt><trkpt lat="45.673447715773825" lon="9.381011460138224"><ele>251.0</ele><time>2026-03-31T15:25:02Z</time></trkpt><trkpt lat="45.67350530444668" lon="9.381080952693383"><ele>251.0</ele><time>2026-03-31T15:25:03Z</time></trkpt><trkpt lat="45.673544215180996" lon="9.381179043407423"><ele>251.00000000000003</ele><time>2026-03-31T15:25:04Z</time></trkpt><trkpt lat="45.67356517026198" lon="9.381287514945631"><ele>251.0</ele><time>2026-03-31T15:25:05Z</time></trkpt><trkpt lat="45.673534342106436" lon="9.381422895775557"><ele>248.0</ele><time>2026-03-31T15:25:06Z</time></trkpt><trkpt lat="45.67345547533388" lon="9.381555000951227"><ele>245.0</ele><time>2026-03-31T15:25:07Z</time></trkpt><trkpt lat="45.67337106161431" lon="9.381720122270659"><ele>242.0</ele><time>2026-03-31T15:25:08Z</time></trkpt><trkpt lat="45.67329243019809" lon="9.381888552217012"><ele>239.0</ele><time>2026-03-31T15:25:09Z</time></trkpt><trkpt lat="45.673199034027306" lon="9.38206545233349"><ele>238.0</ele><time>2026-03-31T15:25:10Z</time></trkpt><trkpt lat="45.67309885300368" lon="9.38227120715071"><ele>237.0</ele><time>2026-03-31T15:25:11Z</time></trkpt><trkpt lat="45.6729994492632" lon="9.382474007075476"><ele>236.0</ele><time>2026-03-31T15:25:12Z</time></trkpt><trkpt lat="45.67290565234196" lon="9.38266507801575"><ele>236.0</ele><time>2026-03-31T15:25:13Z</time></trkpt><trkpt lat="45.67280461300741" lon="9.382866985339124"><ele>236.0</ele><time>2026-03-31T15:25:13.999Z</time></trkpt><trkpt lat="45.67270723766648" lon="9.383053117387162"><ele>236.0</ele><time>2026-03-31T15:25:14.999Z</time></trkpt><trkpt lat="45.672615996393375" lon="9.383227573510496"><ele>236.0</ele><time>2026-03-31T15:25:15.999Z</time></trkpt><trkpt lat="45.67252911436383" lon="9.383400813529603"><ele>236.0</ele><time>2026-03-31T15:25:16.999Z</time></trkpt><trkpt lat="45.672445301032816" lon="9.383579549439178"><ele>236.0</ele><time>2026-03-31T15:25:17.999Z</time></trkpt><trkpt lat="45.67235556917679" lon="9.383759793468712"><ele>235.66666666666669</ele><time>2026-03-31T15:25:18.999Z</time></trkpt><trkpt lat="45.67226220953436" lon="9.383948740690704"><ele>235.33333333333331</ele><time>2026-03-31T15:25:19.999Z</time></trkpt><trkpt lat="45.67217055958712" lon="9.384127900669567"><ele>235.0</ele><time>2026-03-31T15:25:20.999Z</time></trkpt><trkpt lat="45.672088371447224" lon="9.38428553947994"><ele>235.0</ele><time>2026-03-31T15:25:21.999Z</time></trkpt><trkpt lat="45.67201555864718" lon="9.384429612168551"><ele>235.0</ele><time>2026-03-31T15:25:22.999Z</time></trkpt><trkpt lat="45.67193265430255" lon="9.384581499161749"><ele>235.0</ele><time>2026-03-31T15:25:23.999Z</time></trkpt><trkpt lat="45.67185432065458" lon="9.38473912535096"><ele>235.0</ele><time>2026-03-31T15:25:24.999Z</time></trkpt><trkpt lat="45.671775620993124" lon="9.384905396657457"><ele>235.5</ele><time>2026-03-31T15:25:25.999Z</time></trkpt><trkpt lat="45.6716979235833" lon="9.38506123599528"><ele>236.0</ele><time>2026-03-31T15:25:26.999Z</time></trkpt><trkpt lat="45.6716148257191" lon="9.38520009905362"><ele>236.5</ele><time>2026-03-31T15:25:27.999Z</time></trkpt><trkpt lat="45.67154537103423" lon="9.38535652809842"><ele>237.0</ele><time>2026-03-31T15:25:28.999Z</time></trkpt><trkpt lat="45.671463924679614" lon="9.385509721032621"><ele>237.25</ele><time>2026-03-31T15:25:29.999Z</time></trkpt><trkpt lat="45.671378877067276" lon="9.385652055559344"><ele>237.5</ele><time>2026-03-31T15:25:30.999Z</time></trkpt><trkpt lat="45.67130520670555" lon="9.385813852626212"><ele>237.75</ele><time>2026-03-31T15:25:31.999Z</time></trkpt><trkpt lat="45.67125678232523" lon="9.385981517377049"><ele>238.0</ele><time>2026-03-31T15:25:32.999Z</time></trkpt><trkpt lat="45.671212976801556" lon="9.386157554100608"><ele>238.0</ele><time>2026-03-31T15:25:33.999Z</time></trkpt><trkpt lat="45.6711723390603" lon="9.386336097811125"><ele>238.0</ele><time>2026-03-31T15:25:34.999Z</time></trkpt><trkpt lat="45.67114985731195" lon="9.38652387842753"><ele>238.0</ele><time>2026-03-31T15:25:35.999Z</time></trkpt><trkpt lat="45.67114714888859" lon="9.386705210271273"><ele>238.0</ele><time>2026-03-31T15:25:36.999Z</time></trkpt><trkpt lat="45.671125839327935" lon="9.386845059055503"><ele>238.0</ele><time>2026-03-31T15:25:37.999Z</time></trkpt><trkpt lat="45.67111199908684" lon="9.386963241864274"><ele>238.0</ele><time>2026-03-31T15:25:38.999Z</time></trkpt><trkpt lat="45.67109690063451" lon="9.387072000093664"><ele>238.0</ele><time>2026-03-31T15:25:39.999Z</time></trkpt><trkpt lat="45.6710819345826" lon="9.38719630714356"><ele>238.0</ele><time>2026-03-31T15:25:40.999Z</time></trkpt><trkpt lat="45.67107646504661" lon="9.387357976350534"><ele>238.0</ele><time>2026-03-31T15:25:41.999Z</time></trkpt><trkpt lat="45.671081321909185" lon="9.387559682628002"><ele>237.66666666666666</ele><time>2026-03-31T15:25:42.999Z</time></trkpt><trkpt lat="45.671069555644635" lon="9.387779704159062"><ele>237.33333333333331</ele><time>2026-03-31T15:25:43.999Z</time></trkpt><trkpt lat="45.671044838145335" lon="9.388006194580711"><ele>237.0</ele><time>2026-03-31T15:25:44.999Z</time></trkpt><trkpt lat="45.67102062315751" lon="9.388229978725377"><ele>237.5</ele><time>2026-03-31T15:25:45.999Z</time></trkpt><trkpt lat="45.67099377045744" lon="9.388461198606407"><ele>238.0</ele><time>2026-03-31T15:25:46.999Z</time></trkpt><trkpt lat="45.670983074419496" lon="9.388671827371915"><ele>238.5</ele><time>2026-03-31T15:25:47.999Z</time></trkpt><trkpt lat="45.67096166340641" lon="9.388861269201813"><ele>239.0</ele><time>2026-03-31T15:25:48.999Z</time></trkpt><trkpt lat="45.670947101732644" lon="9.389039525763074"><ele>239.16666666666669</ele><time>2026-03-31T15:25:49.999Z</time></trkpt><trkpt lat="45.67093056289671" lon="9.389185398588232"><ele>239.33333333333334</ele><time>2026-03-31T15:25:50.999Z</time></trkpt><trkpt lat="45.67092015368006" lon="9.389317513043771"><ele>239.5</ele><time>2026-03-31T15:25:51.999Z</time></trkpt><trkpt lat="45.670911189338675" lon="9.38942543440299"><ele>239.66666666666669</ele><time>2026-03-31T15:25:52.999Z</time></trkpt><trkpt lat="45.67090270689067" lon="9.389522395451001"><ele>239.83333333333334</ele><time>2026-03-31T15:25:53.999Z</time></trkpt><trkpt lat="45.670876059393976" lon="9.389671677279349"><ele>240.0</ele><time>2026-03-31T15:25:55.999Z</time></trkpt><trkpt lat="45.67083915696224" lon="9.389747085328846"><ele>240.0</ele><time>2026-03-31T15:25:57.999Z</time></trkpt><trkpt lat="45.670777182230665" lon="9.3898577786176"><ele>240.0</ele><time>2026-03-31T15:26:00.999Z</time></trkpt><trkpt lat="45.670731763925154" lon="9.389931533443868"><ele>240.0</ele><time>2026-03-31T15:26:01.999Z</time></trkpt><trkpt lat="45.670750471842204" lon="9.390078902947149"><ele>240.0</ele><time>2026-03-31T15:26:04.999Z</time></trkpt><trkpt lat="45.670767810822234" lon="9.390180950200405"><ele>240.0</ele><time>2026-03-31T15:26:05.999Z</time></trkpt><trkpt lat="45.67087344983421" lon="9.390238233267613"><ele>240.0</ele><time>2026-03-31T15:26:06.999Z</time></trkpt><trkpt lat="45.67095781361604" lon="9.390293327651165"><ele>240.0</ele><time>2026-03-31T15:26:07.999Z</time></trkpt><trkpt lat="45.671074904856226" lon="9.390371912365469"><ele>240.0</ele><time>2026-03-31T15:26:09Z</time></trkpt><trkpt lat="45.671199467287934" lon="9.390466644767162"><ele>240.0</ele><time>2026-03-31T15:26:10Z</time></trkpt><trkpt lat="45.67131384490426" lon="9.390563690930216"><ele>240.25</ele><time>2026-03-31T15:26:11Z</time></trkpt><trkpt lat="45.6714261520436" lon="9.390652951372077"><ele>240.5</ele><time>2026-03-31T15:26:12Z</time></trkpt><trkpt lat="45.67152829008014" lon="9.390751349465708"><ele>240.75</ele><time>2026-03-31T15:26:13Z</time></trkpt><trkpt lat="45.67163844491028" lon="9.390869205466315"><ele>241.0</ele><time>2026-03-31T15:26:14Z</time></trkpt><trkpt lat="45.67176612542757" lon="9.391008669820321"><ele>241.0</ele><time>2026-03-31T15:26:15Z</time></trkpt><trkpt lat="45.67187520256248" lon="9.391143640332956"><ele>241.0</ele><time>2026-03-31T15:26:16Z</time></trkpt><trkpt lat="45.67196891144988" lon="9.391251835822885"><ele>241.0</ele><time>2026-03-31T15:26:17Z</time></trkpt><trkpt lat="45.672050347223575" lon="9.391350080195654"><ele>241.0</ele><time>2026-03-31T15:26:18Z</time></trkpt><trkpt lat="45.67215704827309" lon="9.39147344654343"><ele>241.0</ele><time>2026-03-31T15:26:19Z</time></trkpt><trkpt lat="45.672283128117925" lon="9.391601314031"><ele>241.0</ele><time>2026-03-31T15:26:20Z</time></trkpt><trkpt lat="45.672390950958196" lon="9.391706431966933"><ele>241.0</ele><time>2026-03-31T15:26:21Z</time></trkpt><trkpt lat="45.67248236598187" lon="9.391810091326644"><ele>241.0</ele><time>2026-03-31T15:26:22Z</time></trkpt><trkpt lat="45.67254823890746" lon="9.391904010674548"><ele>241.0</ele><time>2026-03-31T15:26:23Z</time></trkpt><trkpt lat="45.67260718420513" lon="9.3919747830464"><ele>241.0</ele><time>2026-03-31T15:26:25Z</time></trkpt><trkpt lat="45.67272236530301" lon="9.392133785992844"><ele>241.0</ele><time>2026-03-31T15:26:40Z</time></trkpt><trkpt lat="45.67283499576899" lon="9.391881946716069"><ele>241.0</ele><time>2026-03-31T15:26:41Z</time></trkpt><trkpt lat="45.672916199916685" lon="9.391922217159456"><ele>241.49999999999997</ele><time>2026-03-31T15:26:42Z</time></trkpt><trkpt lat="45.672991637216555" lon="9.391991099869525"><ele>242.0</ele><time>2026-03-31T15:26:43Z</time></trkpt><trkpt lat="45.67303767219373" lon="9.392060485375561"><ele>242.5</ele><time>2026-03-31T15:26:44Z</time></trkpt><trkpt lat="45.673107163682765" lon="9.392108084833502"><ele>243.0</ele><time>2026-03-31T15:26:46Z</time></trkpt><trkpt lat="45.67309882502552" lon="9.392216278644062"><ele>243.49999999999997</ele><time>2026-03-31T15:26:47Z</time></trkpt><trkpt lat="45.673105700484626" lon="9.392115608973887"><ele>244.0</ele><time>2026-03-31T15:27:11Z</time></trkpt><trkpt lat="45.67308570695172" lon="9.392214484190598"><ele>244.0</ele><time>2026-03-31T15:32:04.999Z</time></trkpt><trkpt lat="45.67316649980803" lon="9.392262137551738"><ele>243.99999999999997</ele><time>2026-03-31T15:32:13.999Z</time></trkpt><trkpt lat="45.67322947722486" lon="9.392329980070741"><ele>243.99999999999997</ele><time>2026-03-31T15:32:15.999Z</time></trkpt><trkpt lat="45.67322307220035" lon="9.392432388264083"><ele>244.0</ele><time>2026-03-31T15:39:58.999Z</time></trkpt><trkpt lat="45.67333374404782" lon="9.392564637383488"><ele>244.0</ele><time>2026-03-31T15:40:05.999Z</time></trkpt><trkpt lat="45.67350431999083" lon="9.392593849552433"><ele>243.99999999999997</ele><time>2026-03-31T15:40:08.999Z</time></trkpt><trkpt lat="45.67360356331296" lon="9.3926314467896"><ele>244.0</ele><time>2026-03-31T15:40:10.999Z</time></trkpt><trkpt lat="45.673641132871886" lon="9.392735747271718"><ele>244.0</ele><time>2026-03-31T15:40:12.999Z</time></trkpt><trkpt lat="45.673660326680675" lon="9.3928813290534"><ele>244.0</ele><time>2026-03-31T15:40:14.999Z</time></trkpt><trkpt lat="45.6736598528518" lon="9.392980544728509"><ele>243.99999999999997</ele><time>2026-03-31T15:40:15.999Z</time></trkpt><trkpt lat="45.6736489828614" lon="9.393080775567103"><ele>244.0</ele><time>2026-03-31T15:40:16.999Z</time></trkpt><trkpt lat="45.67360401392455" lon="9.393158325969797"><ele>244.2</ele><time>2026-03-31T15:40:17.999Z</time></trkpt><trkpt lat="45.67357011267038" lon="9.39326701728594"><ele>244.39999999999998</ele><time>2026-03-31T15:40:19.999Z</time></trkpt><trkpt lat="45.673604176933935" lon="9.393344271578666"><ele>244.6</ele><time>2026-03-31T15:40:20.999Z</time></trkpt><trkpt lat="45.673668002836926" lon="9.39346660162523"><ele>244.8</ele><time>2026-03-31T15:40:21.999Z</time></trkpt><trkpt lat="45.673750263411804" lon="9.393609277741525"><ele>245.0</ele><time>2026-03-31T15:40:22.999Z</time></trkpt><trkpt lat="45.67385474139994" lon="9.39374477626006"><ele>245.0</ele><time>2026-03-31T15:40:23.999Z</time></trkpt><trkpt lat="45.67398130802505" lon="9.393884033667371"><ele>245.0</ele><time>2026-03-31T15:40:24.999Z</time></trkpt><trkpt lat="45.67412015556676" lon="9.394056456649388"><ele>245.0</ele><time>2026-03-31T15:40:25.999Z</time></trkpt><trkpt lat="45.67424997597991" lon="9.394221947379773"><ele>245.0</ele><time>2026-03-31T15:40:26.999Z</time></trkpt><trkpt lat="45.674383168609666" lon="9.394372195006772"><ele>245.0</ele><time>2026-03-31T15:40:27.999Z</time></trkpt><trkpt lat="45.67453250913176" lon="9.394552150289787"><ele>245.0</ele><time>2026-03-31T15:40:28.999Z</time></trkpt><trkpt lat="45.674645511289775" lon="9.394652067081108"><ele>244.75</ele><time>2026-03-31T15:40:29.999Z</time></trkpt><trkpt lat="45.67475243032175" lon="9.394760998445935"><ele>244.5</ele><time>2026-03-31T15:40:30.999Z</time></trkpt><trkpt lat="45.67487635382322" lon="9.394854972909334"><ele>244.25</ele><time>2026-03-31T15:40:31.999Z</time></trkpt><trkpt lat="45.67501234783268" lon="9.39495541400196"><ele>244.0</ele><time>2026-03-31T15:40:32.999Z</time></trkpt><trkpt lat="45.675157969783164" lon="9.395069333564125"><ele>245.0</ele><time>2026-03-31T15:40:33.999Z</time></trkpt><trkpt lat="45.67530889909773" lon="9.395173415722425"><ele>246.0</ele><time>2026-03-31T15:40:34.999Z</time></trkpt><trkpt lat="45.67544736478197" lon="9.395269095636023"><ele>247.0</ele><time>2026-03-31T15:40:35.999Z</time></trkpt><trkpt lat="45.675579455074605" lon="9.395351767229077"><ele>247.0</ele><time>2026-03-31T15:40:36.999Z</time></trkpt><trkpt lat="45.67569631461816" lon="9.39542301015474"><ele>247.0</ele><time>2026-03-31T15:40:37.999Z</time></trkpt><trkpt lat="45.67581944754382" lon="9.395491870900042"><ele>247.0</ele><time>2026-03-31T15:40:38.999Z</time></trkpt><trkpt lat="45.67593730400466" lon="9.395552068403509"><ele>247.0</ele><time>2026-03-31T15:40:39.999Z</time></trkpt><trkpt lat="45.67606882219175" lon="9.395618597958029"><ele>247.5</ele><time>2026-03-31T15:40:40.999Z</time></trkpt><trkpt lat="45.676201836486705" lon="9.395675900713226"><ele>248.0</ele><time>2026-03-31T15:40:41.999Z</time></trkpt><trkpt lat="45.67633918536794" lon="9.395724311361349"><ele>248.5</ele><time>2026-03-31T15:40:42.999Z</time></trkpt><trkpt lat="45.67647789732571" lon="9.395771026710507"><ele>249.0</ele><time>2026-03-31T15:40:43.999Z</time></trkpt><trkpt lat="45.67661912270786" lon="9.395830585661244"><ele>249.0</ele><time>2026-03-31T15:40:44.999Z</time></trkpt><trkpt lat="45.67675447927581" lon="9.3958886460742"><ele>249.0</ele><time>2026-03-31T15:40:45.999Z</time></trkpt><trkpt lat="45.676897606543356" lon="9.395923355174181"><ele>249.0</ele><time>2026-03-31T15:40:46.999Z</time></trkpt><trkpt lat="45.677044079152985" lon="9.395970044195499"><ele>249.0</ele><time>2026-03-31T15:40:47.999Z</time></trkpt><trkpt lat="45.677190106569775" lon="9.396011975702907"><ele>249.0</ele><time>2026-03-31T15:40:48.999Z</time></trkpt><trkpt lat="45.67731982393893" lon="9.396059163275053"><ele>249.0</ele><time>2026-03-31T15:40:49.999Z</time></trkpt><trkpt lat="45.67745724959632" lon="9.396106560863602"><ele>249.0</ele><time>2026-03-31T15:40:51Z</time></trkpt><trkpt lat="45.67760410221781" lon="9.396157865387494"><ele>249.0</ele><time>2026-03-31T15:40:52Z</time></trkpt><trkpt lat="45.67774651245976" lon="9.396198006271584"><ele>249.0</ele><time>2026-03-31T15:40:53Z</time></trkpt><trkpt lat="45.677879418209955" lon="9.39626131234822"><ele>249.0</ele><time>2026-03-31T15:40:54Z</time></trkpt><trkpt lat="45.67803122657123" lon="9.396301180319275"><ele>249.0</ele><time>2026-03-31T15:40:55Z</time></trkpt><trkpt lat="45.67820675835335" lon="9.396336301173612"><ele>249.0</ele><time>2026-03-31T15:40:56Z</time></trkpt><trkpt lat="45.6783658488517" lon="9.396395685562881"><ele>249.0</ele><time>2026-03-31T15:40:57Z</time></trkpt><trkpt lat="45.67851247164237" lon="9.39644643820007"><ele>249.0</ele><time>2026-03-31T15:40:58Z</time></trkpt><trkpt lat="45.678631727553714" lon="9.396484971736951"><ele>249.0</ele><time>2026-03-31T15:40:59Z</time></trkpt><trkpt lat="45.67874973946544" lon="9.396493648904986"><ele>249.2</ele><time>2026-03-31T15:41:00Z</time></trkpt><trkpt lat="45.67886926196805" lon="9.396472275367262"><ele>249.39999999999998</ele><time>2026-03-31T15:41:01Z</time></trkpt><trkpt lat="45.67897389089208" lon="9.396436178661377"><ele>249.6</ele><time>2026-03-31T15:41:02Z</time></trkpt><trkpt lat="45.67906447820655" lon="9.39636808388692"><ele>249.8</ele><time>2026-03-31T15:41:03Z</time></trkpt><trkpt lat="45.67913177976335" lon="9.396272091507502"><ele>250.0</ele><time>2026-03-31T15:41:04Z</time></trkpt><trkpt lat="45.67919494247183" lon="9.396214429835485"><ele>250.0</ele><time>2026-03-31T15:41:05Z</time></trkpt><trkpt lat="45.67932555188258" lon="9.396181611534246"><ele>250.0</ele><time>2026-03-31T15:41:07Z</time></trkpt><trkpt lat="45.67942487261705" lon="9.396375552058435"><ele>250.0</ele><time>2026-03-31T15:41:09Z</time></trkpt><trkpt lat="45.67942973637181" lon="9.396465667416031"><ele>250.0</ele><time>2026-03-31T15:41:12Z</time></trkpt><trkpt lat="45.67944600536334" lon="9.396569459853001"><ele>250.0</ele><time>2026-03-31T15:41:15Z</time></trkpt><trkpt lat="45.67939841460868" lon="9.396677170759657"><ele>249.99999999999997</ele><time>2026-03-31T15:41:19Z</time></trkpt><trkpt lat="45.67936375684694" lon="9.396789559461315"><ele>250.0</ele><time>2026-03-31T15:41:20Z</time></trkpt><trkpt lat="45.67932992549215" lon="9.396890265501687"><ele>250.0</ele><time>2026-03-31T15:41:21Z</time></trkpt><trkpt lat="45.67933283306454" lon="9.39699915876068"><ele>250.0</ele><time>2026-03-31T15:41:22Z</time></trkpt><trkpt lat="45.67936447250772" lon="9.397100408222926"><ele>249.99999999999997</ele><time>2026-03-31T15:41:23Z</time></trkpt><trkpt lat="45.67942845633386" lon="9.3971679315589"><ele>250.0</ele><time>2026-03-31T15:41:24Z</time></trkpt><trkpt lat="45.679517395882144" lon="9.397193912512101"><ele>250.0</ele><time>2026-03-31T15:41:25Z</time></trkpt><trkpt lat="45.679635400589824" lon="9.39717049312243"><ele>250.0</ele><time>2026-03-31T15:41:26Z</time></trkpt><trkpt lat="45.67976710853786" lon="9.397130753188762"><ele>250.0</ele><time>2026-03-31T15:41:27Z</time></trkpt><trkpt lat="45.67988503401699" lon="9.397135043403642"><ele>250.0</ele><time>2026-03-31T15:41:28Z</time></trkpt><trkpt lat="45.679999729550346" lon="9.397150162688314"><ele>250.0</ele><time>2026-03-31T15:41:29Z</time></trkpt><trkpt lat="45.68010896036949" lon="9.397200613441873"><ele>250.0</ele><time>2026-03-31T15:41:30Z</time></trkpt><trkpt lat="45.68023243146354" lon="9.397242716271094"><ele>250.0</ele><time>2026-03-31T15:41:31Z</time></trkpt><trkpt lat="45.68034091336178" lon="9.397283857822329"><ele>250.0</ele><time>2026-03-31T15:41:32Z</time></trkpt><trkpt lat="45.68046030266504" lon="9.39732913398473"><ele>251.0</ele><time>2026-03-31T15:41:33Z</time></trkpt><trkpt lat="45.6805878800037" lon="9.397384685038375"><ele>252.0</ele><time>2026-03-31T15:41:34Z</time></trkpt><trkpt lat="45.68071404385675" lon="9.397426892218238"><ele>253.0</ele><time>2026-03-31T15:41:35Z</time></trkpt><trkpt lat="45.6808221883824" lon="9.39745275994014"><ele>254.0</ele><time>2026-03-31T15:41:36Z</time></trkpt><trkpt lat="45.680927063881136" lon="9.39748561405552"><ele>254.0</ele><time>2026-03-31T15:41:37Z</time></trkpt><trkpt lat="45.68101300916363" lon="9.39757434747128"><ele>254.0</ele><time>2026-03-31T15:41:38Z</time></trkpt><trkpt lat="45.68111483184224" lon="9.397623958175027"><ele>254.0</ele><time>2026-03-31T15:41:39Z</time></trkpt><trkpt lat="45.68123004292119" lon="9.397669530563713"><ele>254.0</ele><time>2026-03-31T15:41:40Z</time></trkpt><trkpt lat="45.68134817718309" lon="9.397716792367103"><ele>254.2</ele><time>2026-03-31T15:41:41Z</time></trkpt><trkpt lat="45.6814547244136" lon="9.39774756980143"><ele>254.39999999999998</ele><time>2026-03-31T15:41:42Z</time></trkpt><trkpt lat="45.6815493468355" lon="9.397764431364486"><ele>254.6</ele><time>2026-03-31T15:41:43Z</time></trkpt><trkpt lat="45.68164467236522" lon="9.397800294224368"><ele>254.8</ele><time>2026-03-31T15:41:44Z</time></trkpt><trkpt lat="45.68174163020878" lon="9.397840233913197"><ele>255.0</ele><time>2026-03-31T15:41:45Z</time></trkpt><trkpt lat="45.681825233461076" lon="9.397865436285157"><ele>255.0</ele><time>2026-03-31T15:41:46Z</time></trkpt><trkpt lat="45.68191116782389" lon="9.39789469375269"><ele>255.0</ele><time>2026-03-31T15:41:47Z</time></trkpt><trkpt lat="45.682001249040944" lon="9.397938390232087"><ele>255.0</ele><time>2026-03-31T15:41:48Z</time></trkpt><trkpt lat="45.68210763612193" lon="9.39798595047356"><ele>255.0</ele><time>2026-03-31T15:41:49Z</time></trkpt><trkpt lat="45.68220801134848" lon="9.398017156526457"><ele>255.0</ele><time>2026-03-31T15:41:50Z</time></trkpt><trkpt lat="45.68230851866752" lon="9.398042298586121"><ele>255.16666666666666</ele><time>2026-03-31T15:41:51Z</time></trkpt><trkpt lat="45.6824004343614" lon="9.398101463035587"><ele>255.33333333333331</ele><time>2026-03-31T15:41:52Z</time></trkpt><trkpt lat="45.68248767434249" lon="9.39814113603269"><ele>255.5</ele><time>2026-03-31T15:41:53Z</time></trkpt><trkpt lat="45.68255028869599" lon="9.398198315410289"><ele>255.66666666666666</ele><time>2026-03-31T15:41:54Z</time></trkpt><trkpt lat="45.68262365469808" lon="9.398280515392461"><ele>255.83333333333331</ele><time>2026-03-31T15:41:55.999Z</time></trkpt><trkpt lat="45.68268541974182" lon="9.39835519710801"><ele>256.0</ele><time>2026-03-31T15:41:57.999Z</time></trkpt><trkpt lat="45.68274103075761" lon="9.39840180671352"><ele>255.49999999999997</ele><time>2026-03-31T15:41:58.999Z</time></trkpt><trkpt lat="45.68280490159796" lon="9.398438739751928"><ele>255.0</ele><time>2026-03-31T15:41:59.999Z</time></trkpt><trkpt lat="45.68286920505225" lon="9.398436652335592"><ele>254.5</ele><time>2026-03-31T15:42:00.999Z</time></trkpt><trkpt lat="45.68294046405569" lon="9.398435296843319"><ele>254.0</ele><time>2026-03-31T15:42:01.999Z</time></trkpt><trkpt lat="45.683028640605144" lon="9.398363207738463"><ele>253.49999999999997</ele><time>2026-03-31T15:42:02.999Z</time></trkpt><trkpt lat="45.683112845190465" lon="9.398350400250377"><ele>253.0</ele><time>2026-03-31T15:42:03.999Z</time></trkpt><trkpt lat="45.68321691835303" lon="9.398328805968331"><ele>253.0</ele><time>2026-03-31T15:42:05.999Z</time></trkpt><trkpt lat="45.68330934568467" lon="9.398475401772298"><ele>253.0</ele><time>2026-03-31T15:42:06.999Z</time></trkpt><trkpt lat="45.68340522834862" lon="9.398474801060702"><ele>253.0</ele><time>2026-03-31T15:42:07.999Z</time></trkpt><trkpt lat="45.68351624253678" lon="9.39849831855071"><ele>253.0</ele><time>2026-03-31T15:42:08.999Z</time></trkpt><trkpt lat="45.68363886450698" lon="9.398513119642057"><ele>253.0</ele><time>2026-03-31T15:42:09.999Z</time></trkpt><trkpt lat="45.68374320710268" lon="9.398535445901654"><ele>253.0</ele><time>2026-03-31T15:42:10.999Z</time></trkpt><trkpt lat="45.68384722234805" lon="9.398557729540272"><ele>253.0</ele><time>2026-03-31T15:42:11.999Z</time></trkpt><trkpt lat="45.68393795177001" lon="9.398590934286272"><ele>253.0</ele><time>2026-03-31T15:42:12.999Z</time></trkpt><trkpt lat="45.68403475477" lon="9.398622374398043"><ele>253.0</ele><time>2026-03-31T15:42:13.999Z</time></trkpt><trkpt lat="45.68412639271451" lon="9.398652005376332"><ele>253.0</ele><time>2026-03-31T15:42:14.999Z</time></trkpt><trkpt lat="45.68421375876719" lon="9.39868670556998"><ele>253.0</ele><time>2026-03-31T15:42:15.999Z</time></trkpt><trkpt lat="45.684308880164714" lon="9.398718651574512"><ele>253.0</ele><time>2026-03-31T15:42:16.999Z</time></trkpt><trkpt lat="45.68442083655187" lon="9.39875291339079"><ele>253.0</ele><time>2026-03-31T15:42:17.999Z</time></trkpt><trkpt lat="45.68453108214914" lon="9.398792409603558"><ele>253.0</ele><time>2026-03-31T15:42:18.999Z</time></trkpt><trkpt lat="45.684675684340625" lon="9.398844122017014"><ele>253.75</ele><time>2026-03-31T15:42:19.999Z</time></trkpt><trkpt lat="45.684803084481345" lon="9.398907620201193"><ele>254.5</ele><time>2026-03-31T15:42:20.999Z</time></trkpt><trkpt lat="45.684922721006394" lon="9.398940548645898"><ele>255.25</ele><time>2026-03-31T15:42:21.999Z</time></trkpt><trkpt lat="45.68504404886183" lon="9.398980993087562"><ele>256.0</ele><time>2026-03-31T15:42:22.999Z</time></trkpt><trkpt lat="45.68515635654328" lon="9.399025265974496"><ele>255.25</ele><time>2026-03-31T15:42:23.999Z</time></trkpt><trkpt lat="45.68528611107337" lon="9.399071867269706"><ele>254.5</ele><time>2026-03-31T15:42:24.999Z</time></trkpt><trkpt lat="45.685392232617005" lon="9.399132625317037"><ele>253.75</ele><time>2026-03-31T15:42:25.999Z</time></trkpt><trkpt lat="45.6855017988142" lon="9.399157089217505"><ele>253.0</ele><time>2026-03-31T15:42:26.999Z</time></trkpt><trkpt lat="45.685634194541805" lon="9.399221701429942"><ele>253.0</ele><time>2026-03-31T15:42:27.999Z</time></trkpt><trkpt lat="45.685768785815426" lon="9.3992710152575"><ele>253.0</ele><time>2026-03-31T15:42:28.999Z</time></trkpt><trkpt lat="45.685904764651376" lon="9.399329899204842"><ele>253.0</ele><time>2026-03-31T15:42:29.999Z</time></trkpt><trkpt lat="45.6860354283199" lon="9.39936855593784"><ele>253.0</ele><time>2026-03-31T15:42:30.999Z</time></trkpt><trkpt lat="45.68617504842205" lon="9.399408138327008"><ele>254.33333333333331</ele><time>2026-03-31T15:42:31.999Z</time></trkpt><trkpt lat="45.686322794231" lon="9.399461826455205"><ele>255.66666666666669</ele><time>2026-03-31T15:42:32.999Z</time></trkpt><trkpt lat="45.68648676132428" lon="9.39951747375458"><ele>257.0</ele><time>2026-03-31T15:42:33.999Z</time></trkpt><trkpt lat="45.68662165116154" lon="9.399565705200024"><ele>257.0</ele><time>2026-03-31T15:42:34.999Z</time></trkpt><trkpt lat="45.68678363629886" lon="9.399618161673283"><ele>257.0</ele><time>2026-03-31T15:42:35.999Z</time></trkpt><trkpt lat="45.6869422722065" lon="9.399677827036381"><ele>257.0</ele><time>2026-03-31T15:42:36.999Z</time></trkpt><trkpt lat="45.68709233540215" lon="9.399730272708167"><ele>257.33333333333337</ele><time>2026-03-31T15:42:37.999Z</time></trkpt><trkpt lat="45.68723565944561" lon="9.3997799827658"><ele>257.6666666666667</ele><time>2026-03-31T15:42:38.999Z</time></trkpt><trkpt lat="45.68738086402479" lon="9.399827621520888"><ele>258.0</ele><time>2026-03-31T15:42:39.999Z</time></trkpt><trkpt lat="45.68753518203866" lon="9.39988383725381"><ele>258.0</ele><time>2026-03-31T15:42:40.999Z</time></trkpt><trkpt lat="45.68770977985772" lon="9.399955817505752"><ele>258.0</ele><time>2026-03-31T15:42:41.999Z</time></trkpt><trkpt lat="45.68786298383024" lon="9.400019686448356"><ele>258.0</ele><time>2026-03-31T15:42:42.999Z</time></trkpt><trkpt lat="45.68800057613259" lon="9.400080162656865"><ele>258.8</ele><time>2026-03-31T15:42:43.999Z</time></trkpt><trkpt lat="45.68812302745258" lon="9.400142600294416"><ele>259.6</ele><time>2026-03-31T15:42:44.999Z</time></trkpt><trkpt lat="45.6882170086594" lon="9.400186388254378"><ele>260.4</ele><time>2026-03-31T15:42:45.999Z</time></trkpt><trkpt lat="45.6882831995793" lon="9.400217741273073"><ele>261.2</ele><time>2026-03-31T15:42:46.999Z</time></trkpt><trkpt lat="45.68839756400581" lon="9.400332727940519"><ele>262.0</ele><time>2026-03-31T15:42:48.999Z</time></trkpt><trkpt lat="45.68844933131719" lon="9.40043063765771"><ele>262.0</ele><time>2026-03-31T15:42:49.999Z</time></trkpt><trkpt lat="45.68850102313856" lon="9.400520251651814"><ele>262.0</ele><time>2026-03-31T15:42:50.999Z</time></trkpt><trkpt lat="45.688577932078545" lon="9.400571835407861"><ele>262.0</ele><time>2026-03-31T15:42:51.999Z</time></trkpt><trkpt lat="45.68866122195236" lon="9.400577076249668"><ele>262.0</ele><time>2026-03-31T15:42:52.999Z</time></trkpt><trkpt lat="45.688767573488235" lon="9.40054520552088"><ele>262.0</ele><time>2026-03-31T15:42:53.999Z</time></trkpt><trkpt lat="45.68890176552757" lon="9.400507378590664"><ele>262.0</ele><time>2026-03-31T15:42:54.999Z</time></trkpt><trkpt lat="45.6890523609683" lon="9.400550623882305"><ele>262.0</ele><time>2026-03-31T15:42:55.999Z</time></trkpt><trkpt lat="45.6892510676796" lon="9.40060759388276"><ele>262.0</ele><time>2026-03-31T15:42:57Z</time></trkpt><trkpt lat="45.68943570335185" lon="9.400650745289727"><ele>262.0</ele><time>2026-03-31T15:42:58Z</time></trkpt><trkpt lat="45.689637267056554" lon="9.400714255124017"><ele>262.0</ele><time>2026-03-31T15:42:59Z</time></trkpt><trkpt lat="45.68982963118899" lon="9.400783465552456"><ele>262.0</ele><time>2026-03-31T15:43:00Z</time></trkpt><trkpt lat="45.69000195836242" lon="9.40085280383135"><ele>262.0</ele><time>2026-03-31T15:43:01Z</time></trkpt><trkpt lat="45.690178170069174" lon="9.400926490390116"><ele>262.0</ele><time>2026-03-31T15:43:02Z</time></trkpt><trkpt lat="45.690349141116656" lon="9.40099867288768"><ele>262.0</ele><time>2026-03-31T15:43:03Z</time></trkpt><trkpt lat="45.69051709846005" lon="9.401085600037701"><ele>263.0</ele><time>2026-03-31T15:43:04Z</time></trkpt><trkpt lat="45.69067584825983" lon="9.40116735963761"><ele>264.0</ele><time>2026-03-31T15:43:05Z</time></trkpt><trkpt lat="45.690828112002784" lon="9.401238802033026"><ele>265.0</ele><time>2026-03-31T15:43:06Z</time></trkpt><trkpt lat="45.690966724860374" lon="9.40130325836468"><ele>265.75</ele><time>2026-03-31T15:43:07Z</time></trkpt><trkpt lat="45.6910970886745" lon="9.401371454578253"><ele>266.5</ele><time>2026-03-31T15:43:08Z</time></trkpt><trkpt lat="45.69123618387337" lon="9.40144261734532"><ele>267.25</ele><time>2026-03-31T15:43:09Z</time></trkpt><trkpt lat="45.691357136619644" lon="9.401506309448461"><ele>268.0</ele><time>2026-03-31T15:43:10Z</time></trkpt><trkpt lat="45.69148737006908" lon="9.4015774580571"><ele>268.0</ele><time>2026-03-31T15:43:11Z</time></trkpt><trkpt lat="45.69161562709869" lon="9.401641110510456"><ele>268.0</ele><time>2026-03-31T15:43:12Z</time></trkpt><trkpt lat="45.691736332031276" lon="9.40171057799623"><ele>268.0</ele><time>2026-03-31T15:43:13Z</time></trkpt><trkpt lat="45.69184079625826" lon="9.40177592395086"><ele>268.0</ele><time>2026-03-31T15:43:14Z</time></trkpt><trkpt lat="45.6919451500632" lon="9.40183059452083"><ele>268.2</ele><time>2026-03-31T15:43:15Z</time></trkpt><trkpt lat="45.69205050748145" lon="9.401878672944953"><ele>268.4</ele><time>2026-03-31T15:43:16Z</time></trkpt><trkpt lat="45.69215736807559" lon="9.40193133721755"><ele>268.59999999999997</ele><time>2026-03-31T15:43:17Z</time></trkpt><trkpt lat="45.69224915321018" lon="9.401972126445015"><ele>268.8</ele><time>2026-03-31T15:43:18Z</time></trkpt><trkpt lat="45.69234967654849" lon="9.402025948756647"><ele>269.0</ele><time>2026-03-31T15:43:19Z</time></trkpt><trkpt lat="45.69242525801242" lon="9.402055880778509"><ele>269.0</ele><time>2026-03-31T15:43:20Z</time></trkpt><trkpt lat="45.692488558810695" lon="9.402109822415182"><ele>269.0</ele><time>2026-03-31T15:43:21Z</time></trkpt><trkpt lat="45.69255453293769" lon="9.40216878148627"><ele>269.0</ele><time>2026-03-31T15:43:22Z</time></trkpt><trkpt lat="45.69262132663898" lon="9.402216284486851"><ele>269.0</ele><time>2026-03-31T15:43:23Z</time></trkpt><trkpt lat="45.69269571129045" lon="9.402259602989055"><ele>269.0</ele><time>2026-03-31T15:43:24Z</time></trkpt><trkpt lat="45.692764276030374" lon="9.402275633320148"><ele>269.0</ele><time>2026-03-31T15:43:25Z</time></trkpt><trkpt lat="45.692836495702736" lon="9.402282058990723"><ele>269.0</ele><time>2026-03-31T15:43:26Z</time></trkpt><trkpt lat="45.692953313676576" lon="9.402324838208752"><ele>269.0</ele><time>2026-03-31T15:43:28Z</time></trkpt><trkpt lat="45.69302187687625" lon="9.402338255189903"><ele>269.0</ele><time>2026-03-31T15:43:29Z</time></trkpt><trkpt lat="45.69311085072748" lon="9.402351310742104"><ele>269.0</ele><time>2026-03-31T15:43:30Z</time></trkpt><trkpt lat="45.693212688027664" lon="9.40234789229142"><ele>269.0</ele><time>2026-03-31T15:43:31Z</time></trkpt><trkpt lat="45.69333620604346" lon="9.402330051476213"><ele>269.0</ele><time>2026-03-31T15:43:32Z</time></trkpt><trkpt lat="45.69348808144685" lon="9.402331923038938"><ele>269.33333333333337</ele><time>2026-03-31T15:43:33Z</time></trkpt><trkpt lat="45.69363952679597" lon="9.402323279261283"><ele>269.6666666666667</ele><time>2026-03-31T15:43:34Z</time></trkpt><trkpt lat="45.69380647838725" lon="9.402327104377953"><ele>270.0</ele><time>2026-03-31T15:43:35Z</time></trkpt><trkpt lat="45.6939539458269" lon="9.402323818650908"><ele>270.0</ele><time>2026-03-31T15:43:36Z</time></trkpt><trkpt lat="45.694093463398865" lon="9.402362828182122"><ele>270.0</ele><time>2026-03-31T15:43:37Z</time></trkpt><trkpt lat="45.69424290587459" lon="9.402441916803316"><ele>270.0</ele><time>2026-03-31T15:43:38Z</time></trkpt><trkpt lat="45.69438407436571" lon="9.402543112874842"><ele>271.3333333333333</ele><time>2026-03-31T15:43:39Z</time></trkpt><trkpt lat="45.69452073979283" lon="9.402659382283455"><ele>272.66666666666663</ele><time>2026-03-31T15:43:40Z</time></trkpt><trkpt lat="45.6946607634211" lon="9.402788951489132"><ele>274.0</ele><time>2026-03-31T15:43:41Z</time></trkpt><trkpt lat="45.694811084965934" lon="9.402935862054626"><ele>273.66666666666663</ele><time>2026-03-31T15:43:42Z</time></trkpt><trkpt lat="45.69496230586157" lon="9.403084973827182"><ele>273.3333333333333</ele><time>2026-03-31T15:43:43Z</time></trkpt><trkpt lat="45.695092260345355" lon="9.403278836756702"><ele>273.0</ele><time>2026-03-31T15:43:44Z</time></trkpt><trkpt lat="45.69525020846795" lon="9.403459231517429"><ele>273.3333333333333</ele><time>2026-03-31T15:43:45Z</time></trkpt><trkpt lat="45.69539336742467" lon="9.403608019102762"><ele>273.66666666666663</ele><time>2026-03-31T15:43:46Z</time></trkpt><trkpt lat="45.695523062873036" lon="9.403735827930861"><ele>274.0</ele><time>2026-03-31T15:43:47Z</time></trkpt><trkpt lat="45.695644707157996" lon="9.403860720829169"><ele>274.0</ele><time>2026-03-31T15:43:48Z</time></trkpt><trkpt lat="45.69574606097409" lon="9.403975046840653"><ele>274.0</ele><time>2026-03-31T15:43:49Z</time></trkpt><trkpt lat="45.69584158350815" lon="9.404072036043717"><ele>274.0</ele><time>2026-03-31T15:43:50Z</time></trkpt><trkpt lat="45.695930262215434" lon="9.404143304424085"><ele>274.0</ele><time>2026-03-31T15:43:51Z</time></trkpt><trkpt lat="45.69599757721716" lon="9.404218799507415"><ele>274.0</ele><time>2026-03-31T15:43:52Z</time></trkpt><trkpt lat="45.69605619048147" lon="9.404301484441044"><ele>274.4</ele><time>2026-03-31T15:43:53Z</time></trkpt><trkpt lat="45.6961296303905" lon="9.404377003378292"><ele>274.79999999999995</ele><time>2026-03-31T15:43:54Z</time></trkpt><trkpt lat="45.696205600938" lon="9.40445573989021"><ele>275.20000000000005</ele><time>2026-03-31T15:43:55Z</time></trkpt><trkpt lat="45.69628301284598" lon="9.404530084337553"><ele>275.6</ele><time>2026-03-31T15:43:56Z</time></trkpt><trkpt lat="45.69637216669551" lon="9.404599102192845"><ele>276.0</ele><time>2026-03-31T15:43:57Z</time></trkpt><trkpt lat="45.69645561169085" lon="9.404675678836687"><ele>276.2</ele><time>2026-03-31T15:43:58Z</time></trkpt><trkpt lat="45.69653384290239" lon="9.404746476242115"><ele>276.40000000000003</ele><time>2026-03-31T15:43:59Z</time></trkpt><trkpt lat="45.69660760818199" lon="9.40484019221009"><ele>276.6</ele><time>2026-03-31T15:44:00Z</time></trkpt><trkpt lat="45.69670737998006" lon="9.404933721081877"><ele>276.8</ele><time>2026-03-31T15:44:00.999Z</time></trkpt><trkpt lat="45.69680173002005" lon="9.405056337383234"><ele>277.0</ele><time>2026-03-31T15:44:01.999Z</time></trkpt><trkpt lat="45.696896687340804" lon="9.405180805710255"><ele>277.0</ele><time>2026-03-31T15:44:02.999Z</time></trkpt><trkpt lat="45.69699307792739" lon="9.405298935355807"><ele>277.0</ele><time>2026-03-31T15:44:03.999Z</time></trkpt><trkpt lat="45.69708262256702" lon="9.40540805698872"><ele>277.0</ele><time>2026-03-31T15:44:04.999Z</time></trkpt><trkpt lat="45.697189016785586" lon="9.405497120593026"><ele>277.0</ele><time>2026-03-31T15:44:05.999Z</time></trkpt><trkpt lat="45.69727608854615" lon="9.405578447864928"><ele>277.0</ele><time>2026-03-31T15:44:06.999Z</time></trkpt><trkpt lat="45.697353876378116" lon="9.40563840769358"><ele>277.0</ele><time>2026-03-31T15:44:07.999Z</time></trkpt><trkpt lat="45.69742916244376" lon="9.405699883989742"><ele>277.0</ele><time>2026-03-31T15:44:08.999Z</time></trkpt><trkpt lat="45.6974935974311" lon="9.405741398088107"><ele>277.0</ele><time>2026-03-31T15:44:09.999Z</time></trkpt><trkpt lat="45.697577219265305" lon="9.405799722102877"><ele>277.0</ele><time>2026-03-31T15:44:11.999Z</time></trkpt><trkpt lat="45.697610267094156" lon="9.405880578681625"><ele>277.0</ele><time>2026-03-31T15:44:14.999Z</time></trkpt><trkpt lat="45.69768044290997" lon="9.40593219673571"><ele>277.0</ele><time>2026-03-31T15:44:16.999Z</time></trkpt><trkpt lat="45.69774301384908" lon="9.405998905335958"><ele>277.0</ele><time>2026-03-31T15:44:17.999Z</time></trkpt><trkpt lat="45.69780100099088" lon="9.40605966187346"><ele>277.0</ele><time>2026-03-31T15:44:18.999Z</time></trkpt><trkpt lat="45.69785469971039" lon="9.406143299434994"><ele>277.0</ele><time>2026-03-31T15:44:19.999Z</time></trkpt><trkpt lat="45.69791435506616" lon="9.40619986284101"><ele>277.0</ele><time>2026-03-31T15:44:20.999Z</time></trkpt><trkpt lat="45.69800432937606" lon="9.406279955494748"><ele>277.0</ele><time>2026-03-31T15:44:21.999Z</time></trkpt><trkpt lat="45.698061269170125" lon="9.406340222079859"><ele>277.5</ele><time>2026-03-31T15:44:22.999Z</time></trkpt><trkpt lat="45.69811717535113" lon="9.406404574069333"><ele>278.0</ele><time>2026-03-31T15:44:23.999Z</time></trkpt><trkpt lat="45.69817096777894" lon="9.406488516363554"><ele>278.5</ele><time>2026-03-31T15:44:24.999Z</time></trkpt><trkpt lat="45.69821606328304" lon="9.406575257663881"><ele>279.0</ele><time>2026-03-31T15:44:25.999Z</time></trkpt><trkpt lat="45.69827474966449" lon="9.4066613777655"><ele>279.5</ele><time>2026-03-31T15:44:26.999Z</time></trkpt><trkpt lat="45.6983484401268" lon="9.406748706772616"><ele>280.0</ele><time>2026-03-31T15:44:27.999Z</time></trkpt><trkpt lat="45.698447446239086" lon="9.406834886938082"><ele>280.0</ele><time>2026-03-31T15:44:28.999Z</time></trkpt><trkpt lat="45.69854288123309" lon="9.406896930623338"><ele>280.0</ele><time>2026-03-31T15:44:29.999Z</time></trkpt><trkpt lat="45.698663059012155" lon="9.406968345293107"><ele>280.0</ele><time>2026-03-31T15:44:30.999Z</time></trkpt><trkpt lat="45.69873653319432" lon="9.407067656235645"><ele>280.0</ele><time>2026-03-31T15:44:31.999Z</time></trkpt><trkpt lat="45.69880960516707" lon="9.40714976293278"><ele>280.0</ele><time>2026-03-31T15:44:32.999Z</time></trkpt><trkpt lat="45.69886674469224" lon="9.407213352357745"><ele>280.8</ele><time>2026-03-31T15:44:33.999Z</time></trkpt><trkpt lat="45.698951505275666" lon="9.407263736012183"><ele>281.6</ele><time>2026-03-31T15:44:35.999Z</time></trkpt><trkpt lat="45.69899733200887" lon="9.407343175957946"><ele>282.4</ele><time>2026-03-31T15:44:36.999Z</time></trkpt><trkpt lat="45.69906842978148" lon="9.40745539294863"><ele>283.2</ele><time>2026-03-31T15:44:38.999Z</time></trkpt><trkpt lat="45.69916088976293" lon="9.407567866436553"><ele>284.0</ele><time>2026-03-31T15:44:40.999Z</time></trkpt><trkpt lat="45.69920922857356" lon="9.407630748186767"><ele>284.0</ele><time>2026-03-31T15:44:41.999Z</time></trkpt><trkpt lat="45.699292346926576" lon="9.40769522076678"><ele>284.0</ele><time>2026-03-31T15:44:42.999Z</time></trkpt><trkpt lat="45.69934499299547" lon="9.407768617053168"><ele>284.0</ele><time>2026-03-31T15:44:43.999Z</time></trkpt><trkpt lat="45.699419806686365" lon="9.407930792325265"><ele>284.0</ele><time>2026-03-31T15:44:45.999Z</time></trkpt><trkpt lat="45.69951967620302" lon="9.408037481738376"><ele>284.0</ele><time>2026-03-31T15:44:47.999Z</time></trkpt><trkpt lat="45.69958437143887" lon="9.408137557486533"><ele>284.5</ele><time>2026-03-31T15:44:48.999Z</time></trkpt><trkpt lat="45.69963929068022" lon="9.408221035445385"><ele>285.0</ele><time>2026-03-31T15:44:49.999Z</time></trkpt><trkpt lat="45.69971740268705" lon="9.408334600950816"><ele>285.5</ele><time>2026-03-31T15:44:51.999Z</time></trkpt><trkpt lat="45.69978819238856" lon="9.408381953173315"><ele>286.0</ele><time>2026-03-31T15:44:53.999Z</time></trkpt><trkpt lat="45.69983070708031" lon="9.408456089755607"><ele>286.5</ele><time>2026-03-31T15:44:56.999Z</time></trkpt><trkpt lat="45.699898046273645" lon="9.40854854084244"><ele>287.0</ele><time>2026-03-31T15:44:59.999Z</time></trkpt><trkpt lat="45.699973874786124" lon="9.408628844891131"><ele>287.0</ele><time>2026-03-31T15:45:01.999Z</time></trkpt><trkpt lat="45.700020958911495" lon="9.408689976991978"><ele>287.0</ele><time>2026-03-31T15:45:03Z</time></trkpt><trkpt lat="45.70007823599027" lon="9.408765864715932"><ele>287.0</ele><time>2026-03-31T15:45:04Z</time></trkpt><trkpt lat="45.70013984373347" lon="9.408844353984462"><ele>287.0</ele><time>2026-03-31T15:45:05Z</time></trkpt><trkpt lat="45.700201766315686" lon="9.408924920638828"><ele>287.0</ele><time>2026-03-31T15:45:06Z</time></trkpt><trkpt lat="45.700256515621454" lon="9.408984874020932"><ele>287.0</ele><time>2026-03-31T15:45:07Z</time></trkpt><trkpt lat="45.70031211010738" lon="9.409053007659512"><ele>286.6</ele><time>2026-03-31T15:45:08Z</time></trkpt><trkpt lat="45.70038156895992" lon="9.409111154763584"><ele>286.2</ele><time>2026-03-31T15:45:09Z</time></trkpt><trkpt lat="45.70044372209832" lon="9.409193658055464"><ele>285.8</ele><time>2026-03-31T15:45:10Z</time></trkpt><trkpt lat="45.70050586387528" lon="9.409312698211652"><ele>285.4</ele><time>2026-03-31T15:45:11Z</time></trkpt><trkpt lat="45.70057131318345" lon="9.409378010816093"><ele>285.0</ele><time>2026-03-31T15:45:12Z</time></trkpt><trkpt lat="45.70067307290435" lon="9.409475713559369"><ele>285.0</ele><time>2026-03-31T15:45:14Z</time></trkpt><trkpt lat="45.700727103925296" lon="9.40952711003053"><ele>285.0</ele><time>2026-03-31T15:45:15Z</time></trkpt><trkpt lat="45.70085143556018" lon="9.409660322970755"><ele>285.0</ele><time>2026-03-31T15:45:17Z</time></trkpt><trkpt lat="45.70088603925682" lon="9.409771083528982"><ele>285.0</ele><time>2026-03-31T15:45:18Z</time></trkpt><trkpt lat="45.700946307287005" lon="9.409843741020504"><ele>285.0</ele><time>2026-03-31T15:45:19Z</time></trkpt><trkpt lat="45.70100937852906" lon="9.409914382630431"><ele>284.6666666666667</ele><time>2026-03-31T15:45:20Z</time></trkpt><trkpt lat="45.70106980387373" lon="9.409984523187962"><ele>284.3333333333333</ele><time>2026-03-31T15:45:21Z</time></trkpt><trkpt lat="45.701136022128175" lon="9.41005957192271"><ele>284.0</ele><time>2026-03-31T15:45:22Z</time></trkpt><trkpt lat="45.7012115438258" lon="9.410138538093435"><ele>283.66666666666663</ele><time>2026-03-31T15:45:23Z</time></trkpt><trkpt lat="45.70128654574921" lon="9.410221535713285"><ele>283.3333333333333</ele><time>2026-03-31T15:45:24Z</time></trkpt><trkpt lat="45.70135347000738" lon="9.410292813531319"><ele>283.0</ele><time>2026-03-31T15:45:25Z</time></trkpt><trkpt lat="45.70140838031297" lon="9.410355824565451"><ele>283.0</ele><time>2026-03-31T15:45:26Z</time></trkpt><trkpt lat="45.70151291714466" lon="9.410463587405411"><ele>283.0</ele><time>2026-03-31T15:45:28Z</time></trkpt><trkpt lat="45.70155729212041" lon="9.410542313138967"><ele>283.0</ele><time>2026-03-31T15:45:29Z</time></trkpt><trkpt lat="45.70161260465659" lon="9.410618803576797"><ele>283.0</ele><time>2026-03-31T15:45:30Z</time></trkpt><trkpt lat="45.70166871710946" lon="9.410695028532505"><ele>283.0</ele><time>2026-03-31T15:45:31Z</time></trkpt><trkpt lat="45.70173301652561" lon="9.410756494090236"><ele>283.0</ele><time>2026-03-31T15:45:32Z</time></trkpt><trkpt lat="45.70181118771713" lon="9.41081413190082"><ele>284.0</ele><time>2026-03-31T15:45:33Z</time></trkpt><trkpt lat="45.701908039005296" lon="9.41085705584299"><ele>285.0</ele><time>2026-03-31T15:45:34Z</time></trkpt><trkpt lat="45.70201806419378" lon="9.410940285671591"><ele>286.0</ele><time>2026-03-31T15:45:35Z</time></trkpt><trkpt lat="45.70209357311141" lon="9.410987539549945"><ele>287.0</ele><time>2026-03-31T15:45:36Z</time></trkpt><trkpt lat="45.7022025092061" lon="9.411020538575356"><ele>288.0</ele><time>2026-03-31T15:45:38Z</time></trkpt><trkpt lat="45.70227400200025" lon="9.411051907435725"><ele>288.0</ele><time>2026-03-31T15:45:39Z</time></trkpt><trkpt lat="45.70237559573305" lon="9.411097169059891"><ele>288.0</ele><time>2026-03-31T15:45:40Z</time></trkpt><trkpt lat="45.70246243933728" lon="9.411130185875606"><ele>288.0</ele><time>2026-03-31T15:45:41Z</time></trkpt><trkpt lat="45.702571209709696" lon="9.411192549728016"><ele>288.0</ele><time>2026-03-31T15:45:42Z</time></trkpt><trkpt lat="45.70267229794012" lon="9.411221177431536"><ele>288.0</ele><time>2026-03-31T15:45:43Z</time></trkpt><trkpt lat="45.7028045997264" lon="9.41127732987073"><ele>288.5</ele><time>2026-03-31T15:45:44Z</time></trkpt><trkpt lat="45.702922497783014" lon="9.411325245931428"><ele>289.0</ele><time>2026-03-31T15:45:45Z</time></trkpt><trkpt lat="45.70299999856516" lon="9.411365180537075"><ele>289.5</ele><time>2026-03-31T15:45:46Z</time></trkpt><trkpt lat="45.70313335829812" lon="9.411406124917736"><ele>290.0</ele><time>2026-03-31T15:45:47Z</time></trkpt><trkpt lat="45.70327510206158" lon="9.411514042674678"><ele>290.0</ele><time>2026-03-31T15:45:48Z</time></trkpt><trkpt lat="45.70340598560939" lon="9.411553044132226"><ele>290.0</ele><time>2026-03-31T15:45:49Z</time></trkpt><trkpt lat="45.703505642498435" lon="9.411577253220045"><ele>290.0</ele><time>2026-03-31T15:45:50Z</time></trkpt><trkpt lat="45.70359729648872" lon="9.411600267677116"><ele>290.0</ele><time>2026-03-31T15:45:51Z</time></trkpt><trkpt lat="45.70373760374221" lon="9.411621919538772"><ele>289.25</ele><time>2026-03-31T15:45:52Z</time></trkpt><trkpt lat="45.7038536837411" lon="9.411637352978426"><ele>288.5</ele><time>2026-03-31T15:45:53Z</time></trkpt><trkpt lat="45.70398436402218" lon="9.411639206762747"><ele>287.75</ele><time>2026-03-31T15:45:54Z</time></trkpt><trkpt lat="45.704105242658514" lon="9.411646048723279"><ele>287.0</ele><time>2026-03-31T15:45:55Z</time></trkpt><trkpt lat="45.70422801484022" lon="9.41159783756831"><ele>287.0</ele><time>2026-03-31T15:45:56Z</time></trkpt><trkpt lat="45.70435393582525" lon="9.411592578115723"><ele>287.0</ele><time>2026-03-31T15:45:57Z</time></trkpt><trkpt lat="45.70447139890817" lon="9.411556053250882"><ele>287.0</ele><time>2026-03-31T15:45:58Z</time></trkpt><trkpt lat="45.70453008563476" lon="9.41151577030742"><ele>287.0</ele><time>2026-03-31T15:45:59Z</time></trkpt><trkpt lat="45.704604873471325" lon="9.411477528614283"><ele>287.0</ele><time>2026-03-31T15:45:59.999Z</time></trkpt><trkpt lat="45.70472374925782" lon="9.41145658063086"><ele>287.6</ele><time>2026-03-31T15:46:00.999Z</time></trkpt><trkpt lat="45.70480396761983" lon="9.411372213696188"><ele>288.2</ele><time>2026-03-31T15:46:01.999Z</time></trkpt><trkpt lat="45.70488118270606" lon="9.411229788305823"><ele>288.8</ele><time>2026-03-31T15:46:02.999Z</time></trkpt><trkpt lat="45.70493481402734" lon="9.41116466454164"><ele>289.4</ele><time>2026-03-31T15:46:03.999Z</time></trkpt><trkpt lat="45.705031293481824" lon="9.411141475616542"><ele>290.0</ele><time>2026-03-31T15:46:04.999Z</time></trkpt><trkpt lat="45.70509392182354" lon="9.411080040580549"><ele>290.0</ele><time>2026-03-31T15:46:05.999Z</time></trkpt><trkpt lat="45.70516597911892" lon="9.411006188205258"><ele>290.0</ele><time>2026-03-31T15:46:06.999Z</time></trkpt><trkpt lat="45.70524495699952" lon="9.41092805695601"><ele>290.0</ele><time>2026-03-31T15:46:07.999Z</time></trkpt><trkpt lat="45.705316588550716" lon="9.410853498928319"><ele>290.0</ele><time>2026-03-31T15:46:08.999Z</time></trkpt><trkpt lat="45.705449444109924" lon="9.410784566635428"><ele>290.0</ele><time>2026-03-31T15:46:09.999Z</time></trkpt><trkpt lat="45.7055321090193" lon="9.410709159269025"><ele>290.25</ele><time>2026-03-31T15:46:10.999Z</time></trkpt><trkpt lat="45.70564017404176" lon="9.410604668541449"><ele>290.5</ele><time>2026-03-31T15:46:11.999Z</time></trkpt><trkpt lat="45.705745969840976" lon="9.410522041961512"><ele>290.75</ele><time>2026-03-31T15:46:12.999Z</time></trkpt><trkpt lat="45.705868465224896" lon="9.410406290420385"><ele>291.0</ele><time>2026-03-31T15:46:13.999Z</time></trkpt><trkpt lat="45.705954958740655" lon="9.410323556157483"><ele>291.0</ele><time>2026-03-31T15:46:14.999Z</time></trkpt><trkpt lat="45.706055111613495" lon="9.410242928227268"><ele>291.0</ele><time>2026-03-31T15:46:15.999Z</time></trkpt><trkpt lat="45.70612499544664" lon="9.410157939132722"><ele>291.0</ele><time>2026-03-31T15:46:16.999Z</time></trkpt><trkpt lat="45.706242663165256" lon="9.41010605696371"><ele>291.0</ele><time>2026-03-31T15:46:18.999Z</time></trkpt><trkpt lat="45.706395484938014" lon="9.410149912558312"><ele>292.6</ele><time>2026-03-31T15:46:20.999Z</time></trkpt><trkpt lat="45.70649375639278" lon="9.410081078585184"><ele>294.20000000000005</ele><time>2026-03-31T15:46:22.999Z</time></trkpt><trkpt lat="45.70652302459028" lon="9.409968542331729"><ele>295.79999999999995</ele><time>2026-03-31T15:46:23.999Z</time></trkpt><trkpt lat="45.70658991997625" lon="9.40987370383598"><ele>297.4</ele><time>2026-03-31T15:46:24.999Z</time></trkpt><trkpt lat="45.70668691969948" lon="9.409774821304701"><ele>299.0</ele><time>2026-03-31T15:46:25.999Z</time></trkpt><trkpt lat="45.706810913802364" lon="9.409695733019882"><ele>299.6666666666667</ele><time>2026-03-31T15:46:26.999Z</time></trkpt><trkpt lat="45.70696398880303" lon="9.409614225978459"><ele>300.3333333333333</ele><time>2026-03-31T15:46:27.999Z</time></trkpt><trkpt lat="45.70710201891558" lon="9.409503306535301"><ele>301.0</ele><time>2026-03-31T15:46:28.999Z</time></trkpt><trkpt lat="45.707226267300356" lon="9.409401369168801"><ele>301.0</ele><time>2026-03-31T15:46:29.999Z</time></trkpt><trkpt lat="45.70732709495911" lon="9.409313317844276"><ele>301.0</ele><time>2026-03-31T15:46:30.999Z</time></trkpt><trkpt lat="45.70740741956981" lon="9.409243663430722"><ele>301.0</ele><time>2026-03-31T15:46:31.999Z</time></trkpt><trkpt lat="45.70749538278226" lon="9.409166454100282"><ele>301.0</ele><time>2026-03-31T15:46:32.999Z</time></trkpt><trkpt lat="45.70759832024132" lon="9.409078277786953"><ele>301.0</ele><time>2026-03-31T15:46:33.999Z</time></trkpt><trkpt lat="45.7077206067796" lon="9.409006119894006"><ele>301.5</ele><time>2026-03-31T15:46:34.999Z</time></trkpt><trkpt lat="45.707820545032526" lon="9.408906391112048"><ele>302.0</ele><time>2026-03-31T15:46:35.999Z</time></trkpt><trkpt lat="45.70791495133932" lon="9.40879772518715"><ele>302.5</ele><time>2026-03-31T15:46:36.999Z</time></trkpt><trkpt lat="45.7079880246698" lon="9.408717861570624"><ele>303.0</ele><time>2026-03-31T15:46:37.999Z</time></trkpt><trkpt lat="45.708090417928474" lon="9.40864268798255"><ele>303.5</ele><time>2026-03-31T15:46:38.999Z</time></trkpt><trkpt lat="45.708209798166216" lon="9.408554133635768"><ele>304.0</ele><time>2026-03-31T15:46:39.999Z</time></trkpt><trkpt lat="45.70830324568656" lon="9.408470070832033"><ele>304.5</ele><time>2026-03-31T15:46:40.999Z</time></trkpt><trkpt lat="45.70841112884377" lon="9.408383715657001"><ele>305.0</ele><time>2026-03-31T15:46:41.999Z</time></trkpt><trkpt lat="45.70852009704604" lon="9.40829132302635"><ele>305.25</ele><time>2026-03-31T15:46:42.999Z</time></trkpt><trkpt lat="45.70862585011778" lon="9.408207604615969"><ele>305.5</ele><time>2026-03-31T15:46:43.999Z</time></trkpt><trkpt lat="45.70875998224258" lon="9.408116972785338"><ele>305.75</ele><time>2026-03-31T15:46:45.999Z</time></trkpt><trkpt lat="45.708841816046906" lon="9.408050466390664"><ele>306.0</ele><time>2026-03-31T15:46:46.999Z</time></trkpt><trkpt lat="45.708914297841496" lon="9.40798277363844"><ele>306.2</ele><time>2026-03-31T15:46:47.999Z</time></trkpt><trkpt lat="45.7089876216846" lon="9.407918830873847"><ele>306.40000000000003</ele><time>2026-03-31T15:46:48.999Z</time></trkpt><trkpt lat="45.709062835812226" lon="9.40786636665208"><ele>306.6</ele><time>2026-03-31T15:46:49.999Z</time></trkpt><trkpt lat="45.70912704843898" lon="9.407819026247457"><ele>306.8</ele><time>2026-03-31T15:46:50.999Z</time></trkpt><trkpt lat="45.70921672286888" lon="9.407743840516256"><ele>307.0</ele><time>2026-03-31T15:46:51.999Z</time></trkpt><trkpt lat="45.70930899832843" lon="9.407665160672536"><ele>307.75</ele><time>2026-03-31T15:46:52.999Z</time></trkpt><trkpt lat="45.7094259578902" lon="9.407558268666826"><ele>308.5</ele><time>2026-03-31T15:46:53.999Z</time></trkpt><trkpt lat="45.70954768922609" lon="9.407448362756817"><ele>309.25</ele><time>2026-03-31T15:46:54.999Z</time></trkpt><trkpt lat="45.709665311699936" lon="9.40735229734723"><ele>310.0</ele><time>2026-03-31T15:46:55.999Z</time></trkpt><trkpt lat="45.709775477144305" lon="9.40725931586191"><ele>310.0</ele><time>2026-03-31T15:46:56.999Z</time></trkpt><trkpt lat="45.70987054481131" lon="9.407202782380123"><ele>310.0</ele><time>2026-03-31T15:46:57.999Z</time></trkpt><trkpt lat="45.709946518950765" lon="9.407163427210548"><ele>310.0</ele><time>2026-03-31T15:46:58.999Z</time></trkpt><trkpt lat="45.70999391298746" lon="9.407094927801927"><ele>310.0</ele><time>2026-03-31T15:46:59.999Z</time></trkpt><trkpt lat="45.71005874733582" lon="9.407045492629239"><ele>310.0</ele><time>2026-03-31T15:47:00.999Z</time></trkpt><trkpt lat="45.7101592134372" lon="9.406973066483667"><ele>310.0</ele><time>2026-03-31T15:47:01.999Z</time></trkpt><trkpt lat="45.71025045627112" lon="9.406888560285834"><ele>309.66666666666663</ele><time>2026-03-31T15:47:02.999Z</time></trkpt><trkpt lat="45.710386397326396" lon="9.406783084887445"><ele>309.3333333333333</ele><time>2026-03-31T15:47:03.999Z</time></trkpt><trkpt lat="45.71055318747233" lon="9.406665423269057"><ele>309.0</ele><time>2026-03-31T15:47:04.999Z</time></trkpt><trkpt lat="45.71066608456323" lon="9.40658914057326"><ele>309.0</ele><time>2026-03-31T15:47:05.999Z</time></trkpt><trkpt lat="45.710792060788236" lon="9.406525223422383"><ele>309.0</ele><time>2026-03-31T15:47:06.999Z</time></trkpt><trkpt lat="45.710905134624056" lon="9.406486504976979"><ele>309.0</ele><time>2026-03-31T15:47:07.999Z</time></trkpt><trkpt lat="45.71101414197236" lon="9.406486807068095"><ele>309.0</ele><time>2026-03-31T15:47:09Z</time></trkpt><trkpt lat="45.7111344603691" lon="9.406497309097375"><ele>308.8</ele><time>2026-03-31T15:47:10Z</time></trkpt><trkpt lat="45.7112343351265" lon="9.406492535719883"><ele>308.59999999999997</ele><time>2026-03-31T15:47:11Z</time></trkpt><trkpt lat="45.711322540919404" lon="9.406442256606713"><ele>308.4</ele><time>2026-03-31T15:47:12Z</time></trkpt><trkpt lat="45.7114179501333" lon="9.406346077557526"><ele>308.2</ele><time>2026-03-31T15:47:13Z</time></trkpt><trkpt lat="45.71153815867197" lon="9.40625597030385"><ele>308.0</ele><time>2026-03-31T15:47:14Z</time></trkpt><trkpt lat="45.71167903389525" lon="9.406190927906739"><ele>306.6666666666667</ele><time>2026-03-31T15:47:15Z</time></trkpt><trkpt lat="45.71184027830461" lon="9.40615932859242"><ele>305.3333333333333</ele><time>2026-03-31T15:47:16Z</time></trkpt><trkpt lat="45.71202467914264" lon="9.406177426448414"><ele>304.0</ele><time>2026-03-31T15:47:17Z</time></trkpt><trkpt lat="45.712230032625044" lon="9.406208542317923"><ele>303.66666666666663</ele><time>2026-03-31T15:47:18Z</time></trkpt><trkpt lat="45.71244751511071" lon="9.406260731783812"><ele>303.3333333333333</ele><time>2026-03-31T15:47:19Z</time></trkpt><trkpt lat="45.712633711695325" lon="9.406329529416197"><ele>303.0</ele><time>2026-03-31T15:47:20Z</time></trkpt><trkpt lat="45.712835121685856" lon="9.406419878287918"><ele>303.0</ele><time>2026-03-31T15:47:21Z</time></trkpt><trkpt lat="45.71303869753147" lon="9.406521746786693"><ele>303.0</ele><time>2026-03-31T15:47:22Z</time></trkpt><trkpt lat="45.713246838999986" lon="9.406619940824331"><ele>303.0</ele><time>2026-03-31T15:47:23Z</time></trkpt><trkpt lat="45.713464875254225" lon="9.406715204063833"><ele>302.0</ele><time>2026-03-31T15:47:24Z</time></trkpt><trkpt lat="45.71366393069577" lon="9.406804784877014"><ele>301.0</ele><time>2026-03-31T15:47:25Z</time></trkpt><trkpt lat="45.71384100438751" lon="9.406920469865035"><ele>300.0</ele><time>2026-03-31T15:47:26Z</time></trkpt><trkpt lat="45.71402228791713" lon="9.406998787405435"><ele>300.0</ele><time>2026-03-31T15:47:27Z</time></trkpt><trkpt lat="45.714220515671954" lon="9.407134801144915"><ele>300.0</ele><time>2026-03-31T15:47:28Z</time></trkpt><trkpt lat="45.7144093681085" lon="9.407283284727644"><ele>300.0</ele><time>2026-03-31T15:47:29Z</time></trkpt><trkpt lat="45.71459644465292" lon="9.407368272194493"><ele>300.3333333333333</ele><time>2026-03-31T15:47:30Z</time></trkpt><trkpt lat="45.71478809984954" lon="9.407449906101409"><ele>300.66666666666663</ele><time>2026-03-31T15:47:31Z</time></trkpt><trkpt lat="45.714983563065275" lon="9.407539559211152"><ele>301.0</ele><time>2026-03-31T15:47:32Z</time></trkpt><trkpt lat="45.715186476701845" lon="9.407635091853644"><ele>300.66666666666663</ele><time>2026-03-31T15:47:33Z</time></trkpt><trkpt lat="45.71537982996754" lon="9.407695518177322"><ele>300.3333333333333</ele><time>2026-03-31T15:47:34Z</time></trkpt><trkpt lat="45.715566761948025" lon="9.407753910717725"><ele>300.0</ele><time>2026-03-31T15:47:35Z</time></trkpt><trkpt lat="45.71574927729963" lon="9.407815554783777"><ele>300.0</ele><time>2026-03-31T15:47:36Z</time></trkpt><trkpt lat="45.71594530150176" lon="9.407883575877673"><ele>300.0</ele><time>2026-03-31T15:47:37Z</time></trkpt><trkpt lat="45.716145433603565" lon="9.407941430536033"><ele>300.0</ele><time>2026-03-31T15:47:38Z</time></trkpt><trkpt lat="45.71633721139801" lon="9.408008412621335"><ele>300.3333333333333</ele><time>2026-03-31T15:47:39Z</time></trkpt><trkpt lat="45.71651856112589" lon="9.408064314267111"><ele>300.66666666666663</ele><time>2026-03-31T15:47:40Z</time></trkpt><trkpt lat="45.71668445637771" lon="9.408117411650444"><ele>301.0</ele><time>2026-03-31T15:47:41Z</time></trkpt><trkpt lat="45.7168342489086" lon="9.408178854804845"><ele>300.0</ele><time>2026-03-31T15:47:42Z</time></trkpt><trkpt lat="45.71696641793796" lon="9.408223397835963"><ele>299.0</ele><time>2026-03-31T15:47:43Z</time></trkpt><trkpt lat="45.717081848601154" lon="9.408260349046156"><ele>298.0</ele><time>2026-03-31T15:47:44Z</time></trkpt><trkpt lat="45.71718563572752" lon="9.408294964577161"><ele>297.0</ele><time>2026-03-31T15:47:45Z</time></trkpt><trkpt lat="45.71729806892008" lon="9.408341936739852"><ele>297.0</ele><time>2026-03-31T15:47:46Z</time></trkpt><trkpt lat="45.71740713828309" lon="9.408410999364214"><ele>297.0</ele><time>2026-03-31T15:47:47Z</time></trkpt><trkpt lat="45.717490208275564" lon="9.408470585716342"><ele>297.0</ele><time>2026-03-31T15:47:48Z</time></trkpt><trkpt lat="45.7175940899301" lon="9.408567859186784"><ele>297.0</ele><time>2026-03-31T15:47:49Z</time></trkpt><trkpt lat="45.71770507134106" lon="9.408713779602381"><ele>297.3333333333333</ele><time>2026-03-31T15:47:50Z</time></trkpt><trkpt lat="45.717830833810936" lon="9.408834145608099"><ele>297.66666666666663</ele><time>2026-03-31T15:47:51Z</time></trkpt><trkpt lat="45.71796560861823" lon="9.408967020795398"><ele>298.0</ele><time>2026-03-31T15:47:52Z</time></trkpt><trkpt lat="45.71808326026823" lon="9.409092933690602"><ele>298.0</ele><time>2026-03-31T15:47:53Z</time></trkpt><trkpt lat="45.71820059653141" lon="9.409221543048364"><ele>298.0</ele><time>2026-03-31T15:47:54Z</time></trkpt><trkpt lat="45.71832041389937" lon="9.40935081334791"><ele>298.0</ele><time>2026-03-31T15:47:55Z</time></trkpt><trkpt lat="45.71846122849588" lon="9.409517953500893"><ele>298.3333333333333</ele><time>2026-03-31T15:47:56Z</time></trkpt><trkpt lat="45.718602753303" lon="9.409666025413685"><ele>298.6666666666667</ele><time>2026-03-31T15:47:57Z</time></trkpt><trkpt lat="45.718732837723195" lon="9.40980140358582"><ele>299.0</ele><time>2026-03-31T15:47:58Z</time></trkpt><trkpt lat="45.71885864530504" lon="9.409917713167314"><ele>299.0</ele><time>2026-03-31T15:47:59Z</time></trkpt><trkpt lat="45.71898278593592" lon="9.410047140274623"><ele>299.0</ele><time>2026-03-31T15:48:00Z</time></trkpt><trkpt lat="45.7191139853223" lon="9.410177519003808"><ele>299.0</ele><time>2026-03-31T15:48:01Z</time></trkpt><trkpt lat="45.71923542465174" lon="9.410306082306287"><ele>299.0</ele><time>2026-03-31T15:48:02Z</time></trkpt><trkpt lat="45.71935434072135" lon="9.410429843278775"><ele>299.0</ele><time>2026-03-31T15:48:03Z</time></trkpt><trkpt lat="45.719474131750886" lon="9.410555272982517"><ele>299.0</ele><time>2026-03-31T15:48:04Z</time></trkpt><trkpt lat="45.719601656332095" lon="9.410690827995476"><ele>298.0</ele><time>2026-03-31T15:48:05Z</time></trkpt><trkpt lat="45.719724615692556" lon="9.410827497929079"><ele>297.0</ele><time>2026-03-31T15:48:06Z</time></trkpt><trkpt lat="45.719848327338426" lon="9.410952493290507"><ele>296.0</ele><time>2026-03-31T15:48:07Z</time></trkpt><trkpt lat="45.71996398625346" lon="9.411090093855297"><ele>296.0</ele><time>2026-03-31T15:48:08Z</time></trkpt><trkpt lat="45.720081453006514" lon="9.411207029520503"><ele>296.0</ele><time>2026-03-31T15:48:09Z</time></trkpt><trkpt lat="45.72019030303291" lon="9.411322514878258"><ele>296.0</ele><time>2026-03-31T15:48:09.999Z</time></trkpt><trkpt lat="45.720284971629525" lon="9.411417987829973"><ele>296.0</ele><time>2026-03-31T15:48:10.999Z</time></trkpt><trkpt lat="45.720374882524204" lon="9.411506800755307"><ele>296.0</ele><time>2026-03-31T15:48:11.999Z</time></trkpt><trkpt lat="45.72046731921402" lon="9.411603705236404"><ele>296.0</ele><time>2026-03-31T15:48:12.999Z</time></trkpt><trkpt lat="45.720572461152166" lon="9.41169598574244"><ele>296.0</ele><time>2026-03-31T15:48:13.999Z</time></trkpt><trkpt lat="45.720647174671285" lon="9.411816034135773"><ele>296.0</ele><time>2026-03-31T15:48:14.999Z</time></trkpt><trkpt lat="45.72073825593871" lon="9.411912474070053"><ele>296.0</ele><time>2026-03-31T15:48:15.999Z</time></trkpt><trkpt lat="45.72085948544648" lon="9.41204072800874"><ele>296.0</ele><time>2026-03-31T15:48:16.999Z</time></trkpt><trkpt lat="45.7209524031112" lon="9.412160641045476"><ele>296.0</ele><time>2026-03-31T15:48:17.999Z</time></trkpt><trkpt lat="45.72104380536534" lon="9.412257272547022"><ele>296.0</ele><time>2026-03-31T15:48:18.999Z</time></trkpt><trkpt lat="45.72112861441198" lon="9.412353353508687"><ele>294.8</ele><time>2026-03-31T15:48:19.999Z</time></trkpt><trkpt lat="45.7212100706715" lon="9.412436398807497"><ele>293.6</ele><time>2026-03-31T15:48:20.999Z</time></trkpt><trkpt lat="45.721282740599754" lon="9.412524497598984"><ele>292.4</ele><time>2026-03-31T15:48:21.999Z</time></trkpt><trkpt lat="45.721295679053725" lon="9.412687627356261"><ele>291.2</ele><time>2026-03-31T15:48:22.999Z</time></trkpt><trkpt lat="45.72141499855475" lon="9.412638542367167"><ele>290.0</ele><time>2026-03-31T15:48:23.999Z</time></trkpt><trkpt lat="45.72149017751757" lon="9.412733080477569"><ele>290.0</ele><time>2026-03-31T15:48:25.999Z</time></trkpt><trkpt lat="45.721570976212874" lon="9.412817668632078"><ele>290.0</ele><time>2026-03-31T15:48:27.999Z</time></trkpt><trkpt lat="45.72162213096341" lon="9.412924064866809"><ele>290.0</ele><time>2026-03-31T15:48:29.999Z</time></trkpt><trkpt lat="45.72165227780105" lon="9.413018310259297"><ele>290.0</ele><time>2026-03-31T15:48:34.999Z</time></trkpt><trkpt lat="45.72168457169599" lon="9.413143228271814"><ele>290.0</ele><time>2026-03-31T15:48:38.999Z</time></trkpt><trkpt lat="45.72171978187515" lon="9.413222956036105"><ele>290.0</ele><time>2026-03-31T15:48:41.999Z</time></trkpt><trkpt lat="45.72179459825388" lon="9.413252969257577"><ele>290.0</ele><time>2026-03-31T15:48:45.999Z</time></trkpt><trkpt lat="45.72186282000836" lon="9.413231139019372"><ele>290.0</ele><time>2026-03-31T15:48:48.999Z</time></trkpt><trkpt lat="45.72192619000305" lon="9.413226716908722"><ele>290.0</ele><time>2026-03-31T15:48:51.999Z</time></trkpt><trkpt lat="45.72201563188808" lon="9.413255993584812"><ele>290.0</ele><time>2026-03-31T15:48:55.999Z</time></trkpt><trkpt lat="45.722074764140274" lon="9.413289877317165"><ele>290.0</ele><time>2026-03-31T15:48:57.999Z</time></trkpt><trkpt lat="45.722148790042986" lon="9.413389266657541"><ele>290.0</ele><time>2026-03-31T15:49:00.999Z</time></trkpt><trkpt lat="45.722199025387646" lon="9.413458025491503"><ele>289.6666666666667</ele><time>2026-03-31T15:49:02.999Z</time></trkpt><trkpt lat="45.72224916477371" lon="9.413540042860431"><ele>289.33333333333337</ele><time>2026-03-31T15:49:04.999Z</time></trkpt><trkpt lat="45.722311232976594" lon="9.413596310964936"><ele>289.0</ele><time>2026-03-31T15:49:06.999Z</time></trkpt><trkpt lat="45.722371653111345" lon="9.4136572241706"><ele>288.6666666666667</ele><time>2026-03-31T15:49:08.999Z</time></trkpt><trkpt lat="45.722426164132045" lon="9.41372447917639"><ele>288.3333333333333</ele><time>2026-03-31T15:49:10.999Z</time></trkpt><trkpt lat="45.722477450235246" lon="9.413800435768199"><ele>288.0</ele><time>2026-03-31T15:49:12.999Z</time></trkpt><trkpt lat="45.72253870350788" lon="9.413875598386737"><ele>288.0</ele><time>2026-03-31T15:49:15Z</time></trkpt><trkpt lat="45.72259001471111" lon="9.41396412309643"><ele>288.0</ele><time>2026-03-31T15:49:17Z</time></trkpt><trkpt lat="45.72266526304736" lon="9.414019370933564"><ele>288.0</ele><time>2026-03-31T15:49:19Z</time></trkpt><trkpt lat="45.72280424366284" lon="9.414108864053828"><ele>288.0</ele><time>2026-03-31T15:49:21Z</time></trkpt><trkpt lat="45.72289492447589" lon="9.414197947967125"><ele>288.0</ele><time>2026-03-31T15:49:22Z</time></trkpt><trkpt lat="45.722972389913984" lon="9.414271645012217"><ele>287.8</ele><time>2026-03-31T15:49:23Z</time></trkpt><trkpt lat="45.723022431607454" lon="9.414341020132698"><ele>287.6</ele><time>2026-03-31T15:49:24Z</time></trkpt><trkpt lat="45.723075910384175" lon="9.414434004173154"><ele>287.4</ele><time>2026-03-31T15:49:25Z</time></trkpt><trkpt lat="45.7232126401122" lon="9.414521386341683"><ele>287.2</ele><time>2026-03-31T15:49:26Z</time></trkpt><trkpt lat="45.7232746733317" lon="9.414601943059846"><ele>287.0</ele><time>2026-03-31T15:49:27Z</time></trkpt><trkpt lat="45.723340330803545" lon="9.414659864079553"><ele>287.0</ele><time>2026-03-31T15:49:28Z</time></trkpt><trkpt lat="45.72341181971465" lon="9.414733554268325"><ele>287.0</ele><time>2026-03-31T15:49:29Z</time></trkpt><trkpt lat="45.72349348422527" lon="9.41482720453584"><ele>287.0</ele><time>2026-03-31T15:49:30Z</time></trkpt><trkpt lat="45.72357360789157" lon="9.414899151324647"><ele>287.0</ele><time>2026-03-31T15:49:31Z</time></trkpt><trkpt lat="45.72363876232887" lon="9.414984098755067"><ele>287.0</ele><time>2026-03-31T15:49:32Z</time></trkpt><trkpt lat="45.72373030442258" lon="9.415053910653304"><ele>286.25</ele><time>2026-03-31T15:49:33Z</time></trkpt><trkpt lat="45.723828352152786" lon="9.415155557164185"><ele>285.5</ele><time>2026-03-31T15:49:34Z</time></trkpt><trkpt lat="45.7239262260476" lon="9.415260924666981"><ele>284.75</ele><time>2026-03-31T15:49:35Z</time></trkpt><trkpt lat="45.724006542852585" lon="9.415358438757282"><ele>284.0</ele><time>2026-03-31T15:49:36Z</time></trkpt><trkpt lat="45.72408820530482" lon="9.415447214116442"><ele>284.0</ele><time>2026-03-31T15:49:37Z</time></trkpt><trkpt lat="45.72415304735602" lon="9.415502255935838"><ele>284.0</ele><time>2026-03-31T15:49:38Z</time></trkpt><trkpt lat="45.72421797560434" lon="9.41555645002771"><ele>284.0</ele><time>2026-03-31T15:49:39Z</time></trkpt><trkpt lat="45.724294953948046" lon="9.41563469857622"><ele>284.0</ele><time>2026-03-31T15:49:40Z</time></trkpt><trkpt lat="45.72440721792521" lon="9.415732963400991"><ele>284.0</ele><time>2026-03-31T15:49:41Z</time></trkpt><trkpt lat="45.72449964670776" lon="9.41581204702517"><ele>284.0</ele><time>2026-03-31T15:49:42Z</time></trkpt><trkpt lat="45.72458321015429" lon="9.415848550587501"><ele>284.0</ele><time>2026-03-31T15:49:44Z</time></trkpt><trkpt lat="45.72463853027906" lon="9.41591217955612"><ele>284.0</ele><time>2026-03-31T15:49:48Z</time></trkpt><trkpt lat="45.72465320313156" lon="9.41600000468533"><ele>284.0</ele><time>2026-03-31T15:49:53Z</time></trkpt><trkpt lat="45.72468282141831" lon="9.41610829033999"><ele>284.0</ele><time>2026-03-31T15:49:58Z</time></trkpt><trkpt lat="45.72475575807789" lon="9.416128391710409"><ele>284.0</ele><time>2026-03-31T15:50:03Z</time></trkpt><trkpt lat="45.72487022837445" lon="9.416194638996917"><ele>284.0</ele><time>2026-03-31T15:50:05Z</time></trkpt><trkpt lat="45.72494182969607" lon="9.41620149104257"><ele>284.0</ele><time>2026-03-31T15:50:06Z</time></trkpt><trkpt lat="45.725150492746856" lon="9.415939651939599"><ele>284.0</ele><time>2026-03-31T15:50:08Z</time></trkpt><trkpt lat="45.7252822906756" lon="9.415884476377517"><ele>283.0</ele><time>2026-03-31T15:50:09Z</time></trkpt><trkpt lat="45.72539435169621" lon="9.415818456237501"><ele>282.0</ele><time>2026-03-31T15:50:10Z</time></trkpt><trkpt lat="45.72548851452216" lon="9.415800683025374"><ele>281.0</ele><time>2026-03-31T15:50:11Z</time></trkpt><trkpt lat="45.725595187549935" lon="9.415766042929214"><ele>280.0</ele><time>2026-03-31T15:50:12Z</time></trkpt><trkpt lat="45.72573569522043" lon="9.4157435606868"><ele>280.0</ele><time>2026-03-31T15:50:13Z</time></trkpt><trkpt lat="45.72585401438969" lon="9.415698640740688"><ele>280.0</ele><time>2026-03-31T15:50:14Z</time></trkpt><trkpt lat="45.72595676596388" lon="9.415664866499066"><ele>280.0</ele><time>2026-03-31T15:50:15Z</time></trkpt><trkpt lat="45.72605678628826" lon="9.41562135487402"><ele>280.0</ele><time>2026-03-31T15:50:15.999Z</time></trkpt><trkpt lat="45.7262585043942" lon="9.415616186608966"><ele>280.2</ele><time>2026-03-31T15:50:17.999Z</time></trkpt><trkpt lat="45.7263575643376" lon="9.415622989598896"><ele>280.4</ele><time>2026-03-31T15:50:18.999Z</time></trkpt><trkpt lat="45.7264561274504" lon="9.415644477951504"><ele>280.6</ele><time>2026-03-31T15:50:19.999Z</time></trkpt><trkpt lat="45.72657716468887" lon="9.415583342886364"><ele>280.8</ele><time>2026-03-31T15:50:20.999Z</time></trkpt><trkpt lat="45.72667773569183" lon="9.415604385366668"><ele>281.0</ele><time>2026-03-31T15:50:21.999Z</time></trkpt><trkpt lat="45.72677685377865" lon="9.415584274035227"><ele>279.0</ele><time>2026-03-31T15:50:22.999Z</time></trkpt><trkpt lat="45.72690308717867" lon="9.415604820628273"><ele>277.0</ele><time>2026-03-31T15:50:23.999Z</time></trkpt><trkpt lat="45.72695138534543" lon="9.415675193732616"><ele>275.0</ele><time>2026-03-31T15:50:24.999Z</time></trkpt><trkpt lat="45.72707869103583" lon="9.415704676007026"><ele>273.0</ele><time>2026-03-31T15:50:25.999Z</time></trkpt><trkpt lat="45.727388063803595" lon="9.415798158023678"><ele>273.0</ele><time>2026-03-31T15:50:26.999Z</time></trkpt><trkpt lat="45.727565768373864" lon="9.415875105223613"><ele>273.0</ele><time>2026-03-31T15:50:27.999Z</time></trkpt><trkpt lat="45.72774239750196" lon="9.415936102175134"><ele>273.0</ele><time>2026-03-31T15:50:28.999Z</time></trkpt><trkpt lat="45.72789828185241" lon="9.41603811382501"><ele>274.3333333333333</ele><time>2026-03-31T15:50:29.999Z</time></trkpt><trkpt lat="45.72803119644594" lon="9.41612518750485"><ele>275.66666666666663</ele><time>2026-03-31T15:50:30.999Z</time></trkpt><trkpt lat="45.72817875438151" lon="9.416277184421162"><ele>277.0</ele><time>2026-03-31T15:50:31.999Z</time></trkpt><trkpt lat="45.72832189965932" lon="9.416383699351538"><ele>277.0</ele><time>2026-03-31T15:50:32.999Z</time></trkpt><trkpt lat="45.72845708808022" lon="9.416452868911051"><ele>277.0</ele><time>2026-03-31T15:50:33.999Z</time></trkpt><trkpt lat="45.72858776298444" lon="9.41657988860572"><ele>277.0</ele><time>2026-03-31T15:50:34.999Z</time></trkpt><trkpt lat="45.728715960763516" lon="9.416743890896566"><ele>273.3333333333333</ele><time>2026-03-31T15:50:35.999Z</time></trkpt><trkpt lat="45.72884066566153" lon="9.41692350983403"><ele>269.6666666666667</ele><time>2026-03-31T15:50:36.999Z</time></trkpt><trkpt lat="45.72894432219493" lon="9.417100474358573"><ele>266.0</ele><time>2026-03-31T15:50:37.999Z</time></trkpt><trkpt lat="45.729046445874" lon="9.417299971167921"><ele>266.0</ele><time>2026-03-31T15:50:38.999Z</time></trkpt><trkpt lat="45.72916475199962" lon="9.417474861979128"><ele>266.0</ele><time>2026-03-31T15:50:39.999Z</time></trkpt><trkpt lat="45.72929549654535" lon="9.417635380872742"><ele>266.0</ele><time>2026-03-31T15:50:40.999Z</time></trkpt><trkpt lat="45.729431885114685" lon="9.417793198580224"><ele>265.0</ele><time>2026-03-31T15:50:41.999Z</time></trkpt><trkpt lat="45.72956498149998" lon="9.417931849547088"><ele>264.0</ele><time>2026-03-31T15:50:42.999Z</time></trkpt><trkpt lat="45.72971327124537" lon="9.41807566417966"><ele>263.0</ele><time>2026-03-31T15:50:43.999Z</time></trkpt><trkpt lat="45.72987824345439" lon="9.418229418294152"><ele>263.0</ele><time>2026-03-31T15:50:44.999Z</time></trkpt><trkpt lat="45.7300202084555" lon="9.418364384304788"><ele>263.0</ele><time>2026-03-31T15:50:45.999Z</time></trkpt><trkpt lat="45.73016195890954" lon="9.41849373049218"><ele>263.0</ele><time>2026-03-31T15:50:46.999Z</time></trkpt><trkpt lat="45.7302957011978" lon="9.41863805634919"><ele>262.33333333333337</ele><time>2026-03-31T15:50:47.999Z</time></trkpt><trkpt lat="45.73043672102664" lon="9.41878143094409"><ele>261.6666666666667</ele><time>2026-03-31T15:50:48.999Z</time></trkpt><trkpt lat="45.730582346661826" lon="9.418933406784713"><ele>261.0</ele><time>2026-03-31T15:50:49.999Z</time></trkpt><trkpt lat="45.7307125205546" lon="9.419025766443507"><ele>261.0</ele><time>2026-03-31T15:50:50.999Z</time></trkpt><trkpt lat="45.73084274887162" lon="9.41917005671375"><ele>261.0</ele><time>2026-03-31T15:50:51.999Z</time></trkpt><trkpt lat="45.730981679516894" lon="9.41930784522804"><ele>261.0</ele><time>2026-03-31T15:50:52.999Z</time></trkpt><trkpt lat="45.731131351373676" lon="9.419451552747116"><ele>260.3333333333333</ele><time>2026-03-31T15:50:53.999Z</time></trkpt><trkpt lat="45.73126382951893" lon="9.41958803805245"><ele>259.66666666666663</ele><time>2026-03-31T15:50:54.999Z</time></trkpt><trkpt lat="45.731386235348324" lon="9.419691776396924"><ele>259.0</ele><time>2026-03-31T15:50:55.999Z</time></trkpt><trkpt lat="45.731503527246744" lon="9.419812352164833"><ele>259.0</ele><time>2026-03-31T15:50:56.999Z</time></trkpt><trkpt lat="45.73162457270613" lon="9.419924808013201"><ele>259.0</ele><time>2026-03-31T15:50:57.999Z</time></trkpt><trkpt lat="45.73176329758637" lon="9.420018439995678"><ele>259.0</ele><time>2026-03-31T15:50:58.999Z</time></trkpt><trkpt lat="45.73184903114607" lon="9.420042771779558"><ele>259.0</ele><time>2026-03-31T15:50:59.999Z</time></trkpt><trkpt lat="45.73196652784391" lon="9.420057113620961"><ele>257.75</ele><time>2026-03-31T15:51:00.999Z</time></trkpt><trkpt lat="45.73208482998781" lon="9.420059160935152"><ele>256.5</ele><time>2026-03-31T15:51:01.999Z</time></trkpt><trkpt lat="45.73217263490413" lon="9.420020772978098"><ele>255.25</ele><time>2026-03-31T15:51:02.999Z</time></trkpt><trkpt lat="45.73226665499039" lon="9.420195551717626"><ele>254.0</ele><time>2026-03-31T15:51:04.999Z</time></trkpt><trkpt lat="45.7323342253954" lon="9.420332310253237"><ele>255.25</ele><time>2026-03-31T15:51:05.999Z</time></trkpt><trkpt lat="45.73240607178226" lon="9.420508620259861"><ele>256.5</ele><time>2026-03-31T15:51:06.999Z</time></trkpt><trkpt lat="45.73244448990252" lon="9.420691582758666"><ele>257.75</ele><time>2026-03-31T15:51:07.999Z</time></trkpt><trkpt lat="45.732449323832675" lon="9.420838225258581"><ele>259.0</ele><time>2026-03-31T15:51:08.999Z</time></trkpt><trkpt lat="45.73246049998082" lon="9.421018916975443"><ele>259.0</ele><time>2026-03-31T15:51:09.999Z</time></trkpt><trkpt lat="45.732476451515794" lon="9.421225468177822"><ele>259.0</ele><time>2026-03-31T15:51:10.999Z</time></trkpt><trkpt lat="45.73250698935991" lon="9.421482862242609"><ele>259.0</ele><time>2026-03-31T15:51:11.999Z</time></trkpt><trkpt lat="45.73253218621832" lon="9.421689946958729"><ele>259.5</ele><time>2026-03-31T15:51:12.999Z</time></trkpt><trkpt lat="45.73257566961476" lon="9.42189436934413"><ele>260.0</ele><time>2026-03-31T15:51:13.999Z</time></trkpt><trkpt lat="45.732588513006064" lon="9.422096731473621"><ele>260.5</ele><time>2026-03-31T15:51:14.999Z</time></trkpt><trkpt lat="45.732623616498316" lon="9.422268403081143"><ele>261.0</ele><time>2026-03-31T15:51:15.999Z</time></trkpt><trkpt lat="45.732615546130596" lon="9.422513606013883"><ele>261.0</ele><time>2026-03-31T15:51:16.999Z</time></trkpt><trkpt lat="45.732691115906874" lon="9.422579041885236"><ele>261.0</ele><time>2026-03-31T15:51:18.999Z</time></trkpt><trkpt lat="45.73263993057874" lon="9.422636710662244"><ele>261.0</ele><time>2026-03-31T15:51:21Z</time></trkpt><trkpt lat="45.732633440487085" lon="9.4227393624607"><ele>261.0</ele><time>2026-03-31T15:51:22Z</time></trkpt><trkpt lat="45.73267283305363" lon="9.422811062094405"><ele>261.0</ele><time>2026-03-31T15:51:24Z</time></trkpt><trkpt lat="45.732669500871516" lon="9.422951918954137"><ele>261.0</ele><time>2026-03-31T15:51:25Z</time></trkpt><trkpt lat="45.73270281978929" lon="9.423110869582066"><ele>255.66666666666669</ele><time>2026-03-31T15:51:26Z</time></trkpt><trkpt lat="45.732737216702155" lon="9.423340775503142"><ele>250.33333333333334</ele><time>2026-03-31T15:51:27Z</time></trkpt><trkpt lat="45.732781051501" lon="9.423537846141231"><ele>245.0</ele><time>2026-03-31T15:51:28Z</time></trkpt><trkpt lat="45.73279126433076" lon="9.423757326145056"><ele>244.33333333333334</ele><time>2026-03-31T15:51:29Z</time></trkpt><trkpt lat="45.732805411761746" lon="9.42401249210038"><ele>243.66666666666669</ele><time>2026-03-31T15:51:30Z</time></trkpt><trkpt lat="45.7328089234211" lon="9.424234855394012"><ele>243.0</ele><time>2026-03-31T15:51:31Z</time></trkpt><trkpt lat="45.73283667057213" lon="9.424461018428792"><ele>241.66666666666669</ele><time>2026-03-31T15:51:32Z</time></trkpt><trkpt lat="45.73288247567781" lon="9.424655671495552"><ele>240.33333333333334</ele><time>2026-03-31T15:51:33Z</time></trkpt><trkpt lat="45.73297514317889" lon="9.424859900424167"><ele>239.0</ele><time>2026-03-31T15:51:34Z</time></trkpt><trkpt lat="45.73305375638474" lon="9.425058486300196"><ele>239.0</ele><time>2026-03-31T15:51:35Z</time></trkpt><trkpt lat="45.73310237304091" lon="9.425258496480692"><ele>239.0</ele><time>2026-03-31T15:51:36Z</time></trkpt><trkpt lat="45.7331028177916" lon="9.425440572955447"><ele>239.0</ele><time>2026-03-31T15:51:37Z</time></trkpt><trkpt lat="45.733099280517" lon="9.425651779828218"><ele>239.0</ele><time>2026-03-31T15:51:38Z</time></trkpt><trkpt lat="45.73308908089957" lon="9.42585625616696"><ele>238.2</ele><time>2026-03-31T15:51:39Z</time></trkpt><trkpt lat="45.73310388306253" lon="9.426007997101038"><ele>237.39999999999998</ele><time>2026-03-31T15:51:40Z</time></trkpt><trkpt lat="45.73315796523571" lon="9.426146552169708"><ele>236.6</ele><time>2026-03-31T15:51:41Z</time></trkpt><trkpt lat="45.73322289249666" lon="9.426235465317781"><ele>235.8</ele><time>2026-03-31T15:51:42Z</time></trkpt><trkpt lat="45.73331920439802" lon="9.426296314780041"><ele>235.0</ele><time>2026-03-31T15:51:43Z</time></trkpt><trkpt lat="45.73344375615019" lon="9.426353533140439"><ele>234.33333333333331</ele><time>2026-03-31T15:51:44Z</time></trkpt><trkpt lat="45.73354953148424" lon="9.426395063564943"><ele>233.66666666666666</ele><time>2026-03-31T15:51:45Z</time></trkpt><trkpt lat="45.73364427254711" lon="9.42643236195189"><ele>233.0</ele><time>2026-03-31T15:51:46Z</time></trkpt><trkpt lat="45.73371805505679" lon="9.426484612053757"><ele>232.33333333333331</ele><time>2026-03-31T15:51:47Z</time></trkpt><trkpt lat="45.733794383229295" lon="9.42650395502703"><ele>231.66666666666666</ele><time>2026-03-31T15:51:48Z</time></trkpt><trkpt lat="45.73385858392723" lon="9.426541506754178"><ele>231.0</ele><time>2026-03-31T15:51:49Z</time></trkpt><trkpt lat="45.73393081853953" lon="9.426595982724173"><ele>230.8</ele><time>2026-03-31T15:51:50Z</time></trkpt><trkpt lat="45.73399609771643" lon="9.426628862398951"><ele>230.60000000000002</ele><time>2026-03-31T15:51:51Z</time></trkpt><trkpt lat="45.73406356902557" lon="9.426703317652189"><ele>230.4</ele><time>2026-03-31T15:51:52Z</time></trkpt><trkpt lat="45.734146804043334" lon="9.426744390116447"><ele>230.2</ele><time>2026-03-31T15:51:53Z</time></trkpt><trkpt lat="45.73424050375429" lon="9.426869725619616"><ele>230.0</ele><time>2026-03-31T15:51:55Z</time></trkpt><trkpt lat="45.73430857614875" lon="9.426938333366541"><ele>230.0</ele><time>2026-03-31T15:51:57Z</time></trkpt><trkpt lat="45.734382749280364" lon="9.427051786117577"><ele>230.0</ele><time>2026-03-31T15:51:59Z</time></trkpt><trkpt lat="45.73443707994037" lon="9.427145268290303"><ele>230.0</ele><time>2026-03-31T15:52:00Z</time></trkpt><trkpt lat="45.73442204298228" lon="9.427265948938073"><ele>230.0</ele><time>2026-03-31T15:52:01Z</time></trkpt><trkpt lat="45.73442181699309" lon="9.427376311298207"><ele>230.0</ele><time>2026-03-31T15:52:02Z</time></trkpt><trkpt lat="45.73442169625817" lon="9.42751324503326"><ele>230.0</ele><time>2026-03-31T15:52:03Z</time></trkpt><trkpt lat="45.7344147995262" lon="9.4276767137007"><ele>230.0</ele><time>2026-03-31T15:52:04Z</time></trkpt><trkpt lat="45.73441114756626" lon="9.427822709825977"><ele>230.0</ele><time>2026-03-31T15:52:05Z</time></trkpt><trkpt lat="45.73438619765921" lon="9.427967859447227"><ele>230.0</ele><time>2026-03-31T15:52:06Z</time></trkpt><trkpt lat="45.734357239995916" lon="9.428156927482425"><ele>230.33333333333334</ele><time>2026-03-31T15:52:07Z</time></trkpt><trkpt lat="45.734324331027466" lon="9.428354712880873"><ele>230.66666666666669</ele><time>2026-03-31T15:52:08Z</time></trkpt><trkpt lat="45.734288604142066" lon="9.428573717481164"><ele>231.0</ele><time>2026-03-31T15:52:09Z</time></trkpt><trkpt lat="45.73427630501943" lon="9.428789632876867"><ele>231.0</ele><time>2026-03-31T15:52:10Z</time></trkpt><trkpt lat="45.73425320654931" lon="9.428997513669483"><ele>231.0</ele><time>2026-03-31T15:52:11Z</time></trkpt><trkpt lat="45.73421654249615" lon="9.42922511299826"><ele>231.0</ele><time>2026-03-31T15:52:12Z</time></trkpt><trkpt lat="45.734198651445006" lon="9.429433238968157"><ele>231.0</ele><time>2026-03-31T15:52:13Z</time></trkpt><trkpt lat="45.734212440539935" lon="9.429609823267594"><ele>231.0</ele><time>2026-03-31T15:52:14Z</time></trkpt><trkpt lat="45.7342287619376" lon="9.429819155657574"><ele>231.0</ele><time>2026-03-31T15:52:15Z</time></trkpt><trkpt lat="45.73425742630915" lon="9.43004821147452"><ele>231.0</ele><time>2026-03-31T15:52:16Z</time></trkpt><trkpt lat="45.73428016918871" lon="9.430293895982407"><ele>230.0</ele><time>2026-03-31T15:52:17Z</time></trkpt><trkpt lat="45.734325406235726" lon="9.430511797309073"><ele>229.0</ele><time>2026-03-31T15:52:18Z</time></trkpt><trkpt lat="45.73437219732283" lon="9.430743129021137"><ele>228.0</ele><time>2026-03-31T15:52:19Z</time></trkpt><trkpt lat="45.73442623572289" lon="9.430967427193803"><ele>227.5</ele><time>2026-03-31T15:52:20Z</time></trkpt><trkpt lat="45.73447739153033" lon="9.431163210557902"><ele>227.0</ele><time>2026-03-31T15:52:21Z</time></trkpt><trkpt lat="45.73453499677467" lon="9.431320713713335"><ele>226.5</ele><time>2026-03-31T15:52:22Z</time></trkpt><trkpt lat="45.7345807405431" lon="9.431479684189073"><ele>226.0</ele><time>2026-03-31T15:52:22.999Z</time></trkpt><trkpt lat="45.7346268024193" lon="9.431649833916904"><ele>226.0</ele><time>2026-03-31T15:52:23.999Z</time></trkpt><trkpt lat="45.734684805611124" lon="9.431832885360704"><ele>226.0</ele><time>2026-03-31T15:52:24.999Z</time></trkpt><trkpt lat="45.73474504853429" lon="9.431991728770663"><ele>226.0</ele><time>2026-03-31T15:52:25.999Z</time></trkpt><trkpt lat="45.73480948668534" lon="9.432169768107936"><ele>226.0</ele><time>2026-03-31T15:52:26.999Z</time></trkpt><trkpt lat="45.73487164800675" lon="9.432405905483398"><ele>226.0</ele><time>2026-03-31T15:52:27.999Z</time></trkpt><trkpt lat="45.73492749414722" lon="9.432546613909766"><ele>226.0</ele><time>2026-03-31T15:52:28.999Z</time></trkpt><trkpt lat="45.73498287085231" lon="9.432703723876575"><ele>226.0</ele><time>2026-03-31T15:52:29.999Z</time></trkpt><trkpt lat="45.735022309872946" lon="9.432832551816519"><ele>226.0</ele><time>2026-03-31T15:52:30.999Z</time></trkpt><trkpt lat="45.73507871540791" lon="9.432983756077325"><ele>226.0</ele><time>2026-03-31T15:52:31.999Z</time></trkpt><trkpt lat="45.73512714510494" lon="9.433138520016422"><ele>226.0</ele><time>2026-03-31T15:52:32.999Z</time></trkpt><trkpt lat="45.73517981829813" lon="9.4332995865393"><ele>226.0</ele><time>2026-03-31T15:52:33.999Z</time></trkpt><trkpt lat="45.73523087424831" lon="9.433446478295762"><ele>226.0</ele><time>2026-03-31T15:52:34.999Z</time></trkpt><trkpt lat="45.735280965229755" lon="9.433598302811722"><ele>225.20000000000002</ele><time>2026-03-31T15:52:35.999Z</time></trkpt><trkpt lat="45.735319849889684" lon="9.433744800648826"><ele>224.40000000000003</ele><time>2026-03-31T15:52:36.999Z</time></trkpt><trkpt lat="45.735369026345246" lon="9.433894756360479"><ele>223.6</ele><time>2026-03-31T15:52:37.999Z</time></trkpt><trkpt lat="45.73542520430104" lon="9.434033327738089"><ele>222.8</ele><time>2026-03-31T15:52:38.999Z</time></trkpt><trkpt lat="45.73548461773746" lon="9.43415633593793"><ele>222.0</ele><time>2026-03-31T15:52:39.999Z</time></trkpt><trkpt lat="45.73553846811007" lon="9.434280748389437"><ele>222.0</ele><time>2026-03-31T15:52:40.999Z</time></trkpt><trkpt lat="45.73558850858199" lon="9.434394580261197"><ele>222.0</ele><time>2026-03-31T15:52:41.999Z</time></trkpt><trkpt lat="45.73563713170455" lon="9.434533003485212"><ele>222.0</ele><time>2026-03-31T15:52:42.999Z</time></trkpt><trkpt lat="45.73568860701785" lon="9.434679568623471"><ele>222.0</ele><time>2026-03-31T15:52:43.999Z</time></trkpt><trkpt lat="45.73573616543709" lon="9.43479776699922"><ele>222.0</ele><time>2026-03-31T15:52:44.999Z</time></trkpt><trkpt lat="45.73580054021681" lon="9.434919804564144"><ele>222.75</ele><time>2026-03-31T15:52:45.999Z</time></trkpt><trkpt lat="45.73587040485675" lon="9.435054863022721"><ele>223.5</ele><time>2026-03-31T15:52:46.999Z</time></trkpt><trkpt lat="45.73594578354087" lon="9.435208076925505"><ele>224.25</ele><time>2026-03-31T15:52:47.999Z</time></trkpt><trkpt lat="45.73603423043086" lon="9.435344075920268"><ele>225.0</ele><time>2026-03-31T15:52:48.999Z</time></trkpt><trkpt lat="45.73614253687605" lon="9.435481508663612"><ele>225.75</ele><time>2026-03-31T15:52:49.999Z</time></trkpt><trkpt lat="45.73625414010911" lon="9.435606569879502"><ele>226.5</ele><time>2026-03-31T15:52:50.999Z</time></trkpt><trkpt lat="45.736368673379914" lon="9.43574038220251"><ele>227.25</ele><time>2026-03-31T15:52:51.999Z</time></trkpt><trkpt lat="45.73647663691495" lon="9.435852148062546"><ele>228.0</ele><time>2026-03-31T15:52:52.999Z</time></trkpt><trkpt lat="45.736581915555725" lon="9.435963400398355"><ele>228.0</ele><time>2026-03-31T15:52:53.999Z</time></trkpt><trkpt lat="45.73667989844193" lon="9.436029497608715"><ele>228.0</ele><time>2026-03-31T15:52:54.999Z</time></trkpt><trkpt lat="45.73680616944" lon="9.43612066279702"><ele>228.0</ele><time>2026-03-31T15:52:55.999Z</time></trkpt><trkpt lat="45.73688947357115" lon="9.436239198855096"><ele>228.0</ele><time>2026-03-31T15:52:56.999Z</time></trkpt><trkpt lat="45.73701865020604" lon="9.43630301714794"><ele>229.25</ele><time>2026-03-31T15:52:57.999Z</time></trkpt><trkpt lat="45.73713814310419" lon="9.436329491799556"><ele>230.5</ele><time>2026-03-31T15:52:58.999Z</time></trkpt><trkpt lat="45.73726223263678" lon="9.436380350541857"><ele>231.75</ele><time>2026-03-31T15:52:59.999Z</time></trkpt><trkpt lat="45.73738111218634" lon="9.43644735227521"><ele>233.0</ele><time>2026-03-31T15:53:00.999Z</time></trkpt><trkpt lat="45.73753718841542" lon="9.43646433659597"><ele>233.0</ele><time>2026-03-31T15:53:01.999Z</time></trkpt><trkpt lat="45.73765751267946" lon="9.436519880957736"><ele>233.0</ele><time>2026-03-31T15:53:02.999Z</time></trkpt><trkpt lat="45.737792529119076" lon="9.436579547470114"><ele>233.0</ele><time>2026-03-31T15:53:03.999Z</time></trkpt><trkpt lat="45.737913708516935" lon="9.436632275298788"><ele>233.0</ele><time>2026-03-31T15:53:04.999Z</time></trkpt><trkpt lat="45.73805530767538" lon="9.436718403584884"><ele>231.75</ele><time>2026-03-31T15:53:05.999Z</time></trkpt><trkpt lat="45.73823219833722" lon="9.43676484448622"><ele>230.5</ele><time>2026-03-31T15:53:06.999Z</time></trkpt><trkpt lat="45.73835405957965" lon="9.436807140392514"><ele>229.25</ele><time>2026-03-31T15:53:07.999Z</time></trkpt><trkpt lat="45.738487829683564" lon="9.436857216616025"><ele>228.0</ele><time>2026-03-31T15:53:08.999Z</time></trkpt><trkpt lat="45.73861713399583" lon="9.436923280444331"><ele>228.0</ele><time>2026-03-31T15:53:09.999Z</time></trkpt><trkpt lat="45.73877685750064" lon="9.436988899204652"><ele>228.0</ele><time>2026-03-31T15:53:10.999Z</time></trkpt><trkpt lat="45.73891160473685" lon="9.43704744828515"><ele>228.0</ele><time>2026-03-31T15:53:11.999Z</time></trkpt><trkpt lat="45.739038078497586" lon="9.437094867223037"><ele>228.0</ele><time>2026-03-31T15:53:12.999Z</time></trkpt><trkpt lat="45.73915267161718" lon="9.437184203457427"><ele>228.0</ele><time>2026-03-31T15:53:13.999Z</time></trkpt><trkpt lat="45.73927500842024" lon="9.437232892670261"><ele>228.0</ele><time>2026-03-31T15:53:14.999Z</time></trkpt><trkpt lat="45.739387381932204" lon="9.437283251181954"><ele>228.0</ele><time>2026-03-31T15:53:15.999Z</time></trkpt><trkpt lat="45.73949258775095" lon="9.43732864637319"><ele>228.0</ele><time>2026-03-31T15:53:16.999Z</time></trkpt><trkpt lat="45.73960483756871" lon="9.43737843411296"><ele>227.75</ele><time>2026-03-31T15:53:17.999Z</time></trkpt><trkpt lat="45.73973118720619" lon="9.437434315079573"><ele>227.5</ele><time>2026-03-31T15:53:18.999Z</time></trkpt><trkpt lat="45.73987777076577" lon="9.437512763824156"><ele>227.25</ele><time>2026-03-31T15:53:19.999Z</time></trkpt><trkpt lat="45.74000654987431" lon="9.437573864483165"><ele>227.0</ele><time>2026-03-31T15:53:20.999Z</time></trkpt><trkpt lat="45.74012971328489" lon="9.437631018552374"><ele>225.75</ele><time>2026-03-31T15:53:21.999Z</time></trkpt><trkpt lat="45.74026817028071" lon="9.437669025661373"><ele>224.5</ele><time>2026-03-31T15:53:22.999Z</time></trkpt><trkpt lat="45.74038444072014" lon="9.43770716307819"><ele>223.25</ele><time>2026-03-31T15:53:23.999Z</time></trkpt><trkpt lat="45.74051507920645" lon="9.437780992931135"><ele>222.0</ele><time>2026-03-31T15:53:24.999Z</time></trkpt><trkpt lat="45.740641834215495" lon="9.437900142491575"><ele>220.66666666666669</ele><time>2026-03-31T15:53:25.999Z</time></trkpt><trkpt lat="45.740768321429144" lon="9.438016465666314"><ele>219.33333333333334</ele><time>2026-03-31T15:53:27Z</time></trkpt><trkpt lat="45.74091816074549" lon="9.438164329571789"><ele>218.0</ele><time>2026-03-31T15:53:28Z</time></trkpt><trkpt lat="45.7410760375346" lon="9.438326949335528"><ele>218.0</ele><time>2026-03-31T15:53:29Z</time></trkpt><trkpt lat="45.74128770911852" lon="9.438474648648622"><ele>218.0</ele><time>2026-03-31T15:53:30Z</time></trkpt><trkpt lat="45.74146471416769" lon="9.438625639616312"><ele>218.0</ele><time>2026-03-31T15:53:31Z</time></trkpt><trkpt lat="45.74166610407367" lon="9.43879114622814"><ele>220.0</ele><time>2026-03-31T15:53:32Z</time></trkpt><trkpt lat="45.74185083696681" lon="9.438984471044371"><ele>222.0</ele><time>2026-03-31T15:53:33Z</time></trkpt><trkpt lat="45.742045267075575" lon="9.439164385294298"><ele>222.0</ele><time>2026-03-31T15:53:34Z</time></trkpt><trkpt lat="45.742229550355475" lon="9.439319872385752"><ele>222.0</ele><time>2026-03-31T15:53:35Z</time></trkpt><trkpt lat="45.742391253550394" lon="9.439471861439603"><ele>222.0</ele><time>2026-03-31T15:53:36Z</time></trkpt><trkpt lat="45.74255133085043" lon="9.439614207017899"><ele>223.66666666666669</ele><time>2026-03-31T15:53:37Z</time></trkpt><trkpt lat="45.74271586508077" lon="9.439754326920312"><ele>225.33333333333334</ele><time>2026-03-31T15:53:38Z</time></trkpt><trkpt lat="45.74283758648145" lon="9.439902657409593"><ele>227.0</ele><time>2026-03-31T15:53:39Z</time></trkpt><trkpt lat="45.742933214789346" lon="9.440079889000302"><ele>227.0</ele><time>2026-03-31T15:53:40Z</time></trkpt><trkpt lat="45.74301905207217" lon="9.440297538752297"><ele>227.0</ele><time>2026-03-31T15:53:41Z</time></trkpt><trkpt lat="45.74307588916816" lon="9.440572435532411"><ele>227.0</ele><time>2026-03-31T15:53:42Z</time></trkpt><trkpt lat="45.74311489894928" lon="9.44086435019715"><ele>226.5</ele><time>2026-03-31T15:53:43Z</time></trkpt><trkpt lat="45.74317206133368" lon="9.441169816944806"><ele>226.0</ele><time>2026-03-31T15:53:44Z</time></trkpt><trkpt lat="45.7432227508651" lon="9.441533700567435"><ele>225.66666666666666</ele><time>2026-03-31T15:53:45Z</time></trkpt><trkpt lat="45.743282321767495" lon="9.441862240013068"><ele>225.33333333333331</ele><time>2026-03-31T15:53:46Z</time></trkpt><trkpt lat="45.743354614588974" lon="9.442148568800807"><ele>225.0</ele><time>2026-03-31T15:53:47Z</time></trkpt><trkpt lat="45.74341082810727" lon="9.442431690402238"><ele>224.66666666666669</ele><time>2026-03-31T15:53:48Z</time></trkpt><trkpt lat="45.743466140291005" lon="9.442706666735479"><ele>224.33333333333334</ele><time>2026-03-31T15:53:49Z</time></trkpt><trkpt lat="45.74353022166655" lon="9.442962155540936"><ele>224.0</ele><time>2026-03-31T15:53:50Z</time></trkpt><trkpt lat="45.7435633248772" lon="9.44317542118325"><ele>223.5</ele><time>2026-03-31T15:53:51Z</time></trkpt><trkpt lat="45.74356855572809" lon="9.443357556739967"><ele>223.0</ele><time>2026-03-31T15:53:52Z</time></trkpt><trkpt lat="45.74355923930984" lon="9.443552145471811"><ele>222.5</ele><time>2026-03-31T15:53:53Z</time></trkpt><trkpt lat="45.743512511775144" lon="9.443730689530186"><ele>222.0</ele><time>2026-03-31T15:53:54Z</time></trkpt><trkpt lat="45.743427175122385" lon="9.44393295890859"><ele>220.33333333333331</ele><time>2026-03-31T15:53:55Z</time></trkpt><trkpt lat="45.74334168391501" lon="9.444140045039665"><ele>218.66666666666666</ele><time>2026-03-31T15:53:56Z</time></trkpt><trkpt lat="45.74324969117723" lon="9.444338937078825"><ele>217.0</ele><time>2026-03-31T15:53:57Z</time></trkpt><trkpt lat="45.7431490647913" lon="9.444496037353035"><ele>215.33333333333331</ele><time>2026-03-31T15:53:58Z</time></trkpt><trkpt lat="45.74305418196737" lon="9.444665355011537"><ele>213.66666666666669</ele><time>2026-03-31T15:53:59Z</time></trkpt><trkpt lat="45.74296794696105" lon="9.444839820557341"><ele>212.0</ele><time>2026-03-31T15:54:00Z</time></trkpt><trkpt lat="45.7428726064629" lon="9.445010718970376"><ele>212.0</ele><time>2026-03-31T15:54:01Z</time></trkpt><trkpt lat="45.742793330170656" lon="9.445165199196524"><ele>212.0</ele><time>2026-03-31T15:54:02Z</time></trkpt><trkpt lat="45.74272581059189" lon="9.445270041556379"><ele>212.0</ele><time>2026-03-31T15:54:03Z</time></trkpt><trkpt lat="45.74266074146404" lon="9.44536214838031"><ele>212.0</ele><time>2026-03-31T15:54:04Z</time></trkpt><trkpt lat="45.74258196732298" lon="9.44542676227141"><ele>212.0</ele><time>2026-03-31T15:54:05Z</time></trkpt><trkpt lat="45.74251640071515" lon="9.445491984225134"><ele>211.71428571428572</ele><time>2026-03-31T15:54:06Z</time></trkpt><trkpt lat="45.7424568716856" lon="9.445529714008202"><ele>211.42857142857142</ele><time>2026-03-31T15:54:07Z</time></trkpt><trkpt lat="45.74238234338618" lon="9.445560484757996"><ele>211.14285714285714</ele><time>2026-03-31T15:54:08Z</time></trkpt><trkpt lat="45.7423066104356" lon="9.44557215619019"><ele>210.85714285714286</ele><time>2026-03-31T15:54:09Z</time></trkpt><trkpt lat="45.74224209519685" lon="9.44556125110666"><ele>210.57142857142856</ele><time>2026-03-31T15:54:10Z</time></trkpt><trkpt lat="45.74215436758632" lon="9.445529773525505"><ele>210.28571428571428</ele><time>2026-03-31T15:54:11Z</time></trkpt><trkpt lat="45.742083525802194" lon="9.445496633054328"><ele>210.0</ele><time>2026-03-31T15:54:12Z</time></trkpt><trkpt lat="45.74201780257695" lon="9.445503055874928"><ele>210.0</ele><time>2026-03-31T15:54:13Z</time></trkpt><trkpt lat="45.74194273682653" lon="9.44558203577501"><ele>210.0</ele><time>2026-03-31T15:54:14Z</time></trkpt><trkpt lat="45.74187333075665" lon="9.445656255897937"><ele>210.0</ele><time>2026-03-31T15:54:15Z</time></trkpt><trkpt lat="45.74178106555204" lon="9.445680448394667"><ele>210.0</ele><time>2026-03-31T15:54:16Z</time></trkpt><trkpt lat="45.74169053122758" lon="9.445688581010685"><ele>210.0</ele><time>2026-03-31T15:54:17Z</time></trkpt><trkpt lat="45.74159374894298" lon="9.44571177351241"><ele>209.4</ele><time>2026-03-31T15:54:18Z</time></trkpt><trkpt lat="45.74150183005377" lon="9.445740611699334"><ele>208.8</ele><time>2026-03-31T15:54:19Z</time></trkpt><trkpt lat="45.741404554460864" lon="9.445742380390291"><ele>208.2</ele><time>2026-03-31T15:54:20Z</time></trkpt><trkpt lat="45.7413083921353" lon="9.445739106723087"><ele>207.6</ele><time>2026-03-31T15:54:21Z</time></trkpt><trkpt lat="45.74122288620215" lon="9.445763943877115"><ele>207.0</ele><time>2026-03-31T15:54:22Z</time></trkpt><trkpt lat="45.74114106310952" lon="9.445786969262308"><ele>207.0</ele><time>2026-03-31T15:54:23Z</time></trkpt><trkpt lat="45.74104962228301" lon="9.445811008999172"><ele>207.0</ele><time>2026-03-31T15:54:24Z</time></trkpt><trkpt lat="45.74094368874036" lon="9.445851872904768"><ele>207.0</ele><time>2026-03-31T15:54:25Z</time></trkpt><trkpt lat="45.74083040330833" lon="9.445870470973414"><ele>207.0</ele><time>2026-03-31T15:54:26Z</time></trkpt><trkpt lat="45.74070463928632" lon="9.445926125287038"><ele>207.0</ele><time>2026-03-31T15:54:27Z</time></trkpt><trkpt lat="45.740586824828384" lon="9.445993158068752"><ele>208.25</ele><time>2026-03-31T15:54:28Z</time></trkpt><trkpt lat="45.740489011925355" lon="9.446087035933516"><ele>209.5</ele><time>2026-03-31T15:54:29Z</time></trkpt><trkpt lat="45.7403606860574" lon="9.446155827282544"><ele>210.75</ele><time>2026-03-31T15:54:30Z</time></trkpt><trkpt lat="45.74022661867328" lon="9.446203582970533"><ele>212.0</ele><time>2026-03-31T15:54:31Z</time></trkpt><trkpt lat="45.740106728327746" lon="9.446268104845448"><ele>211.0</ele><time>2026-03-31T15:54:32Z</time></trkpt><trkpt lat="45.739982418286274" lon="9.446323082082152"><ele>210.0</ele><time>2026-03-31T15:54:33Z</time></trkpt><trkpt lat="45.739862279730005" lon="9.446388504979124"><ele>209.0</ele><time>2026-03-31T15:54:34Z</time></trkpt><trkpt lat="45.739748294953344" lon="9.446478622867208"><ele>208.0</ele><time>2026-03-31T15:54:35Z</time></trkpt><trkpt lat="45.73965027232235" lon="9.446579487267059"><ele>208.0</ele><time>2026-03-31T15:54:36Z</time></trkpt><trkpt lat="45.73955974451189" lon="9.44668160867253"><ele>208.0</ele><time>2026-03-31T15:54:37Z</time></trkpt><trkpt lat="45.73948822404504" lon="9.44681569394928"><ele>208.0</ele><time>2026-03-31T15:54:37.999Z</time></trkpt><trkpt lat="45.73943924170598" lon="9.446937395416509"><ele>208.0</ele><time>2026-03-31T15:54:38.999Z</time></trkpt><trkpt lat="45.739404519019025" lon="9.447059619958251"><ele>208.0</ele><time>2026-03-31T15:54:39.999Z</time></trkpt><trkpt lat="45.73938066808212" lon="9.4472221591846"><ele>207.60000000000002</ele><time>2026-03-31T15:54:40.999Z</time></trkpt><trkpt lat="45.739365545278936" lon="9.447317991570323"><ele>207.20000000000002</ele><time>2026-03-31T15:54:41.999Z</time></trkpt><trkpt lat="45.73934003826687" lon="9.447443115499704"><ele>206.8</ele><time>2026-03-31T15:54:42.999Z</time></trkpt><trkpt lat="45.73936851623304" lon="9.44762776471281"><ele>206.4</ele><time>2026-03-31T15:54:43.999Z</time></trkpt><trkpt lat="45.73936786591395" lon="9.447766653570346"><ele>206.0</ele><time>2026-03-31T15:54:44.999Z</time></trkpt><trkpt lat="45.73935669712519" lon="9.44789996636259"><ele>203.60000000000002</ele><time>2026-03-31T15:54:45.999Z</time></trkpt><trkpt lat="45.73935196331245" lon="9.448006418129125"><ele>201.2</ele><time>2026-03-31T15:54:46.999Z</time></trkpt><trkpt lat="45.739350504396654" lon="9.448179265441402"><ele>198.8</ele><time>2026-03-31T15:54:48.999Z</time></trkpt><trkpt lat="45.73933494243058" lon="9.448360404978253"><ele>196.39999999999998</ele><time>2026-03-31T15:54:50.999Z</time></trkpt><trkpt lat="45.739334913453206" lon="9.448457127035512"><ele>194.0</ele><time>2026-03-31T15:54:51.999Z</time></trkpt><trkpt lat="45.73929854754874" lon="9.448591088181065"><ele>194.0</ele><time>2026-03-31T15:54:52.999Z</time></trkpt><trkpt lat="45.73929537055952" lon="9.448757937904496"><ele>194.0</ele><time>2026-03-31T15:54:54.999Z</time></trkpt><trkpt lat="45.73928430981534" lon="9.448896434264817"><ele>194.0</ele><time>2026-03-31T15:54:55.999Z</time></trkpt><trkpt lat="45.73927711874579" lon="9.449029311873772"><ele>194.0</ele><time>2026-03-31T15:54:56.999Z</time></trkpt><trkpt lat="45.73926931012376" lon="9.449146451902703"><ele>194.0</ele><time>2026-03-31T15:54:57.999Z</time></trkpt><trkpt lat="45.73926028932548" lon="9.449259572633792"><ele>194.33333333333334</ele><time>2026-03-31T15:54:58.999Z</time></trkpt><trkpt lat="45.739255980498335" lon="9.449372941223283"><ele>194.66666666666669</ele><time>2026-03-31T15:55:00.999Z</time></trkpt><trkpt lat="45.73924372446877" lon="9.449497918631344"><ele>195.0</ele><time>2026-03-31T15:55:03.999Z</time></trkpt><trkpt lat="45.73923190059492" lon="9.449626370542296"><ele>195.33333333333331</ele><time>2026-03-31T15:55:05.999Z</time></trkpt><trkpt lat="45.73922584690171" lon="9.449722825786806"><ele>195.66666666666666</ele><time>2026-03-31T15:55:06.999Z</time></trkpt><trkpt lat="45.73921327611083" lon="9.449851343185715"><ele>196.0</ele><time>2026-03-31T15:55:07.999Z</time></trkpt><trkpt lat="45.73920769222783" lon="9.449982700783815"><ele>196.49999999999997</ele><time>2026-03-31T15:55:08.999Z</time></trkpt><trkpt lat="45.73921679066377" lon="9.450090099156938"><ele>197.0</ele><time>2026-03-31T15:55:09.999Z</time></trkpt><trkpt lat="45.739234901940904" lon="9.45018374101806"><ele>197.5</ele><time>2026-03-31T15:55:10.999Z</time></trkpt><trkpt lat="45.73924277789608" lon="9.450311653283826"><ele>198.0</ele><time>2026-03-31T15:55:12.999Z</time></trkpt><trkpt lat="45.739200731840725" lon="9.45045454451719"><ele>198.49999999999997</ele><time>2026-03-31T15:55:16.999Z</time></trkpt><trkpt lat="45.73918640128195" lon="9.450551632933074"><ele>199.0</ele><time>2026-03-31T15:55:17.999Z</time></trkpt><trkpt lat="45.739150172401146" lon="9.45069389007112"><ele>199.0</ele><time>2026-03-31T15:55:19.999Z</time></trkpt><trkpt lat="45.7392046961486" lon="9.450776846900268"><ele>199.0</ele><time>2026-03-31T15:55:20.999Z</time></trkpt><trkpt lat="45.7392895939599" lon="9.450820751870657"><ele>199.0</ele><time>2026-03-31T15:55:21.999Z</time></trkpt><trkpt lat="45.73942123590331" lon="9.450874286750285"><ele>199.0</ele><time>2026-03-31T15:55:22.999Z</time></trkpt><trkpt lat="45.73954709761842" lon="9.450985458481894"><ele>199.0</ele><time>2026-03-31T15:55:23.999Z</time></trkpt><trkpt lat="45.739672900923615" lon="9.451151396656284"><ele>199.0</ele><time>2026-03-31T15:55:24.999Z</time></trkpt><trkpt lat="45.73981271191658" lon="9.45133099998768"><ele>199.0</ele><time>2026-03-31T15:55:25.999Z</time></trkpt><trkpt lat="45.739971938035076" lon="9.451520757442893"><ele>199.0</ele><time>2026-03-31T15:55:26.999Z</time></trkpt><trkpt lat="45.74013269409232" lon="9.45169588912533"><ele>199.0</ele><time>2026-03-31T15:55:27.999Z</time></trkpt><trkpt lat="45.7402829820867" lon="9.451873080193543"><ele>199.0</ele><time>2026-03-31T15:55:28.999Z</time></trkpt><trkpt lat="45.74044459447926" lon="9.452049572154841"><ele>200.0</ele><time>2026-03-31T15:55:29.999Z</time></trkpt><trkpt lat="45.74059817841912" lon="9.452220539660416"><ele>201.0</ele><time>2026-03-31T15:55:30.999Z</time></trkpt><trkpt lat="45.74073564111347" lon="9.452359191871913"><ele>202.0</ele><time>2026-03-31T15:55:31.999Z</time></trkpt><trkpt lat="45.7408573261457" lon="9.452533936653882"><ele>202.0</ele><time>2026-03-31T15:55:33Z</time></trkpt><trkpt lat="45.74094408940649" lon="9.452717512637403"><ele>202.0</ele><time>2026-03-31T15:55:34Z</time></trkpt><trkpt lat="45.74100313259617" lon="9.45293463304687"><ele>202.0</ele><time>2026-03-31T15:55:35Z</time></trkpt><trkpt lat="45.7410741573329" lon="9.453189021861125"><ele>202.33333333333331</ele><time>2026-03-31T15:55:36Z</time></trkpt><trkpt lat="45.74109119091412" lon="9.453452385930808"><ele>202.66666666666669</ele><time>2026-03-31T15:55:37Z</time></trkpt><trkpt lat="45.74110334172596" lon="9.453727617305118"><ele>203.0</ele><time>2026-03-31T15:55:38Z</time></trkpt><trkpt lat="45.74111937041918" lon="9.453963399857745"><ele>203.8</ele><time>2026-03-31T15:55:39Z</time></trkpt><trkpt lat="45.74112840951101" lon="9.454146726186027"><ele>204.60000000000002</ele><time>2026-03-31T15:55:40Z</time></trkpt><trkpt lat="45.74110500972998" lon="9.454278967955004"><ele>205.39999999999998</ele><time>2026-03-31T15:55:41Z</time></trkpt><trkpt lat="45.74107655769067" lon="9.454445580232225"><ele>206.2</ele><time>2026-03-31T15:55:42Z</time></trkpt><trkpt lat="45.74104100888449" lon="9.454537815775723"><ele>207.0</ele><time>2026-03-31T15:55:43Z</time></trkpt><trkpt lat="45.741000233309435" lon="9.454703589191759"><ele>206.75</ele><time>2026-03-31T15:55:44Z</time></trkpt><trkpt lat="45.74098195028186" lon="9.45487958501903"><ele>206.5</ele><time>2026-03-31T15:55:45Z</time></trkpt><trkpt lat="45.74100665094707" lon="9.455013851058414"><ele>206.25</ele><time>2026-03-31T15:55:46Z</time></trkpt><trkpt lat="45.74105517393224" lon="9.455166677881683"><ele>206.0</ele><time>2026-03-31T15:55:47Z</time></trkpt><trkpt lat="45.74112499483212" lon="9.455292017849276"><ele>206.0</ele><time>2026-03-31T15:55:48Z</time></trkpt><trkpt lat="45.741144542073286" lon="9.455453734676533"><ele>206.0</ele><time>2026-03-31T15:55:49Z</time></trkpt><trkpt lat="45.74116336053659" lon="9.455641250098642"><ele>206.0</ele><time>2026-03-31T15:55:50Z</time></trkpt><trkpt lat="45.741175324145324" lon="9.455853242479611"><ele>206.0</ele><time>2026-03-31T15:55:51Z</time></trkpt><trkpt lat="45.74118857945089" lon="9.456081108705298"><ele>207.66666666666669</ele><time>2026-03-31T15:55:52Z</time></trkpt><trkpt lat="45.741200889490315" lon="9.456291982151054"><ele>209.33333333333331</ele><time>2026-03-31T15:55:53Z</time></trkpt><trkpt lat="45.741213837199375" lon="9.456513779367308"><ele>211.0</ele><time>2026-03-31T15:55:54Z</time></trkpt><trkpt lat="45.74122807142256" lon="9.45675761389039"><ele>211.0</ele><time>2026-03-31T15:55:55Z</time></trkpt><trkpt lat="45.741241341237455" lon="9.456984923814511"><ele>211.0</ele><time>2026-03-31T15:55:56Z</time></trkpt><trkpt lat="45.74125115240903" lon="9.457197960448985"><ele>211.0</ele><time>2026-03-31T15:55:57Z</time></trkpt><trkpt lat="45.74126265307511" lon="9.457429405571736"><ele>212.33333333333331</ele><time>2026-03-31T15:55:58Z</time></trkpt><trkpt lat="45.74127658100575" lon="9.457697388426451"><ele>213.66666666666669</ele><time>2026-03-31T15:55:59Z</time></trkpt><trkpt lat="45.74130859008778" lon="9.457992420203439"><ele>215.0</ele><time>2026-03-31T15:56:00Z</time></trkpt><trkpt lat="45.74131929144197" lon="9.458275721297655"><ele>216.33333333333334</ele><time>2026-03-31T15:56:01Z</time></trkpt><trkpt lat="45.74133482580401" lon="9.458545664355478"><ele>217.66666666666669</ele><time>2026-03-31T15:56:02Z</time></trkpt><trkpt lat="45.74135322535066" lon="9.45876426268866"><ele>219.0</ele><time>2026-03-31T15:56:03Z</time></trkpt><trkpt lat="45.74135940554703" lon="9.4589447202148"><ele>219.75</ele><time>2026-03-31T15:56:04Z</time></trkpt><trkpt lat="45.74133604300955" lon="9.459123859404665"><ele>220.5</ele><time>2026-03-31T15:56:05Z</time></trkpt><trkpt lat="45.74128142063848" lon="9.459319537545312"><ele>221.25</ele><time>2026-03-31T15:56:06Z</time></trkpt><trkpt lat="45.74129837708288" lon="9.459482056532805"><ele>222.0</ele><time>2026-03-31T15:56:07Z</time></trkpt><trkpt lat="45.741306678363934" lon="9.459621240068962"><ele>222.39999999999998</ele><time>2026-03-31T15:56:08Z</time></trkpt><trkpt lat="45.741313494012616" lon="9.459735514362352"><ele>222.79999999999998</ele><time>2026-03-31T15:56:09Z</time></trkpt><trkpt lat="45.741321520826794" lon="9.459870095769311"><ele>223.2</ele><time>2026-03-31T15:56:10Z</time></trkpt><trkpt lat="45.74133088442968" lon="9.460027090046323"><ele>223.6</ele><time>2026-03-31T15:56:11Z</time></trkpt><trkpt lat="45.74134211351138" lon="9.460215361418673"><ele>224.0</ele><time>2026-03-31T15:56:12Z</time></trkpt><trkpt lat="45.74135189271911" lon="9.460403838303373"><ele>225.0</ele><time>2026-03-31T15:56:13Z</time></trkpt><trkpt lat="45.74135704477546" lon="9.460593309106946"><ele>226.0</ele><time>2026-03-31T15:56:14Z</time></trkpt><trkpt lat="45.74135693516018" lon="9.46071276089126"><ele>227.0</ele><time>2026-03-31T15:56:15Z</time></trkpt><trkpt lat="45.741363166043435" lon="9.460940189613506"><ele>228.0</ele><time>2026-03-31T15:56:17Z</time></trkpt><trkpt lat="45.74137463142121" lon="9.46109487967714"><ele>228.0</ele><time>2026-03-31T15:56:18Z</time></trkpt><trkpt lat="45.741348621383345" lon="9.461260087080198"><ele>228.0</ele><time>2026-03-31T15:56:19Z</time></trkpt><trkpt lat="45.74129127646534" lon="9.461463831646585"><ele>228.0</ele><time>2026-03-31T15:56:20Z</time></trkpt><trkpt lat="45.741228111515525" lon="9.461692625430931"><ele>228.0</ele><time>2026-03-31T15:56:21Z</time></trkpt><trkpt lat="45.74117357621838" lon="9.461956388277414"><ele>229.0</ele><time>2026-03-31T15:56:22Z</time></trkpt><trkpt lat="45.74109417433195" lon="9.46222009945394"><ele>230.0</ele><time>2026-03-31T15:56:23Z</time></trkpt><trkpt lat="45.74104740424006" lon="9.462460391612865"><ele>231.0</ele><time>2026-03-31T15:56:24Z</time></trkpt><trkpt lat="45.740990819269975" lon="9.462711050482971"><ele>231.0</ele><time>2026-03-31T15:56:25Z</time></trkpt><trkpt lat="45.74095462543405" lon="9.462943761286574"><ele>231.0</ele><time>2026-03-31T15:56:26Z</time></trkpt><trkpt lat="45.74094080846821" lon="9.463153426858128"><ele>231.0</ele><time>2026-03-31T15:56:27Z</time></trkpt><trkpt lat="45.740964687942046" lon="9.46337167649088"><ele>232.0</ele><time>2026-03-31T15:56:28Z</time></trkpt><trkpt lat="45.74100609449803" lon="9.463630663136318"><ele>233.0</ele><time>2026-03-31T15:56:28.999Z</time></trkpt><trkpt lat="45.74105259805709" lon="9.463901724515397"><ele>234.0</ele><time>2026-03-31T15:56:29.999Z</time></trkpt><trkpt lat="45.74110249194322" lon="9.464124843962534"><ele>237.5</ele><time>2026-03-31T15:56:30.999Z</time></trkpt><trkpt lat="45.74111366237048" lon="9.464332047946456"><ele>241.0</ele><time>2026-03-31T15:56:31.999Z</time></trkpt><trkpt lat="45.74109666025827" lon="9.46450408237042"><ele>244.5</ele><time>2026-03-31T15:56:32.999Z</time></trkpt><trkpt lat="45.74104357586519" lon="9.464661046240133"><ele>248.0</ele><time>2026-03-31T15:56:33.999Z</time></trkpt><trkpt lat="45.74095106728421" lon="9.46478070820586"><ele>248.0</ele><time>2026-03-31T15:56:34.999Z</time></trkpt><trkpt lat="45.74083879785174" lon="9.464876323425157"><ele>248.0</ele><time>2026-03-31T15:56:35.999Z</time></trkpt><trkpt lat="45.74074448076484" lon="9.464950544626742"><ele>248.0</ele><time>2026-03-31T15:56:36.999Z</time></trkpt><trkpt lat="45.740651492457125" lon="9.465020992275177"><ele>248.0</ele><time>2026-03-31T15:56:37.999Z</time></trkpt><trkpt lat="45.740565373111146" lon="9.46509140901784"><ele>248.0</ele><time>2026-03-31T15:56:38.999Z</time></trkpt><trkpt lat="45.74046914134066" lon="9.465176327917034"><ele>248.0</ele><time>2026-03-31T15:56:39.999Z</time></trkpt><trkpt lat="45.74038938876485" lon="9.465297474647667"><ele>248.0</ele><time>2026-03-31T15:56:40.999Z</time></trkpt><trkpt lat="45.740318757378176" lon="9.465422592034258"><ele>248.0</ele><time>2026-03-31T15:56:41.999Z</time></trkpt><trkpt lat="45.740256998779955" lon="9.465568570234687"><ele>248.0</ele><time>2026-03-31T15:56:42.999Z</time></trkpt><trkpt lat="45.740232345761825" lon="9.465740039095959"><ele>249.66666666666669</ele><time>2026-03-31T15:56:43.999Z</time></trkpt><trkpt lat="45.7402660992699" lon="9.465938036929312"><ele>251.33333333333331</ele><time>2026-03-31T15:56:44.999Z</time></trkpt><trkpt lat="45.74028979183208" lon="9.466144464852416"><ele>253.0</ele><time>2026-03-31T15:56:45.999Z</time></trkpt><trkpt lat="45.74032141953259" lon="9.466389319344755"><ele>253.0</ele><time>2026-03-31T15:56:46.999Z</time></trkpt><trkpt lat="45.74034397079016" lon="9.466586545059567"><ele>253.0</ele><time>2026-03-31T15:56:47.999Z</time></trkpt><trkpt lat="45.74036489373444" lon="9.466768245633087"><ele>253.0</ele><time>2026-03-31T15:56:48.999Z</time></trkpt><trkpt lat="45.740388255487765" lon="9.466953711817927"><ele>253.0</ele><time>2026-03-31T15:56:49.999Z</time></trkpt><trkpt lat="45.74040254331688" lon="9.467176652127739"><ele>254.0</ele><time>2026-03-31T15:56:50.999Z</time></trkpt><trkpt lat="45.74044671932522" lon="9.467424569463818"><ele>255.0</ele><time>2026-03-31T15:56:51.999Z</time></trkpt><trkpt lat="45.740482946567525" lon="9.467673943397335"><ele>256.0</ele><time>2026-03-31T15:56:52.999Z</time></trkpt><trkpt lat="45.74052070807581" lon="9.467924271381332"><ele>256.5</ele><time>2026-03-31T15:56:53.999Z</time></trkpt><trkpt lat="45.74053592017089" lon="9.468152533753697"><ele>257.0</ele><time>2026-03-31T15:56:54.999Z</time></trkpt><trkpt lat="45.74056410357438" lon="9.468360745746693"><ele>257.5</ele><time>2026-03-31T15:56:55.999Z</time></trkpt><trkpt lat="45.740589235037795" lon="9.46854601830972"><ele>258.0</ele><time>2026-03-31T15:56:56.999Z</time></trkpt><trkpt lat="45.74061713350248" lon="9.468751689231768"><ele>258.75</ele><time>2026-03-31T15:56:57.999Z</time></trkpt><trkpt lat="45.74064599698181" lon="9.46896447481716"><ele>259.5</ele><time>2026-03-31T15:56:58.999Z</time></trkpt><trkpt lat="45.740673799701625" lon="9.469169440537154"><ele>260.25</ele><time>2026-03-31T15:56:59.999Z</time></trkpt><trkpt lat="45.74069972149128" lon="9.469360858606237"><ele>261.0</ele><time>2026-03-31T15:57:00.999Z</time></trkpt><trkpt lat="45.74072372069327" lon="9.469538379360145"><ele>261.2</ele><time>2026-03-31T15:57:01.999Z</time></trkpt><trkpt lat="45.74074473595034" lon="9.469699946450522"><ele>261.40000000000003</ele><time>2026-03-31T15:57:02.999Z</time></trkpt><trkpt lat="45.74076252138228" lon="9.469851231526773"><ele>261.6</ele><time>2026-03-31T15:57:03.999Z</time></trkpt><trkpt lat="45.74077904273977" lon="9.470000083581343"><ele>261.8</ele><time>2026-03-31T15:57:04.999Z</time></trkpt><trkpt lat="45.74079260279605" lon="9.470158232683913"><ele>262.0</ele><time>2026-03-31T15:57:05.999Z</time></trkpt><trkpt lat="45.740797319175826" lon="9.470287366868048"><ele>262.0</ele><time>2026-03-31T15:57:06.999Z</time></trkpt><trkpt lat="45.74079614628051" lon="9.470430555419902"><ele>262.0</ele><time>2026-03-31T15:57:08.999Z</time></trkpt><trkpt lat="45.74080557085027" lon="9.470540861380394"><ele>262.0</ele><time>2026-03-31T15:57:10.999Z</time></trkpt><trkpt lat="45.740785830242885" lon="9.470700738570699"><ele>262.0</ele><time>2026-03-31T15:57:12.999Z</time></trkpt><trkpt lat="45.74079927491552" lon="9.47081311770141"><ele>262.0</ele><time>2026-03-31T15:57:14.999Z</time></trkpt><trkpt lat="45.74076360262515" lon="9.470904512516737"><ele>262.0</ele><time>2026-03-31T15:57:19.999Z</time></trkpt><trkpt lat="45.74070702636894" lon="9.47099729219154"><ele>262.16666666666663</ele><time>2026-03-31T15:57:24.999Z</time></trkpt><trkpt lat="45.74070523926605" lon="9.471118667456391"><ele>262.3333333333333</ele><time>2026-03-31T15:57:27.999Z</time></trkpt><trkpt lat="45.74071960424183" lon="9.471210443942056"><ele>262.5</ele><time>2026-03-31T15:57:28.999Z</time></trkpt><trkpt lat="45.74072225969204" lon="9.471318415875043"><ele>262.6666666666667</ele><time>2026-03-31T15:57:30.999Z</time></trkpt><trkpt lat="45.740692833271254" lon="9.47142198715736"><ele>262.83333333333337</ele><time>2026-03-31T15:57:33.999Z</time></trkpt><trkpt lat="45.740670747756404" lon="9.47154071265363"><ele>263.0</ele><time>2026-03-31T15:57:35.999Z</time></trkpt><trkpt lat="45.74062529836908" lon="9.471733018287255"><ele>263.0</ele><time>2026-03-31T15:57:37.999Z</time></trkpt><trkpt lat="45.740596607461576" lon="9.471905348385064"><ele>263.0</ele><time>2026-03-31T15:57:39Z</time></trkpt><trkpt lat="45.74059520375911" lon="9.4720978743983"><ele>263.0</ele><time>2026-03-31T15:57:40Z</time></trkpt><trkpt lat="45.74059076844472" lon="9.472271725886706"><ele>263.0</ele><time>2026-03-31T15:57:41Z</time></trkpt><trkpt lat="45.740592093377686" lon="9.472403761148284"><ele>263.4</ele><time>2026-03-31T15:57:42Z</time></trkpt><trkpt lat="45.74060149966969" lon="9.472515127304757"><ele>263.8</ele><time>2026-03-31T15:57:43Z</time></trkpt><trkpt lat="45.74062555441669" lon="9.472617750283517"><ele>264.2</ele><time>2026-03-31T15:57:44Z</time></trkpt><trkpt lat="45.7406529429075" lon="9.472701567539776"><ele>264.6</ele><time>2026-03-31T15:57:45Z</time></trkpt><trkpt lat="45.74069184589259" lon="9.47281886481982"><ele>265.0</ele><time>2026-03-31T15:57:47Z</time></trkpt><trkpt lat="45.74078278187305" lon="9.472999051989389"><ele>265.2</ele><time>2026-03-31T15:57:51Z</time></trkpt><trkpt lat="45.74079580557502" lon="9.473152555338718"><ele>265.4</ele><time>2026-03-31T15:57:53Z</time></trkpt><trkpt lat="45.740757588918456" lon="9.47327996277573"><ele>265.6</ele><time>2026-03-31T15:57:55Z</time></trkpt><trkpt lat="45.74071756852172" lon="9.473354599754863"><ele>265.8</ele><time>2026-03-31T15:57:56Z</time></trkpt><trkpt lat="45.74066911637734" lon="9.473434811164744"><ele>266.0</ele><time>2026-03-31T15:57:57Z</time></trkpt><trkpt lat="45.740546563763594" lon="9.47360806251331"><ele>266.0</ele><time>2026-03-31T15:57:58Z</time></trkpt><trkpt lat="45.740458384881585" lon="9.473709216374672"><ele>266.0</ele><time>2026-03-31T15:57:59Z</time></trkpt><trkpt lat="45.74039987555967" lon="9.473811986878989"><ele>266.0</ele><time>2026-03-31T15:58:00Z</time></trkpt><trkpt lat="45.74035778491159" lon="9.473926179332931"><ele>266.0</ele><time>2026-03-31T15:58:01Z</time></trkpt><trkpt lat="45.74032094125349" lon="9.474035441612976"><ele>266.0</ele><time>2026-03-31T15:58:02Z</time></trkpt><trkpt lat="45.74029500773025" lon="9.474135694657935"><ele>266.0</ele><time>2026-03-31T15:58:03Z</time></trkpt><trkpt lat="45.74026687624177" lon="9.474221514462192"><ele>266.0</ele><time>2026-03-31T15:58:04Z</time></trkpt><trkpt lat="45.7402714135599" lon="9.474407207214668"><ele>266.0</ele><time>2026-03-31T15:58:06Z</time></trkpt><trkpt lat="45.74021302576215" lon="9.474586820355158"><ele>266.0</ele><time>2026-03-31T15:58:07Z</time></trkpt><trkpt lat="45.740177725548335" lon="9.474738442462229"><ele>266.0</ele><time>2026-03-31T15:58:08Z</time></trkpt><trkpt lat="45.74016667378865" lon="9.474940107188253"><ele>266.0</ele><time>2026-03-31T15:58:09Z</time></trkpt><trkpt lat="45.740132619766776" lon="9.47502403335566"><ele>266.0</ele><time>2026-03-31T15:58:10Z</time></trkpt><trkpt lat="45.74012837936517" lon="9.475127569517594"><ele>266.0</ele><time>2026-03-31T15:58:11Z</time></trkpt><trkpt lat="45.74013495042659" lon="9.475253314762288"><ele>266.0</ele><time>2026-03-31T15:58:12Z</time></trkpt><trkpt lat="45.740103916048284" lon="9.475400294100943"><ele>266.0</ele><time>2026-03-31T15:58:13Z</time></trkpt><trkpt lat="45.740080150722854" lon="9.475553939732896"><ele>266.0</ele><time>2026-03-31T15:58:14Z</time></trkpt><trkpt lat="45.74006150098828" lon="9.475738406243927"><ele>266.0</ele><time>2026-03-31T15:58:15Z</time></trkpt><trkpt lat="45.74003748736915" lon="9.475876947426817"><ele>266.0</ele><time>2026-03-31T15:58:16Z</time></trkpt><trkpt lat="45.74001055108141" lon="9.476036591551239"><ele>266.0</ele><time>2026-03-31T15:58:17Z</time></trkpt><trkpt lat="45.739983723254404" lon="9.476197335753007"><ele>266.0</ele><time>2026-03-31T15:58:18Z</time></trkpt><trkpt lat="45.739964868921035" lon="9.476361167667479"><ele>266.0</ele><time>2026-03-31T15:58:19Z</time></trkpt><trkpt lat="45.73993758775072" lon="9.476508152485932"><ele>266.0</ele><time>2026-03-31T15:58:20Z</time></trkpt><trkpt lat="45.73990494954943" lon="9.476646454605445"><ele>266.0</ele><time>2026-03-31T15:58:21Z</time></trkpt><trkpt lat="45.73988518333298" lon="9.476790502145898"><ele>266.0</ele><time>2026-03-31T15:58:22Z</time></trkpt><trkpt lat="45.73987001346867" lon="9.476910067334545"><ele>266.0</ele><time>2026-03-31T15:58:23Z</time></trkpt><trkpt lat="45.739861132355756" lon="9.477022740516361"><ele>266.0</ele><time>2026-03-31T15:58:24Z</time></trkpt><trkpt lat="45.73983788381356" lon="9.477110135195595"><ele>266.0</ele><time>2026-03-31T15:58:25Z</time></trkpt><trkpt lat="45.73982121111246" lon="9.477244804332882"><ele>266.40000000000003</ele><time>2026-03-31T15:58:26Z</time></trkpt><trkpt lat="45.739799905594936" lon="9.477361591845739"><ele>266.8</ele><time>2026-03-31T15:58:27Z</time></trkpt><trkpt lat="45.73978157655192" lon="9.477529722563618"><ele>267.20000000000005</ele><time>2026-03-31T15:58:28Z</time></trkpt><trkpt lat="45.73975452620588" lon="9.477694725839555"><ele>267.6</ele><time>2026-03-31T15:58:29Z</time></trkpt><trkpt lat="45.73973217580547" lon="9.477836862313879"><ele>268.0</ele><time>2026-03-31T15:58:30Z</time></trkpt><trkpt lat="45.73971166385856" lon="9.477971849794514"><ele>268.0</ele><time>2026-03-31T15:58:31Z</time></trkpt><trkpt lat="45.73967854075957" lon="9.478112303028892"><ele>268.0</ele><time>2026-03-31T15:58:32Z</time></trkpt><trkpt lat="45.7396646236868" lon="9.478259227654366"><ele>268.0</ele><time>2026-03-31T15:58:33Z</time></trkpt><trkpt lat="45.73965015022898" lon="9.478385507888824"><ele>268.0</ele><time>2026-03-31T15:58:34Z</time></trkpt><trkpt lat="45.73963287728021" lon="9.478496500386445"><ele>268.0</ele><time>2026-03-31T15:58:35Z</time></trkpt><trkpt lat="45.739615800710176" lon="9.47859681634906"><ele>268.0</ele><time>2026-03-31T15:58:36Z</time></trkpt><trkpt lat="45.73960481242619" lon="9.47870319738982"><ele>268.0</ele><time>2026-03-31T15:58:37Z</time></trkpt><trkpt lat="45.73959254815717" lon="9.478823863034169"><ele>268.0</ele><time>2026-03-31T15:58:38Z</time></trkpt><trkpt lat="45.73957899689377" lon="9.47893495224702"><ele>268.0</ele><time>2026-03-31T15:58:39Z</time></trkpt><trkpt lat="45.739540802458706" lon="9.479033132087734"><ele>268.0</ele><time>2026-03-31T15:58:40Z</time></trkpt><trkpt lat="45.739525384043276" lon="9.479132990811417"><ele>268.0</ele><time>2026-03-31T15:58:42Z</time></trkpt><trkpt lat="45.73951643377318" lon="9.47922789588739"><ele>268.0</ele><time>2026-03-31T15:58:43.999Z</time></trkpt><trkpt lat="45.739503329515166" lon="9.479340900413028"><ele>268.0</ele><time>2026-03-31T15:58:45.999Z</time></trkpt><trkpt lat="45.739488292976915" lon="9.479513758281476"><ele>268.0</ele><time>2026-03-31T15:58:47.999Z</time></trkpt><trkpt lat="45.7394586992758" lon="9.479641894723624"><ele>268.0</ele><time>2026-03-31T15:58:48.999Z</time></trkpt><trkpt lat="45.7394374752039" lon="9.479756227540488"><ele>268.0</ele><time>2026-03-31T15:58:49.999Z</time></trkpt><trkpt lat="45.739422041530084" lon="9.479857566812901"><ele>268.0</ele><time>2026-03-31T15:58:50.999Z</time></trkpt><trkpt lat="45.739400694107196" lon="9.479953176756414"><ele>268.0</ele><time>2026-03-31T15:58:51.999Z</time></trkpt><trkpt lat="45.73937733018134" lon="9.480044572056116"><ele>267.5</ele><time>2026-03-31T15:58:52.999Z</time></trkpt><trkpt lat="45.73934087086698" lon="9.480140692671482"><ele>267.0</ele><time>2026-03-31T15:58:53.999Z</time></trkpt><trkpt lat="45.73929133573444" lon="9.480234729232178"><ele>266.5</ele><time>2026-03-31T15:58:54.999Z</time></trkpt><trkpt lat="45.739235424501345" lon="9.480314947407111"><ele>266.0</ele><time>2026-03-31T15:58:55.999Z</time></trkpt><trkpt lat="45.73916783411898" lon="9.480412853207158"><ele>265.5</ele><time>2026-03-31T15:58:56.999Z</time></trkpt><trkpt lat="45.7391010206302" lon="9.480497890829644"><ele>265.0</ele><time>2026-03-31T15:58:57.999Z</time></trkpt><trkpt lat="45.73903725240013" lon="9.480578686584375"><ele>264.5</ele><time>2026-03-31T15:58:58.999Z</time></trkpt><trkpt lat="45.73897326395965" lon="9.480664536348796"><ele>264.0</ele><time>2026-03-31T15:58:59.999Z</time></trkpt><trkpt lat="45.738899755884276" lon="9.480769574854742"><ele>263.5</ele><time>2026-03-31T15:59:00.999Z</time></trkpt><trkpt lat="45.73882897596716" lon="9.480863430680325"><ele>263.0</ele><time>2026-03-31T15:59:01.999Z</time></trkpt><trkpt lat="45.73877905793506" lon="9.48094033987543"><ele>262.5</ele><time>2026-03-31T15:59:02.999Z</time></trkpt><trkpt lat="45.738783058750364" lon="9.481054154422301"><ele>262.0</ele><time>2026-03-31T15:59:03.999Z</time></trkpt><trkpt lat="45.73880237899405" lon="9.481172981579718"><ele>262.0</ele><time>2026-03-31T15:59:04.999Z</time></trkpt><trkpt lat="45.73885134177669" lon="9.481245135218808"><ele>262.0</ele><time>2026-03-31T15:59:05.999Z</time></trkpt><trkpt lat="45.738913406053484" lon="9.481287373912378"><ele>262.0</ele><time>2026-03-31T15:59:06.999Z</time></trkpt><trkpt lat="45.73900394735011" lon="9.48131489833141"><ele>262.0</ele><time>2026-03-31T15:59:07.999Z</time></trkpt><trkpt lat="45.73912456395699" lon="9.48123681136799"><ele>262.0</ele><time>2026-03-31T15:59:08.999Z</time></trkpt><trkpt lat="45.73919837166072" lon="9.481145130076172"><ele>262.0</ele><time>2026-03-31T15:59:09.999Z</time></trkpt><trkpt lat="45.739247967116675" lon="9.481087704135764"><ele>262.0</ele><time>2026-03-31T15:59:10.999Z</time></trkpt><trkpt lat="45.739329711974534" lon="9.480993916677653"><ele>262.0</ele><time>2026-03-31T15:59:12.999Z</time></trkpt><trkpt lat="45.73939867720943" lon="9.480907539839293"><ele>262.0</ele><time>2026-03-31T15:59:14.999Z</time></trkpt><trkpt lat="45.73947775033629" lon="9.480826876502062"><ele>262.0</ele><time>2026-03-31T15:59:17.999Z</time></trkpt><trkpt lat="45.73953589264821" lon="9.48076948269012"><ele>262.0</ele><time>2026-03-31T15:59:19.999Z</time></trkpt><trkpt lat="45.73959681826879" lon="9.480733677587239"><ele>261.8333333333333</ele><time>2026-03-31T15:59:21.999Z</time></trkpt><trkpt lat="45.73967140863795" lon="9.480730686336937"><ele>261.66666666666663</ele><time>2026-03-31T15:59:23.999Z</time></trkpt><trkpt lat="45.73973931770267" lon="9.480735817951293"><ele>261.5</ele><time>2026-03-31T15:59:25.999Z</time></trkpt><trkpt lat="45.739823146678454" lon="9.480767394705689"><ele>261.3333333333333</ele><time>2026-03-31T15:59:27.999Z</time></trkpt><trkpt lat="45.73988319290012" lon="9.48085644805775"><ele>261.1666666666667</ele><time>2026-03-31T15:59:29.999Z</time></trkpt><trkpt lat="45.73992551617411" lon="9.480997613727313"><ele>261.0</ele><time>2026-03-31T15:59:31.999Z</time></trkpt><trkpt lat="45.739954870383656" lon="9.481081897193954"><ele>261.0</ele><time>2026-03-31T15:59:32.999Z</time></trkpt><trkpt lat="45.74011742467469" lon="9.481044922459716"><ele>261.0</ele><time>2026-03-31T15:59:33.999Z</time></trkpt><trkpt lat="45.74023215769255" lon="9.481023951068282"><ele>261.0</ele><time>2026-03-31T15:59:34.999Z</time></trkpt><trkpt lat="45.74036974907207" lon="9.481019976324049"><ele>261.0</ele><time>2026-03-31T15:59:35.999Z</time></trkpt><trkpt lat="45.740496784434825" lon="9.481001017410524"><ele>261.0</ele><time>2026-03-31T15:59:36.999Z</time></trkpt><trkpt lat="45.740634431606104" lon="9.48100892616277"><ele>261.0</ele><time>2026-03-31T15:59:37.999Z</time></trkpt><trkpt lat="45.74073223351552" lon="9.481029137493781"><ele>261.0</ele><time>2026-03-31T15:59:38.999Z</time></trkpt><trkpt lat="45.74080334319189" lon="9.481099738993374"><ele>261.0</ele><time>2026-03-31T15:59:39.999Z</time></trkpt><trkpt lat="45.740889774890896" lon="9.481133761658723"><ele>261.0</ele><time>2026-03-31T15:59:40.999Z</time></trkpt><trkpt lat="45.74087924760288" lon="9.48136249310681"><ele>261.75</ele><time>2026-03-31T15:59:41.999Z</time></trkpt><trkpt lat="45.740883493924684" lon="9.4814927253074"><ele>262.5</ele><time>2026-03-31T15:59:42.999Z</time></trkpt><trkpt lat="45.740871201960246" lon="9.481632790829055"><ele>263.25</ele><time>2026-03-31T15:59:43.999Z</time></trkpt><trkpt lat="45.74087204590132" lon="9.481886430064247"><ele>264.0</ele><time>2026-03-31T15:59:45Z</time></trkpt><trkpt lat="45.74087432568893" lon="9.482078543112399"><ele>265.25</ele><time>2026-03-31T15:59:46Z</time></trkpt><trkpt lat="45.740879789207064" lon="9.482202185733463"><ele>266.5</ele><time>2026-03-31T15:59:47Z</time></trkpt><trkpt lat="45.74078031519778" lon="9.482256914470689"><ele>267.75</ele><time>2026-03-31T15:59:50Z</time></trkpt><trkpt lat="45.74068228803446" lon="9.482282927146695"><ele>269.0</ele><time>2026-03-31T15:59:51Z</time></trkpt><trkpt lat="45.74052244513017" lon="9.482339279464401"><ele>269.0</ele><time>2026-03-31T15:59:52Z</time></trkpt><trkpt lat="45.74039910254525" lon="9.482427009997489"><ele>269.0</ele><time>2026-03-31T15:59:53Z</time></trkpt><trkpt lat="45.740318130390385" lon="9.482557843796931"><ele>269.0</ele><time>2026-03-31T15:59:54Z</time></trkpt><trkpt lat="45.740260247069244" lon="9.48265998670699"><ele>269.0</ele><time>2026-03-31T15:59:55Z</time></trkpt><trkpt lat="45.74020772298518" lon="9.482752280210622"><ele>269.0</ele><time>2026-03-31T15:59:56Z</time></trkpt><trkpt lat="45.74013750421431" lon="9.48286001457237"><ele>268.0</ele><time>2026-03-31T15:59:57Z</time></trkpt><trkpt lat="45.74007977866193" lon="9.482961890978723"><ele>267.0</ele><time>2026-03-31T15:59:58Z</time></trkpt><trkpt lat="45.74001674906619" lon="9.483063658674789"><ele>266.0</ele><time>2026-03-31T16:00:00Z</time></trkpt><trkpt lat="45.74002964882373" lon="9.483203420588403"><ele>265.0</ele><time>2026-03-31T16:00:03Z</time></trkpt><trkpt lat="45.74006833929425" lon="9.483354660760288"><ele>264.0</ele><time>2026-03-31T16:00:05Z</time></trkpt><trkpt lat="45.74007807899891" lon="9.483449706323318"><ele>264.0</ele><time>2026-03-31T16:00:08Z</time></trkpt><trkpt lat="45.74008693675508" lon="9.483561879161897"><ele>264.0</ele><time>2026-03-31T16:00:12Z</time></trkpt><trkpt lat="45.74008817763832" lon="9.483661795765874"><ele>264.0</ele><time>2026-03-31T16:00:19Z</time></trkpt><trkpt lat="45.74021056805288" lon="9.483695222452994"><ele>264.0</ele><time>2026-03-31T16:00:20Z</time></trkpt><trkpt lat="45.740277156997095" lon="9.483703469213896"><ele>264.0</ele><time>2026-03-31T16:00:21Z</time></trkpt><trkpt lat="45.74044001721474" lon="9.483723151806052"><ele>266.5</ele><time>2026-03-31T16:00:23Z</time></trkpt><trkpt lat="45.74056008879629" lon="9.483744764344273"><ele>269.0</ele><time>2026-03-31T16:00:24Z</time></trkpt><trkpt lat="45.740650470018124" lon="9.48376896609843"><ele>271.5</ele><time>2026-03-31T16:00:25Z</time></trkpt><trkpt lat="45.74073851765836" lon="9.483805571632688"><ele>274.0</ele><time>2026-03-31T16:00:26Z</time></trkpt><trkpt lat="45.74092619719496" lon="9.483776570666361"><ele>276.0</ele><time>2026-03-31T16:00:28Z</time></trkpt><trkpt lat="45.74105314906335" lon="9.483737749390276"><ele>278.0</ele><time>2026-03-31T16:00:29Z</time></trkpt><trkpt lat="45.74119477735293" lon="9.48363926367991"><ele>280.0</ele><time>2026-03-31T16:00:30Z</time></trkpt><trkpt lat="45.74133114218498" lon="9.483534025960868"><ele>282.0</ele><time>2026-03-31T16:00:31Z</time></trkpt><trkpt lat="45.74142311864965" lon="9.483413754326849"><ele>282.0</ele><time>2026-03-31T16:00:32Z</time></trkpt><trkpt lat="45.74151660462427" lon="9.48333673508223"><ele>282.0</ele><time>2026-03-31T16:00:33Z</time></trkpt><trkpt lat="45.74162405659568" lon="9.483275994534164"><ele>282.0</ele><time>2026-03-31T16:00:34Z</time></trkpt><trkpt lat="45.7417064472882" lon="9.483230074908032"><ele>282.0</ele><time>2026-03-31T16:00:35Z</time></trkpt><trkpt lat="45.741794652678394" lon="9.48316862039671"><ele>282.0</ele><time>2026-03-31T16:00:36Z</time></trkpt><trkpt lat="45.741895260681666" lon="9.483071213451426"><ele>284.0</ele><time>2026-03-31T16:00:37Z</time></trkpt><trkpt lat="45.742042389203014" lon="9.482937123439326"><ele>286.0</ele><time>2026-03-31T16:00:38Z</time></trkpt><trkpt lat="45.742221642929685" lon="9.482823193965915"><ele>288.0</ele><time>2026-03-31T16:00:39Z</time></trkpt><trkpt lat="45.74238923841377" lon="9.482683383378925"><ele>288.0</ele><time>2026-03-31T16:00:40Z</time></trkpt><trkpt lat="45.74253463902022" lon="9.482530226528329"><ele>288.0</ele><time>2026-03-31T16:00:41Z</time></trkpt><trkpt lat="45.74269404388191" lon="9.482386442828474"><ele>288.0</ele><time>2026-03-31T16:00:42Z</time></trkpt><trkpt lat="45.74286109140442" lon="9.482236447794602"><ele>290.25</ele><time>2026-03-31T16:00:43Z</time></trkpt><trkpt lat="45.74297518475551" lon="9.48213132610725"><ele>292.5</ele><time>2026-03-31T16:00:44Z</time></trkpt><trkpt lat="45.74311354033123" lon="9.482033354252664"><ele>294.75</ele><time>2026-03-31T16:00:45Z</time></trkpt><trkpt lat="45.743248449039655" lon="9.481944037302306"><ele>297.0</ele><time>2026-03-31T16:00:46Z</time></trkpt><trkpt lat="45.74338464615646" lon="9.48175478992097"><ele>297.0</ele><time>2026-03-31T16:00:47Z</time></trkpt><trkpt lat="45.74346951757791" lon="9.481564246362458"><ele>297.0</ele><time>2026-03-31T16:00:48Z</time></trkpt><trkpt lat="45.743551206404156" lon="9.481408182395695"><ele>297.0</ele><time>2026-03-31T16:00:49Z</time></trkpt><trkpt lat="45.7436198315259" lon="9.481261720462703"><ele>297.0</ele><time>2026-03-31T16:00:50Z</time></trkpt><trkpt lat="45.743669324487804" lon="9.4811413974147"><ele>298.6666666666667</ele><time>2026-03-31T16:00:51Z</time></trkpt><trkpt lat="45.743720638162" lon="9.481080799799257"><ele>300.3333333333333</ele><time>2026-03-31T16:00:52Z</time></trkpt><trkpt lat="45.743816734419354" lon="9.481159190749322"><ele>302.0</ele><time>2026-03-31T16:00:53.999Z</time></trkpt><trkpt lat="45.74380077803481" lon="9.481267876871232"><ele>303.66666666666663</ele><time>2026-03-31T16:00:54.999Z</time></trkpt><trkpt lat="45.74377407390503" lon="9.481384586863024"><ele>305.3333333333333</ele><time>2026-03-31T16:00:55.999Z</time></trkpt><trkpt lat="45.74375696693922" lon="9.481515877941364"><ele>307.0</ele><time>2026-03-31T16:00:56.999Z</time></trkpt><trkpt lat="45.743771708474" lon="9.481645008337933"><ele>309.0</ele><time>2026-03-31T16:00:57.999Z</time></trkpt><trkpt lat="45.74382142939726" lon="9.481741595063394"><ele>311.0</ele><time>2026-03-31T16:00:58.999Z</time></trkpt><trkpt lat="45.74393266238523" lon="9.48174355872275"><ele>313.0</ele><time>2026-03-31T16:00:59.999Z</time></trkpt><trkpt lat="45.74404916498675" lon="9.481747254011287"><ele>315.0</ele><time>2026-03-31T16:01:00.999Z</time></trkpt><trkpt lat="45.74418070542783" lon="9.481761212418595"><ele>317.0</ele><time>2026-03-31T16:01:01.999Z</time></trkpt><trkpt lat="45.744344282259554" lon="9.481777553614775"><ele>317.5</ele><time>2026-03-31T16:01:02.999Z</time></trkpt><trkpt lat="45.74450585884545" lon="9.481791998098936"><ele>318.0</ele><time>2026-03-31T16:01:03.999Z</time></trkpt><trkpt lat="45.74464151805853" lon="9.481806377247844"><ele>318.5</ele><time>2026-03-31T16:01:04.999Z</time></trkpt><trkpt lat="45.744755736595756" lon="9.481827736328752"><ele>319.0</ele><time>2026-03-31T16:01:05.999Z</time></trkpt><trkpt lat="45.744811523323" lon="9.481872380781867"><ele>319.0</ele><time>2026-03-31T16:01:06.999Z</time></trkpt><trkpt lat="45.74488546759734" lon="9.482084597492749"><ele>319.0</ele><time>2026-03-31T16:01:08.999Z</time></trkpt><trkpt lat="45.744874105963824" lon="9.482234331665067"><ele>319.0</ele><time>2026-03-31T16:01:09.999Z</time></trkpt><trkpt lat="45.7448902304158" lon="9.482357860510822"><ele>319.0</ele><time>2026-03-31T16:01:10.999Z</time></trkpt><trkpt lat="45.74480760289705" lon="9.48253610725501"><ele>317.66666666666663</ele><time>2026-03-31T16:01:11.999Z</time></trkpt><trkpt lat="45.74479454863991" lon="9.482771927592621"><ele>316.3333333333333</ele><time>2026-03-31T16:01:12.999Z</time></trkpt><trkpt lat="45.744820745987795" lon="9.483016869177138"><ele>315.0</ele><time>2026-03-31T16:01:13.999Z</time></trkpt><trkpt lat="45.74488270938789" lon="9.483229157169418"><ele>315.0</ele><time>2026-03-31T16:01:14.999Z</time></trkpt><trkpt lat="45.74506021325133" lon="9.4833678858947"><ele>315.0</ele><time>2026-03-31T16:01:15.999Z</time></trkpt><trkpt lat="45.745202078360734" lon="9.48346877399135"><ele>315.0</ele><time>2026-03-31T16:01:16.999Z</time></trkpt><trkpt lat="45.7453781495947" lon="9.483529976810503"><ele>317.6666666666667</ele><time>2026-03-31T16:01:17.999Z</time></trkpt><trkpt lat="45.74555233237257" lon="9.483597479134247"><ele>320.33333333333337</ele><time>2026-03-31T16:01:18.999Z</time></trkpt><trkpt lat="45.74575213209665" lon="9.483639113796817"><ele>323.0</ele><time>2026-03-31T16:01:19.999Z</time></trkpt><trkpt lat="45.745952521655084" lon="9.483544813306795"><ele>325.6666666666667</ele><time>2026-03-31T16:01:20.999Z</time></trkpt><trkpt lat="45.74613388046617" lon="9.483556598322183"><ele>328.3333333333333</ele><time>2026-03-31T16:01:21.999Z</time></trkpt><trkpt lat="45.746279232050234" lon="9.483584660833317"><ele>331.0</ele><time>2026-03-31T16:01:22.999Z</time></trkpt><trkpt lat="45.74639921320026" lon="9.483639340183327"><ele>332.5</ele><time>2026-03-31T16:01:23.999Z</time></trkpt><trkpt lat="45.74648042900839" lon="9.483784446644414"><ele>334.0</ele><time>2026-03-31T16:01:24.999Z</time></trkpt><trkpt lat="45.74656478677112" lon="9.483907343328701"><ele>335.5</ele><time>2026-03-31T16:01:25.999Z</time></trkpt><trkpt lat="45.746632549574144" lon="9.484042737222625"><ele>337.0</ele><time>2026-03-31T16:01:26.999Z</time></trkpt><trkpt lat="45.7467195186064" lon="9.484188414255465"><ele>337.0</ele><time>2026-03-31T16:01:27.999Z</time></trkpt><trkpt lat="45.74681067685136" lon="9.484376064794885"><ele>337.0</ele><time>2026-03-31T16:01:28.999Z</time></trkpt><trkpt lat="45.74689806707837" lon="9.48455124475649"><ele>337.0</ele><time>2026-03-31T16:01:29.999Z</time></trkpt><trkpt lat="45.74699323114251" lon="9.484782723361631"><ele>339.5</ele><time>2026-03-31T16:01:30.999Z</time></trkpt><trkpt lat="45.747077923726515" lon="9.484986283676403"><ele>342.0</ele><time>2026-03-31T16:01:31.999Z</time></trkpt><trkpt lat="45.747143473296866" lon="9.485152547038378"><ele>344.5</ele><time>2026-03-31T16:01:32.999Z</time></trkpt><trkpt lat="45.7471603121254" lon="9.485313638109439"><ele>347.0</ele><time>2026-03-31T16:01:33.999Z</time></trkpt><trkpt lat="45.74719330396466" lon="9.485474346815732"><ele>347.0</ele><time>2026-03-31T16:01:34.999Z</time></trkpt><trkpt lat="45.74721895803078" lon="9.485608521184616"><ele>347.0</ele><time>2026-03-31T16:01:35.999Z</time></trkpt><trkpt lat="45.74728196566343" lon="9.48573827436161"><ele>347.0</ele><time>2026-03-31T16:01:36.999Z</time></trkpt><trkpt lat="45.74734972383774" lon="9.485819333757624"><ele>347.0</ele><time>2026-03-31T16:01:37.999Z</time></trkpt><trkpt lat="45.74745822312635" lon="9.48590288576186"><ele>347.0</ele><time>2026-03-31T16:01:38.999Z</time></trkpt><trkpt lat="45.747650644046296" lon="9.485933540426666"><ele>348.6666666666667</ele><time>2026-03-31T16:01:39.999Z</time></trkpt><trkpt lat="45.7478162423097" lon="9.485969344541806"><ele>350.3333333333333</ele><time>2026-03-31T16:01:40.999Z</time></trkpt><trkpt lat="45.74798786972331" lon="9.485990746856817"><ele>352.0</ele><time>2026-03-31T16:01:41.999Z</time></trkpt><trkpt lat="45.748156831019614" lon="9.486060708066333"><ele>352.0</ele><time>2026-03-31T16:01:42.999Z</time></trkpt><trkpt lat="45.748314072741394" lon="9.486185734568815"><ele>352.0</ele><time>2026-03-31T16:01:43.999Z</time></trkpt><trkpt lat="45.748445265994924" lon="9.486289713822323"><ele>352.0</ele><time>2026-03-31T16:01:44.999Z</time></trkpt><trkpt lat="45.74855093414632" lon="9.48635330266456"><ele>352.0</ele><time>2026-03-31T16:01:45.999Z</time></trkpt><trkpt lat="45.74866395611138" lon="9.48638689158408"><ele>350.75</ele><time>2026-03-31T16:01:46.999Z</time></trkpt><trkpt lat="45.74877188151467" lon="9.486364042203961"><ele>349.5</ele><time>2026-03-31T16:01:47.999Z</time></trkpt><trkpt lat="45.748898728210236" lon="9.486280826380332"><ele>348.25</ele><time>2026-03-31T16:01:48.999Z</time></trkpt><trkpt lat="45.74902135925293" lon="9.486147954342204"><ele>347.0</ele><time>2026-03-31T16:01:49.999Z</time></trkpt><trkpt lat="45.74914274393456" lon="9.48597903856569"><ele>347.0</ele><time>2026-03-31T16:01:51Z</time></trkpt><trkpt lat="45.74925587169852" lon="9.48576361539436"><ele>347.0</ele><time>2026-03-31T16:01:52Z</time></trkpt><trkpt lat="45.74936016672626" lon="9.48551907769887"><ele>347.0</ele><time>2026-03-31T16:01:53Z</time></trkpt><trkpt lat="45.74943784584884" lon="9.485250943489525"><ele>347.33333333333337</ele><time>2026-03-31T16:01:54Z</time></trkpt><trkpt lat="45.749509122953285" lon="9.484964987351358"><ele>347.6666666666667</ele><time>2026-03-31T16:01:55Z</time></trkpt><trkpt lat="45.74960474596643" lon="9.484685931897012"><ele>348.0</ele><time>2026-03-31T16:01:56Z</time></trkpt><trkpt lat="45.74971197965153" lon="9.484440638162951"><ele>348.3333333333333</ele><time>2026-03-31T16:01:57Z</time></trkpt><trkpt lat="45.74982206675237" lon="9.484224323750182"><ele>348.66666666666663</ele><time>2026-03-31T16:01:58Z</time></trkpt><trkpt lat="45.74989644926722" lon="9.48399944675093"><ele>349.0</ele><time>2026-03-31T16:01:59Z</time></trkpt><trkpt lat="45.750000960928425" lon="9.483746608195425"><ele>350.0</ele><time>2026-03-31T16:02:00Z</time></trkpt><trkpt lat="45.750115818401135" lon="9.483473700239832"><ele>351.0</ele><time>2026-03-31T16:02:01Z</time></trkpt><trkpt lat="45.75022259826692" lon="9.483176290992786"><ele>349.6666666666667</ele><time>2026-03-31T16:02:02Z</time></trkpt><trkpt lat="45.75033429480054" lon="9.482882404563096"><ele>348.33333333333337</ele><time>2026-03-31T16:02:03Z</time></trkpt><trkpt lat="45.750442835117525" lon="9.482618150738913"><ele>347.0</ele><time>2026-03-31T16:02:04Z</time></trkpt><trkpt lat="45.75054546669239" lon="9.48238629060112"><ele>347.0</ele><time>2026-03-31T16:02:05Z</time></trkpt><trkpt lat="45.75064081955883" lon="9.48219737359931"><ele>347.0</ele><time>2026-03-31T16:02:06Z</time></trkpt><trkpt lat="45.75073614537103" lon="9.482033214404058"><ele>347.0</ele><time>2026-03-31T16:02:07Z</time></trkpt><trkpt lat="45.75087034374387" lon="9.48190304973015"><ele>348.33333333333337</ele><time>2026-03-31T16:02:08Z</time></trkpt><trkpt lat="45.75103199527777" lon="9.4818060247639"><ele>349.6666666666667</ele><time>2026-03-31T16:02:09Z</time></trkpt><trkpt lat="45.751203277871724" lon="9.481756266984956"><ele>351.0</ele><time>2026-03-31T16:02:10Z</time></trkpt><trkpt lat="45.751382346700865" lon="9.481752674931073"><ele>351.0</ele><time>2026-03-31T16:02:11Z</time></trkpt><trkpt lat="45.75157735534858" lon="9.48176682248654"><ele>351.0</ele><time>2026-03-31T16:02:12Z</time></trkpt><trkpt lat="45.75178531687872" lon="9.48178759152271"><ele>351.0</ele><time>2026-03-31T16:02:13Z</time></trkpt><trkpt lat="45.75198545116052" lon="9.481775947398495"><ele>352.0</ele><time>2026-03-31T16:02:14Z</time></trkpt><trkpt lat="45.7522059971261" lon="9.481770028272518"><ele>353.0</ele><time>2026-03-31T16:02:15Z</time></trkpt><trkpt lat="45.752439468080674" lon="9.481766952914295"><ele>353.0</ele><time>2026-03-31T16:02:16Z</time></trkpt><trkpt lat="45.75267483105694" lon="9.481765623117056"><ele>353.0</ele><time>2026-03-31T16:02:17Z</time></trkpt><trkpt lat="45.75293197920242" lon="9.481727753457601"><ele>355.0</ele><time>2026-03-31T16:02:18Z</time></trkpt><trkpt lat="45.75317806112333" lon="9.481734728991952"><ele>357.0</ele><time>2026-03-31T16:02:19Z</time></trkpt><trkpt lat="45.75340525744188" lon="9.481720413415326"><ele>359.3333333333333</ele><time>2026-03-31T16:02:20Z</time></trkpt><trkpt lat="45.7536070381366" lon="9.481705914661346"><ele>361.66666666666663</ele><time>2026-03-31T16:02:21Z</time></trkpt><trkpt lat="45.753769814928596" lon="9.481673601123637"><ele>364.0</ele><time>2026-03-31T16:02:22Z</time></trkpt><trkpt lat="45.753902017053605" lon="9.48166040278588"><ele>364.0</ele><time>2026-03-31T16:02:23Z</time></trkpt><trkpt lat="45.75402395113102" lon="9.481566306060891"><ele>364.0</ele><time>2026-03-31T16:02:24Z</time></trkpt><trkpt lat="45.754162360719064" lon="9.481445042557564"><ele>364.0</ele><time>2026-03-31T16:02:25Z</time></trkpt><trkpt lat="45.75426507870532" lon="9.481363720928309"><ele>364.0</ele><time>2026-03-31T16:02:26Z</time></trkpt><trkpt lat="45.75435194176342" lon="9.481336806906127"><ele>367.0</ele><time>2026-03-31T16:02:27Z</time></trkpt><trkpt lat="45.75447078601742" lon="9.481401022540409"><ele>370.0</ele><time>2026-03-31T16:02:28Z</time></trkpt><trkpt lat="45.75463230662145" lon="9.481416688621975"><ele>373.0</ele><time>2026-03-31T16:02:29Z</time></trkpt><trkpt lat="45.754818596035" lon="9.481419930879172"><ele>373.0</ele><time>2026-03-31T16:02:30Z</time></trkpt><trkpt lat="45.755012698683196" lon="9.481379349022225"><ele>373.0</ele><time>2026-03-31T16:02:31Z</time></trkpt><trkpt lat="45.7552168038207" lon="9.48130923032858"><ele>373.0</ele><time>2026-03-31T16:02:32Z</time></trkpt><trkpt lat="45.75541947007368" lon="9.481279727248937"><ele>361.0</ele><time>2026-03-31T16:02:33Z</time></trkpt><trkpt lat="45.75565073387657" lon="9.481249914972391"><ele>349.0</ele><time>2026-03-31T16:02:34Z</time></trkpt><trkpt lat="45.75590449997675" lon="9.481203146947587"><ele>351.5</ele><time>2026-03-31T16:02:35Z</time></trkpt><trkpt lat="45.75613829771731" lon="9.481156642799569"><ele>354.0</ele><time>2026-03-31T16:02:36Z</time></trkpt><trkpt lat="45.75636108800117" lon="9.48108612887907"><ele>354.0</ele><time>2026-03-31T16:02:37Z</time></trkpt><trkpt lat="45.75657700924212" lon="9.480952125712236"><ele>354.0</ele><time>2026-03-31T16:02:38Z</time></trkpt><trkpt lat="45.756762953572846" lon="9.480856229708534"><ele>354.0</ele><time>2026-03-31T16:02:39Z</time></trkpt><trkpt lat="45.75692862741872" lon="9.480745610655344"><ele>355.0</ele><time>2026-03-31T16:02:40Z</time></trkpt><trkpt lat="45.7570959818904" lon="9.480649950884601"><ele>356.0</ele><time>2026-03-31T16:02:41Z</time></trkpt><trkpt lat="45.75727388191867" lon="9.480573984446133"><ele>357.0</ele><time>2026-03-31T16:02:42Z</time></trkpt><trkpt lat="45.757468882190786" lon="9.480562286020477"><ele>357.0</ele><time>2026-03-31T16:02:43Z</time></trkpt><trkpt lat="45.75768055384538" lon="9.480591583187001"><ele>357.0</ele><time>2026-03-31T16:02:44Z</time></trkpt><trkpt lat="45.75790740532981" lon="9.48063903406711"><ele>357.0</ele><time>2026-03-31T16:02:45Z</time></trkpt><trkpt lat="45.75813306832056" lon="9.48066765525565"><ele>356.6666666666667</ele><time>2026-03-31T16:02:46Z</time></trkpt><trkpt lat="45.75833474166744" lon="9.480685014152156"><ele>356.33333333333337</ele><time>2026-03-31T16:02:47Z</time></trkpt><trkpt lat="45.75852560920876" lon="9.480715877981027"><ele>356.0</ele><time>2026-03-31T16:02:48Z</time></trkpt><trkpt lat="45.758706028789774" lon="9.4807841591332"><ele>354.0</ele><time>2026-03-31T16:02:49Z</time></trkpt><trkpt lat="45.75889007645299" lon="9.480898450513783"><ele>352.0</ele><time>2026-03-31T16:02:50Z</time></trkpt><trkpt lat="45.759030191494254" lon="9.480949003018171"><ele>350.0</ele><time>2026-03-31T16:02:51Z</time></trkpt><trkpt lat="45.759180567439365" lon="9.481045911344225"><ele>350.0</ele><time>2026-03-31T16:02:52Z</time></trkpt><trkpt lat="45.75930377882912" lon="9.481150262914177"><ele>350.0</ele><time>2026-03-31T16:02:52.999Z</time></trkpt><trkpt lat="45.759437921763876" lon="9.481235837385015"><ele>350.0</ele><time>2026-03-31T16:02:53.999Z</time></trkpt><trkpt lat="45.75955137466846" lon="9.48133133302864"><ele>350.0</ele><time>2026-03-31T16:02:54.999Z</time></trkpt><trkpt lat="45.759649145819544" lon="9.481411409612901"><ele>354.25</ele><time>2026-03-31T16:02:55.999Z</time></trkpt><trkpt lat="45.759762781689176" lon="9.481482598796822"><ele>358.5</ele><time>2026-03-31T16:02:56.999Z</time></trkpt><trkpt lat="45.75987466927549" lon="9.481504745136041"><ele>362.75</ele><time>2026-03-31T16:02:57.999Z</time></trkpt><trkpt lat="45.75998310228613" lon="9.48144051447574"><ele>367.0</ele><time>2026-03-31T16:02:58.999Z</time></trkpt><trkpt lat="45.76014897023541" lon="9.481339752799254"><ele>364.5</ele><time>2026-03-31T16:02:59.999Z</time></trkpt><trkpt lat="45.76029102747142" lon="9.481285499473637"><ele>362.0</ele><time>2026-03-31T16:03:00.999Z</time></trkpt><trkpt lat="45.76044290568107" lon="9.481340588570925"><ele>359.5</ele><time>2026-03-31T16:03:01.999Z</time></trkpt><trkpt lat="45.760576948092314" lon="9.481396566789984"><ele>357.0</ele><time>2026-03-31T16:03:02.999Z</time></trkpt><trkpt lat="45.76069964915841" lon="9.481517181385561"><ele>357.0</ele><time>2026-03-31T16:03:03.999Z</time></trkpt><trkpt lat="45.760796801274886" lon="9.481595329639953"><ele>357.0</ele><time>2026-03-31T16:03:04.999Z</time></trkpt><trkpt lat="45.76090096121177" lon="9.481718916323505"><ele>357.0</ele><time>2026-03-31T16:03:06.999Z</time></trkpt><trkpt lat="45.761039610697004" lon="9.481847412544525"><ele>357.0</ele><time>2026-03-31T16:03:07.999Z</time></trkpt><trkpt lat="45.76119357325886" lon="9.481928764429489"><ele>354.0</ele><time>2026-03-31T16:03:08.999Z</time></trkpt><trkpt lat="45.76136843407342" lon="9.4819602345015"><ele>351.0</ele><time>2026-03-31T16:03:09.999Z</time></trkpt><trkpt lat="45.7615342236863" lon="9.481971596496898"><ele>348.0</ele><time>2026-03-31T16:03:10.999Z</time></trkpt><trkpt lat="45.76169671482103" lon="9.48201208160495"><ele>348.0</ele><time>2026-03-31T16:03:11.999Z</time></trkpt><trkpt lat="45.76185359392319" lon="9.482016909727841"><ele>348.0</ele><time>2026-03-31T16:03:12.999Z</time></trkpt><trkpt lat="45.762001128297165" lon="9.481989236045367"><ele>348.0</ele><time>2026-03-31T16:03:13.999Z</time></trkpt><trkpt lat="45.76217023440039" lon="9.481946818068364"><ele>348.3333333333333</ele><time>2026-03-31T16:03:14.999Z</time></trkpt><trkpt lat="45.76234837491962" lon="9.481907631684095"><ele>348.66666666666663</ele><time>2026-03-31T16:03:15.999Z</time></trkpt><trkpt lat="45.76253018747859" lon="9.481862253409236"><ele>349.0</ele><time>2026-03-31T16:03:16.999Z</time></trkpt><trkpt lat="45.76270163806685" lon="9.481801495491077"><ele>347.5</ele><time>2026-03-31T16:03:17.999Z</time></trkpt><trkpt lat="45.76285006999344" lon="9.481746163794789"><ele>346.0</ele><time>2026-03-31T16:03:18.999Z</time></trkpt><trkpt lat="45.762980524502794" lon="9.481660612117576"><ele>344.5</ele><time>2026-03-31T16:03:19.999Z</time></trkpt><trkpt lat="45.763101768526354" lon="9.481594917150897"><ele>343.0</ele><time>2026-03-31T16:03:20.999Z</time></trkpt><trkpt lat="45.76321011803218" lon="9.481519103539952"><ele>343.0</ele><time>2026-03-31T16:03:21.999Z</time></trkpt><trkpt lat="45.76332698858335" lon="9.481452742301075"><ele>343.0</ele><time>2026-03-31T16:03:22.999Z</time></trkpt><trkpt lat="45.76346835332185" lon="9.4813955314047"><ele>343.0</ele><time>2026-03-31T16:03:23.999Z</time></trkpt><trkpt lat="45.763593364004436" lon="9.481314518279396"><ele>343.0</ele><time>2026-03-31T16:03:24.999Z</time></trkpt><trkpt lat="45.763731530328684" lon="9.48121994932511"><ele>345.75</ele><time>2026-03-31T16:03:25.999Z</time></trkpt><trkpt lat="45.76386324377069" lon="9.481137404784057"><ele>348.5</ele><time>2026-03-31T16:03:26.999Z</time></trkpt><trkpt lat="45.76399985171529" lon="9.48106955197107"><ele>351.25</ele><time>2026-03-31T16:03:27.999Z</time></trkpt><trkpt lat="45.76411828974361" lon="9.480986642879074"><ele>354.0</ele><time>2026-03-31T16:03:28.999Z</time></trkpt><trkpt lat="45.764257559742056" lon="9.480920573931401"><ele>354.3333333333333</ele><time>2026-03-31T16:03:29.999Z</time></trkpt><trkpt lat="45.76443257145292" lon="9.480869799471234"><ele>354.66666666666663</ele><time>2026-03-31T16:03:30.999Z</time></trkpt><trkpt lat="45.76461222757345" lon="9.480824462756543"><ele>355.0</ele><time>2026-03-31T16:03:31.999Z</time></trkpt><trkpt lat="45.76480254336331" lon="9.480832039288433"><ele>355.0</ele><time>2026-03-31T16:03:32.999Z</time></trkpt><trkpt lat="45.76499732930305" lon="9.480851289888355"><ele>355.0</ele><time>2026-03-31T16:03:33.999Z</time></trkpt><trkpt lat="45.76517253985693" lon="9.480874966217161"><ele>355.0</ele><time>2026-03-31T16:03:34.999Z</time></trkpt><trkpt lat="45.76536780437616" lon="9.480867603272788"><ele>356.66666666666663</ele><time>2026-03-31T16:03:35.999Z</time></trkpt><trkpt lat="45.76555868679878" lon="9.480792139231825"><ele>358.3333333333333</ele><time>2026-03-31T16:03:36.999Z</time></trkpt><trkpt lat="45.7657478557648" lon="9.48067217617709"><ele>360.0</ele><time>2026-03-31T16:03:37.999Z</time></trkpt><trkpt lat="45.76594972842865" lon="9.480511969565757"><ele>359.5</ele><time>2026-03-31T16:03:38.999Z</time></trkpt><trkpt lat="45.76614682559417" lon="9.480361503699186"><ele>359.0</ele><time>2026-03-31T16:03:39.999Z</time></trkpt><trkpt lat="45.76635407699935" lon="9.480180099498929"><ele>359.0</ele><time>2026-03-31T16:03:40.999Z</time></trkpt><trkpt lat="45.76657624830065" lon="9.48001306411185"><ele>359.0</ele><time>2026-03-31T16:03:41.999Z</time></trkpt><trkpt lat="45.7668138631826" lon="9.479862185908813"><ele>360.5</ele><time>2026-03-31T16:03:42.999Z</time></trkpt><trkpt lat="45.767058259768646" lon="9.479702407939008"><ele>362.0</ele><time>2026-03-31T16:03:43.999Z</time></trkpt><trkpt lat="45.76730105619612" lon="9.47954841698084"><ele>362.0</ele><time>2026-03-31T16:03:44.999Z</time></trkpt><trkpt lat="45.76750632882797" lon="9.47939643175579"><ele>362.0</ele><time>2026-03-31T16:03:45.999Z</time></trkpt><trkpt lat="45.76769594101966" lon="9.479260265377057"><ele>362.0</ele><time>2026-03-31T16:03:46.999Z</time></trkpt><trkpt lat="45.767872232227305" lon="9.479115256411305"><ele>362.0</ele><time>2026-03-31T16:03:47.999Z</time></trkpt><trkpt lat="45.76805406868708" lon="9.478991165396922"><ele>362.0</ele><time>2026-03-31T16:03:48.999Z</time></trkpt><trkpt lat="45.76823572098638" lon="9.478839291466679"><ele>362.0</ele><time>2026-03-31T16:03:49.999Z</time></trkpt><trkpt lat="45.76841867701699" lon="9.478689601423754"><ele>362.0</ele><time>2026-03-31T16:03:50.999Z</time></trkpt><trkpt lat="45.76860193758611" lon="9.47856593787056"><ele>362.0</ele><time>2026-03-31T16:03:51.999Z</time></trkpt><trkpt lat="45.76876006412321" lon="9.478488032409583"><ele>362.0</ele><time>2026-03-31T16:03:52.999Z</time></trkpt><trkpt lat="45.76890070786141" lon="9.478406052335403"><ele>362.0</ele><time>2026-03-31T16:03:53.999Z</time></trkpt><trkpt lat="45.76903601673477" lon="9.478333092420806"><ele>362.0</ele><time>2026-03-31T16:03:54.999Z</time></trkpt><trkpt lat="45.76916145978319" lon="9.478213934945277"><ele>362.0</ele><time>2026-03-31T16:03:55.999Z</time></trkpt><trkpt lat="45.769287759833944" lon="9.478095050920535"><ele>362.0</ele><time>2026-03-31T16:03:57Z</time></trkpt><trkpt lat="45.769414925523705" lon="9.47796546993574"><ele>364.75</ele><time>2026-03-31T16:03:58Z</time></trkpt><trkpt lat="45.76953870807152" lon="9.477859860623418"><ele>367.5</ele><time>2026-03-31T16:03:59Z</time></trkpt><trkpt lat="45.76963329464784" lon="9.477746436675318"><ele>370.25</ele><time>2026-03-31T16:04:00Z</time></trkpt><trkpt lat="45.769723236394114" lon="9.477674288265087"><ele>373.0</ele><time>2026-03-31T16:04:01Z</time></trkpt><trkpt lat="45.76982179476056" lon="9.477583509506463"><ele>373.0</ele><time>2026-03-31T16:04:02Z</time></trkpt><trkpt lat="45.76993598572596" lon="9.477484453884571"><ele>373.0</ele><time>2026-03-31T16:04:03Z</time></trkpt><trkpt lat="45.77008083663308" lon="9.477407872926978"><ele>373.0</ele><time>2026-03-31T16:04:04Z</time></trkpt><trkpt lat="45.770192421753826" lon="9.477316180518871"><ele>373.0</ele><time>2026-03-31T16:04:05Z</time></trkpt><trkpt lat="45.77029319737612" lon="9.477202892902719"><ele>372.8333333333333</ele><time>2026-03-31T16:04:06Z</time></trkpt><trkpt lat="45.77036133648345" lon="9.477121366949708"><ele>372.66666666666663</ele><time>2026-03-31T16:04:07Z</time></trkpt><trkpt lat="45.77041657188142" lon="9.477058761015778"><ele>372.5</ele><time>2026-03-31T16:04:08Z</time></trkpt><trkpt lat="45.77046397636949" lon="9.476995913223165"><ele>372.3333333333333</ele><time>2026-03-31T16:04:09Z</time></trkpt><trkpt lat="45.77053898892857" lon="9.476925446298653"><ele>372.1666666666667</ele><time>2026-03-31T16:04:10Z</time></trkpt><trkpt lat="45.77062028206354" lon="9.476831344249266"><ele>372.0</ele><time>2026-03-31T16:04:12Z</time></trkpt><trkpt lat="45.770723281814305" lon="9.47693910339084"><ele>372.0</ele><time>2026-03-31T16:04:14Z</time></trkpt><trkpt lat="45.77080567149759" lon="9.47701376823273"><ele>372.0</ele><time>2026-03-31T16:04:15Z</time></trkpt><trkpt lat="45.770853822392304" lon="9.477097388033071"><ele>372.0</ele><time>2026-03-31T16:04:16Z</time></trkpt><trkpt lat="45.77090046099611" lon="9.477167140507191"><ele>372.0</ele><time>2026-03-31T16:04:17Z</time></trkpt><trkpt lat="45.77096072433145" lon="9.477290544341923"><ele>372.0</ele><time>2026-03-31T16:04:18Z</time></trkpt><trkpt lat="45.77099236306049" lon="9.477404787442229"><ele>372.0</ele><time>2026-03-31T16:04:19Z</time></trkpt><trkpt lat="45.77103607253801" lon="9.477692223492861"><ele>378.5</ele><time>2026-03-31T16:04:20Z</time></trkpt><trkpt lat="45.77089352559235" lon="9.478181864599255"><ele>385.0</ele><time>2026-03-31T16:04:21Z</time></trkpt><trkpt lat="45.770798016002296" lon="9.478316078313368"><ele>385.0</ele><time>2026-03-31T16:04:22Z</time></trkpt><trkpt lat="45.77072992582416" lon="9.478402799442035"><ele>385.0</ele><time>2026-03-31T16:04:23Z</time></trkpt><trkpt lat="45.770679913699176" lon="9.478463753209358"><ele>385.0</ele><time>2026-03-31T16:04:25Z</time></trkpt><trkpt lat="45.77056051121849" lon="9.478102763658486"><ele>385.0</ele><time>2026-03-31T16:04:27Z</time></trkpt><trkpt lat="45.770633906958516" lon="9.4780417081564"><ele>385.0</ele><time>2026-03-31T16:04:28Z</time></trkpt><trkpt lat="45.77070369134333" lon="9.477944265489194"><ele>385.0</ele><time>2026-03-31T16:04:29Z</time></trkpt><trkpt lat="45.770774277645465" lon="9.47782690521913"><ele>385.0</ele><time>2026-03-31T16:04:30Z</time></trkpt><trkpt lat="45.77084225264799" lon="9.477709964904786"><ele>385.0</ele><time>2026-03-31T16:04:31Z</time></trkpt><trkpt lat="45.7708972934505" lon="9.477580387112358"><ele>385.0</ele><time>2026-03-31T16:04:32Z</time></trkpt><trkpt lat="45.77089116792725" lon="9.477436166642406"><ele>382.0</ele><time>2026-03-31T16:04:34Z</time></trkpt><trkpt lat="45.770840807265486" lon="9.47738111089272"><ele>379.0</ele><time>2026-03-31T16:04:35Z</time></trkpt><trkpt lat="45.770763327327664" lon="9.477409010702642"><ele>376.0</ele><time>2026-03-31T16:04:36Z</time></trkpt><trkpt lat="45.77070537637615" lon="9.477456033013913"><ele>373.0</ele><time>2026-03-31T16:04:37Z</time></trkpt><trkpt lat="45.77063432392053" lon="9.47759680554365"><ele>370.0</ele><time>2026-03-31T16:04:38Z</time></trkpt><trkpt lat="45.77055863099558" lon="9.477740367643923"><ele>370.0</ele><time>2026-03-31T16:04:39Z</time></trkpt><trkpt lat="45.77048677427625" lon="9.477857968029415"><ele>370.0</ele><time>2026-03-31T16:04:40Z</time></trkpt><trkpt lat="45.77042020615576" lon="9.47795698131656"><ele>370.0</ele><time>2026-03-31T16:04:41Z</time></trkpt><trkpt lat="45.77037691410022" lon="9.478023499455086"><ele>370.0</ele><time>2026-03-31T16:04:42Z</time></trkpt><trkpt lat="45.770450715379" lon="9.478135881972538"><ele>370.0</ele><time>2026-03-31T16:04:45Z</time></trkpt><trkpt lat="45.77060903442706" lon="9.477911721681632"><ele>370.0</ele><time>2026-03-31T16:04:48Z</time></trkpt><trkpt lat="45.77066640835912" lon="9.477794525154904"><ele>370.0</ele><time>2026-03-31T16:04:49Z</time></trkpt><trkpt lat="45.77075513342412" lon="9.477630089140826"><ele>370.0</ele><time>2026-03-31T16:04:50Z</time></trkpt><trkpt lat="45.77078356791073" lon="9.477470271003455"><ele>370.0</ele><time>2026-03-31T16:04:51Z</time></trkpt><trkpt lat="45.77082260378309" lon="9.47734570242692"><ele>370.0</ele><time>2026-03-31T16:04:52Z</time></trkpt><trkpt lat="45.77084171495775" lon="9.47724109142865"><ele>370.0</ele><time>2026-03-31T16:04:53Z</time></trkpt><trkpt lat="45.77088598755041" lon="9.477158854910341"><ele>370.0</ele><time>2026-03-31T16:04:55Z</time></trkpt><trkpt lat="45.770968467692654" lon="9.477184914325086"><ele>370.0</ele><time>2026-03-31T16:04:58Z</time></trkpt><trkpt lat="45.770970037862085" lon="9.477322076977522"><ele>370.0</ele><time>2026-03-31T16:05:00.999Z</time></trkpt><trkpt lat="45.77099476100316" lon="9.478212200876367"><ele>375.0</ele><time>2026-03-31T16:05:03.999Z</time></trkpt><trkpt lat="45.77095944754293" lon="9.478425852359132"><ele>380.0</ele><time>2026-03-31T16:05:04.999Z</time></trkpt><trkpt lat="45.770685363276606" lon="9.478462861747364"><ele>385.0</ele><time>2026-03-31T16:05:05.999Z</time></trkpt><trkpt lat="45.77058278389736" lon="9.478610639547627"><ele>385.0</ele><time>2026-03-31T16:05:06.999Z</time></trkpt><trkpt lat="45.770453074317196" lon="9.478763873893987"><ele>385.0</ele><time>2026-03-31T16:05:07.999Z</time></trkpt><trkpt lat="45.770316418822844" lon="9.478922996471324"><ele>385.0</ele><time>2026-03-31T16:05:08.999Z</time></trkpt><trkpt lat="45.77018386927621" lon="9.479075469628736"><ele>387.0</ele><time>2026-03-31T16:05:09.999Z</time></trkpt><trkpt lat="45.77004360451949" lon="9.479234831721374"><ele>389.0</ele><time>2026-03-31T16:05:10.999Z</time></trkpt><trkpt lat="45.769919226684806" lon="9.47937189269465"><ele>391.0</ele><time>2026-03-31T16:05:11.999Z</time></trkpt><trkpt lat="45.76983215732031" lon="9.479473409783818"><ele>393.0</ele><time>2026-03-31T16:05:12.999Z</time></trkpt><trkpt lat="45.769748486015466" lon="9.479585254885997"><ele>396.4</ele><time>2026-03-31T16:05:13.999Z</time></trkpt><trkpt lat="45.769707162934566" lon="9.47967452613408"><ele>399.79999999999995</ele><time>2026-03-31T16:05:14.999Z</time></trkpt><trkpt lat="45.7696909563978" lon="9.479886478812523"><ele>403.2</ele><time>2026-03-31T16:05:16.999Z</time></trkpt><trkpt lat="45.769732466870046" lon="9.480007307630576"><ele>406.6</ele><time>2026-03-31T16:05:17.999Z</time></trkpt><trkpt lat="45.76978121546693" lon="9.480113752274413"><ele>410.0</ele><time>2026-03-31T16:05:18.999Z</time></trkpt><trkpt lat="45.76979437198945" lon="9.480203054874636"><ele>410.0</ele><time>2026-03-31T16:05:19.999Z</time></trkpt><trkpt lat="45.769799363672895" lon="9.480338756631305"><ele>410.0</ele><time>2026-03-31T16:05:21.999Z</time></trkpt><trkpt lat="45.76987346237059" lon="9.480420303170584"><ele>410.0</ele><time>2026-03-31T16:05:24.999Z</time></trkpt><trkpt lat="45.76995975738428" lon="9.480350708931576"><ele>410.0</ele><time>2026-03-31T16:05:25.999Z</time></trkpt><trkpt lat="45.76998722848438" lon="9.480262398963951"><ele>410.0</ele><time>2026-03-31T16:05:26.999Z</time></trkpt><trkpt lat="45.77008668442635" lon="9.480104293683995"><ele>412.0</ele><time>2026-03-31T16:05:28.999Z</time></trkpt><trkpt lat="45.77019868669019" lon="9.480000016359812"><ele>414.0</ele><time>2026-03-31T16:05:30.999Z</time></trkpt><trkpt lat="45.77031010722524" lon="9.479930021642293"><ele>416.0</ele><time>2026-03-31T16:05:32.999Z</time></trkpt><trkpt lat="45.77039403734862" lon="9.47991040330556"><ele>418.0</ele><time>2026-03-31T16:05:34.999Z</time></trkpt><trkpt lat="45.77046241360736" lon="9.479888589510123"><ele>420.0</ele><time>2026-03-31T16:05:35.999Z</time></trkpt><trkpt lat="45.770838920615326" lon="9.47988302520602"><ele>426.5</ele><time>2026-03-31T16:05:39.999Z</time></trkpt><trkpt lat="45.77116907809866" lon="9.479885314654595"><ele>433.0</ele><time>2026-03-31T16:05:42.999Z</time></trkpt><trkpt lat="45.771294525540235" lon="9.479887138094124"><ele>433.0</ele><time>2026-03-31T16:05:43.999Z</time></trkpt><trkpt lat="45.77142517878835" lon="9.479885328753378"><ele>433.0</ele><time>2026-03-31T16:05:44.999Z</time></trkpt><trkpt lat="45.77154816576247" lon="9.47985950769564"><ele>433.0</ele><time>2026-03-31T16:05:45.999Z</time></trkpt><trkpt lat="45.7716529666413" lon="9.479808415277558"><ele>433.0</ele><time>2026-03-31T16:05:46.999Z</time></trkpt><trkpt lat="45.771757635438625" lon="9.479760592581817"><ele>433.0</ele><time>2026-03-31T16:05:47.999Z</time></trkpt><trkpt lat="45.77183993489611" lon="9.47973663367096"><ele>432.99999999999994</ele><time>2026-03-31T16:05:48.999Z</time></trkpt><trkpt lat="45.77191153669493" lon="9.47976978486219"><ele>432.99999999999994</ele><time>2026-03-31T16:05:49.999Z</time></trkpt><trkpt lat="45.77197656046148" lon="9.479768765325378"><ele>433.0</ele><time>2026-03-31T16:05:50.999Z</time></trkpt><trkpt lat="45.77197537133416" lon="9.479873148669068"><ele>433.0</ele><time>2026-03-31T16:05:51.999Z</time></trkpt><trkpt lat="45.77182159999452" lon="9.47997391037381"><ele>433.0</ele><time>2026-03-31T16:05:53.999Z</time></trkpt><trkpt lat="45.77171422655937" lon="9.480082708205392"><ele>432.99999999999994</ele><time>2026-03-31T16:05:54.999Z</time></trkpt><trkpt lat="45.77166231810275" lon="9.480206610754244"><ele>432.99999999999994</ele><time>2026-03-31T16:05:55.999Z</time></trkpt><trkpt lat="45.771613631950615" lon="9.480361529379856"><ele>433.0</ele><time>2026-03-31T16:05:56.999Z</time></trkpt><trkpt lat="45.77158905139639" lon="9.480478419873272"><ele>433.0</ele><time>2026-03-31T16:05:57.999Z</time></trkpt><trkpt lat="45.77156279907233" lon="9.480639498324509"><ele>434.83333333333337</ele><time>2026-03-31T16:06:01.999Z</time></trkpt><trkpt lat="45.77154740359171" lon="9.480733622688318"><ele>436.6666666666667</ele><time>2026-03-31T16:06:03Z</time></trkpt><trkpt lat="45.771515076185516" lon="9.480861976002812"><ele>438.5</ele><time>2026-03-31T16:06:04Z</time></trkpt><trkpt lat="45.771518986987815" lon="9.480996033199569"><ele>440.33333333333337</ele><time>2026-03-31T16:06:05Z</time></trkpt><trkpt lat="45.77152283753023" lon="9.481128023225928"><ele>442.1666666666667</ele><time>2026-03-31T16:06:06Z</time></trkpt><trkpt lat="45.77153372953506" lon="9.481245122167483"><ele>444.0</ele><time>2026-03-31T16:06:07Z</time></trkpt><trkpt lat="45.77153035652836" lon="9.481367592574294"><ele>444.0</ele><time>2026-03-31T16:06:09Z</time></trkpt><trkpt lat="45.771460745798436" lon="9.48124519965981"><ele>444.0</ele><time>2026-03-31T16:06:11Z</time></trkpt><trkpt lat="45.771373086267104" lon="9.481257856707968"><ele>444.0</ele><time>2026-03-31T16:06:12Z</time></trkpt><trkpt lat="45.77125960415507" lon="9.48129068999219"><ele>444.0</ele><time>2026-03-31T16:06:14Z</time></trkpt><trkpt lat="45.7711720695211" lon="9.481358622406525"><ele>444.0</ele><time>2026-03-31T16:06:15Z</time></trkpt><trkpt lat="45.771123622890585" lon="9.481447281829544"><ele>445.3333333333333</ele><time>2026-03-31T16:06:16Z</time></trkpt><trkpt lat="45.77108276760685" lon="9.481519000378702"><ele>446.66666666666663</ele><time>2026-03-31T16:06:18Z</time></trkpt><trkpt lat="45.771015502294475" lon="9.481522784997855"><ele>448.0</ele><time>2026-03-31T16:06:20Z</time></trkpt><trkpt lat="45.77092191622546" lon="9.481445624002053"><ele>449.3333333333333</ele><time>2026-03-31T16:06:22Z</time></trkpt><trkpt lat="45.77088239305009" lon="9.481331893024699"><ele>450.66666666666663</ele><time>2026-03-31T16:06:24Z</time></trkpt><trkpt lat="45.770775461347" lon="9.481303460681197"><ele>452.0</ele><time>2026-03-31T16:06:26Z</time></trkpt><trkpt lat="45.77070053338777" lon="9.481314343453619"><ele>451.99999999999994</ele><time>2026-03-31T16:06:27Z</time></trkpt><trkpt lat="45.77061500927363" lon="9.481384136970686"><ele>452.0</ele><time>2026-03-31T16:06:29Z</time></trkpt><trkpt lat="45.770545766671155" lon="9.481394479396764"><ele>452.0</ele><time>2026-03-31T16:06:31Z</time></trkpt><trkpt lat="45.770463870296965" lon="9.481391331702957"><ele>452.0</ele><time>2026-03-31T16:06:33Z</time></trkpt><trkpt lat="45.77037950932522" lon="9.48139881336941"><ele>451.99999999999994</ele><time>2026-03-31T16:06:34Z</time></trkpt><trkpt lat="45.770296794703846" lon="9.481406490812871"><ele>452.0</ele><time>2026-03-31T16:06:36Z</time></trkpt><trkpt lat="45.770293595865105" lon="9.481622755801345"><ele>452.0</ele><time>2026-03-31T16:06:41Z</time></trkpt><trkpt lat="45.770234206176134" lon="9.48167885432163"><ele>452.00000000000006</ele><time>2026-03-31T16:06:43Z</time></trkpt><trkpt lat="45.770167551427406" lon="9.481735581257361"><ele>452.00000000000006</ele><time>2026-03-31T16:07:35.999Z</time></trkpt><trkpt lat="45.770119566220494" lon="9.481857924549356"><ele>452.0</ele><time>2026-03-31T16:07:47.999Z</time></trkpt><trkpt lat="45.77013017328583" lon="9.48196944787137"><ele>452.0</ele><time>2026-03-31T16:09:34.999Z</time></trkpt><trkpt lat="45.77021173855858" lon="9.481768335988951"><ele>452.0</ele><time>2026-03-31T16:11:42.41Z</time></trkpt><trkpt lat="45.77033621625998" lon="9.48179057951194"><ele>452.00000000000006</ele><time>2026-03-31T16:25:36.999Z</time></trkpt><trkpt lat="45.77026331465773" lon="9.481790900360826"><ele>452.00000000000006</ele><time>2026-03-31T16:28:05.999Z</time></trkpt><trkpt lat="45.770223860911535" lon="9.481671555660379"><ele>452.0</ele><time>2026-03-31T16:28:10.999Z</time></trkpt><trkpt lat="45.77020946671348" lon="9.481792732090325"><ele>452.0</ele><time>2026-03-31T16:29:16.999Z</time></trkpt><trkpt lat="45.770307043610195" lon="9.481676258155595"><ele>452.0</ele><time>2026-03-31T16:30:23Z</time></trkpt><trkpt lat="45.77026703170599" lon="9.481524241947993"><ele>452.00000000000006</ele><time>2026-03-31T16:30:30Z</time></trkpt><trkpt lat="45.77020770848755" lon="9.481587246317686"><ele>452.00000000000006</ele><time>2026-03-31T16:30:38Z</time></trkpt><trkpt lat="45.77021635692638" lon="9.481787745089012"><ele>452.0</ele><time>2026-03-31T16:30:42Z</time></trkpt><trkpt lat="45.770280880411086" lon="9.481768057684551"><ele>452.0</ele><time>2026-03-31T16:31:49Z</time></trkpt><trkpt lat="45.77028176060059" lon="9.48153812474387"><ele>452.0</ele><time>2026-03-31T16:31:52Z</time></trkpt><trkpt lat="45.77018563537137" lon="9.481507823444643"><ele>448.0</ele><time>2026-03-31T16:32:26Z</time></trkpt><trkpt lat="45.77022051718015" lon="9.481683644072078"><ele>452.0</ele><time>2026-03-31T16:32:27Z</time></trkpt></trkseg></trk></gpx>